<?xml version="1.0" encoding="UTF-8" standalone="no" ?>
<gpx xmlns="http://www.topografix.com/GPX/1/1" xmlns:xsi="http://www.w3.org/2001/XMLSchema-instance" xsi:schemaLocation="http://www.topografix.com/GPX/1/1 http://www.topografix.com/GPX/1/1/gpx.xsd" version="1.1" creator="VisuGPX - https://www.visugpx.com">
  <metadata>
    <name>13256166-saint étienne saint quentin par les cols</name>
  </metadata>
  <trk>
    <name><![CDATA[13256166-saint étienne saint quentin par les cols]]></name>
    <trkseg>
      <trkpt lat="45.44282" lon="4.39927">
        <ele>510</ele>
        <time>2022-02-07T19:32:55Z</time>
      </trkpt>
      <trkpt lat="45.44283" lon="4.3992">
        <ele>509</ele>
        <time>2022-02-07T19:32:56Z</time>
      </trkpt>
      <trkpt lat="45.44279" lon="4.39918">
        <ele>510</ele>
        <time>2022-02-07T19:32:57Z</time>
      </trkpt>
      <trkpt lat="45.44281" lon="4.39911">
        <ele>509</ele>
        <time>2022-02-07T19:32:58Z</time>
      </trkpt>
      <trkpt lat="45.4418" lon="4.39859">
        <ele>517</ele>
        <time>2022-02-07T19:33:17Z</time>
      </trkpt>
      <trkpt lat="45.44037" lon="4.39777">
        <ele>528</ele>
        <time>2022-02-07T19:33:44Z</time>
      </trkpt>
      <trkpt lat="45.44031" lon="4.39772">
        <ele>528</ele>
        <time>2022-02-07T19:33:45Z</time>
      </trkpt>
      <trkpt lat="45.44027" lon="4.39763">
        <ele>529</ele>
        <time>2022-02-07T19:33:47Z</time>
      </trkpt>
      <trkpt lat="45.44026" lon="4.39749">
        <ele>529</ele>
        <time>2022-02-07T19:33:48Z</time>
      </trkpt>
      <trkpt lat="45.44021" lon="4.39741">
        <ele>529</ele>
        <time>2022-02-07T19:33:50Z</time>
      </trkpt>
      <trkpt lat="45.44015" lon="4.39722">
        <ele>530</ele>
        <time>2022-02-07T19:33:52Z</time>
      </trkpt>
      <trkpt lat="45.43987" lon="4.39655">
        <ele>533</ele>
        <time>2022-02-07T19:34:02Z</time>
      </trkpt>
      <trkpt lat="45.43888" lon="4.397">
        <ele>532</ele>
        <time>2022-02-07T19:34:21Z</time>
      </trkpt>
      <trkpt lat="45.43869" lon="4.39673">
        <ele>531</ele>
        <time>2022-02-07T19:34:25Z</time>
      </trkpt>
      <trkpt lat="45.43812" lon="4.39601">
        <ele>531</ele>
        <time>2022-02-07T19:34:39Z</time>
      </trkpt>
      <trkpt lat="45.43778" lon="4.39555">
        <ele>530</ele>
        <time>2022-02-07T19:34:47Z</time>
      </trkpt>
      <trkpt lat="45.4377" lon="4.39545">
        <ele>530</ele>
        <time>2022-02-07T19:34:49Z</time>
      </trkpt>
      <trkpt lat="45.43713" lon="4.39468">
        <ele>530</ele>
        <time>2022-02-07T19:35:03Z</time>
      </trkpt>
      <trkpt lat="45.43657" lon="4.39399">
        <ele>530</ele>
        <time>2022-02-07T19:35:16Z</time>
      </trkpt>
      <trkpt lat="45.4363" lon="4.39437">
        <ele>532</ele>
        <time>2022-02-07T19:35:23Z</time>
      </trkpt>
      <trkpt lat="45.43621" lon="4.39446">
        <ele>532</ele>
        <time>2022-02-07T19:35:25Z</time>
      </trkpt>
      <trkpt lat="45.43593" lon="4.39457">
        <ele>534</ele>
        <time>2022-02-07T19:35:30Z</time>
      </trkpt>
      <trkpt lat="45.43535" lon="4.39466">
        <ele>538</ele>
        <time>2022-02-07T19:35:41Z</time>
      </trkpt>
      <trkpt lat="45.43441" lon="4.39504">
        <ele>539</ele>
        <time>2022-02-07T19:35:58Z</time>
      </trkpt>
      <trkpt lat="45.43374" lon="4.39528">
        <ele>541</ele>
        <time>2022-02-07T19:36:10Z</time>
      </trkpt>
      <trkpt lat="45.43361" lon="4.39532">
        <ele>541</ele>
        <time>2022-02-07T19:36:13Z</time>
      </trkpt>
      <trkpt lat="45.43342" lon="4.39539">
        <ele>542</ele>
        <time>2022-02-07T19:36:16Z</time>
      </trkpt>
      <trkpt lat="45.43322" lon="4.39547">
        <ele>543</ele>
        <time>2022-02-07T19:36:20Z</time>
      </trkpt>
      <trkpt lat="45.43304" lon="4.39553">
        <ele>543</ele>
        <time>2022-02-07T19:36:23Z</time>
      </trkpt>
      <trkpt lat="45.43286" lon="4.39561">
        <ele>544</ele>
        <time>2022-02-07T19:36:26Z</time>
      </trkpt>
      <trkpt lat="45.43237" lon="4.39576">
        <ele>544</ele>
        <time>2022-02-07T19:36:35Z</time>
      </trkpt>
      <trkpt lat="45.43227" lon="4.39575">
        <ele>544</ele>
        <time>2022-02-07T19:36:37Z</time>
      </trkpt>
      <trkpt lat="45.43213" lon="4.3957">
        <ele>544</ele>
        <time>2022-02-07T19:36:40Z</time>
      </trkpt>
      <trkpt lat="45.43189" lon="4.39551">
        <ele>544</ele>
        <time>2022-02-07T19:36:45Z</time>
      </trkpt>
      <trkpt lat="45.43177" lon="4.39541">
        <ele>544</ele>
        <time>2022-02-07T19:36:47Z</time>
      </trkpt>
      <trkpt lat="45.43162" lon="4.3952">
        <ele>543</ele>
        <time>2022-02-07T19:36:51Z</time>
      </trkpt>
      <trkpt lat="45.43007" lon="4.39648">
        <ele>548</ele>
        <time>2022-02-07T19:37:23Z</time>
      </trkpt>
      <trkpt lat="45.42956" lon="4.39693">
        <ele>551</ele>
        <time>2022-02-07T19:37:33Z</time>
      </trkpt>
      <trkpt lat="45.42928" lon="4.39723">
        <ele>552</ele>
        <time>2022-02-07T19:37:40Z</time>
      </trkpt>
      <trkpt lat="45.42885" lon="4.39783">
        <ele>553</ele>
        <time>2022-02-07T19:37:50Z</time>
      </trkpt>
      <trkpt lat="45.42852" lon="4.39843">
        <ele>553</ele>
        <time>2022-02-07T19:38:00Z</time>
      </trkpt>
      <trkpt lat="45.42829" lon="4.39894">
        <ele>554</ele>
        <time>2022-02-07T19:38:07Z</time>
      </trkpt>
      <trkpt lat="45.42757" lon="4.40082">
        <ele>559</ele>
        <time>2022-02-07T19:38:34Z</time>
      </trkpt>
      <trkpt lat="45.42685" lon="4.40347">
        <ele>561</ele>
        <time>2022-02-07T19:39:10Z</time>
      </trkpt>
      <trkpt lat="45.42675" lon="4.40345">
        <ele>561</ele>
        <time>2022-02-07T19:39:11Z</time>
      </trkpt>
      <trkpt lat="45.42658" lon="4.40403">
        <ele>561</ele>
        <time>2022-02-07T19:39:19Z</time>
      </trkpt>
      <trkpt lat="45.42638" lon="4.40452">
        <ele>564</ele>
        <time>2022-02-07T19:39:26Z</time>
      </trkpt>
      <trkpt lat="45.42616" lon="4.40498">
        <ele>566</ele>
        <time>2022-02-07T19:39:33Z</time>
      </trkpt>
      <trkpt lat="45.42595" lon="4.40532">
        <ele>567</ele>
        <time>2022-02-07T19:39:39Z</time>
      </trkpt>
      <trkpt lat="45.42574" lon="4.40563">
        <ele>568</ele>
        <time>2022-02-07T19:39:44Z</time>
      </trkpt>
      <trkpt lat="45.42377" lon="4.40788">
        <ele>571</ele>
        <time>2022-02-07T19:40:29Z</time>
      </trkpt>
      <trkpt lat="45.42329" lon="4.40838">
        <ele>570</ele>
        <time>2022-02-07T19:40:40Z</time>
      </trkpt>
      <trkpt lat="45.42285" lon="4.40888">
        <ele>571</ele>
        <time>2022-02-07T19:40:50Z</time>
      </trkpt>
      <trkpt lat="45.42264" lon="4.40914">
        <ele>571</ele>
        <time>2022-02-07T19:40:55Z</time>
      </trkpt>
      <trkpt lat="45.42105" lon="4.41094">
        <ele>578</ele>
        <time>2022-02-07T19:41:31Z</time>
      </trkpt>
      <trkpt lat="45.42097" lon="4.41086">
        <ele>578</ele>
        <time>2022-02-07T19:41:33Z</time>
      </trkpt>
      <trkpt lat="45.42088" lon="4.4108">
        <ele>578</ele>
        <time>2022-02-07T19:41:34Z</time>
      </trkpt>
      <trkpt lat="45.42076" lon="4.41076">
        <ele>579</ele>
        <time>2022-02-07T19:41:37Z</time>
      </trkpt>
      <trkpt lat="45.42063" lon="4.41076">
        <ele>580</ele>
        <time>2022-02-07T19:41:39Z</time>
      </trkpt>
      <trkpt lat="45.42051" lon="4.41081">
        <ele>580</ele>
        <time>2022-02-07T19:41:41Z</time>
      </trkpt>
      <trkpt lat="45.42041" lon="4.4109">
        <ele>581</ele>
        <time>2022-02-07T19:41:43Z</time>
      </trkpt>
      <trkpt lat="45.42032" lon="4.41102">
        <ele>581</ele>
        <time>2022-02-07T19:41:45Z</time>
      </trkpt>
      <trkpt lat="45.42023" lon="4.41125">
        <ele>581</ele>
        <time>2022-02-07T19:41:49Z</time>
      </trkpt>
      <trkpt lat="45.42019" lon="4.41127">
        <ele>582</ele>
        <time>2022-02-07T19:41:50Z</time>
      </trkpt>
      <trkpt lat="45.42008" lon="4.41138">
        <ele>582</ele>
        <time>2022-02-07T19:41:52Z</time>
      </trkpt>
      <trkpt lat="45.41997" lon="4.41145">
        <ele>583</ele>
        <time>2022-02-07T19:41:54Z</time>
      </trkpt>
      <trkpt lat="45.41978" lon="4.41151">
        <ele>584</ele>
        <time>2022-02-07T19:41:58Z</time>
      </trkpt>
      <trkpt lat="45.41891" lon="4.41141">
        <ele>591</ele>
        <time>2022-02-07T19:42:13Z</time>
      </trkpt>
      <trkpt lat="45.41776" lon="4.41128">
        <ele>603</ele>
        <time>2022-02-07T19:42:34Z</time>
      </trkpt>
      <trkpt lat="45.41766" lon="4.41129">
        <ele>604</ele>
        <time>2022-02-07T19:42:35Z</time>
      </trkpt>
      <trkpt lat="45.41756" lon="4.41123">
        <ele>605</ele>
        <time>2022-02-07T19:42:37Z</time>
      </trkpt>
      <trkpt lat="45.41718" lon="4.41116">
        <ele>609</ele>
        <time>2022-02-07T19:42:44Z</time>
      </trkpt>
      <trkpt lat="45.41629" lon="4.41088">
        <ele>616</ele>
        <time>2022-02-07T19:43:00Z</time>
      </trkpt>
      <trkpt lat="45.4161" lon="4.4108">
        <ele>617</ele>
        <time>2022-02-07T19:43:04Z</time>
      </trkpt>
      <trkpt lat="45.41591" lon="4.41077">
        <ele>618</ele>
        <time>2022-02-07T19:43:07Z</time>
      </trkpt>
      <trkpt lat="45.41573" lon="4.41078">
        <ele>620</ele>
        <time>2022-02-07T19:43:10Z</time>
      </trkpt>
      <trkpt lat="45.41543" lon="4.41072">
        <ele>623</ele>
        <time>2022-02-07T19:43:16Z</time>
      </trkpt>
      <trkpt lat="45.41521" lon="4.41062">
        <ele>625</ele>
        <time>2022-02-07T19:43:20Z</time>
      </trkpt>
      <trkpt lat="45.41447" lon="4.41017">
        <ele>633</ele>
        <time>2022-02-07T19:43:34Z</time>
      </trkpt>
      <trkpt lat="45.4143" lon="4.41002">
        <ele>635</ele>
        <time>2022-02-07T19:43:38Z</time>
      </trkpt>
      <trkpt lat="45.41415" lon="4.40978">
        <ele>633</ele>
        <time>2022-02-07T19:43:42Z</time>
      </trkpt>
      <trkpt lat="45.41394" lon="4.40936">
        <ele>628</ele>
        <time>2022-02-07T19:43:48Z</time>
      </trkpt>
      <trkpt lat="45.41381" lon="4.40915">
        <ele>626</ele>
        <time>2022-02-07T19:43:52Z</time>
      </trkpt>
      <trkpt lat="45.41362" lon="4.409">
        <ele>627</ele>
        <time>2022-02-07T19:43:56Z</time>
      </trkpt>
      <trkpt lat="45.41346" lon="4.4089">
        <ele>628</ele>
        <time>2022-02-07T19:43:59Z</time>
      </trkpt>
      <trkpt lat="45.41333" lon="4.40886">
        <ele>630</ele>
        <time>2022-02-07T19:44:01Z</time>
      </trkpt>
      <trkpt lat="45.41321" lon="4.40886">
        <ele>628</ele>
        <time>2022-02-07T19:44:03Z</time>
      </trkpt>
      <trkpt lat="45.41306" lon="4.40891">
        <ele>626</ele>
        <time>2022-02-07T19:44:06Z</time>
      </trkpt>
      <trkpt lat="45.41294" lon="4.40901">
        <ele>627</ele>
        <time>2022-02-07T19:44:08Z</time>
      </trkpt>
      <trkpt lat="45.41243" lon="4.40967">
        <ele>637</ele>
        <time>2022-02-07T19:44:21Z</time>
      </trkpt>
      <trkpt lat="45.41199" lon="4.40999">
        <ele>636</ele>
        <time>2022-02-07T19:44:30Z</time>
      </trkpt>
      <trkpt lat="45.41138" lon="4.41053">
        <ele>637</ele>
        <time>2022-02-07T19:44:42Z</time>
      </trkpt>
      <trkpt lat="45.41074" lon="4.41123">
        <ele>642</ele>
        <time>2022-02-07T19:44:57Z</time>
      </trkpt>
      <trkpt lat="45.41058" lon="4.41145">
        <ele>641</ele>
        <time>2022-02-07T19:45:01Z</time>
      </trkpt>
      <trkpt lat="45.41045" lon="4.41171">
        <ele>641</ele>
        <time>2022-02-07T19:45:05Z</time>
      </trkpt>
      <trkpt lat="45.41039" lon="4.41199">
        <ele>643</ele>
        <time>2022-02-07T19:45:08Z</time>
      </trkpt>
      <trkpt lat="45.41035" lon="4.41227">
        <ele>645</ele>
        <time>2022-02-07T19:45:12Z</time>
      </trkpt>
      <trkpt lat="45.41032" lon="4.41309">
        <ele>654</ele>
        <time>2022-02-07T19:45:22Z</time>
      </trkpt>
      <trkpt lat="45.41027" lon="4.41333">
        <ele>654</ele>
        <time>2022-02-07T19:45:25Z</time>
      </trkpt>
      <trkpt lat="45.41022" lon="4.41353">
        <ele>655</ele>
        <time>2022-02-07T19:45:28Z</time>
      </trkpt>
      <trkpt lat="45.40984" lon="4.41451">
        <ele>658</ele>
        <time>2022-02-07T19:45:42Z</time>
      </trkpt>
      <trkpt lat="45.40928" lon="4.41539">
        <ele>658</ele>
        <time>2022-02-07T19:45:57Z</time>
      </trkpt>
      <trkpt lat="45.40902" lon="4.4159">
        <ele>660</ele>
        <time>2022-02-07T19:46:05Z</time>
      </trkpt>
      <trkpt lat="45.40889" lon="4.41637">
        <ele>659</ele>
        <time>2022-02-07T19:46:11Z</time>
      </trkpt>
      <trkpt lat="45.40885" lon="4.41659">
        <ele>660</ele>
        <time>2022-02-07T19:46:14Z</time>
      </trkpt>
      <trkpt lat="45.40885" lon="4.41692">
        <ele>662</ele>
        <time>2022-02-07T19:46:18Z</time>
      </trkpt>
      <trkpt lat="45.40891" lon="4.41729">
        <ele>667</ele>
        <time>2022-02-07T19:46:23Z</time>
      </trkpt>
      <trkpt lat="45.40894" lon="4.4176">
        <ele>670</ele>
        <time>2022-02-07T19:46:26Z</time>
      </trkpt>
      <trkpt lat="45.40893" lon="4.41777">
        <ele>672</ele>
        <time>2022-02-07T19:46:29Z</time>
      </trkpt>
      <trkpt lat="45.40891" lon="4.41795">
        <ele>674</ele>
        <time>2022-02-07T19:46:31Z</time>
      </trkpt>
      <trkpt lat="45.40858" lon="4.41902">
        <ele>671</ele>
        <time>2022-02-07T19:46:45Z</time>
      </trkpt>
      <trkpt lat="45.40855" lon="4.41923">
        <ele>672</ele>
        <time>2022-02-07T19:46:48Z</time>
      </trkpt>
      <trkpt lat="45.4085" lon="4.42015">
        <ele>676</ele>
        <time>2022-02-07T19:47:00Z</time>
      </trkpt>
      <trkpt lat="45.40853" lon="4.4204">
        <ele>676</ele>
        <time>2022-02-07T19:47:03Z</time>
      </trkpt>
      <trkpt lat="45.40894" lon="4.42167">
        <ele>684</ele>
        <time>2022-02-07T19:47:20Z</time>
      </trkpt>
      <trkpt lat="45.409" lon="4.4221">
        <ele>686</ele>
        <time>2022-02-07T19:47:26Z</time>
      </trkpt>
      <trkpt lat="45.40902" lon="4.42441">
        <ele>684</ele>
        <time>2022-02-07T19:47:55Z</time>
      </trkpt>
      <trkpt lat="45.40905" lon="4.42461">
        <ele>684</ele>
        <time>2022-02-07T19:47:57Z</time>
      </trkpt>
      <trkpt lat="45.40913" lon="4.42481">
        <ele>686</ele>
        <time>2022-02-07T19:48:00Z</time>
      </trkpt>
      <trkpt lat="45.40922" lon="4.42494">
        <ele>689</ele>
        <time>2022-02-07T19:48:02Z</time>
      </trkpt>
      <trkpt lat="45.40955" lon="4.42524">
        <ele>698</ele>
        <time>2022-02-07T19:48:09Z</time>
      </trkpt>
      <trkpt lat="45.40969" lon="4.4255">
        <ele>700</ele>
        <time>2022-02-07T19:48:13Z</time>
      </trkpt>
      <trkpt lat="45.40985" lon="4.42622">
        <ele>698</ele>
        <time>2022-02-07T19:48:23Z</time>
      </trkpt>
      <trkpt lat="45.40996" lon="4.4265">
        <ele>699</ele>
        <time>2022-02-07T19:48:27Z</time>
      </trkpt>
      <trkpt lat="45.41009" lon="4.42677">
        <ele>702</ele>
        <time>2022-02-07T19:48:31Z</time>
      </trkpt>
      <trkpt lat="45.41019" lon="4.42702">
        <ele>704</ele>
        <time>2022-02-07T19:48:35Z</time>
      </trkpt>
      <trkpt lat="45.41029" lon="4.42737">
        <ele>705</ele>
        <time>2022-02-07T19:48:39Z</time>
      </trkpt>
      <trkpt lat="45.4105" lon="4.42836">
        <ele>704</ele>
        <time>2022-02-07T19:48:52Z</time>
      </trkpt>
      <trkpt lat="45.41081" lon="4.43021">
        <ele>710</ele>
        <time>2022-02-07T19:49:16Z</time>
      </trkpt>
      <trkpt lat="45.41082" lon="4.43053">
        <ele>710</ele>
        <time>2022-02-07T19:49:20Z</time>
      </trkpt>
      <trkpt lat="45.41081" lon="4.43111">
        <ele>710</ele>
        <time>2022-02-07T19:49:27Z</time>
      </trkpt>
      <trkpt lat="45.41084" lon="4.43154">
        <ele>710</ele>
        <time>2022-02-07T19:49:33Z</time>
      </trkpt>
      <trkpt lat="45.41104" lon="4.43263">
        <ele>719</ele>
        <time>2022-02-07T19:49:47Z</time>
      </trkpt>
      <trkpt lat="45.41107" lon="4.43287">
        <ele>721</ele>
        <time>2022-02-07T19:49:50Z</time>
      </trkpt>
      <trkpt lat="45.41108" lon="4.43309">
        <ele>721</ele>
        <time>2022-02-07T19:49:52Z</time>
      </trkpt>
      <trkpt lat="45.41106" lon="4.43331">
        <ele>721</ele>
        <time>2022-02-07T19:49:55Z</time>
      </trkpt>
      <trkpt lat="45.411" lon="4.43367">
        <ele>722</ele>
        <time>2022-02-07T19:50:00Z</time>
      </trkpt>
      <trkpt lat="45.41093" lon="4.43391">
        <ele>722</ele>
        <time>2022-02-07T19:50:03Z</time>
      </trkpt>
      <trkpt lat="45.41049" lon="4.43491">
        <ele>721</ele>
        <time>2022-02-07T19:50:18Z</time>
      </trkpt>
      <trkpt lat="45.41046" lon="4.43517">
        <ele>720</ele>
        <time>2022-02-07T19:50:21Z</time>
      </trkpt>
      <trkpt lat="45.41051" lon="4.43537">
        <ele>720</ele>
        <time>2022-02-07T19:50:24Z</time>
      </trkpt>
      <trkpt lat="45.41082" lon="4.43595">
        <ele>729</ele>
        <time>2022-02-07T19:50:33Z</time>
      </trkpt>
      <trkpt lat="45.41103" lon="4.43661">
        <ele>730</ele>
        <time>2022-02-07T19:50:42Z</time>
      </trkpt>
      <trkpt lat="45.41121" lon="4.43695">
        <ele>737</ele>
        <time>2022-02-07T19:50:47Z</time>
      </trkpt>
      <trkpt lat="45.41126" lon="4.43714">
        <ele>739</ele>
        <time>2022-02-07T19:50:50Z</time>
      </trkpt>
      <trkpt lat="45.41127" lon="4.43729">
        <ele>739</ele>
        <time>2022-02-07T19:50:52Z</time>
      </trkpt>
      <trkpt lat="45.41125" lon="4.43747">
        <ele>737</ele>
        <time>2022-02-07T19:50:54Z</time>
      </trkpt>
      <trkpt lat="45.41102" lon="4.43813">
        <ele>735</ele>
        <time>2022-02-07T19:51:03Z</time>
      </trkpt>
      <trkpt lat="45.41071" lon="4.43882">
        <ele>736</ele>
        <time>2022-02-07T19:51:13Z</time>
      </trkpt>
      <trkpt lat="45.41057" lon="4.43921">
        <ele>737</ele>
        <time>2022-02-07T19:51:19Z</time>
      </trkpt>
      <trkpt lat="45.41055" lon="4.43944">
        <ele>736</ele>
        <time>2022-02-07T19:51:22Z</time>
      </trkpt>
      <trkpt lat="45.41059" lon="4.43959">
        <ele>737</ele>
        <time>2022-02-07T19:51:24Z</time>
      </trkpt>
      <trkpt lat="45.41066" lon="4.43973">
        <ele>740</ele>
        <time>2022-02-07T19:51:26Z</time>
      </trkpt>
      <trkpt lat="45.41091" lon="4.4399">
        <ele>751</ele>
        <time>2022-02-07T19:51:31Z</time>
      </trkpt>
      <trkpt lat="45.41103" lon="4.44006">
        <ele>754</ele>
        <time>2022-02-07T19:51:34Z</time>
      </trkpt>
      <trkpt lat="45.41124" lon="4.4407">
        <ele>747</ele>
        <time>2022-02-07T19:51:43Z</time>
      </trkpt>
      <trkpt lat="45.41147" lon="4.44107">
        <ele>750</ele>
        <time>2022-02-07T19:51:49Z</time>
      </trkpt>
      <trkpt lat="45.41162" lon="4.44137">
        <ele>754</ele>
        <time>2022-02-07T19:51:53Z</time>
      </trkpt>
      <trkpt lat="45.41169" lon="4.44157">
        <ele>755</ele>
        <time>2022-02-07T19:51:56Z</time>
      </trkpt>
      <trkpt lat="45.41176" lon="4.44198">
        <ele>756</ele>
        <time>2022-02-07T19:52:01Z</time>
      </trkpt>
      <trkpt lat="45.41178" lon="4.44229">
        <ele>754</ele>
        <time>2022-02-07T19:52:05Z</time>
      </trkpt>
      <trkpt lat="45.41163" lon="4.44337">
        <ele>758</ele>
        <time>2022-02-07T19:52:19Z</time>
      </trkpt>
      <trkpt lat="45.41151" lon="4.44399">
        <ele>761</ele>
        <time>2022-02-07T19:52:27Z</time>
      </trkpt>
      <trkpt lat="45.41143" lon="4.44425">
        <ele>762</ele>
        <time>2022-02-07T19:52:31Z</time>
      </trkpt>
      <trkpt lat="45.41137" lon="4.44443">
        <ele>762</ele>
        <time>2022-02-07T19:52:33Z</time>
      </trkpt>
      <trkpt lat="45.41129" lon="4.44458">
        <ele>761</ele>
        <time>2022-02-07T19:52:35Z</time>
      </trkpt>
      <trkpt lat="45.41116" lon="4.44475">
        <ele>761</ele>
        <time>2022-02-07T19:52:39Z</time>
      </trkpt>
      <trkpt lat="45.41066" lon="4.44525">
        <ele>760</ele>
        <time>2022-02-07T19:52:49Z</time>
      </trkpt>
      <trkpt lat="45.41032" lon="4.44578">
        <ele>766</ele>
        <time>2022-02-07T19:52:58Z</time>
      </trkpt>
      <trkpt lat="45.41022" lon="4.4459">
        <ele>768</ele>
        <time>2022-02-07T19:53:01Z</time>
      </trkpt>
      <trkpt lat="45.4092" lon="4.44645">
        <ele>776</ele>
        <time>2022-02-07T19:53:20Z</time>
      </trkpt>
      <trkpt lat="45.40851" lon="4.44671">
        <ele>781</ele>
        <time>2022-02-07T19:53:33Z</time>
      </trkpt>
      <trkpt lat="45.40839" lon="4.44679">
        <ele>782</ele>
        <time>2022-02-07T19:53:35Z</time>
      </trkpt>
      <trkpt lat="45.40827" lon="4.4469">
        <ele>784</ele>
        <time>2022-02-07T19:53:38Z</time>
      </trkpt>
      <trkpt lat="45.40799" lon="4.4475">
        <ele>794</ele>
        <time>2022-02-07T19:53:47Z</time>
      </trkpt>
      <trkpt lat="45.40772" lon="4.44793">
        <ele>801</ele>
        <time>2022-02-07T19:53:54Z</time>
      </trkpt>
      <trkpt lat="45.40763" lon="4.44802">
        <ele>803</ele>
        <time>2022-02-07T19:53:56Z</time>
      </trkpt>
      <trkpt lat="45.40749" lon="4.4481">
        <ele>804</ele>
        <time>2022-02-07T19:53:59Z</time>
      </trkpt>
      <trkpt lat="45.40674" lon="4.44803">
        <ele>803</ele>
        <time>2022-02-07T19:54:12Z</time>
      </trkpt>
      <trkpt lat="45.40595" lon="4.44792">
        <ele>801</ele>
        <time>2022-02-07T19:54:26Z</time>
      </trkpt>
      <trkpt lat="45.40587" lon="4.44794">
        <ele>802</ele>
        <time>2022-02-07T19:54:28Z</time>
      </trkpt>
      <trkpt lat="45.40577" lon="4.448">
        <ele>804</ele>
        <time>2022-02-07T19:54:29Z</time>
      </trkpt>
      <trkpt lat="45.4052" lon="4.44845">
        <ele>811</ele>
        <time>2022-02-07T19:54:41Z</time>
      </trkpt>
      <trkpt lat="45.4049" lon="4.44866">
        <ele>814</ele>
        <time>2022-02-07T19:54:47Z</time>
      </trkpt>
      <trkpt lat="45.40453" lon="4.44886">
        <ele>813</ele>
        <time>2022-02-07T19:54:54Z</time>
      </trkpt>
      <trkpt lat="45.4044" lon="4.44899">
        <ele>815</ele>
        <time>2022-02-07T19:54:57Z</time>
      </trkpt>
      <trkpt lat="45.40421" lon="4.44933">
        <ele>824</ele>
        <time>2022-02-07T19:55:02Z</time>
      </trkpt>
      <trkpt lat="45.40407" lon="4.44949">
        <ele>829</ele>
        <time>2022-02-07T19:55:06Z</time>
      </trkpt>
      <trkpt lat="45.40397" lon="4.44957">
        <ele>832</ele>
        <time>2022-02-07T19:55:08Z</time>
      </trkpt>
      <trkpt lat="45.40381" lon="4.44959">
        <ele>833</ele>
        <time>2022-02-07T19:55:10Z</time>
      </trkpt>
      <trkpt lat="45.4036" lon="4.44956">
        <ele>832</ele>
        <time>2022-02-07T19:55:14Z</time>
      </trkpt>
      <trkpt lat="45.4033" lon="4.44941">
        <ele>825</ele>
        <time>2022-02-07T19:55:20Z</time>
      </trkpt>
      <trkpt lat="45.40317" lon="4.44938">
        <ele>822</ele>
        <time>2022-02-07T19:55:22Z</time>
      </trkpt>
      <trkpt lat="45.40305" lon="4.4494">
        <ele>821</ele>
        <time>2022-02-07T19:55:24Z</time>
      </trkpt>
      <trkpt lat="45.40294" lon="4.44945">
        <ele>821</ele>
        <time>2022-02-07T19:55:26Z</time>
      </trkpt>
      <trkpt lat="45.40287" lon="4.44951">
        <ele>821</ele>
        <time>2022-02-07T19:55:28Z</time>
      </trkpt>
      <trkpt lat="45.4028" lon="4.44962">
        <ele>823</ele>
        <time>2022-02-07T19:55:30Z</time>
      </trkpt>
      <trkpt lat="45.4027" lon="4.44994">
        <ele>829</ele>
        <time>2022-02-07T19:55:34Z</time>
      </trkpt>
      <trkpt lat="45.4024" lon="4.45169">
        <ele>860</ele>
        <time>2022-02-07T19:55:57Z</time>
      </trkpt>
      <trkpt lat="45.40235" lon="4.45179">
        <ele>862</ele>
        <time>2022-02-07T19:55:58Z</time>
      </trkpt>
      <trkpt lat="45.40226" lon="4.45186">
        <ele>863</ele>
        <time>2022-02-07T19:56:00Z</time>
      </trkpt>
      <trkpt lat="45.40219" lon="4.45187">
        <ele>863</ele>
        <time>2022-02-07T19:56:01Z</time>
      </trkpt>
      <trkpt lat="45.40192" lon="4.45178">
        <ele>859</ele>
        <time>2022-02-07T19:56:06Z</time>
      </trkpt>
      <trkpt lat="45.40172" lon="4.45177">
        <ele>857</ele>
        <time>2022-02-07T19:56:10Z</time>
      </trkpt>
      <trkpt lat="45.4014" lon="4.45168">
        <ele>860</ele>
        <time>2022-02-07T19:56:15Z</time>
      </trkpt>
      <trkpt lat="45.40038" lon="4.45132">
        <ele>869</ele>
        <time>2022-02-07T19:56:34Z</time>
      </trkpt>
      <trkpt lat="45.39932" lon="4.45098">
        <ele>872</ele>
        <time>2022-02-07T19:56:54Z</time>
      </trkpt>
      <trkpt lat="45.399" lon="4.45092">
        <ele>871</ele>
        <time>2022-02-07T19:56:59Z</time>
      </trkpt>
      <trkpt lat="45.39877" lon="4.45098">
        <ele>870</ele>
        <time>2022-02-07T19:57:03Z</time>
      </trkpt>
      <trkpt lat="45.39852" lon="4.45116">
        <ele>873</ele>
        <time>2022-02-07T19:57:08Z</time>
      </trkpt>
      <trkpt lat="45.3984" lon="4.45132">
        <ele>876</ele>
        <time>2022-02-07T19:57:11Z</time>
      </trkpt>
      <trkpt lat="45.39832" lon="4.45147">
        <ele>878</ele>
        <time>2022-02-07T19:57:14Z</time>
      </trkpt>
      <trkpt lat="45.39827" lon="4.45162">
        <ele>880</ele>
        <time>2022-02-07T19:57:16Z</time>
      </trkpt>
      <trkpt lat="45.39823" lon="4.4518">
        <ele>881</ele>
        <time>2022-02-07T19:57:18Z</time>
      </trkpt>
      <trkpt lat="45.39821" lon="4.45198">
        <ele>882</ele>
        <time>2022-02-07T19:57:20Z</time>
      </trkpt>
      <trkpt lat="45.3982" lon="4.4522">
        <ele>884</ele>
        <time>2022-02-07T19:57:23Z</time>
      </trkpt>
      <trkpt lat="45.39823" lon="4.45251">
        <ele>890</ele>
        <time>2022-02-07T19:57:27Z</time>
      </trkpt>
      <trkpt lat="45.39823" lon="4.45268">
        <ele>893</ele>
        <time>2022-02-07T19:57:29Z</time>
      </trkpt>
      <trkpt lat="45.3982" lon="4.45286">
        <ele>894</ele>
        <time>2022-02-07T19:57:31Z</time>
      </trkpt>
      <trkpt lat="45.39815" lon="4.45308">
        <ele>896</ele>
        <time>2022-02-07T19:57:34Z</time>
      </trkpt>
      <trkpt lat="45.39795" lon="4.45362">
        <ele>895</ele>
        <time>2022-02-07T19:57:42Z</time>
      </trkpt>
      <trkpt lat="45.39791" lon="4.45381">
        <ele>896</ele>
        <time>2022-02-07T19:57:44Z</time>
      </trkpt>
      <trkpt lat="45.39789" lon="4.454">
        <ele>898</ele>
        <time>2022-02-07T19:57:47Z</time>
      </trkpt>
      <trkpt lat="45.39791" lon="4.45445">
        <ele>905</ele>
        <time>2022-02-07T19:57:53Z</time>
      </trkpt>
      <trkpt lat="45.398" lon="4.45524">
        <ele>918</ele>
        <time>2022-02-07T19:58:03Z</time>
      </trkpt>
      <trkpt lat="45.39799" lon="4.45547">
        <ele>921</ele>
        <time>2022-02-07T19:58:05Z</time>
      </trkpt>
      <trkpt lat="45.39794" lon="4.45567">
        <ele>923</ele>
        <time>2022-02-07T19:58:08Z</time>
      </trkpt>
      <trkpt lat="45.39784" lon="4.45583">
        <ele>922</ele>
        <time>2022-02-07T19:58:11Z</time>
      </trkpt>
      <trkpt lat="45.39774" lon="4.45592">
        <ele>921</ele>
        <time>2022-02-07T19:58:13Z</time>
      </trkpt>
      <trkpt lat="45.39762" lon="4.45594">
        <ele>918</ele>
        <time>2022-02-07T19:58:15Z</time>
      </trkpt>
      <trkpt lat="45.39739" lon="4.45595">
        <ele>913</ele>
        <time>2022-02-07T19:58:19Z</time>
      </trkpt>
      <trkpt lat="45.39726" lon="4.456">
        <ele>911</ele>
        <time>2022-02-07T19:58:21Z</time>
      </trkpt>
      <trkpt lat="45.39711" lon="4.45614">
        <ele>911</ele>
        <time>2022-02-07T19:58:25Z</time>
      </trkpt>
      <trkpt lat="45.39699" lon="4.4563">
        <ele>911</ele>
        <time>2022-02-07T19:58:28Z</time>
      </trkpt>
      <trkpt lat="45.39691" lon="4.45642">
        <ele>912</ele>
        <time>2022-02-07T19:58:30Z</time>
      </trkpt>
      <trkpt lat="45.39684" lon="4.45659">
        <ele>913</ele>
        <time>2022-02-07T19:58:32Z</time>
      </trkpt>
      <trkpt lat="45.39677" lon="4.45683">
        <ele>915</ele>
        <time>2022-02-07T19:58:35Z</time>
      </trkpt>
      <trkpt lat="45.39668" lon="4.45731">
        <ele>920</ele>
        <time>2022-02-07T19:58:42Z</time>
      </trkpt>
      <trkpt lat="45.39666" lon="4.45768">
        <ele>925</ele>
        <time>2022-02-07T19:58:46Z</time>
      </trkpt>
      <trkpt lat="45.39664" lon="4.45854">
        <ele>936</ele>
        <time>2022-02-07T19:58:57Z</time>
      </trkpt>
      <trkpt lat="45.39661" lon="4.45877">
        <ele>938</ele>
        <time>2022-02-07T19:59:00Z</time>
      </trkpt>
      <trkpt lat="45.39656" lon="4.45896">
        <ele>941</ele>
        <time>2022-02-07T19:59:02Z</time>
      </trkpt>
      <trkpt lat="45.39649" lon="4.45907">
        <ele>943</ele>
        <time>2022-02-07T19:59:04Z</time>
      </trkpt>
      <trkpt lat="45.39641" lon="4.45915">
        <ele>945</ele>
        <time>2022-02-07T19:59:06Z</time>
      </trkpt>
      <trkpt lat="45.39629" lon="4.45921">
        <ele>947</ele>
        <time>2022-02-07T19:59:08Z</time>
      </trkpt>
      <trkpt lat="45.39618" lon="4.45921">
        <ele>948</ele>
        <time>2022-02-07T19:59:10Z</time>
      </trkpt>
      <trkpt lat="45.3961" lon="4.45916">
        <ele>948</ele>
        <time>2022-02-07T19:59:12Z</time>
      </trkpt>
      <trkpt lat="45.39603" lon="4.45905">
        <ele>946</ele>
        <time>2022-02-07T19:59:14Z</time>
      </trkpt>
      <trkpt lat="45.39594" lon="4.45865">
        <ele>939</ele>
        <time>2022-02-07T19:59:19Z</time>
      </trkpt>
      <trkpt lat="45.39582" lon="4.45843">
        <ele>935</ele>
        <time>2022-02-07T19:59:22Z</time>
      </trkpt>
      <trkpt lat="45.39566" lon="4.4583">
        <ele>939</ele>
        <time>2022-02-07T19:59:26Z</time>
      </trkpt>
      <trkpt lat="45.39524" lon="4.45817">
        <ele>953</ele>
        <time>2022-02-07T19:59:33Z</time>
      </trkpt>
      <trkpt lat="45.39513" lon="4.45807">
        <ele>956</ele>
        <time>2022-02-07T19:59:36Z</time>
      </trkpt>
      <trkpt lat="45.39507" lon="4.45795">
        <ele>956</ele>
        <time>2022-02-07T19:59:37Z</time>
      </trkpt>
      <trkpt lat="45.39501" lon="4.45777">
        <ele>956</ele>
        <time>2022-02-07T19:59:40Z</time>
      </trkpt>
      <trkpt lat="45.39496" lon="4.45754">
        <ele>955</ele>
        <time>2022-02-07T19:59:43Z</time>
      </trkpt>
      <trkpt lat="45.39493" lon="4.45678">
        <ele>950</ele>
        <time>2022-02-07T19:59:52Z</time>
      </trkpt>
      <trkpt lat="45.39489" lon="4.45637">
        <ele>948</ele>
        <time>2022-02-07T19:59:58Z</time>
      </trkpt>
      <trkpt lat="45.39476" lon="4.45605">
        <ele>948</ele>
        <time>2022-02-07T20:00:02Z</time>
      </trkpt>
      <trkpt lat="45.39466" lon="4.45594">
        <ele>947</ele>
        <time>2022-02-07T20:00:05Z</time>
      </trkpt>
      <trkpt lat="45.3945" lon="4.45579">
        <ele>946</ele>
        <time>2022-02-07T20:00:08Z</time>
      </trkpt>
      <trkpt lat="45.39338" lon="4.45566">
        <ele>950</ele>
        <time>2022-02-07T20:00:28Z</time>
      </trkpt>
      <trkpt lat="45.3931" lon="4.45554">
        <ele>951</ele>
        <time>2022-02-07T20:00:33Z</time>
      </trkpt>
      <trkpt lat="45.39235" lon="4.45514">
        <ele>954</ele>
        <time>2022-02-07T20:00:47Z</time>
      </trkpt>
      <trkpt lat="45.39177" lon="4.4545">
        <ele>954</ele>
        <time>2022-02-07T20:01:00Z</time>
      </trkpt>
      <trkpt lat="45.39157" lon="4.45422">
        <ele>953</ele>
        <time>2022-02-07T20:01:05Z</time>
      </trkpt>
      <trkpt lat="45.39137" lon="4.45406">
        <ele>951</ele>
        <time>2022-02-07T20:01:09Z</time>
      </trkpt>
      <trkpt lat="45.39112" lon="4.45404">
        <ele>951</ele>
        <time>2022-02-07T20:01:14Z</time>
      </trkpt>
      <trkpt lat="45.39097" lon="4.45414">
        <ele>953</ele>
        <time>2022-02-07T20:01:17Z</time>
      </trkpt>
      <trkpt lat="45.39042" lon="4.45471">
        <ele>958</ele>
        <time>2022-02-07T20:01:29Z</time>
      </trkpt>
      <trkpt lat="45.3897" lon="4.45533">
        <ele>965</ele>
        <time>2022-02-07T20:01:44Z</time>
      </trkpt>
      <trkpt lat="45.38953" lon="4.45545">
        <ele>967</ele>
        <time>2022-02-07T20:01:47Z</time>
      </trkpt>
      <trkpt lat="45.38918" lon="4.4555">
        <ele>967</ele>
        <time>2022-02-07T20:01:54Z</time>
      </trkpt>
      <trkpt lat="45.38906" lon="4.45541">
        <ele>966</ele>
        <time>2022-02-07T20:01:56Z</time>
      </trkpt>
      <trkpt lat="45.38841" lon="4.4551">
        <ele>968</ele>
        <time>2022-02-07T20:02:08Z</time>
      </trkpt>
      <trkpt lat="45.38776" lon="4.45474">
        <ele>970</ele>
        <time>2022-02-07T20:02:21Z</time>
      </trkpt>
      <trkpt lat="45.38717" lon="4.45463">
        <ele>974</ele>
        <time>2022-02-07T20:02:31Z</time>
      </trkpt>
      <trkpt lat="45.38658" lon="4.45462">
        <ele>975</ele>
        <time>2022-02-07T20:02:42Z</time>
      </trkpt>
      <trkpt lat="45.38614" lon="4.45474">
        <ele>976</ele>
        <time>2022-02-07T20:02:50Z</time>
      </trkpt>
      <trkpt lat="45.38595" lon="4.45492">
        <ele>978</ele>
        <time>2022-02-07T20:02:54Z</time>
      </trkpt>
      <trkpt lat="45.38585" lon="4.45514">
        <ele>979</ele>
        <time>2022-02-07T20:02:57Z</time>
      </trkpt>
      <trkpt lat="45.38581" lon="4.45536">
        <ele>979</ele>
        <time>2022-02-07T20:03:00Z</time>
      </trkpt>
      <trkpt lat="45.38583" lon="4.45556">
        <ele>979</ele>
        <time>2022-02-07T20:03:02Z</time>
      </trkpt>
      <trkpt lat="45.38594" lon="4.45612">
        <ele>981</ele>
        <time>2022-02-07T20:03:10Z</time>
      </trkpt>
      <trkpt lat="45.386" lon="4.45658">
        <ele>983</ele>
        <time>2022-02-07T20:03:15Z</time>
      </trkpt>
      <trkpt lat="45.386" lon="4.45701">
        <ele>989</ele>
        <time>2022-02-07T20:03:21Z</time>
      </trkpt>
      <trkpt lat="45.38584" lon="4.45761">
        <ele>995</ele>
        <time>2022-02-07T20:03:29Z</time>
      </trkpt>
      <trkpt lat="45.38563" lon="4.458">
        <ele>994</ele>
        <time>2022-02-07T20:03:35Z</time>
      </trkpt>
      <trkpt lat="45.38538" lon="4.45869">
        <ele>995</ele>
        <time>2022-02-07T20:03:45Z</time>
      </trkpt>
      <trkpt lat="45.38535" lon="4.45904">
        <ele>996</ele>
        <time>2022-02-07T20:03:49Z</time>
      </trkpt>
      <trkpt lat="45.38536" lon="4.45928">
        <ele>997</ele>
        <time>2022-02-07T20:03:52Z</time>
      </trkpt>
      <trkpt lat="45.38541" lon="4.45957">
        <ele>997</ele>
        <time>2022-02-07T20:03:56Z</time>
      </trkpt>
      <trkpt lat="45.3855" lon="4.45977">
        <ele>999</ele>
        <time>2022-02-07T20:03:59Z</time>
      </trkpt>
      <trkpt lat="45.38582" lon="4.46016">
        <ele>1003</ele>
        <time>2022-02-07T20:04:06Z</time>
      </trkpt>
      <trkpt lat="45.3861" lon="4.46044">
        <ele>1005</ele>
        <time>2022-02-07T20:04:12Z</time>
      </trkpt>
      <trkpt lat="45.38636" lon="4.46081">
        <ele>1005</ele>
        <time>2022-02-07T20:04:19Z</time>
      </trkpt>
      <trkpt lat="45.38661" lon="4.46137">
        <ele>1006</ele>
        <time>2022-02-07T20:04:27Z</time>
      </trkpt>
      <trkpt lat="45.38682" lon="4.46214">
        <ele>1007</ele>
        <time>2022-02-07T20:04:38Z</time>
      </trkpt>
      <trkpt lat="45.3871" lon="4.46273">
        <ele>1010</ele>
        <time>2022-02-07T20:04:46Z</time>
      </trkpt>
      <trkpt lat="45.3876" lon="4.46337">
        <ele>1014</ele>
        <time>2022-02-07T20:04:58Z</time>
      </trkpt>
      <trkpt lat="45.38822" lon="4.4639">
        <ele>1017</ele>
        <time>2022-02-07T20:05:11Z</time>
      </trkpt>
      <trkpt lat="45.38844" lon="4.46422">
        <ele>1018</ele>
        <time>2022-02-07T20:05:17Z</time>
      </trkpt>
      <trkpt lat="45.3887" lon="4.4647">
        <ele>1020</ele>
        <time>2022-02-07T20:05:24Z</time>
      </trkpt>
      <trkpt lat="45.38885" lon="4.46507">
        <ele>1021</ele>
        <time>2022-02-07T20:05:30Z</time>
      </trkpt>
      <trkpt lat="45.38892" lon="4.46536">
        <ele>1021</ele>
        <time>2022-02-07T20:05:34Z</time>
      </trkpt>
      <trkpt lat="45.38891" lon="4.46554">
        <ele>1021</ele>
        <time>2022-02-07T20:05:36Z</time>
      </trkpt>
      <trkpt lat="45.3888" lon="4.46569">
        <ele>1021</ele>
        <time>2022-02-07T20:05:39Z</time>
      </trkpt>
      <trkpt lat="45.3887" lon="4.46573">
        <ele>1021</ele>
        <time>2022-02-07T20:05:40Z</time>
      </trkpt>
      <trkpt lat="45.38801" lon="4.46591">
        <ele>1024</ele>
        <time>2022-02-07T20:05:53Z</time>
      </trkpt>
      <trkpt lat="45.38772" lon="4.46607">
        <ele>1024</ele>
        <time>2022-02-07T20:05:58Z</time>
      </trkpt>
      <trkpt lat="45.38749" lon="4.46628">
        <ele>1025</ele>
        <time>2022-02-07T20:06:03Z</time>
      </trkpt>
      <trkpt lat="45.38726" lon="4.46675">
        <ele>1024</ele>
        <time>2022-02-07T20:06:10Z</time>
      </trkpt>
      <trkpt lat="45.38722" lon="4.46706">
        <ele>1021</ele>
        <time>2022-02-07T20:06:14Z</time>
      </trkpt>
      <trkpt lat="45.38724" lon="4.46743">
        <ele>1018</ele>
        <time>2022-02-07T20:06:19Z</time>
      </trkpt>
      <trkpt lat="45.38741" lon="4.46777">
        <ele>1016</ele>
        <time>2022-02-07T20:06:24Z</time>
      </trkpt>
      <trkpt lat="45.38795" lon="4.46822">
        <ele>1017</ele>
        <time>2022-02-07T20:06:35Z</time>
      </trkpt>
      <trkpt lat="45.38824" lon="4.4685">
        <ele>1020</ele>
        <time>2022-02-07T20:06:42Z</time>
      </trkpt>
      <trkpt lat="45.38843" lon="4.46887">
        <ele>1024</ele>
        <time>2022-02-07T20:06:47Z</time>
      </trkpt>
      <trkpt lat="45.38853" lon="4.46946">
        <ele>1029</ele>
        <time>2022-02-07T20:06:55Z</time>
      </trkpt>
      <trkpt lat="45.38861" lon="4.4706">
        <ele>1035</ele>
        <time>2022-02-07T20:07:09Z</time>
      </trkpt>
      <trkpt lat="45.3888" lon="4.47162">
        <ele>1038</ele>
        <time>2022-02-07T20:07:22Z</time>
      </trkpt>
      <trkpt lat="45.38903" lon="4.47234">
        <ele>1038</ele>
        <time>2022-02-07T20:07:32Z</time>
      </trkpt>
      <trkpt lat="45.38931" lon="4.47291">
        <ele>1037</ele>
        <time>2022-02-07T20:07:41Z</time>
      </trkpt>
      <trkpt lat="45.38948" lon="4.4732">
        <ele>1036</ele>
        <time>2022-02-07T20:07:46Z</time>
      </trkpt>
      <trkpt lat="45.38958" lon="4.4735">
        <ele>1034</ele>
        <time>2022-02-07T20:07:50Z</time>
      </trkpt>
      <trkpt lat="45.38962" lon="4.47424">
        <ele>1029</ele>
        <time>2022-02-07T20:07:59Z</time>
      </trkpt>
      <trkpt lat="45.38947" lon="4.47512">
        <ele>1028</ele>
        <time>2022-02-07T20:08:11Z</time>
      </trkpt>
      <trkpt lat="45.38938" lon="4.47592">
        <ele>1029</ele>
        <time>2022-02-07T20:08:21Z</time>
      </trkpt>
      <trkpt lat="45.38932" lon="4.47672">
        <ele>1029</ele>
        <time>2022-02-07T20:08:31Z</time>
      </trkpt>
      <trkpt lat="45.38952" lon="4.47846">
        <ele>1033</ele>
        <time>2022-02-07T20:08:53Z</time>
      </trkpt>
      <trkpt lat="45.38959" lon="4.47884">
        <ele>1035</ele>
        <time>2022-02-07T20:08:58Z</time>
      </trkpt>
      <trkpt lat="45.38958" lon="4.47933">
        <ele>1035</ele>
        <time>2022-02-07T20:09:04Z</time>
      </trkpt>
      <trkpt lat="45.38947" lon="4.48024">
        <ele>1034</ele>
        <time>2022-02-07T20:09:15Z</time>
      </trkpt>
      <trkpt lat="45.38916" lon="4.4815">
        <ele>1036</ele>
        <time>2022-02-07T20:09:32Z</time>
      </trkpt>
      <trkpt lat="45.389" lon="4.48189">
        <ele>1037</ele>
        <time>2022-02-07T20:09:38Z</time>
      </trkpt>
      <trkpt lat="45.38888" lon="4.48226">
        <ele>1037</ele>
        <time>2022-02-07T20:09:43Z</time>
      </trkpt>
      <trkpt lat="45.38854" lon="4.48291">
        <ele>1039</ele>
        <time>2022-02-07T20:09:53Z</time>
      </trkpt>
      <trkpt lat="45.38841" lon="4.48304">
        <ele>1040</ele>
        <time>2022-02-07T20:09:56Z</time>
      </trkpt>
      <trkpt lat="45.38827" lon="4.48311">
        <ele>1041</ele>
        <time>2022-02-07T20:09:58Z</time>
      </trkpt>
      <trkpt lat="45.38805" lon="4.48314">
        <ele>1044</ele>
        <time>2022-02-07T20:10:02Z</time>
      </trkpt>
      <trkpt lat="45.38787" lon="4.4831">
        <ele>1045</ele>
        <time>2022-02-07T20:10:05Z</time>
      </trkpt>
      <trkpt lat="45.38763" lon="4.48298">
        <ele>1046</ele>
        <time>2022-02-07T20:10:10Z</time>
      </trkpt>
      <trkpt lat="45.3874" lon="4.48282">
        <ele>1047</ele>
        <time>2022-02-07T20:10:15Z</time>
      </trkpt>
      <trkpt lat="45.38702" lon="4.48241">
        <ele>1048</ele>
        <time>2022-02-07T20:10:23Z</time>
      </trkpt>
      <trkpt lat="45.38554" lon="4.48113">
        <ele>1056</ele>
        <time>2022-02-07T20:10:54Z</time>
      </trkpt>
      <trkpt lat="45.38529" lon="4.48099">
        <ele>1057</ele>
        <time>2022-02-07T20:10:59Z</time>
      </trkpt>
      <trkpt lat="45.38505" lon="4.48092">
        <ele>1059</ele>
        <time>2022-02-07T20:11:03Z</time>
      </trkpt>
      <trkpt lat="45.38473" lon="4.48102">
        <ele>1060</ele>
        <time>2022-02-07T20:11:09Z</time>
      </trkpt>
      <trkpt lat="45.38441" lon="4.48126">
        <ele>1063</ele>
        <time>2022-02-07T20:11:15Z</time>
      </trkpt>
      <trkpt lat="45.38401" lon="4.48178">
        <ele>1066</ele>
        <time>2022-02-07T20:11:25Z</time>
      </trkpt>
      <trkpt lat="45.38363" lon="4.48233">
        <ele>1067</ele>
        <time>2022-02-07T20:11:35Z</time>
      </trkpt>
      <trkpt lat="45.38315" lon="4.48317">
        <ele>1071</ele>
        <time>2022-02-07T20:11:48Z</time>
      </trkpt>
      <trkpt lat="45.38281" lon="4.48395">
        <ele>1075</ele>
        <time>2022-02-07T20:12:00Z</time>
      </trkpt>
      <trkpt lat="45.38267" lon="4.48447">
        <ele>1077</ele>
        <time>2022-02-07T20:12:06Z</time>
      </trkpt>
      <trkpt lat="45.38248" lon="4.48551">
        <ele>1082</ele>
        <time>2022-02-07T20:12:20Z</time>
      </trkpt>
      <trkpt lat="45.38234" lon="4.48678">
        <ele>1086</ele>
        <time>2022-02-07T20:12:36Z</time>
      </trkpt>
      <trkpt lat="45.3821" lon="4.48794">
        <ele>1090</ele>
        <time>2022-02-07T20:12:51Z</time>
      </trkpt>
      <trkpt lat="45.38192" lon="4.48833">
        <ele>1091</ele>
        <time>2022-02-07T20:12:57Z</time>
      </trkpt>
      <trkpt lat="45.38145" lon="4.48877">
        <ele>1091</ele>
        <time>2022-02-07T20:13:07Z</time>
      </trkpt>
      <trkpt lat="45.38099" lon="4.48923">
        <ele>1095</ele>
        <time>2022-02-07T20:13:17Z</time>
      </trkpt>
      <trkpt lat="45.38048" lon="4.49007">
        <ele>1099</ele>
        <time>2022-02-07T20:13:31Z</time>
      </trkpt>
      <trkpt lat="45.38009" lon="4.49039">
        <ele>1100</ele>
        <time>2022-02-07T20:13:39Z</time>
      </trkpt>
      <trkpt lat="45.37978" lon="4.49069">
        <ele>1104</ele>
        <time>2022-02-07T20:13:45Z</time>
      </trkpt>
      <trkpt lat="45.37841" lon="4.49114">
        <ele>1111</ele>
        <time>2022-02-07T20:14:11Z</time>
      </trkpt>
      <trkpt lat="45.37711" lon="4.49253">
        <ele>1123</ele>
        <time>2022-02-07T20:14:39Z</time>
      </trkpt>
      <trkpt lat="45.37664" lon="4.49308">
        <ele>1128</ele>
        <time>2022-02-07T20:14:50Z</time>
      </trkpt>
      <trkpt lat="45.3759" lon="4.49423">
        <ele>1131</ele>
        <time>2022-02-07T20:15:10Z</time>
      </trkpt>
      <trkpt lat="45.3755" lon="4.49473">
        <ele>1134</ele>
        <time>2022-02-07T20:15:19Z</time>
      </trkpt>
      <trkpt lat="45.37503" lon="4.49517">
        <ele>1138</ele>
        <time>2022-02-07T20:15:29Z</time>
      </trkpt>
      <trkpt lat="45.3745" lon="4.49549">
        <ele>1143</ele>
        <time>2022-02-07T20:15:39Z</time>
      </trkpt>
      <trkpt lat="45.37372" lon="4.49593">
        <ele>1146</ele>
        <time>2022-02-07T20:15:54Z</time>
      </trkpt>
      <trkpt lat="45.37359" lon="4.49604">
        <ele>1146</ele>
        <time>2022-02-07T20:15:57Z</time>
      </trkpt>
      <trkpt lat="45.37348" lon="4.49617">
        <ele>1146</ele>
        <time>2022-02-07T20:16:00Z</time>
      </trkpt>
      <trkpt lat="45.37344" lon="4.49626">
        <ele>1146</ele>
        <time>2022-02-07T20:16:01Z</time>
      </trkpt>
      <trkpt lat="45.37332" lon="4.49675">
        <ele>1146</ele>
        <time>2022-02-07T20:16:07Z</time>
      </trkpt>
      <trkpt lat="45.37305" lon="4.49801">
        <ele>1148</ele>
        <time>2022-02-07T20:16:24Z</time>
      </trkpt>
      <trkpt lat="45.373" lon="4.49855">
        <ele>1148</ele>
        <time>2022-02-07T20:16:31Z</time>
      </trkpt>
      <trkpt lat="45.37296" lon="4.49985">
        <ele>1148</ele>
        <time>2022-02-07T20:16:47Z</time>
      </trkpt>
      <trkpt lat="45.37291" lon="4.50108">
        <ele>1148</ele>
        <time>2022-02-07T20:17:02Z</time>
      </trkpt>
      <trkpt lat="45.37309" lon="4.50212">
        <ele>1152</ele>
        <time>2022-02-07T20:17:16Z</time>
      </trkpt>
      <trkpt lat="45.37311" lon="4.50241">
        <ele>1153</ele>
        <time>2022-02-07T20:17:19Z</time>
      </trkpt>
      <trkpt lat="45.3731" lon="4.50279">
        <ele>1154</ele>
        <time>2022-02-07T20:17:24Z</time>
      </trkpt>
      <trkpt lat="45.37304" lon="4.50317">
        <ele>1154</ele>
        <time>2022-02-07T20:17:29Z</time>
      </trkpt>
      <trkpt lat="45.37293" lon="4.50355">
        <ele>1154</ele>
        <time>2022-02-07T20:17:34Z</time>
      </trkpt>
      <trkpt lat="45.3727" lon="4.504">
        <ele>1155</ele>
        <time>2022-02-07T20:17:41Z</time>
      </trkpt>
      <trkpt lat="45.37142" lon="4.50599">
        <ele>1161</ele>
        <time>2022-02-07T20:18:15Z</time>
      </trkpt>
      <trkpt lat="45.37123" lon="4.50638">
        <ele>1163</ele>
        <time>2022-02-07T20:18:21Z</time>
      </trkpt>
      <trkpt lat="45.37108" lon="4.50685">
        <ele>1164</ele>
        <time>2022-02-07T20:18:27Z</time>
      </trkpt>
      <trkpt lat="45.37102" lon="4.50718">
        <ele>1164</ele>
        <time>2022-02-07T20:18:32Z</time>
      </trkpt>
      <trkpt lat="45.37098" lon="4.50755">
        <ele>1166</ele>
        <time>2022-02-07T20:18:36Z</time>
      </trkpt>
      <trkpt lat="45.371" lon="4.50793">
        <ele>1166</ele>
        <time>2022-02-07T20:18:41Z</time>
      </trkpt>
      <trkpt lat="45.37107" lon="4.50853">
        <ele>1167</ele>
        <time>2022-02-07T20:18:49Z</time>
      </trkpt>
      <trkpt lat="45.3711" lon="4.50909">
        <ele>1167</ele>
        <time>2022-02-07T20:18:56Z</time>
      </trkpt>
      <trkpt lat="45.37109" lon="4.50954">
        <ele>1166</ele>
        <time>2022-02-07T20:19:01Z</time>
      </trkpt>
      <trkpt lat="45.37091" lon="4.51157">
        <ele>1163</ele>
        <time>2022-02-07T20:19:27Z</time>
      </trkpt>
      <trkpt lat="45.37079" lon="4.51223">
        <ele>1163</ele>
        <time>2022-02-07T20:19:35Z</time>
      </trkpt>
      <trkpt lat="45.37061" lon="4.51258">
        <ele>1164</ele>
        <time>2022-02-07T20:19:41Z</time>
      </trkpt>
      <trkpt lat="45.37048" lon="4.51273">
        <ele>1164</ele>
        <time>2022-02-07T20:19:44Z</time>
      </trkpt>
      <trkpt lat="45.37044" lon="4.51276">
        <ele>1164</ele>
        <time>2022-02-07T20:19:45Z</time>
      </trkpt>
      <trkpt lat="45.37042" lon="4.51273">
        <ele>1164</ele>
        <time>2022-02-07T20:19:45Z</time>
      </trkpt>
      <trkpt lat="45.37035" lon="4.51272">
        <ele>1164</ele>
        <time>2022-02-07T20:19:46Z</time>
      </trkpt>
      <trkpt lat="45.3703" lon="4.51277">
        <ele>1164</ele>
        <time>2022-02-07T20:19:47Z</time>
      </trkpt>
      <trkpt lat="45.37028" lon="4.51287">
        <ele>1165</ele>
        <time>2022-02-07T20:19:49Z</time>
      </trkpt>
      <trkpt lat="45.37029" lon="4.51292">
        <ele>1165</ele>
        <time>2022-02-07T20:19:49Z</time>
      </trkpt>
      <trkpt lat="45.36994" lon="4.51307">
        <ele>1167</ele>
        <time>2022-02-07T20:19:56Z</time>
      </trkpt>
      <trkpt lat="45.36952" lon="4.51332">
        <ele>1167</ele>
        <time>2022-02-07T20:20:04Z</time>
      </trkpt>
      <trkpt lat="45.36919" lon="4.51366">
        <ele>1169</ele>
        <time>2022-02-07T20:20:11Z</time>
      </trkpt>
      <trkpt lat="45.36905" lon="4.51385">
        <ele>1170</ele>
        <time>2022-02-07T20:20:15Z</time>
      </trkpt>
      <trkpt lat="45.36878" lon="4.5146">
        <ele>1173</ele>
        <time>2022-02-07T20:20:25Z</time>
      </trkpt>
      <trkpt lat="45.36869" lon="4.51498">
        <ele>1173</ele>
        <time>2022-02-07T20:20:30Z</time>
      </trkpt>
      <trkpt lat="45.36848" lon="4.51624">
        <ele>1174</ele>
        <time>2022-02-07T20:20:46Z</time>
      </trkpt>
      <trkpt lat="45.36847" lon="4.51641">
        <ele>1175</ele>
        <time>2022-02-07T20:20:48Z</time>
      </trkpt>
      <trkpt lat="45.3683" lon="4.51679">
        <ele>1176</ele>
        <time>2022-02-07T20:20:54Z</time>
      </trkpt>
      <trkpt lat="45.36827" lon="4.51698">
        <ele>1177</ele>
        <time>2022-02-07T20:20:57Z</time>
      </trkpt>
      <trkpt lat="45.36809" lon="4.51743">
        <ele>1179</ele>
        <time>2022-02-07T20:21:03Z</time>
      </trkpt>
      <trkpt lat="45.36786" lon="4.51814">
        <ele>1182</ele>
        <time>2022-02-07T20:21:13Z</time>
      </trkpt>
      <trkpt lat="45.36775" lon="4.51853">
        <ele>1185</ele>
        <time>2022-02-07T20:21:18Z</time>
      </trkpt>
      <trkpt lat="45.36774" lon="4.5188">
        <ele>1186</ele>
        <time>2022-02-07T20:21:21Z</time>
      </trkpt>
      <trkpt lat="45.36777" lon="4.51906">
        <ele>1186</ele>
        <time>2022-02-07T20:21:25Z</time>
      </trkpt>
      <trkpt lat="45.368" lon="4.51979">
        <ele>1187</ele>
        <time>2022-02-07T20:21:35Z</time>
      </trkpt>
      <trkpt lat="45.36807" lon="4.52011">
        <ele>1188</ele>
        <time>2022-02-07T20:21:39Z</time>
      </trkpt>
      <trkpt lat="45.36819" lon="4.5205">
        <ele>1189</ele>
        <time>2022-02-07T20:21:44Z</time>
      </trkpt>
      <trkpt lat="45.3684" lon="4.52123">
        <ele>1189</ele>
        <time>2022-02-07T20:21:54Z</time>
      </trkpt>
      <trkpt lat="45.36848" lon="4.52156">
        <ele>1190</ele>
        <time>2022-02-07T20:21:58Z</time>
      </trkpt>
      <trkpt lat="45.36851" lon="4.52176">
        <ele>1191</ele>
        <time>2022-02-07T20:22:01Z</time>
      </trkpt>
      <trkpt lat="45.36852" lon="4.52195">
        <ele>1192</ele>
        <time>2022-02-07T20:22:03Z</time>
      </trkpt>
      <trkpt lat="45.36848" lon="4.52461">
        <ele>1201</ele>
        <time>2022-02-07T20:22:37Z</time>
      </trkpt>
      <trkpt lat="45.36837" lon="4.52566">
        <ele>1203</ele>
        <time>2022-02-07T20:22:50Z</time>
      </trkpt>
      <trkpt lat="45.36829" lon="4.52673">
        <ele>1204</ele>
        <time>2022-02-07T20:23:03Z</time>
      </trkpt>
      <trkpt lat="45.36822" lon="4.52721">
        <ele>1204</ele>
        <time>2022-02-07T20:23:10Z</time>
      </trkpt>
      <trkpt lat="45.36793" lon="4.52822">
        <ele>1205</ele>
        <time>2022-02-07T20:23:23Z</time>
      </trkpt>
      <trkpt lat="45.3678" lon="4.52869">
        <ele>1204</ele>
        <time>2022-02-07T20:23:29Z</time>
      </trkpt>
      <trkpt lat="45.36742" lon="4.52995">
        <ele>1201</ele>
        <time>2022-02-07T20:23:47Z</time>
      </trkpt>
      <trkpt lat="45.3673" lon="4.53044">
        <ele>1200</ele>
        <time>2022-02-07T20:23:53Z</time>
      </trkpt>
      <trkpt lat="45.36724" lon="4.5308">
        <ele>1200</ele>
        <time>2022-02-07T20:23:58Z</time>
      </trkpt>
      <trkpt lat="45.3672" lon="4.53118">
        <ele>1199</ele>
        <time>2022-02-07T20:24:03Z</time>
      </trkpt>
      <trkpt lat="45.36724" lon="4.5308">
        <ele>1200</ele>
        <time>2022-02-07T20:24:07Z</time>
      </trkpt>
      <trkpt lat="45.3673" lon="4.53044">
        <ele>1200</ele>
        <time>2022-02-07T20:24:12Z</time>
      </trkpt>
      <trkpt lat="45.36742" lon="4.52995">
        <ele>1201</ele>
        <time>2022-02-07T20:24:18Z</time>
      </trkpt>
      <trkpt lat="45.3678" lon="4.52869">
        <ele>1204</ele>
        <time>2022-02-07T20:24:36Z</time>
      </trkpt>
      <trkpt lat="45.36793" lon="4.52822">
        <ele>1205</ele>
        <time>2022-02-07T20:24:42Z</time>
      </trkpt>
      <trkpt lat="45.36822" lon="4.52721">
        <ele>1204</ele>
        <time>2022-02-07T20:24:56Z</time>
      </trkpt>
      <trkpt lat="45.36829" lon="4.52673">
        <ele>1204</ele>
        <time>2022-02-07T20:25:02Z</time>
      </trkpt>
      <trkpt lat="45.36837" lon="4.52566">
        <ele>1203</ele>
        <time>2022-02-07T20:25:15Z</time>
      </trkpt>
      <trkpt lat="45.36848" lon="4.52461">
        <ele>1201</ele>
        <time>2022-02-07T20:25:28Z</time>
      </trkpt>
      <trkpt lat="45.36852" lon="4.52195">
        <ele>1192</ele>
        <time>2022-02-07T20:26:02Z</time>
      </trkpt>
      <trkpt lat="45.36851" lon="4.52176">
        <ele>1191</ele>
        <time>2022-02-07T20:26:04Z</time>
      </trkpt>
      <trkpt lat="45.36848" lon="4.52156">
        <ele>1190</ele>
        <time>2022-02-07T20:26:07Z</time>
      </trkpt>
      <trkpt lat="45.3684" lon="4.52123">
        <ele>1189</ele>
        <time>2022-02-07T20:26:11Z</time>
      </trkpt>
      <trkpt lat="45.36819" lon="4.5205">
        <ele>1189</ele>
        <time>2022-02-07T20:26:21Z</time>
      </trkpt>
      <trkpt lat="45.36807" lon="4.52011">
        <ele>1188</ele>
        <time>2022-02-07T20:26:26Z</time>
      </trkpt>
      <trkpt lat="45.368" lon="4.51979">
        <ele>1187</ele>
        <time>2022-02-07T20:26:30Z</time>
      </trkpt>
      <trkpt lat="45.36777" lon="4.51906">
        <ele>1186</ele>
        <time>2022-02-07T20:26:40Z</time>
      </trkpt>
      <trkpt lat="45.36774" lon="4.5188">
        <ele>1186</ele>
        <time>2022-02-07T20:26:44Z</time>
      </trkpt>
      <trkpt lat="45.36775" lon="4.51853">
        <ele>1185</ele>
        <time>2022-02-07T20:26:47Z</time>
      </trkpt>
      <trkpt lat="45.36786" lon="4.51814">
        <ele>1182</ele>
        <time>2022-02-07T20:26:52Z</time>
      </trkpt>
      <trkpt lat="45.36809" lon="4.51743">
        <ele>1179</ele>
        <time>2022-02-07T20:27:02Z</time>
      </trkpt>
      <trkpt lat="45.36827" lon="4.51698">
        <ele>1177</ele>
        <time>2022-02-07T20:27:08Z</time>
      </trkpt>
      <trkpt lat="45.3683" lon="4.51679">
        <ele>1176</ele>
        <time>2022-02-07T20:27:11Z</time>
      </trkpt>
      <trkpt lat="45.36847" lon="4.51641">
        <ele>1175</ele>
        <time>2022-02-07T20:27:17Z</time>
      </trkpt>
      <trkpt lat="45.36838" lon="4.51637">
        <ele>1175</ele>
        <time>2022-02-07T20:27:18Z</time>
      </trkpt>
      <trkpt lat="45.36836" lon="4.51633">
        <ele>1175</ele>
        <time>2022-02-07T20:27:19Z</time>
      </trkpt>
      <trkpt lat="45.36825" lon="4.51583">
        <ele>1173</ele>
        <time>2022-02-07T20:27:25Z</time>
      </trkpt>
      <trkpt lat="45.36806" lon="4.51477">
        <ele>1167</ele>
        <time>2022-02-07T20:27:39Z</time>
      </trkpt>
      <trkpt lat="45.36797" lon="4.51385">
        <ele>1158</ele>
        <time>2022-02-07T20:27:51Z</time>
      </trkpt>
      <trkpt lat="45.36792" lon="4.51368">
        <ele>1156</ele>
        <time>2022-02-07T20:27:53Z</time>
      </trkpt>
      <trkpt lat="45.36795" lon="4.5135">
        <ele>1154</ele>
        <time>2022-02-07T20:27:55Z</time>
      </trkpt>
      <trkpt lat="45.36796" lon="4.51323">
        <ele>1152</ele>
        <time>2022-02-07T20:27:59Z</time>
      </trkpt>
      <trkpt lat="45.36795" lon="4.5131">
        <ele>1151</ele>
        <time>2022-02-07T20:28:00Z</time>
      </trkpt>
      <trkpt lat="45.36771" lon="4.51267">
        <ele>1146</ele>
        <time>2022-02-07T20:28:07Z</time>
      </trkpt>
      <trkpt lat="45.36731" lon="4.51197">
        <ele>1141</ele>
        <time>2022-02-07T20:28:18Z</time>
      </trkpt>
      <trkpt lat="45.36545" lon="4.5096">
        <ele>1132</ele>
        <time>2022-02-07T20:29:03Z</time>
      </trkpt>
      <trkpt lat="45.36512" lon="4.50902">
        <ele>1127</ele>
        <time>2022-02-07T20:29:12Z</time>
      </trkpt>
      <trkpt lat="45.36487" lon="4.50843">
        <ele>1125</ele>
        <time>2022-02-07T20:29:21Z</time>
      </trkpt>
      <trkpt lat="45.36483" lon="4.50819">
        <ele>1123</ele>
        <time>2022-02-07T20:29:24Z</time>
      </trkpt>
      <trkpt lat="45.36484" lon="4.50801">
        <ele>1122</ele>
        <time>2022-02-07T20:29:26Z</time>
      </trkpt>
      <trkpt lat="45.36488" lon="4.50785">
        <ele>1121</ele>
        <time>2022-02-07T20:29:28Z</time>
      </trkpt>
      <trkpt lat="45.36545" lon="4.507">
        <ele>1114</ele>
        <time>2022-02-07T20:29:43Z</time>
      </trkpt>
      <trkpt lat="45.36558" lon="4.50687">
        <ele>1113</ele>
        <time>2022-02-07T20:29:46Z</time>
      </trkpt>
      <trkpt lat="45.36582" lon="4.50678">
        <ele>1113</ele>
        <time>2022-02-07T20:29:50Z</time>
      </trkpt>
      <trkpt lat="45.36676" lon="4.50684">
        <ele>1109</ele>
        <time>2022-02-07T20:30:07Z</time>
      </trkpt>
      <trkpt lat="45.36692" lon="4.5068">
        <ele>1108</ele>
        <time>2022-02-07T20:30:10Z</time>
      </trkpt>
      <trkpt lat="45.36707" lon="4.50666">
        <ele>1107</ele>
        <time>2022-02-07T20:30:13Z</time>
      </trkpt>
      <trkpt lat="45.36719" lon="4.50645">
        <ele>1106</ele>
        <time>2022-02-07T20:30:16Z</time>
      </trkpt>
      <trkpt lat="45.36724" lon="4.50616">
        <ele>1105</ele>
        <time>2022-02-07T20:30:20Z</time>
      </trkpt>
      <trkpt lat="45.36721" lon="4.50584">
        <ele>1104</ele>
        <time>2022-02-07T20:30:24Z</time>
      </trkpt>
      <trkpt lat="45.36708" lon="4.50546">
        <ele>1101</ele>
        <time>2022-02-07T20:30:29Z</time>
      </trkpt>
      <trkpt lat="45.36581" lon="4.50322">
        <ele>1087</ele>
        <time>2022-02-07T20:31:05Z</time>
      </trkpt>
      <trkpt lat="45.36514" lon="4.50186">
        <ele>1082</ele>
        <time>2022-02-07T20:31:26Z</time>
      </trkpt>
      <trkpt lat="45.36507" lon="4.50163">
        <ele>1081</ele>
        <time>2022-02-07T20:31:29Z</time>
      </trkpt>
      <trkpt lat="45.36497" lon="4.50155">
        <ele>1081</ele>
        <time>2022-02-07T20:31:31Z</time>
      </trkpt>
      <trkpt lat="45.36469" lon="4.50105">
        <ele>1079</ele>
        <time>2022-02-07T20:31:39Z</time>
      </trkpt>
      <trkpt lat="45.36307" lon="4.49921">
        <ele>1068</ele>
        <time>2022-02-07T20:32:16Z</time>
      </trkpt>
      <trkpt lat="45.36261" lon="4.4985">
        <ele>1062</ele>
        <time>2022-02-07T20:32:28Z</time>
      </trkpt>
      <trkpt lat="45.36205" lon="4.49775">
        <ele>1051</ele>
        <time>2022-02-07T20:32:42Z</time>
      </trkpt>
      <trkpt lat="45.36196" lon="4.49758">
        <ele>1050</ele>
        <time>2022-02-07T20:32:45Z</time>
      </trkpt>
      <trkpt lat="45.36191" lon="4.49743">
        <ele>1049</ele>
        <time>2022-02-07T20:32:47Z</time>
      </trkpt>
      <trkpt lat="45.36188" lon="4.49724">
        <ele>1047</ele>
        <time>2022-02-07T20:32:49Z</time>
      </trkpt>
      <trkpt lat="45.36189" lon="4.49694">
        <ele>1045</ele>
        <time>2022-02-07T20:32:53Z</time>
      </trkpt>
      <trkpt lat="45.362" lon="4.49654">
        <ele>1041</ele>
        <time>2022-02-07T20:32:58Z</time>
      </trkpt>
      <trkpt lat="45.36213" lon="4.49626">
        <ele>1038</ele>
        <time>2022-02-07T20:33:02Z</time>
      </trkpt>
      <trkpt lat="45.36227" lon="4.49613">
        <ele>1038</ele>
        <time>2022-02-07T20:33:05Z</time>
      </trkpt>
      <trkpt lat="45.36262" lon="4.49591">
        <ele>1038</ele>
        <time>2022-02-07T20:33:12Z</time>
      </trkpt>
      <trkpt lat="45.36274" lon="4.49564">
        <ele>1037</ele>
        <time>2022-02-07T20:33:16Z</time>
      </trkpt>
      <trkpt lat="45.36288" lon="4.49494">
        <ele>1036</ele>
        <time>2022-02-07T20:33:25Z</time>
      </trkpt>
      <trkpt lat="45.36295" lon="4.49478">
        <ele>1037</ele>
        <time>2022-02-07T20:33:28Z</time>
      </trkpt>
      <trkpt lat="45.36297" lon="4.49459">
        <ele>1037</ele>
        <time>2022-02-07T20:33:30Z</time>
      </trkpt>
      <trkpt lat="45.36292" lon="4.49443">
        <ele>1037</ele>
        <time>2022-02-07T20:33:32Z</time>
      </trkpt>
      <trkpt lat="45.36266" lon="4.49389">
        <ele>1037</ele>
        <time>2022-02-07T20:33:41Z</time>
      </trkpt>
      <trkpt lat="45.36259" lon="4.4937">
        <ele>1037</ele>
        <time>2022-02-07T20:33:43Z</time>
      </trkpt>
      <trkpt lat="45.36253" lon="4.49344">
        <ele>1038</ele>
        <time>2022-02-07T20:33:47Z</time>
      </trkpt>
      <trkpt lat="45.3625" lon="4.49309">
        <ele>1039</ele>
        <time>2022-02-07T20:33:51Z</time>
      </trkpt>
      <trkpt lat="45.36246" lon="4.49204">
        <ele>1040</ele>
        <time>2022-02-07T20:34:04Z</time>
      </trkpt>
      <trkpt lat="45.3625" lon="4.49154">
        <ele>1040</ele>
        <time>2022-02-07T20:34:10Z</time>
      </trkpt>
      <trkpt lat="45.36261" lon="4.49041">
        <ele>1035</ele>
        <time>2022-02-07T20:34:25Z</time>
      </trkpt>
      <trkpt lat="45.36285" lon="4.48935">
        <ele>1032</ele>
        <time>2022-02-07T20:34:39Z</time>
      </trkpt>
      <trkpt lat="45.3632" lon="4.48879">
        <ele>1032</ele>
        <time>2022-02-07T20:34:48Z</time>
      </trkpt>
      <trkpt lat="45.3638" lon="4.48692">
        <ele>1029</ele>
        <time>2022-02-07T20:35:14Z</time>
      </trkpt>
      <trkpt lat="45.36402" lon="4.48657">
        <ele>1032</ele>
        <time>2022-02-07T20:35:20Z</time>
      </trkpt>
      <trkpt lat="45.36427" lon="4.48633">
        <ele>1035</ele>
        <time>2022-02-07T20:35:25Z</time>
      </trkpt>
      <trkpt lat="45.36497" lon="4.48583">
        <ele>1042</ele>
        <time>2022-02-07T20:35:39Z</time>
      </trkpt>
      <trkpt lat="45.36536" lon="4.4848">
        <ele>1036</ele>
        <time>2022-02-07T20:35:54Z</time>
      </trkpt>
      <trkpt lat="45.36565" lon="4.48435">
        <ele>1035</ele>
        <time>2022-02-07T20:36:01Z</time>
      </trkpt>
      <trkpt lat="45.3657" lon="4.4841">
        <ele>1033</ele>
        <time>2022-02-07T20:36:04Z</time>
      </trkpt>
      <trkpt lat="45.36525" lon="4.484">
        <ele>1030</ele>
        <time>2022-02-07T20:36:12Z</time>
      </trkpt>
      <trkpt lat="45.36411" lon="4.48379">
        <ele>1022</ele>
        <time>2022-02-07T20:36:33Z</time>
      </trkpt>
      <trkpt lat="45.36388" lon="4.48384">
        <ele>1019</ele>
        <time>2022-02-07T20:36:37Z</time>
      </trkpt>
      <trkpt lat="45.36364" lon="4.48404">
        <ele>1018</ele>
        <time>2022-02-07T20:36:42Z</time>
      </trkpt>
      <trkpt lat="45.36314" lon="4.4845">
        <ele>1014</ele>
        <time>2022-02-07T20:36:53Z</time>
      </trkpt>
      <trkpt lat="45.36284" lon="4.48491">
        <ele>1013</ele>
        <time>2022-02-07T20:37:00Z</time>
      </trkpt>
      <trkpt lat="45.36271" lon="4.48532">
        <ele>1012</ele>
        <time>2022-02-07T20:37:06Z</time>
      </trkpt>
      <trkpt lat="45.36261" lon="4.48602">
        <ele>1010</ele>
        <time>2022-02-07T20:37:15Z</time>
      </trkpt>
      <trkpt lat="45.36253" lon="4.48628">
        <ele>1008</ele>
        <time>2022-02-07T20:37:18Z</time>
      </trkpt>
      <trkpt lat="45.3624" lon="4.48642">
        <ele>1007</ele>
        <time>2022-02-07T20:37:21Z</time>
      </trkpt>
      <trkpt lat="45.36225" lon="4.48647">
        <ele>1005</ele>
        <time>2022-02-07T20:37:24Z</time>
      </trkpt>
      <trkpt lat="45.36183" lon="4.48645">
        <ele>1001</ele>
        <time>2022-02-07T20:37:31Z</time>
      </trkpt>
      <trkpt lat="45.36172" lon="4.48648">
        <ele>1000</ele>
        <time>2022-02-07T20:37:33Z</time>
      </trkpt>
      <trkpt lat="45.36163" lon="4.48653">
        <ele>999</ele>
        <time>2022-02-07T20:37:35Z</time>
      </trkpt>
      <trkpt lat="45.36147" lon="4.48669">
        <ele>998</ele>
        <time>2022-02-07T20:37:38Z</time>
      </trkpt>
      <trkpt lat="45.36128" lon="4.48702">
        <ele>998</ele>
        <time>2022-02-07T20:37:44Z</time>
      </trkpt>
      <trkpt lat="45.36113" lon="4.48713">
        <ele>997</ele>
        <time>2022-02-07T20:37:47Z</time>
      </trkpt>
      <trkpt lat="45.36106" lon="4.48715">
        <ele>996</ele>
        <time>2022-02-07T20:37:48Z</time>
      </trkpt>
      <trkpt lat="45.36094" lon="4.48715">
        <ele>995</ele>
        <time>2022-02-07T20:37:50Z</time>
      </trkpt>
      <trkpt lat="45.36065" lon="4.48706">
        <ele>994</ele>
        <time>2022-02-07T20:37:55Z</time>
      </trkpt>
      <trkpt lat="45.36031" lon="4.487">
        <ele>995</ele>
        <time>2022-02-07T20:38:02Z</time>
      </trkpt>
      <trkpt lat="45.36013" lon="4.48687">
        <ele>994</ele>
        <time>2022-02-07T20:38:05Z</time>
      </trkpt>
      <trkpt lat="45.36007" lon="4.48679">
        <ele>994</ele>
        <time>2022-02-07T20:38:07Z</time>
      </trkpt>
      <trkpt lat="45.36001" lon="4.48667">
        <ele>993</ele>
        <time>2022-02-07T20:38:08Z</time>
      </trkpt>
      <trkpt lat="45.35998" lon="4.48655">
        <ele>992</ele>
        <time>2022-02-07T20:38:10Z</time>
      </trkpt>
      <trkpt lat="45.35995" lon="4.48607">
        <ele>986</ele>
        <time>2022-02-07T20:38:16Z</time>
      </trkpt>
      <trkpt lat="45.35993" lon="4.48596">
        <ele>985</ele>
        <time>2022-02-07T20:38:17Z</time>
      </trkpt>
      <trkpt lat="45.35986" lon="4.48576">
        <ele>984</ele>
        <time>2022-02-07T20:38:20Z</time>
      </trkpt>
      <trkpt lat="45.35978" lon="4.48563">
        <ele>984</ele>
        <time>2022-02-07T20:38:22Z</time>
      </trkpt>
      <trkpt lat="45.35907" lon="4.48476">
        <ele>978</ele>
        <time>2022-02-07T20:38:39Z</time>
      </trkpt>
      <trkpt lat="45.35891" lon="4.48467">
        <ele>977</ele>
        <time>2022-02-07T20:38:42Z</time>
      </trkpt>
      <trkpt lat="45.35884" lon="4.48465">
        <ele>977</ele>
        <time>2022-02-07T20:38:43Z</time>
      </trkpt>
      <trkpt lat="45.35861" lon="4.48467">
        <ele>977</ele>
        <time>2022-02-07T20:38:48Z</time>
      </trkpt>
      <trkpt lat="45.35851" lon="4.48472">
        <ele>977</ele>
        <time>2022-02-07T20:38:49Z</time>
      </trkpt>
      <trkpt lat="45.35833" lon="4.48486">
        <ele>979</ele>
        <time>2022-02-07T20:38:53Z</time>
      </trkpt>
      <trkpt lat="45.35824" lon="4.48496">
        <ele>978</ele>
        <time>2022-02-07T20:38:55Z</time>
      </trkpt>
      <trkpt lat="45.35817" lon="4.48507">
        <ele>978</ele>
        <time>2022-02-07T20:38:57Z</time>
      </trkpt>
      <trkpt lat="45.35756" lon="4.48656">
        <ele>972</ele>
        <time>2022-02-07T20:39:19Z</time>
      </trkpt>
      <trkpt lat="45.35751" lon="4.48679">
        <ele>972</ele>
        <time>2022-02-07T20:39:22Z</time>
      </trkpt>
      <trkpt lat="45.35752" lon="4.48725">
        <ele>973</ele>
        <time>2022-02-07T20:39:27Z</time>
      </trkpt>
      <trkpt lat="45.35751" lon="4.48747">
        <ele>973</ele>
        <time>2022-02-07T20:39:30Z</time>
      </trkpt>
      <trkpt lat="45.35748" lon="4.48763">
        <ele>974</ele>
        <time>2022-02-07T20:39:32Z</time>
      </trkpt>
      <trkpt lat="45.35721" lon="4.4883">
        <ele>974</ele>
        <time>2022-02-07T20:39:42Z</time>
      </trkpt>
      <trkpt lat="45.35705" lon="4.48856">
        <ele>973</ele>
        <time>2022-02-07T20:39:46Z</time>
      </trkpt>
      <trkpt lat="45.35672" lon="4.48894">
        <ele>967</ele>
        <time>2022-02-07T20:39:54Z</time>
      </trkpt>
      <trkpt lat="45.3566" lon="4.489">
        <ele>967</ele>
        <time>2022-02-07T20:39:56Z</time>
      </trkpt>
      <trkpt lat="45.35652" lon="4.48899">
        <ele>969</ele>
        <time>2022-02-07T20:39:57Z</time>
      </trkpt>
      <trkpt lat="45.35643" lon="4.48894">
        <ele>971</ele>
        <time>2022-02-07T20:39:59Z</time>
      </trkpt>
      <trkpt lat="45.35628" lon="4.48882">
        <ele>974</ele>
        <time>2022-02-07T20:40:02Z</time>
      </trkpt>
      <trkpt lat="45.35621" lon="4.48875">
        <ele>976</ele>
        <time>2022-02-07T20:40:04Z</time>
      </trkpt>
      <trkpt lat="45.35616" lon="4.48869">
        <ele>978</ele>
        <time>2022-02-07T20:40:05Z</time>
      </trkpt>
      <trkpt lat="45.35613" lon="4.48859">
        <ele>979</ele>
        <time>2022-02-07T20:40:06Z</time>
      </trkpt>
      <trkpt lat="45.35611" lon="4.48847">
        <ele>980</ele>
        <time>2022-02-07T20:40:08Z</time>
      </trkpt>
      <trkpt lat="45.35612" lon="4.48824">
        <ele>981</ele>
        <time>2022-02-07T20:40:11Z</time>
      </trkpt>
      <trkpt lat="45.3562" lon="4.48795">
        <ele>980</ele>
        <time>2022-02-07T20:40:14Z</time>
      </trkpt>
      <trkpt lat="45.3564" lon="4.48738">
        <ele>973</ele>
        <time>2022-02-07T20:40:22Z</time>
      </trkpt>
      <trkpt lat="45.35642" lon="4.48727">
        <ele>973</ele>
        <time>2022-02-07T20:40:24Z</time>
      </trkpt>
      <trkpt lat="45.35642" lon="4.48702">
        <ele>974</ele>
        <time>2022-02-07T20:40:27Z</time>
      </trkpt>
      <trkpt lat="45.35637" lon="4.48681">
        <ele>977</ele>
        <time>2022-02-07T20:40:30Z</time>
      </trkpt>
      <trkpt lat="45.35627" lon="4.48647">
        <ele>981</ele>
        <time>2022-02-07T20:40:34Z</time>
      </trkpt>
      <trkpt lat="45.35619" lon="4.48632">
        <ele>983</ele>
        <time>2022-02-07T20:40:37Z</time>
      </trkpt>
      <trkpt lat="45.35612" lon="4.48621">
        <ele>985</ele>
        <time>2022-02-07T20:40:39Z</time>
      </trkpt>
      <trkpt lat="45.35581" lon="4.48588">
        <ele>992</ele>
        <time>2022-02-07T20:40:45Z</time>
      </trkpt>
      <trkpt lat="45.35577" lon="4.4857">
        <ele>995</ele>
        <time>2022-02-07T20:40:48Z</time>
      </trkpt>
      <trkpt lat="45.35578" lon="4.48562">
        <ele>996</ele>
        <time>2022-02-07T20:40:49Z</time>
      </trkpt>
      <trkpt lat="45.3558" lon="4.48552">
        <ele>997</ele>
        <time>2022-02-07T20:40:50Z</time>
      </trkpt>
      <trkpt lat="45.35601" lon="4.48521">
        <ele>996</ele>
        <time>2022-02-07T20:40:56Z</time>
      </trkpt>
      <trkpt lat="45.35607" lon="4.48509">
        <ele>996</ele>
        <time>2022-02-07T20:40:57Z</time>
      </trkpt>
      <trkpt lat="45.35627" lon="4.4845">
        <ele>996</ele>
        <time>2022-02-07T20:41:06Z</time>
      </trkpt>
      <trkpt lat="45.35635" lon="4.4842">
        <ele>996</ele>
        <time>2022-02-07T20:41:10Z</time>
      </trkpt>
      <trkpt lat="45.35635" lon="4.48391">
        <ele>997</ele>
        <time>2022-02-07T20:41:13Z</time>
      </trkpt>
      <trkpt lat="45.35629" lon="4.48368">
        <ele>998</ele>
        <time>2022-02-07T20:41:16Z</time>
      </trkpt>
      <trkpt lat="45.35592" lon="4.48303">
        <ele>1005</ele>
        <time>2022-02-07T20:41:27Z</time>
      </trkpt>
      <trkpt lat="45.35523" lon="4.48122">
        <ele>1015</ele>
        <time>2022-02-07T20:41:52Z</time>
      </trkpt>
      <trkpt lat="45.35506" lon="4.48083">
        <ele>1016</ele>
        <time>2022-02-07T20:41:58Z</time>
      </trkpt>
      <trkpt lat="45.35496" lon="4.48066">
        <ele>1017</ele>
        <time>2022-02-07T20:42:01Z</time>
      </trkpt>
      <trkpt lat="45.35453" lon="4.48012">
        <ele>1024</ele>
        <time>2022-02-07T20:42:11Z</time>
      </trkpt>
      <trkpt lat="45.35448" lon="4.48002">
        <ele>1024</ele>
        <time>2022-02-07T20:42:13Z</time>
      </trkpt>
      <trkpt lat="45.35445" lon="4.47992">
        <ele>1025</ele>
        <time>2022-02-07T20:42:14Z</time>
      </trkpt>
      <trkpt lat="45.35445" lon="4.47981">
        <ele>1026</ele>
        <time>2022-02-07T20:42:15Z</time>
      </trkpt>
      <trkpt lat="45.35447" lon="4.47971">
        <ele>1027</ele>
        <time>2022-02-07T20:42:17Z</time>
      </trkpt>
      <trkpt lat="45.35455" lon="4.47956">
        <ele>1027</ele>
        <time>2022-02-07T20:42:19Z</time>
      </trkpt>
      <trkpt lat="45.35506" lon="4.4792">
        <ele>1020</ele>
        <time>2022-02-07T20:42:29Z</time>
      </trkpt>
      <trkpt lat="45.35527" lon="4.47903">
        <ele>1023</ele>
        <time>2022-02-07T20:42:34Z</time>
      </trkpt>
      <trkpt lat="45.35541" lon="4.47889">
        <ele>1026</ele>
        <time>2022-02-07T20:42:37Z</time>
      </trkpt>
      <trkpt lat="45.35551" lon="4.47878">
        <ele>1028</ele>
        <time>2022-02-07T20:42:39Z</time>
      </trkpt>
      <trkpt lat="45.3556" lon="4.47863">
        <ele>1030</ele>
        <time>2022-02-07T20:42:41Z</time>
      </trkpt>
      <trkpt lat="45.35596" lon="4.47792">
        <ele>1042</ele>
        <time>2022-02-07T20:42:52Z</time>
      </trkpt>
      <trkpt lat="45.35611" lon="4.47774">
        <ele>1045</ele>
        <time>2022-02-07T20:42:56Z</time>
      </trkpt>
      <trkpt lat="45.35619" lon="4.47768">
        <ele>1046</ele>
        <time>2022-02-07T20:42:57Z</time>
      </trkpt>
      <trkpt lat="45.35637" lon="4.47763">
        <ele>1046</ele>
        <time>2022-02-07T20:43:01Z</time>
      </trkpt>
      <trkpt lat="45.35658" lon="4.47766">
        <ele>1045</ele>
        <time>2022-02-07T20:43:04Z</time>
      </trkpt>
      <trkpt lat="45.35746" lon="4.47787">
        <ele>1044</ele>
        <time>2022-02-07T20:43:20Z</time>
      </trkpt>
      <trkpt lat="45.35771" lon="4.47782">
        <ele>1043</ele>
        <time>2022-02-07T20:43:25Z</time>
      </trkpt>
      <trkpt lat="45.35794" lon="4.47769">
        <ele>1044</ele>
        <time>2022-02-07T20:43:29Z</time>
      </trkpt>
      <trkpt lat="45.35807" lon="4.47757">
        <ele>1045</ele>
        <time>2022-02-07T20:43:32Z</time>
      </trkpt>
      <trkpt lat="45.35893" lon="4.47662">
        <ele>1046</ele>
        <time>2022-02-07T20:43:51Z</time>
      </trkpt>
      <trkpt lat="45.35904" lon="4.47644">
        <ele>1046</ele>
        <time>2022-02-07T20:43:54Z</time>
      </trkpt>
      <trkpt lat="45.35909" lon="4.47622">
        <ele>1046</ele>
        <time>2022-02-07T20:43:57Z</time>
      </trkpt>
      <trkpt lat="45.35911" lon="4.47606">
        <ele>1046</ele>
        <time>2022-02-07T20:43:59Z</time>
      </trkpt>
      <trkpt lat="45.35911" lon="4.47589">
        <ele>1046</ele>
        <time>2022-02-07T20:44:01Z</time>
      </trkpt>
      <trkpt lat="45.35911" lon="4.4757">
        <ele>1047</ele>
        <time>2022-02-07T20:44:04Z</time>
      </trkpt>
      <trkpt lat="45.35911" lon="4.4754">
        <ele>1048</ele>
        <time>2022-02-07T20:44:07Z</time>
      </trkpt>
      <trkpt lat="45.35908" lon="4.4751">
        <ele>1050</ele>
        <time>2022-02-07T20:44:11Z</time>
      </trkpt>
      <trkpt lat="45.35893" lon="4.47445">
        <ele>1050</ele>
        <time>2022-02-07T20:44:20Z</time>
      </trkpt>
      <trkpt lat="45.35876" lon="4.47382">
        <ele>1050</ele>
        <time>2022-02-07T20:44:28Z</time>
      </trkpt>
      <trkpt lat="45.3586" lon="4.4733">
        <ele>1050</ele>
        <time>2022-02-07T20:44:35Z</time>
      </trkpt>
      <trkpt lat="45.35855" lon="4.47311">
        <ele>1050</ele>
        <time>2022-02-07T20:44:38Z</time>
      </trkpt>
      <trkpt lat="45.35851" lon="4.47282">
        <ele>1050</ele>
        <time>2022-02-07T20:44:42Z</time>
      </trkpt>
      <trkpt lat="45.35834" lon="4.47148">
        <ele>1052</ele>
        <time>2022-02-07T20:44:59Z</time>
      </trkpt>
      <trkpt lat="45.35816" lon="4.47079">
        <ele>1057</ele>
        <time>2022-02-07T20:45:08Z</time>
      </trkpt>
      <trkpt lat="45.3579" lon="4.46932">
        <ele>1063</ele>
        <time>2022-02-07T20:45:27Z</time>
      </trkpt>
      <trkpt lat="45.35785" lon="4.46914">
        <ele>1064</ele>
        <time>2022-02-07T20:45:29Z</time>
      </trkpt>
      <trkpt lat="45.35778" lon="4.46898">
        <ele>1064</ele>
        <time>2022-02-07T20:45:31Z</time>
      </trkpt>
      <trkpt lat="45.3576" lon="4.46864">
        <ele>1064</ele>
        <time>2022-02-07T20:45:37Z</time>
      </trkpt>
      <trkpt lat="45.35715" lon="4.46793">
        <ele>1065</ele>
        <time>2022-02-07T20:45:49Z</time>
      </trkpt>
      <trkpt lat="45.35674" lon="4.46731">
        <ele>1065</ele>
        <time>2022-02-07T20:45:59Z</time>
      </trkpt>
      <trkpt lat="45.35616" lon="4.46649">
        <ele>1064</ele>
        <time>2022-02-07T20:46:14Z</time>
      </trkpt>
      <trkpt lat="45.35603" lon="4.46635">
        <ele>1063</ele>
        <time>2022-02-07T20:46:17Z</time>
      </trkpt>
      <trkpt lat="45.3559" lon="4.46624">
        <ele>1062</ele>
        <time>2022-02-07T20:46:20Z</time>
      </trkpt>
      <trkpt lat="45.35536" lon="4.46589">
        <ele>1061</ele>
        <time>2022-02-07T20:46:30Z</time>
      </trkpt>
      <trkpt lat="45.35534" lon="4.46587">
        <ele>1061</ele>
        <time>2022-02-07T20:46:31Z</time>
      </trkpt>
      <trkpt lat="45.35325" lon="4.46909">
        <ele>1067</ele>
        <time>2022-02-07T20:47:25Z</time>
      </trkpt>
      <trkpt lat="45.35269" lon="4.47003">
        <ele>1068</ele>
        <time>2022-02-07T20:47:41Z</time>
      </trkpt>
      <trkpt lat="45.35242" lon="4.47058">
        <ele>1068</ele>
        <time>2022-02-07T20:47:49Z</time>
      </trkpt>
      <trkpt lat="45.35029" lon="4.4754">
        <ele>1070</ele>
        <time>2022-02-07T20:49:00Z</time>
      </trkpt>
      <trkpt lat="45.35015" lon="4.47579">
        <ele>1070</ele>
        <time>2022-02-07T20:49:06Z</time>
      </trkpt>
      <trkpt lat="45.35004" lon="4.47629">
        <ele>1070</ele>
        <time>2022-02-07T20:49:12Z</time>
      </trkpt>
      <trkpt lat="45.34966" lon="4.47854">
        <ele>1067</ele>
        <time>2022-02-07T20:49:41Z</time>
      </trkpt>
      <trkpt lat="45.3495" lon="4.47941">
        <ele>1069</ele>
        <time>2022-02-07T20:49:53Z</time>
      </trkpt>
      <trkpt lat="45.34939" lon="4.47977">
        <ele>1070</ele>
        <time>2022-02-07T20:49:57Z</time>
      </trkpt>
      <trkpt lat="45.34918" lon="4.48018">
        <ele>1072</ele>
        <time>2022-02-07T20:50:04Z</time>
      </trkpt>
      <trkpt lat="45.34906" lon="4.48035">
        <ele>1072</ele>
        <time>2022-02-07T20:50:07Z</time>
      </trkpt>
      <trkpt lat="45.34874" lon="4.4807">
        <ele>1073</ele>
        <time>2022-02-07T20:50:14Z</time>
      </trkpt>
      <trkpt lat="45.34844" lon="4.48097">
        <ele>1074</ele>
        <time>2022-02-07T20:50:20Z</time>
      </trkpt>
      <trkpt lat="45.34792" lon="4.48139">
        <ele>1081</ele>
        <time>2022-02-07T20:50:31Z</time>
      </trkpt>
      <trkpt lat="45.34761" lon="4.48162">
        <ele>1086</ele>
        <time>2022-02-07T20:50:37Z</time>
      </trkpt>
      <trkpt lat="45.34752" lon="4.48167">
        <ele>1087</ele>
        <time>2022-02-07T20:50:39Z</time>
      </trkpt>
      <trkpt lat="45.34738" lon="4.4817">
        <ele>1088</ele>
        <time>2022-02-07T20:50:41Z</time>
      </trkpt>
      <trkpt lat="45.3464" lon="4.48176">
        <ele>1088</ele>
        <time>2022-02-07T20:50:59Z</time>
      </trkpt>
      <trkpt lat="45.34614" lon="4.48182">
        <ele>1089</ele>
        <time>2022-02-07T20:51:04Z</time>
      </trkpt>
      <trkpt lat="45.34595" lon="4.48195">
        <ele>1090</ele>
        <time>2022-02-07T20:51:07Z</time>
      </trkpt>
      <trkpt lat="45.34587" lon="4.48205">
        <ele>1091</ele>
        <time>2022-02-07T20:51:09Z</time>
      </trkpt>
      <trkpt lat="45.34575" lon="4.48224">
        <ele>1093</ele>
        <time>2022-02-07T20:51:12Z</time>
      </trkpt>
      <trkpt lat="45.34543" lon="4.48302">
        <ele>1098</ele>
        <time>2022-02-07T20:51:24Z</time>
      </trkpt>
      <trkpt lat="45.34536" lon="4.48312">
        <ele>1098</ele>
        <time>2022-02-07T20:51:25Z</time>
      </trkpt>
      <trkpt lat="45.34528" lon="4.48319">
        <ele>1097</ele>
        <time>2022-02-07T20:51:27Z</time>
      </trkpt>
      <trkpt lat="45.34517" lon="4.48324">
        <ele>1097</ele>
        <time>2022-02-07T20:51:29Z</time>
      </trkpt>
      <trkpt lat="45.34506" lon="4.48326">
        <ele>1095</ele>
        <time>2022-02-07T20:51:31Z</time>
      </trkpt>
      <trkpt lat="45.34487" lon="4.4832">
        <ele>1098</ele>
        <time>2022-02-07T20:51:35Z</time>
      </trkpt>
      <trkpt lat="45.3448" lon="4.48311">
        <ele>1099</ele>
        <time>2022-02-07T20:51:36Z</time>
      </trkpt>
      <trkpt lat="45.34472" lon="4.48299">
        <ele>1100</ele>
        <time>2022-02-07T20:51:38Z</time>
      </trkpt>
      <trkpt lat="45.34463" lon="4.48282">
        <ele>1102</ele>
        <time>2022-02-07T20:51:41Z</time>
      </trkpt>
      <trkpt lat="45.34457" lon="4.4826">
        <ele>1103</ele>
        <time>2022-02-07T20:51:44Z</time>
      </trkpt>
      <trkpt lat="45.34402" lon="4.48045">
        <ele>1111</ele>
        <time>2022-02-07T20:52:13Z</time>
      </trkpt>
      <trkpt lat="45.34391" lon="4.48012">
        <ele>1113</ele>
        <time>2022-02-07T20:52:17Z</time>
      </trkpt>
      <trkpt lat="45.34381" lon="4.47991">
        <ele>1114</ele>
        <time>2022-02-07T20:52:20Z</time>
      </trkpt>
      <trkpt lat="45.3437" lon="4.47973">
        <ele>1115</ele>
        <time>2022-02-07T20:52:23Z</time>
      </trkpt>
      <trkpt lat="45.34324" lon="4.47907">
        <ele>1120</ele>
        <time>2022-02-07T20:52:35Z</time>
      </trkpt>
      <trkpt lat="45.343" lon="4.47883">
        <ele>1121</ele>
        <time>2022-02-07T20:52:40Z</time>
      </trkpt>
      <trkpt lat="45.34279" lon="4.47868">
        <ele>1121</ele>
        <time>2022-02-07T20:52:44Z</time>
      </trkpt>
      <trkpt lat="45.34264" lon="4.47862">
        <ele>1122</ele>
        <time>2022-02-07T20:52:47Z</time>
      </trkpt>
      <trkpt lat="45.34244" lon="4.47858">
        <ele>1124</ele>
        <time>2022-02-07T20:52:51Z</time>
      </trkpt>
      <trkpt lat="45.3421" lon="4.47855">
        <ele>1126</ele>
        <time>2022-02-07T20:52:57Z</time>
      </trkpt>
      <trkpt lat="45.33881" lon="4.47889">
        <ele>1147</ele>
        <time>2022-02-07T20:53:55Z</time>
      </trkpt>
      <trkpt lat="45.33809" lon="4.47901">
        <ele>1151</ele>
        <time>2022-02-07T20:54:08Z</time>
      </trkpt>
      <trkpt lat="45.33769" lon="4.47913">
        <ele>1154</ele>
        <time>2022-02-07T20:54:16Z</time>
      </trkpt>
      <trkpt lat="45.3369" lon="4.47944">
        <ele>1160</ele>
        <time>2022-02-07T20:54:30Z</time>
      </trkpt>
      <trkpt lat="45.33485" lon="4.48043">
        <ele>1169</ele>
        <time>2022-02-07T20:55:09Z</time>
      </trkpt>
      <trkpt lat="45.33454" lon="4.48051">
        <ele>1170</ele>
        <time>2022-02-07T20:55:14Z</time>
      </trkpt>
      <trkpt lat="45.33413" lon="4.48051">
        <ele>1171</ele>
        <time>2022-02-07T20:55:22Z</time>
      </trkpt>
      <trkpt lat="45.33337" lon="4.48034">
        <ele>1176</ele>
        <time>2022-02-07T20:55:35Z</time>
      </trkpt>
      <trkpt lat="45.33269" lon="4.48015">
        <ele>1176</ele>
        <time>2022-02-07T20:55:48Z</time>
      </trkpt>
      <trkpt lat="45.33221" lon="4.48005">
        <ele>1176</ele>
        <time>2022-02-07T20:55:56Z</time>
      </trkpt>
      <trkpt lat="45.33149" lon="4.47994">
        <ele>1175</ele>
        <time>2022-02-07T20:56:09Z</time>
      </trkpt>
      <trkpt lat="45.32997" lon="4.47963">
        <ele>1166</ele>
        <time>2022-02-07T20:56:36Z</time>
      </trkpt>
      <trkpt lat="45.33051" lon="4.47938">
        <ele>1166</ele>
        <time>2022-02-07T20:56:47Z</time>
      </trkpt>
      <trkpt lat="45.33106" lon="4.47917">
        <ele>1168</ele>
        <time>2022-02-07T20:56:57Z</time>
      </trkpt>
      <trkpt lat="45.33051" lon="4.47938">
        <ele>1166</ele>
        <time>2022-02-07T20:57:07Z</time>
      </trkpt>
      <trkpt lat="45.32997" lon="4.47963">
        <ele>1166</ele>
        <time>2022-02-07T20:57:17Z</time>
      </trkpt>
      <trkpt lat="45.32964" lon="4.47956">
        <ele>1163</ele>
        <time>2022-02-07T20:57:23Z</time>
      </trkpt>
      <trkpt lat="45.3294" lon="4.47953">
        <ele>1162</ele>
        <time>2022-02-07T20:57:27Z</time>
      </trkpt>
      <trkpt lat="45.32898" lon="4.47953">
        <ele>1159</ele>
        <time>2022-02-07T20:57:35Z</time>
      </trkpt>
      <trkpt lat="45.32878" lon="4.47957">
        <ele>1158</ele>
        <time>2022-02-07T20:57:38Z</time>
      </trkpt>
      <trkpt lat="45.32846" lon="4.47968">
        <ele>1157</ele>
        <time>2022-02-07T20:57:44Z</time>
      </trkpt>
      <trkpt lat="45.32813" lon="4.47983">
        <ele>1155</ele>
        <time>2022-02-07T20:57:50Z</time>
      </trkpt>
      <trkpt lat="45.32784" lon="4.48004">
        <ele>1152</ele>
        <time>2022-02-07T20:57:56Z</time>
      </trkpt>
      <trkpt lat="45.32758" lon="4.4803">
        <ele>1151</ele>
        <time>2022-02-07T20:58:02Z</time>
      </trkpt>
      <trkpt lat="45.32728" lon="4.48065">
        <ele>1150</ele>
        <time>2022-02-07T20:58:09Z</time>
      </trkpt>
      <trkpt lat="45.32687" lon="4.48119">
        <ele>1147</ele>
        <time>2022-02-07T20:58:19Z</time>
      </trkpt>
      <trkpt lat="45.32677" lon="4.48135">
        <ele>1145</ele>
        <time>2022-02-07T20:58:21Z</time>
      </trkpt>
      <trkpt lat="45.32672" lon="4.48131">
        <ele>1144</ele>
        <time>2022-02-07T20:58:22Z</time>
      </trkpt>
      <trkpt lat="45.32663" lon="4.48128">
        <ele>1143</ele>
        <time>2022-02-07T20:58:24Z</time>
      </trkpt>
      <trkpt lat="45.32649" lon="4.48129">
        <ele>1143</ele>
        <time>2022-02-07T20:58:26Z</time>
      </trkpt>
      <trkpt lat="45.32623" lon="4.48136">
        <ele>1142</ele>
        <time>2022-02-07T20:58:31Z</time>
      </trkpt>
      <trkpt lat="45.3261" lon="4.48131">
        <ele>1142</ele>
        <time>2022-02-07T20:58:34Z</time>
      </trkpt>
      <trkpt lat="45.326" lon="4.48119">
        <ele>1143</ele>
        <time>2022-02-07T20:58:36Z</time>
      </trkpt>
      <trkpt lat="45.32595" lon="4.48099">
        <ele>1144</ele>
        <time>2022-02-07T20:58:38Z</time>
      </trkpt>
      <trkpt lat="45.32592" lon="4.48049">
        <ele>1145</ele>
        <time>2022-02-07T20:58:45Z</time>
      </trkpt>
      <trkpt lat="45.32592" lon="4.47931">
        <ele>1143</ele>
        <time>2022-02-07T20:59:00Z</time>
      </trkpt>
      <trkpt lat="45.32585" lon="4.47928">
        <ele>1143</ele>
        <time>2022-02-07T20:59:01Z</time>
      </trkpt>
      <trkpt lat="45.32582" lon="4.47923">
        <ele>1143</ele>
        <time>2022-02-07T20:59:02Z</time>
      </trkpt>
      <trkpt lat="45.32579" lon="4.47911">
        <ele>1143</ele>
        <time>2022-02-07T20:59:03Z</time>
      </trkpt>
      <trkpt lat="45.32577" lon="4.47889">
        <ele>1143</ele>
        <time>2022-02-07T20:59:06Z</time>
      </trkpt>
      <trkpt lat="45.32557" lon="4.47792">
        <ele>1149</ele>
        <time>2022-02-07T20:59:19Z</time>
      </trkpt>
      <trkpt lat="45.32549" lon="4.47702">
        <ele>1150</ele>
        <time>2022-02-07T20:59:30Z</time>
      </trkpt>
      <trkpt lat="45.32539" lon="4.47648">
        <ele>1149</ele>
        <time>2022-02-07T20:59:37Z</time>
      </trkpt>
      <trkpt lat="45.32532" lon="4.47623">
        <ele>1149</ele>
        <time>2022-02-07T20:59:40Z</time>
      </trkpt>
      <trkpt lat="45.32507" lon="4.47576">
        <ele>1148</ele>
        <time>2022-02-07T20:59:48Z</time>
      </trkpt>
      <trkpt lat="45.32459" lon="4.47506">
        <ele>1149</ele>
        <time>2022-02-07T21:00:00Z</time>
      </trkpt>
      <trkpt lat="45.32446" lon="4.47491">
        <ele>1149</ele>
        <time>2022-02-07T21:00:03Z</time>
      </trkpt>
      <trkpt lat="45.32397" lon="4.47445">
        <ele>1150</ele>
        <time>2022-02-07T21:00:13Z</time>
      </trkpt>
      <trkpt lat="45.32389" lon="4.47435">
        <ele>1150</ele>
        <time>2022-02-07T21:00:15Z</time>
      </trkpt>
      <trkpt lat="45.32377" lon="4.47408">
        <ele>1149</ele>
        <time>2022-02-07T21:00:19Z</time>
      </trkpt>
      <trkpt lat="45.32373" lon="4.47388">
        <ele>1150</ele>
        <time>2022-02-07T21:00:22Z</time>
      </trkpt>
      <trkpt lat="45.3237" lon="4.4734">
        <ele>1150</ele>
        <time>2022-02-07T21:00:28Z</time>
      </trkpt>
      <trkpt lat="45.32362" lon="4.47301">
        <ele>1151</ele>
        <time>2022-02-07T21:00:33Z</time>
      </trkpt>
      <trkpt lat="45.32355" lon="4.47284">
        <ele>1152</ele>
        <time>2022-02-07T21:00:35Z</time>
      </trkpt>
      <trkpt lat="45.32347" lon="4.47271">
        <ele>1153</ele>
        <time>2022-02-07T21:00:38Z</time>
      </trkpt>
      <trkpt lat="45.32338" lon="4.4726">
        <ele>1154</ele>
        <time>2022-02-07T21:00:40Z</time>
      </trkpt>
      <trkpt lat="45.32277" lon="4.47201">
        <ele>1153</ele>
        <time>2022-02-07T21:00:53Z</time>
      </trkpt>
      <trkpt lat="45.32255" lon="4.47187">
        <ele>1153</ele>
        <time>2022-02-07T21:00:57Z</time>
      </trkpt>
      <trkpt lat="45.32233" lon="4.47181">
        <ele>1154</ele>
        <time>2022-02-07T21:01:01Z</time>
      </trkpt>
      <trkpt lat="45.3222" lon="4.47175">
        <ele>1155</ele>
        <time>2022-02-07T21:01:04Z</time>
      </trkpt>
      <trkpt lat="45.32208" lon="4.47167">
        <ele>1156</ele>
        <time>2022-02-07T21:01:06Z</time>
      </trkpt>
      <trkpt lat="45.32187" lon="4.47143">
        <ele>1155</ele>
        <time>2022-02-07T21:01:11Z</time>
      </trkpt>
      <trkpt lat="45.32169" lon="4.47114">
        <ele>1155</ele>
        <time>2022-02-07T21:01:16Z</time>
      </trkpt>
      <trkpt lat="45.32161" lon="4.47104">
        <ele>1155</ele>
        <time>2022-02-07T21:01:17Z</time>
      </trkpt>
      <trkpt lat="45.32136" lon="4.47083">
        <ele>1156</ele>
        <time>2022-02-07T21:01:23Z</time>
      </trkpt>
      <trkpt lat="45.31986" lon="4.4697">
        <ele>1160</ele>
        <time>2022-02-07T21:01:53Z</time>
      </trkpt>
      <trkpt lat="45.31852" lon="4.46882">
        <ele>1162</ele>
        <time>2022-02-07T21:02:19Z</time>
      </trkpt>
      <trkpt lat="45.31821" lon="4.46855">
        <ele>1161</ele>
        <time>2022-02-07T21:02:26Z</time>
      </trkpt>
      <trkpt lat="45.31764" lon="4.46765">
        <ele>1159</ele>
        <time>2022-02-07T21:02:41Z</time>
      </trkpt>
      <trkpt lat="45.31723" lon="4.46716">
        <ele>1156</ele>
        <time>2022-02-07T21:02:50Z</time>
      </trkpt>
      <trkpt lat="45.31633" lon="4.46617">
        <ele>1149</ele>
        <time>2022-02-07T21:03:10Z</time>
      </trkpt>
      <trkpt lat="45.31619" lon="4.46607">
        <ele>1149</ele>
        <time>2022-02-07T21:03:13Z</time>
      </trkpt>
      <trkpt lat="45.31603" lon="4.46601">
        <ele>1150</ele>
        <time>2022-02-07T21:03:16Z</time>
      </trkpt>
      <trkpt lat="45.31587" lon="4.466">
        <ele>1151</ele>
        <time>2022-02-07T21:03:19Z</time>
      </trkpt>
      <trkpt lat="45.31448" lon="4.46605">
        <ele>1153</ele>
        <time>2022-02-07T21:03:44Z</time>
      </trkpt>
      <trkpt lat="45.31361" lon="4.46611">
        <ele>1150</ele>
        <time>2022-02-07T21:03:59Z</time>
      </trkpt>
      <trkpt lat="45.31312" lon="4.46606">
        <ele>1147</ele>
        <time>2022-02-07T21:04:08Z</time>
      </trkpt>
      <trkpt lat="45.31293" lon="4.46608">
        <ele>1145</ele>
        <time>2022-02-07T21:04:11Z</time>
      </trkpt>
      <trkpt lat="45.31275" lon="4.46616">
        <ele>1145</ele>
        <time>2022-02-07T21:04:15Z</time>
      </trkpt>
      <trkpt lat="45.31259" lon="4.46632">
        <ele>1145</ele>
        <time>2022-02-07T21:04:18Z</time>
      </trkpt>
      <trkpt lat="45.31243" lon="4.46656">
        <ele>1146</ele>
        <time>2022-02-07T21:04:22Z</time>
      </trkpt>
      <trkpt lat="45.31225" lon="4.46675">
        <ele>1148</ele>
        <time>2022-02-07T21:04:26Z</time>
      </trkpt>
      <trkpt lat="45.31203" lon="4.46679">
        <ele>1149</ele>
        <time>2022-02-07T21:04:30Z</time>
      </trkpt>
      <trkpt lat="45.31185" lon="4.46674">
        <ele>1148</ele>
        <time>2022-02-07T21:04:34Z</time>
      </trkpt>
      <trkpt lat="45.31169" lon="4.46662">
        <ele>1148</ele>
        <time>2022-02-07T21:04:37Z</time>
      </trkpt>
      <trkpt lat="45.31159" lon="4.46643">
        <ele>1147</ele>
        <time>2022-02-07T21:04:40Z</time>
      </trkpt>
      <trkpt lat="45.31139" lon="4.46562">
        <ele>1144</ele>
        <time>2022-02-07T21:04:51Z</time>
      </trkpt>
      <trkpt lat="45.3113" lon="4.46504">
        <ele>1141</ele>
        <time>2022-02-07T21:04:58Z</time>
      </trkpt>
      <trkpt lat="45.31112" lon="4.46454">
        <ele>1139</ele>
        <time>2022-02-07T21:05:05Z</time>
      </trkpt>
      <trkpt lat="45.31099" lon="4.46433">
        <ele>1138</ele>
        <time>2022-02-07T21:05:08Z</time>
      </trkpt>
      <trkpt lat="45.31084" lon="4.46415">
        <ele>1138</ele>
        <time>2022-02-07T21:05:12Z</time>
      </trkpt>
      <trkpt lat="45.31034" lon="4.46377">
        <ele>1135</ele>
        <time>2022-02-07T21:05:22Z</time>
      </trkpt>
      <trkpt lat="45.31006" lon="4.46365">
        <ele>1134</ele>
        <time>2022-02-07T21:05:27Z</time>
      </trkpt>
      <trkpt lat="45.30977" lon="4.46362">
        <ele>1133</ele>
        <time>2022-02-07T21:05:32Z</time>
      </trkpt>
      <trkpt lat="45.30935" lon="4.46367">
        <ele>1132</ele>
        <time>2022-02-07T21:05:40Z</time>
      </trkpt>
      <trkpt lat="45.30881" lon="4.46377">
        <ele>1133</ele>
        <time>2022-02-07T21:05:50Z</time>
      </trkpt>
      <trkpt lat="45.30852" lon="4.46372">
        <ele>1132</ele>
        <time>2022-02-07T21:05:55Z</time>
      </trkpt>
      <trkpt lat="45.30822" lon="4.46361">
        <ele>1131</ele>
        <time>2022-02-07T21:06:00Z</time>
      </trkpt>
      <trkpt lat="45.30754" lon="4.46328">
        <ele>1130</ele>
        <time>2022-02-07T21:06:13Z</time>
      </trkpt>
      <trkpt lat="45.30728" lon="4.46317">
        <ele>1130</ele>
        <time>2022-02-07T21:06:18Z</time>
      </trkpt>
      <trkpt lat="45.3062" lon="4.4625">
        <ele>1131</ele>
        <time>2022-02-07T21:06:39Z</time>
      </trkpt>
      <trkpt lat="45.30538" lon="4.46153">
        <ele>1130</ele>
        <time>2022-02-07T21:06:58Z</time>
      </trkpt>
      <trkpt lat="45.30459" lon="4.46068">
        <ele>1132</ele>
        <time>2022-02-07T21:07:16Z</time>
      </trkpt>
      <trkpt lat="45.30385" lon="4.46021">
        <ele>1131</ele>
        <time>2022-02-07T21:07:30Z</time>
      </trkpt>
      <trkpt lat="45.303" lon="4.46008">
        <ele>1128</ele>
        <time>2022-02-07T21:07:45Z</time>
      </trkpt>
      <trkpt lat="45.30252" lon="4.45995">
        <ele>1122</ele>
        <time>2022-02-07T21:07:54Z</time>
      </trkpt>
      <trkpt lat="45.30167" lon="4.45947">
        <ele>1114</ele>
        <time>2022-02-07T21:08:10Z</time>
      </trkpt>
      <trkpt lat="45.30167" lon="4.45935">
        <ele>1114</ele>
        <time>2022-02-07T21:08:12Z</time>
      </trkpt>
      <trkpt lat="45.30106" lon="4.45835">
        <ele>1103</ele>
        <time>2022-02-07T21:08:28Z</time>
      </trkpt>
      <trkpt lat="45.30026" lon="4.45774">
        <ele>1089</ele>
        <time>2022-02-07T21:08:44Z</time>
      </trkpt>
      <trkpt lat="45.29974" lon="4.45753">
        <ele>1083</ele>
        <time>2022-02-07T21:08:54Z</time>
      </trkpt>
      <trkpt lat="45.29966" lon="4.457">
        <ele>1080</ele>
        <time>2022-02-07T21:09:01Z</time>
      </trkpt>
      <trkpt lat="45.29961" lon="4.45691">
        <ele>1079</ele>
        <time>2022-02-07T21:09:02Z</time>
      </trkpt>
      <trkpt lat="45.29956" lon="4.45674">
        <ele>1078</ele>
        <time>2022-02-07T21:09:04Z</time>
      </trkpt>
      <trkpt lat="45.29952" lon="4.45666">
        <ele>1078</ele>
        <time>2022-02-07T21:09:06Z</time>
      </trkpt>
      <trkpt lat="45.29942" lon="4.45673">
        <ele>1077</ele>
        <time>2022-02-07T21:09:08Z</time>
      </trkpt>
      <trkpt lat="45.29931" lon="4.45679">
        <ele>1077</ele>
        <time>2022-02-07T21:09:10Z</time>
      </trkpt>
      <trkpt lat="45.29872" lon="4.45677">
        <ele>1077</ele>
        <time>2022-02-07T21:09:20Z</time>
      </trkpt>
      <trkpt lat="45.29846" lon="4.45645">
        <ele>1076</ele>
        <time>2022-02-07T21:09:26Z</time>
      </trkpt>
      <trkpt lat="45.29813" lon="4.45614">
        <ele>1075</ele>
        <time>2022-02-07T21:09:33Z</time>
      </trkpt>
      <trkpt lat="45.29788" lon="4.456">
        <ele>1074</ele>
        <time>2022-02-07T21:09:38Z</time>
      </trkpt>
      <trkpt lat="45.2976" lon="4.45596">
        <ele>1075</ele>
        <time>2022-02-07T21:09:43Z</time>
      </trkpt>
      <trkpt lat="45.29733" lon="4.45596">
        <ele>1075</ele>
        <time>2022-02-07T21:09:48Z</time>
      </trkpt>
      <trkpt lat="45.29651" lon="4.45604">
        <ele>1075</ele>
        <time>2022-02-07T21:10:03Z</time>
      </trkpt>
      <trkpt lat="45.29608" lon="4.45599">
        <ele>1076</ele>
        <time>2022-02-07T21:10:10Z</time>
      </trkpt>
      <trkpt lat="45.29575" lon="4.45582">
        <ele>1076</ele>
        <time>2022-02-07T21:10:17Z</time>
      </trkpt>
      <trkpt lat="45.29536" lon="4.45546">
        <ele>1082</ele>
        <time>2022-02-07T21:10:25Z</time>
      </trkpt>
      <trkpt lat="45.29503" lon="4.45465">
        <ele>1084</ele>
        <time>2022-02-07T21:10:37Z</time>
      </trkpt>
      <trkpt lat="45.29485" lon="4.4536">
        <ele>1079</ele>
        <time>2022-02-07T21:10:50Z</time>
      </trkpt>
      <trkpt lat="45.29469" lon="4.45295">
        <ele>1075</ele>
        <time>2022-02-07T21:10:59Z</time>
      </trkpt>
      <trkpt lat="45.29435" lon="4.45238">
        <ele>1073</ele>
        <time>2022-02-07T21:11:08Z</time>
      </trkpt>
      <trkpt lat="45.2933" lon="4.45157">
        <ele>1078</ele>
        <time>2022-02-07T21:11:29Z</time>
      </trkpt>
      <trkpt lat="45.29264" lon="4.45077">
        <ele>1075</ele>
        <time>2022-02-07T21:11:45Z</time>
      </trkpt>
      <trkpt lat="45.29216" lon="4.4497">
        <ele>1068</ele>
        <time>2022-02-07T21:12:01Z</time>
      </trkpt>
      <trkpt lat="45.29091" lon="4.44878">
        <ele>1071</ele>
        <time>2022-02-07T21:12:26Z</time>
      </trkpt>
      <trkpt lat="45.28976" lon="4.44778">
        <ele>1076</ele>
        <time>2022-02-07T21:12:50Z</time>
      </trkpt>
      <trkpt lat="45.28949" lon="4.44738">
        <ele>1077</ele>
        <time>2022-02-07T21:12:57Z</time>
      </trkpt>
      <trkpt lat="45.28885" lon="4.44567">
        <ele>1081</ele>
        <time>2022-02-07T21:13:21Z</time>
      </trkpt>
      <trkpt lat="45.28864" lon="4.44517">
        <ele>1080</ele>
        <time>2022-02-07T21:13:28Z</time>
      </trkpt>
      <trkpt lat="45.28847" lon="4.44489">
        <ele>1081</ele>
        <time>2022-02-07T21:13:33Z</time>
      </trkpt>
      <trkpt lat="45.28835" lon="4.44481">
        <ele>1083</ele>
        <time>2022-02-07T21:13:35Z</time>
      </trkpt>
      <trkpt lat="45.28809" lon="4.44471">
        <ele>1084</ele>
        <time>2022-02-07T21:13:40Z</time>
      </trkpt>
      <trkpt lat="45.2872" lon="4.4446">
        <ele>1083</ele>
        <time>2022-02-07T21:13:56Z</time>
      </trkpt>
      <trkpt lat="45.28698" lon="4.4446">
        <ele>1082</ele>
        <time>2022-02-07T21:14:00Z</time>
      </trkpt>
      <trkpt lat="45.28675" lon="4.44464">
        <ele>1081</ele>
        <time>2022-02-07T21:14:04Z</time>
      </trkpt>
      <trkpt lat="45.28647" lon="4.44471">
        <ele>1080</ele>
        <time>2022-02-07T21:14:09Z</time>
      </trkpt>
      <trkpt lat="45.2862" lon="4.44485">
        <ele>1079</ele>
        <time>2022-02-07T21:14:14Z</time>
      </trkpt>
      <trkpt lat="45.28585" lon="4.44505">
        <ele>1078</ele>
        <time>2022-02-07T21:14:21Z</time>
      </trkpt>
      <trkpt lat="45.28572" lon="4.44506">
        <ele>1077</ele>
        <time>2022-02-07T21:14:23Z</time>
      </trkpt>
      <trkpt lat="45.28544" lon="4.44495">
        <ele>1074</ele>
        <time>2022-02-07T21:14:28Z</time>
      </trkpt>
      <trkpt lat="45.28454" lon="4.44439">
        <ele>1067</ele>
        <time>2022-02-07T21:14:46Z</time>
      </trkpt>
      <trkpt lat="45.2842" lon="4.44421">
        <ele>1067</ele>
        <time>2022-02-07T21:14:52Z</time>
      </trkpt>
      <trkpt lat="45.2841" lon="4.4442">
        <ele>1067</ele>
        <time>2022-02-07T21:14:54Z</time>
      </trkpt>
      <trkpt lat="45.28377" lon="4.44437">
        <ele>1067</ele>
        <time>2022-02-07T21:15:00Z</time>
      </trkpt>
      <trkpt lat="45.28374" lon="4.44444">
        <ele>1067</ele>
        <time>2022-02-07T21:15:01Z</time>
      </trkpt>
      <trkpt lat="45.28368" lon="4.446">
        <ele>1065</ele>
        <time>2022-02-07T21:15:21Z</time>
      </trkpt>
      <trkpt lat="45.28368" lon="4.44611">
        <ele>1065</ele>
        <time>2022-02-07T21:15:22Z</time>
      </trkpt>
      <trkpt lat="45.28367" lon="4.44667">
        <ele>1065</ele>
        <time>2022-02-07T21:15:29Z</time>
      </trkpt>
      <trkpt lat="45.28365" lon="4.44688">
        <ele>1066</ele>
        <time>2022-02-07T21:15:32Z</time>
      </trkpt>
      <trkpt lat="45.28362" lon="4.44705">
        <ele>1066</ele>
        <time>2022-02-07T21:15:34Z</time>
      </trkpt>
      <trkpt lat="45.28348" lon="4.44709">
        <ele>1065</ele>
        <time>2022-02-07T21:15:37Z</time>
      </trkpt>
      <trkpt lat="45.28334" lon="4.44709">
        <ele>1065</ele>
        <time>2022-02-07T21:15:39Z</time>
      </trkpt>
      <trkpt lat="45.28213" lon="4.44684">
        <ele>1056</ele>
        <time>2022-02-07T21:16:01Z</time>
      </trkpt>
      <trkpt lat="45.28202" lon="4.4467">
        <ele>1055</ele>
        <time>2022-02-07T21:16:03Z</time>
      </trkpt>
      <trkpt lat="45.28199" lon="4.44624">
        <ele>1053</ele>
        <time>2022-02-07T21:16:09Z</time>
      </trkpt>
      <trkpt lat="45.2819" lon="4.44561">
        <ele>1051</ele>
        <time>2022-02-07T21:16:17Z</time>
      </trkpt>
      <trkpt lat="45.28183" lon="4.44539">
        <ele>1049</ele>
        <time>2022-02-07T21:16:20Z</time>
      </trkpt>
      <trkpt lat="45.28172" lon="4.44523">
        <ele>1048</ele>
        <time>2022-02-07T21:16:23Z</time>
      </trkpt>
      <trkpt lat="45.28156" lon="4.44513">
        <ele>1046</ele>
        <time>2022-02-07T21:16:26Z</time>
      </trkpt>
      <trkpt lat="45.28094" lon="4.44491">
        <ele>1044</ele>
        <time>2022-02-07T21:16:38Z</time>
      </trkpt>
      <trkpt lat="45.28056" lon="4.4446">
        <ele>1041</ele>
        <time>2022-02-07T21:16:45Z</time>
      </trkpt>
      <trkpt lat="45.28016" lon="4.44439">
        <ele>1036</ele>
        <time>2022-02-07T21:16:53Z</time>
      </trkpt>
      <trkpt lat="45.28003" lon="4.44429">
        <ele>1034</ele>
        <time>2022-02-07T21:16:56Z</time>
      </trkpt>
      <trkpt lat="45.27974" lon="4.44387">
        <ele>1031</ele>
        <time>2022-02-07T21:17:03Z</time>
      </trkpt>
      <trkpt lat="45.2796" lon="4.44373">
        <ele>1030</ele>
        <time>2022-02-07T21:17:06Z</time>
      </trkpt>
      <trkpt lat="45.27948" lon="4.44369">
        <ele>1029</ele>
        <time>2022-02-07T21:17:08Z</time>
      </trkpt>
      <trkpt lat="45.27872" lon="4.44352">
        <ele>1020</ele>
        <time>2022-02-07T21:17:22Z</time>
      </trkpt>
      <trkpt lat="45.27862" lon="4.44347">
        <ele>1019</ele>
        <time>2022-02-07T21:17:24Z</time>
      </trkpt>
      <trkpt lat="45.2785" lon="4.44337">
        <ele>1017</ele>
        <time>2022-02-07T21:17:26Z</time>
      </trkpt>
      <trkpt lat="45.27773" lon="4.44231">
        <ele>1008</ele>
        <time>2022-02-07T21:17:45Z</time>
      </trkpt>
      <trkpt lat="45.27764" lon="4.44213">
        <ele>1006</ele>
        <time>2022-02-07T21:17:48Z</time>
      </trkpt>
      <trkpt lat="45.27757" lon="4.44194">
        <ele>1005</ele>
        <time>2022-02-07T21:17:51Z</time>
      </trkpt>
      <trkpt lat="45.27751" lon="4.44133">
        <ele>1001</ele>
        <time>2022-02-07T21:17:58Z</time>
      </trkpt>
      <trkpt lat="45.27747" lon="4.44114">
        <ele>1001</ele>
        <time>2022-02-07T21:18:01Z</time>
      </trkpt>
      <trkpt lat="45.27722" lon="4.44173">
        <ele>1004</ele>
        <time>2022-02-07T21:18:10Z</time>
      </trkpt>
      <trkpt lat="45.27715" lon="4.44198">
        <ele>1006</ele>
        <time>2022-02-07T21:18:13Z</time>
      </trkpt>
      <trkpt lat="45.27692" lon="4.44294">
        <ele>1013</ele>
        <time>2022-02-07T21:18:26Z</time>
      </trkpt>
      <trkpt lat="45.2768" lon="4.44329">
        <ele>1016</ele>
        <time>2022-02-07T21:18:31Z</time>
      </trkpt>
      <trkpt lat="45.27672" lon="4.4435">
        <ele>1017</ele>
        <time>2022-02-07T21:18:34Z</time>
      </trkpt>
      <trkpt lat="45.27658" lon="4.44372">
        <ele>1019</ele>
        <time>2022-02-07T21:18:37Z</time>
      </trkpt>
      <trkpt lat="45.27603" lon="4.44435">
        <ele>1026</ele>
        <time>2022-02-07T21:18:50Z</time>
      </trkpt>
      <trkpt lat="45.27565" lon="4.4449">
        <ele>1029</ele>
        <time>2022-02-07T21:18:59Z</time>
      </trkpt>
      <trkpt lat="45.27534" lon="4.44544">
        <ele>1029</ele>
        <time>2022-02-07T21:19:08Z</time>
      </trkpt>
      <trkpt lat="45.2752" lon="4.44575">
        <ele>1029</ele>
        <time>2022-02-07T21:19:13Z</time>
      </trkpt>
      <trkpt lat="45.27507" lon="4.44617">
        <ele>1030</ele>
        <time>2022-02-07T21:19:19Z</time>
      </trkpt>
      <trkpt lat="45.27468" lon="4.44765">
        <ele>1040</ele>
        <time>2022-02-07T21:19:38Z</time>
      </trkpt>
      <trkpt lat="45.27455" lon="4.44809">
        <ele>1043</ele>
        <time>2022-02-07T21:19:44Z</time>
      </trkpt>
      <trkpt lat="45.27445" lon="4.44834">
        <ele>1045</ele>
        <time>2022-02-07T21:19:48Z</time>
      </trkpt>
      <trkpt lat="45.27425" lon="4.44875">
        <ele>1046</ele>
        <time>2022-02-07T21:19:54Z</time>
      </trkpt>
      <trkpt lat="45.27445" lon="4.44834">
        <ele>1045</ele>
        <time>2022-02-07T21:20:00Z</time>
      </trkpt>
      <trkpt lat="45.27455" lon="4.44809">
        <ele>1043</ele>
        <time>2022-02-07T21:20:04Z</time>
      </trkpt>
      <trkpt lat="45.27468" lon="4.44765">
        <ele>1040</ele>
        <time>2022-02-07T21:20:10Z</time>
      </trkpt>
      <trkpt lat="45.27507" lon="4.44617">
        <ele>1030</ele>
        <time>2022-02-07T21:20:30Z</time>
      </trkpt>
      <trkpt lat="45.2752" lon="4.44575">
        <ele>1029</ele>
        <time>2022-02-07T21:20:36Z</time>
      </trkpt>
      <trkpt lat="45.27534" lon="4.44544">
        <ele>1029</ele>
        <time>2022-02-07T21:20:40Z</time>
      </trkpt>
      <trkpt lat="45.27565" lon="4.4449">
        <ele>1029</ele>
        <time>2022-02-07T21:20:49Z</time>
      </trkpt>
      <trkpt lat="45.27603" lon="4.44435">
        <ele>1026</ele>
        <time>2022-02-07T21:20:59Z</time>
      </trkpt>
      <trkpt lat="45.27658" lon="4.44372">
        <ele>1019</ele>
        <time>2022-02-07T21:21:11Z</time>
      </trkpt>
      <trkpt lat="45.27672" lon="4.4435">
        <ele>1017</ele>
        <time>2022-02-07T21:21:15Z</time>
      </trkpt>
      <trkpt lat="45.2768" lon="4.44329">
        <ele>1016</ele>
        <time>2022-02-07T21:21:18Z</time>
      </trkpt>
      <trkpt lat="45.27692" lon="4.44294">
        <ele>1013</ele>
        <time>2022-02-07T21:21:23Z</time>
      </trkpt>
      <trkpt lat="45.27715" lon="4.44198">
        <ele>1006</ele>
        <time>2022-02-07T21:21:35Z</time>
      </trkpt>
      <trkpt lat="45.27722" lon="4.44173">
        <ele>1004</ele>
        <time>2022-02-07T21:21:39Z</time>
      </trkpt>
      <trkpt lat="45.27739" lon="4.44131">
        <ele>1001</ele>
        <time>2022-02-07T21:21:45Z</time>
      </trkpt>
      <trkpt lat="45.27752" lon="4.44103">
        <ele>1000</ele>
        <time>2022-02-07T21:21:49Z</time>
      </trkpt>
      <trkpt lat="45.27751" lon="4.44098">
        <ele>1000</ele>
        <time>2022-02-07T21:21:50Z</time>
      </trkpt>
      <trkpt lat="45.27679" lon="4.4394">
        <ele>993</ele>
        <time>2022-02-07T21:22:13Z</time>
      </trkpt>
      <trkpt lat="45.27666" lon="4.43923">
        <ele>991</ele>
        <time>2022-02-07T21:22:16Z</time>
      </trkpt>
      <trkpt lat="45.27658" lon="4.43916">
        <ele>991</ele>
        <time>2022-02-07T21:22:18Z</time>
      </trkpt>
      <trkpt lat="45.27648" lon="4.4391">
        <ele>990</ele>
        <time>2022-02-07T21:22:20Z</time>
      </trkpt>
      <trkpt lat="45.27635" lon="4.43904">
        <ele>989</ele>
        <time>2022-02-07T21:22:22Z</time>
      </trkpt>
      <trkpt lat="45.27621" lon="4.43901">
        <ele>989</ele>
        <time>2022-02-07T21:22:25Z</time>
      </trkpt>
      <trkpt lat="45.2759" lon="4.43898">
        <ele>988</ele>
        <time>2022-02-07T21:22:30Z</time>
      </trkpt>
      <trkpt lat="45.27578" lon="4.439">
        <ele>987</ele>
        <time>2022-02-07T21:22:33Z</time>
      </trkpt>
      <trkpt lat="45.27534" lon="4.43912">
        <ele>986</ele>
        <time>2022-02-07T21:22:41Z</time>
      </trkpt>
      <trkpt lat="45.27515" lon="4.43912">
        <ele>985</ele>
        <time>2022-02-07T21:22:44Z</time>
      </trkpt>
      <trkpt lat="45.27331" lon="4.43807">
        <ele>980</ele>
        <time>2022-02-07T21:23:19Z</time>
      </trkpt>
      <trkpt lat="45.27317" lon="4.43797">
        <ele>980</ele>
        <time>2022-02-07T21:23:22Z</time>
      </trkpt>
      <trkpt lat="45.2729" lon="4.43771">
        <ele>980</ele>
        <time>2022-02-07T21:23:28Z</time>
      </trkpt>
      <trkpt lat="45.27243" lon="4.43715">
        <ele>979</ele>
        <time>2022-02-07T21:23:39Z</time>
      </trkpt>
      <trkpt lat="45.27144" lon="4.43666">
        <ele>980</ele>
        <time>2022-02-07T21:23:57Z</time>
      </trkpt>
      <trkpt lat="45.27095" lon="4.43638">
        <ele>981</ele>
        <time>2022-02-07T21:24:07Z</time>
      </trkpt>
      <trkpt lat="45.27085" lon="4.43629">
        <ele>981</ele>
        <time>2022-02-07T21:24:09Z</time>
      </trkpt>
      <trkpt lat="45.27077" lon="4.43617">
        <ele>982</ele>
        <time>2022-02-07T21:24:11Z</time>
      </trkpt>
      <trkpt lat="45.27067" lon="4.43583">
        <ele>981</ele>
        <time>2022-02-07T21:24:16Z</time>
      </trkpt>
      <trkpt lat="45.27061" lon="4.43531">
        <ele>981</ele>
        <time>2022-02-07T21:24:22Z</time>
      </trkpt>
      <trkpt lat="45.27056" lon="4.43508">
        <ele>982</ele>
        <time>2022-02-07T21:24:25Z</time>
      </trkpt>
      <trkpt lat="45.2705" lon="4.43488">
        <ele>982</ele>
        <time>2022-02-07T21:24:28Z</time>
      </trkpt>
      <trkpt lat="45.27003" lon="4.4336">
        <ele>983</ele>
        <time>2022-02-07T21:24:46Z</time>
      </trkpt>
      <trkpt lat="45.26995" lon="4.43347">
        <ele>983</ele>
        <time>2022-02-07T21:24:48Z</time>
      </trkpt>
      <trkpt lat="45.26986" lon="4.43337">
        <ele>984</ele>
        <time>2022-02-07T21:24:50Z</time>
      </trkpt>
      <trkpt lat="45.26978" lon="4.43333">
        <ele>985</ele>
        <time>2022-02-07T21:24:52Z</time>
      </trkpt>
      <trkpt lat="45.26913" lon="4.43309">
        <ele>990</ele>
        <time>2022-02-07T21:25:04Z</time>
      </trkpt>
      <trkpt lat="45.26883" lon="4.43277">
        <ele>990</ele>
        <time>2022-02-07T21:25:10Z</time>
      </trkpt>
      <trkpt lat="45.26878" lon="4.43254">
        <ele>986</ele>
        <time>2022-02-07T21:25:13Z</time>
      </trkpt>
      <trkpt lat="45.26873" lon="4.43208">
        <ele>983</ele>
        <time>2022-02-07T21:25:19Z</time>
      </trkpt>
      <trkpt lat="45.26866" lon="4.43188">
        <ele>982</ele>
        <time>2022-02-07T21:25:22Z</time>
      </trkpt>
      <trkpt lat="45.2686" lon="4.43182">
        <ele>982</ele>
        <time>2022-02-07T21:25:23Z</time>
      </trkpt>
      <trkpt lat="45.26854" lon="4.43181">
        <ele>983</ele>
        <time>2022-02-07T21:25:24Z</time>
      </trkpt>
      <trkpt lat="45.26833" lon="4.43188">
        <ele>987</ele>
        <time>2022-02-07T21:25:28Z</time>
      </trkpt>
      <trkpt lat="45.26811" lon="4.43192">
        <ele>989</ele>
        <time>2022-02-07T21:25:32Z</time>
      </trkpt>
      <trkpt lat="45.26805" lon="4.43189">
        <ele>990</ele>
        <time>2022-02-07T21:25:33Z</time>
      </trkpt>
      <trkpt lat="45.26801" lon="4.43178">
        <ele>989</ele>
        <time>2022-02-07T21:25:35Z</time>
      </trkpt>
      <trkpt lat="45.268" lon="4.43166">
        <ele>988</ele>
        <time>2022-02-07T21:25:36Z</time>
      </trkpt>
      <trkpt lat="45.26802" lon="4.43148">
        <ele>989</ele>
        <time>2022-02-07T21:25:39Z</time>
      </trkpt>
      <trkpt lat="45.26806" lon="4.43123">
        <ele>989</ele>
        <time>2022-02-07T21:25:42Z</time>
      </trkpt>
      <trkpt lat="45.26825" lon="4.43034">
        <ele>985</ele>
        <time>2022-02-07T21:25:53Z</time>
      </trkpt>
      <trkpt lat="45.26828" lon="4.43011">
        <ele>983</ele>
        <time>2022-02-07T21:25:56Z</time>
      </trkpt>
      <trkpt lat="45.26828" lon="4.42994">
        <ele>982</ele>
        <time>2022-02-07T21:25:58Z</time>
      </trkpt>
      <trkpt lat="45.26824" lon="4.4298">
        <ele>981</ele>
        <time>2022-02-07T21:26:00Z</time>
      </trkpt>
      <trkpt lat="45.26815" lon="4.42964">
        <ele>981</ele>
        <time>2022-02-07T21:26:03Z</time>
      </trkpt>
      <trkpt lat="45.26755" lon="4.42876">
        <ele>986</ele>
        <time>2022-02-07T21:26:18Z</time>
      </trkpt>
      <trkpt lat="45.26751" lon="4.42866">
        <ele>986</ele>
        <time>2022-02-07T21:26:20Z</time>
      </trkpt>
      <trkpt lat="45.26748" lon="4.42851">
        <ele>985</ele>
        <time>2022-02-07T21:26:22Z</time>
      </trkpt>
      <trkpt lat="45.26751" lon="4.42765">
        <ele>980</ele>
        <time>2022-02-07T21:26:32Z</time>
      </trkpt>
      <trkpt lat="45.26749" lon="4.42743">
        <ele>980</ele>
        <time>2022-02-07T21:26:35Z</time>
      </trkpt>
      <trkpt lat="45.26739" lon="4.42704">
        <ele>981</ele>
        <time>2022-02-07T21:26:40Z</time>
      </trkpt>
      <trkpt lat="45.26732" lon="4.42694">
        <ele>982</ele>
        <time>2022-02-07T21:26:42Z</time>
      </trkpt>
      <trkpt lat="45.26723" lon="4.42686">
        <ele>983</ele>
        <time>2022-02-07T21:26:44Z</time>
      </trkpt>
      <trkpt lat="45.26689" lon="4.42668">
        <ele>985</ele>
        <time>2022-02-07T21:26:51Z</time>
      </trkpt>
      <trkpt lat="45.26665" lon="4.4262">
        <ele>982</ele>
        <time>2022-02-07T21:26:58Z</time>
      </trkpt>
      <trkpt lat="45.2663" lon="4.42579">
        <ele>978</ele>
        <time>2022-02-07T21:27:06Z</time>
      </trkpt>
      <trkpt lat="45.26617" lon="4.42576">
        <ele>977</ele>
        <time>2022-02-07T21:27:08Z</time>
      </trkpt>
      <trkpt lat="45.26591" lon="4.42576">
        <ele>977</ele>
        <time>2022-02-07T21:27:13Z</time>
      </trkpt>
      <trkpt lat="45.26541" lon="4.42589">
        <ele>979</ele>
        <time>2022-02-07T21:27:22Z</time>
      </trkpt>
      <trkpt lat="45.26529" lon="4.4259">
        <ele>979</ele>
        <time>2022-02-07T21:27:24Z</time>
      </trkpt>
      <trkpt lat="45.2648" lon="4.42577">
        <ele>977</ele>
        <time>2022-02-07T21:27:33Z</time>
      </trkpt>
      <trkpt lat="45.26459" lon="4.42567">
        <ele>976</ele>
        <time>2022-02-07T21:27:37Z</time>
      </trkpt>
      <trkpt lat="45.26436" lon="4.4255">
        <ele>976</ele>
        <time>2022-02-07T21:27:42Z</time>
      </trkpt>
      <trkpt lat="45.26418" lon="4.42531">
        <ele>975</ele>
        <time>2022-02-07T21:27:46Z</time>
      </trkpt>
      <trkpt lat="45.26408" lon="4.4251">
        <ele>976</ele>
        <time>2022-02-07T21:27:49Z</time>
      </trkpt>
      <trkpt lat="45.26399" lon="4.42481">
        <ele>977</ele>
        <time>2022-02-07T21:27:53Z</time>
      </trkpt>
      <trkpt lat="45.26381" lon="4.42413">
        <ele>980</ele>
        <time>2022-02-07T21:28:02Z</time>
      </trkpt>
      <trkpt lat="45.26344" lon="4.42173">
        <ele>975</ele>
        <time>2022-02-07T21:28:33Z</time>
      </trkpt>
      <trkpt lat="45.2633" lon="4.42143">
        <ele>973</ele>
        <time>2022-02-07T21:28:37Z</time>
      </trkpt>
      <trkpt lat="45.26271" lon="4.42046">
        <ele>964</ele>
        <time>2022-02-07T21:28:53Z</time>
      </trkpt>
      <trkpt lat="45.26247" lon="4.42033">
        <ele>963</ele>
        <time>2022-02-07T21:28:58Z</time>
      </trkpt>
      <trkpt lat="45.26152" lon="4.42009">
        <ele>960</ele>
        <time>2022-02-07T21:29:15Z</time>
      </trkpt>
      <trkpt lat="45.26085" lon="4.42007">
        <ele>964</ele>
        <time>2022-02-07T21:29:27Z</time>
      </trkpt>
      <trkpt lat="45.25991" lon="4.41993">
        <ele>957</ele>
        <time>2022-02-07T21:29:44Z</time>
      </trkpt>
      <trkpt lat="45.25969" lon="4.41998">
        <ele>955</ele>
        <time>2022-02-07T21:29:48Z</time>
      </trkpt>
      <trkpt lat="45.25957" lon="4.42006">
        <ele>955</ele>
        <time>2022-02-07T21:29:50Z</time>
      </trkpt>
      <trkpt lat="45.25866" lon="4.42075">
        <ele>951</ele>
        <time>2022-02-07T21:30:08Z</time>
      </trkpt>
      <trkpt lat="45.25855" lon="4.42079">
        <ele>949</ele>
        <time>2022-02-07T21:30:10Z</time>
      </trkpt>
      <trkpt lat="45.25824" lon="4.42085">
        <ele>944</ele>
        <time>2022-02-07T21:30:16Z</time>
      </trkpt>
      <trkpt lat="45.25797" lon="4.42098">
        <ele>942</ele>
        <time>2022-02-07T21:30:21Z</time>
      </trkpt>
      <trkpt lat="45.25741" lon="4.4215">
        <ele>942</ele>
        <time>2022-02-07T21:30:33Z</time>
      </trkpt>
      <trkpt lat="45.25725" lon="4.42161">
        <ele>942</ele>
        <time>2022-02-07T21:30:36Z</time>
      </trkpt>
      <trkpt lat="45.25716" lon="4.42161">
        <ele>942</ele>
        <time>2022-02-07T21:30:38Z</time>
      </trkpt>
      <trkpt lat="45.25709" lon="4.42157">
        <ele>941</ele>
        <time>2022-02-07T21:30:39Z</time>
      </trkpt>
      <trkpt lat="45.25704" lon="4.42149">
        <ele>940</ele>
        <time>2022-02-07T21:30:40Z</time>
      </trkpt>
      <trkpt lat="45.25702" lon="4.42139">
        <ele>939</ele>
        <time>2022-02-07T21:30:42Z</time>
      </trkpt>
      <trkpt lat="45.25702" lon="4.42128">
        <ele>938</ele>
        <time>2022-02-07T21:30:43Z</time>
      </trkpt>
      <trkpt lat="45.25732" lon="4.42017">
        <ele>927</ele>
        <time>2022-02-07T21:30:58Z</time>
      </trkpt>
      <trkpt lat="45.25732" lon="4.42008">
        <ele>926</ele>
        <time>2022-02-07T21:30:59Z</time>
      </trkpt>
      <trkpt lat="45.25729" lon="4.41996">
        <ele>925</ele>
        <time>2022-02-07T21:31:01Z</time>
      </trkpt>
      <trkpt lat="45.25721" lon="4.41979">
        <ele>923</ele>
        <time>2022-02-07T21:31:03Z</time>
      </trkpt>
      <trkpt lat="45.2564" lon="4.41906">
        <ele>922</ele>
        <time>2022-02-07T21:31:20Z</time>
      </trkpt>
      <trkpt lat="45.25623" lon="4.419">
        <ele>923</ele>
        <time>2022-02-07T21:31:23Z</time>
      </trkpt>
      <trkpt lat="45.25598" lon="4.419">
        <ele>927</ele>
        <time>2022-02-07T21:31:28Z</time>
      </trkpt>
      <trkpt lat="45.25585" lon="4.41895">
        <ele>928</ele>
        <time>2022-02-07T21:31:30Z</time>
      </trkpt>
      <trkpt lat="45.25569" lon="4.41886">
        <ele>925</ele>
        <time>2022-02-07T21:31:33Z</time>
      </trkpt>
      <trkpt lat="45.25555" lon="4.41882">
        <ele>924</ele>
        <time>2022-02-07T21:31:36Z</time>
      </trkpt>
      <trkpt lat="45.25524" lon="4.4188">
        <ele>923</ele>
        <time>2022-02-07T21:31:41Z</time>
      </trkpt>
      <trkpt lat="45.25511" lon="4.41875">
        <ele>922</ele>
        <time>2022-02-07T21:31:44Z</time>
      </trkpt>
      <trkpt lat="45.25481" lon="4.41857">
        <ele>918</ele>
        <time>2022-02-07T21:31:50Z</time>
      </trkpt>
      <trkpt lat="45.25452" lon="4.41843">
        <ele>916</ele>
        <time>2022-02-07T21:31:55Z</time>
      </trkpt>
      <trkpt lat="45.25441" lon="4.41835">
        <ele>916</ele>
        <time>2022-02-07T21:31:57Z</time>
      </trkpt>
      <trkpt lat="45.2543" lon="4.41819">
        <ele>915</ele>
        <time>2022-02-07T21:32:00Z</time>
      </trkpt>
      <trkpt lat="45.25426" lon="4.41809">
        <ele>915</ele>
        <time>2022-02-07T21:32:01Z</time>
      </trkpt>
      <trkpt lat="45.25418" lon="4.41758">
        <ele>913</ele>
        <time>2022-02-07T21:32:08Z</time>
      </trkpt>
      <trkpt lat="45.25409" lon="4.41743">
        <ele>913</ele>
        <time>2022-02-07T21:32:10Z</time>
      </trkpt>
      <trkpt lat="45.25402" lon="4.41738">
        <ele>912</ele>
        <time>2022-02-07T21:32:12Z</time>
      </trkpt>
      <trkpt lat="45.2529" lon="4.41684">
        <ele>912</ele>
        <time>2022-02-07T21:32:33Z</time>
      </trkpt>
      <trkpt lat="45.2528" lon="4.41681">
        <ele>912</ele>
        <time>2022-02-07T21:32:35Z</time>
      </trkpt>
      <trkpt lat="45.25152" lon="4.41668">
        <ele>908</ele>
        <time>2022-02-07T21:32:57Z</time>
      </trkpt>
      <trkpt lat="45.25136" lon="4.4167">
        <ele>907</ele>
        <time>2022-02-07T21:33:00Z</time>
      </trkpt>
      <trkpt lat="45.2511" lon="4.4168">
        <ele>907</ele>
        <time>2022-02-07T21:33:05Z</time>
      </trkpt>
      <trkpt lat="45.25093" lon="4.41677">
        <ele>906</ele>
        <time>2022-02-07T21:33:08Z</time>
      </trkpt>
      <trkpt lat="45.25086" lon="4.41673">
        <ele>906</ele>
        <time>2022-02-07T21:33:10Z</time>
      </trkpt>
      <trkpt lat="45.25072" lon="4.41656">
        <ele>904</ele>
        <time>2022-02-07T21:33:13Z</time>
      </trkpt>
      <trkpt lat="45.25057" lon="4.41641">
        <ele>904</ele>
        <time>2022-02-07T21:33:16Z</time>
      </trkpt>
      <trkpt lat="45.25049" lon="4.41638">
        <ele>904</ele>
        <time>2022-02-07T21:33:18Z</time>
      </trkpt>
      <trkpt lat="45.25021" lon="4.41633">
        <ele>904</ele>
        <time>2022-02-07T21:33:23Z</time>
      </trkpt>
      <trkpt lat="45.25014" lon="4.41628">
        <ele>904</ele>
        <time>2022-02-07T21:33:24Z</time>
      </trkpt>
      <trkpt lat="45.25009" lon="4.4162">
        <ele>904</ele>
        <time>2022-02-07T21:33:25Z</time>
      </trkpt>
      <trkpt lat="45.24998" lon="4.41591">
        <ele>903</ele>
        <time>2022-02-07T21:33:29Z</time>
      </trkpt>
      <trkpt lat="45.24984" lon="4.41577">
        <ele>903</ele>
        <time>2022-02-07T21:33:32Z</time>
      </trkpt>
      <trkpt lat="45.24967" lon="4.41569">
        <ele>905</ele>
        <time>2022-02-07T21:33:36Z</time>
      </trkpt>
      <trkpt lat="45.24952" lon="4.41557">
        <ele>905</ele>
        <time>2022-02-07T21:33:39Z</time>
      </trkpt>
      <trkpt lat="45.24945" lon="4.41546">
        <ele>905</ele>
        <time>2022-02-07T21:33:41Z</time>
      </trkpt>
      <trkpt lat="45.24932" lon="4.41505">
        <ele>903</ele>
        <time>2022-02-07T21:33:46Z</time>
      </trkpt>
      <trkpt lat="45.24926" lon="4.41495">
        <ele>902</ele>
        <time>2022-02-07T21:33:48Z</time>
      </trkpt>
      <trkpt lat="45.24917" lon="4.41485">
        <ele>900</ele>
        <time>2022-02-07T21:33:50Z</time>
      </trkpt>
      <trkpt lat="45.24877" lon="4.41452">
        <ele>904</ele>
        <time>2022-02-07T21:33:58Z</time>
      </trkpt>
      <trkpt lat="45.24866" lon="4.4144">
        <ele>905</ele>
        <time>2022-02-07T21:34:01Z</time>
      </trkpt>
      <trkpt lat="45.24857" lon="4.41428">
        <ele>906</ele>
        <time>2022-02-07T21:34:03Z</time>
      </trkpt>
      <trkpt lat="45.24848" lon="4.41407">
        <ele>905</ele>
        <time>2022-02-07T21:34:06Z</time>
      </trkpt>
      <trkpt lat="45.24825" lon="4.41332">
        <ele>896</ele>
        <time>2022-02-07T21:34:16Z</time>
      </trkpt>
      <trkpt lat="45.2481" lon="4.413">
        <ele>895</ele>
        <time>2022-02-07T21:34:21Z</time>
      </trkpt>
      <trkpt lat="45.24797" lon="4.4128">
        <ele>896</ele>
        <time>2022-02-07T21:34:24Z</time>
      </trkpt>
      <trkpt lat="45.24723" lon="4.41193">
        <ele>898</ele>
        <time>2022-02-07T21:34:41Z</time>
      </trkpt>
      <trkpt lat="45.24638" lon="4.41083">
        <ele>889</ele>
        <time>2022-02-07T21:35:02Z</time>
      </trkpt>
      <trkpt lat="45.24628" lon="4.41073">
        <ele>888</ele>
        <time>2022-02-07T21:35:04Z</time>
      </trkpt>
      <trkpt lat="45.24613" lon="4.41063">
        <ele>888</ele>
        <time>2022-02-07T21:35:07Z</time>
      </trkpt>
      <trkpt lat="45.24589" lon="4.41055">
        <ele>889</ele>
        <time>2022-02-07T21:35:11Z</time>
      </trkpt>
      <trkpt lat="45.24573" lon="4.41055">
        <ele>890</ele>
        <time>2022-02-07T21:35:14Z</time>
      </trkpt>
      <trkpt lat="45.24446" lon="4.41078">
        <ele>886</ele>
        <time>2022-02-07T21:35:37Z</time>
      </trkpt>
      <trkpt lat="45.2442" lon="4.41081">
        <ele>883</ele>
        <time>2022-02-07T21:35:42Z</time>
      </trkpt>
      <trkpt lat="45.24399" lon="4.41079">
        <ele>882</ele>
        <time>2022-02-07T21:35:45Z</time>
      </trkpt>
      <trkpt lat="45.24283" lon="4.41047">
        <ele>877</ele>
        <time>2022-02-07T21:36:06Z</time>
      </trkpt>
      <trkpt lat="45.24266" lon="4.41039">
        <ele>876</ele>
        <time>2022-02-07T21:36:10Z</time>
      </trkpt>
      <trkpt lat="45.24236" lon="4.41015">
        <ele>873</ele>
        <time>2022-02-07T21:36:16Z</time>
      </trkpt>
      <trkpt lat="45.24216" lon="4.41004">
        <ele>871</ele>
        <time>2022-02-07T21:36:20Z</time>
      </trkpt>
      <trkpt lat="45.24175" lon="4.40992">
        <ele>870</ele>
        <time>2022-02-07T21:36:27Z</time>
      </trkpt>
      <trkpt lat="45.2416" lon="4.40994">
        <ele>871</ele>
        <time>2022-02-07T21:36:30Z</time>
      </trkpt>
      <trkpt lat="45.24134" lon="4.41009">
        <ele>875</ele>
        <time>2022-02-07T21:36:35Z</time>
      </trkpt>
      <trkpt lat="45.24117" lon="4.41011">
        <ele>876</ele>
        <time>2022-02-07T21:36:38Z</time>
      </trkpt>
      <trkpt lat="45.24111" lon="4.41008">
        <ele>875</ele>
        <time>2022-02-07T21:36:39Z</time>
      </trkpt>
      <trkpt lat="45.24095" lon="4.40994">
        <ele>874</ele>
        <time>2022-02-07T21:36:42Z</time>
      </trkpt>
      <trkpt lat="45.24086" lon="4.40988">
        <ele>873</ele>
        <time>2022-02-07T21:36:44Z</time>
      </trkpt>
      <trkpt lat="45.24071" lon="4.40983">
        <ele>873</ele>
        <time>2022-02-07T21:36:47Z</time>
      </trkpt>
      <trkpt lat="45.24021" lon="4.40971">
        <ele>872</ele>
        <time>2022-02-07T21:36:56Z</time>
      </trkpt>
      <trkpt lat="45.23961" lon="4.4096">
        <ele>871</ele>
        <time>2022-02-07T21:37:07Z</time>
      </trkpt>
      <trkpt lat="45.23934" lon="4.40945">
        <ele>868</ele>
        <time>2022-02-07T21:37:12Z</time>
      </trkpt>
      <trkpt lat="45.23835" lon="4.40883">
        <ele>861</ele>
        <time>2022-02-07T21:37:31Z</time>
      </trkpt>
      <trkpt lat="45.2379" lon="4.40863">
        <ele>858</ele>
        <time>2022-02-07T21:37:39Z</time>
      </trkpt>
      <trkpt lat="45.23755" lon="4.4085">
        <ele>855</ele>
        <time>2022-02-07T21:37:46Z</time>
      </trkpt>
      <trkpt lat="45.2369" lon="4.40833">
        <ele>853</ele>
        <time>2022-02-07T21:37:58Z</time>
      </trkpt>
      <trkpt lat="45.23596" lon="4.40797">
        <ele>847</ele>
        <time>2022-02-07T21:38:15Z</time>
      </trkpt>
      <trkpt lat="45.23558" lon="4.40777">
        <ele>845</ele>
        <time>2022-02-07T21:38:22Z</time>
      </trkpt>
      <trkpt lat="45.23497" lon="4.40728">
        <ele>845</ele>
        <time>2022-02-07T21:38:35Z</time>
      </trkpt>
      <trkpt lat="45.23488" lon="4.40702">
        <ele>846</ele>
        <time>2022-02-07T21:38:38Z</time>
      </trkpt>
      <trkpt lat="45.23482" lon="4.40683">
        <ele>847</ele>
        <time>2022-02-07T21:38:41Z</time>
      </trkpt>
      <trkpt lat="45.23423" lon="4.40515">
        <ele>845</ele>
        <time>2022-02-07T21:39:04Z</time>
      </trkpt>
      <trkpt lat="45.23368" lon="4.40357">
        <ele>846</ele>
        <time>2022-02-07T21:39:26Z</time>
      </trkpt>
      <trkpt lat="45.23357" lon="4.40332">
        <ele>845</ele>
        <time>2022-02-07T21:39:30Z</time>
      </trkpt>
      <trkpt lat="45.23345" lon="4.40318">
        <ele>842</ele>
        <time>2022-02-07T21:39:33Z</time>
      </trkpt>
      <trkpt lat="45.23336" lon="4.40307">
        <ele>840</ele>
        <time>2022-02-07T21:39:35Z</time>
      </trkpt>
      <trkpt lat="45.2332" lon="4.40269">
        <ele>841</ele>
        <time>2022-02-07T21:39:40Z</time>
      </trkpt>
      <trkpt lat="45.23317" lon="4.40252">
        <ele>842</ele>
        <time>2022-02-07T21:39:43Z</time>
      </trkpt>
      <trkpt lat="45.23319" lon="4.40232">
        <ele>844</ele>
        <time>2022-02-07T21:39:45Z</time>
      </trkpt>
      <trkpt lat="45.23321" lon="4.40207">
        <ele>845</ele>
        <time>2022-02-07T21:39:48Z</time>
      </trkpt>
      <trkpt lat="45.23317" lon="4.40178">
        <ele>846</ele>
        <time>2022-02-07T21:39:52Z</time>
      </trkpt>
      <trkpt lat="45.23313" lon="4.40156">
        <ele>846</ele>
        <time>2022-02-07T21:39:55Z</time>
      </trkpt>
      <trkpt lat="45.23295" lon="4.401">
        <ele>843</ele>
        <time>2022-02-07T21:40:03Z</time>
      </trkpt>
      <trkpt lat="45.23289" lon="4.40084">
        <ele>842</ele>
        <time>2022-02-07T21:40:05Z</time>
      </trkpt>
      <trkpt lat="45.23287" lon="4.40077">
        <ele>841</ele>
        <time>2022-02-07T21:40:06Z</time>
      </trkpt>
      <trkpt lat="45.23281" lon="4.40056">
        <ele>841</ele>
        <time>2022-02-07T21:40:09Z</time>
      </trkpt>
      <trkpt lat="45.23276" lon="4.4004">
        <ele>840</ele>
        <time>2022-02-07T21:40:11Z</time>
      </trkpt>
      <trkpt lat="45.2322" lon="4.39873">
        <ele>847</ele>
        <time>2022-02-07T21:40:34Z</time>
      </trkpt>
      <trkpt lat="45.23201" lon="4.39839">
        <ele>847</ele>
        <time>2022-02-07T21:40:39Z</time>
      </trkpt>
      <trkpt lat="45.23182" lon="4.39815">
        <ele>848</ele>
        <time>2022-02-07T21:40:44Z</time>
      </trkpt>
      <trkpt lat="45.23182" lon="4.39803">
        <ele>851</ele>
        <time>2022-02-07T21:40:46Z</time>
      </trkpt>
      <trkpt lat="45.23171" lon="4.39791">
        <ele>851</ele>
        <time>2022-02-07T21:40:48Z</time>
      </trkpt>
      <trkpt lat="45.2311" lon="4.39742">
        <ele>851</ele>
        <time>2022-02-07T21:41:00Z</time>
      </trkpt>
      <trkpt lat="45.23077" lon="4.39712">
        <ele>854</ele>
        <time>2022-02-07T21:41:07Z</time>
      </trkpt>
      <trkpt lat="45.2306" lon="4.39701">
        <ele>854</ele>
        <time>2022-02-07T21:41:11Z</time>
      </trkpt>
      <trkpt lat="45.23033" lon="4.39674">
        <ele>856</ele>
        <time>2022-02-07T21:41:17Z</time>
      </trkpt>
      <trkpt lat="45.22985" lon="4.39611">
        <ele>865</ele>
        <time>2022-02-07T21:41:28Z</time>
      </trkpt>
      <trkpt lat="45.22967" lon="4.39603">
        <ele>866</ele>
        <time>2022-02-07T21:41:32Z</time>
      </trkpt>
      <trkpt lat="45.22909" lon="4.39602">
        <ele>863</ele>
        <time>2022-02-07T21:41:42Z</time>
      </trkpt>
      <trkpt lat="45.2289" lon="4.39606">
        <ele>863</ele>
        <time>2022-02-07T21:41:45Z</time>
      </trkpt>
      <trkpt lat="45.22872" lon="4.39603">
        <ele>863</ele>
        <time>2022-02-07T21:41:49Z</time>
      </trkpt>
      <trkpt lat="45.22864" lon="4.39594">
        <ele>865</ele>
        <time>2022-02-07T21:41:50Z</time>
      </trkpt>
      <trkpt lat="45.22839" lon="4.3961">
        <ele>864</ele>
        <time>2022-02-07T21:41:55Z</time>
      </trkpt>
      <trkpt lat="45.22824" lon="4.39617">
        <ele>863</ele>
        <time>2022-02-07T21:41:58Z</time>
      </trkpt>
      <trkpt lat="45.22839" lon="4.3961">
        <ele>864</ele>
        <time>2022-02-07T21:42:01Z</time>
      </trkpt>
      <trkpt lat="45.22864" lon="4.39594">
        <ele>865</ele>
        <time>2022-02-07T21:42:06Z</time>
      </trkpt>
      <trkpt lat="45.22872" lon="4.39603">
        <ele>863</ele>
        <time>2022-02-07T21:42:08Z</time>
      </trkpt>
      <trkpt lat="45.2289" lon="4.39606">
        <ele>863</ele>
        <time>2022-02-07T21:42:11Z</time>
      </trkpt>
      <trkpt lat="45.22909" lon="4.39602">
        <ele>863</ele>
        <time>2022-02-07T21:42:14Z</time>
      </trkpt>
      <trkpt lat="45.22967" lon="4.39603">
        <ele>866</ele>
        <time>2022-02-07T21:42:25Z</time>
      </trkpt>
      <trkpt lat="45.22985" lon="4.39611">
        <ele>865</ele>
        <time>2022-02-07T21:42:28Z</time>
      </trkpt>
      <trkpt lat="45.23033" lon="4.39674">
        <ele>856</ele>
        <time>2022-02-07T21:42:40Z</time>
      </trkpt>
      <trkpt lat="45.2306" lon="4.39701">
        <ele>854</ele>
        <time>2022-02-07T21:42:45Z</time>
      </trkpt>
      <trkpt lat="45.23077" lon="4.39712">
        <ele>854</ele>
        <time>2022-02-07T21:42:49Z</time>
      </trkpt>
      <trkpt lat="45.2311" lon="4.39742">
        <ele>851</ele>
        <time>2022-02-07T21:42:56Z</time>
      </trkpt>
      <trkpt lat="45.23171" lon="4.39791">
        <ele>851</ele>
        <time>2022-02-07T21:43:08Z</time>
      </trkpt>
      <trkpt lat="45.23182" lon="4.39803">
        <ele>851</ele>
        <time>2022-02-07T21:43:11Z</time>
      </trkpt>
      <trkpt lat="45.23182" lon="4.39815">
        <ele>848</ele>
        <time>2022-02-07T21:43:12Z</time>
      </trkpt>
      <trkpt lat="45.23169" lon="4.39802">
        <ele>847</ele>
        <time>2022-02-07T21:43:15Z</time>
      </trkpt>
      <trkpt lat="45.23134" lon="4.39774">
        <ele>848</ele>
        <time>2022-02-07T21:43:22Z</time>
      </trkpt>
      <trkpt lat="45.23078" lon="4.39739">
        <ele>846</ele>
        <time>2022-02-07T21:43:33Z</time>
      </trkpt>
      <trkpt lat="45.22998" lon="4.39693">
        <ele>847</ele>
        <time>2022-02-07T21:43:48Z</time>
      </trkpt>
      <trkpt lat="45.2297" lon="4.39684">
        <ele>847</ele>
        <time>2022-02-07T21:43:53Z</time>
      </trkpt>
      <trkpt lat="45.22946" lon="4.39686">
        <ele>847</ele>
        <time>2022-02-07T21:43:58Z</time>
      </trkpt>
      <trkpt lat="45.22921" lon="4.39691">
        <ele>845</ele>
        <time>2022-02-07T21:44:02Z</time>
      </trkpt>
      <trkpt lat="45.22752" lon="4.39736">
        <ele>846</ele>
        <time>2022-02-07T21:44:33Z</time>
      </trkpt>
      <trkpt lat="45.22639" lon="4.39798">
        <ele>844</ele>
        <time>2022-02-07T21:44:54Z</time>
      </trkpt>
      <trkpt lat="45.22606" lon="4.39802">
        <ele>843</ele>
        <time>2022-02-07T21:45:00Z</time>
      </trkpt>
      <trkpt lat="45.22578" lon="4.39798">
        <ele>843</ele>
        <time>2022-02-07T21:45:05Z</time>
      </trkpt>
      <trkpt lat="45.22551" lon="4.39786">
        <ele>841</ele>
        <time>2022-02-07T21:45:10Z</time>
      </trkpt>
      <trkpt lat="45.2252" lon="4.39762">
        <ele>841</ele>
        <time>2022-02-07T21:45:17Z</time>
      </trkpt>
      <trkpt lat="45.22493" lon="4.39724">
        <ele>841</ele>
        <time>2022-02-07T21:45:23Z</time>
      </trkpt>
      <trkpt lat="45.22446" lon="4.39648">
        <ele>843</ele>
        <time>2022-02-07T21:45:36Z</time>
      </trkpt>
      <trkpt lat="45.22396" lon="4.39558">
        <ele>845</ele>
        <time>2022-02-07T21:45:50Z</time>
      </trkpt>
      <trkpt lat="45.22366" lon="4.39494">
        <ele>847</ele>
        <time>2022-02-07T21:46:00Z</time>
      </trkpt>
      <trkpt lat="45.22273" lon="4.39228">
        <ele>851</ele>
        <time>2022-02-07T21:46:37Z</time>
      </trkpt>
      <trkpt lat="45.22243" lon="4.39152">
        <ele>848</ele>
        <time>2022-02-07T21:46:48Z</time>
      </trkpt>
      <trkpt lat="45.22223" lon="4.39125">
        <ele>852</ele>
        <time>2022-02-07T21:46:53Z</time>
      </trkpt>
      <trkpt lat="45.222" lon="4.39096">
        <ele>853</ele>
        <time>2022-02-07T21:46:59Z</time>
      </trkpt>
      <trkpt lat="45.22173" lon="4.39078">
        <ele>852</ele>
        <time>2022-02-07T21:47:04Z</time>
      </trkpt>
      <trkpt lat="45.22148" lon="4.39068">
        <ele>853</ele>
        <time>2022-02-07T21:47:08Z</time>
      </trkpt>
      <trkpt lat="45.22123" lon="4.39064">
        <ele>852</ele>
        <time>2022-02-07T21:47:13Z</time>
      </trkpt>
      <trkpt lat="45.22064" lon="4.39067">
        <ele>846</ele>
        <time>2022-02-07T21:47:23Z</time>
      </trkpt>
      <trkpt lat="45.22027" lon="4.39065">
        <ele>843</ele>
        <time>2022-02-07T21:47:30Z</time>
      </trkpt>
      <trkpt lat="45.21971" lon="4.39049">
        <ele>844</ele>
        <time>2022-02-07T21:47:40Z</time>
      </trkpt>
      <trkpt lat="45.21949" lon="4.39045">
        <ele>844</ele>
        <time>2022-02-07T21:47:44Z</time>
      </trkpt>
      <trkpt lat="45.21885" lon="4.39046">
        <ele>838</ele>
        <time>2022-02-07T21:47:56Z</time>
      </trkpt>
      <trkpt lat="45.21862" lon="4.39042">
        <ele>835</ele>
        <time>2022-02-07T21:48:00Z</time>
      </trkpt>
      <trkpt lat="45.21841" lon="4.39031">
        <ele>833</ele>
        <time>2022-02-07T21:48:04Z</time>
      </trkpt>
      <trkpt lat="45.21825" lon="4.39016">
        <ele>832</ele>
        <time>2022-02-07T21:48:07Z</time>
      </trkpt>
      <trkpt lat="45.2181" lon="4.38992">
        <ele>831</ele>
        <time>2022-02-07T21:48:11Z</time>
      </trkpt>
      <trkpt lat="45.21797" lon="4.38954">
        <ele>831</ele>
        <time>2022-02-07T21:48:16Z</time>
      </trkpt>
      <trkpt lat="45.21787" lon="4.38903">
        <ele>832</ele>
        <time>2022-02-07T21:48:23Z</time>
      </trkpt>
      <trkpt lat="45.21782" lon="4.38872">
        <ele>833</ele>
        <time>2022-02-07T21:48:27Z</time>
      </trkpt>
      <trkpt lat="45.21776" lon="4.38842">
        <ele>833</ele>
        <time>2022-02-07T21:48:31Z</time>
      </trkpt>
      <trkpt lat="45.21765" lon="4.38808">
        <ele>832</ele>
        <time>2022-02-07T21:48:36Z</time>
      </trkpt>
      <trkpt lat="45.21752" lon="4.38786">
        <ele>831</ele>
        <time>2022-02-07T21:48:39Z</time>
      </trkpt>
      <trkpt lat="45.2173" lon="4.38771">
        <ele>829</ele>
        <time>2022-02-07T21:48:44Z</time>
      </trkpt>
      <trkpt lat="45.21714" lon="4.38762">
        <ele>827</ele>
        <time>2022-02-07T21:48:47Z</time>
      </trkpt>
      <trkpt lat="45.21687" lon="4.38744">
        <ele>824</ele>
        <time>2022-02-07T21:48:52Z</time>
      </trkpt>
      <trkpt lat="45.21667" lon="4.38722">
        <ele>822</ele>
        <time>2022-02-07T21:48:56Z</time>
      </trkpt>
      <trkpt lat="45.21651" lon="4.38691">
        <ele>823</ele>
        <time>2022-02-07T21:49:01Z</time>
      </trkpt>
      <trkpt lat="45.21644" lon="4.38673">
        <ele>824</ele>
        <time>2022-02-07T21:49:04Z</time>
      </trkpt>
      <trkpt lat="45.21608" lon="4.38561">
        <ele>820</ele>
        <time>2022-02-07T21:49:19Z</time>
      </trkpt>
      <trkpt lat="45.21605" lon="4.38521">
        <ele>820</ele>
        <time>2022-02-07T21:49:24Z</time>
      </trkpt>
      <trkpt lat="45.21607" lon="4.38483">
        <ele>820</ele>
        <time>2022-02-07T21:49:29Z</time>
      </trkpt>
      <trkpt lat="45.21613" lon="4.38449">
        <ele>819</ele>
        <time>2022-02-07T21:49:33Z</time>
      </trkpt>
      <trkpt lat="45.21662" lon="4.38314">
        <ele>815</ele>
        <time>2022-02-07T21:49:52Z</time>
      </trkpt>
      <trkpt lat="45.21671" lon="4.38273">
        <ele>814</ele>
        <time>2022-02-07T21:49:58Z</time>
      </trkpt>
      <trkpt lat="45.21672" lon="4.38232">
        <ele>813</ele>
        <time>2022-02-07T21:50:03Z</time>
      </trkpt>
      <trkpt lat="45.21666" lon="4.38194">
        <ele>811</ele>
        <time>2022-02-07T21:50:08Z</time>
      </trkpt>
      <trkpt lat="45.21654" lon="4.38158">
        <ele>810</ele>
        <time>2022-02-07T21:50:13Z</time>
      </trkpt>
      <trkpt lat="45.21634" lon="4.38132">
        <ele>813</ele>
        <time>2022-02-07T21:50:18Z</time>
      </trkpt>
      <trkpt lat="45.21612" lon="4.38112">
        <ele>816</ele>
        <time>2022-02-07T21:50:22Z</time>
      </trkpt>
      <trkpt lat="45.21585" lon="4.381">
        <ele>818</ele>
        <time>2022-02-07T21:50:27Z</time>
      </trkpt>
      <trkpt lat="45.21555" lon="4.38094">
        <ele>821</ele>
        <time>2022-02-07T21:50:33Z</time>
      </trkpt>
      <trkpt lat="45.21528" lon="4.38091">
        <ele>824</ele>
        <time>2022-02-07T21:50:38Z</time>
      </trkpt>
      <trkpt lat="45.21506" lon="4.38093">
        <ele>825</ele>
        <time>2022-02-07T21:50:42Z</time>
      </trkpt>
      <trkpt lat="45.21484" lon="4.381">
        <ele>823</ele>
        <time>2022-02-07T21:50:46Z</time>
      </trkpt>
      <trkpt lat="45.21387" lon="4.38151">
        <ele>810</ele>
        <time>2022-02-07T21:51:04Z</time>
      </trkpt>
      <trkpt lat="45.21373" lon="4.38156">
        <ele>808</ele>
        <time>2022-02-07T21:51:07Z</time>
      </trkpt>
      <trkpt lat="45.2136" lon="4.38155">
        <ele>807</ele>
        <time>2022-02-07T21:51:09Z</time>
      </trkpt>
      <trkpt lat="45.21349" lon="4.38148">
        <ele>807</ele>
        <time>2022-02-07T21:51:11Z</time>
      </trkpt>
      <trkpt lat="45.21341" lon="4.3814">
        <ele>807</ele>
        <time>2022-02-07T21:51:13Z</time>
      </trkpt>
      <trkpt lat="45.21333" lon="4.38125">
        <ele>807</ele>
        <time>2022-02-07T21:51:15Z</time>
      </trkpt>
      <trkpt lat="45.21328" lon="4.38109">
        <ele>808</ele>
        <time>2022-02-07T21:51:17Z</time>
      </trkpt>
      <trkpt lat="45.21311" lon="4.38031">
        <ele>812</ele>
        <time>2022-02-07T21:51:28Z</time>
      </trkpt>
      <trkpt lat="45.21299" lon="4.37998">
        <ele>812</ele>
        <time>2022-02-07T21:51:32Z</time>
      </trkpt>
      <trkpt lat="45.21284" lon="4.37968">
        <ele>810</ele>
        <time>2022-02-07T21:51:37Z</time>
      </trkpt>
      <trkpt lat="45.21252" lon="4.37911">
        <ele>803</ele>
        <time>2022-02-07T21:51:46Z</time>
      </trkpt>
      <trkpt lat="45.21243" lon="4.37877">
        <ele>804</ele>
        <time>2022-02-07T21:51:50Z</time>
      </trkpt>
      <trkpt lat="45.21231" lon="4.37788">
        <ele>807</ele>
        <time>2022-02-07T21:52:02Z</time>
      </trkpt>
      <trkpt lat="45.21222" lon="4.37757">
        <ele>807</ele>
        <time>2022-02-07T21:52:06Z</time>
      </trkpt>
      <trkpt lat="45.21212" lon="4.37734">
        <ele>809</ele>
        <time>2022-02-07T21:52:09Z</time>
      </trkpt>
      <trkpt lat="45.21195" lon="4.37714">
        <ele>810</ele>
        <time>2022-02-07T21:52:13Z</time>
      </trkpt>
      <trkpt lat="45.21175" lon="4.37697">
        <ele>810</ele>
        <time>2022-02-07T21:52:17Z</time>
      </trkpt>
      <trkpt lat="45.21155" lon="4.3769">
        <ele>808</ele>
        <time>2022-02-07T21:52:21Z</time>
      </trkpt>
      <trkpt lat="45.21103" lon="4.37685">
        <ele>804</ele>
        <time>2022-02-07T21:52:30Z</time>
      </trkpt>
      <trkpt lat="45.21102" lon="4.3769">
        <ele>804</ele>
        <time>2022-02-07T21:52:31Z</time>
      </trkpt>
      <trkpt lat="45.211" lon="4.37704">
        <ele>803</ele>
        <time>2022-02-07T21:52:33Z</time>
      </trkpt>
      <trkpt lat="45.21102" lon="4.37784">
        <ele>806</ele>
        <time>2022-02-07T21:52:43Z</time>
      </trkpt>
      <trkpt lat="45.21103" lon="4.37795">
        <ele>807</ele>
        <time>2022-02-07T21:52:44Z</time>
      </trkpt>
      <trkpt lat="45.21105" lon="4.37864">
        <ele>811</ele>
        <time>2022-02-07T21:52:53Z</time>
      </trkpt>
      <trkpt lat="45.21104" lon="4.37892">
        <ele>811</ele>
        <time>2022-02-07T21:52:56Z</time>
      </trkpt>
      <trkpt lat="45.21095" lon="4.37923">
        <ele>812</ele>
        <time>2022-02-07T21:53:01Z</time>
      </trkpt>
      <trkpt lat="45.21081" lon="4.3795">
        <ele>810</ele>
        <time>2022-02-07T21:53:05Z</time>
      </trkpt>
      <trkpt lat="45.21058" lon="4.37984">
        <ele>807</ele>
        <time>2022-02-07T21:53:11Z</time>
      </trkpt>
      <trkpt lat="45.21044" lon="4.37997">
        <ele>805</ele>
        <time>2022-02-07T21:53:14Z</time>
      </trkpt>
      <trkpt lat="45.21027" lon="4.38001">
        <ele>806</ele>
        <time>2022-02-07T21:53:17Z</time>
      </trkpt>
      <trkpt lat="45.20994" lon="4.37997">
        <ele>810</ele>
        <time>2022-02-07T21:53:23Z</time>
      </trkpt>
      <trkpt lat="45.20924" lon="4.37964">
        <ele>818</ele>
        <time>2022-02-07T21:53:36Z</time>
      </trkpt>
      <trkpt lat="45.20893" lon="4.37956">
        <ele>824</ele>
        <time>2022-02-07T21:53:41Z</time>
      </trkpt>
      <trkpt lat="45.2086" lon="4.37958">
        <ele>828</ele>
        <time>2022-02-07T21:53:47Z</time>
      </trkpt>
      <trkpt lat="45.20831" lon="4.37984">
        <ele>824</ele>
        <time>2022-02-07T21:53:53Z</time>
      </trkpt>
      <trkpt lat="45.20776" lon="4.38049">
        <ele>832</ele>
        <time>2022-02-07T21:54:06Z</time>
      </trkpt>
      <trkpt lat="45.20732" lon="4.3818">
        <ele>829</ele>
        <time>2022-02-07T21:54:24Z</time>
      </trkpt>
      <trkpt lat="45.20715" lon="4.38252">
        <ele>823</ele>
        <time>2022-02-07T21:54:34Z</time>
      </trkpt>
      <trkpt lat="45.20706" lon="4.3827">
        <ele>823</ele>
        <time>2022-02-07T21:54:37Z</time>
      </trkpt>
      <trkpt lat="45.20696" lon="4.38283">
        <ele>824</ele>
        <time>2022-02-07T21:54:39Z</time>
      </trkpt>
      <trkpt lat="45.20681" lon="4.38293">
        <ele>826</ele>
        <time>2022-02-07T21:54:42Z</time>
      </trkpt>
      <trkpt lat="45.20667" lon="4.38297">
        <ele>828</ele>
        <time>2022-02-07T21:54:45Z</time>
      </trkpt>
      <trkpt lat="45.2064" lon="4.38298">
        <ele>831</ele>
        <time>2022-02-07T21:54:49Z</time>
      </trkpt>
      <trkpt lat="45.20615" lon="4.38303">
        <ele>832</ele>
        <time>2022-02-07T21:54:54Z</time>
      </trkpt>
      <trkpt lat="45.20592" lon="4.38314">
        <ele>831</ele>
        <time>2022-02-07T21:54:58Z</time>
      </trkpt>
      <trkpt lat="45.20567" lon="4.38332">
        <ele>827</ele>
        <time>2022-02-07T21:55:03Z</time>
      </trkpt>
      <trkpt lat="45.20451" lon="4.38446">
        <ele>822</ele>
        <time>2022-02-07T21:55:28Z</time>
      </trkpt>
      <trkpt lat="45.20388" lon="4.38484">
        <ele>821</ele>
        <time>2022-02-07T21:55:40Z</time>
      </trkpt>
      <trkpt lat="45.20359" lon="4.38499">
        <ele>821</ele>
        <time>2022-02-07T21:55:46Z</time>
      </trkpt>
      <trkpt lat="45.20329" lon="4.3851">
        <ele>823</ele>
        <time>2022-02-07T21:55:51Z</time>
      </trkpt>
      <trkpt lat="45.20323" lon="4.38511">
        <ele>825</ele>
        <time>2022-02-07T21:55:53Z</time>
      </trkpt>
      <trkpt lat="45.2031" lon="4.38516">
        <ele>827</ele>
        <time>2022-02-07T21:55:55Z</time>
      </trkpt>
      <trkpt lat="45.203" lon="4.38524">
        <ele>828</ele>
        <time>2022-02-07T21:55:57Z</time>
      </trkpt>
      <trkpt lat="45.20272" lon="4.3856">
        <ele>825</ele>
        <time>2022-02-07T21:56:04Z</time>
      </trkpt>
      <trkpt lat="45.20253" lon="4.38579">
        <ele>823</ele>
        <time>2022-02-07T21:56:08Z</time>
      </trkpt>
      <trkpt lat="45.20223" lon="4.38599">
        <ele>823</ele>
        <time>2022-02-07T21:56:14Z</time>
      </trkpt>
      <trkpt lat="45.20198" lon="4.38613">
        <ele>824</ele>
        <time>2022-02-07T21:56:18Z</time>
      </trkpt>
      <trkpt lat="45.20179" lon="4.38614">
        <ele>825</ele>
        <time>2022-02-07T21:56:22Z</time>
      </trkpt>
      <trkpt lat="45.20145" lon="4.38591">
        <ele>824</ele>
        <time>2022-02-07T21:56:29Z</time>
      </trkpt>
      <trkpt lat="45.20133" lon="4.38542">
        <ele>834</ele>
        <time>2022-02-07T21:56:35Z</time>
      </trkpt>
      <trkpt lat="45.20108" lon="4.3852">
        <ele>835</ele>
        <time>2022-02-07T21:56:40Z</time>
      </trkpt>
      <trkpt lat="45.20061" lon="4.38496">
        <ele>832</ele>
        <time>2022-02-07T21:56:49Z</time>
      </trkpt>
      <trkpt lat="45.20014" lon="4.3848">
        <ele>828</ele>
        <time>2022-02-07T21:56:58Z</time>
      </trkpt>
      <trkpt lat="45.19999" lon="4.38477">
        <ele>826</ele>
        <time>2022-02-07T21:57:00Z</time>
      </trkpt>
      <trkpt lat="45.19959" lon="4.38476">
        <ele>828</ele>
        <time>2022-02-07T21:57:08Z</time>
      </trkpt>
      <trkpt lat="45.19949" lon="4.38467">
        <ele>830</ele>
        <time>2022-02-07T21:57:10Z</time>
      </trkpt>
      <trkpt lat="45.19942" lon="4.38439">
        <ele>832</ele>
        <time>2022-02-07T21:57:13Z</time>
      </trkpt>
      <trkpt lat="45.19944" lon="4.38421">
        <ele>834</ele>
        <time>2022-02-07T21:57:16Z</time>
      </trkpt>
      <trkpt lat="45.19954" lon="4.38386">
        <ele>838</ele>
        <time>2022-02-07T21:57:20Z</time>
      </trkpt>
      <trkpt lat="45.19954" lon="4.38361">
        <ele>840</ele>
        <time>2022-02-07T21:57:24Z</time>
      </trkpt>
      <trkpt lat="45.19951" lon="4.38335">
        <ele>842</ele>
        <time>2022-02-07T21:57:27Z</time>
      </trkpt>
      <trkpt lat="45.1994" lon="4.3829">
        <ele>842</ele>
        <time>2022-02-07T21:57:33Z</time>
      </trkpt>
      <trkpt lat="45.19924" lon="4.38246">
        <ele>840</ele>
        <time>2022-02-07T21:57:39Z</time>
      </trkpt>
      <trkpt lat="45.19895" lon="4.38213">
        <ele>841</ele>
        <time>2022-02-07T21:57:46Z</time>
      </trkpt>
      <trkpt lat="45.19835" lon="4.38132">
        <ele>840</ele>
        <time>2022-02-07T21:58:00Z</time>
      </trkpt>
      <trkpt lat="45.19792" lon="4.38086">
        <ele>843</ele>
        <time>2022-02-07T21:58:10Z</time>
      </trkpt>
      <trkpt lat="45.1978" lon="4.3806">
        <ele>844</ele>
        <time>2022-02-07T21:58:14Z</time>
      </trkpt>
      <trkpt lat="45.1975" lon="4.37952">
        <ele>845</ele>
        <time>2022-02-07T21:58:28Z</time>
      </trkpt>
      <trkpt lat="45.19745" lon="4.3794">
        <ele>846</ele>
        <time>2022-02-07T21:58:30Z</time>
      </trkpt>
      <trkpt lat="45.19727" lon="4.3792">
        <ele>848</ele>
        <time>2022-02-07T21:58:34Z</time>
      </trkpt>
      <trkpt lat="45.19708" lon="4.37909">
        <ele>849</ele>
        <time>2022-02-07T21:58:38Z</time>
      </trkpt>
      <trkpt lat="45.1969" lon="4.37907">
        <ele>850</ele>
        <time>2022-02-07T21:58:41Z</time>
      </trkpt>
      <trkpt lat="45.19672" lon="4.37912">
        <ele>848</ele>
        <time>2022-02-07T21:58:44Z</time>
      </trkpt>
      <trkpt lat="45.19658" lon="4.37922">
        <ele>848</ele>
        <time>2022-02-07T21:58:47Z</time>
      </trkpt>
      <trkpt lat="45.19646" lon="4.37936">
        <ele>848</ele>
        <time>2022-02-07T21:58:50Z</time>
      </trkpt>
      <trkpt lat="45.19636" lon="4.37962">
        <ele>847</ele>
        <time>2022-02-07T21:58:54Z</time>
      </trkpt>
      <trkpt lat="45.19629" lon="4.37992">
        <ele>846</ele>
        <time>2022-02-07T21:58:58Z</time>
      </trkpt>
      <trkpt lat="45.19631" lon="4.38079">
        <ele>849</ele>
        <time>2022-02-07T21:59:09Z</time>
      </trkpt>
      <trkpt lat="45.19642" lon="4.3811">
        <ele>847</ele>
        <time>2022-02-07T21:59:13Z</time>
      </trkpt>
      <trkpt lat="45.19651" lon="4.38141">
        <ele>846</ele>
        <time>2022-02-07T21:59:17Z</time>
      </trkpt>
      <trkpt lat="45.19659" lon="4.38188">
        <ele>845</ele>
        <time>2022-02-07T21:59:23Z</time>
      </trkpt>
      <trkpt lat="45.19656" lon="4.38237">
        <ele>849</ele>
        <time>2022-02-07T21:59:29Z</time>
      </trkpt>
      <trkpt lat="45.19632" lon="4.38316">
        <ele>857</ele>
        <time>2022-02-07T21:59:40Z</time>
      </trkpt>
      <trkpt lat="45.19593" lon="4.3841">
        <ele>856</ele>
        <time>2022-02-07T21:59:54Z</time>
      </trkpt>
      <trkpt lat="45.19561" lon="4.38498">
        <ele>848</ele>
        <time>2022-02-07T22:00:06Z</time>
      </trkpt>
      <trkpt lat="45.19537" lon="4.38535">
        <ele>852</ele>
        <time>2022-02-07T22:00:13Z</time>
      </trkpt>
      <trkpt lat="45.19523" lon="4.38534">
        <ele>852</ele>
        <time>2022-02-07T22:00:15Z</time>
      </trkpt>
      <trkpt lat="45.19506" lon="4.38514">
        <ele>851</ele>
        <time>2022-02-07T22:00:19Z</time>
      </trkpt>
      <trkpt lat="45.19495" lon="4.38484">
        <ele>853</ele>
        <time>2022-02-07T22:00:23Z</time>
      </trkpt>
      <trkpt lat="45.19495" lon="4.38445">
        <ele>856</ele>
        <time>2022-02-07T22:00:28Z</time>
      </trkpt>
      <trkpt lat="45.1949" lon="4.38413">
        <ele>858</ele>
        <time>2022-02-07T22:00:32Z</time>
      </trkpt>
      <trkpt lat="45.19475" lon="4.3837">
        <ele>865</ele>
        <time>2022-02-07T22:00:38Z</time>
      </trkpt>
      <trkpt lat="45.1945" lon="4.3835">
        <ele>864</ele>
        <time>2022-02-07T22:00:43Z</time>
      </trkpt>
      <trkpt lat="45.19397" lon="4.38338">
        <ele>859</ele>
        <time>2022-02-07T22:00:53Z</time>
      </trkpt>
      <trkpt lat="45.19314" lon="4.38295">
        <ele>867</ele>
        <time>2022-02-07T22:01:09Z</time>
      </trkpt>
      <trkpt lat="45.19271" lon="4.38282">
        <ele>868</ele>
        <time>2022-02-07T22:01:16Z</time>
      </trkpt>
      <trkpt lat="45.19219" lon="4.38293">
        <ele>863</ele>
        <time>2022-02-07T22:01:26Z</time>
      </trkpt>
      <trkpt lat="45.19155" lon="4.38313">
        <ele>856</ele>
        <time>2022-02-07T22:01:37Z</time>
      </trkpt>
      <trkpt lat="45.19132" lon="4.38313">
        <ele>855</ele>
        <time>2022-02-07T22:01:41Z</time>
      </trkpt>
      <trkpt lat="45.19118" lon="4.38303">
        <ele>855</ele>
        <time>2022-02-07T22:01:44Z</time>
      </trkpt>
      <trkpt lat="45.19101" lon="4.38296">
        <ele>855</ele>
        <time>2022-02-07T22:01:47Z</time>
      </trkpt>
      <trkpt lat="45.19078" lon="4.383">
        <ele>853</ele>
        <time>2022-02-07T22:01:52Z</time>
      </trkpt>
      <trkpt lat="45.19052" lon="4.38306">
        <ele>854</ele>
        <time>2022-02-07T22:01:56Z</time>
      </trkpt>
      <trkpt lat="45.19021" lon="4.38315">
        <ele>855</ele>
        <time>2022-02-07T22:02:02Z</time>
      </trkpt>
      <trkpt lat="45.19003" lon="4.38324">
        <ele>856</ele>
        <time>2022-02-07T22:02:05Z</time>
      </trkpt>
      <trkpt lat="45.18988" lon="4.38338">
        <ele>858</ele>
        <time>2022-02-07T22:02:08Z</time>
      </trkpt>
      <trkpt lat="45.1895" lon="4.38387">
        <ele>862</ele>
        <time>2022-02-07T22:02:18Z</time>
      </trkpt>
      <trkpt lat="45.18916" lon="4.38422">
        <ele>859</ele>
        <time>2022-02-07T22:02:25Z</time>
      </trkpt>
      <trkpt lat="45.18744" lon="4.38576">
        <ele>877</ele>
        <time>2022-02-07T22:03:01Z</time>
      </trkpt>
      <trkpt lat="45.18622" lon="4.38578">
        <ele>874</ele>
        <time>2022-02-07T22:03:23Z</time>
      </trkpt>
      <trkpt lat="45.18591" lon="4.38618">
        <ele>874</ele>
        <time>2022-02-07T22:03:30Z</time>
      </trkpt>
      <trkpt lat="45.18564" lon="4.3869">
        <ele>877</ele>
        <time>2022-02-07T22:03:41Z</time>
      </trkpt>
      <trkpt lat="45.18514" lon="4.38828">
        <ele>878</ele>
        <time>2022-02-07T22:04:00Z</time>
      </trkpt>
      <trkpt lat="45.1849" lon="4.38866">
        <ele>879</ele>
        <time>2022-02-07T22:04:07Z</time>
      </trkpt>
      <trkpt lat="45.18444" lon="4.38902">
        <ele>878</ele>
        <time>2022-02-07T22:04:16Z</time>
      </trkpt>
      <trkpt lat="45.18389" lon="4.38923">
        <ele>875</ele>
        <time>2022-02-07T22:04:26Z</time>
      </trkpt>
      <trkpt lat="45.18308" lon="4.38924">
        <ele>875</ele>
        <time>2022-02-07T22:04:40Z</time>
      </trkpt>
      <trkpt lat="45.1827" lon="4.38918">
        <ele>876</ele>
        <time>2022-02-07T22:04:47Z</time>
      </trkpt>
      <trkpt lat="45.18213" lon="4.38885">
        <ele>877</ele>
        <time>2022-02-07T22:04:58Z</time>
      </trkpt>
      <trkpt lat="45.18189" lon="4.3886">
        <ele>875</ele>
        <time>2022-02-07T22:05:03Z</time>
      </trkpt>
      <trkpt lat="45.18175" lon="4.38854">
        <ele>875</ele>
        <time>2022-02-07T22:05:06Z</time>
      </trkpt>
      <trkpt lat="45.18166" lon="4.38856">
        <ele>875</ele>
        <time>2022-02-07T22:05:08Z</time>
      </trkpt>
      <trkpt lat="45.18154" lon="4.38871">
        <ele>878</ele>
        <time>2022-02-07T22:05:11Z</time>
      </trkpt>
      <trkpt lat="45.18141" lon="4.389">
        <ele>880</ele>
        <time>2022-02-07T22:05:15Z</time>
      </trkpt>
      <trkpt lat="45.18043" lon="4.39042">
        <ele>887</ele>
        <time>2022-02-07T22:05:40Z</time>
      </trkpt>
      <trkpt lat="45.18035" lon="4.3906">
        <ele>886</ele>
        <time>2022-02-07T22:05:42Z</time>
      </trkpt>
      <trkpt lat="45.18038" lon="4.39083">
        <ele>888</ele>
        <time>2022-02-07T22:05:45Z</time>
      </trkpt>
      <trkpt lat="45.18046" lon="4.39116">
        <ele>890</ele>
        <time>2022-02-07T22:05:50Z</time>
      </trkpt>
      <trkpt lat="45.18045" lon="4.39156">
        <ele>891</ele>
        <time>2022-02-07T22:05:55Z</time>
      </trkpt>
      <trkpt lat="45.18039" lon="4.39207">
        <ele>892</ele>
        <time>2022-02-07T22:06:01Z</time>
      </trkpt>
      <trkpt lat="45.18027" lon="4.39258">
        <ele>890</ele>
        <time>2022-02-07T22:06:08Z</time>
      </trkpt>
      <trkpt lat="45.18016" lon="4.39324">
        <ele>890</ele>
        <time>2022-02-07T22:06:16Z</time>
      </trkpt>
      <trkpt lat="45.18001" lon="4.39378">
        <ele>887</ele>
        <time>2022-02-07T22:06:24Z</time>
      </trkpt>
      <trkpt lat="45.17993" lon="4.39403">
        <ele>887</ele>
        <time>2022-02-07T22:06:27Z</time>
      </trkpt>
      <trkpt lat="45.17863" lon="4.39702">
        <ele>895</ele>
        <time>2022-02-07T22:07:11Z</time>
      </trkpt>
      <trkpt lat="45.17805" lon="4.39884">
        <ele>897</ele>
        <time>2022-02-07T22:07:36Z</time>
      </trkpt>
      <trkpt lat="45.17772" lon="4.40001">
        <ele>900</ele>
        <time>2022-02-07T22:07:52Z</time>
      </trkpt>
      <trkpt lat="45.17744" lon="4.40066">
        <ele>899</ele>
        <time>2022-02-07T22:08:02Z</time>
      </trkpt>
      <trkpt lat="45.17712" lon="4.40193">
        <ele>905</ele>
        <time>2022-02-07T22:08:19Z</time>
      </trkpt>
      <trkpt lat="45.17698" lon="4.40446">
        <ele>899</ele>
        <time>2022-02-07T22:08:50Z</time>
      </trkpt>
      <trkpt lat="45.17703" lon="4.40506">
        <ele>903</ele>
        <time>2022-02-07T22:08:58Z</time>
      </trkpt>
      <trkpt lat="45.17698" lon="4.40519">
        <ele>903</ele>
        <time>2022-02-07T22:09:00Z</time>
      </trkpt>
      <trkpt lat="45.17693" lon="4.40525">
        <ele>902</ele>
        <time>2022-02-07T22:09:01Z</time>
      </trkpt>
      <trkpt lat="45.17678" lon="4.40542">
        <ele>901</ele>
        <time>2022-02-07T22:09:04Z</time>
      </trkpt>
      <trkpt lat="45.17664" lon="4.40551">
        <ele>901</ele>
        <time>2022-02-07T22:09:07Z</time>
      </trkpt>
      <trkpt lat="45.1765" lon="4.40552">
        <ele>901</ele>
        <time>2022-02-07T22:09:10Z</time>
      </trkpt>
      <trkpt lat="45.17615" lon="4.40537">
        <ele>900</ele>
        <time>2022-02-07T22:09:16Z</time>
      </trkpt>
      <trkpt lat="45.17601" lon="4.40539">
        <ele>900</ele>
        <time>2022-02-07T22:09:19Z</time>
      </trkpt>
      <trkpt lat="45.17513" lon="4.40589">
        <ele>907</ele>
        <time>2022-02-07T22:09:36Z</time>
      </trkpt>
      <trkpt lat="45.17412" lon="4.40668">
        <ele>910</ele>
        <time>2022-02-07T22:09:56Z</time>
      </trkpt>
      <trkpt lat="45.17331" lon="4.40777">
        <ele>917</ele>
        <time>2022-02-07T22:10:16Z</time>
      </trkpt>
      <trkpt lat="45.17288" lon="4.40845">
        <ele>923</ele>
        <time>2022-02-07T22:10:27Z</time>
      </trkpt>
      <trkpt lat="45.17235" lon="4.40918">
        <ele>926</ele>
        <time>2022-02-07T22:10:41Z</time>
      </trkpt>
      <trkpt lat="45.17213" lon="4.40991">
        <ele>931</ele>
        <time>2022-02-07T22:10:51Z</time>
      </trkpt>
      <trkpt lat="45.17208" lon="4.41009">
        <ele>931</ele>
        <time>2022-02-07T22:10:53Z</time>
      </trkpt>
      <trkpt lat="45.172" lon="4.41037">
        <ele>932</ele>
        <time>2022-02-07T22:10:57Z</time>
      </trkpt>
      <trkpt lat="45.17162" lon="4.41179">
        <ele>934</ele>
        <time>2022-02-07T22:11:16Z</time>
      </trkpt>
      <trkpt lat="45.17122" lon="4.413">
        <ele>939</ele>
        <time>2022-02-07T22:11:33Z</time>
      </trkpt>
      <trkpt lat="45.17088" lon="4.4138">
        <ele>939</ele>
        <time>2022-02-07T22:11:44Z</time>
      </trkpt>
      <trkpt lat="45.17049" lon="4.4143">
        <ele>939</ele>
        <time>2022-02-07T22:11:54Z</time>
      </trkpt>
      <trkpt lat="45.16983" lon="4.41498">
        <ele>944</ele>
        <time>2022-02-07T22:12:08Z</time>
      </trkpt>
      <trkpt lat="45.1684" lon="4.41575">
        <ele>942</ele>
        <time>2022-02-07T22:12:35Z</time>
      </trkpt>
      <trkpt lat="45.1672" lon="4.41654">
        <ele>947</ele>
        <time>2022-02-07T22:12:59Z</time>
      </trkpt>
      <trkpt lat="45.16656" lon="4.41691">
        <ele>951</ele>
        <time>2022-02-07T22:13:11Z</time>
      </trkpt>
      <trkpt lat="45.16569" lon="4.4172">
        <ele>946</ele>
        <time>2022-02-07T22:13:27Z</time>
      </trkpt>
      <trkpt lat="45.16554" lon="4.41738">
        <ele>947</ele>
        <time>2022-02-07T22:13:31Z</time>
      </trkpt>
      <trkpt lat="45.16546" lon="4.41777">
        <ele>950</ele>
        <time>2022-02-07T22:13:36Z</time>
      </trkpt>
      <trkpt lat="45.16545" lon="4.41849">
        <ele>957</ele>
        <time>2022-02-07T22:13:45Z</time>
      </trkpt>
      <trkpt lat="45.16542" lon="4.41906">
        <ele>959</ele>
        <time>2022-02-07T22:13:52Z</time>
      </trkpt>
      <trkpt lat="45.16535" lon="4.41927">
        <ele>958</ele>
        <time>2022-02-07T22:13:55Z</time>
      </trkpt>
      <trkpt lat="45.16516" lon="4.41937">
        <ele>954</ele>
        <time>2022-02-07T22:13:58Z</time>
      </trkpt>
      <trkpt lat="45.16502" lon="4.41935">
        <ele>951</ele>
        <time>2022-02-07T22:14:01Z</time>
      </trkpt>
      <trkpt lat="45.16491" lon="4.41925">
        <ele>950</ele>
        <time>2022-02-07T22:14:03Z</time>
      </trkpt>
      <trkpt lat="45.16481" lon="4.41911">
        <ele>951</ele>
        <time>2022-02-07T22:14:06Z</time>
      </trkpt>
      <trkpt lat="45.16475" lon="4.4188">
        <ele>952</ele>
        <time>2022-02-07T22:14:10Z</time>
      </trkpt>
      <trkpt lat="45.16475" lon="4.41845">
        <ele>952</ele>
        <time>2022-02-07T22:14:14Z</time>
      </trkpt>
      <trkpt lat="45.16469" lon="4.41816">
        <ele>952</ele>
        <time>2022-02-07T22:14:18Z</time>
      </trkpt>
      <trkpt lat="45.1646" lon="4.41754">
        <ele>952</ele>
        <time>2022-02-07T22:14:26Z</time>
      </trkpt>
      <trkpt lat="45.16447" lon="4.41707">
        <ele>950</ele>
        <time>2022-02-07T22:14:32Z</time>
      </trkpt>
      <trkpt lat="45.1641" lon="4.41677">
        <ele>953</ele>
        <time>2022-02-07T22:14:40Z</time>
      </trkpt>
      <trkpt lat="45.16366" lon="4.41659">
        <ele>955</ele>
        <time>2022-02-07T22:14:48Z</time>
      </trkpt>
      <trkpt lat="45.16309" lon="4.41665">
        <ele>960</ele>
        <time>2022-02-07T22:14:58Z</time>
      </trkpt>
      <trkpt lat="45.16128" lon="4.41759">
        <ele>976</ele>
        <time>2022-02-07T22:15:32Z</time>
      </trkpt>
      <trkpt lat="45.16084" lon="4.4178">
        <ele>974</ele>
        <time>2022-02-07T22:15:41Z</time>
      </trkpt>
      <trkpt lat="45.15967" lon="4.41858">
        <ele>979</ele>
        <time>2022-02-07T22:16:04Z</time>
      </trkpt>
      <trkpt lat="45.15839" lon="4.41969">
        <ele>990</ele>
        <time>2022-02-07T22:16:30Z</time>
      </trkpt>
      <trkpt lat="45.15817" lon="4.41998">
        <ele>992</ele>
        <time>2022-02-07T22:16:36Z</time>
      </trkpt>
      <trkpt lat="45.15796" lon="4.42037">
        <ele>993</ele>
        <time>2022-02-07T22:16:42Z</time>
      </trkpt>
      <trkpt lat="45.15779" lon="4.42127">
        <ele>1001</ele>
        <time>2022-02-07T22:16:54Z</time>
      </trkpt>
      <trkpt lat="45.15761" lon="4.42201">
        <ele>1003</ele>
        <time>2022-02-07T22:17:03Z</time>
      </trkpt>
      <trkpt lat="45.15744" lon="4.42282">
        <ele>1005</ele>
        <time>2022-02-07T22:17:14Z</time>
      </trkpt>
      <trkpt lat="45.1574" lon="4.4233">
        <ele>1009</ele>
        <time>2022-02-07T22:17:20Z</time>
      </trkpt>
      <trkpt lat="45.15741" lon="4.4239">
        <ele>1014</ele>
        <time>2022-02-07T22:17:28Z</time>
      </trkpt>
      <trkpt lat="45.1574" lon="4.42417">
        <ele>1017</ele>
        <time>2022-02-07T22:17:31Z</time>
      </trkpt>
      <trkpt lat="45.15732" lon="4.42434">
        <ele>1018</ele>
        <time>2022-02-07T22:17:34Z</time>
      </trkpt>
      <trkpt lat="45.15721" lon="4.42439">
        <ele>1018</ele>
        <time>2022-02-07T22:17:36Z</time>
      </trkpt>
      <trkpt lat="45.15703" lon="4.42435">
        <ele>1015</ele>
        <time>2022-02-07T22:17:39Z</time>
      </trkpt>
      <trkpt lat="45.15687" lon="4.42415">
        <ele>1010</ele>
        <time>2022-02-07T22:17:43Z</time>
      </trkpt>
      <trkpt lat="45.15682" lon="4.4241">
        <ele>1009</ele>
        <time>2022-02-07T22:17:44Z</time>
      </trkpt>
      <trkpt lat="45.15664" lon="4.42377">
        <ele>1002</ele>
        <time>2022-02-07T22:17:49Z</time>
      </trkpt>
      <trkpt lat="45.15651" lon="4.42363">
        <ele>999</ele>
        <time>2022-02-07T22:17:52Z</time>
      </trkpt>
      <trkpt lat="45.15624" lon="4.4236">
        <ele>996</ele>
        <time>2022-02-07T22:17:57Z</time>
      </trkpt>
      <trkpt lat="45.15591" lon="4.42377">
        <ele>998</ele>
        <time>2022-02-07T22:18:03Z</time>
      </trkpt>
      <trkpt lat="45.15575" lon="4.42392">
        <ele>1001</ele>
        <time>2022-02-07T22:18:06Z</time>
      </trkpt>
      <trkpt lat="45.1555" lon="4.42423">
        <ele>1003</ele>
        <time>2022-02-07T22:18:12Z</time>
      </trkpt>
      <trkpt lat="45.15462" lon="4.4251">
        <ele>1008</ele>
        <time>2022-02-07T22:18:31Z</time>
      </trkpt>
      <trkpt lat="45.15369" lon="4.42616">
        <ele>1010</ele>
        <time>2022-02-07T22:18:53Z</time>
      </trkpt>
      <trkpt lat="45.1536" lon="4.42658">
        <ele>1018</ele>
        <time>2022-02-07T22:18:58Z</time>
      </trkpt>
      <trkpt lat="45.15353" lon="4.42671">
        <ele>1019</ele>
        <time>2022-02-07T22:19:00Z</time>
      </trkpt>
      <trkpt lat="45.15342" lon="4.42681">
        <ele>1020</ele>
        <time>2022-02-07T22:19:02Z</time>
      </trkpt>
      <trkpt lat="45.15325" lon="4.42675">
        <ele>1019</ele>
        <time>2022-02-07T22:19:06Z</time>
      </trkpt>
      <trkpt lat="45.15297" lon="4.42626">
        <ele>1012</ele>
        <time>2022-02-07T22:19:13Z</time>
      </trkpt>
      <trkpt lat="45.15215" lon="4.42599">
        <ele>1012</ele>
        <time>2022-02-07T22:19:28Z</time>
      </trkpt>
      <trkpt lat="45.15168" lon="4.42599">
        <ele>1010</ele>
        <time>2022-02-07T22:19:37Z</time>
      </trkpt>
      <trkpt lat="45.15075" lon="4.42658">
        <ele>1021</ele>
        <time>2022-02-07T22:19:55Z</time>
      </trkpt>
      <trkpt lat="45.15019" lon="4.42684">
        <ele>1026</ele>
        <time>2022-02-07T22:20:05Z</time>
      </trkpt>
      <trkpt lat="45.14968" lon="4.42691">
        <ele>1025</ele>
        <time>2022-02-07T22:20:15Z</time>
      </trkpt>
      <trkpt lat="45.14911" lon="4.42702">
        <ele>1024</ele>
        <time>2022-02-07T22:20:25Z</time>
      </trkpt>
      <trkpt lat="45.14887" lon="4.42714">
        <ele>1024</ele>
        <time>2022-02-07T22:20:29Z</time>
      </trkpt>
      <trkpt lat="45.14849" lon="4.42752">
        <ele>1021</ele>
        <time>2022-02-07T22:20:38Z</time>
      </trkpt>
      <trkpt lat="45.14832" lon="4.42785">
        <ele>1021</ele>
        <time>2022-02-07T22:20:43Z</time>
      </trkpt>
      <trkpt lat="45.14826" lon="4.42813">
        <ele>1023</ele>
        <time>2022-02-07T22:20:46Z</time>
      </trkpt>
      <trkpt lat="45.14824" lon="4.42845">
        <ele>1025</ele>
        <time>2022-02-07T22:20:50Z</time>
      </trkpt>
      <trkpt lat="45.14829" lon="4.42884">
        <ele>1027</ele>
        <time>2022-02-07T22:20:55Z</time>
      </trkpt>
      <trkpt lat="45.14836" lon="4.42915">
        <ele>1030</ele>
        <time>2022-02-07T22:20:59Z</time>
      </trkpt>
      <trkpt lat="45.1484" lon="4.4295">
        <ele>1034</ele>
        <time>2022-02-07T22:21:04Z</time>
      </trkpt>
      <trkpt lat="45.14837" lon="4.42998">
        <ele>1035</ele>
        <time>2022-02-07T22:21:10Z</time>
      </trkpt>
      <trkpt lat="45.14835" lon="4.43031">
        <ele>1034</ele>
        <time>2022-02-07T22:21:14Z</time>
      </trkpt>
      <trkpt lat="45.14835" lon="4.43059">
        <ele>1034</ele>
        <time>2022-02-07T22:21:18Z</time>
      </trkpt>
      <trkpt lat="45.14835" lon="4.43076">
        <ele>1034</ele>
        <time>2022-02-07T22:21:20Z</time>
      </trkpt>
      <trkpt lat="45.14839" lon="4.43121">
        <ele>1036</ele>
        <time>2022-02-07T22:21:25Z</time>
      </trkpt>
      <trkpt lat="45.14841" lon="4.43192">
        <ele>1036</ele>
        <time>2022-02-07T22:21:34Z</time>
      </trkpt>
      <trkpt lat="45.14846" lon="4.43223">
        <ele>1037</ele>
        <time>2022-02-07T22:21:38Z</time>
      </trkpt>
      <trkpt lat="45.14857" lon="4.4324">
        <ele>1039</ele>
        <time>2022-02-07T22:21:41Z</time>
      </trkpt>
      <trkpt lat="45.14907" lon="4.43287">
        <ele>1044</ele>
        <time>2022-02-07T22:21:52Z</time>
      </trkpt>
      <trkpt lat="45.14919" lon="4.43304">
        <ele>1044</ele>
        <time>2022-02-07T22:21:55Z</time>
      </trkpt>
      <trkpt lat="45.14948" lon="4.43385">
        <ele>1048</ele>
        <time>2022-02-07T22:22:06Z</time>
      </trkpt>
      <trkpt lat="45.1496" lon="4.43442">
        <ele>1049</ele>
        <time>2022-02-07T22:22:14Z</time>
      </trkpt>
      <trkpt lat="45.14975" lon="4.43481">
        <ele>1050</ele>
        <time>2022-02-07T22:22:19Z</time>
      </trkpt>
      <trkpt lat="45.1498" lon="4.43498">
        <ele>1050</ele>
        <time>2022-02-07T22:22:22Z</time>
      </trkpt>
      <trkpt lat="45.1498" lon="4.43514">
        <ele>1050</ele>
        <time>2022-02-07T22:22:24Z</time>
      </trkpt>
      <trkpt lat="45.14971" lon="4.4354">
        <ele>1051</ele>
        <time>2022-02-07T22:22:27Z</time>
      </trkpt>
      <trkpt lat="45.14966" lon="4.4357">
        <ele>1051</ele>
        <time>2022-02-07T22:22:31Z</time>
      </trkpt>
      <trkpt lat="45.14968" lon="4.43686">
        <ele>1051</ele>
        <time>2022-02-07T22:22:46Z</time>
      </trkpt>
      <trkpt lat="45.14961" lon="4.43738">
        <ele>1046</ele>
        <time>2022-02-07T22:22:52Z</time>
      </trkpt>
      <trkpt lat="45.14962" lon="4.43759">
        <ele>1045</ele>
        <time>2022-02-07T22:22:55Z</time>
      </trkpt>
      <trkpt lat="45.1499" lon="4.43801">
        <ele>1042</ele>
        <time>2022-02-07T22:23:02Z</time>
      </trkpt>
      <trkpt lat="45.14997" lon="4.43822">
        <ele>1041</ele>
        <time>2022-02-07T22:23:05Z</time>
      </trkpt>
      <trkpt lat="45.14996" lon="4.4384">
        <ele>1042</ele>
        <time>2022-02-07T22:23:08Z</time>
      </trkpt>
      <trkpt lat="45.14983" lon="4.43877">
        <ele>1044</ele>
        <time>2022-02-07T22:23:13Z</time>
      </trkpt>
      <trkpt lat="45.14971" lon="4.43887">
        <ele>1044</ele>
        <time>2022-02-07T22:23:15Z</time>
      </trkpt>
      <trkpt lat="45.14948" lon="4.43883">
        <ele>1045</ele>
        <time>2022-02-07T22:23:19Z</time>
      </trkpt>
      <trkpt lat="45.14921" lon="4.43854">
        <ele>1046</ele>
        <time>2022-02-07T22:23:25Z</time>
      </trkpt>
      <trkpt lat="45.149" lon="4.43813">
        <ele>1053</ele>
        <time>2022-02-07T22:23:32Z</time>
      </trkpt>
      <trkpt lat="45.14891" lon="4.43785">
        <ele>1057</ele>
        <time>2022-02-07T22:23:36Z</time>
      </trkpt>
      <trkpt lat="45.1487" lon="4.4366">
        <ele>1061</ele>
        <time>2022-02-07T22:23:52Z</time>
      </trkpt>
      <trkpt lat="45.14853" lon="4.43619">
        <ele>1061</ele>
        <time>2022-02-07T22:23:58Z</time>
      </trkpt>
      <trkpt lat="45.14839" lon="4.43598">
        <ele>1062</ele>
        <time>2022-02-07T22:24:01Z</time>
      </trkpt>
      <trkpt lat="45.1482" lon="4.43591">
        <ele>1063</ele>
        <time>2022-02-07T22:24:05Z</time>
      </trkpt>
      <trkpt lat="45.14767" lon="4.43604">
        <ele>1069</ele>
        <time>2022-02-07T22:24:14Z</time>
      </trkpt>
      <trkpt lat="45.14661" lon="4.43622">
        <ele>1079</ele>
        <time>2022-02-07T22:24:33Z</time>
      </trkpt>
      <trkpt lat="45.14642" lon="4.43619">
        <ele>1081</ele>
        <time>2022-02-07T22:24:37Z</time>
      </trkpt>
      <trkpt lat="45.14633" lon="4.43607">
        <ele>1081</ele>
        <time>2022-02-07T22:24:39Z</time>
      </trkpt>
      <trkpt lat="45.14631" lon="4.43594">
        <ele>1081</ele>
        <time>2022-02-07T22:24:41Z</time>
      </trkpt>
      <trkpt lat="45.14638" lon="4.43569">
        <ele>1081</ele>
        <time>2022-02-07T22:24:44Z</time>
      </trkpt>
      <trkpt lat="45.14663" lon="4.43517">
        <ele>1081</ele>
        <time>2022-02-07T22:24:52Z</time>
      </trkpt>
      <trkpt lat="45.14703" lon="4.43461">
        <ele>1079</ele>
        <time>2022-02-07T22:25:02Z</time>
      </trkpt>
      <trkpt lat="45.14712" lon="4.4344">
        <ele>1079</ele>
        <time>2022-02-07T22:25:05Z</time>
      </trkpt>
      <trkpt lat="45.14713" lon="4.43419">
        <ele>1081</ele>
        <time>2022-02-07T22:25:08Z</time>
      </trkpt>
      <trkpt lat="45.14699" lon="4.4338">
        <ele>1084</ele>
        <time>2022-02-07T22:25:13Z</time>
      </trkpt>
      <trkpt lat="45.14664" lon="4.43295">
        <ele>1091</ele>
        <time>2022-02-07T22:25:25Z</time>
      </trkpt>
      <trkpt lat="45.14647" lon="4.43273">
        <ele>1091</ele>
        <time>2022-02-07T22:25:30Z</time>
      </trkpt>
      <trkpt lat="45.14628" lon="4.4326">
        <ele>1091</ele>
        <time>2022-02-07T22:25:33Z</time>
      </trkpt>
      <trkpt lat="45.14609" lon="4.43259">
        <ele>1091</ele>
        <time>2022-02-07T22:25:37Z</time>
      </trkpt>
      <trkpt lat="45.14586" lon="4.43273">
        <ele>1093</ele>
        <time>2022-02-07T22:25:41Z</time>
      </trkpt>
      <trkpt lat="45.14521" lon="4.43322">
        <ele>1095</ele>
        <time>2022-02-07T22:25:54Z</time>
      </trkpt>
      <trkpt lat="45.14445" lon="4.43409">
        <ele>1103</ele>
        <time>2022-02-07T22:26:12Z</time>
      </trkpt>
      <trkpt lat="45.14422" lon="4.4343">
        <ele>1104</ele>
        <time>2022-02-07T22:26:16Z</time>
      </trkpt>
      <trkpt lat="45.14324" lon="4.43464">
        <ele>1109</ele>
        <time>2022-02-07T22:26:34Z</time>
      </trkpt>
      <trkpt lat="45.14302" lon="4.43477">
        <ele>1111</ele>
        <time>2022-02-07T22:26:39Z</time>
      </trkpt>
      <trkpt lat="45.14288" lon="4.43498">
        <ele>1114</ele>
        <time>2022-02-07T22:26:42Z</time>
      </trkpt>
      <trkpt lat="45.14275" lon="4.43553">
        <ele>1115</ele>
        <time>2022-02-07T22:26:50Z</time>
      </trkpt>
      <trkpt lat="45.14274" lon="4.43557">
        <ele>1115</ele>
        <time>2022-02-07T22:26:50Z</time>
      </trkpt>
      <trkpt lat="45.1427" lon="4.43571">
        <ele>1115</ele>
        <time>2022-02-07T22:26:52Z</time>
      </trkpt>
      <trkpt lat="45.14249" lon="4.43595">
        <ele>1116</ele>
        <time>2022-02-07T22:26:57Z</time>
      </trkpt>
      <trkpt lat="45.14245" lon="4.43599">
        <ele>1115</ele>
        <time>2022-02-07T22:26:58Z</time>
      </trkpt>
      <trkpt lat="45.14243" lon="4.43602">
        <ele>1115</ele>
        <time>2022-02-07T22:26:58Z</time>
      </trkpt>
      <trkpt lat="45.14263" lon="4.43619">
        <ele>1115</ele>
        <time>2022-02-07T22:27:02Z</time>
      </trkpt>
      <trkpt lat="45.14274" lon="4.43648">
        <ele>1114</ele>
        <time>2022-02-07T22:27:06Z</time>
      </trkpt>
      <trkpt lat="45.14289" lon="4.43648">
        <ele>1114</ele>
        <time>2022-02-07T22:27:09Z</time>
      </trkpt>
      <trkpt lat="45.14319" lon="4.43664">
        <ele>1114</ele>
        <time>2022-02-07T22:27:15Z</time>
      </trkpt>
      <trkpt lat="45.14338" lon="4.43669">
        <ele>1114</ele>
        <time>2022-02-07T22:27:18Z</time>
      </trkpt>
      <trkpt lat="45.14369" lon="4.43673">
        <ele>1111</ele>
        <time>2022-02-07T22:27:24Z</time>
      </trkpt>
      <trkpt lat="45.14388" lon="4.43679">
        <ele>1110</ele>
        <time>2022-02-07T22:27:27Z</time>
      </trkpt>
      <trkpt lat="45.14399" lon="4.43689">
        <ele>1110</ele>
        <time>2022-02-07T22:27:30Z</time>
      </trkpt>
      <trkpt lat="45.14487" lon="4.43778">
        <ele>1106</ele>
        <time>2022-02-07T22:27:49Z</time>
      </trkpt>
      <trkpt lat="45.14526" lon="4.43822">
        <ele>1105</ele>
        <time>2022-02-07T22:27:58Z</time>
      </trkpt>
      <trkpt lat="45.1455" lon="4.43838">
        <ele>1104</ele>
        <time>2022-02-07T22:28:02Z</time>
      </trkpt>
      <trkpt lat="45.14609" lon="4.43867">
        <ele>1102</ele>
        <time>2022-02-07T22:28:14Z</time>
      </trkpt>
      <trkpt lat="45.14628" lon="4.43881">
        <ele>1101</ele>
        <time>2022-02-07T22:28:17Z</time>
      </trkpt>
      <trkpt lat="45.14648" lon="4.43904">
        <ele>1100</ele>
        <time>2022-02-07T22:28:22Z</time>
      </trkpt>
      <trkpt lat="45.14665" lon="4.43933">
        <ele>1099</ele>
        <time>2022-02-07T22:28:27Z</time>
      </trkpt>
      <trkpt lat="45.14678" lon="4.43971">
        <ele>1099</ele>
        <time>2022-02-07T22:28:32Z</time>
      </trkpt>
      <trkpt lat="45.14686" lon="4.44031">
        <ele>1099</ele>
        <time>2022-02-07T22:28:40Z</time>
      </trkpt>
      <trkpt lat="45.14692" lon="4.44056">
        <ele>1098</ele>
        <time>2022-02-07T22:28:43Z</time>
      </trkpt>
      <trkpt lat="45.14705" lon="4.44079">
        <ele>1096</ele>
        <time>2022-02-07T22:28:47Z</time>
      </trkpt>
      <trkpt lat="45.14753" lon="4.44132">
        <ele>1090</ele>
        <time>2022-02-07T22:28:57Z</time>
      </trkpt>
      <trkpt lat="45.14787" lon="4.44187">
        <ele>1089</ele>
        <time>2022-02-07T22:29:07Z</time>
      </trkpt>
      <trkpt lat="45.14824" lon="4.44258">
        <ele>1086</ele>
        <time>2022-02-07T22:29:18Z</time>
      </trkpt>
      <trkpt lat="45.14869" lon="4.4437">
        <ele>1087</ele>
        <time>2022-02-07T22:29:34Z</time>
      </trkpt>
      <trkpt lat="45.14888" lon="4.44405">
        <ele>1088</ele>
        <time>2022-02-07T22:29:39Z</time>
      </trkpt>
      <trkpt lat="45.14903" lon="4.44429">
        <ele>1088</ele>
        <time>2022-02-07T22:29:43Z</time>
      </trkpt>
      <trkpt lat="45.1492" lon="4.44444">
        <ele>1087</ele>
        <time>2022-02-07T22:29:47Z</time>
      </trkpt>
      <trkpt lat="45.14939" lon="4.44455">
        <ele>1088</ele>
        <time>2022-02-07T22:29:51Z</time>
      </trkpt>
      <trkpt lat="45.14969" lon="4.44463">
        <ele>1089</ele>
        <time>2022-02-07T22:29:56Z</time>
      </trkpt>
      <trkpt lat="45.15017" lon="4.44471">
        <ele>1093</ele>
        <time>2022-02-07T22:30:05Z</time>
      </trkpt>
      <trkpt lat="45.14969" lon="4.44463">
        <ele>1089</ele>
        <time>2022-02-07T22:30:13Z</time>
      </trkpt>
      <trkpt lat="45.14939" lon="4.44455">
        <ele>1088</ele>
        <time>2022-02-07T22:30:19Z</time>
      </trkpt>
      <trkpt lat="45.1492" lon="4.44444">
        <ele>1087</ele>
        <time>2022-02-07T22:30:22Z</time>
      </trkpt>
      <trkpt lat="45.14903" lon="4.44429">
        <ele>1088</ele>
        <time>2022-02-07T22:30:26Z</time>
      </trkpt>
      <trkpt lat="45.14888" lon="4.44405">
        <ele>1088</ele>
        <time>2022-02-07T22:30:30Z</time>
      </trkpt>
      <trkpt lat="45.14869" lon="4.4437">
        <ele>1087</ele>
        <time>2022-02-07T22:30:36Z</time>
      </trkpt>
      <trkpt lat="45.14824" lon="4.44258">
        <ele>1086</ele>
        <time>2022-02-07T22:30:52Z</time>
      </trkpt>
      <trkpt lat="45.14787" lon="4.44187">
        <ele>1089</ele>
        <time>2022-02-07T22:31:03Z</time>
      </trkpt>
      <trkpt lat="45.14753" lon="4.44132">
        <ele>1090</ele>
        <time>2022-02-07T22:31:12Z</time>
      </trkpt>
      <trkpt lat="45.14705" lon="4.44079">
        <ele>1096</ele>
        <time>2022-02-07T22:31:23Z</time>
      </trkpt>
      <trkpt lat="45.14692" lon="4.44056">
        <ele>1098</ele>
        <time>2022-02-07T22:31:26Z</time>
      </trkpt>
      <trkpt lat="45.14686" lon="4.44031">
        <ele>1099</ele>
        <time>2022-02-07T22:31:30Z</time>
      </trkpt>
      <trkpt lat="45.14678" lon="4.43971">
        <ele>1099</ele>
        <time>2022-02-07T22:31:37Z</time>
      </trkpt>
      <trkpt lat="45.14665" lon="4.43933">
        <ele>1099</ele>
        <time>2022-02-07T22:31:43Z</time>
      </trkpt>
      <trkpt lat="45.14648" lon="4.43904">
        <ele>1100</ele>
        <time>2022-02-07T22:31:47Z</time>
      </trkpt>
      <trkpt lat="45.14628" lon="4.43881">
        <ele>1101</ele>
        <time>2022-02-07T22:31:52Z</time>
      </trkpt>
      <trkpt lat="45.14609" lon="4.43867">
        <ele>1102</ele>
        <time>2022-02-07T22:31:56Z</time>
      </trkpt>
      <trkpt lat="45.1455" lon="4.43838">
        <ele>1104</ele>
        <time>2022-02-07T22:32:07Z</time>
      </trkpt>
      <trkpt lat="45.14526" lon="4.43822">
        <ele>1105</ele>
        <time>2022-02-07T22:32:12Z</time>
      </trkpt>
      <trkpt lat="45.14487" lon="4.43778">
        <ele>1106</ele>
        <time>2022-02-07T22:32:21Z</time>
      </trkpt>
      <trkpt lat="45.14399" lon="4.43689">
        <ele>1110</ele>
        <time>2022-02-07T22:32:40Z</time>
      </trkpt>
      <trkpt lat="45.14388" lon="4.43679">
        <ele>1110</ele>
        <time>2022-02-07T22:32:42Z</time>
      </trkpt>
      <trkpt lat="45.14369" lon="4.43673">
        <ele>1111</ele>
        <time>2022-02-07T22:32:46Z</time>
      </trkpt>
      <trkpt lat="45.14338" lon="4.43669">
        <ele>1114</ele>
        <time>2022-02-07T22:32:51Z</time>
      </trkpt>
      <trkpt lat="45.14319" lon="4.43664">
        <ele>1114</ele>
        <time>2022-02-07T22:32:55Z</time>
      </trkpt>
      <trkpt lat="45.14289" lon="4.43648">
        <ele>1114</ele>
        <time>2022-02-07T22:33:00Z</time>
      </trkpt>
      <trkpt lat="45.14274" lon="4.43648">
        <ele>1114</ele>
        <time>2022-02-07T22:33:03Z</time>
      </trkpt>
      <trkpt lat="45.143" lon="4.43719">
        <ele>1110</ele>
        <time>2022-02-07T22:33:13Z</time>
      </trkpt>
      <trkpt lat="45.14307" lon="4.43747">
        <ele>1109</ele>
        <time>2022-02-07T22:33:17Z</time>
      </trkpt>
      <trkpt lat="45.14325" lon="4.43888">
        <ele>1101</ele>
        <time>2022-02-07T22:33:35Z</time>
      </trkpt>
      <trkpt lat="45.14327" lon="4.4393">
        <ele>1100</ele>
        <time>2022-02-07T22:33:40Z</time>
      </trkpt>
      <trkpt lat="45.14309" lon="4.44014">
        <ele>1097</ele>
        <time>2022-02-07T22:33:51Z</time>
      </trkpt>
      <trkpt lat="45.14305" lon="4.44059">
        <ele>1097</ele>
        <time>2022-02-07T22:33:57Z</time>
      </trkpt>
      <trkpt lat="45.14299" lon="4.44155">
        <ele>1102</ele>
        <time>2022-02-07T22:34:09Z</time>
      </trkpt>
      <trkpt lat="45.14288" lon="4.4419">
        <ele>1101</ele>
        <time>2022-02-07T22:34:14Z</time>
      </trkpt>
      <trkpt lat="45.14269" lon="4.4423">
        <ele>1099</ele>
        <time>2022-02-07T22:34:20Z</time>
      </trkpt>
      <trkpt lat="45.14249" lon="4.44255">
        <ele>1096</ele>
        <time>2022-02-07T22:34:24Z</time>
      </trkpt>
      <trkpt lat="45.14235" lon="4.44267">
        <ele>1096</ele>
        <time>2022-02-07T22:34:27Z</time>
      </trkpt>
      <trkpt lat="45.14226" lon="4.4427">
        <ele>1096</ele>
        <time>2022-02-07T22:34:29Z</time>
      </trkpt>
      <trkpt lat="45.14214" lon="4.44269">
        <ele>1095</ele>
        <time>2022-02-07T22:34:31Z</time>
      </trkpt>
      <trkpt lat="45.14199" lon="4.44263">
        <ele>1093</ele>
        <time>2022-02-07T22:34:34Z</time>
      </trkpt>
      <trkpt lat="45.14147" lon="4.44232">
        <ele>1085</ele>
        <time>2022-02-07T22:34:44Z</time>
      </trkpt>
      <trkpt lat="45.14133" lon="4.44225">
        <ele>1083</ele>
        <time>2022-02-07T22:34:47Z</time>
      </trkpt>
      <trkpt lat="45.14116" lon="4.44221">
        <ele>1081</ele>
        <time>2022-02-07T22:34:50Z</time>
      </trkpt>
      <trkpt lat="45.1409" lon="4.44225">
        <ele>1081</ele>
        <time>2022-02-07T22:34:54Z</time>
      </trkpt>
      <trkpt lat="45.14073" lon="4.44232">
        <ele>1080</ele>
        <time>2022-02-07T22:34:57Z</time>
      </trkpt>
      <trkpt lat="45.14066" lon="4.4424">
        <ele>1080</ele>
        <time>2022-02-07T22:34:59Z</time>
      </trkpt>
      <trkpt lat="45.1406" lon="4.4426">
        <ele>1080</ele>
        <time>2022-02-07T22:35:02Z</time>
      </trkpt>
      <trkpt lat="45.14056" lon="4.44278">
        <ele>1079</ele>
        <time>2022-02-07T22:35:04Z</time>
      </trkpt>
      <trkpt lat="45.14057" lon="4.44299">
        <ele>1079</ele>
        <time>2022-02-07T22:35:07Z</time>
      </trkpt>
      <trkpt lat="45.14068" lon="4.44336">
        <ele>1082</ele>
        <time>2022-02-07T22:35:12Z</time>
      </trkpt>
      <trkpt lat="45.1415" lon="4.44491">
        <ele>1078</ele>
        <time>2022-02-07T22:35:36Z</time>
      </trkpt>
      <trkpt lat="45.14161" lon="4.44528">
        <ele>1078</ele>
        <time>2022-02-07T22:35:41Z</time>
      </trkpt>
      <trkpt lat="45.14165" lon="4.44594">
        <ele>1075</ele>
        <time>2022-02-07T22:35:49Z</time>
      </trkpt>
      <trkpt lat="45.14135" lon="4.44618">
        <ele>1075</ele>
        <time>2022-02-07T22:35:56Z</time>
      </trkpt>
      <trkpt lat="45.14119" lon="4.44628">
        <ele>1075</ele>
        <time>2022-02-07T22:35:59Z</time>
      </trkpt>
      <trkpt lat="45.14074" lon="4.44646">
        <ele>1076</ele>
        <time>2022-02-07T22:36:07Z</time>
      </trkpt>
      <trkpt lat="45.14023" lon="4.44676">
        <ele>1073</ele>
        <time>2022-02-07T22:36:17Z</time>
      </trkpt>
      <trkpt lat="45.14013" lon="4.44686">
        <ele>1072</ele>
        <time>2022-02-07T22:36:19Z</time>
      </trkpt>
      <trkpt lat="45.13997" lon="4.4471">
        <ele>1072</ele>
        <time>2022-02-07T22:36:23Z</time>
      </trkpt>
      <trkpt lat="45.13989" lon="4.44732">
        <ele>1071</ele>
        <time>2022-02-07T22:36:26Z</time>
      </trkpt>
      <trkpt lat="45.13985" lon="4.44757">
        <ele>1071</ele>
        <time>2022-02-07T22:36:29Z</time>
      </trkpt>
      <trkpt lat="45.1398" lon="4.44776">
        <ele>1070</ele>
        <time>2022-02-07T22:36:32Z</time>
      </trkpt>
      <trkpt lat="45.13981" lon="4.44807">
        <ele>1069</ele>
        <time>2022-02-07T22:36:36Z</time>
      </trkpt>
      <trkpt lat="45.13986" lon="4.44845">
        <ele>1070</ele>
        <time>2022-02-07T22:36:41Z</time>
      </trkpt>
      <trkpt lat="45.13981" lon="4.44807">
        <ele>1069</ele>
        <time>2022-02-07T22:36:46Z</time>
      </trkpt>
      <trkpt lat="45.1398" lon="4.44776">
        <ele>1070</ele>
        <time>2022-02-07T22:36:50Z</time>
      </trkpt>
      <trkpt lat="45.13985" lon="4.44757">
        <ele>1071</ele>
        <time>2022-02-07T22:36:52Z</time>
      </trkpt>
      <trkpt lat="45.13987" lon="4.44788">
        <ele>1072</ele>
        <time>2022-02-07T22:36:56Z</time>
      </trkpt>
      <trkpt lat="45.1399" lon="4.44815">
        <ele>1073</ele>
        <time>2022-02-07T22:36:59Z</time>
      </trkpt>
      <trkpt lat="45.14003" lon="4.44879">
        <ele>1074</ele>
        <time>2022-02-07T22:37:08Z</time>
      </trkpt>
      <trkpt lat="45.14023" lon="4.44966">
        <ele>1073</ele>
        <time>2022-02-07T22:37:19Z</time>
      </trkpt>
      <trkpt lat="45.14067" lon="4.45169">
        <ele>1075</ele>
        <time>2022-02-07T22:37:46Z</time>
      </trkpt>
      <trkpt lat="45.14086" lon="4.45235">
        <ele>1080</ele>
        <time>2022-02-07T22:37:55Z</time>
      </trkpt>
      <trkpt lat="45.14101" lon="4.45274">
        <ele>1080</ele>
        <time>2022-02-07T22:38:00Z</time>
      </trkpt>
      <trkpt lat="45.14146" lon="4.45353">
        <ele>1078</ele>
        <time>2022-02-07T22:38:13Z</time>
      </trkpt>
      <trkpt lat="45.14161" lon="4.45392">
        <ele>1079</ele>
        <time>2022-02-07T22:38:19Z</time>
      </trkpt>
      <trkpt lat="45.142" lon="4.45544">
        <ele>1083</ele>
        <time>2022-02-07T22:38:39Z</time>
      </trkpt>
      <trkpt lat="45.14205" lon="4.45568">
        <ele>1083</ele>
        <time>2022-02-07T22:38:42Z</time>
      </trkpt>
      <trkpt lat="45.14207" lon="4.45592">
        <ele>1085</ele>
        <time>2022-02-07T22:38:45Z</time>
      </trkpt>
      <trkpt lat="45.14212" lon="4.45706">
        <ele>1090</ele>
        <time>2022-02-07T22:39:00Z</time>
      </trkpt>
      <trkpt lat="45.14219" lon="4.45757">
        <ele>1090</ele>
        <time>2022-02-07T22:39:06Z</time>
      </trkpt>
      <trkpt lat="45.14229" lon="4.45805">
        <ele>1092</ele>
        <time>2022-02-07T22:39:12Z</time>
      </trkpt>
      <trkpt lat="45.14238" lon="4.45835">
        <ele>1093</ele>
        <time>2022-02-07T22:39:16Z</time>
      </trkpt>
      <trkpt lat="45.14246" lon="4.45856">
        <ele>1093</ele>
        <time>2022-02-07T22:39:19Z</time>
      </trkpt>
      <trkpt lat="45.14317" lon="4.45978">
        <ele>1094</ele>
        <time>2022-02-07T22:39:39Z</time>
      </trkpt>
      <trkpt lat="45.14342" lon="4.46049">
        <ele>1095</ele>
        <time>2022-02-07T22:39:49Z</time>
      </trkpt>
      <trkpt lat="45.14367" lon="4.46136">
        <ele>1097</ele>
        <time>2022-02-07T22:40:01Z</time>
      </trkpt>
      <trkpt lat="45.14373" lon="4.46166">
        <ele>1097</ele>
        <time>2022-02-07T22:40:05Z</time>
      </trkpt>
      <trkpt lat="45.14381" lon="4.46268">
        <ele>1098</ele>
        <time>2022-02-07T22:40:18Z</time>
      </trkpt>
      <trkpt lat="45.14382" lon="4.46299">
        <ele>1099</ele>
        <time>2022-02-07T22:40:22Z</time>
      </trkpt>
      <trkpt lat="45.1438" lon="4.46335">
        <ele>1098</ele>
        <time>2022-02-07T22:40:26Z</time>
      </trkpt>
      <trkpt lat="45.14361" lon="4.46517">
        <ele>1101</ele>
        <time>2022-02-07T22:40:49Z</time>
      </trkpt>
      <trkpt lat="45.1433" lon="4.46727">
        <ele>1104</ele>
        <time>2022-02-07T22:41:16Z</time>
      </trkpt>
      <trkpt lat="45.14317" lon="4.46785">
        <ele>1106</ele>
        <time>2022-02-07T22:41:24Z</time>
      </trkpt>
      <trkpt lat="45.14286" lon="4.46853">
        <ele>1101</ele>
        <time>2022-02-07T22:41:34Z</time>
      </trkpt>
      <trkpt lat="45.1428" lon="4.46876">
        <ele>1099</ele>
        <time>2022-02-07T22:41:37Z</time>
      </trkpt>
      <trkpt lat="45.14278" lon="4.46913">
        <ele>1099</ele>
        <time>2022-02-07T22:41:42Z</time>
      </trkpt>
      <trkpt lat="45.1428" lon="4.46931">
        <ele>1098</ele>
        <time>2022-02-07T22:41:44Z</time>
      </trkpt>
      <trkpt lat="45.14286" lon="4.4695">
        <ele>1098</ele>
        <time>2022-02-07T22:41:47Z</time>
      </trkpt>
      <trkpt lat="45.14306" lon="4.46986">
        <ele>1103</ele>
        <time>2022-02-07T22:41:52Z</time>
      </trkpt>
      <trkpt lat="45.14312" lon="4.47">
        <ele>1104</ele>
        <time>2022-02-07T22:41:54Z</time>
      </trkpt>
      <trkpt lat="45.14317" lon="4.47016">
        <ele>1105</ele>
        <time>2022-02-07T22:41:57Z</time>
      </trkpt>
      <trkpt lat="45.14319" lon="4.47056">
        <ele>1102</ele>
        <time>2022-02-07T22:42:02Z</time>
      </trkpt>
      <trkpt lat="45.14312" lon="4.47107">
        <ele>1097</ele>
        <time>2022-02-07T22:42:08Z</time>
      </trkpt>
      <trkpt lat="45.14301" lon="4.47147">
        <ele>1095</ele>
        <time>2022-02-07T22:42:14Z</time>
      </trkpt>
      <trkpt lat="45.14294" lon="4.47165">
        <ele>1095</ele>
        <time>2022-02-07T22:42:16Z</time>
      </trkpt>
      <trkpt lat="45.14278" lon="4.47194">
        <ele>1096</ele>
        <time>2022-02-07T22:42:21Z</time>
      </trkpt>
      <trkpt lat="45.14265" lon="4.4721">
        <ele>1096</ele>
        <time>2022-02-07T22:42:24Z</time>
      </trkpt>
      <trkpt lat="45.1416" lon="4.47309">
        <ele>1093</ele>
        <time>2022-02-07T22:42:46Z</time>
      </trkpt>
      <trkpt lat="45.14151" lon="4.47322">
        <ele>1093</ele>
        <time>2022-02-07T22:42:49Z</time>
      </trkpt>
      <trkpt lat="45.14145" lon="4.47337">
        <ele>1093</ele>
        <time>2022-02-07T22:42:51Z</time>
      </trkpt>
      <trkpt lat="45.14133" lon="4.47428">
        <ele>1090</ele>
        <time>2022-02-07T22:43:02Z</time>
      </trkpt>
      <trkpt lat="45.14128" lon="4.47453">
        <ele>1091</ele>
        <time>2022-02-07T22:43:06Z</time>
      </trkpt>
      <trkpt lat="45.14097" lon="4.47541">
        <ele>1093</ele>
        <time>2022-02-07T22:43:18Z</time>
      </trkpt>
      <trkpt lat="45.14084" lon="4.47601">
        <ele>1098</ele>
        <time>2022-02-07T22:43:26Z</time>
      </trkpt>
      <trkpt lat="45.14046" lon="4.47691">
        <ele>1093</ele>
        <time>2022-02-07T22:43:39Z</time>
      </trkpt>
      <trkpt lat="45.14041" lon="4.4771">
        <ele>1094</ele>
        <time>2022-02-07T22:43:42Z</time>
      </trkpt>
      <trkpt lat="45.14032" lon="4.47783">
        <ele>1098</ele>
        <time>2022-02-07T22:43:51Z</time>
      </trkpt>
      <trkpt lat="45.14024" lon="4.47832">
        <ele>1104</ele>
        <time>2022-02-07T22:43:57Z</time>
      </trkpt>
      <trkpt lat="45.14007" lon="4.4788">
        <ele>1111</ele>
        <time>2022-02-07T22:44:04Z</time>
      </trkpt>
      <trkpt lat="45.13984" lon="4.47932">
        <ele>1118</ele>
        <time>2022-02-07T22:44:12Z</time>
      </trkpt>
      <trkpt lat="45.13977" lon="4.47952">
        <ele>1119</ele>
        <time>2022-02-07T22:44:14Z</time>
      </trkpt>
      <trkpt lat="45.13973" lon="4.47973">
        <ele>1120</ele>
        <time>2022-02-07T22:44:17Z</time>
      </trkpt>
      <trkpt lat="45.13971" lon="4.47995">
        <ele>1121</ele>
        <time>2022-02-07T22:44:20Z</time>
      </trkpt>
      <trkpt lat="45.13975" lon="4.48052">
        <ele>1122</ele>
        <time>2022-02-07T22:44:27Z</time>
      </trkpt>
      <trkpt lat="45.13986" lon="4.48115">
        <ele>1121</ele>
        <time>2022-02-07T22:44:35Z</time>
      </trkpt>
      <trkpt lat="45.14027" lon="4.48251">
        <ele>1116</ele>
        <time>2022-02-07T22:44:54Z</time>
      </trkpt>
      <trkpt lat="45.14039" lon="4.48279">
        <ele>1114</ele>
        <time>2022-02-07T22:44:58Z</time>
      </trkpt>
      <trkpt lat="45.14061" lon="4.48321">
        <ele>1113</ele>
        <time>2022-02-07T22:45:05Z</time>
      </trkpt>
      <trkpt lat="45.14084" lon="4.48344">
        <ele>1117</ele>
        <time>2022-02-07T22:45:10Z</time>
      </trkpt>
      <trkpt lat="45.14096" lon="4.48359">
        <ele>1117</ele>
        <time>2022-02-07T22:45:12Z</time>
      </trkpt>
      <trkpt lat="45.14114" lon="4.48386">
        <ele>1116</ele>
        <time>2022-02-07T22:45:17Z</time>
      </trkpt>
      <trkpt lat="45.14126" lon="4.48419">
        <ele>1115</ele>
        <time>2022-02-07T22:45:22Z</time>
      </trkpt>
      <trkpt lat="45.14127" lon="4.48444">
        <ele>1116</ele>
        <time>2022-02-07T22:45:25Z</time>
      </trkpt>
      <trkpt lat="45.14125" lon="4.48457">
        <ele>1116</ele>
        <time>2022-02-07T22:45:27Z</time>
      </trkpt>
      <trkpt lat="45.14114" lon="4.48485">
        <ele>1117</ele>
        <time>2022-02-07T22:45:31Z</time>
      </trkpt>
      <trkpt lat="45.14103" lon="4.48504">
        <ele>1118</ele>
        <time>2022-02-07T22:45:34Z</time>
      </trkpt>
      <trkpt lat="45.14086" lon="4.48549">
        <ele>1124</ele>
        <time>2022-02-07T22:45:40Z</time>
      </trkpt>
      <trkpt lat="45.14075" lon="4.48584">
        <ele>1126</ele>
        <time>2022-02-07T22:45:45Z</time>
      </trkpt>
      <trkpt lat="45.14063" lon="4.48632">
        <ele>1129</ele>
        <time>2022-02-07T22:45:51Z</time>
      </trkpt>
      <trkpt lat="45.14059" lon="4.48669">
        <ele>1133</ele>
        <time>2022-02-07T22:45:56Z</time>
      </trkpt>
      <trkpt lat="45.1406" lon="4.48695">
        <ele>1131</ele>
        <time>2022-02-07T22:45:59Z</time>
      </trkpt>
      <trkpt lat="45.14063" lon="4.48717">
        <ele>1131</ele>
        <time>2022-02-07T22:46:02Z</time>
      </trkpt>
      <trkpt lat="45.14071" lon="4.4874">
        <ele>1131</ele>
        <time>2022-02-07T22:46:05Z</time>
      </trkpt>
      <trkpt lat="45.14121" lon="4.48827">
        <ele>1133</ele>
        <time>2022-02-07T22:46:19Z</time>
      </trkpt>
      <trkpt lat="45.14127" lon="4.48844">
        <ele>1134</ele>
        <time>2022-02-07T22:46:22Z</time>
      </trkpt>
      <trkpt lat="45.14138" lon="4.48905">
        <ele>1136</ele>
        <time>2022-02-07T22:46:30Z</time>
      </trkpt>
      <trkpt lat="45.14145" lon="4.4893">
        <ele>1137</ele>
        <time>2022-02-07T22:46:33Z</time>
      </trkpt>
      <trkpt lat="45.1416" lon="4.48947">
        <ele>1141</ele>
        <time>2022-02-07T22:46:36Z</time>
      </trkpt>
      <trkpt lat="45.14181" lon="4.48964">
        <ele>1143</ele>
        <time>2022-02-07T22:46:41Z</time>
      </trkpt>
      <trkpt lat="45.14201" lon="4.48973">
        <ele>1144</ele>
        <time>2022-02-07T22:46:44Z</time>
      </trkpt>
      <trkpt lat="45.14222" lon="4.48976">
        <ele>1146</ele>
        <time>2022-02-07T22:46:48Z</time>
      </trkpt>
      <trkpt lat="45.14243" lon="4.48973">
        <ele>1149</ele>
        <time>2022-02-07T22:46:52Z</time>
      </trkpt>
      <trkpt lat="45.14293" lon="4.48955">
        <ele>1155</ele>
        <time>2022-02-07T22:47:01Z</time>
      </trkpt>
      <trkpt lat="45.14325" lon="4.4894">
        <ele>1159</ele>
        <time>2022-02-07T22:47:07Z</time>
      </trkpt>
      <trkpt lat="45.14342" lon="4.4893">
        <ele>1161</ele>
        <time>2022-02-07T22:47:10Z</time>
      </trkpt>
      <trkpt lat="45.14369" lon="4.4891">
        <ele>1165</ele>
        <time>2022-02-07T22:47:16Z</time>
      </trkpt>
      <trkpt lat="45.14387" lon="4.48901">
        <ele>1166</ele>
        <time>2022-02-07T22:47:19Z</time>
      </trkpt>
      <trkpt lat="45.14418" lon="4.48889">
        <ele>1168</ele>
        <time>2022-02-07T22:47:25Z</time>
      </trkpt>
      <trkpt lat="45.14431" lon="4.48887">
        <ele>1170</ele>
        <time>2022-02-07T22:47:27Z</time>
      </trkpt>
      <trkpt lat="45.14444" lon="4.4889">
        <ele>1171</ele>
        <time>2022-02-07T22:47:30Z</time>
      </trkpt>
      <trkpt lat="45.14455" lon="4.48895">
        <ele>1172</ele>
        <time>2022-02-07T22:47:32Z</time>
      </trkpt>
      <trkpt lat="45.14468" lon="4.48907">
        <ele>1172</ele>
        <time>2022-02-07T22:47:34Z</time>
      </trkpt>
      <trkpt lat="45.1448" lon="4.48925">
        <ele>1171</ele>
        <time>2022-02-07T22:47:38Z</time>
      </trkpt>
      <trkpt lat="45.14492" lon="4.48946">
        <ele>1169</ele>
        <time>2022-02-07T22:47:41Z</time>
      </trkpt>
      <trkpt lat="45.14505" lon="4.48962">
        <ele>1168</ele>
        <time>2022-02-07T22:47:44Z</time>
      </trkpt>
      <trkpt lat="45.14536" lon="4.48987">
        <ele>1166</ele>
        <time>2022-02-07T22:47:50Z</time>
      </trkpt>
      <trkpt lat="45.14564" lon="4.49005">
        <ele>1165</ele>
        <time>2022-02-07T22:47:56Z</time>
      </trkpt>
      <trkpt lat="45.14588" lon="4.4901">
        <ele>1165</ele>
        <time>2022-02-07T22:48:00Z</time>
      </trkpt>
      <trkpt lat="45.14648" lon="4.49011">
        <ele>1170</ele>
        <time>2022-02-07T22:48:11Z</time>
      </trkpt>
      <trkpt lat="45.14684" lon="4.49015">
        <ele>1171</ele>
        <time>2022-02-07T22:48:17Z</time>
      </trkpt>
      <trkpt lat="45.1471" lon="4.49021">
        <ele>1171</ele>
        <time>2022-02-07T22:48:22Z</time>
      </trkpt>
      <trkpt lat="45.14733" lon="4.49029">
        <ele>1172</ele>
        <time>2022-02-07T22:48:26Z</time>
      </trkpt>
      <trkpt lat="45.14767" lon="4.49051">
        <ele>1173</ele>
        <time>2022-02-07T22:48:33Z</time>
      </trkpt>
      <trkpt lat="45.14788" lon="4.49077">
        <ele>1177</ele>
        <time>2022-02-07T22:48:38Z</time>
      </trkpt>
      <trkpt lat="45.14799" lon="4.49093">
        <ele>1180</ele>
        <time>2022-02-07T22:48:41Z</time>
      </trkpt>
      <trkpt lat="45.14806" lon="4.49107">
        <ele>1182</ele>
        <time>2022-02-07T22:48:43Z</time>
      </trkpt>
      <trkpt lat="45.14812" lon="4.49127">
        <ele>1184</ele>
        <time>2022-02-07T22:48:45Z</time>
      </trkpt>
      <trkpt lat="45.14823" lon="4.49179">
        <ele>1189</ele>
        <time>2022-02-07T22:48:52Z</time>
      </trkpt>
      <trkpt lat="45.14826" lon="4.49201">
        <ele>1190</ele>
        <time>2022-02-07T22:48:55Z</time>
      </trkpt>
      <trkpt lat="45.14829" lon="4.49261">
        <ele>1192</ele>
        <time>2022-02-07T22:49:03Z</time>
      </trkpt>
      <trkpt lat="45.14832" lon="4.49273">
        <ele>1192</ele>
        <time>2022-02-07T22:49:04Z</time>
      </trkpt>
      <trkpt lat="45.14843" lon="4.49293">
        <ele>1195</ele>
        <time>2022-02-07T22:49:07Z</time>
      </trkpt>
      <trkpt lat="45.14863" lon="4.49315">
        <ele>1198</ele>
        <time>2022-02-07T22:49:12Z</time>
      </trkpt>
      <trkpt lat="45.149" lon="4.49375">
        <ele>1205</ele>
        <time>2022-02-07T22:49:22Z</time>
      </trkpt>
      <trkpt lat="45.14909" lon="4.49397">
        <ele>1206</ele>
        <time>2022-02-07T22:49:25Z</time>
      </trkpt>
      <trkpt lat="45.14917" lon="4.49441">
        <ele>1209</ele>
        <time>2022-02-07T22:49:31Z</time>
      </trkpt>
      <trkpt lat="45.14917" lon="4.49544">
        <ele>1212</ele>
        <time>2022-02-07T22:49:44Z</time>
      </trkpt>
      <trkpt lat="45.14923" lon="4.49591">
        <ele>1214</ele>
        <time>2022-02-07T22:49:50Z</time>
      </trkpt>
      <trkpt lat="45.14928" lon="4.49616">
        <ele>1215</ele>
        <time>2022-02-07T22:49:53Z</time>
      </trkpt>
      <trkpt lat="45.1494" lon="4.49656">
        <ele>1218</ele>
        <time>2022-02-07T22:49:58Z</time>
      </trkpt>
      <trkpt lat="45.14966" lon="4.49711">
        <ele>1224</ele>
        <time>2022-02-07T22:50:07Z</time>
      </trkpt>
      <trkpt lat="45.14979" lon="4.49749">
        <ele>1228</ele>
        <time>2022-02-07T22:50:12Z</time>
      </trkpt>
      <trkpt lat="45.14982" lon="4.49766">
        <ele>1229</ele>
        <time>2022-02-07T22:50:14Z</time>
      </trkpt>
      <trkpt lat="45.14986" lon="4.49815">
        <ele>1232</ele>
        <time>2022-02-07T22:50:20Z</time>
      </trkpt>
      <trkpt lat="45.14986" lon="4.49833">
        <ele>1233</ele>
        <time>2022-02-07T22:50:23Z</time>
      </trkpt>
      <trkpt lat="45.14985" lon="4.4985">
        <ele>1235</ele>
        <time>2022-02-07T22:50:25Z</time>
      </trkpt>
      <trkpt lat="45.14978" lon="4.49891">
        <ele>1238</ele>
        <time>2022-02-07T22:50:30Z</time>
      </trkpt>
      <trkpt lat="45.14975" lon="4.49907">
        <ele>1239</ele>
        <time>2022-02-07T22:50:32Z</time>
      </trkpt>
      <trkpt lat="45.14969" lon="4.49925">
        <ele>1240</ele>
        <time>2022-02-07T22:50:35Z</time>
      </trkpt>
      <trkpt lat="45.14962" lon="4.49944">
        <ele>1240</ele>
        <time>2022-02-07T22:50:37Z</time>
      </trkpt>
      <trkpt lat="45.14913" lon="4.50051">
        <ele>1244</ele>
        <time>2022-02-07T22:50:53Z</time>
      </trkpt>
      <trkpt lat="45.14906" lon="4.50073">
        <ele>1246</ele>
        <time>2022-02-07T22:50:56Z</time>
      </trkpt>
      <trkpt lat="45.14901" lon="4.50091">
        <ele>1248</ele>
        <time>2022-02-07T22:50:59Z</time>
      </trkpt>
      <trkpt lat="45.14897" lon="4.50118">
        <ele>1249</ele>
        <time>2022-02-07T22:51:02Z</time>
      </trkpt>
      <trkpt lat="45.14886" lon="4.50216">
        <ele>1253</ele>
        <time>2022-02-07T22:51:15Z</time>
      </trkpt>
      <trkpt lat="45.14884" lon="4.50261">
        <ele>1253</ele>
        <time>2022-02-07T22:51:20Z</time>
      </trkpt>
      <trkpt lat="45.14885" lon="4.50287">
        <ele>1253</ele>
        <time>2022-02-07T22:51:24Z</time>
      </trkpt>
      <trkpt lat="45.149" lon="4.50435">
        <ele>1246</ele>
        <time>2022-02-07T22:51:42Z</time>
      </trkpt>
      <trkpt lat="45.14901" lon="4.50469">
        <ele>1244</ele>
        <time>2022-02-07T22:51:47Z</time>
      </trkpt>
      <trkpt lat="45.14902" lon="4.50558">
        <ele>1239</ele>
        <time>2022-02-07T22:51:58Z</time>
      </trkpt>
      <trkpt lat="45.14903" lon="4.50592">
        <ele>1237</ele>
        <time>2022-02-07T22:52:02Z</time>
      </trkpt>
      <trkpt lat="45.14913" lon="4.507">
        <ele>1230</ele>
        <time>2022-02-07T22:52:16Z</time>
      </trkpt>
      <trkpt lat="45.14914" lon="4.50746">
        <ele>1229</ele>
        <time>2022-02-07T22:52:22Z</time>
      </trkpt>
      <trkpt lat="45.14913" lon="4.50769">
        <ele>1229</ele>
        <time>2022-02-07T22:52:24Z</time>
      </trkpt>
      <trkpt lat="45.14894" lon="4.50877">
        <ele>1225</ele>
        <time>2022-02-07T22:52:38Z</time>
      </trkpt>
      <trkpt lat="45.14887" lon="4.50932">
        <ele>1225</ele>
        <time>2022-02-07T22:52:45Z</time>
      </trkpt>
      <trkpt lat="45.14885" lon="4.50968">
        <ele>1225</ele>
        <time>2022-02-07T22:52:50Z</time>
      </trkpt>
      <trkpt lat="45.14882" lon="4.51056">
        <ele>1224</ele>
        <time>2022-02-07T22:53:01Z</time>
      </trkpt>
      <trkpt lat="45.14877" lon="4.51101">
        <ele>1221</ele>
        <time>2022-02-07T22:53:07Z</time>
      </trkpt>
      <trkpt lat="45.14881" lon="4.5114">
        <ele>1219</ele>
        <time>2022-02-07T22:53:12Z</time>
      </trkpt>
      <trkpt lat="45.14895" lon="4.51211">
        <ele>1219</ele>
        <time>2022-02-07T22:53:21Z</time>
      </trkpt>
      <trkpt lat="45.14898" lon="4.51235">
        <ele>1219</ele>
        <time>2022-02-07T22:53:24Z</time>
      </trkpt>
      <trkpt lat="45.14896" lon="4.51277">
        <ele>1220</ele>
        <time>2022-02-07T22:53:29Z</time>
      </trkpt>
      <trkpt lat="45.14889" lon="4.51311">
        <ele>1221</ele>
        <time>2022-02-07T22:53:34Z</time>
      </trkpt>
      <trkpt lat="45.14881" lon="4.51331">
        <ele>1220</ele>
        <time>2022-02-07T22:53:37Z</time>
      </trkpt>
      <trkpt lat="45.14825" lon="4.51424">
        <ele>1215</ele>
        <time>2022-02-07T22:53:52Z</time>
      </trkpt>
      <trkpt lat="45.1479" lon="4.515">
        <ele>1214</ele>
        <time>2022-02-07T22:54:03Z</time>
      </trkpt>
      <trkpt lat="45.14764" lon="4.51546">
        <ele>1214</ele>
        <time>2022-02-07T22:54:11Z</time>
      </trkpt>
      <trkpt lat="45.14729" lon="4.51593">
        <ele>1215</ele>
        <time>2022-02-07T22:54:19Z</time>
      </trkpt>
      <trkpt lat="45.14716" lon="4.51608">
        <ele>1216</ele>
        <time>2022-02-07T22:54:22Z</time>
      </trkpt>
      <trkpt lat="45.14693" lon="4.51626">
        <ele>1217</ele>
        <time>2022-02-07T22:54:27Z</time>
      </trkpt>
      <trkpt lat="45.14667" lon="4.51639">
        <ele>1218</ele>
        <time>2022-02-07T22:54:32Z</time>
      </trkpt>
      <trkpt lat="45.14638" lon="4.51648">
        <ele>1223</ele>
        <time>2022-02-07T22:54:37Z</time>
      </trkpt>
      <trkpt lat="45.14616" lon="4.51643">
        <ele>1225</ele>
        <time>2022-02-07T22:54:41Z</time>
      </trkpt>
      <trkpt lat="45.14603" lon="4.51636">
        <ele>1227</ele>
        <time>2022-02-07T22:54:44Z</time>
      </trkpt>
      <trkpt lat="45.14584" lon="4.51622">
        <ele>1229</ele>
        <time>2022-02-07T22:54:47Z</time>
      </trkpt>
      <trkpt lat="45.14565" lon="4.51618">
        <ele>1230</ele>
        <time>2022-02-07T22:54:51Z</time>
      </trkpt>
      <trkpt lat="45.14545" lon="4.51616">
        <ele>1230</ele>
        <time>2022-02-07T22:54:54Z</time>
      </trkpt>
      <trkpt lat="45.145" lon="4.51617">
        <ele>1230</ele>
        <time>2022-02-07T22:55:02Z</time>
      </trkpt>
      <trkpt lat="45.1445" lon="4.51624">
        <ele>1233</ele>
        <time>2022-02-07T22:55:11Z</time>
      </trkpt>
      <trkpt lat="45.14427" lon="4.5163">
        <ele>1234</ele>
        <time>2022-02-07T22:55:16Z</time>
      </trkpt>
      <trkpt lat="45.14409" lon="4.51638">
        <ele>1235</ele>
        <time>2022-02-07T22:55:19Z</time>
      </trkpt>
      <trkpt lat="45.14376" lon="4.51656">
        <ele>1235</ele>
        <time>2022-02-07T22:55:25Z</time>
      </trkpt>
      <trkpt lat="45.14347" lon="4.51682">
        <ele>1235</ele>
        <time>2022-02-07T22:55:31Z</time>
      </trkpt>
      <trkpt lat="45.14306" lon="4.5173">
        <ele>1234</ele>
        <time>2022-02-07T22:55:41Z</time>
      </trkpt>
      <trkpt lat="45.14289" lon="4.51752">
        <ele>1233</ele>
        <time>2022-02-07T22:55:45Z</time>
      </trkpt>
      <trkpt lat="45.14277" lon="4.51767">
        <ele>1234</ele>
        <time>2022-02-07T22:55:48Z</time>
      </trkpt>
      <trkpt lat="45.14188" lon="4.51896">
        <ele>1232</ele>
        <time>2022-02-07T22:56:10Z</time>
      </trkpt>
      <trkpt lat="45.14151" lon="4.51936">
        <ele>1231</ele>
        <time>2022-02-07T22:56:19Z</time>
      </trkpt>
      <trkpt lat="45.14043" lon="4.52041">
        <ele>1235</ele>
        <time>2022-02-07T22:56:42Z</time>
      </trkpt>
      <trkpt lat="45.14013" lon="4.52082">
        <ele>1237</ele>
        <time>2022-02-07T22:56:49Z</time>
      </trkpt>
      <trkpt lat="45.13992" lon="4.52121">
        <ele>1237</ele>
        <time>2022-02-07T22:56:55Z</time>
      </trkpt>
      <trkpt lat="45.1398" lon="4.52161">
        <ele>1237</ele>
        <time>2022-02-07T22:57:01Z</time>
      </trkpt>
      <trkpt lat="45.13968" lon="4.52213">
        <ele>1236</ele>
        <time>2022-02-07T22:57:08Z</time>
      </trkpt>
      <trkpt lat="45.13941" lon="4.52356">
        <ele>1228</ele>
        <time>2022-02-07T22:57:26Z</time>
      </trkpt>
      <trkpt lat="45.1392" lon="4.52413">
        <ele>1225</ele>
        <time>2022-02-07T22:57:34Z</time>
      </trkpt>
      <trkpt lat="45.13899" lon="4.52463">
        <ele>1221</ele>
        <time>2022-02-07T22:57:42Z</time>
      </trkpt>
      <trkpt lat="45.13854" lon="4.52545">
        <ele>1217</ele>
        <time>2022-02-07T22:57:55Z</time>
      </trkpt>
      <trkpt lat="45.13826" lon="4.52589">
        <ele>1215</ele>
        <time>2022-02-07T22:58:02Z</time>
      </trkpt>
      <trkpt lat="45.13779" lon="4.52637">
        <ele>1212</ele>
        <time>2022-02-07T22:58:13Z</time>
      </trkpt>
      <trkpt lat="45.13764" lon="4.52645">
        <ele>1210</ele>
        <time>2022-02-07T22:58:15Z</time>
      </trkpt>
      <trkpt lat="45.13743" lon="4.52643">
        <ele>1207</ele>
        <time>2022-02-07T22:58:19Z</time>
      </trkpt>
      <trkpt lat="45.13691" lon="4.52622">
        <ele>1202</ele>
        <time>2022-02-07T22:58:29Z</time>
      </trkpt>
      <trkpt lat="45.13654" lon="4.52615">
        <ele>1199</ele>
        <time>2022-02-07T22:58:35Z</time>
      </trkpt>
      <trkpt lat="45.13639" lon="4.52613">
        <ele>1198</ele>
        <time>2022-02-07T22:58:38Z</time>
      </trkpt>
      <trkpt lat="45.13604" lon="4.52615">
        <ele>1196</ele>
        <time>2022-02-07T22:58:44Z</time>
      </trkpt>
      <trkpt lat="45.13555" lon="4.52625">
        <ele>1194</ele>
        <time>2022-02-07T22:58:53Z</time>
      </trkpt>
      <trkpt lat="45.13516" lon="4.52634">
        <ele>1192</ele>
        <time>2022-02-07T22:59:00Z</time>
      </trkpt>
      <trkpt lat="45.13479" lon="4.5265">
        <ele>1192</ele>
        <time>2022-02-07T22:59:07Z</time>
      </trkpt>
      <trkpt lat="45.13452" lon="4.52667">
        <ele>1193</ele>
        <time>2022-02-07T22:59:12Z</time>
      </trkpt>
      <trkpt lat="45.13435" lon="4.52674">
        <ele>1193</ele>
        <time>2022-02-07T22:59:15Z</time>
      </trkpt>
      <trkpt lat="45.13412" lon="4.52679">
        <ele>1192</ele>
        <time>2022-02-07T22:59:20Z</time>
      </trkpt>
      <trkpt lat="45.13372" lon="4.52678">
        <ele>1192</ele>
        <time>2022-02-07T22:59:27Z</time>
      </trkpt>
      <trkpt lat="45.13321" lon="4.5267">
        <ele>1192</ele>
        <time>2022-02-07T22:59:36Z</time>
      </trkpt>
      <trkpt lat="45.13295" lon="4.52662">
        <ele>1193</ele>
        <time>2022-02-07T22:59:41Z</time>
      </trkpt>
      <trkpt lat="45.13255" lon="4.52643">
        <ele>1192</ele>
        <time>2022-02-07T22:59:48Z</time>
      </trkpt>
      <trkpt lat="45.1324" lon="4.52638">
        <ele>1190</ele>
        <time>2022-02-07T22:59:51Z</time>
      </trkpt>
      <trkpt lat="45.13219" lon="4.52636">
        <ele>1186</ele>
        <time>2022-02-07T22:59:55Z</time>
      </trkpt>
      <trkpt lat="45.132" lon="4.5264">
        <ele>1183</ele>
        <time>2022-02-07T22:59:58Z</time>
      </trkpt>
      <trkpt lat="45.13186" lon="4.52649">
        <ele>1182</ele>
        <time>2022-02-07T23:00:01Z</time>
      </trkpt>
      <trkpt lat="45.13171" lon="4.5267">
        <ele>1181</ele>
        <time>2022-02-07T23:00:04Z</time>
      </trkpt>
      <trkpt lat="45.13162" lon="4.52688">
        <ele>1181</ele>
        <time>2022-02-07T23:00:07Z</time>
      </trkpt>
      <trkpt lat="45.13131" lon="4.5278">
        <ele>1182</ele>
        <time>2022-02-07T23:00:20Z</time>
      </trkpt>
      <trkpt lat="45.13125" lon="4.52789">
        <ele>1182</ele>
        <time>2022-02-07T23:00:22Z</time>
      </trkpt>
      <trkpt lat="45.13115" lon="4.52802">
        <ele>1182</ele>
        <time>2022-02-07T23:00:24Z</time>
      </trkpt>
      <trkpt lat="45.131" lon="4.52809">
        <ele>1181</ele>
        <time>2022-02-07T23:00:27Z</time>
      </trkpt>
      <trkpt lat="45.13084" lon="4.52809">
        <ele>1180</ele>
        <time>2022-02-07T23:00:30Z</time>
      </trkpt>
      <trkpt lat="45.13014" lon="4.5278">
        <ele>1175</ele>
        <time>2022-02-07T23:00:43Z</time>
      </trkpt>
      <trkpt lat="45.12982" lon="4.52772">
        <ele>1173</ele>
        <time>2022-02-07T23:00:48Z</time>
      </trkpt>
      <trkpt lat="45.12916" lon="4.52771">
        <ele>1174</ele>
        <time>2022-02-07T23:01:00Z</time>
      </trkpt>
      <trkpt lat="45.12896" lon="4.52765">
        <ele>1173</ele>
        <time>2022-02-07T23:01:04Z</time>
      </trkpt>
      <trkpt lat="45.12883" lon="4.5276">
        <ele>1173</ele>
        <time>2022-02-07T23:01:06Z</time>
      </trkpt>
      <trkpt lat="45.12864" lon="4.52744">
        <ele>1172</ele>
        <time>2022-02-07T23:01:10Z</time>
      </trkpt>
      <trkpt lat="45.12857" lon="4.52734">
        <ele>1171</ele>
        <time>2022-02-07T23:01:12Z</time>
      </trkpt>
      <trkpt lat="45.1285" lon="4.52722">
        <ele>1171</ele>
        <time>2022-02-07T23:01:14Z</time>
      </trkpt>
      <trkpt lat="45.12843" lon="4.52702">
        <ele>1170</ele>
        <time>2022-02-07T23:01:17Z</time>
      </trkpt>
      <trkpt lat="45.12839" lon="4.52675">
        <ele>1169</ele>
        <time>2022-02-07T23:01:20Z</time>
      </trkpt>
      <trkpt lat="45.1284" lon="4.52659">
        <ele>1168</ele>
        <time>2022-02-07T23:01:22Z</time>
      </trkpt>
      <trkpt lat="45.12853" lon="4.52537">
        <ele>1159</ele>
        <time>2022-02-07T23:01:38Z</time>
      </trkpt>
      <trkpt lat="45.12853" lon="4.52523">
        <ele>1158</ele>
        <time>2022-02-07T23:01:39Z</time>
      </trkpt>
      <trkpt lat="45.12848" lon="4.52504">
        <ele>1159</ele>
        <time>2022-02-07T23:01:42Z</time>
      </trkpt>
      <trkpt lat="45.12837" lon="4.52483">
        <ele>1160</ele>
        <time>2022-02-07T23:01:45Z</time>
      </trkpt>
      <trkpt lat="45.12828" lon="4.52471">
        <ele>1160</ele>
        <time>2022-02-07T23:01:47Z</time>
      </trkpt>
      <trkpt lat="45.1281" lon="4.52454">
        <ele>1159</ele>
        <time>2022-02-07T23:01:51Z</time>
      </trkpt>
      <trkpt lat="45.12783" lon="4.52434">
        <ele>1157</ele>
        <time>2022-02-07T23:01:57Z</time>
      </trkpt>
      <trkpt lat="45.12765" lon="4.52428">
        <ele>1157</ele>
        <time>2022-02-07T23:02:00Z</time>
      </trkpt>
      <trkpt lat="45.12754" lon="4.52426">
        <ele>1157</ele>
        <time>2022-02-07T23:02:02Z</time>
      </trkpt>
      <trkpt lat="45.12745" lon="4.52427">
        <ele>1157</ele>
        <time>2022-02-07T23:02:04Z</time>
      </trkpt>
      <trkpt lat="45.12726" lon="4.52436">
        <ele>1156</ele>
        <time>2022-02-07T23:02:07Z</time>
      </trkpt>
      <trkpt lat="45.12661" lon="4.52479">
        <ele>1154</ele>
        <time>2022-02-07T23:02:20Z</time>
      </trkpt>
      <trkpt lat="45.12545" lon="4.52527">
        <ele>1144</ele>
        <time>2022-02-07T23:02:41Z</time>
      </trkpt>
      <trkpt lat="45.12527" lon="4.52542">
        <ele>1143</ele>
        <time>2022-02-07T23:02:45Z</time>
      </trkpt>
      <trkpt lat="45.12452" lon="4.52638">
        <ele>1139</ele>
        <time>2022-02-07T23:03:03Z</time>
      </trkpt>
      <trkpt lat="45.12441" lon="4.52649">
        <ele>1138</ele>
        <time>2022-02-07T23:03:05Z</time>
      </trkpt>
      <trkpt lat="45.12409" lon="4.52674">
        <ele>1136</ele>
        <time>2022-02-07T23:03:12Z</time>
      </trkpt>
      <trkpt lat="45.12349" lon="4.52709">
        <ele>1131</ele>
        <time>2022-02-07T23:03:23Z</time>
      </trkpt>
      <trkpt lat="45.12328" lon="4.52717">
        <ele>1130</ele>
        <time>2022-02-07T23:03:27Z</time>
      </trkpt>
      <trkpt lat="45.12228" lon="4.52735">
        <ele>1124</ele>
        <time>2022-02-07T23:03:45Z</time>
      </trkpt>
      <trkpt lat="45.12208" lon="4.52743">
        <ele>1123</ele>
        <time>2022-02-07T23:03:49Z</time>
      </trkpt>
      <trkpt lat="45.12196" lon="4.52761">
        <ele>1122</ele>
        <time>2022-02-07T23:03:52Z</time>
      </trkpt>
      <trkpt lat="45.12176" lon="4.52828">
        <ele>1117</ele>
        <time>2022-02-07T23:04:01Z</time>
      </trkpt>
      <trkpt lat="45.12153" lon="4.5288">
        <ele>1114</ele>
        <time>2022-02-07T23:04:09Z</time>
      </trkpt>
      <trkpt lat="45.12143" lon="4.52915">
        <ele>1112</ele>
        <time>2022-02-07T23:04:14Z</time>
      </trkpt>
      <trkpt lat="45.12134" lon="4.52956">
        <ele>1110</ele>
        <time>2022-02-07T23:04:19Z</time>
      </trkpt>
      <trkpt lat="45.12122" lon="4.53038">
        <ele>1106</ele>
        <time>2022-02-07T23:04:30Z</time>
      </trkpt>
      <trkpt lat="45.12101" lon="4.53106">
        <ele>1101</ele>
        <time>2022-02-07T23:04:39Z</time>
      </trkpt>
      <trkpt lat="45.12095" lon="4.53121">
        <ele>1100</ele>
        <time>2022-02-07T23:04:41Z</time>
      </trkpt>
      <trkpt lat="45.12087" lon="4.53133">
        <ele>1099</ele>
        <time>2022-02-07T23:04:43Z</time>
      </trkpt>
      <trkpt lat="45.12076" lon="4.53146">
        <ele>1098</ele>
        <time>2022-02-07T23:04:46Z</time>
      </trkpt>
      <trkpt lat="45.12031" lon="4.53184">
        <ele>1095</ele>
        <time>2022-02-07T23:04:55Z</time>
      </trkpt>
      <trkpt lat="45.12022" lon="4.53194">
        <ele>1094</ele>
        <time>2022-02-07T23:04:57Z</time>
      </trkpt>
      <trkpt lat="45.12017" lon="4.53201">
        <ele>1094</ele>
        <time>2022-02-07T23:04:58Z</time>
      </trkpt>
      <trkpt lat="45.12011" lon="4.53216">
        <ele>1093</ele>
        <time>2022-02-07T23:05:00Z</time>
      </trkpt>
      <trkpt lat="45.12009" lon="4.5323">
        <ele>1093</ele>
        <time>2022-02-07T23:05:02Z</time>
      </trkpt>
      <trkpt lat="45.12013" lon="4.53248">
        <ele>1093</ele>
        <time>2022-02-07T23:05:05Z</time>
      </trkpt>
      <trkpt lat="45.12022" lon="4.53268">
        <ele>1091</ele>
        <time>2022-02-07T23:05:08Z</time>
      </trkpt>
      <trkpt lat="45.12048" lon="4.53293">
        <ele>1090</ele>
        <time>2022-02-07T23:05:13Z</time>
      </trkpt>
      <trkpt lat="45.12062" lon="4.53317">
        <ele>1089</ele>
        <time>2022-02-07T23:05:17Z</time>
      </trkpt>
      <trkpt lat="45.1207" lon="4.53328">
        <ele>1089</ele>
        <time>2022-02-07T23:05:19Z</time>
      </trkpt>
      <trkpt lat="45.12075" lon="4.53339">
        <ele>1088</ele>
        <time>2022-02-07T23:05:21Z</time>
      </trkpt>
      <trkpt lat="45.12074" lon="4.53356">
        <ele>1088</ele>
        <time>2022-02-07T23:05:23Z</time>
      </trkpt>
      <trkpt lat="45.12073" lon="4.53364">
        <ele>1087</ele>
        <time>2022-02-07T23:05:24Z</time>
      </trkpt>
      <trkpt lat="45.1206" lon="4.53406">
        <ele>1084</ele>
        <time>2022-02-07T23:05:30Z</time>
      </trkpt>
      <trkpt lat="45.12042" lon="4.53446">
        <ele>1084</ele>
        <time>2022-02-07T23:05:36Z</time>
      </trkpt>
      <trkpt lat="45.12025" lon="4.53469">
        <ele>1083</ele>
        <time>2022-02-07T23:05:40Z</time>
      </trkpt>
      <trkpt lat="45.12014" lon="4.53479">
        <ele>1083</ele>
        <time>2022-02-07T23:05:42Z</time>
      </trkpt>
      <trkpt lat="45.1199" lon="4.53493">
        <ele>1082</ele>
        <time>2022-02-07T23:05:47Z</time>
      </trkpt>
      <trkpt lat="45.1196" lon="4.53508">
        <ele>1082</ele>
        <time>2022-02-07T23:05:52Z</time>
      </trkpt>
      <trkpt lat="45.11935" lon="4.53525">
        <ele>1082</ele>
        <time>2022-02-07T23:05:57Z</time>
      </trkpt>
      <trkpt lat="45.11921" lon="4.53545">
        <ele>1083</ele>
        <time>2022-02-07T23:06:01Z</time>
      </trkpt>
      <trkpt lat="45.11909" lon="4.53571">
        <ele>1084</ele>
        <time>2022-02-07T23:06:05Z</time>
      </trkpt>
      <trkpt lat="45.1185" lon="4.53596">
        <ele>1083</ele>
        <time>2022-02-07T23:06:16Z</time>
      </trkpt>
      <trkpt lat="45.11797" lon="4.53614">
        <ele>1084</ele>
        <time>2022-02-07T23:06:25Z</time>
      </trkpt>
      <trkpt lat="45.11771" lon="4.53618">
        <ele>1085</ele>
        <time>2022-02-07T23:06:30Z</time>
      </trkpt>
      <trkpt lat="45.11758" lon="4.53622">
        <ele>1085</ele>
        <time>2022-02-07T23:06:32Z</time>
      </trkpt>
      <trkpt lat="45.11732" lon="4.53638">
        <ele>1088</ele>
        <time>2022-02-07T23:06:37Z</time>
      </trkpt>
      <trkpt lat="45.11718" lon="4.53649">
        <ele>1090</ele>
        <time>2022-02-07T23:06:40Z</time>
      </trkpt>
      <trkpt lat="45.11709" lon="4.53659">
        <ele>1091</ele>
        <time>2022-02-07T23:06:42Z</time>
      </trkpt>
      <trkpt lat="45.11697" lon="4.53679">
        <ele>1092</ele>
        <time>2022-02-07T23:06:46Z</time>
      </trkpt>
      <trkpt lat="45.11689" lon="4.537">
        <ele>1091</ele>
        <time>2022-02-07T23:06:49Z</time>
      </trkpt>
      <trkpt lat="45.11674" lon="4.53756">
        <ele>1090</ele>
        <time>2022-02-07T23:06:56Z</time>
      </trkpt>
      <trkpt lat="45.1167" lon="4.53778">
        <ele>1091</ele>
        <time>2022-02-07T23:06:59Z</time>
      </trkpt>
      <trkpt lat="45.11669" lon="4.53797">
        <ele>1090</ele>
        <time>2022-02-07T23:07:01Z</time>
      </trkpt>
      <trkpt lat="45.1167" lon="4.53816">
        <ele>1089</ele>
        <time>2022-02-07T23:07:04Z</time>
      </trkpt>
      <trkpt lat="45.11674" lon="4.53836">
        <ele>1087</ele>
        <time>2022-02-07T23:07:06Z</time>
      </trkpt>
      <trkpt lat="45.11715" lon="4.53978">
        <ele>1079</ele>
        <time>2022-02-07T23:07:26Z</time>
      </trkpt>
      <trkpt lat="45.11719" lon="4.54008">
        <ele>1079</ele>
        <time>2022-02-07T23:07:30Z</time>
      </trkpt>
      <trkpt lat="45.11724" lon="4.54169">
        <ele>1076</ele>
        <time>2022-02-07T23:07:50Z</time>
      </trkpt>
      <trkpt lat="45.11724" lon="4.54217">
        <ele>1074</ele>
        <time>2022-02-07T23:07:56Z</time>
      </trkpt>
      <trkpt lat="45.11719" lon="4.54243">
        <ele>1074</ele>
        <time>2022-02-07T23:07:59Z</time>
      </trkpt>
      <trkpt lat="45.11712" lon="4.54259">
        <ele>1074</ele>
        <time>2022-02-07T23:08:02Z</time>
      </trkpt>
      <trkpt lat="45.11707" lon="4.54265">
        <ele>1074</ele>
        <time>2022-02-07T23:08:03Z</time>
      </trkpt>
      <trkpt lat="45.11697" lon="4.54272">
        <ele>1075</ele>
        <time>2022-02-07T23:08:05Z</time>
      </trkpt>
      <trkpt lat="45.11683" lon="4.54276">
        <ele>1078</ele>
        <time>2022-02-07T23:08:07Z</time>
      </trkpt>
      <trkpt lat="45.11627" lon="4.54283">
        <ele>1086</ele>
        <time>2022-02-07T23:08:17Z</time>
      </trkpt>
      <trkpt lat="45.11603" lon="4.54298">
        <ele>1085</ele>
        <time>2022-02-07T23:08:22Z</time>
      </trkpt>
      <trkpt lat="45.11551" lon="4.54357">
        <ele>1073</ele>
        <time>2022-02-07T23:08:34Z</time>
      </trkpt>
      <trkpt lat="45.11537" lon="4.54371">
        <ele>1070</ele>
        <time>2022-02-07T23:08:37Z</time>
      </trkpt>
      <trkpt lat="45.11523" lon="4.54381">
        <ele>1068</ele>
        <time>2022-02-07T23:08:40Z</time>
      </trkpt>
      <trkpt lat="45.11506" lon="4.54382">
        <ele>1071</ele>
        <time>2022-02-07T23:08:43Z</time>
      </trkpt>
      <trkpt lat="45.1149" lon="4.5438">
        <ele>1072</ele>
        <time>2022-02-07T23:08:45Z</time>
      </trkpt>
      <trkpt lat="45.1144" lon="4.54355">
        <ele>1083</ele>
        <time>2022-02-07T23:08:55Z</time>
      </trkpt>
      <trkpt lat="45.11422" lon="4.54354">
        <ele>1083</ele>
        <time>2022-02-07T23:08:58Z</time>
      </trkpt>
      <trkpt lat="45.11379" lon="4.54365">
        <ele>1082</ele>
        <time>2022-02-07T23:09:06Z</time>
      </trkpt>
      <trkpt lat="45.11342" lon="4.54383">
        <ele>1079</ele>
        <time>2022-02-07T23:09:13Z</time>
      </trkpt>
      <trkpt lat="45.11321" lon="4.54397">
        <ele>1075</ele>
        <time>2022-02-07T23:09:17Z</time>
      </trkpt>
      <trkpt lat="45.11302" lon="4.54423">
        <ele>1067</ele>
        <time>2022-02-07T23:09:22Z</time>
      </trkpt>
      <trkpt lat="45.11275" lon="4.54467">
        <ele>1056</ele>
        <time>2022-02-07T23:09:29Z</time>
      </trkpt>
      <trkpt lat="45.11248" lon="4.54495">
        <ele>1053</ele>
        <time>2022-02-07T23:09:35Z</time>
      </trkpt>
      <trkpt lat="45.11234" lon="4.54496">
        <ele>1050</ele>
        <time>2022-02-07T23:09:37Z</time>
      </trkpt>
      <trkpt lat="45.11222" lon="4.54493">
        <ele>1049</ele>
        <time>2022-02-07T23:09:40Z</time>
      </trkpt>
      <trkpt lat="45.11204" lon="4.54468">
        <ele>1050</ele>
        <time>2022-02-07T23:09:44Z</time>
      </trkpt>
      <trkpt lat="45.11193" lon="4.54414">
        <ele>1058</ele>
        <time>2022-02-07T23:09:51Z</time>
      </trkpt>
      <trkpt lat="45.11162" lon="4.54313">
        <ele>1056</ele>
        <time>2022-02-07T23:10:05Z</time>
      </trkpt>
      <trkpt lat="45.11162" lon="4.5423">
        <ele>1061</ele>
        <time>2022-02-07T23:10:15Z</time>
      </trkpt>
      <trkpt lat="45.11159" lon="4.54193">
        <ele>1067</ele>
        <time>2022-02-07T23:10:20Z</time>
      </trkpt>
      <trkpt lat="45.11155" lon="4.54173">
        <ele>1070</ele>
        <time>2022-02-07T23:10:23Z</time>
      </trkpt>
      <trkpt lat="45.11148" lon="4.54166">
        <ele>1071</ele>
        <time>2022-02-07T23:10:24Z</time>
      </trkpt>
      <trkpt lat="45.11134" lon="4.54162">
        <ele>1070</ele>
        <time>2022-02-07T23:10:27Z</time>
      </trkpt>
      <trkpt lat="45.11091" lon="4.54177">
        <ele>1061</ele>
        <time>2022-02-07T23:10:35Z</time>
      </trkpt>
      <trkpt lat="45.11054" lon="4.54194">
        <ele>1057</ele>
        <time>2022-02-07T23:10:42Z</time>
      </trkpt>
      <trkpt lat="45.10979" lon="4.54241">
        <ele>1049</ele>
        <time>2022-02-07T23:10:56Z</time>
      </trkpt>
      <trkpt lat="45.10932" lon="4.5429">
        <ele>1042</ele>
        <time>2022-02-07T23:11:07Z</time>
      </trkpt>
      <trkpt lat="45.10889" lon="4.54319">
        <ele>1038</ele>
        <time>2022-02-07T23:11:15Z</time>
      </trkpt>
      <trkpt lat="45.10873" lon="4.54338">
        <ele>1034</ele>
        <time>2022-02-07T23:11:19Z</time>
      </trkpt>
      <trkpt lat="45.10863" lon="4.54347">
        <ele>1033</ele>
        <time>2022-02-07T23:11:21Z</time>
      </trkpt>
      <trkpt lat="45.10853" lon="4.54351">
        <ele>1033</ele>
        <time>2022-02-07T23:11:23Z</time>
      </trkpt>
      <trkpt lat="45.10843" lon="4.5435">
        <ele>1034</ele>
        <time>2022-02-07T23:11:24Z</time>
      </trkpt>
      <trkpt lat="45.10825" lon="4.54341">
        <ele>1035</ele>
        <time>2022-02-07T23:11:28Z</time>
      </trkpt>
      <trkpt lat="45.10714" lon="4.54255">
        <ele>1021</ele>
        <time>2022-02-07T23:11:50Z</time>
      </trkpt>
      <trkpt lat="45.10663" lon="4.54229">
        <ele>1014</ele>
        <time>2022-02-07T23:12:00Z</time>
      </trkpt>
      <trkpt lat="45.10616" lon="4.54211">
        <ele>1012</ele>
        <time>2022-02-07T23:12:09Z</time>
      </trkpt>
      <trkpt lat="45.10569" lon="4.54197">
        <ele>1009</ele>
        <time>2022-02-07T23:12:17Z</time>
      </trkpt>
      <trkpt lat="45.10545" lon="4.54193">
        <ele>1008</ele>
        <time>2022-02-07T23:12:22Z</time>
      </trkpt>
      <trkpt lat="45.10472" lon="4.5419">
        <ele>1010</ele>
        <time>2022-02-07T23:12:35Z</time>
      </trkpt>
      <trkpt lat="45.10455" lon="4.54192">
        <ele>1012</ele>
        <time>2022-02-07T23:12:38Z</time>
      </trkpt>
      <trkpt lat="45.1043" lon="4.54199">
        <ele>1014</ele>
        <time>2022-02-07T23:12:42Z</time>
      </trkpt>
      <trkpt lat="45.10418" lon="4.54207">
        <ele>1014</ele>
        <time>2022-02-07T23:12:44Z</time>
      </trkpt>
      <trkpt lat="45.10407" lon="4.54218">
        <ele>1013</ele>
        <time>2022-02-07T23:12:47Z</time>
      </trkpt>
      <trkpt lat="45.10378" lon="4.54253">
        <ele>1010</ele>
        <time>2022-02-07T23:12:54Z</time>
      </trkpt>
      <trkpt lat="45.10364" lon="4.54263">
        <ele>1009</ele>
        <time>2022-02-07T23:12:56Z</time>
      </trkpt>
      <trkpt lat="45.10352" lon="4.54266">
        <ele>1009</ele>
        <time>2022-02-07T23:12:59Z</time>
      </trkpt>
      <trkpt lat="45.10337" lon="4.54263">
        <ele>1012</ele>
        <time>2022-02-07T23:13:01Z</time>
      </trkpt>
      <trkpt lat="45.10326" lon="4.54257">
        <ele>1013</ele>
        <time>2022-02-07T23:13:03Z</time>
      </trkpt>
      <trkpt lat="45.10243" lon="4.5419">
        <ele>1023</ele>
        <time>2022-02-07T23:13:20Z</time>
      </trkpt>
      <trkpt lat="45.10215" lon="4.5417">
        <ele>1025</ele>
        <time>2022-02-07T23:13:26Z</time>
      </trkpt>
      <trkpt lat="45.10205" lon="4.54166">
        <ele>1025</ele>
        <time>2022-02-07T23:13:28Z</time>
      </trkpt>
      <trkpt lat="45.10204" lon="4.5416">
        <ele>1026</ele>
        <time>2022-02-07T23:13:29Z</time>
      </trkpt>
      <trkpt lat="45.10201" lon="4.54153">
        <ele>1027</ele>
        <time>2022-02-07T23:13:30Z</time>
      </trkpt>
      <trkpt lat="45.10183" lon="4.54147">
        <ele>1026</ele>
        <time>2022-02-07T23:13:33Z</time>
      </trkpt>
      <trkpt lat="45.10156" lon="4.54146">
        <ele>1025</ele>
        <time>2022-02-07T23:13:38Z</time>
      </trkpt>
      <trkpt lat="45.10139" lon="4.54143">
        <ele>1026</ele>
        <time>2022-02-07T23:13:41Z</time>
      </trkpt>
      <trkpt lat="45.10128" lon="4.54137">
        <ele>1027</ele>
        <time>2022-02-07T23:13:43Z</time>
      </trkpt>
      <trkpt lat="45.10114" lon="4.54128">
        <ele>1028</ele>
        <time>2022-02-07T23:13:46Z</time>
      </trkpt>
      <trkpt lat="45.10096" lon="4.54112">
        <ele>1027</ele>
        <time>2022-02-07T23:13:49Z</time>
      </trkpt>
      <trkpt lat="45.10082" lon="4.541">
        <ele>1026</ele>
        <time>2022-02-07T23:13:52Z</time>
      </trkpt>
      <trkpt lat="45.10065" lon="4.54092">
        <ele>1026</ele>
        <time>2022-02-07T23:13:55Z</time>
      </trkpt>
      <trkpt lat="45.10031" lon="4.54085">
        <ele>1026</ele>
        <time>2022-02-07T23:14:02Z</time>
      </trkpt>
      <trkpt lat="45.1001" lon="4.54078">
        <ele>1025</ele>
        <time>2022-02-07T23:14:05Z</time>
      </trkpt>
      <trkpt lat="45.09991" lon="4.54067">
        <ele>1025</ele>
        <time>2022-02-07T23:14:09Z</time>
      </trkpt>
      <trkpt lat="45.09971" lon="4.5405">
        <ele>1026</ele>
        <time>2022-02-07T23:14:13Z</time>
      </trkpt>
      <trkpt lat="45.09951" lon="4.54005">
        <ele>1024</ele>
        <time>2022-02-07T23:14:20Z</time>
      </trkpt>
      <trkpt lat="45.09913" lon="4.53931">
        <ele>1021</ele>
        <time>2022-02-07T23:14:31Z</time>
      </trkpt>
      <trkpt lat="45.09883" lon="4.53885">
        <ele>1020</ele>
        <time>2022-02-07T23:14:39Z</time>
      </trkpt>
      <trkpt lat="45.09853" lon="4.53847">
        <ele>1019</ele>
        <time>2022-02-07T23:14:46Z</time>
      </trkpt>
      <trkpt lat="45.09806" lon="4.53796">
        <ele>1017</ele>
        <time>2022-02-07T23:14:57Z</time>
      </trkpt>
      <trkpt lat="45.09779" lon="4.5377">
        <ele>1014</ele>
        <time>2022-02-07T23:15:03Z</time>
      </trkpt>
      <trkpt lat="45.09765" lon="4.53761">
        <ele>1013</ele>
        <time>2022-02-07T23:15:05Z</time>
      </trkpt>
      <trkpt lat="45.09729" lon="4.53746">
        <ele>1010</ele>
        <time>2022-02-07T23:15:12Z</time>
      </trkpt>
      <trkpt lat="45.09684" lon="4.53742">
        <ele>1009</ele>
        <time>2022-02-07T23:15:20Z</time>
      </trkpt>
      <trkpt lat="45.09642" lon="4.53744">
        <ele>1011</ele>
        <time>2022-02-07T23:15:28Z</time>
      </trkpt>
      <trkpt lat="45.09605" lon="4.53743">
        <ele>1014</ele>
        <time>2022-02-07T23:15:34Z</time>
      </trkpt>
      <trkpt lat="45.0958" lon="4.53732">
        <ele>1013</ele>
        <time>2022-02-07T23:15:39Z</time>
      </trkpt>
      <trkpt lat="45.09555" lon="4.53717">
        <ele>1016</ele>
        <time>2022-02-07T23:15:44Z</time>
      </trkpt>
      <trkpt lat="45.09547" lon="4.53707">
        <ele>1017</ele>
        <time>2022-02-07T23:15:46Z</time>
      </trkpt>
      <trkpt lat="45.0954" lon="4.53695">
        <ele>1017</ele>
        <time>2022-02-07T23:15:48Z</time>
      </trkpt>
      <trkpt lat="45.09533" lon="4.53678">
        <ele>1016</ele>
        <time>2022-02-07T23:15:50Z</time>
      </trkpt>
      <trkpt lat="45.09526" lon="4.53599">
        <ele>1008</ele>
        <time>2022-02-07T23:16:00Z</time>
      </trkpt>
      <trkpt lat="45.09516" lon="4.53557">
        <ele>1005</ele>
        <time>2022-02-07T23:16:06Z</time>
      </trkpt>
      <trkpt lat="45.09502" lon="4.53529">
        <ele>1005</ele>
        <time>2022-02-07T23:16:10Z</time>
      </trkpt>
      <trkpt lat="45.0948" lon="4.53499">
        <ele>1003</ele>
        <time>2022-02-07T23:16:15Z</time>
      </trkpt>
      <trkpt lat="45.09462" lon="4.53485">
        <ele>1002</ele>
        <time>2022-02-07T23:16:19Z</time>
      </trkpt>
      <trkpt lat="45.09434" lon="4.53469">
        <ele>1002</ele>
        <time>2022-02-07T23:16:24Z</time>
      </trkpt>
      <trkpt lat="45.09331" lon="4.53424">
        <ele>1009</ele>
        <time>2022-02-07T23:16:44Z</time>
      </trkpt>
      <trkpt lat="45.09325" lon="4.53413">
        <ele>1009</ele>
        <time>2022-02-07T23:16:45Z</time>
      </trkpt>
      <trkpt lat="45.09324" lon="4.53399">
        <ele>1008</ele>
        <time>2022-02-07T23:16:47Z</time>
      </trkpt>
      <trkpt lat="45.09325" lon="4.5337">
        <ele>1002</ele>
        <time>2022-02-07T23:16:51Z</time>
      </trkpt>
      <trkpt lat="45.09319" lon="4.53303">
        <ele>995</ele>
        <time>2022-02-07T23:16:59Z</time>
      </trkpt>
      <trkpt lat="45.09311" lon="4.53268">
        <ele>994</ele>
        <time>2022-02-07T23:17:04Z</time>
      </trkpt>
      <trkpt lat="45.09283" lon="4.53183">
        <ele>993</ele>
        <time>2022-02-07T23:17:16Z</time>
      </trkpt>
      <trkpt lat="45.09253" lon="4.53105">
        <ele>987</ele>
        <time>2022-02-07T23:17:27Z</time>
      </trkpt>
      <trkpt lat="45.0924" lon="4.53078">
        <ele>985</ele>
        <time>2022-02-07T23:17:31Z</time>
      </trkpt>
      <trkpt lat="45.09202" lon="4.53027">
        <ele>991</ele>
        <time>2022-02-07T23:17:40Z</time>
      </trkpt>
      <trkpt lat="45.092" lon="4.53022">
        <ele>991</ele>
        <time>2022-02-07T23:17:41Z</time>
      </trkpt>
      <trkpt lat="45.09199" lon="4.53017">
        <ele>991</ele>
        <time>2022-02-07T23:17:42Z</time>
      </trkpt>
      <trkpt lat="45.09197" lon="4.53007">
        <ele>991</ele>
        <time>2022-02-07T23:17:43Z</time>
      </trkpt>
      <trkpt lat="45.09198" lon="4.52988">
        <ele>990</ele>
        <time>2022-02-07T23:17:45Z</time>
      </trkpt>
      <trkpt lat="45.09204" lon="4.52969">
        <ele>989</ele>
        <time>2022-02-07T23:17:48Z</time>
      </trkpt>
      <trkpt lat="45.0921" lon="4.52952">
        <ele>988</ele>
        <time>2022-02-07T23:17:50Z</time>
      </trkpt>
      <trkpt lat="45.09219" lon="4.52937">
        <ele>987</ele>
        <time>2022-02-07T23:17:53Z</time>
      </trkpt>
      <trkpt lat="45.09232" lon="4.52927">
        <ele>985</ele>
        <time>2022-02-07T23:17:55Z</time>
      </trkpt>
      <trkpt lat="45.09244" lon="4.5292">
        <ele>983</ele>
        <time>2022-02-07T23:17:58Z</time>
      </trkpt>
      <trkpt lat="45.09262" lon="4.52912">
        <ele>980</ele>
        <time>2022-02-07T23:18:01Z</time>
      </trkpt>
      <trkpt lat="45.09272" lon="4.52909">
        <ele>978</ele>
        <time>2022-02-07T23:18:03Z</time>
      </trkpt>
      <trkpt lat="45.09283" lon="4.52908">
        <ele>977</ele>
        <time>2022-02-07T23:18:05Z</time>
      </trkpt>
      <trkpt lat="45.09303" lon="4.52908">
        <ele>974</ele>
        <time>2022-02-07T23:18:08Z</time>
      </trkpt>
      <trkpt lat="45.09309" lon="4.52905">
        <ele>973</ele>
        <time>2022-02-07T23:18:10Z</time>
      </trkpt>
      <trkpt lat="45.09315" lon="4.52898">
        <ele>972</ele>
        <time>2022-02-07T23:18:11Z</time>
      </trkpt>
      <trkpt lat="45.09317" lon="4.52891">
        <ele>972</ele>
        <time>2022-02-07T23:18:12Z</time>
      </trkpt>
      <trkpt lat="45.09317" lon="4.52878">
        <ele>972</ele>
        <time>2022-02-07T23:18:13Z</time>
      </trkpt>
      <trkpt lat="45.09313" lon="4.52863">
        <ele>973</ele>
        <time>2022-02-07T23:18:15Z</time>
      </trkpt>
      <trkpt lat="45.0931" lon="4.52856">
        <ele>973</ele>
        <time>2022-02-07T23:18:17Z</time>
      </trkpt>
      <trkpt lat="45.09301" lon="4.52835">
        <ele>974</ele>
        <time>2022-02-07T23:18:20Z</time>
      </trkpt>
      <trkpt lat="45.09291" lon="4.52814">
        <ele>972</ele>
        <time>2022-02-07T23:18:23Z</time>
      </trkpt>
      <trkpt lat="45.09282" lon="4.52798">
        <ele>970</ele>
        <time>2022-02-07T23:18:25Z</time>
      </trkpt>
      <trkpt lat="45.09271" lon="4.52785">
        <ele>969</ele>
        <time>2022-02-07T23:18:28Z</time>
      </trkpt>
      <trkpt lat="45.09258" lon="4.52775">
        <ele>968</ele>
        <time>2022-02-07T23:18:31Z</time>
      </trkpt>
      <trkpt lat="45.09199" lon="4.52748">
        <ele>974</ele>
        <time>2022-02-07T23:18:42Z</time>
      </trkpt>
      <trkpt lat="45.09185" lon="4.5273">
        <ele>973</ele>
        <time>2022-02-07T23:18:45Z</time>
      </trkpt>
      <trkpt lat="45.09149" lon="4.52664">
        <ele>971</ele>
        <time>2022-02-07T23:18:55Z</time>
      </trkpt>
      <trkpt lat="45.09144" lon="4.52588">
        <ele>962</ele>
        <time>2022-02-07T23:19:05Z</time>
      </trkpt>
      <trkpt lat="45.09145" lon="4.5256">
        <ele>960</ele>
        <time>2022-02-07T23:19:09Z</time>
      </trkpt>
      <trkpt lat="45.09142" lon="4.52521">
        <ele>957</ele>
        <time>2022-02-07T23:19:13Z</time>
      </trkpt>
      <trkpt lat="45.09141" lon="4.52424">
        <ele>949</ele>
        <time>2022-02-07T23:19:26Z</time>
      </trkpt>
      <trkpt lat="45.0913" lon="4.52397">
        <ele>948</ele>
        <time>2022-02-07T23:19:30Z</time>
      </trkpt>
      <trkpt lat="45.09117" lon="4.52391">
        <ele>947</ele>
        <time>2022-02-07T23:19:32Z</time>
      </trkpt>
      <trkpt lat="45.09102" lon="4.52411">
        <ele>949</ele>
        <time>2022-02-07T23:19:36Z</time>
      </trkpt>
      <trkpt lat="45.0909" lon="4.52466">
        <ele>957</ele>
        <time>2022-02-07T23:19:43Z</time>
      </trkpt>
      <trkpt lat="45.09058" lon="4.52528">
        <ele>963</ele>
        <time>2022-02-07T23:19:53Z</time>
      </trkpt>
      <trkpt lat="45.09033" lon="4.52561">
        <ele>968</ele>
        <time>2022-02-07T23:19:59Z</time>
      </trkpt>
      <trkpt lat="45.08961" lon="4.5258">
        <ele>974</ele>
        <time>2022-02-07T23:20:12Z</time>
      </trkpt>
      <trkpt lat="45.08925" lon="4.52568">
        <ele>972</ele>
        <time>2022-02-07T23:20:18Z</time>
      </trkpt>
      <trkpt lat="45.08888" lon="4.52546">
        <ele>968</ele>
        <time>2022-02-07T23:20:25Z</time>
      </trkpt>
      <trkpt lat="45.08831" lon="4.52535">
        <ele>972</ele>
        <time>2022-02-07T23:20:36Z</time>
      </trkpt>
      <trkpt lat="45.08742" lon="4.52488">
        <ele>963</ele>
        <time>2022-02-07T23:20:52Z</time>
      </trkpt>
      <trkpt lat="45.0864" lon="4.52492">
        <ele>971</ele>
        <time>2022-02-07T23:21:11Z</time>
      </trkpt>
      <trkpt lat="45.08546" lon="4.52446">
        <ele>968</ele>
        <time>2022-02-07T23:21:28Z</time>
      </trkpt>
      <trkpt lat="45.08503" lon="4.52438">
        <ele>974</ele>
        <time>2022-02-07T23:21:36Z</time>
      </trkpt>
      <trkpt lat="45.08487" lon="4.52429">
        <ele>976</ele>
        <time>2022-02-07T23:21:39Z</time>
      </trkpt>
      <trkpt lat="45.08476" lon="4.52394">
        <ele>973</ele>
        <time>2022-02-07T23:21:44Z</time>
      </trkpt>
      <trkpt lat="45.08476" lon="4.52319">
        <ele>961</ele>
        <time>2022-02-07T23:21:53Z</time>
      </trkpt>
      <trkpt lat="45.08471" lon="4.52289">
        <ele>957</ele>
        <time>2022-02-07T23:21:57Z</time>
      </trkpt>
      <trkpt lat="45.08443" lon="4.52262">
        <ele>959</ele>
        <time>2022-02-07T23:22:03Z</time>
      </trkpt>
      <trkpt lat="45.08405" lon="4.52254">
        <ele>965</ele>
        <time>2022-02-07T23:22:10Z</time>
      </trkpt>
      <trkpt lat="45.08368" lon="4.52226">
        <ele>959</ele>
        <time>2022-02-07T23:22:18Z</time>
      </trkpt>
      <trkpt lat="45.08332" lon="4.52223">
        <ele>960</ele>
        <time>2022-02-07T23:22:24Z</time>
      </trkpt>
      <trkpt lat="45.08296" lon="4.52245">
        <ele>958</ele>
        <time>2022-02-07T23:22:31Z</time>
      </trkpt>
      <trkpt lat="45.08259" lon="4.52283">
        <ele>960</ele>
        <time>2022-02-07T23:22:39Z</time>
      </trkpt>
      <trkpt lat="45.08206" lon="4.52351">
        <ele>963</ele>
        <time>2022-02-07T23:22:52Z</time>
      </trkpt>
      <trkpt lat="45.08089" lon="4.5237">
        <ele>949</ele>
        <time>2022-02-07T23:23:13Z</time>
      </trkpt>
      <trkpt lat="45.08067" lon="4.52379">
        <ele>945</ele>
        <time>2022-02-07T23:23:17Z</time>
      </trkpt>
      <trkpt lat="45.0806" lon="4.52388">
        <ele>943</ele>
        <time>2022-02-07T23:23:19Z</time>
      </trkpt>
      <trkpt lat="45.08056" lon="4.52403">
        <ele>943</ele>
        <time>2022-02-07T23:23:21Z</time>
      </trkpt>
      <trkpt lat="45.08066" lon="4.52433">
        <ele>947</ele>
        <time>2022-02-07T23:23:25Z</time>
      </trkpt>
      <trkpt lat="45.08081" lon="4.52452">
        <ele>950</ele>
        <time>2022-02-07T23:23:28Z</time>
      </trkpt>
      <trkpt lat="45.08124" lon="4.52449">
        <ele>958</ele>
        <time>2022-02-07T23:23:36Z</time>
      </trkpt>
      <trkpt lat="45.08148" lon="4.5246">
        <ele>963</ele>
        <time>2022-02-07T23:23:40Z</time>
      </trkpt>
      <trkpt lat="45.08162" lon="4.52478">
        <ele>966</ele>
        <time>2022-02-07T23:23:44Z</time>
      </trkpt>
      <trkpt lat="45.08163" lon="4.52494">
        <ele>967</ele>
        <time>2022-02-07T23:23:46Z</time>
      </trkpt>
      <trkpt lat="45.08158" lon="4.52507">
        <ele>967</ele>
        <time>2022-02-07T23:23:48Z</time>
      </trkpt>
      <trkpt lat="45.08134" lon="4.52528">
        <ele>965</ele>
        <time>2022-02-07T23:23:53Z</time>
      </trkpt>
      <trkpt lat="45.08031" lon="4.52641">
        <ele>960</ele>
        <time>2022-02-07T23:24:16Z</time>
      </trkpt>
      <trkpt lat="45.08016" lon="4.52688">
        <ele>969</ele>
        <time>2022-02-07T23:24:22Z</time>
      </trkpt>
      <trkpt lat="45.08007" lon="4.52705">
        <ele>971</ele>
        <time>2022-02-07T23:24:25Z</time>
      </trkpt>
      <trkpt lat="45.08" lon="4.52711">
        <ele>971</ele>
        <time>2022-02-07T23:24:26Z</time>
      </trkpt>
      <trkpt lat="45.07991" lon="4.52711">
        <ele>971</ele>
        <time>2022-02-07T23:24:28Z</time>
      </trkpt>
      <trkpt lat="45.07953" lon="4.5268">
        <ele>960</ele>
        <time>2022-02-07T23:24:36Z</time>
      </trkpt>
      <trkpt lat="45.0793" lon="4.52672">
        <ele>955</ele>
        <time>2022-02-07T23:24:40Z</time>
      </trkpt>
      <trkpt lat="45.07923" lon="4.52672">
        <ele>955</ele>
        <time>2022-02-07T23:24:41Z</time>
      </trkpt>
      <trkpt lat="45.07879" lon="4.52688">
        <ele>960</ele>
        <time>2022-02-07T23:24:49Z</time>
      </trkpt>
      <trkpt lat="45.07848" lon="4.52693">
        <ele>962</ele>
        <time>2022-02-07T23:24:55Z</time>
      </trkpt>
      <trkpt lat="45.07833" lon="4.52698">
        <ele>963</ele>
        <time>2022-02-07T23:24:58Z</time>
      </trkpt>
      <trkpt lat="45.07822" lon="4.52705">
        <ele>968</ele>
        <time>2022-02-07T23:25:00Z</time>
      </trkpt>
      <trkpt lat="45.07812" lon="4.52706">
        <ele>971</ele>
        <time>2022-02-07T23:25:02Z</time>
      </trkpt>
      <trkpt lat="45.07807" lon="4.52704">
        <ele>972</ele>
        <time>2022-02-07T23:25:03Z</time>
      </trkpt>
      <trkpt lat="45.07801" lon="4.52696">
        <ele>971</ele>
        <time>2022-02-07T23:25:04Z</time>
      </trkpt>
      <trkpt lat="45.07795" lon="4.52681">
        <ele>969</ele>
        <time>2022-02-07T23:25:06Z</time>
      </trkpt>
      <trkpt lat="45.07787" lon="4.52654">
        <ele>966</ele>
        <time>2022-02-07T23:25:10Z</time>
      </trkpt>
      <trkpt lat="45.07787" lon="4.52632">
        <ele>962</ele>
        <time>2022-02-07T23:25:13Z</time>
      </trkpt>
      <trkpt lat="45.07793" lon="4.52598">
        <ele>954</ele>
        <time>2022-02-07T23:25:17Z</time>
      </trkpt>
      <trkpt lat="45.07791" lon="4.52573">
        <ele>951</ele>
        <time>2022-02-07T23:25:20Z</time>
      </trkpt>
      <trkpt lat="45.07784" lon="4.5255">
        <ele>949</ele>
        <time>2022-02-07T23:25:23Z</time>
      </trkpt>
      <trkpt lat="45.07763" lon="4.5252">
        <ele>952</ele>
        <time>2022-02-07T23:25:29Z</time>
      </trkpt>
      <trkpt lat="45.07748" lon="4.52498">
        <ele>954</ele>
        <time>2022-02-07T23:25:33Z</time>
      </trkpt>
      <trkpt lat="45.07734" lon="4.52482">
        <ele>952</ele>
        <time>2022-02-07T23:25:36Z</time>
      </trkpt>
      <trkpt lat="45.07714" lon="4.52465">
        <ele>951</ele>
        <time>2022-02-07T23:25:40Z</time>
      </trkpt>
      <trkpt lat="45.07702" lon="4.5246">
        <ele>952</ele>
        <time>2022-02-07T23:25:42Z</time>
      </trkpt>
      <trkpt lat="45.07672" lon="4.52451">
        <ele>954</ele>
        <time>2022-02-07T23:25:48Z</time>
      </trkpt>
      <trkpt lat="45.07654" lon="4.52449">
        <ele>957</ele>
        <time>2022-02-07T23:25:51Z</time>
      </trkpt>
      <trkpt lat="45.07644" lon="4.52451">
        <ele>960</ele>
        <time>2022-02-07T23:25:53Z</time>
      </trkpt>
      <trkpt lat="45.07632" lon="4.52461">
        <ele>966</ele>
        <time>2022-02-07T23:25:55Z</time>
      </trkpt>
      <trkpt lat="45.07626" lon="4.52463">
        <ele>967</ele>
        <time>2022-02-07T23:25:56Z</time>
      </trkpt>
      <trkpt lat="45.0762" lon="4.52462">
        <ele>969</ele>
        <time>2022-02-07T23:25:57Z</time>
      </trkpt>
      <trkpt lat="45.07614" lon="4.52457">
        <ele>969</ele>
        <time>2022-02-07T23:25:58Z</time>
      </trkpt>
      <trkpt lat="45.0761" lon="4.52447">
        <ele>967</ele>
        <time>2022-02-07T23:26:00Z</time>
      </trkpt>
      <trkpt lat="45.07604" lon="4.52419">
        <ele>962</ele>
        <time>2022-02-07T23:26:04Z</time>
      </trkpt>
      <trkpt lat="45.07593" lon="4.52396">
        <ele>962</ele>
        <time>2022-02-07T23:26:07Z</time>
      </trkpt>
      <trkpt lat="45.07582" lon="4.52379">
        <ele>963</ele>
        <time>2022-02-07T23:26:10Z</time>
      </trkpt>
      <trkpt lat="45.07554" lon="4.52335">
        <ele>959</ele>
        <time>2022-02-07T23:26:17Z</time>
      </trkpt>
      <trkpt lat="45.07541" lon="4.52316">
        <ele>954</ele>
        <time>2022-02-07T23:26:21Z</time>
      </trkpt>
      <trkpt lat="45.07532" lon="4.52309">
        <ele>952</ele>
        <time>2022-02-07T23:26:23Z</time>
      </trkpt>
      <trkpt lat="45.07524" lon="4.52305">
        <ele>951</ele>
        <time>2022-02-07T23:26:24Z</time>
      </trkpt>
      <trkpt lat="45.07505" lon="4.52303">
        <ele>950</ele>
        <time>2022-02-07T23:26:27Z</time>
      </trkpt>
      <trkpt lat="45.07486" lon="4.52307">
        <ele>949</ele>
        <time>2022-02-07T23:26:31Z</time>
      </trkpt>
      <trkpt lat="45.07468" lon="4.52319">
        <ele>950</ele>
        <time>2022-02-07T23:26:34Z</time>
      </trkpt>
      <trkpt lat="45.07438" lon="4.52352">
        <ele>956</ele>
        <time>2022-02-07T23:26:41Z</time>
      </trkpt>
      <trkpt lat="45.07423" lon="4.52371">
        <ele>959</ele>
        <time>2022-02-07T23:26:45Z</time>
      </trkpt>
      <trkpt lat="45.07411" lon="4.52378">
        <ele>959</ele>
        <time>2022-02-07T23:26:47Z</time>
      </trkpt>
      <trkpt lat="45.07383" lon="4.52389">
        <ele>957</ele>
        <time>2022-02-07T23:26:52Z</time>
      </trkpt>
      <trkpt lat="45.07368" lon="4.52399">
        <ele>956</ele>
        <time>2022-02-07T23:26:55Z</time>
      </trkpt>
      <trkpt lat="45.07339" lon="4.52425">
        <ele>957</ele>
        <time>2022-02-07T23:27:01Z</time>
      </trkpt>
      <trkpt lat="45.07324" lon="4.52432">
        <ele>961</ele>
        <time>2022-02-07T23:27:04Z</time>
      </trkpt>
      <trkpt lat="45.07313" lon="4.52433">
        <ele>964</ele>
        <time>2022-02-07T23:27:06Z</time>
      </trkpt>
      <trkpt lat="45.07306" lon="4.52428">
        <ele>965</ele>
        <time>2022-02-07T23:27:07Z</time>
      </trkpt>
      <trkpt lat="45.07299" lon="4.52417">
        <ele>964</ele>
        <time>2022-02-07T23:27:09Z</time>
      </trkpt>
      <trkpt lat="45.07283" lon="4.52366">
        <ele>962</ele>
        <time>2022-02-07T23:27:16Z</time>
      </trkpt>
      <trkpt lat="45.07274" lon="4.52328">
        <ele>961</ele>
        <time>2022-02-07T23:27:21Z</time>
      </trkpt>
      <trkpt lat="45.07259" lon="4.52154">
        <ele>957</ele>
        <time>2022-02-07T23:27:43Z</time>
      </trkpt>
      <trkpt lat="45.07261" lon="4.5208">
        <ele>958</ele>
        <time>2022-02-07T23:27:53Z</time>
      </trkpt>
      <trkpt lat="45.07275" lon="4.51992">
        <ele>949</ele>
        <time>2022-02-07T23:28:04Z</time>
      </trkpt>
      <trkpt lat="45.07275" lon="4.51931">
        <ele>949</ele>
        <time>2022-02-07T23:28:12Z</time>
      </trkpt>
      <trkpt lat="45.0726" lon="4.51754">
        <ele>952</ele>
        <time>2022-02-07T23:28:34Z</time>
      </trkpt>
      <trkpt lat="45.07235" lon="4.51674">
        <ele>950</ele>
        <time>2022-02-07T23:28:45Z</time>
      </trkpt>
      <trkpt lat="45.07202" lon="4.51583">
        <ele>951</ele>
        <time>2022-02-07T23:28:58Z</time>
      </trkpt>
      <trkpt lat="45.07195" lon="4.51554">
        <ele>950</ele>
        <time>2022-02-07T23:29:02Z</time>
      </trkpt>
      <trkpt lat="45.07176" lon="4.51411">
        <ele>945</ele>
        <time>2022-02-07T23:29:20Z</time>
      </trkpt>
      <trkpt lat="45.07169" lon="4.51392">
        <ele>946</ele>
        <time>2022-02-07T23:29:23Z</time>
      </trkpt>
      <trkpt lat="45.07154" lon="4.51366">
        <ele>944</ele>
        <time>2022-02-07T23:29:27Z</time>
      </trkpt>
      <trkpt lat="45.07146" lon="4.5136">
        <ele>942</ele>
        <time>2022-02-07T23:29:29Z</time>
      </trkpt>
      <trkpt lat="45.07134" lon="4.51359">
        <ele>941</ele>
        <time>2022-02-07T23:29:31Z</time>
      </trkpt>
      <trkpt lat="45.07103" lon="4.5138">
        <ele>939</ele>
        <time>2022-02-07T23:29:37Z</time>
      </trkpt>
      <trkpt lat="45.0708" lon="4.51416">
        <ele>942</ele>
        <time>2022-02-07T23:29:43Z</time>
      </trkpt>
      <trkpt lat="45.07056" lon="4.51457">
        <ele>936</ele>
        <time>2022-02-07T23:29:50Z</time>
      </trkpt>
      <trkpt lat="45.07054" lon="4.51474">
        <ele>936</ele>
        <time>2022-02-07T23:29:52Z</time>
      </trkpt>
      <trkpt lat="45.07056" lon="4.51495">
        <ele>938</ele>
        <time>2022-02-07T23:29:54Z</time>
      </trkpt>
      <trkpt lat="45.0707" lon="4.51562">
        <ele>944</ele>
        <time>2022-02-07T23:30:03Z</time>
      </trkpt>
      <trkpt lat="45.07073" lon="4.51606">
        <ele>946</ele>
        <time>2022-02-07T23:30:09Z</time>
      </trkpt>
      <trkpt lat="45.07071" lon="4.51636">
        <ele>947</ele>
        <time>2022-02-07T23:30:13Z</time>
      </trkpt>
      <trkpt lat="45.07064" lon="4.51679">
        <ele>946</ele>
        <time>2022-02-07T23:30:18Z</time>
      </trkpt>
      <trkpt lat="45.0705" lon="4.51726">
        <ele>946</ele>
        <time>2022-02-07T23:30:25Z</time>
      </trkpt>
      <trkpt lat="45.07013" lon="4.51805">
        <ele>945</ele>
        <time>2022-02-07T23:30:36Z</time>
      </trkpt>
      <trkpt lat="45.07003" lon="4.51829">
        <ele>945</ele>
        <time>2022-02-07T23:30:40Z</time>
      </trkpt>
      <trkpt lat="45.06961" lon="4.51895">
        <ele>942</ele>
        <time>2022-02-07T23:30:51Z</time>
      </trkpt>
      <trkpt lat="45.06952" lon="4.51912">
        <ele>941</ele>
        <time>2022-02-07T23:30:54Z</time>
      </trkpt>
      <trkpt lat="45.06946" lon="4.51931">
        <ele>940</ele>
        <time>2022-02-07T23:30:56Z</time>
      </trkpt>
      <trkpt lat="45.06937" lon="4.51982">
        <ele>940</ele>
        <time>2022-02-07T23:31:03Z</time>
      </trkpt>
      <trkpt lat="45.06938" lon="4.52069">
        <ele>939</ele>
        <time>2022-02-07T23:31:14Z</time>
      </trkpt>
      <trkpt lat="45.06943" lon="4.52147">
        <ele>941</ele>
        <time>2022-02-07T23:31:24Z</time>
      </trkpt>
      <trkpt lat="45.06951" lon="4.52219">
        <ele>947</ele>
        <time>2022-02-07T23:31:33Z</time>
      </trkpt>
      <trkpt lat="45.06951" lon="4.52245">
        <ele>948</ele>
        <time>2022-02-07T23:31:36Z</time>
      </trkpt>
      <trkpt lat="45.0694" lon="4.52347">
        <ele>947</ele>
        <time>2022-02-07T23:31:49Z</time>
      </trkpt>
      <trkpt lat="45.06919" lon="4.52431">
        <ele>947</ele>
        <time>2022-02-07T23:32:00Z</time>
      </trkpt>
      <trkpt lat="45.06898" lon="4.52497">
        <ele>952</ele>
        <time>2022-02-07T23:32:09Z</time>
      </trkpt>
      <trkpt lat="45.06887" lon="4.52513">
        <ele>953</ele>
        <time>2022-02-07T23:32:12Z</time>
      </trkpt>
      <trkpt lat="45.06866" lon="4.5253">
        <ele>951</ele>
        <time>2022-02-07T23:32:17Z</time>
      </trkpt>
      <trkpt lat="45.06854" lon="4.52535">
        <ele>949</ele>
        <time>2022-02-07T23:32:19Z</time>
      </trkpt>
      <trkpt lat="45.06842" lon="4.52536">
        <ele>946</ele>
        <time>2022-02-07T23:32:21Z</time>
      </trkpt>
      <trkpt lat="45.0683" lon="4.52529">
        <ele>943</ele>
        <time>2022-02-07T23:32:23Z</time>
      </trkpt>
      <trkpt lat="45.06818" lon="4.52514">
        <ele>943</ele>
        <time>2022-02-07T23:32:26Z</time>
      </trkpt>
      <trkpt lat="45.06707" lon="4.52356">
        <ele>937</ele>
        <time>2022-02-07T23:32:54Z</time>
      </trkpt>
      <trkpt lat="45.06667" lon="4.52308">
        <ele>937</ele>
        <time>2022-02-07T23:33:03Z</time>
      </trkpt>
      <trkpt lat="45.06635" lon="4.52263">
        <ele>929</ele>
        <time>2022-02-07T23:33:11Z</time>
      </trkpt>
      <trkpt lat="45.0662" lon="4.5225">
        <ele>927</ele>
        <time>2022-02-07T23:33:15Z</time>
      </trkpt>
      <trkpt lat="45.06606" lon="4.52244">
        <ele>928</ele>
        <time>2022-02-07T23:33:17Z</time>
      </trkpt>
      <trkpt lat="45.06585" lon="4.52242">
        <ele>931</ele>
        <time>2022-02-07T23:33:21Z</time>
      </trkpt>
      <trkpt lat="45.06565" lon="4.52248">
        <ele>931</ele>
        <time>2022-02-07T23:33:25Z</time>
      </trkpt>
      <trkpt lat="45.06497" lon="4.52282">
        <ele>931</ele>
        <time>2022-02-07T23:33:37Z</time>
      </trkpt>
      <trkpt lat="45.06488" lon="4.52292">
        <ele>931</ele>
        <time>2022-02-07T23:33:39Z</time>
      </trkpt>
      <trkpt lat="45.06482" lon="4.52301">
        <ele>932</ele>
        <time>2022-02-07T23:33:41Z</time>
      </trkpt>
      <trkpt lat="45.06454" lon="4.52359">
        <ele>938</ele>
        <time>2022-02-07T23:33:50Z</time>
      </trkpt>
      <trkpt lat="45.06436" lon="4.524">
        <ele>942</ele>
        <time>2022-02-07T23:33:56Z</time>
      </trkpt>
      <trkpt lat="45.0643" lon="4.52408">
        <ele>942</ele>
        <time>2022-02-07T23:33:57Z</time>
      </trkpt>
      <trkpt lat="45.06421" lon="4.52415">
        <ele>942</ele>
        <time>2022-02-07T23:33:59Z</time>
      </trkpt>
      <trkpt lat="45.06409" lon="4.52416">
        <ele>942</ele>
        <time>2022-02-07T23:34:01Z</time>
      </trkpt>
      <trkpt lat="45.06403" lon="4.52413">
        <ele>942</ele>
        <time>2022-02-07T23:34:02Z</time>
      </trkpt>
      <trkpt lat="45.06343" lon="4.52347">
        <ele>932</ele>
        <time>2022-02-07T23:34:16Z</time>
      </trkpt>
      <trkpt lat="45.06319" lon="4.52305">
        <ele>924</ele>
        <time>2022-02-07T23:34:23Z</time>
      </trkpt>
      <trkpt lat="45.0631" lon="4.52295">
        <ele>922</ele>
        <time>2022-02-07T23:34:25Z</time>
      </trkpt>
      <trkpt lat="45.06295" lon="4.52287">
        <ele>921</ele>
        <time>2022-02-07T23:34:28Z</time>
      </trkpt>
      <trkpt lat="45.0628" lon="4.52283">
        <ele>921</ele>
        <time>2022-02-07T23:34:30Z</time>
      </trkpt>
      <trkpt lat="45.06265" lon="4.52281">
        <ele>921</ele>
        <time>2022-02-07T23:34:33Z</time>
      </trkpt>
      <trkpt lat="45.0625" lon="4.52287">
        <ele>924</ele>
        <time>2022-02-07T23:34:36Z</time>
      </trkpt>
      <trkpt lat="45.06236" lon="4.52299">
        <ele>923</ele>
        <time>2022-02-07T23:34:39Z</time>
      </trkpt>
      <trkpt lat="45.06218" lon="4.52325">
        <ele>924</ele>
        <time>2022-02-07T23:34:43Z</time>
      </trkpt>
      <trkpt lat="45.062" lon="4.52361">
        <ele>926</ele>
        <time>2022-02-07T23:34:49Z</time>
      </trkpt>
      <trkpt lat="45.0619" lon="4.52393">
        <ele>929</ele>
        <time>2022-02-07T23:34:53Z</time>
      </trkpt>
      <trkpt lat="45.06183" lon="4.52406">
        <ele>930</ele>
        <time>2022-02-07T23:34:55Z</time>
      </trkpt>
      <trkpt lat="45.06176" lon="4.52418">
        <ele>930</ele>
        <time>2022-02-07T23:34:57Z</time>
      </trkpt>
      <trkpt lat="45.06161" lon="4.52434">
        <ele>930</ele>
        <time>2022-02-07T23:35:01Z</time>
      </trkpt>
      <trkpt lat="45.06113" lon="4.52473">
        <ele>930</ele>
        <time>2022-02-07T23:35:10Z</time>
      </trkpt>
      <trkpt lat="45.06099" lon="4.52476">
        <ele>928</ele>
        <time>2022-02-07T23:35:13Z</time>
      </trkpt>
      <trkpt lat="45.06084" lon="4.52477">
        <ele>926</ele>
        <time>2022-02-07T23:35:16Z</time>
      </trkpt>
      <trkpt lat="45.0607" lon="4.52481">
        <ele>925</ele>
        <time>2022-02-07T23:35:18Z</time>
      </trkpt>
      <trkpt lat="45.06056" lon="4.52492">
        <ele>925</ele>
        <time>2022-02-07T23:35:21Z</time>
      </trkpt>
      <trkpt lat="45.06046" lon="4.52501">
        <ele>926</ele>
        <time>2022-02-07T23:35:23Z</time>
      </trkpt>
      <trkpt lat="45.06034" lon="4.52514">
        <ele>926</ele>
        <time>2022-02-07T23:35:26Z</time>
      </trkpt>
      <trkpt lat="45.06013" lon="4.52543">
        <ele>927</ele>
        <time>2022-02-07T23:35:31Z</time>
      </trkpt>
      <trkpt lat="45.05949" lon="4.52604">
        <ele>919</ele>
        <time>2022-02-07T23:35:45Z</time>
      </trkpt>
      <trkpt lat="45.05941" lon="4.52619">
        <ele>917</ele>
        <time>2022-02-07T23:35:47Z</time>
      </trkpt>
      <trkpt lat="45.05938" lon="4.52628">
        <ele>916</ele>
        <time>2022-02-07T23:35:48Z</time>
      </trkpt>
      <trkpt lat="45.05939" lon="4.52646">
        <ele>915</ele>
        <time>2022-02-07T23:35:51Z</time>
      </trkpt>
      <trkpt lat="45.05942" lon="4.52663">
        <ele>916</ele>
        <time>2022-02-07T23:35:53Z</time>
      </trkpt>
      <trkpt lat="45.05954" lon="4.52683">
        <ele>918</ele>
        <time>2022-02-07T23:35:56Z</time>
      </trkpt>
      <trkpt lat="45.05973" lon="4.5271">
        <ele>924</ele>
        <time>2022-02-07T23:36:01Z</time>
      </trkpt>
      <trkpt lat="45.05979" lon="4.52727">
        <ele>925</ele>
        <time>2022-02-07T23:36:03Z</time>
      </trkpt>
      <trkpt lat="45.06005" lon="4.52819">
        <ele>930</ele>
        <time>2022-02-07T23:36:16Z</time>
      </trkpt>
      <trkpt lat="45.06009" lon="4.52848">
        <ele>930</ele>
        <time>2022-02-07T23:36:20Z</time>
      </trkpt>
      <trkpt lat="45.06013" lon="4.529">
        <ele>931</ele>
        <time>2022-02-07T23:36:26Z</time>
      </trkpt>
      <trkpt lat="45.06013" lon="4.52919">
        <ele>931</ele>
        <time>2022-02-07T23:36:28Z</time>
      </trkpt>
      <trkpt lat="45.0601" lon="4.52939">
        <ele>930</ele>
        <time>2022-02-07T23:36:31Z</time>
      </trkpt>
      <trkpt lat="45.05991" lon="4.53013">
        <ele>924</ele>
        <time>2022-02-07T23:36:41Z</time>
      </trkpt>
      <trkpt lat="45.05991" lon="4.5306">
        <ele>927</ele>
        <time>2022-02-07T23:36:47Z</time>
      </trkpt>
      <trkpt lat="45.05978" lon="4.53099">
        <ele>925</ele>
        <time>2022-02-07T23:36:52Z</time>
      </trkpt>
      <trkpt lat="45.0595" lon="4.53142">
        <ele>919</ele>
        <time>2022-02-07T23:37:00Z</time>
      </trkpt>
      <trkpt lat="45.05929" lon="4.53191">
        <ele>917</ele>
        <time>2022-02-07T23:37:07Z</time>
      </trkpt>
      <trkpt lat="45.05909" lon="4.53256">
        <ele>918</ele>
        <time>2022-02-07T23:37:16Z</time>
      </trkpt>
      <trkpt lat="45.05895" lon="4.53283">
        <ele>917</ele>
        <time>2022-02-07T23:37:20Z</time>
      </trkpt>
      <trkpt lat="45.05819" lon="4.53292">
        <ele>917</ele>
        <time>2022-02-07T23:37:34Z</time>
      </trkpt>
      <trkpt lat="45.05806" lon="4.53299">
        <ele>919</ele>
        <time>2022-02-07T23:37:36Z</time>
      </trkpt>
      <trkpt lat="45.05784" lon="4.53313">
        <ele>922</ele>
        <time>2022-02-07T23:37:40Z</time>
      </trkpt>
      <trkpt lat="45.05751" lon="4.5331">
        <ele>923</ele>
        <time>2022-02-07T23:37:46Z</time>
      </trkpt>
      <trkpt lat="45.05694" lon="4.53274">
        <ele>926</ele>
        <time>2022-02-07T23:37:57Z</time>
      </trkpt>
      <trkpt lat="45.05665" lon="4.53245">
        <ele>926</ele>
        <time>2022-02-07T23:38:04Z</time>
      </trkpt>
      <trkpt lat="45.05631" lon="4.53214">
        <ele>925</ele>
        <time>2022-02-07T23:38:11Z</time>
      </trkpt>
      <trkpt lat="45.05551" lon="4.53176">
        <ele>922</ele>
        <time>2022-02-07T23:38:26Z</time>
      </trkpt>
      <trkpt lat="45.05535" lon="4.53177">
        <ele>922</ele>
        <time>2022-02-07T23:38:29Z</time>
      </trkpt>
      <trkpt lat="45.05525" lon="4.53177">
        <ele>921</ele>
        <time>2022-02-07T23:38:30Z</time>
      </trkpt>
      <trkpt lat="45.05498" lon="4.532">
        <ele>925</ele>
        <time>2022-02-07T23:38:36Z</time>
      </trkpt>
      <trkpt lat="45.05469" lon="4.53251">
        <ele>928</ele>
        <time>2022-02-07T23:38:44Z</time>
      </trkpt>
      <trkpt lat="45.05446" lon="4.53311">
        <ele>939</ele>
        <time>2022-02-07T23:38:53Z</time>
      </trkpt>
      <trkpt lat="45.05406" lon="4.53352">
        <ele>942</ele>
        <time>2022-02-07T23:39:02Z</time>
      </trkpt>
      <trkpt lat="45.05344" lon="4.53375">
        <ele>941</ele>
        <time>2022-02-07T23:39:13Z</time>
      </trkpt>
      <trkpt lat="45.05294" lon="4.53383">
        <ele>942</ele>
        <time>2022-02-07T23:39:22Z</time>
      </trkpt>
      <trkpt lat="45.05274" lon="4.53402">
        <ele>947</ele>
        <time>2022-02-07T23:39:26Z</time>
      </trkpt>
      <trkpt lat="45.05258" lon="4.53403">
        <ele>947</ele>
        <time>2022-02-07T23:39:29Z</time>
      </trkpt>
      <trkpt lat="45.05229" lon="4.5338">
        <ele>944</ele>
        <time>2022-02-07T23:39:35Z</time>
      </trkpt>
      <trkpt lat="45.05122" lon="4.53323">
        <ele>955</ele>
        <time>2022-02-07T23:39:55Z</time>
      </trkpt>
      <trkpt lat="45.05108" lon="4.53278">
        <ele>952</ele>
        <time>2022-02-07T23:40:02Z</time>
      </trkpt>
      <trkpt lat="45.05078" lon="4.53124">
        <ele>948</ele>
        <time>2022-02-07T23:40:22Z</time>
      </trkpt>
      <trkpt lat="45.05044" lon="4.5303">
        <ele>952</ele>
        <time>2022-02-07T23:40:35Z</time>
      </trkpt>
      <trkpt lat="45.05" lon="4.52968">
        <ele>955</ele>
        <time>2022-02-07T23:40:46Z</time>
      </trkpt>
      <trkpt lat="45.04989" lon="4.52924">
        <ele>950</ele>
        <time>2022-02-07T23:40:52Z</time>
      </trkpt>
      <trkpt lat="45.04967" lon="4.52882">
        <ele>947</ele>
        <time>2022-02-07T23:40:58Z</time>
      </trkpt>
      <trkpt lat="45.04924" lon="4.52844">
        <ele>952</ele>
        <time>2022-02-07T23:41:07Z</time>
      </trkpt>
      <trkpt lat="45.04895" lon="4.52804">
        <ele>951</ele>
        <time>2022-02-07T23:41:15Z</time>
      </trkpt>
      <trkpt lat="45.04841" lon="4.52769">
        <ele>961</ele>
        <time>2022-02-07T23:41:25Z</time>
      </trkpt>
      <trkpt lat="45.04804" lon="4.52732">
        <ele>968</ele>
        <time>2022-02-07T23:41:33Z</time>
      </trkpt>
      <trkpt lat="45.04798" lon="4.52703">
        <ele>968</ele>
        <time>2022-02-07T23:41:37Z</time>
      </trkpt>
      <trkpt lat="45.04808" lon="4.52647">
        <ele>962</ele>
        <time>2022-02-07T23:41:44Z</time>
      </trkpt>
      <trkpt lat="45.04826" lon="4.5256">
        <ele>960</ele>
        <time>2022-02-07T23:41:56Z</time>
      </trkpt>
      <trkpt lat="45.04835" lon="4.52476">
        <ele>957</ele>
        <time>2022-02-07T23:42:06Z</time>
      </trkpt>
      <trkpt lat="45.04827" lon="4.5243">
        <ele>956</ele>
        <time>2022-02-07T23:42:12Z</time>
      </trkpt>
      <trkpt lat="45.04813" lon="4.52406">
        <ele>955</ele>
        <time>2022-02-07T23:42:16Z</time>
      </trkpt>
      <trkpt lat="45.04788" lon="4.52393">
        <ele>956</ele>
        <time>2022-02-07T23:42:21Z</time>
      </trkpt>
      <trkpt lat="45.04766" lon="4.52375">
        <ele>956</ele>
        <time>2022-02-07T23:42:26Z</time>
      </trkpt>
      <trkpt lat="45.04746" lon="4.52353">
        <ele>954</ele>
        <time>2022-02-07T23:42:30Z</time>
      </trkpt>
      <trkpt lat="45.04728" lon="4.52358">
        <ele>953</ele>
        <time>2022-02-07T23:42:33Z</time>
      </trkpt>
      <trkpt lat="45.04688" lon="4.52401">
        <ele>958</ele>
        <time>2022-02-07T23:42:42Z</time>
      </trkpt>
      <trkpt lat="45.04653" lon="4.52422">
        <ele>959</ele>
        <time>2022-02-07T23:42:49Z</time>
      </trkpt>
      <trkpt lat="45.04587" lon="4.52457">
        <ele>959</ele>
        <time>2022-02-07T23:43:02Z</time>
      </trkpt>
      <trkpt lat="45.04554" lon="4.52469">
        <ele>958</ele>
        <time>2022-02-07T23:43:08Z</time>
      </trkpt>
      <trkpt lat="45.0453" lon="4.52473">
        <ele>956</ele>
        <time>2022-02-07T23:43:12Z</time>
      </trkpt>
      <trkpt lat="45.04508" lon="4.52486">
        <ele>957</ele>
        <time>2022-02-07T23:43:16Z</time>
      </trkpt>
      <trkpt lat="45.04422" lon="4.52566">
        <ele>964</ele>
        <time>2022-02-07T23:43:34Z</time>
      </trkpt>
      <trkpt lat="45.04398" lon="4.52579">
        <ele>967</ele>
        <time>2022-02-07T23:43:39Z</time>
      </trkpt>
      <trkpt lat="45.04388" lon="4.52581">
        <ele>968</ele>
        <time>2022-02-07T23:43:41Z</time>
      </trkpt>
      <trkpt lat="45.04377" lon="4.52569">
        <ele>968</ele>
        <time>2022-02-07T23:43:43Z</time>
      </trkpt>
      <trkpt lat="45.04378" lon="4.5254">
        <ele>965</ele>
        <time>2022-02-07T23:43:47Z</time>
      </trkpt>
      <trkpt lat="45.04377" lon="4.5252">
        <ele>963</ele>
        <time>2022-02-07T23:43:49Z</time>
      </trkpt>
      <trkpt lat="45.04372" lon="4.52505">
        <ele>962</ele>
        <time>2022-02-07T23:43:52Z</time>
      </trkpt>
      <trkpt lat="45.04364" lon="4.52488">
        <ele>961</ele>
        <time>2022-02-07T23:43:54Z</time>
      </trkpt>
      <trkpt lat="45.04309" lon="4.52438">
        <ele>960</ele>
        <time>2022-02-07T23:44:06Z</time>
      </trkpt>
      <trkpt lat="45.04276" lon="4.52426">
        <ele>962</ele>
        <time>2022-02-07T23:44:12Z</time>
      </trkpt>
      <trkpt lat="45.04239" lon="4.52428">
        <ele>965</ele>
        <time>2022-02-07T23:44:18Z</time>
      </trkpt>
      <trkpt lat="45.04217" lon="4.52422">
        <ele>966</ele>
        <time>2022-02-07T23:44:22Z</time>
      </trkpt>
      <trkpt lat="45.04184" lon="4.52412">
        <ele>966</ele>
        <time>2022-02-07T23:44:28Z</time>
      </trkpt>
      <trkpt lat="45.0415" lon="4.5241">
        <ele>969</ele>
        <time>2022-02-07T23:44:34Z</time>
      </trkpt>
      <trkpt lat="45.04114" lon="4.52393">
        <ele>969</ele>
        <time>2022-02-07T23:44:41Z</time>
      </trkpt>
      <trkpt lat="45.04052" lon="4.52355">
        <ele>967</ele>
        <time>2022-02-07T23:44:53Z</time>
      </trkpt>
      <trkpt lat="45.03992" lon="4.52317">
        <ele>966</ele>
        <time>2022-02-07T23:45:05Z</time>
      </trkpt>
      <trkpt lat="45.03965" lon="4.52311">
        <ele>962</ele>
        <time>2022-02-07T23:45:10Z</time>
      </trkpt>
      <trkpt lat="45.03956" lon="4.52316">
        <ele>961</ele>
        <time>2022-02-07T23:45:11Z</time>
      </trkpt>
      <trkpt lat="45.03944" lon="4.52326">
        <ele>960</ele>
        <time>2022-02-07T23:45:14Z</time>
      </trkpt>
      <trkpt lat="45.03938" lon="4.52345">
        <ele>960</ele>
        <time>2022-02-07T23:45:17Z</time>
      </trkpt>
      <trkpt lat="45.03931" lon="4.52364">
        <ele>960</ele>
        <time>2022-02-07T23:45:19Z</time>
      </trkpt>
      <trkpt lat="45.03936" lon="4.52403">
        <ele>962</ele>
        <time>2022-02-07T23:45:24Z</time>
      </trkpt>
      <trkpt lat="45.03971" lon="4.52474">
        <ele>971</ele>
        <time>2022-02-07T23:45:35Z</time>
      </trkpt>
      <trkpt lat="45.03978" lon="4.52519">
        <ele>973</ele>
        <time>2022-02-07T23:45:41Z</time>
      </trkpt>
      <trkpt lat="45.03988" lon="4.52562">
        <ele>977</ele>
        <time>2022-02-07T23:45:47Z</time>
      </trkpt>
      <trkpt lat="45.03978" lon="4.52634">
        <ele>974</ele>
        <time>2022-02-07T23:45:56Z</time>
      </trkpt>
      <trkpt lat="45.03962" lon="4.52691">
        <ele>968</ele>
        <time>2022-02-07T23:46:04Z</time>
      </trkpt>
      <trkpt lat="45.03961" lon="4.52728">
        <ele>970</ele>
        <time>2022-02-07T23:46:08Z</time>
      </trkpt>
      <trkpt lat="45.03968" lon="4.52826">
        <ele>975</ele>
        <time>2022-02-07T23:46:21Z</time>
      </trkpt>
      <trkpt lat="45.03961" lon="4.52897">
        <ele>973</ele>
        <time>2022-02-07T23:46:30Z</time>
      </trkpt>
      <trkpt lat="45.03946" lon="4.52967">
        <ele>970</ele>
        <time>2022-02-07T23:46:39Z</time>
      </trkpt>
      <trkpt lat="45.0394" lon="4.53096">
        <ele>966</ele>
        <time>2022-02-07T23:46:55Z</time>
      </trkpt>
      <trkpt lat="45.0395" lon="4.53159">
        <ele>967</ele>
        <time>2022-02-07T23:47:03Z</time>
      </trkpt>
      <trkpt lat="45.03953" lon="4.53182">
        <ele>967</ele>
        <time>2022-02-07T23:47:06Z</time>
      </trkpt>
      <trkpt lat="45.03965" lon="4.53217">
        <ele>969</ele>
        <time>2022-02-07T23:47:11Z</time>
      </trkpt>
      <trkpt lat="45.03992" lon="4.53288">
        <ele>975</ele>
        <time>2022-02-07T23:47:21Z</time>
      </trkpt>
      <trkpt lat="45.04005" lon="4.53334">
        <ele>975</ele>
        <time>2022-02-07T23:47:27Z</time>
      </trkpt>
      <trkpt lat="45.04009" lon="4.53396">
        <ele>976</ele>
        <time>2022-02-07T23:47:35Z</time>
      </trkpt>
      <trkpt lat="45.03999" lon="4.53445">
        <ele>973</ele>
        <time>2022-02-07T23:47:42Z</time>
      </trkpt>
      <trkpt lat="45.03984" lon="4.53484">
        <ele>972</ele>
        <time>2022-02-07T23:47:47Z</time>
      </trkpt>
      <trkpt lat="45.03967" lon="4.53509">
        <ele>970</ele>
        <time>2022-02-07T23:47:52Z</time>
      </trkpt>
      <trkpt lat="45.03937" lon="4.53542">
        <ele>966</ele>
        <time>2022-02-07T23:47:58Z</time>
      </trkpt>
      <trkpt lat="45.03919" lon="4.53573">
        <ele>967</ele>
        <time>2022-02-07T23:48:03Z</time>
      </trkpt>
      <trkpt lat="45.03905" lon="4.5361">
        <ele>967</ele>
        <time>2022-02-07T23:48:09Z</time>
      </trkpt>
      <trkpt lat="45.03897" lon="4.53628">
        <ele>967</ele>
        <time>2022-02-07T23:48:11Z</time>
      </trkpt>
      <trkpt lat="45.03871" lon="4.53672">
        <ele>968</ele>
        <time>2022-02-07T23:48:19Z</time>
      </trkpt>
      <trkpt lat="45.03854" lon="4.53686">
        <ele>968</ele>
        <time>2022-02-07T23:48:22Z</time>
      </trkpt>
      <trkpt lat="45.03824" lon="4.53698">
        <ele>968</ele>
        <time>2022-02-07T23:48:28Z</time>
      </trkpt>
      <trkpt lat="45.03792" lon="4.537">
        <ele>970</ele>
        <time>2022-02-07T23:48:33Z</time>
      </trkpt>
      <trkpt lat="45.03762" lon="4.53696">
        <ele>971</ele>
        <time>2022-02-07T23:48:39Z</time>
      </trkpt>
      <trkpt lat="45.03745" lon="4.53677">
        <ele>970</ele>
        <time>2022-02-07T23:48:42Z</time>
      </trkpt>
      <trkpt lat="45.03723" lon="4.53636">
        <ele>967</ele>
        <time>2022-02-07T23:48:49Z</time>
      </trkpt>
      <trkpt lat="45.03685" lon="4.5359">
        <ele>966</ele>
        <time>2022-02-07T23:48:58Z</time>
      </trkpt>
      <trkpt lat="45.03664" lon="4.53577">
        <ele>967</ele>
        <time>2022-02-07T23:49:02Z</time>
      </trkpt>
      <trkpt lat="45.03593" lon="4.53568">
        <ele>971</ele>
        <time>2022-02-07T23:49:15Z</time>
      </trkpt>
      <trkpt lat="45.03537" lon="4.53534">
        <ele>970</ele>
        <time>2022-02-07T23:49:25Z</time>
      </trkpt>
      <trkpt lat="45.03535" lon="4.53533">
        <ele>970</ele>
        <time>2022-02-07T23:49:26Z</time>
      </trkpt>
      <trkpt lat="45.03502" lon="4.53516">
        <ele>971</ele>
        <time>2022-02-07T23:49:32Z</time>
      </trkpt>
      <trkpt lat="45.03393" lon="4.53479">
        <ele>969</ele>
        <time>2022-02-07T23:49:52Z</time>
      </trkpt>
      <trkpt lat="45.03345" lon="4.53455">
        <ele>968</ele>
        <time>2022-02-07T23:50:01Z</time>
      </trkpt>
      <trkpt lat="45.03326" lon="4.53449">
        <ele>968</ele>
        <time>2022-02-07T23:50:05Z</time>
      </trkpt>
      <trkpt lat="45.03305" lon="4.53454">
        <ele>968</ele>
        <time>2022-02-07T23:50:08Z</time>
      </trkpt>
      <trkpt lat="45.03295" lon="4.53471">
        <ele>968</ele>
        <time>2022-02-07T23:50:11Z</time>
      </trkpt>
      <trkpt lat="45.03283" lon="4.53503">
        <ele>968</ele>
        <time>2022-02-07T23:50:16Z</time>
      </trkpt>
      <trkpt lat="45.03278" lon="4.53513">
        <ele>968</ele>
        <time>2022-02-07T23:50:17Z</time>
      </trkpt>
      <trkpt lat="45.03255" lon="4.53622">
        <ele>966</ele>
        <time>2022-02-07T23:50:32Z</time>
      </trkpt>
      <trkpt lat="45.03244" lon="4.53644">
        <ele>965</ele>
        <time>2022-02-07T23:50:35Z</time>
      </trkpt>
      <trkpt lat="45.03223" lon="4.53682">
        <ele>961</ele>
        <time>2022-02-07T23:50:41Z</time>
      </trkpt>
      <trkpt lat="45.03186" lon="4.53743">
        <ele>957</ele>
        <time>2022-02-07T23:50:51Z</time>
      </trkpt>
      <trkpt lat="45.03164" lon="4.53775">
        <ele>956</ele>
        <time>2022-02-07T23:50:57Z</time>
      </trkpt>
      <trkpt lat="45.03148" lon="4.53794">
        <ele>956</ele>
        <time>2022-02-07T23:51:00Z</time>
      </trkpt>
      <trkpt lat="45.03126" lon="4.53801">
        <ele>954</ele>
        <time>2022-02-07T23:51:04Z</time>
      </trkpt>
      <trkpt lat="45.03091" lon="4.53803">
        <ele>951</ele>
        <time>2022-02-07T23:51:11Z</time>
      </trkpt>
      <trkpt lat="45.03046" lon="4.53816">
        <ele>949</ele>
        <time>2022-02-07T23:51:19Z</time>
      </trkpt>
      <trkpt lat="45.03004" lon="4.53828">
        <ele>948</ele>
        <time>2022-02-07T23:51:26Z</time>
      </trkpt>
      <trkpt lat="45.02976" lon="4.5383">
        <ele>945</ele>
        <time>2022-02-07T23:51:31Z</time>
      </trkpt>
      <trkpt lat="45.02957" lon="4.53833">
        <ele>943</ele>
        <time>2022-02-07T23:51:35Z</time>
      </trkpt>
      <trkpt lat="45.02946" lon="4.53841">
        <ele>942</ele>
        <time>2022-02-07T23:51:37Z</time>
      </trkpt>
      <trkpt lat="45.02936" lon="4.53854">
        <ele>941</ele>
        <time>2022-02-07T23:51:39Z</time>
      </trkpt>
      <trkpt lat="45.02929" lon="4.53872">
        <ele>940</ele>
        <time>2022-02-07T23:51:42Z</time>
      </trkpt>
      <trkpt lat="45.02927" lon="4.53893">
        <ele>940</ele>
        <time>2022-02-07T23:51:45Z</time>
      </trkpt>
      <trkpt lat="45.02933" lon="4.53928">
        <ele>940</ele>
        <time>2022-02-07T23:51:49Z</time>
      </trkpt>
      <trkpt lat="45.02964" lon="4.53999">
        <ele>937</ele>
        <time>2022-02-07T23:52:00Z</time>
      </trkpt>
      <trkpt lat="45.02981" lon="4.54034">
        <ele>935</ele>
        <time>2022-02-07T23:52:05Z</time>
      </trkpt>
      <trkpt lat="45.02999" lon="4.54057">
        <ele>935</ele>
        <time>2022-02-07T23:52:09Z</time>
      </trkpt>
      <trkpt lat="45.03024" lon="4.54075">
        <ele>938</ele>
        <time>2022-02-07T23:52:14Z</time>
      </trkpt>
      <trkpt lat="45.03031" lon="4.54086">
        <ele>938</ele>
        <time>2022-02-07T23:52:16Z</time>
      </trkpt>
      <trkpt lat="45.03034" lon="4.54107">
        <ele>938</ele>
        <time>2022-02-07T23:52:19Z</time>
      </trkpt>
      <trkpt lat="45.0303" lon="4.54123">
        <ele>937</ele>
        <time>2022-02-07T23:52:21Z</time>
      </trkpt>
      <trkpt lat="45.0302" lon="4.54153">
        <ele>934</ele>
        <time>2022-02-07T23:52:25Z</time>
      </trkpt>
      <trkpt lat="45.02997" lon="4.5422">
        <ele>929</ele>
        <time>2022-02-07T23:52:35Z</time>
      </trkpt>
      <trkpt lat="45.02989" lon="4.54237">
        <ele>929</ele>
        <time>2022-02-07T23:52:37Z</time>
      </trkpt>
      <trkpt lat="45.0298" lon="4.5425">
        <ele>929</ele>
        <time>2022-02-07T23:52:39Z</time>
      </trkpt>
      <trkpt lat="45.02958" lon="4.54271">
        <ele>927</ele>
        <time>2022-02-07T23:52:44Z</time>
      </trkpt>
      <trkpt lat="45.02943" lon="4.54281">
        <ele>926</ele>
        <time>2022-02-07T23:52:47Z</time>
      </trkpt>
      <trkpt lat="45.02918" lon="4.54296">
        <ele>923</ele>
        <time>2022-02-07T23:52:52Z</time>
      </trkpt>
      <trkpt lat="45.02915" lon="4.54298">
        <ele>923</ele>
        <time>2022-02-07T23:52:53Z</time>
      </trkpt>
      <trkpt lat="45.02903" lon="4.54303">
        <ele>923</ele>
        <time>2022-02-07T23:52:55Z</time>
      </trkpt>
      <trkpt lat="45.02876" lon="4.54312">
        <ele>921</ele>
        <time>2022-02-07T23:53:00Z</time>
      </trkpt>
      <trkpt lat="45.02853" lon="4.54293">
        <ele>919</ele>
        <time>2022-02-07T23:53:04Z</time>
      </trkpt>
      <trkpt lat="45.02846" lon="4.54292">
        <ele>919</ele>
        <time>2022-02-07T23:53:06Z</time>
      </trkpt>
      <trkpt lat="45.02835" lon="4.54293">
        <ele>918</ele>
        <time>2022-02-07T23:53:08Z</time>
      </trkpt>
      <trkpt lat="45.02825" lon="4.54297">
        <ele>918</ele>
        <time>2022-02-07T23:53:10Z</time>
      </trkpt>
      <trkpt lat="45.02813" lon="4.54308">
        <ele>917</ele>
        <time>2022-02-07T23:53:12Z</time>
      </trkpt>
      <trkpt lat="45.02799" lon="4.54323">
        <ele>916</ele>
        <time>2022-02-07T23:53:15Z</time>
      </trkpt>
      <trkpt lat="45.02793" lon="4.54327">
        <ele>916</ele>
        <time>2022-02-07T23:53:16Z</time>
      </trkpt>
      <trkpt lat="45.0277" lon="4.54334">
        <ele>915</ele>
        <time>2022-02-07T23:53:21Z</time>
      </trkpt>
      <trkpt lat="45.02731" lon="4.54345">
        <ele>911</ele>
        <time>2022-02-07T23:53:28Z</time>
      </trkpt>
      <trkpt lat="45.02693" lon="4.54359">
        <ele>909</ele>
        <time>2022-02-07T23:53:35Z</time>
      </trkpt>
      <trkpt lat="45.02675" lon="4.54369">
        <ele>908</ele>
        <time>2022-02-07T23:53:38Z</time>
      </trkpt>
      <trkpt lat="45.0266" lon="4.54391">
        <ele>906</ele>
        <time>2022-02-07T23:53:42Z</time>
      </trkpt>
      <trkpt lat="45.02643" lon="4.54439">
        <ele>902</ele>
        <time>2022-02-07T23:53:49Z</time>
      </trkpt>
      <trkpt lat="45.02615" lon="4.54525">
        <ele>895</ele>
        <time>2022-02-07T23:54:01Z</time>
      </trkpt>
      <trkpt lat="45.02602" lon="4.54567">
        <ele>893</ele>
        <time>2022-02-07T23:54:06Z</time>
      </trkpt>
      <trkpt lat="45.02595" lon="4.5459">
        <ele>891</ele>
        <time>2022-02-07T23:54:09Z</time>
      </trkpt>
      <trkpt lat="45.02585" lon="4.54619">
        <ele>888</ele>
        <time>2022-02-07T23:54:14Z</time>
      </trkpt>
      <trkpt lat="45.02565" lon="4.54658">
        <ele>884</ele>
        <time>2022-02-07T23:54:20Z</time>
      </trkpt>
      <trkpt lat="45.02473" lon="4.54787">
        <ele>868</ele>
        <time>2022-02-07T23:54:43Z</time>
      </trkpt>
      <trkpt lat="45.02455" lon="4.54808">
        <ele>864</ele>
        <time>2022-02-07T23:54:47Z</time>
      </trkpt>
      <trkpt lat="45.02432" lon="4.54822">
        <ele>862</ele>
        <time>2022-02-07T23:54:51Z</time>
      </trkpt>
      <trkpt lat="45.02423" lon="4.54823">
        <ele>863</ele>
        <time>2022-02-07T23:54:53Z</time>
      </trkpt>
      <trkpt lat="45.02413" lon="4.54823">
        <ele>863</ele>
        <time>2022-02-07T23:54:55Z</time>
      </trkpt>
      <trkpt lat="45.02378" lon="4.54813">
        <ele>865</ele>
        <time>2022-02-07T23:55:01Z</time>
      </trkpt>
      <trkpt lat="45.02365" lon="4.54812">
        <ele>865</ele>
        <time>2022-02-07T23:55:03Z</time>
      </trkpt>
      <trkpt lat="45.02355" lon="4.54814">
        <ele>864</ele>
        <time>2022-02-07T23:55:05Z</time>
      </trkpt>
      <trkpt lat="45.02339" lon="4.54828">
        <ele>861</ele>
        <time>2022-02-07T23:55:08Z</time>
      </trkpt>
      <trkpt lat="45.02332" lon="4.5484">
        <ele>859</ele>
        <time>2022-02-07T23:55:10Z</time>
      </trkpt>
      <trkpt lat="45.02322" lon="4.54871">
        <ele>853</ele>
        <time>2022-02-07T23:55:15Z</time>
      </trkpt>
      <trkpt lat="45.02307" lon="4.54904">
        <ele>847</ele>
        <time>2022-02-07T23:55:20Z</time>
      </trkpt>
      <trkpt lat="45.02292" lon="4.54924">
        <ele>844</ele>
        <time>2022-02-07T23:55:23Z</time>
      </trkpt>
      <trkpt lat="45.0228" lon="4.54935">
        <ele>842</ele>
        <time>2022-02-07T23:55:26Z</time>
      </trkpt>
      <trkpt lat="45.02267" lon="4.54937">
        <ele>842</ele>
        <time>2022-02-07T23:55:28Z</time>
      </trkpt>
      <trkpt lat="45.02254" lon="4.54935">
        <ele>843</ele>
        <time>2022-02-07T23:55:31Z</time>
      </trkpt>
      <trkpt lat="45.02244" lon="4.54924">
        <ele>846</ele>
        <time>2022-02-07T23:55:33Z</time>
      </trkpt>
      <trkpt lat="45.02231" lon="4.54902">
        <ele>850</ele>
        <time>2022-02-07T23:55:36Z</time>
      </trkpt>
      <trkpt lat="45.02223" lon="4.54894">
        <ele>852</ele>
        <time>2022-02-07T23:55:38Z</time>
      </trkpt>
      <trkpt lat="45.02214" lon="4.54891">
        <ele>852</ele>
        <time>2022-02-07T23:55:40Z</time>
      </trkpt>
      <trkpt lat="45.02202" lon="4.54894">
        <ele>852</ele>
        <time>2022-02-07T23:55:42Z</time>
      </trkpt>
      <trkpt lat="45.02156" lon="4.54939">
        <ele>842</ele>
        <time>2022-02-07T23:55:52Z</time>
      </trkpt>
      <trkpt lat="45.02106" lon="4.54981">
        <ele>840</ele>
        <time>2022-02-07T23:56:02Z</time>
      </trkpt>
      <trkpt lat="45.02077" lon="4.55015">
        <ele>837</ele>
        <time>2022-02-07T23:56:09Z</time>
      </trkpt>
      <trkpt lat="45.02055" lon="4.55047">
        <ele>835</ele>
        <time>2022-02-07T23:56:15Z</time>
      </trkpt>
      <trkpt lat="45.02036" lon="4.55089">
        <ele>829</ele>
        <time>2022-02-07T23:56:21Z</time>
      </trkpt>
      <trkpt lat="45.02015" lon="4.55142">
        <ele>821</ele>
        <time>2022-02-07T23:56:28Z</time>
      </trkpt>
      <trkpt lat="45.02009" lon="4.55155">
        <ele>819</ele>
        <time>2022-02-07T23:56:30Z</time>
      </trkpt>
      <trkpt lat="45.02003" lon="4.5517">
        <ele>818</ele>
        <time>2022-02-07T23:56:33Z</time>
      </trkpt>
      <trkpt lat="45.02001" lon="4.55176">
        <ele>817</ele>
        <time>2022-02-07T23:56:33Z</time>
      </trkpt>
      <trkpt lat="45.01993" lon="4.55185">
        <ele>815</ele>
        <time>2022-02-07T23:56:35Z</time>
      </trkpt>
      <trkpt lat="45.01986" lon="4.55189">
        <ele>813</ele>
        <time>2022-02-07T23:56:37Z</time>
      </trkpt>
      <trkpt lat="45.01974" lon="4.55189">
        <ele>812</ele>
        <time>2022-02-07T23:56:39Z</time>
      </trkpt>
      <trkpt lat="45.01961" lon="4.55185">
        <ele>811</ele>
        <time>2022-02-07T23:56:41Z</time>
      </trkpt>
      <trkpt lat="45.01944" lon="4.55172">
        <ele>811</ele>
        <time>2022-02-07T23:56:45Z</time>
      </trkpt>
      <trkpt lat="45.01928" lon="4.55156">
        <ele>813</ele>
        <time>2022-02-07T23:56:48Z</time>
      </trkpt>
      <trkpt lat="45.01907" lon="4.5513">
        <ele>817</ele>
        <time>2022-02-07T23:56:53Z</time>
      </trkpt>
      <trkpt lat="45.01891" lon="4.55117">
        <ele>815</ele>
        <time>2022-02-07T23:56:56Z</time>
      </trkpt>
      <trkpt lat="45.01853" lon="4.55092">
        <ele>810</ele>
        <time>2022-02-07T23:57:04Z</time>
      </trkpt>
      <trkpt lat="45.01817" lon="4.55071">
        <ele>804</ele>
        <time>2022-02-07T23:57:11Z</time>
      </trkpt>
      <trkpt lat="45.01805" lon="4.5506">
        <ele>802</ele>
        <time>2022-02-07T23:57:13Z</time>
      </trkpt>
      <trkpt lat="45.01787" lon="4.55033">
        <ele>800</ele>
        <time>2022-02-07T23:57:18Z</time>
      </trkpt>
      <trkpt lat="45.01781" lon="4.55011">
        <ele>802</ele>
        <time>2022-02-07T23:57:21Z</time>
      </trkpt>
      <trkpt lat="45.01777" lon="4.54989">
        <ele>803</ele>
        <time>2022-02-07T23:57:24Z</time>
      </trkpt>
      <trkpt lat="45.01772" lon="4.54941">
        <ele>804</ele>
        <time>2022-02-07T23:57:30Z</time>
      </trkpt>
      <trkpt lat="45.01767" lon="4.54926">
        <ele>803</ele>
        <time>2022-02-07T23:57:32Z</time>
      </trkpt>
      <trkpt lat="45.01737" lon="4.54864">
        <ele>801</ele>
        <time>2022-02-07T23:57:41Z</time>
      </trkpt>
      <trkpt lat="45.01728" lon="4.54846">
        <ele>802</ele>
        <time>2022-02-07T23:57:44Z</time>
      </trkpt>
      <trkpt lat="45.01721" lon="4.54837">
        <ele>802</ele>
        <time>2022-02-07T23:57:46Z</time>
      </trkpt>
      <trkpt lat="45.01712" lon="4.54834">
        <ele>801</ele>
        <time>2022-02-07T23:57:47Z</time>
      </trkpt>
      <trkpt lat="45.01686" lon="4.54835">
        <ele>794</ele>
        <time>2022-02-07T23:57:52Z</time>
      </trkpt>
      <trkpt lat="45.0162" lon="4.54859">
        <ele>784</ele>
        <time>2022-02-07T23:58:04Z</time>
      </trkpt>
      <trkpt lat="45.01593" lon="4.54871">
        <ele>781</ele>
        <time>2022-02-07T23:58:09Z</time>
      </trkpt>
      <trkpt lat="45.01578" lon="4.54891">
        <ele>776</ele>
        <time>2022-02-07T23:58:13Z</time>
      </trkpt>
      <trkpt lat="45.01563" lon="4.54914">
        <ele>772</ele>
        <time>2022-02-07T23:58:17Z</time>
      </trkpt>
      <trkpt lat="45.01549" lon="4.54931">
        <ele>769</ele>
        <time>2022-02-07T23:58:20Z</time>
      </trkpt>
      <trkpt lat="45.01487" lon="4.54997">
        <ele>762</ele>
        <time>2022-02-07T23:58:34Z</time>
      </trkpt>
      <trkpt lat="45.01469" lon="4.55011">
        <ele>758</ele>
        <time>2022-02-07T23:58:38Z</time>
      </trkpt>
      <trkpt lat="45.01457" lon="4.55015">
        <ele>757</ele>
        <time>2022-02-07T23:58:40Z</time>
      </trkpt>
      <trkpt lat="45.01436" lon="4.55015">
        <ele>758</ele>
        <time>2022-02-07T23:58:43Z</time>
      </trkpt>
      <trkpt lat="45.01407" lon="4.55007">
        <ele>759</ele>
        <time>2022-02-07T23:58:49Z</time>
      </trkpt>
      <trkpt lat="45.01394" lon="4.55009">
        <ele>758</ele>
        <time>2022-02-07T23:58:51Z</time>
      </trkpt>
      <trkpt lat="45.01365" lon="4.55033">
        <ele>752</ele>
        <time>2022-02-07T23:58:57Z</time>
      </trkpt>
      <trkpt lat="45.01343" lon="4.55045">
        <ele>751</ele>
        <time>2022-02-07T23:59:01Z</time>
      </trkpt>
      <trkpt lat="45.01329" lon="4.55046">
        <ele>751</ele>
        <time>2022-02-07T23:59:04Z</time>
      </trkpt>
      <trkpt lat="45.01287" lon="4.55055">
        <ele>746</ele>
        <time>2022-02-07T23:59:11Z</time>
      </trkpt>
      <trkpt lat="45.01271" lon="4.55064">
        <ele>746</ele>
        <time>2022-02-07T23:59:14Z</time>
      </trkpt>
      <trkpt lat="45.01256" lon="4.55075">
        <ele>746</ele>
        <time>2022-02-07T23:59:17Z</time>
      </trkpt>
      <trkpt lat="45.01246" lon="4.55084">
        <ele>746</ele>
        <time>2022-02-07T23:59:19Z</time>
      </trkpt>
      <trkpt lat="45.01236" lon="4.55095">
        <ele>744</ele>
        <time>2022-02-07T23:59:22Z</time>
      </trkpt>
      <trkpt lat="45.0119" lon="4.55168">
        <ele>741</ele>
        <time>2022-02-07T23:59:34Z</time>
      </trkpt>
      <trkpt lat="45.01163" lon="4.55219">
        <ele>740</ele>
        <time>2022-02-07T23:59:42Z</time>
      </trkpt>
      <trkpt lat="45.0114" lon="4.55279">
        <ele>740</ele>
        <time>2022-02-07T23:59:51Z</time>
      </trkpt>
      <trkpt lat="45.01117" lon="4.55331">
        <ele>738</ele>
        <time>2022-02-07T23:59:58Z</time>
      </trkpt>
      <trkpt lat="45.01091" lon="4.55381">
        <ele>736</ele>
        <time>2022-02-08T00:00:06Z</time>
      </trkpt>
      <trkpt lat="45.01003" lon="4.55495">
        <ele>728</ele>
        <time>2022-02-08T00:00:27Z</time>
      </trkpt>
      <trkpt lat="45.00977" lon="4.55541">
        <ele>725</ele>
        <time>2022-02-08T00:00:35Z</time>
      </trkpt>
      <trkpt lat="45.00963" lon="4.55575">
        <ele>724</ele>
        <time>2022-02-08T00:00:40Z</time>
      </trkpt>
      <trkpt lat="45.00951" lon="4.5561">
        <ele>722</ele>
        <time>2022-02-08T00:00:45Z</time>
      </trkpt>
      <trkpt lat="45.0092" lon="4.55732">
        <ele>714</ele>
        <time>2022-02-08T00:01:01Z</time>
      </trkpt>
      <trkpt lat="45.00916" lon="4.55759">
        <ele>713</ele>
        <time>2022-02-08T00:01:04Z</time>
      </trkpt>
      <trkpt lat="45.00915" lon="4.55816">
        <ele>712</ele>
        <time>2022-02-08T00:01:12Z</time>
      </trkpt>
      <trkpt lat="45.00912" lon="4.55842">
        <ele>711</ele>
        <time>2022-02-08T00:01:15Z</time>
      </trkpt>
      <trkpt lat="45.00907" lon="4.55863">
        <ele>711</ele>
        <time>2022-02-08T00:01:18Z</time>
      </trkpt>
      <trkpt lat="45.00896" lon="4.55888">
        <ele>710</ele>
        <time>2022-02-08T00:01:21Z</time>
      </trkpt>
      <trkpt lat="45.00868" lon="4.55933">
        <ele>703</ele>
        <time>2022-02-08T00:01:29Z</time>
      </trkpt>
      <trkpt lat="45.00862" lon="4.55952">
        <ele>702</ele>
        <time>2022-02-08T00:01:32Z</time>
      </trkpt>
      <trkpt lat="45.00859" lon="4.5597">
        <ele>702</ele>
        <time>2022-02-08T00:01:34Z</time>
      </trkpt>
      <trkpt lat="45.00858" lon="4.55985">
        <ele>702</ele>
        <time>2022-02-08T00:01:36Z</time>
      </trkpt>
      <trkpt lat="45.00859" lon="4.56009">
        <ele>702</ele>
        <time>2022-02-08T00:01:39Z</time>
      </trkpt>
      <trkpt lat="45.00865" lon="4.56035">
        <ele>704</ele>
        <time>2022-02-08T00:01:42Z</time>
      </trkpt>
      <trkpt lat="45.00866" lon="4.56076">
        <ele>702</ele>
        <time>2022-02-08T00:01:47Z</time>
      </trkpt>
      <trkpt lat="45.00874" lon="4.56141">
        <ele>702</ele>
        <time>2022-02-08T00:01:56Z</time>
      </trkpt>
      <trkpt lat="45.00875" lon="4.56173">
        <ele>701</ele>
        <time>2022-02-08T00:02:00Z</time>
      </trkpt>
      <trkpt lat="45.00871" lon="4.56234">
        <ele>701</ele>
        <time>2022-02-08T00:02:07Z</time>
      </trkpt>
      <trkpt lat="45.00866" lon="4.5626">
        <ele>702</ele>
        <time>2022-02-08T00:02:11Z</time>
      </trkpt>
      <trkpt lat="45.00857" lon="4.56271">
        <ele>703</ele>
        <time>2022-02-08T00:02:13Z</time>
      </trkpt>
      <trkpt lat="45.00846" lon="4.56273">
        <ele>701</ele>
        <time>2022-02-08T00:02:15Z</time>
      </trkpt>
      <trkpt lat="45.00832" lon="4.5627">
        <ele>699</ele>
        <time>2022-02-08T00:02:17Z</time>
      </trkpt>
      <trkpt lat="45.0082" lon="4.56264">
        <ele>700</ele>
        <time>2022-02-08T00:02:20Z</time>
      </trkpt>
      <trkpt lat="45.00774" lon="4.56225">
        <ele>699</ele>
        <time>2022-02-08T00:02:29Z</time>
      </trkpt>
      <trkpt lat="45.0073" lon="4.56164">
        <ele>688</ele>
        <time>2022-02-08T00:02:40Z</time>
      </trkpt>
      <trkpt lat="45.00703" lon="4.56142">
        <ele>690</ele>
        <time>2022-02-08T00:02:46Z</time>
      </trkpt>
      <trkpt lat="45.00683" lon="4.5613">
        <ele>692</ele>
        <time>2022-02-08T00:02:50Z</time>
      </trkpt>
      <trkpt lat="45.00672" lon="4.56114">
        <ele>691</ele>
        <time>2022-02-08T00:02:52Z</time>
      </trkpt>
      <trkpt lat="45.00666" lon="4.56095">
        <ele>689</ele>
        <time>2022-02-08T00:02:55Z</time>
      </trkpt>
      <trkpt lat="45.00661" lon="4.56056">
        <ele>684</ele>
        <time>2022-02-08T00:03:00Z</time>
      </trkpt>
      <trkpt lat="45.0065" lon="4.56016">
        <ele>680</ele>
        <time>2022-02-08T00:03:05Z</time>
      </trkpt>
      <trkpt lat="45.00635" lon="4.55981">
        <ele>678</ele>
        <time>2022-02-08T00:03:11Z</time>
      </trkpt>
      <trkpt lat="45.00615" lon="4.55945">
        <ele>678</ele>
        <time>2022-02-08T00:03:16Z</time>
      </trkpt>
      <trkpt lat="45.00607" lon="4.55925">
        <ele>678</ele>
        <time>2022-02-08T00:03:19Z</time>
      </trkpt>
      <trkpt lat="45.006" lon="4.559">
        <ele>675</ele>
        <time>2022-02-08T00:03:23Z</time>
      </trkpt>
      <trkpt lat="45.00593" lon="4.55881">
        <ele>673</ele>
        <time>2022-02-08T00:03:25Z</time>
      </trkpt>
      <trkpt lat="45.00583" lon="4.55863">
        <ele>672</ele>
        <time>2022-02-08T00:03:28Z</time>
      </trkpt>
      <trkpt lat="45.00562" lon="4.55841">
        <ele>672</ele>
        <time>2022-02-08T00:03:33Z</time>
      </trkpt>
      <trkpt lat="45.00459" lon="4.55759">
        <ele>659</ele>
        <time>2022-02-08T00:03:54Z</time>
      </trkpt>
      <trkpt lat="45.00439" lon="4.55749">
        <ele>657</ele>
        <time>2022-02-08T00:03:58Z</time>
      </trkpt>
      <trkpt lat="45.00418" lon="4.55742">
        <ele>658</ele>
        <time>2022-02-08T00:04:01Z</time>
      </trkpt>
      <trkpt lat="45.00397" lon="4.5574">
        <ele>656</ele>
        <time>2022-02-08T00:04:05Z</time>
      </trkpt>
      <trkpt lat="45.00377" lon="4.55743">
        <ele>656</ele>
        <time>2022-02-08T00:04:09Z</time>
      </trkpt>
      <trkpt lat="45.00362" lon="4.55749">
        <ele>656</ele>
        <time>2022-02-08T00:04:12Z</time>
      </trkpt>
      <trkpt lat="45.00345" lon="4.55754">
        <ele>656</ele>
        <time>2022-02-08T00:04:15Z</time>
      </trkpt>
      <trkpt lat="45.00334" lon="4.55756">
        <ele>655</ele>
        <time>2022-02-08T00:04:17Z</time>
      </trkpt>
      <trkpt lat="45.0032" lon="4.55755">
        <ele>653</ele>
        <time>2022-02-08T00:04:19Z</time>
      </trkpt>
      <trkpt lat="45.0029" lon="4.55749">
        <ele>649</ele>
        <time>2022-02-08T00:04:24Z</time>
      </trkpt>
      <trkpt lat="45.00259" lon="4.55746">
        <ele>645</ele>
        <time>2022-02-08T00:04:30Z</time>
      </trkpt>
      <trkpt lat="45.00238" lon="4.55753">
        <ele>643</ele>
        <time>2022-02-08T00:04:34Z</time>
      </trkpt>
      <trkpt lat="45.00225" lon="4.55767">
        <ele>643</ele>
        <time>2022-02-08T00:04:37Z</time>
      </trkpt>
      <trkpt lat="45.00213" lon="4.55785">
        <ele>643</ele>
        <time>2022-02-08T00:04:40Z</time>
      </trkpt>
      <trkpt lat="45.00195" lon="4.55821">
        <ele>644</ele>
        <time>2022-02-08T00:04:45Z</time>
      </trkpt>
      <trkpt lat="45.00178" lon="4.55855">
        <ele>642</ele>
        <time>2022-02-08T00:04:51Z</time>
      </trkpt>
      <trkpt lat="45.0017" lon="4.55877">
        <ele>639</ele>
        <time>2022-02-08T00:04:54Z</time>
      </trkpt>
      <trkpt lat="45.00164" lon="4.55909">
        <ele>636</ele>
        <time>2022-02-08T00:04:58Z</time>
      </trkpt>
      <trkpt lat="45.00161" lon="4.55936">
        <ele>633</ele>
        <time>2022-02-08T00:05:01Z</time>
      </trkpt>
      <trkpt lat="45.00161" lon="4.55947">
        <ele>632</ele>
        <time>2022-02-08T00:05:03Z</time>
      </trkpt>
      <trkpt lat="45.00162" lon="4.55966">
        <ele>630</ele>
        <time>2022-02-08T00:05:05Z</time>
      </trkpt>
      <trkpt lat="45.00167" lon="4.56027">
        <ele>624</ele>
        <time>2022-02-08T00:05:13Z</time>
      </trkpt>
      <trkpt lat="45.00167" lon="4.56078">
        <ele>619</ele>
        <time>2022-02-08T00:05:19Z</time>
      </trkpt>
      <trkpt lat="45.00169" lon="4.56095">
        <ele>617</ele>
        <time>2022-02-08T00:05:21Z</time>
      </trkpt>
      <trkpt lat="45.00175" lon="4.56106">
        <ele>618</ele>
        <time>2022-02-08T00:05:23Z</time>
      </trkpt>
      <trkpt lat="45.0019" lon="4.56125">
        <ele>621</ele>
        <time>2022-02-08T00:05:27Z</time>
      </trkpt>
      <trkpt lat="45.00198" lon="4.56146">
        <ele>621</ele>
        <time>2022-02-08T00:05:30Z</time>
      </trkpt>
      <trkpt lat="45.00217" lon="4.56213">
        <ele>615</ele>
        <time>2022-02-08T00:05:39Z</time>
      </trkpt>
      <trkpt lat="45.00228" lon="4.56241">
        <ele>613</ele>
        <time>2022-02-08T00:05:43Z</time>
      </trkpt>
      <trkpt lat="45.0024" lon="4.56264">
        <ele>612</ele>
        <time>2022-02-08T00:05:47Z</time>
      </trkpt>
      <trkpt lat="45.0027" lon="4.56343">
        <ele>605</ele>
        <time>2022-02-08T00:05:58Z</time>
      </trkpt>
      <trkpt lat="45.00291" lon="4.56387">
        <ele>607</ele>
        <time>2022-02-08T00:06:04Z</time>
      </trkpt>
      <trkpt lat="45.00297" lon="4.56415">
        <ele>604</ele>
        <time>2022-02-08T00:06:08Z</time>
      </trkpt>
      <trkpt lat="45.00295" lon="4.5643">
        <ele>606</ele>
        <time>2022-02-08T00:06:10Z</time>
      </trkpt>
      <trkpt lat="45.00287" lon="4.56444">
        <ele>606</ele>
        <time>2022-02-08T00:06:12Z</time>
      </trkpt>
      <trkpt lat="45.0027" lon="4.56462">
        <ele>604</ele>
        <time>2022-02-08T00:06:16Z</time>
      </trkpt>
      <trkpt lat="45.0025" lon="4.56474">
        <ele>600</ele>
        <time>2022-02-08T00:06:20Z</time>
      </trkpt>
      <trkpt lat="45.00232" lon="4.56476">
        <ele>599</ele>
        <time>2022-02-08T00:06:23Z</time>
      </trkpt>
      <trkpt lat="45.00214" lon="4.56472">
        <ele>596</ele>
        <time>2022-02-08T00:06:26Z</time>
      </trkpt>
      <trkpt lat="45.00193" lon="4.56458">
        <ele>590</ele>
        <time>2022-02-08T00:06:31Z</time>
      </trkpt>
      <trkpt lat="45.00183" lon="4.56454">
        <ele>587</ele>
        <time>2022-02-08T00:06:32Z</time>
      </trkpt>
      <trkpt lat="45.00166" lon="4.56456">
        <ele>586</ele>
        <time>2022-02-08T00:06:35Z</time>
      </trkpt>
      <trkpt lat="45.00113" lon="4.56478">
        <ele>578</ele>
        <time>2022-02-08T00:06:45Z</time>
      </trkpt>
      <trkpt lat="45.00095" lon="4.5649">
        <ele>576</ele>
        <time>2022-02-08T00:06:49Z</time>
      </trkpt>
      <trkpt lat="45.0008" lon="4.56522">
        <ele>572</ele>
        <time>2022-02-08T00:06:54Z</time>
      </trkpt>
      <trkpt lat="45.00077" lon="4.56562">
        <ele>570</ele>
        <time>2022-02-08T00:06:59Z</time>
      </trkpt>
      <trkpt lat="45.00081" lon="4.56592">
        <ele>571</ele>
        <time>2022-02-08T00:07:03Z</time>
      </trkpt>
      <trkpt lat="45.00102" lon="4.56649">
        <ele>575</ele>
        <time>2022-02-08T00:07:11Z</time>
      </trkpt>
      <trkpt lat="45.00104" lon="4.56672">
        <ele>575</ele>
        <time>2022-02-08T00:07:14Z</time>
      </trkpt>
      <trkpt lat="45.00101" lon="4.56687">
        <ele>576</ele>
        <time>2022-02-08T00:07:16Z</time>
      </trkpt>
      <trkpt lat="45.00094" lon="4.56698">
        <ele>575</ele>
        <time>2022-02-08T00:07:17Z</time>
      </trkpt>
      <trkpt lat="45.00082" lon="4.56702">
        <ele>572</ele>
        <time>2022-02-08T00:07:20Z</time>
      </trkpt>
      <trkpt lat="45.00045" lon="4.56707">
        <ele>566</ele>
        <time>2022-02-08T00:07:26Z</time>
      </trkpt>
      <trkpt lat="45.0003" lon="4.56714">
        <ele>565</ele>
        <time>2022-02-08T00:07:29Z</time>
      </trkpt>
      <trkpt lat="45.00002" lon="4.56749">
        <ele>566</ele>
        <time>2022-02-08T00:07:36Z</time>
      </trkpt>
      <trkpt lat="44.99993" lon="4.56753">
        <ele>567</ele>
        <time>2022-02-08T00:07:37Z</time>
      </trkpt>
      <trkpt lat="44.99982" lon="4.56752">
        <ele>567</ele>
        <time>2022-02-08T00:07:39Z</time>
      </trkpt>
      <trkpt lat="44.99971" lon="4.56743">
        <ele>566</ele>
        <time>2022-02-08T00:07:42Z</time>
      </trkpt>
      <trkpt lat="44.99947" lon="4.5669">
        <ele>556</ele>
        <time>2022-02-08T00:07:49Z</time>
      </trkpt>
      <trkpt lat="44.99936" lon="4.56677">
        <ele>554</ele>
        <time>2022-02-08T00:07:52Z</time>
      </trkpt>
      <trkpt lat="44.99919" lon="4.56671">
        <ele>553</ele>
        <time>2022-02-08T00:07:55Z</time>
      </trkpt>
      <trkpt lat="44.99901" lon="4.56669">
        <ele>555</ele>
        <time>2022-02-08T00:07:58Z</time>
      </trkpt>
      <trkpt lat="44.9989" lon="4.56662">
        <ele>555</ele>
        <time>2022-02-08T00:08:00Z</time>
      </trkpt>
      <trkpt lat="44.99817" lon="4.56562">
        <ele>542</ele>
        <time>2022-02-08T00:08:19Z</time>
      </trkpt>
      <trkpt lat="44.99797" lon="4.5654">
        <ele>539</ele>
        <time>2022-02-08T00:08:23Z</time>
      </trkpt>
      <trkpt lat="44.99782" lon="4.56528">
        <ele>539</ele>
        <time>2022-02-08T00:08:26Z</time>
      </trkpt>
      <trkpt lat="44.99774" lon="4.5652">
        <ele>538</ele>
        <time>2022-02-08T00:08:28Z</time>
      </trkpt>
      <trkpt lat="44.99765" lon="4.56495">
        <ele>535</ele>
        <time>2022-02-08T00:08:31Z</time>
      </trkpt>
      <trkpt lat="44.99747" lon="4.56479">
        <ele>532</ele>
        <time>2022-02-08T00:08:35Z</time>
      </trkpt>
      <trkpt lat="44.99682" lon="4.56438">
        <ele>522</ele>
        <time>2022-02-08T00:08:48Z</time>
      </trkpt>
      <trkpt lat="44.99666" lon="4.56432">
        <ele>520</ele>
        <time>2022-02-08T00:08:51Z</time>
      </trkpt>
      <trkpt lat="44.99646" lon="4.56432">
        <ele>516</ele>
        <time>2022-02-08T00:08:54Z</time>
      </trkpt>
      <trkpt lat="44.99627" lon="4.56436">
        <ele>512</ele>
        <time>2022-02-08T00:08:58Z</time>
      </trkpt>
      <trkpt lat="44.99615" lon="4.56446">
        <ele>511</ele>
        <time>2022-02-08T00:09:00Z</time>
      </trkpt>
      <trkpt lat="44.99607" lon="4.56455">
        <ele>509</ele>
        <time>2022-02-08T00:09:02Z</time>
      </trkpt>
      <trkpt lat="44.99603" lon="4.56466">
        <ele>509</ele>
        <time>2022-02-08T00:09:04Z</time>
      </trkpt>
      <trkpt lat="44.99601" lon="4.56482">
        <ele>509</ele>
        <time>2022-02-08T00:09:06Z</time>
      </trkpt>
      <trkpt lat="44.99604" lon="4.56497">
        <ele>511</ele>
        <time>2022-02-08T00:09:08Z</time>
      </trkpt>
      <trkpt lat="44.9962" lon="4.56529">
        <ele>516</ele>
        <time>2022-02-08T00:09:13Z</time>
      </trkpt>
      <trkpt lat="44.99622" lon="4.56556">
        <ele>516</ele>
        <time>2022-02-08T00:09:16Z</time>
      </trkpt>
      <trkpt lat="44.99608" lon="4.56668">
        <ele>517</ele>
        <time>2022-02-08T00:09:30Z</time>
      </trkpt>
      <trkpt lat="44.996" lon="4.56679">
        <ele>517</ele>
        <time>2022-02-08T00:09:32Z</time>
      </trkpt>
      <trkpt lat="44.99592" lon="4.56682">
        <ele>516</ele>
        <time>2022-02-08T00:09:34Z</time>
      </trkpt>
      <trkpt lat="44.99583" lon="4.56679">
        <ele>513</ele>
        <time>2022-02-08T00:09:35Z</time>
      </trkpt>
      <trkpt lat="44.99571" lon="4.56665">
        <ele>511</ele>
        <time>2022-02-08T00:09:38Z</time>
      </trkpt>
      <trkpt lat="44.99561" lon="4.56643">
        <ele>507</ele>
        <time>2022-02-08T00:09:41Z</time>
      </trkpt>
      <trkpt lat="44.99549" lon="4.56631">
        <ele>504</ele>
        <time>2022-02-08T00:09:44Z</time>
      </trkpt>
      <trkpt lat="44.99536" lon="4.5663">
        <ele>502</ele>
        <time>2022-02-08T00:09:46Z</time>
      </trkpt>
      <trkpt lat="44.9952" lon="4.56632">
        <ele>501</ele>
        <time>2022-02-08T00:09:49Z</time>
      </trkpt>
      <trkpt lat="44.99506" lon="4.5663">
        <ele>500</ele>
        <time>2022-02-08T00:09:52Z</time>
      </trkpt>
      <trkpt lat="44.99451" lon="4.56612">
        <ele>483</ele>
        <time>2022-02-08T00:10:02Z</time>
      </trkpt>
      <trkpt lat="44.99439" lon="4.56614">
        <ele>481</ele>
        <time>2022-02-08T00:10:04Z</time>
      </trkpt>
      <trkpt lat="44.99429" lon="4.56628">
        <ele>481</ele>
        <time>2022-02-08T00:10:06Z</time>
      </trkpt>
      <trkpt lat="44.9942" lon="4.56682">
        <ele>489</ele>
        <time>2022-02-08T00:10:13Z</time>
      </trkpt>
      <trkpt lat="44.99412" lon="4.56706">
        <ele>493</ele>
        <time>2022-02-08T00:10:17Z</time>
      </trkpt>
      <trkpt lat="44.99395" lon="4.5672">
        <ele>491</ele>
        <time>2022-02-08T00:10:20Z</time>
      </trkpt>
      <trkpt lat="44.99349" lon="4.56714">
        <ele>476</ele>
        <time>2022-02-08T00:10:29Z</time>
      </trkpt>
      <trkpt lat="44.99331" lon="4.56721">
        <ele>474</ele>
        <time>2022-02-08T00:10:32Z</time>
      </trkpt>
      <trkpt lat="44.99317" lon="4.56736">
        <ele>474</ele>
        <time>2022-02-08T00:10:35Z</time>
      </trkpt>
      <trkpt lat="44.99282" lon="4.56797">
        <ele>478</ele>
        <time>2022-02-08T00:10:45Z</time>
      </trkpt>
      <trkpt lat="44.99269" lon="4.5681">
        <ele>477</ele>
        <time>2022-02-08T00:10:48Z</time>
      </trkpt>
      <trkpt lat="44.99256" lon="4.56817">
        <ele>475</ele>
        <time>2022-02-08T00:10:50Z</time>
      </trkpt>
      <trkpt lat="44.99238" lon="4.56818">
        <ele>472</ele>
        <time>2022-02-08T00:10:53Z</time>
      </trkpt>
      <trkpt lat="44.99216" lon="4.56817">
        <ele>469</ele>
        <time>2022-02-08T00:10:57Z</time>
      </trkpt>
      <trkpt lat="44.99199" lon="4.56811">
        <ele>465</ele>
        <time>2022-02-08T00:11:00Z</time>
      </trkpt>
      <trkpt lat="44.99173" lon="4.56798">
        <ele>460</ele>
        <time>2022-02-08T00:11:05Z</time>
      </trkpt>
      <trkpt lat="44.99151" lon="4.56789">
        <ele>457</ele>
        <time>2022-02-08T00:11:09Z</time>
      </trkpt>
      <trkpt lat="44.99127" lon="4.56786">
        <ele>454</ele>
        <time>2022-02-08T00:11:14Z</time>
      </trkpt>
      <trkpt lat="44.99112" lon="4.56792">
        <ele>454</ele>
        <time>2022-02-08T00:11:16Z</time>
      </trkpt>
      <trkpt lat="44.99107" lon="4.56808">
        <ele>455</ele>
        <time>2022-02-08T00:11:19Z</time>
      </trkpt>
      <trkpt lat="44.99108" lon="4.56836">
        <ele>459</ele>
        <time>2022-02-08T00:11:22Z</time>
      </trkpt>
      <trkpt lat="44.99106" lon="4.56854">
        <ele>460</ele>
        <time>2022-02-08T00:11:24Z</time>
      </trkpt>
      <trkpt lat="44.99103" lon="4.56859">
        <ele>460</ele>
        <time>2022-02-08T00:11:25Z</time>
      </trkpt>
      <trkpt lat="44.991" lon="4.56867">
        <ele>460</ele>
        <time>2022-02-08T00:11:26Z</time>
      </trkpt>
      <trkpt lat="44.99093" lon="4.56871">
        <ele>460</ele>
        <time>2022-02-08T00:11:28Z</time>
      </trkpt>
      <trkpt lat="44.99051" lon="4.56866">
        <ele>455</ele>
        <time>2022-02-08T00:11:35Z</time>
      </trkpt>
      <trkpt lat="44.99004" lon="4.56858">
        <ele>450</ele>
        <time>2022-02-08T00:11:44Z</time>
      </trkpt>
      <trkpt lat="44.98951" lon="4.56858">
        <ele>443</ele>
        <time>2022-02-08T00:11:53Z</time>
      </trkpt>
      <trkpt lat="44.98941" lon="4.56861">
        <ele>442</ele>
        <time>2022-02-08T00:11:55Z</time>
      </trkpt>
      <trkpt lat="44.9893" lon="4.56865">
        <ele>441</ele>
        <time>2022-02-08T00:11:57Z</time>
      </trkpt>
      <trkpt lat="44.98908" lon="4.56886">
        <ele>440</ele>
        <time>2022-02-08T00:12:02Z</time>
      </trkpt>
      <trkpt lat="44.9888" lon="4.56923">
        <ele>438</ele>
        <time>2022-02-08T00:12:08Z</time>
      </trkpt>
      <trkpt lat="44.98863" lon="4.56949">
        <ele>437</ele>
        <time>2022-02-08T00:12:13Z</time>
      </trkpt>
      <trkpt lat="44.98847" lon="4.56971">
        <ele>435</ele>
        <time>2022-02-08T00:12:17Z</time>
      </trkpt>
      <trkpt lat="44.98831" lon="4.56994">
        <ele>434</ele>
        <time>2022-02-08T00:12:21Z</time>
      </trkpt>
      <trkpt lat="44.98815" lon="4.57017">
        <ele>430</ele>
        <time>2022-02-08T00:12:25Z</time>
      </trkpt>
      <trkpt lat="44.98804" lon="4.57046">
        <ele>428</ele>
        <time>2022-02-08T00:12:29Z</time>
      </trkpt>
      <trkpt lat="44.988" lon="4.57095">
        <ele>428</ele>
        <time>2022-02-08T00:12:35Z</time>
      </trkpt>
      <trkpt lat="44.98798" lon="4.57127">
        <ele>428</ele>
        <time>2022-02-08T00:12:39Z</time>
      </trkpt>
      <trkpt lat="44.98793" lon="4.57146">
        <ele>427</ele>
        <time>2022-02-08T00:12:42Z</time>
      </trkpt>
      <trkpt lat="44.98775" lon="4.5716">
        <ele>423</ele>
        <time>2022-02-08T00:12:46Z</time>
      </trkpt>
      <trkpt lat="44.9875" lon="4.57153">
        <ele>419</ele>
        <time>2022-02-08T00:12:50Z</time>
      </trkpt>
      <trkpt lat="44.9871" lon="4.57144">
        <ele>415</ele>
        <time>2022-02-08T00:12:57Z</time>
      </trkpt>
      <trkpt lat="44.98684" lon="4.5714">
        <ele>412</ele>
        <time>2022-02-08T00:13:02Z</time>
      </trkpt>
      <trkpt lat="44.9863" lon="4.57107">
        <ele>399</ele>
        <time>2022-02-08T00:13:12Z</time>
      </trkpt>
      <trkpt lat="44.98615" lon="4.57111">
        <ele>395</ele>
        <time>2022-02-08T00:13:15Z</time>
      </trkpt>
      <trkpt lat="44.98603" lon="4.57123">
        <ele>393</ele>
        <time>2022-02-08T00:13:18Z</time>
      </trkpt>
      <trkpt lat="44.98597" lon="4.57151">
        <ele>394</ele>
        <time>2022-02-08T00:13:22Z</time>
      </trkpt>
      <trkpt lat="44.98599" lon="4.57187">
        <ele>393</ele>
        <time>2022-02-08T00:13:26Z</time>
      </trkpt>
      <trkpt lat="44.98608" lon="4.57203">
        <ele>393</ele>
        <time>2022-02-08T00:13:29Z</time>
      </trkpt>
      <trkpt lat="44.98665" lon="4.57239">
        <ele>402</ele>
        <time>2022-02-08T00:13:40Z</time>
      </trkpt>
      <trkpt lat="44.98681" lon="4.57259">
        <ele>401</ele>
        <time>2022-02-08T00:13:44Z</time>
      </trkpt>
      <trkpt lat="44.98692" lon="4.57287">
        <ele>399</ele>
        <time>2022-02-08T00:13:48Z</time>
      </trkpt>
      <trkpt lat="44.98694" lon="4.57293">
        <ele>398</ele>
        <time>2022-02-08T00:13:48Z</time>
      </trkpt>
      <trkpt lat="44.98709" lon="4.57329">
        <ele>396</ele>
        <time>2022-02-08T00:13:54Z</time>
      </trkpt>
      <trkpt lat="44.98727" lon="4.57395">
        <ele>393</ele>
        <time>2022-02-08T00:14:03Z</time>
      </trkpt>
      <trkpt lat="44.98743" lon="4.57467">
        <ele>389</ele>
        <time>2022-02-08T00:14:12Z</time>
      </trkpt>
      <trkpt lat="44.98802" lon="4.57732">
        <ele>378</ele>
        <time>2022-02-08T00:14:47Z</time>
      </trkpt>
      <trkpt lat="44.98801" lon="4.5775">
        <ele>377</ele>
        <time>2022-02-08T00:14:49Z</time>
      </trkpt>
      <trkpt lat="44.98796" lon="4.57761">
        <ele>376</ele>
        <time>2022-02-08T00:14:51Z</time>
      </trkpt>
      <trkpt lat="44.98699" lon="4.57833">
        <ele>375</ele>
        <time>2022-02-08T00:15:10Z</time>
      </trkpt>
      <trkpt lat="44.98687" lon="4.57841">
        <ele>375</ele>
        <time>2022-02-08T00:15:13Z</time>
      </trkpt>
      <trkpt lat="44.98679" lon="4.57848">
        <ele>375</ele>
        <time>2022-02-08T00:15:14Z</time>
      </trkpt>
      <trkpt lat="44.98678" lon="4.57854">
        <ele>375</ele>
        <time>2022-02-08T00:15:15Z</time>
      </trkpt>
      <trkpt lat="44.98683" lon="4.57861">
        <ele>375</ele>
        <time>2022-02-08T00:15:16Z</time>
      </trkpt>
      <trkpt lat="44.98698" lon="4.57863">
        <ele>374</ele>
        <time>2022-02-08T00:15:19Z</time>
      </trkpt>
      <trkpt lat="44.98702" lon="4.57868">
        <ele>374</ele>
        <time>2022-02-08T00:15:20Z</time>
      </trkpt>
      <trkpt lat="44.98701" lon="4.57918">
        <ele>374</ele>
        <time>2022-02-08T00:15:26Z</time>
      </trkpt>
      <trkpt lat="44.98668" lon="4.57934">
        <ele>374</ele>
        <time>2022-02-08T00:15:33Z</time>
      </trkpt>
      <trkpt lat="44.98658" lon="4.57927">
        <ele>374</ele>
        <time>2022-02-08T00:15:35Z</time>
      </trkpt>
      <trkpt lat="44.98621" lon="4.57945">
        <ele>375</ele>
        <time>2022-02-08T00:15:42Z</time>
      </trkpt>
      <trkpt lat="44.98579" lon="4.57972">
        <ele>376</ele>
        <time>2022-02-08T00:15:50Z</time>
      </trkpt>
      <trkpt lat="44.98572" lon="4.57931">
        <ele>376</ele>
        <time>2022-02-08T00:15:55Z</time>
      </trkpt>
      <trkpt lat="44.98572" lon="4.57928">
        <ele>376</ele>
        <time>2022-02-08T00:15:55Z</time>
      </trkpt>
      <trkpt lat="44.9856" lon="4.57937">
        <ele>376</ele>
        <time>2022-02-08T00:15:58Z</time>
      </trkpt>
      <trkpt lat="44.98536" lon="4.57954">
        <ele>377</ele>
        <time>2022-02-08T00:16:03Z</time>
      </trkpt>
      <trkpt lat="44.98526" lon="4.57961">
        <ele>377</ele>
        <time>2022-02-08T00:16:05Z</time>
      </trkpt>
      <trkpt lat="44.98516" lon="4.57969">
        <ele>378</ele>
        <time>2022-02-08T00:16:07Z</time>
      </trkpt>
      <trkpt lat="44.98516" lon="4.57983">
        <ele>379</ele>
        <time>2022-02-08T00:16:08Z</time>
      </trkpt>
      <trkpt lat="44.98515" lon="4.58007">
        <ele>379</ele>
        <time>2022-02-08T00:16:11Z</time>
      </trkpt>
      <trkpt lat="44.98516" lon="4.58023">
        <ele>380</ele>
        <time>2022-02-08T00:16:13Z</time>
      </trkpt>
      <trkpt lat="44.98516" lon="4.58062">
        <ele>381</ele>
        <time>2022-02-08T00:16:18Z</time>
      </trkpt>
      <trkpt lat="44.98514" lon="4.58076">
        <ele>381</ele>
        <time>2022-02-08T00:16:20Z</time>
      </trkpt>
      <trkpt lat="44.98511" lon="4.58084">
        <ele>381</ele>
        <time>2022-02-08T00:16:21Z</time>
      </trkpt>
      <trkpt lat="44.98508" lon="4.58088">
        <ele>382</ele>
        <time>2022-02-08T00:16:22Z</time>
      </trkpt>
      <trkpt lat="44.98513" lon="4.58094">
        <ele>381</ele>
        <time>2022-02-08T00:16:23Z</time>
      </trkpt>
      <trkpt lat="44.98521" lon="4.58106">
        <ele>381</ele>
        <time>2022-02-08T00:16:25Z</time>
      </trkpt>
      <trkpt lat="44.98526" lon="4.58112">
        <ele>381</ele>
        <time>2022-02-08T00:16:26Z</time>
      </trkpt>
      <trkpt lat="44.98541" lon="4.58135">
        <ele>381</ele>
        <time>2022-02-08T00:16:30Z</time>
      </trkpt>
      <trkpt lat="44.98543" lon="4.5814">
        <ele>381</ele>
        <time>2022-02-08T00:16:31Z</time>
      </trkpt>
      <trkpt lat="44.98546" lon="4.58149">
        <ele>381</ele>
        <time>2022-02-08T00:16:32Z</time>
      </trkpt>
      <trkpt lat="44.98553" lon="4.5817">
        <ele>381</ele>
        <time>2022-02-08T00:16:35Z</time>
      </trkpt>
      <trkpt lat="44.98557" lon="4.58192">
        <ele>384</ele>
        <time>2022-02-08T00:16:38Z</time>
      </trkpt>
      <trkpt lat="44.98549" lon="4.58208">
        <ele>386</ele>
        <time>2022-02-08T00:16:41Z</time>
      </trkpt>
      <trkpt lat="44.98538" lon="4.58219">
        <ele>388</ele>
        <time>2022-02-08T00:16:43Z</time>
      </trkpt>
      <trkpt lat="44.98502" lon="4.58225">
        <ele>393</ele>
        <time>2022-02-08T00:16:49Z</time>
      </trkpt>
      <trkpt lat="44.98375" lon="4.58149">
        <ele>400</ele>
        <time>2022-02-08T00:17:14Z</time>
      </trkpt>
      <trkpt lat="44.9836" lon="4.58134">
        <ele>401</ele>
        <time>2022-02-08T00:17:17Z</time>
      </trkpt>
      <trkpt lat="44.98319" lon="4.58108">
        <ele>402</ele>
        <time>2022-02-08T00:17:25Z</time>
      </trkpt>
      <trkpt lat="44.9829" lon="4.58077">
        <ele>400</ele>
        <time>2022-02-08T00:17:32Z</time>
      </trkpt>
      <trkpt lat="44.98266" lon="4.58075">
        <ele>403</ele>
        <time>2022-02-08T00:17:36Z</time>
      </trkpt>
      <trkpt lat="44.98231" lon="4.58078">
        <ele>409</ele>
        <time>2022-02-08T00:17:42Z</time>
      </trkpt>
      <trkpt lat="44.9819" lon="4.58055">
        <ele>413</ele>
        <time>2022-02-08T00:17:50Z</time>
      </trkpt>
      <trkpt lat="44.98161" lon="4.58023">
        <ele>414</ele>
        <time>2022-02-08T00:17:57Z</time>
      </trkpt>
      <trkpt lat="44.98153" lon="4.58023">
        <ele>415</ele>
        <time>2022-02-08T00:17:58Z</time>
      </trkpt>
      <trkpt lat="44.98128" lon="4.58044">
        <ele>421</ele>
        <time>2022-02-08T00:18:03Z</time>
      </trkpt>
      <trkpt lat="44.98112" lon="4.58051">
        <ele>423</ele>
        <time>2022-02-08T00:18:06Z</time>
      </trkpt>
      <trkpt lat="44.98101" lon="4.58059">
        <ele>424</ele>
        <time>2022-02-08T00:18:08Z</time>
      </trkpt>
      <trkpt lat="44.98098" lon="4.58065">
        <ele>423</ele>
        <time>2022-02-08T00:18:09Z</time>
      </trkpt>
      <trkpt lat="44.98096" lon="4.5807">
        <ele>423</ele>
        <time>2022-02-08T00:18:10Z</time>
      </trkpt>
      <trkpt lat="44.98093" lon="4.58105">
        <ele>424</ele>
        <time>2022-02-08T00:18:15Z</time>
      </trkpt>
      <trkpt lat="44.98069" lon="4.58189">
        <ele>434</ele>
        <time>2022-02-08T00:18:26Z</time>
      </trkpt>
      <trkpt lat="44.98059" lon="4.58249">
        <ele>439</ele>
        <time>2022-02-08T00:18:34Z</time>
      </trkpt>
      <trkpt lat="44.98046" lon="4.58282">
        <ele>440</ele>
        <time>2022-02-08T00:18:38Z</time>
      </trkpt>
      <trkpt lat="44.98029" lon="4.583">
        <ele>438</ele>
        <time>2022-02-08T00:18:42Z</time>
      </trkpt>
      <trkpt lat="44.97984" lon="4.58313">
        <ele>435</ele>
        <time>2022-02-08T00:18:50Z</time>
      </trkpt>
      <trkpt lat="44.97973" lon="4.58319">
        <ele>436</ele>
        <time>2022-02-08T00:18:52Z</time>
      </trkpt>
      <trkpt lat="44.97965" lon="4.5833">
        <ele>435</ele>
        <time>2022-02-08T00:18:54Z</time>
      </trkpt>
      <trkpt lat="44.97956" lon="4.58353">
        <ele>437</ele>
        <time>2022-02-08T00:18:58Z</time>
      </trkpt>
      <trkpt lat="44.97952" lon="4.58379">
        <ele>439</ele>
        <time>2022-02-08T00:19:01Z</time>
      </trkpt>
      <trkpt lat="44.9795" lon="4.58424">
        <ele>443</ele>
        <time>2022-02-08T00:19:07Z</time>
      </trkpt>
      <trkpt lat="44.97939" lon="4.58457">
        <ele>449</ele>
        <time>2022-02-08T00:19:11Z</time>
      </trkpt>
      <trkpt lat="44.9792" lon="4.58478">
        <ele>449</ele>
        <time>2022-02-08T00:19:16Z</time>
      </trkpt>
      <trkpt lat="44.97898" lon="4.58487">
        <ele>450</ele>
        <time>2022-02-08T00:19:20Z</time>
      </trkpt>
      <trkpt lat="44.97876" lon="4.58487">
        <ele>448</ele>
        <time>2022-02-08T00:19:24Z</time>
      </trkpt>
      <trkpt lat="44.97845" lon="4.58472">
        <ele>444</ele>
        <time>2022-02-08T00:19:30Z</time>
      </trkpt>
      <trkpt lat="44.97832" lon="4.5847">
        <ele>444</ele>
        <time>2022-02-08T00:19:32Z</time>
      </trkpt>
      <trkpt lat="44.97822" lon="4.58473">
        <ele>444</ele>
        <time>2022-02-08T00:19:34Z</time>
      </trkpt>
      <trkpt lat="44.97814" lon="4.58482">
        <ele>445</ele>
        <time>2022-02-08T00:19:35Z</time>
      </trkpt>
      <trkpt lat="44.97809" lon="4.58494">
        <ele>446</ele>
        <time>2022-02-08T00:19:37Z</time>
      </trkpt>
      <trkpt lat="44.97807" lon="4.58514">
        <ele>449</ele>
        <time>2022-02-08T00:19:40Z</time>
      </trkpt>
      <trkpt lat="44.97809" lon="4.58539">
        <ele>454</ele>
        <time>2022-02-08T00:19:43Z</time>
      </trkpt>
      <trkpt lat="44.97806" lon="4.5856">
        <ele>458</ele>
        <time>2022-02-08T00:19:46Z</time>
      </trkpt>
      <trkpt lat="44.978" lon="4.58588">
        <ele>462</ele>
        <time>2022-02-08T00:19:49Z</time>
      </trkpt>
      <trkpt lat="44.97785" lon="4.5863">
        <ele>465</ele>
        <time>2022-02-08T00:19:55Z</time>
      </trkpt>
      <trkpt lat="44.97762" lon="4.58683">
        <ele>467</ele>
        <time>2022-02-08T00:20:03Z</time>
      </trkpt>
      <trkpt lat="44.97755" lon="4.58693">
        <ele>466</ele>
        <time>2022-02-08T00:20:05Z</time>
      </trkpt>
      <trkpt lat="44.97746" lon="4.58701">
        <ele>466</ele>
        <time>2022-02-08T00:20:07Z</time>
      </trkpt>
      <trkpt lat="44.97727" lon="4.58703">
        <ele>465</ele>
        <time>2022-02-08T00:20:10Z</time>
      </trkpt>
      <trkpt lat="44.97694" lon="4.58693">
        <ele>461</ele>
        <time>2022-02-08T00:20:16Z</time>
      </trkpt>
      <trkpt lat="44.97673" lon="4.58692">
        <ele>460</ele>
        <time>2022-02-08T00:20:20Z</time>
      </trkpt>
      <trkpt lat="44.97623" lon="4.58707">
        <ele>462</ele>
        <time>2022-02-08T00:20:29Z</time>
      </trkpt>
      <trkpt lat="44.97604" lon="4.58719">
        <ele>464</ele>
        <time>2022-02-08T00:20:33Z</time>
      </trkpt>
      <trkpt lat="44.97575" lon="4.58761">
        <ele>472</ele>
        <time>2022-02-08T00:20:40Z</time>
      </trkpt>
      <trkpt lat="44.97565" lon="4.58768">
        <ele>476</ele>
        <time>2022-02-08T00:20:42Z</time>
      </trkpt>
      <trkpt lat="44.9756" lon="4.58768">
        <ele>477</ele>
        <time>2022-02-08T00:20:43Z</time>
      </trkpt>
      <trkpt lat="44.97548" lon="4.58762">
        <ele>480</ele>
        <time>2022-02-08T00:20:45Z</time>
      </trkpt>
      <trkpt lat="44.97539" lon="4.58754">
        <ele>481</ele>
        <time>2022-02-08T00:20:47Z</time>
      </trkpt>
      <trkpt lat="44.97512" lon="4.58695">
        <ele>476</ele>
        <time>2022-02-08T00:20:56Z</time>
      </trkpt>
      <trkpt lat="44.97504" lon="4.58686">
        <ele>476</ele>
        <time>2022-02-08T00:20:58Z</time>
      </trkpt>
      <trkpt lat="44.97458" lon="4.58667">
        <ele>477</ele>
        <time>2022-02-08T00:21:06Z</time>
      </trkpt>
      <trkpt lat="44.97425" lon="4.58664">
        <ele>480</ele>
        <time>2022-02-08T00:21:12Z</time>
      </trkpt>
      <trkpt lat="44.97418" lon="4.5866">
        <ele>479</ele>
        <time>2022-02-08T00:21:13Z</time>
      </trkpt>
      <trkpt lat="44.97408" lon="4.58653">
        <ele>477</ele>
        <time>2022-02-08T00:21:15Z</time>
      </trkpt>
      <trkpt lat="44.97392" lon="4.58628">
        <ele>471</ele>
        <time>2022-02-08T00:21:20Z</time>
      </trkpt>
      <trkpt lat="44.97385" lon="4.58622">
        <ele>470</ele>
        <time>2022-02-08T00:21:21Z</time>
      </trkpt>
      <trkpt lat="44.97377" lon="4.58623">
        <ele>470</ele>
        <time>2022-02-08T00:21:23Z</time>
      </trkpt>
      <trkpt lat="44.97368" lon="4.58631">
        <ele>471</ele>
        <time>2022-02-08T00:21:25Z</time>
      </trkpt>
      <trkpt lat="44.97364" lon="4.58644">
        <ele>472</ele>
        <time>2022-02-08T00:21:26Z</time>
      </trkpt>
      <trkpt lat="44.97355" lon="4.58711">
        <ele>479</ele>
        <time>2022-02-08T00:21:35Z</time>
      </trkpt>
      <trkpt lat="44.97354" lon="4.58739">
        <ele>481</ele>
        <time>2022-02-08T00:21:38Z</time>
      </trkpt>
      <trkpt lat="44.97358" lon="4.58807">
        <ele>485</ele>
        <time>2022-02-08T00:21:47Z</time>
      </trkpt>
      <trkpt lat="44.97359" lon="4.58914">
        <ele>490</ele>
        <time>2022-02-08T00:22:00Z</time>
      </trkpt>
      <trkpt lat="44.97356" lon="4.58938">
        <ele>492</ele>
        <time>2022-02-08T00:22:04Z</time>
      </trkpt>
      <trkpt lat="44.9733" lon="4.59038">
        <ele>495</ele>
        <time>2022-02-08T00:22:17Z</time>
      </trkpt>
      <trkpt lat="44.97328" lon="4.59074">
        <ele>498</ele>
        <time>2022-02-08T00:22:21Z</time>
      </trkpt>
      <trkpt lat="44.97332" lon="4.59116">
        <ele>499</ele>
        <time>2022-02-08T00:22:27Z</time>
      </trkpt>
      <trkpt lat="44.97343" lon="4.59193">
        <ele>504</ele>
        <time>2022-02-08T00:22:37Z</time>
      </trkpt>
      <trkpt lat="44.97347" lon="4.59358">
        <ele>517</ele>
        <time>2022-02-08T00:22:57Z</time>
      </trkpt>
      <trkpt lat="44.97344" lon="4.59369">
        <ele>517</ele>
        <time>2022-02-08T00:22:59Z</time>
      </trkpt>
      <trkpt lat="44.97339" lon="4.59379">
        <ele>516</ele>
        <time>2022-02-08T00:23:01Z</time>
      </trkpt>
      <trkpt lat="44.97319" lon="4.594">
        <ele>513</ele>
        <time>2022-02-08T00:23:05Z</time>
      </trkpt>
      <trkpt lat="44.9731" lon="4.59415">
        <ele>512</ele>
        <time>2022-02-08T00:23:07Z</time>
      </trkpt>
      <trkpt lat="44.973" lon="4.59447">
        <ele>514</ele>
        <time>2022-02-08T00:23:12Z</time>
      </trkpt>
      <trkpt lat="44.97296" lon="4.59584">
        <ele>530</ele>
        <time>2022-02-08T00:23:29Z</time>
      </trkpt>
      <trkpt lat="44.97298" lon="4.59613">
        <ele>533</ele>
        <time>2022-02-08T00:23:33Z</time>
      </trkpt>
      <trkpt lat="44.97301" lon="4.5964">
        <ele>535</ele>
        <time>2022-02-08T00:23:36Z</time>
      </trkpt>
      <trkpt lat="44.9732" lon="4.59736">
        <ele>542</ele>
        <time>2022-02-08T00:23:49Z</time>
      </trkpt>
      <trkpt lat="44.97322" lon="4.59749">
        <ele>542</ele>
        <time>2022-02-08T00:23:50Z</time>
      </trkpt>
      <trkpt lat="44.97319" lon="4.59761">
        <ele>543</ele>
        <time>2022-02-08T00:23:52Z</time>
      </trkpt>
      <trkpt lat="44.97315" lon="4.59772">
        <ele>544</ele>
        <time>2022-02-08T00:23:54Z</time>
      </trkpt>
      <trkpt lat="44.97297" lon="4.59792">
        <ele>545</ele>
        <time>2022-02-08T00:23:58Z</time>
      </trkpt>
      <trkpt lat="44.97279" lon="4.59791">
        <ele>546</ele>
        <time>2022-02-08T00:24:01Z</time>
      </trkpt>
      <trkpt lat="44.97272" lon="4.59783">
        <ele>545</ele>
        <time>2022-02-08T00:24:02Z</time>
      </trkpt>
      <trkpt lat="44.97254" lon="4.59757">
        <ele>540</ele>
        <time>2022-02-08T00:24:07Z</time>
      </trkpt>
      <trkpt lat="44.97206" lon="4.59675">
        <ele>544</ele>
        <time>2022-02-08T00:24:20Z</time>
      </trkpt>
      <trkpt lat="44.97156" lon="4.59585">
        <ele>542</ele>
        <time>2022-02-08T00:24:35Z</time>
      </trkpt>
      <trkpt lat="44.97107" lon="4.59518">
        <ele>543</ele>
        <time>2022-02-08T00:24:47Z</time>
      </trkpt>
      <trkpt lat="44.97057" lon="4.59484">
        <ele>546</ele>
        <time>2022-02-08T00:24:57Z</time>
      </trkpt>
      <trkpt lat="44.9704" lon="4.5946">
        <ele>544</ele>
        <time>2022-02-08T00:25:01Z</time>
      </trkpt>
      <trkpt lat="44.97033" lon="4.59445">
        <ele>542</ele>
        <time>2022-02-08T00:25:03Z</time>
      </trkpt>
      <trkpt lat="44.97027" lon="4.59438">
        <ele>542</ele>
        <time>2022-02-08T00:25:05Z</time>
      </trkpt>
      <trkpt lat="44.97015" lon="4.5943">
        <ele>543</ele>
        <time>2022-02-08T00:25:07Z</time>
      </trkpt>
      <trkpt lat="44.97002" lon="4.59436">
        <ele>546</ele>
        <time>2022-02-08T00:25:10Z</time>
      </trkpt>
      <trkpt lat="44.96993" lon="4.59453">
        <ele>547</ele>
        <time>2022-02-08T00:25:12Z</time>
      </trkpt>
      <trkpt lat="44.96988" lon="4.59483">
        <ele>549</ele>
        <time>2022-02-08T00:25:16Z</time>
      </trkpt>
      <trkpt lat="44.96976" lon="4.59539">
        <ele>553</ele>
        <time>2022-02-08T00:25:23Z</time>
      </trkpt>
      <trkpt lat="44.9697" lon="4.59576">
        <ele>556</ele>
        <time>2022-02-08T00:25:28Z</time>
      </trkpt>
      <trkpt lat="44.96966" lon="4.59621">
        <ele>561</ele>
        <time>2022-02-08T00:25:34Z</time>
      </trkpt>
      <trkpt lat="44.96969" lon="4.59673">
        <ele>569</ele>
        <time>2022-02-08T00:25:41Z</time>
      </trkpt>
      <trkpt lat="44.9697" lon="4.59731">
        <ele>577</ele>
        <time>2022-02-08T00:25:48Z</time>
      </trkpt>
      <trkpt lat="44.96959" lon="4.59806">
        <ele>587</ele>
        <time>2022-02-08T00:25:57Z</time>
      </trkpt>
      <trkpt lat="44.96948" lon="4.59818">
        <ele>587</ele>
        <time>2022-02-08T00:26:00Z</time>
      </trkpt>
      <trkpt lat="44.96939" lon="4.59819">
        <ele>586</ele>
        <time>2022-02-08T00:26:02Z</time>
      </trkpt>
      <trkpt lat="44.96907" lon="4.59797">
        <ele>579</ele>
        <time>2022-02-08T00:26:08Z</time>
      </trkpt>
      <trkpt lat="44.96872" lon="4.59776">
        <ele>579</ele>
        <time>2022-02-08T00:26:15Z</time>
      </trkpt>
      <trkpt lat="44.96842" lon="4.59765">
        <ele>579</ele>
        <time>2022-02-08T00:26:20Z</time>
      </trkpt>
      <trkpt lat="44.96808" lon="4.59758">
        <ele>578</ele>
        <time>2022-02-08T00:26:26Z</time>
      </trkpt>
      <trkpt lat="44.96729" lon="4.5978">
        <ele>584</ele>
        <time>2022-02-08T00:26:41Z</time>
      </trkpt>
      <trkpt lat="44.9669" lon="4.59814">
        <ele>588</ele>
        <time>2022-02-08T00:26:49Z</time>
      </trkpt>
      <trkpt lat="44.96671" lon="4.59839">
        <ele>591</ele>
        <time>2022-02-08T00:26:53Z</time>
      </trkpt>
      <trkpt lat="44.96651" lon="4.59872">
        <ele>602</ele>
        <time>2022-02-08T00:26:59Z</time>
      </trkpt>
      <trkpt lat="44.96638" lon="4.59886">
        <ele>606</ele>
        <time>2022-02-08T00:27:02Z</time>
      </trkpt>
      <trkpt lat="44.9663" lon="4.5989">
        <ele>608</ele>
        <time>2022-02-08T00:27:03Z</time>
      </trkpt>
      <trkpt lat="44.9662" lon="4.59891">
        <ele>609</ele>
        <time>2022-02-08T00:27:05Z</time>
      </trkpt>
      <trkpt lat="44.96607" lon="4.59879">
        <ele>607</ele>
        <time>2022-02-08T00:27:08Z</time>
      </trkpt>
      <trkpt lat="44.96592" lon="4.59854">
        <ele>604</ele>
        <time>2022-02-08T00:27:12Z</time>
      </trkpt>
      <trkpt lat="44.96581" lon="4.59831">
        <ele>602</ele>
        <time>2022-02-08T00:27:15Z</time>
      </trkpt>
      <trkpt lat="44.96567" lon="4.59799">
        <ele>602</ele>
        <time>2022-02-08T00:27:20Z</time>
      </trkpt>
      <trkpt lat="44.96557" lon="4.5975">
        <ele>598</ele>
        <time>2022-02-08T00:27:27Z</time>
      </trkpt>
      <trkpt lat="44.9655" lon="4.59731">
        <ele>597</ele>
        <time>2022-02-08T00:27:29Z</time>
      </trkpt>
      <trkpt lat="44.96541" lon="4.59713">
        <ele>595</ele>
        <time>2022-02-08T00:27:32Z</time>
      </trkpt>
      <trkpt lat="44.96522" lon="4.59689">
        <ele>595</ele>
        <time>2022-02-08T00:27:37Z</time>
      </trkpt>
      <trkpt lat="44.96497" lon="4.5967">
        <ele>595</ele>
        <time>2022-02-08T00:27:42Z</time>
      </trkpt>
      <trkpt lat="44.96485" lon="4.59667">
        <ele>592</ele>
        <time>2022-02-08T00:27:44Z</time>
      </trkpt>
      <trkpt lat="44.96472" lon="4.59668">
        <ele>590</ele>
        <time>2022-02-08T00:27:46Z</time>
      </trkpt>
      <trkpt lat="44.96453" lon="4.59684">
        <ele>593</ele>
        <time>2022-02-08T00:27:50Z</time>
      </trkpt>
      <trkpt lat="44.96433" lon="4.59713">
        <ele>600</ele>
        <time>2022-02-08T00:27:55Z</time>
      </trkpt>
      <trkpt lat="44.96404" lon="4.59761">
        <ele>611</ele>
        <time>2022-02-08T00:28:03Z</time>
      </trkpt>
      <trkpt lat="44.96377" lon="4.59798">
        <ele>616</ele>
        <time>2022-02-08T00:28:10Z</time>
      </trkpt>
      <trkpt lat="44.96357" lon="4.59822">
        <ele>621</ele>
        <time>2022-02-08T00:28:14Z</time>
      </trkpt>
      <trkpt lat="44.96332" lon="4.59837">
        <ele>621</ele>
        <time>2022-02-08T00:28:19Z</time>
      </trkpt>
      <trkpt lat="44.96309" lon="4.59844">
        <ele>616</ele>
        <time>2022-02-08T00:28:23Z</time>
      </trkpt>
      <trkpt lat="44.96289" lon="4.59859">
        <ele>613</ele>
        <time>2022-02-08T00:28:28Z</time>
      </trkpt>
      <trkpt lat="44.96274" lon="4.59877">
        <ele>612</ele>
        <time>2022-02-08T00:28:31Z</time>
      </trkpt>
      <trkpt lat="44.96265" lon="4.59907">
        <ele>615</ele>
        <time>2022-02-08T00:28:35Z</time>
      </trkpt>
      <trkpt lat="44.96261" lon="4.59954">
        <ele>618</ele>
        <time>2022-02-08T00:28:41Z</time>
      </trkpt>
      <trkpt lat="44.96279" lon="4.6005">
        <ele>631</ele>
        <time>2022-02-08T00:28:54Z</time>
      </trkpt>
      <trkpt lat="44.96288" lon="4.60117">
        <ele>640</ele>
        <time>2022-02-08T00:29:02Z</time>
      </trkpt>
      <trkpt lat="44.96291" lon="4.60196">
        <ele>649</ele>
        <time>2022-02-08T00:29:12Z</time>
      </trkpt>
      <trkpt lat="44.96282" lon="4.60218">
        <ele>650</ele>
        <time>2022-02-08T00:29:15Z</time>
      </trkpt>
      <trkpt lat="44.96275" lon="4.60224">
        <ele>649</ele>
        <time>2022-02-08T00:29:17Z</time>
      </trkpt>
      <trkpt lat="44.96265" lon="4.60225">
        <ele>647</ele>
        <time>2022-02-08T00:29:19Z</time>
      </trkpt>
      <trkpt lat="44.96238" lon="4.60196">
        <ele>640</ele>
        <time>2022-02-08T00:29:25Z</time>
      </trkpt>
      <trkpt lat="44.96218" lon="4.60183">
        <ele>637</ele>
        <time>2022-02-08T00:29:29Z</time>
      </trkpt>
      <trkpt lat="44.96201" lon="4.60175">
        <ele>635</ele>
        <time>2022-02-08T00:29:32Z</time>
      </trkpt>
      <trkpt lat="44.96182" lon="4.60176">
        <ele>634</ele>
        <time>2022-02-08T00:29:35Z</time>
      </trkpt>
      <trkpt lat="44.96171" lon="4.60186">
        <ele>636</ele>
        <time>2022-02-08T00:29:37Z</time>
      </trkpt>
      <trkpt lat="44.96141" lon="4.60239">
        <ele>646</ele>
        <time>2022-02-08T00:29:46Z</time>
      </trkpt>
      <trkpt lat="44.96129" lon="4.60248">
        <ele>648</ele>
        <time>2022-02-08T00:29:48Z</time>
      </trkpt>
      <trkpt lat="44.96117" lon="4.60255">
        <ele>649</ele>
        <time>2022-02-08T00:29:51Z</time>
      </trkpt>
      <trkpt lat="44.96062" lon="4.60264">
        <ele>655</ele>
        <time>2022-02-08T00:30:01Z</time>
      </trkpt>
      <trkpt lat="44.96047" lon="4.60258">
        <ele>657</ele>
        <time>2022-02-08T00:30:03Z</time>
      </trkpt>
      <trkpt lat="44.96041" lon="4.60245">
        <ele>656</ele>
        <time>2022-02-08T00:30:05Z</time>
      </trkpt>
      <trkpt lat="44.96033" lon="4.60187">
        <ele>649</ele>
        <time>2022-02-08T00:30:13Z</time>
      </trkpt>
      <trkpt lat="44.96026" lon="4.60169">
        <ele>648</ele>
        <time>2022-02-08T00:30:15Z</time>
      </trkpt>
      <trkpt lat="44.96015" lon="4.60153">
        <ele>648</ele>
        <time>2022-02-08T00:30:18Z</time>
      </trkpt>
      <trkpt lat="44.96" lon="4.60143">
        <ele>651</ele>
        <time>2022-02-08T00:30:21Z</time>
      </trkpt>
      <trkpt lat="44.95984" lon="4.60145">
        <ele>650</ele>
        <time>2022-02-08T00:30:24Z</time>
      </trkpt>
      <trkpt lat="44.95961" lon="4.60155">
        <ele>650</ele>
        <time>2022-02-08T00:30:28Z</time>
      </trkpt>
      <trkpt lat="44.95946" lon="4.60165">
        <ele>652</ele>
        <time>2022-02-08T00:30:31Z</time>
      </trkpt>
      <trkpt lat="44.95933" lon="4.60181">
        <ele>654</ele>
        <time>2022-02-08T00:30:34Z</time>
      </trkpt>
      <trkpt lat="44.95925" lon="4.6021">
        <ele>658</ele>
        <time>2022-02-08T00:30:38Z</time>
      </trkpt>
      <trkpt lat="44.95912" lon="4.60273">
        <ele>667</ele>
        <time>2022-02-08T00:30:46Z</time>
      </trkpt>
      <trkpt lat="44.95891" lon="4.60343">
        <ele>673</ele>
        <time>2022-02-08T00:30:56Z</time>
      </trkpt>
      <trkpt lat="44.95867" lon="4.6039">
        <ele>675</ele>
        <time>2022-02-08T00:31:03Z</time>
      </trkpt>
      <trkpt lat="44.95838" lon="4.60474">
        <ele>683</ele>
        <time>2022-02-08T00:31:15Z</time>
      </trkpt>
      <trkpt lat="44.95829" lon="4.60485">
        <ele>685</ele>
        <time>2022-02-08T00:31:17Z</time>
      </trkpt>
      <trkpt lat="44.95817" lon="4.60483">
        <ele>687</ele>
        <time>2022-02-08T00:31:19Z</time>
      </trkpt>
      <trkpt lat="44.95806" lon="4.60471">
        <ele>687</ele>
        <time>2022-02-08T00:31:22Z</time>
      </trkpt>
      <trkpt lat="44.95795" lon="4.60455">
        <ele>686</ele>
        <time>2022-02-08T00:31:25Z</time>
      </trkpt>
      <trkpt lat="44.9578" lon="4.60426">
        <ele>684</ele>
        <time>2022-02-08T00:31:29Z</time>
      </trkpt>
      <trkpt lat="44.95763" lon="4.60374">
        <ele>680</ele>
        <time>2022-02-08T00:31:36Z</time>
      </trkpt>
      <trkpt lat="44.95749" lon="4.6034">
        <ele>678</ele>
        <time>2022-02-08T00:31:41Z</time>
      </trkpt>
      <trkpt lat="44.9573" lon="4.60327">
        <ele>677</ele>
        <time>2022-02-08T00:31:45Z</time>
      </trkpt>
      <trkpt lat="44.95633" lon="4.60318">
        <ele>678</ele>
        <time>2022-02-08T00:32:02Z</time>
      </trkpt>
      <trkpt lat="44.95603" lon="4.60329">
        <ele>680</ele>
        <time>2022-02-08T00:32:08Z</time>
      </trkpt>
      <trkpt lat="44.95562" lon="4.60386">
        <ele>687</ele>
        <time>2022-02-08T00:32:18Z</time>
      </trkpt>
      <trkpt lat="44.95522" lon="4.60421">
        <ele>689</ele>
        <time>2022-02-08T00:32:26Z</time>
      </trkpt>
      <trkpt lat="44.95505" lon="4.6044">
        <ele>689</ele>
        <time>2022-02-08T00:32:30Z</time>
      </trkpt>
      <trkpt lat="44.95457" lon="4.60506">
        <ele>696</ele>
        <time>2022-02-08T00:32:42Z</time>
      </trkpt>
      <trkpt lat="44.95446" lon="4.60511">
        <ele>696</ele>
        <time>2022-02-08T00:32:44Z</time>
      </trkpt>
      <trkpt lat="44.95431" lon="4.60515">
        <ele>696</ele>
        <time>2022-02-08T00:32:47Z</time>
      </trkpt>
      <trkpt lat="44.95409" lon="4.60512">
        <ele>697</ele>
        <time>2022-02-08T00:32:51Z</time>
      </trkpt>
      <trkpt lat="44.95347" lon="4.60484">
        <ele>702</ele>
        <time>2022-02-08T00:33:02Z</time>
      </trkpt>
      <trkpt lat="44.95284" lon="4.60471">
        <ele>711</ele>
        <time>2022-02-08T00:33:14Z</time>
      </trkpt>
      <trkpt lat="44.95263" lon="4.60453">
        <ele>713</ele>
        <time>2022-02-08T00:33:18Z</time>
      </trkpt>
      <trkpt lat="44.95233" lon="4.60397">
        <ele>713</ele>
        <time>2022-02-08T00:33:27Z</time>
      </trkpt>
      <trkpt lat="44.95222" lon="4.60374">
        <ele>714</ele>
        <time>2022-02-08T00:33:31Z</time>
      </trkpt>
      <trkpt lat="44.95208" lon="4.60324">
        <ele>715</ele>
        <time>2022-02-08T00:33:37Z</time>
      </trkpt>
      <trkpt lat="44.95223" lon="4.60253">
        <ele>713</ele>
        <time>2022-02-08T00:33:47Z</time>
      </trkpt>
      <trkpt lat="44.95217" lon="4.60221">
        <ele>712</ele>
        <time>2022-02-08T00:33:51Z</time>
      </trkpt>
      <trkpt lat="44.95134" lon="4.6014">
        <ele>722</ele>
        <time>2022-02-08T00:34:09Z</time>
      </trkpt>
      <trkpt lat="44.95092" lon="4.60111">
        <ele>726</ele>
        <time>2022-02-08T00:34:17Z</time>
      </trkpt>
      <trkpt lat="44.95039" lon="4.60111">
        <ele>722</ele>
        <time>2022-02-08T00:34:26Z</time>
      </trkpt>
      <trkpt lat="44.95009" lon="4.60138">
        <ele>726</ele>
        <time>2022-02-08T00:34:33Z</time>
      </trkpt>
      <trkpt lat="44.94904" lon="4.60272">
        <ele>750</ele>
        <time>2022-02-08T00:34:58Z</time>
      </trkpt>
      <trkpt lat="44.94891" lon="4.60272">
        <ele>753</ele>
        <time>2022-02-08T00:35:00Z</time>
      </trkpt>
      <trkpt lat="44.94884" lon="4.60266">
        <ele>753</ele>
        <time>2022-02-08T00:35:02Z</time>
      </trkpt>
      <trkpt lat="44.94859" lon="4.60143">
        <ele>742</ele>
        <time>2022-02-08T00:35:18Z</time>
      </trkpt>
      <trkpt lat="44.94845" lon="4.60112">
        <ele>741</ele>
        <time>2022-02-08T00:35:23Z</time>
      </trkpt>
      <trkpt lat="44.94834" lon="4.601">
        <ele>742</ele>
        <time>2022-02-08T00:35:25Z</time>
      </trkpt>
      <trkpt lat="44.94824" lon="4.60094">
        <ele>741</ele>
        <time>2022-02-08T00:35:27Z</time>
      </trkpt>
      <trkpt lat="44.94814" lon="4.60091">
        <ele>741</ele>
        <time>2022-02-08T00:35:29Z</time>
      </trkpt>
      <trkpt lat="44.94801" lon="4.60092">
        <ele>741</ele>
        <time>2022-02-08T00:35:31Z</time>
      </trkpt>
      <trkpt lat="44.94776" lon="4.60101">
        <ele>743</ele>
        <time>2022-02-08T00:35:36Z</time>
      </trkpt>
      <trkpt lat="44.94766" lon="4.60108">
        <ele>744</ele>
        <time>2022-02-08T00:35:38Z</time>
      </trkpt>
      <trkpt lat="44.9475" lon="4.60122">
        <ele>747</ele>
        <time>2022-02-08T00:35:41Z</time>
      </trkpt>
      <trkpt lat="44.94716" lon="4.60159">
        <ele>756</ele>
        <time>2022-02-08T00:35:49Z</time>
      </trkpt>
      <trkpt lat="44.94705" lon="4.60163">
        <ele>757</ele>
        <time>2022-02-08T00:35:51Z</time>
      </trkpt>
      <trkpt lat="44.94698" lon="4.60162">
        <ele>757</ele>
        <time>2022-02-08T00:35:52Z</time>
      </trkpt>
      <trkpt lat="44.9469" lon="4.60154">
        <ele>756</ele>
        <time>2022-02-08T00:35:54Z</time>
      </trkpt>
      <trkpt lat="44.9466" lon="4.60115">
        <ele>751</ele>
        <time>2022-02-08T00:36:01Z</time>
      </trkpt>
      <trkpt lat="44.9465" lon="4.60105">
        <ele>751</ele>
        <time>2022-02-08T00:36:03Z</time>
      </trkpt>
      <trkpt lat="44.94637" lon="4.60097">
        <ele>751</ele>
        <time>2022-02-08T00:36:06Z</time>
      </trkpt>
      <trkpt lat="44.94538" lon="4.6005">
        <ele>757</ele>
        <time>2022-02-08T00:36:24Z</time>
      </trkpt>
      <trkpt lat="44.94523" lon="4.6005">
        <ele>757</ele>
        <time>2022-02-08T00:36:27Z</time>
      </trkpt>
      <trkpt lat="44.94505" lon="4.60056">
        <ele>757</ele>
        <time>2022-02-08T00:36:30Z</time>
      </trkpt>
      <trkpt lat="44.945" lon="4.60062">
        <ele>757</ele>
        <time>2022-02-08T00:36:31Z</time>
      </trkpt>
      <trkpt lat="44.94493" lon="4.60072">
        <ele>755</ele>
        <time>2022-02-08T00:36:33Z</time>
      </trkpt>
      <trkpt lat="44.94487" lon="4.60089">
        <ele>754</ele>
        <time>2022-02-08T00:36:35Z</time>
      </trkpt>
      <trkpt lat="44.9447" lon="4.60162">
        <ele>751</ele>
        <time>2022-02-08T00:36:45Z</time>
      </trkpt>
      <trkpt lat="44.94467" lon="4.60188">
        <ele>751</ele>
        <time>2022-02-08T00:36:48Z</time>
      </trkpt>
      <trkpt lat="44.94465" lon="4.60283">
        <ele>750</ele>
        <time>2022-02-08T00:37:00Z</time>
      </trkpt>
      <trkpt lat="44.94466" lon="4.60304">
        <ele>751</ele>
        <time>2022-02-08T00:37:03Z</time>
      </trkpt>
      <trkpt lat="44.94481" lon="4.60396">
        <ele>754</ele>
        <time>2022-02-08T00:37:15Z</time>
      </trkpt>
      <trkpt lat="44.94482" lon="4.60427">
        <ele>755</ele>
        <time>2022-02-08T00:37:19Z</time>
      </trkpt>
      <trkpt lat="44.94474" lon="4.60518">
        <ele>756</ele>
        <time>2022-02-08T00:37:30Z</time>
      </trkpt>
      <trkpt lat="44.94471" lon="4.60532">
        <ele>757</ele>
        <time>2022-02-08T00:37:32Z</time>
      </trkpt>
      <trkpt lat="44.94467" lon="4.60543">
        <ele>758</ele>
        <time>2022-02-08T00:37:34Z</time>
      </trkpt>
      <trkpt lat="44.94456" lon="4.60557">
        <ele>758</ele>
        <time>2022-02-08T00:37:36Z</time>
      </trkpt>
      <trkpt lat="44.94448" lon="4.60561">
        <ele>757</ele>
        <time>2022-02-08T00:37:38Z</time>
      </trkpt>
      <trkpt lat="44.94433" lon="4.60563">
        <ele>756</ele>
        <time>2022-02-08T00:37:41Z</time>
      </trkpt>
      <trkpt lat="44.94421" lon="4.60561">
        <ele>754</ele>
        <time>2022-02-08T00:37:43Z</time>
      </trkpt>
      <trkpt lat="44.94399" lon="4.60548">
        <ele>753</ele>
        <time>2022-02-08T00:37:47Z</time>
      </trkpt>
      <trkpt lat="44.94367" lon="4.60513">
        <ele>750</ele>
        <time>2022-02-08T00:37:54Z</time>
      </trkpt>
      <trkpt lat="44.94357" lon="4.60507">
        <ele>750</ele>
        <time>2022-02-08T00:37:56Z</time>
      </trkpt>
      <trkpt lat="44.94335" lon="4.60503">
        <ele>751</ele>
        <time>2022-02-08T00:38:00Z</time>
      </trkpt>
      <trkpt lat="44.94299" lon="4.6051">
        <ele>748</ele>
        <time>2022-02-08T00:38:07Z</time>
      </trkpt>
      <trkpt lat="44.94285" lon="4.60516">
        <ele>747</ele>
        <time>2022-02-08T00:38:09Z</time>
      </trkpt>
      <trkpt lat="44.94244" lon="4.60549">
        <ele>748</ele>
        <time>2022-02-08T00:38:18Z</time>
      </trkpt>
      <trkpt lat="44.94228" lon="4.60556">
        <ele>747</ele>
        <time>2022-02-08T00:38:21Z</time>
      </trkpt>
      <trkpt lat="44.94109" lon="4.60588">
        <ele>738</ele>
        <time>2022-02-08T00:38:42Z</time>
      </trkpt>
      <trkpt lat="44.94085" lon="4.60608">
        <ele>739</ele>
        <time>2022-02-08T00:38:47Z</time>
      </trkpt>
      <trkpt lat="44.94061" lon="4.60632">
        <ele>738</ele>
        <time>2022-02-08T00:38:52Z</time>
      </trkpt>
      <trkpt lat="44.94046" lon="4.60651">
        <ele>738</ele>
        <time>2022-02-08T00:38:56Z</time>
      </trkpt>
      <trkpt lat="44.9403" lon="4.60686">
        <ele>740</ele>
        <time>2022-02-08T00:39:01Z</time>
      </trkpt>
      <trkpt lat="44.93974" lon="4.6079">
        <ele>736</ele>
        <time>2022-02-08T00:39:18Z</time>
      </trkpt>
      <trkpt lat="44.93971" lon="4.60807">
        <ele>734</ele>
        <time>2022-02-08T00:39:20Z</time>
      </trkpt>
      <trkpt lat="44.93971" lon="4.60822">
        <ele>733</ele>
        <time>2022-02-08T00:39:22Z</time>
      </trkpt>
      <trkpt lat="44.93982" lon="4.60881">
        <ele>734</ele>
        <time>2022-02-08T00:39:29Z</time>
      </trkpt>
      <trkpt lat="44.93983" lon="4.60898">
        <ele>734</ele>
        <time>2022-02-08T00:39:32Z</time>
      </trkpt>
      <trkpt lat="44.93978" lon="4.60925">
        <ele>733</ele>
        <time>2022-02-08T00:39:35Z</time>
      </trkpt>
      <trkpt lat="44.93965" lon="4.60949">
        <ele>733</ele>
        <time>2022-02-08T00:39:39Z</time>
      </trkpt>
      <trkpt lat="44.93936" lon="4.60989">
        <ele>729</ele>
        <time>2022-02-08T00:39:46Z</time>
      </trkpt>
      <trkpt lat="44.9392" lon="4.61014">
        <ele>727</ele>
        <time>2022-02-08T00:39:50Z</time>
      </trkpt>
      <trkpt lat="44.93895" lon="4.61068">
        <ele>725</ele>
        <time>2022-02-08T00:39:58Z</time>
      </trkpt>
      <trkpt lat="44.93884" lon="4.6111">
        <ele>725</ele>
        <time>2022-02-08T00:40:04Z</time>
      </trkpt>
      <trkpt lat="44.93871" lon="4.61191">
        <ele>726</ele>
        <time>2022-02-08T00:40:15Z</time>
      </trkpt>
      <trkpt lat="44.93861" lon="4.61233">
        <ele>726</ele>
        <time>2022-02-08T00:40:20Z</time>
      </trkpt>
      <trkpt lat="44.93855" lon="4.61249">
        <ele>725</ele>
        <time>2022-02-08T00:40:22Z</time>
      </trkpt>
      <trkpt lat="44.93848" lon="4.6126">
        <ele>724</ele>
        <time>2022-02-08T00:40:24Z</time>
      </trkpt>
      <trkpt lat="44.93841" lon="4.61261">
        <ele>723</ele>
        <time>2022-02-08T00:40:26Z</time>
      </trkpt>
      <trkpt lat="44.93824" lon="4.61253">
        <ele>719</ele>
        <time>2022-02-08T00:40:29Z</time>
      </trkpt>
      <trkpt lat="44.93803" lon="4.61232">
        <ele>716</ele>
        <time>2022-02-08T00:40:33Z</time>
      </trkpt>
      <trkpt lat="44.93792" lon="4.61225">
        <ele>714</ele>
        <time>2022-02-08T00:40:35Z</time>
      </trkpt>
      <trkpt lat="44.9377" lon="4.61226">
        <ele>712</ele>
        <time>2022-02-08T00:40:39Z</time>
      </trkpt>
      <trkpt lat="44.93746" lon="4.61238">
        <ele>711</ele>
        <time>2022-02-08T00:40:44Z</time>
      </trkpt>
      <trkpt lat="44.93723" lon="4.61253">
        <ele>707</ele>
        <time>2022-02-08T00:40:48Z</time>
      </trkpt>
      <trkpt lat="44.93715" lon="4.61263">
        <ele>706</ele>
        <time>2022-02-08T00:40:50Z</time>
      </trkpt>
      <trkpt lat="44.93709" lon="4.61276">
        <ele>706</ele>
        <time>2022-02-08T00:40:52Z</time>
      </trkpt>
      <trkpt lat="44.93704" lon="4.61295">
        <ele>707</ele>
        <time>2022-02-08T00:40:55Z</time>
      </trkpt>
      <trkpt lat="44.93701" lon="4.61314">
        <ele>707</ele>
        <time>2022-02-08T00:40:57Z</time>
      </trkpt>
      <trkpt lat="44.93696" lon="4.61332">
        <ele>708</ele>
        <time>2022-02-08T00:41:00Z</time>
      </trkpt>
      <trkpt lat="44.9369" lon="4.61344">
        <ele>707</ele>
        <time>2022-02-08T00:41:02Z</time>
      </trkpt>
      <trkpt lat="44.93645" lon="4.61409">
        <ele>706</ele>
        <time>2022-02-08T00:41:13Z</time>
      </trkpt>
      <trkpt lat="44.93637" lon="4.61427">
        <ele>705</ele>
        <time>2022-02-08T00:41:16Z</time>
      </trkpt>
      <trkpt lat="44.93634" lon="4.61522">
        <ele>703</ele>
        <time>2022-02-08T00:41:28Z</time>
      </trkpt>
      <trkpt lat="44.93626" lon="4.61544">
        <ele>703</ele>
        <time>2022-02-08T00:41:31Z</time>
      </trkpt>
      <trkpt lat="44.93619" lon="4.61559">
        <ele>702</ele>
        <time>2022-02-08T00:41:33Z</time>
      </trkpt>
      <trkpt lat="44.93527" lon="4.61698">
        <ele>693</ele>
        <time>2022-02-08T00:41:57Z</time>
      </trkpt>
      <trkpt lat="44.93514" lon="4.61716">
        <ele>692</ele>
        <time>2022-02-08T00:42:00Z</time>
      </trkpt>
      <trkpt lat="44.935" lon="4.61727">
        <ele>691</ele>
        <time>2022-02-08T00:42:03Z</time>
      </trkpt>
      <trkpt lat="44.9346" lon="4.61744">
        <ele>687</ele>
        <time>2022-02-08T00:42:10Z</time>
      </trkpt>
      <trkpt lat="44.93431" lon="4.61753">
        <ele>684</ele>
        <time>2022-02-08T00:42:16Z</time>
      </trkpt>
      <trkpt lat="44.93285" lon="4.61774">
        <ele>673</ele>
        <time>2022-02-08T00:42:42Z</time>
      </trkpt>
      <trkpt lat="44.93235" lon="4.61772">
        <ele>672</ele>
        <time>2022-02-08T00:42:51Z</time>
      </trkpt>
      <trkpt lat="44.93193" lon="4.61757">
        <ele>674</ele>
        <time>2022-02-08T00:42:59Z</time>
      </trkpt>
      <trkpt lat="44.93164" lon="4.61739">
        <ele>675</ele>
        <time>2022-02-08T00:43:04Z</time>
      </trkpt>
      <trkpt lat="44.93137" lon="4.61715">
        <ele>677</ele>
        <time>2022-02-08T00:43:10Z</time>
      </trkpt>
      <trkpt lat="44.93125" lon="4.61701">
        <ele>678</ele>
        <time>2022-02-08T00:43:13Z</time>
      </trkpt>
      <trkpt lat="44.93094" lon="4.61651">
        <ele>679</ele>
        <time>2022-02-08T00:43:21Z</time>
      </trkpt>
      <trkpt lat="44.93083" lon="4.61637">
        <ele>679</ele>
        <time>2022-02-08T00:43:24Z</time>
      </trkpt>
      <trkpt lat="44.93072" lon="4.61626">
        <ele>679</ele>
        <time>2022-02-08T00:43:26Z</time>
      </trkpt>
      <trkpt lat="44.93045" lon="4.61609">
        <ele>680</ele>
        <time>2022-02-08T00:43:31Z</time>
      </trkpt>
      <trkpt lat="44.93034" lon="4.61598">
        <ele>681</ele>
        <time>2022-02-08T00:43:34Z</time>
      </trkpt>
      <trkpt lat="44.93015" lon="4.61571">
        <ele>680</ele>
        <time>2022-02-08T00:43:38Z</time>
      </trkpt>
      <trkpt lat="44.92998" lon="4.61536">
        <ele>678</ele>
        <time>2022-02-08T00:43:44Z</time>
      </trkpt>
      <trkpt lat="44.92985" lon="4.61523">
        <ele>677</ele>
        <time>2022-02-08T00:43:47Z</time>
      </trkpt>
      <trkpt lat="44.9296" lon="4.61502">
        <ele>676</ele>
        <time>2022-02-08T00:43:52Z</time>
      </trkpt>
      <trkpt lat="44.92933" lon="4.61486">
        <ele>676</ele>
        <time>2022-02-08T00:43:57Z</time>
      </trkpt>
      <trkpt lat="44.92905" lon="4.61477">
        <ele>676</ele>
        <time>2022-02-08T00:44:02Z</time>
      </trkpt>
      <trkpt lat="44.9289" lon="4.61478">
        <ele>676</ele>
        <time>2022-02-08T00:44:05Z</time>
      </trkpt>
      <trkpt lat="44.92854" lon="4.61493">
        <ele>677</ele>
        <time>2022-02-08T00:44:11Z</time>
      </trkpt>
      <trkpt lat="44.92841" lon="4.61501">
        <ele>678</ele>
        <time>2022-02-08T00:44:14Z</time>
      </trkpt>
      <trkpt lat="44.92832" lon="4.61509">
        <ele>679</ele>
        <time>2022-02-08T00:44:16Z</time>
      </trkpt>
      <trkpt lat="44.92808" lon="4.61549">
        <ele>680</ele>
        <time>2022-02-08T00:44:22Z</time>
      </trkpt>
      <trkpt lat="44.92799" lon="4.6156">
        <ele>681</ele>
        <time>2022-02-08T00:44:25Z</time>
      </trkpt>
      <trkpt lat="44.92764" lon="4.61581">
        <ele>681</ele>
        <time>2022-02-08T00:44:31Z</time>
      </trkpt>
      <trkpt lat="44.92717" lon="4.61617">
        <ele>684</ele>
        <time>2022-02-08T00:44:41Z</time>
      </trkpt>
      <trkpt lat="44.92703" lon="4.61622">
        <ele>686</ele>
        <time>2022-02-08T00:44:43Z</time>
      </trkpt>
      <trkpt lat="44.92691" lon="4.61621">
        <ele>686</ele>
        <time>2022-02-08T00:44:46Z</time>
      </trkpt>
      <trkpt lat="44.92679" lon="4.61613">
        <ele>686</ele>
        <time>2022-02-08T00:44:48Z</time>
      </trkpt>
      <trkpt lat="44.92666" lon="4.61591">
        <ele>682</ele>
        <time>2022-02-08T00:44:52Z</time>
      </trkpt>
      <trkpt lat="44.92652" lon="4.61575">
        <ele>681</ele>
        <time>2022-02-08T00:44:55Z</time>
      </trkpt>
      <trkpt lat="44.92623" lon="4.61569">
        <ele>682</ele>
        <time>2022-02-08T00:45:00Z</time>
      </trkpt>
      <trkpt lat="44.92584" lon="4.61549">
        <ele>683</ele>
        <time>2022-02-08T00:45:07Z</time>
      </trkpt>
      <trkpt lat="44.925" lon="4.61484">
        <ele>678</ele>
        <time>2022-02-08T00:45:24Z</time>
      </trkpt>
      <trkpt lat="44.92491" lon="4.61475">
        <ele>677</ele>
        <time>2022-02-08T00:45:26Z</time>
      </trkpt>
      <trkpt lat="44.92466" lon="4.61405">
        <ele>677</ele>
        <time>2022-02-08T00:45:36Z</time>
      </trkpt>
      <trkpt lat="44.92444" lon="4.61388">
        <ele>678</ele>
        <time>2022-02-08T00:45:41Z</time>
      </trkpt>
      <trkpt lat="44.92396" lon="4.6139">
        <ele>674</ele>
        <time>2022-02-08T00:45:49Z</time>
      </trkpt>
      <trkpt lat="44.92308" lon="4.61444">
        <ele>667</ele>
        <time>2022-02-08T00:46:06Z</time>
      </trkpt>
      <trkpt lat="44.9228" lon="4.61457">
        <ele>666</ele>
        <time>2022-02-08T00:46:12Z</time>
      </trkpt>
      <trkpt lat="44.92267" lon="4.61461">
        <ele>665</ele>
        <time>2022-02-08T00:46:14Z</time>
      </trkpt>
      <trkpt lat="44.92253" lon="4.61461">
        <ele>665</ele>
        <time>2022-02-08T00:46:16Z</time>
      </trkpt>
      <trkpt lat="44.92226" lon="4.61456">
        <ele>668</ele>
        <time>2022-02-08T00:46:21Z</time>
      </trkpt>
      <trkpt lat="44.92213" lon="4.61459">
        <ele>669</ele>
        <time>2022-02-08T00:46:24Z</time>
      </trkpt>
      <trkpt lat="44.92195" lon="4.61479">
        <ele>668</ele>
        <time>2022-02-08T00:46:28Z</time>
      </trkpt>
      <trkpt lat="44.91955" lon="4.61781">
        <ele>638</ele>
        <time>2022-02-08T00:47:25Z</time>
      </trkpt>
      <trkpt lat="44.91941" lon="4.61794">
        <ele>637</ele>
        <time>2022-02-08T00:47:28Z</time>
      </trkpt>
      <trkpt lat="44.9192" lon="4.61817">
        <ele>634</ele>
        <time>2022-02-08T00:47:33Z</time>
      </trkpt>
      <trkpt lat="44.91908" lon="4.61824">
        <ele>633</ele>
        <time>2022-02-08T00:47:35Z</time>
      </trkpt>
      <trkpt lat="44.91887" lon="4.61828">
        <ele>632</ele>
        <time>2022-02-08T00:47:39Z</time>
      </trkpt>
      <trkpt lat="44.91876" lon="4.61827">
        <ele>632</ele>
        <time>2022-02-08T00:47:41Z</time>
      </trkpt>
      <trkpt lat="44.9186" lon="4.61834">
        <ele>631</ele>
        <time>2022-02-08T00:47:44Z</time>
      </trkpt>
      <trkpt lat="44.91823" lon="4.61875">
        <ele>629</ele>
        <time>2022-02-08T00:47:52Z</time>
      </trkpt>
      <trkpt lat="44.91813" lon="4.6189">
        <ele>629</ele>
        <time>2022-02-08T00:47:55Z</time>
      </trkpt>
      <trkpt lat="44.91797" lon="4.61923">
        <ele>629</ele>
        <time>2022-02-08T00:48:00Z</time>
      </trkpt>
      <trkpt lat="44.91792" lon="4.61937">
        <ele>629</ele>
        <time>2022-02-08T00:48:02Z</time>
      </trkpt>
      <trkpt lat="44.91791" lon="4.61965">
        <ele>628</ele>
        <time>2022-02-08T00:48:05Z</time>
      </trkpt>
      <trkpt lat="44.91792" lon="4.62036">
        <ele>627</ele>
        <time>2022-02-08T00:48:14Z</time>
      </trkpt>
      <trkpt lat="44.91791" lon="4.62071">
        <ele>626</ele>
        <time>2022-02-08T00:48:18Z</time>
      </trkpt>
      <trkpt lat="44.91786" lon="4.62087">
        <ele>626</ele>
        <time>2022-02-08T00:48:21Z</time>
      </trkpt>
      <trkpt lat="44.9178" lon="4.621">
        <ele>626</ele>
        <time>2022-02-08T00:48:23Z</time>
      </trkpt>
      <trkpt lat="44.91768" lon="4.62135">
        <ele>626</ele>
        <time>2022-02-08T00:48:28Z</time>
      </trkpt>
      <trkpt lat="44.9176" lon="4.62151">
        <ele>626</ele>
        <time>2022-02-08T00:48:30Z</time>
      </trkpt>
      <trkpt lat="44.91753" lon="4.62163">
        <ele>626</ele>
        <time>2022-02-08T00:48:32Z</time>
      </trkpt>
      <trkpt lat="44.91734" lon="4.62217">
        <ele>624</ele>
        <time>2022-02-08T00:48:40Z</time>
      </trkpt>
      <trkpt lat="44.91725" lon="4.62253">
        <ele>623</ele>
        <time>2022-02-08T00:48:44Z</time>
      </trkpt>
      <trkpt lat="44.91717" lon="4.62309">
        <ele>621</ele>
        <time>2022-02-08T00:48:52Z</time>
      </trkpt>
      <trkpt lat="44.91711" lon="4.62325">
        <ele>620</ele>
        <time>2022-02-08T00:48:54Z</time>
      </trkpt>
      <trkpt lat="44.91704" lon="4.6234">
        <ele>620</ele>
        <time>2022-02-08T00:48:56Z</time>
      </trkpt>
      <trkpt lat="44.91694" lon="4.6235">
        <ele>619</ele>
        <time>2022-02-08T00:48:58Z</time>
      </trkpt>
      <trkpt lat="44.91682" lon="4.62356">
        <ele>619</ele>
        <time>2022-02-08T00:49:01Z</time>
      </trkpt>
      <trkpt lat="44.91669" lon="4.62357">
        <ele>620</ele>
        <time>2022-02-08T00:49:03Z</time>
      </trkpt>
      <trkpt lat="44.91657" lon="4.62352">
        <ele>620</ele>
        <time>2022-02-08T00:49:05Z</time>
      </trkpt>
      <trkpt lat="44.91648" lon="4.62343">
        <ele>621</ele>
        <time>2022-02-08T00:49:07Z</time>
      </trkpt>
      <trkpt lat="44.9164" lon="4.6233">
        <ele>622</ele>
        <time>2022-02-08T00:49:09Z</time>
      </trkpt>
      <trkpt lat="44.91631" lon="4.6232">
        <ele>623</ele>
        <time>2022-02-08T00:49:11Z</time>
      </trkpt>
      <trkpt lat="44.91621" lon="4.62314">
        <ele>623</ele>
        <time>2022-02-08T00:49:13Z</time>
      </trkpt>
      <trkpt lat="44.9161" lon="4.62312">
        <ele>623</ele>
        <time>2022-02-08T00:49:15Z</time>
      </trkpt>
      <trkpt lat="44.91599" lon="4.62315">
        <ele>623</ele>
        <time>2022-02-08T00:49:17Z</time>
      </trkpt>
      <trkpt lat="44.91588" lon="4.62321">
        <ele>622</ele>
        <time>2022-02-08T00:49:19Z</time>
      </trkpt>
      <trkpt lat="44.91578" lon="4.6233">
        <ele>621</ele>
        <time>2022-02-08T00:49:21Z</time>
      </trkpt>
      <trkpt lat="44.91559" lon="4.62353">
        <ele>619</ele>
        <time>2022-02-08T00:49:26Z</time>
      </trkpt>
      <trkpt lat="44.9152" lon="4.62406">
        <ele>613</ele>
        <time>2022-02-08T00:49:35Z</time>
      </trkpt>
      <trkpt lat="44.91512" lon="4.62421">
        <ele>612</ele>
        <time>2022-02-08T00:49:38Z</time>
      </trkpt>
      <trkpt lat="44.91506" lon="4.62438">
        <ele>612</ele>
        <time>2022-02-08T00:49:40Z</time>
      </trkpt>
      <trkpt lat="44.91493" lon="4.62492">
        <ele>611</ele>
        <time>2022-02-08T00:49:47Z</time>
      </trkpt>
      <trkpt lat="44.91487" lon="4.62508">
        <ele>610</ele>
        <time>2022-02-08T00:49:50Z</time>
      </trkpt>
      <trkpt lat="44.9148" lon="4.62524">
        <ele>610</ele>
        <time>2022-02-08T00:49:52Z</time>
      </trkpt>
      <trkpt lat="44.91471" lon="4.62538">
        <ele>609</ele>
        <time>2022-02-08T00:49:54Z</time>
      </trkpt>
      <trkpt lat="44.91459" lon="4.62551">
        <ele>609</ele>
        <time>2022-02-08T00:49:57Z</time>
      </trkpt>
      <trkpt lat="44.91433" lon="4.62571">
        <ele>609</ele>
        <time>2022-02-08T00:50:02Z</time>
      </trkpt>
      <trkpt lat="44.91274" lon="4.6266">
        <ele>608</ele>
        <time>2022-02-08T00:50:33Z</time>
      </trkpt>
      <trkpt lat="44.91204" lon="4.62692">
        <ele>607</ele>
        <time>2022-02-08T00:50:46Z</time>
      </trkpt>
      <trkpt lat="44.91169" lon="4.62705">
        <ele>604</ele>
        <time>2022-02-08T00:50:52Z</time>
      </trkpt>
      <trkpt lat="44.91133" lon="4.62722">
        <ele>603</ele>
        <time>2022-02-08T00:50:59Z</time>
      </trkpt>
      <trkpt lat="44.91048" lon="4.62754">
        <ele>599</ele>
        <time>2022-02-08T00:51:15Z</time>
      </trkpt>
      <trkpt lat="44.91032" lon="4.62759">
        <ele>600</ele>
        <time>2022-02-08T00:51:18Z</time>
      </trkpt>
      <trkpt lat="44.91015" lon="4.62761">
        <ele>600</ele>
        <time>2022-02-08T00:51:21Z</time>
      </trkpt>
      <trkpt lat="44.90981" lon="4.62754">
        <ele>599</ele>
        <time>2022-02-08T00:51:27Z</time>
      </trkpt>
      <trkpt lat="44.90876" lon="4.62725">
        <ele>594</ele>
        <time>2022-02-08T00:51:46Z</time>
      </trkpt>
      <trkpt lat="44.90844" lon="4.62722">
        <ele>592</ele>
        <time>2022-02-08T00:51:52Z</time>
      </trkpt>
      <trkpt lat="44.90828" lon="4.62724">
        <ele>591</ele>
        <time>2022-02-08T00:51:54Z</time>
      </trkpt>
      <trkpt lat="44.90795" lon="4.62736">
        <ele>589</ele>
        <time>2022-02-08T00:52:01Z</time>
      </trkpt>
      <trkpt lat="44.90778" lon="4.6274">
        <ele>587</ele>
        <time>2022-02-08T00:52:04Z</time>
      </trkpt>
      <trkpt lat="44.90761" lon="4.62739">
        <ele>585</ele>
        <time>2022-02-08T00:52:07Z</time>
      </trkpt>
      <trkpt lat="44.90659" lon="4.62698">
        <ele>573</ele>
        <time>2022-02-08T00:52:25Z</time>
      </trkpt>
      <trkpt lat="44.90642" lon="4.62695">
        <ele>571</ele>
        <time>2022-02-08T00:52:29Z</time>
      </trkpt>
      <trkpt lat="44.90629" lon="4.62697">
        <ele>570</ele>
        <time>2022-02-08T00:52:31Z</time>
      </trkpt>
      <trkpt lat="44.90612" lon="4.62704">
        <ele>568</ele>
        <time>2022-02-08T00:52:34Z</time>
      </trkpt>
      <trkpt lat="44.90571" lon="4.62735">
        <ele>565</ele>
        <time>2022-02-08T00:52:42Z</time>
      </trkpt>
      <trkpt lat="44.90517" lon="4.6276">
        <ele>562</ele>
        <time>2022-02-08T00:52:52Z</time>
      </trkpt>
      <trkpt lat="44.90503" lon="4.62771">
        <ele>561</ele>
        <time>2022-02-08T00:52:55Z</time>
      </trkpt>
      <trkpt lat="44.90484" lon="4.62792">
        <ele>560</ele>
        <time>2022-02-08T00:53:00Z</time>
      </trkpt>
      <trkpt lat="44.90467" lon="4.62823">
        <ele>559</ele>
        <time>2022-02-08T00:53:04Z</time>
      </trkpt>
      <trkpt lat="44.90439" lon="4.62859">
        <ele>555</ele>
        <time>2022-02-08T00:53:11Z</time>
      </trkpt>
      <trkpt lat="44.90381" lon="4.62943">
        <ele>549</ele>
        <time>2022-02-08T00:53:26Z</time>
      </trkpt>
      <trkpt lat="44.90345" lon="4.63024">
        <ele>547</ele>
        <time>2022-02-08T00:53:38Z</time>
      </trkpt>
      <trkpt lat="44.90306" lon="4.6313">
        <ele>545</ele>
        <time>2022-02-08T00:53:53Z</time>
      </trkpt>
      <trkpt lat="44.90274" lon="4.63244">
        <ele>539</ele>
        <time>2022-02-08T00:54:09Z</time>
      </trkpt>
      <trkpt lat="44.90249" lon="4.63357">
        <ele>531</ele>
        <time>2022-02-08T00:54:23Z</time>
      </trkpt>
      <trkpt lat="44.90241" lon="4.63373">
        <ele>531</ele>
        <time>2022-02-08T00:54:26Z</time>
      </trkpt>
      <trkpt lat="44.90215" lon="4.63377">
        <ele>530</ele>
        <time>2022-02-08T00:54:31Z</time>
      </trkpt>
      <trkpt lat="44.90194" lon="4.63397">
        <ele>529</ele>
        <time>2022-02-08T00:54:35Z</time>
      </trkpt>
      <trkpt lat="44.90187" lon="4.63407">
        <ele>529</ele>
        <time>2022-02-08T00:54:37Z</time>
      </trkpt>
      <trkpt lat="44.90176" lon="4.63423">
        <ele>528</ele>
        <time>2022-02-08T00:54:40Z</time>
      </trkpt>
      <trkpt lat="44.9017" lon="4.63428">
        <ele>528</ele>
        <time>2022-02-08T00:54:41Z</time>
      </trkpt>
      <trkpt lat="44.90143" lon="4.63423">
        <ele>528</ele>
        <time>2022-02-08T00:54:46Z</time>
      </trkpt>
      <trkpt lat="44.9012" lon="4.63417">
        <ele>528</ele>
        <time>2022-02-08T00:54:50Z</time>
      </trkpt>
      <trkpt lat="44.90097" lon="4.63426">
        <ele>528</ele>
        <time>2022-02-08T00:54:54Z</time>
      </trkpt>
      <trkpt lat="44.90092" lon="4.63427">
        <ele>528</ele>
        <time>2022-02-08T00:54:55Z</time>
      </trkpt>
      <trkpt lat="44.90087" lon="4.63429">
        <ele>528</ele>
        <time>2022-02-08T00:54:56Z</time>
      </trkpt>
      <trkpt lat="44.90028" lon="4.63451">
        <ele>531</ele>
        <time>2022-02-08T00:55:07Z</time>
      </trkpt>
      <trkpt lat="44.90006" lon="4.63467">
        <ele>531</ele>
        <time>2022-02-08T00:55:11Z</time>
      </trkpt>
      <trkpt lat="44.90002" lon="4.63475">
        <ele>531</ele>
        <time>2022-02-08T00:55:12Z</time>
      </trkpt>
      <trkpt lat="44.89992" lon="4.63511">
        <ele>531</ele>
        <time>2022-02-08T00:55:17Z</time>
      </trkpt>
      <trkpt lat="44.89983" lon="4.63556">
        <ele>533</ele>
        <time>2022-02-08T00:55:23Z</time>
      </trkpt>
      <trkpt lat="44.89959" lon="4.63639">
        <ele>538</ele>
        <time>2022-02-08T00:55:35Z</time>
      </trkpt>
      <trkpt lat="44.89948" lon="4.6367">
        <ele>540</ele>
        <time>2022-02-08T00:55:39Z</time>
      </trkpt>
      <trkpt lat="44.89931" lon="4.63704">
        <ele>543</ele>
        <time>2022-02-08T00:55:44Z</time>
      </trkpt>
      <trkpt lat="44.89884" lon="4.63778">
        <ele>550</ele>
        <time>2022-02-08T00:55:57Z</time>
      </trkpt>
      <trkpt lat="44.89864" lon="4.63803">
        <ele>552</ele>
        <time>2022-02-08T00:56:01Z</time>
      </trkpt>
      <trkpt lat="44.89849" lon="4.63815">
        <ele>554</ele>
        <time>2022-02-08T00:56:05Z</time>
      </trkpt>
      <trkpt lat="44.89832" lon="4.63823">
        <ele>555</ele>
        <time>2022-02-08T00:56:08Z</time>
      </trkpt>
      <trkpt lat="44.89821" lon="4.63831">
        <ele>555</ele>
        <time>2022-02-08T00:56:10Z</time>
      </trkpt>
      <trkpt lat="44.89821" lon="4.63842">
        <ele>557</ele>
        <time>2022-02-08T00:56:11Z</time>
      </trkpt>
      <trkpt lat="44.8977" lon="4.63893">
        <ele>561</ele>
        <time>2022-02-08T00:56:22Z</time>
      </trkpt>
      <trkpt lat="44.89685" lon="4.63963">
        <ele>567</ele>
        <time>2022-02-08T00:56:40Z</time>
      </trkpt>
      <trkpt lat="44.89636" lon="4.64008">
        <ele>571</ele>
        <time>2022-02-08T00:56:50Z</time>
      </trkpt>
      <trkpt lat="44.89599" lon="4.64034">
        <ele>571</ele>
        <time>2022-02-08T00:56:58Z</time>
      </trkpt>
      <trkpt lat="44.89585" lon="4.64048">
        <ele>572</ele>
        <time>2022-02-08T00:57:01Z</time>
      </trkpt>
      <trkpt lat="44.89569" lon="4.64068">
        <ele>574</ele>
        <time>2022-02-08T00:57:05Z</time>
      </trkpt>
      <trkpt lat="44.89563" lon="4.64069">
        <ele>574</ele>
        <time>2022-02-08T00:57:06Z</time>
      </trkpt>
      <trkpt lat="44.89557" lon="4.64067">
        <ele>574</ele>
        <time>2022-02-08T00:57:07Z</time>
      </trkpt>
      <trkpt lat="44.89521" lon="4.64015">
        <ele>575</ele>
        <time>2022-02-08T00:57:16Z</time>
      </trkpt>
      <trkpt lat="44.89514" lon="4.64009">
        <ele>576</ele>
        <time>2022-02-08T00:57:17Z</time>
      </trkpt>
      <trkpt lat="44.8945" lon="4.64165">
        <ele>580</ele>
        <time>2022-02-08T00:57:40Z</time>
      </trkpt>
      <trkpt lat="44.89439" lon="4.64171">
        <ele>580</ele>
        <time>2022-02-08T00:57:42Z</time>
      </trkpt>
      <trkpt lat="44.89425" lon="4.64182">
        <ele>580</ele>
        <time>2022-02-08T00:57:45Z</time>
      </trkpt>
      <trkpt lat="44.89369" lon="4.64072">
        <ele>579</ele>
        <time>2022-02-08T00:58:02Z</time>
      </trkpt>
      <trkpt lat="44.89343" lon="4.64041">
        <ele>577</ele>
        <time>2022-02-08T00:58:08Z</time>
      </trkpt>
      <trkpt lat="44.89321" lon="4.64026">
        <ele>577</ele>
        <time>2022-02-08T00:58:12Z</time>
      </trkpt>
      <trkpt lat="44.89311" lon="4.64022">
        <ele>577</ele>
        <time>2022-02-08T00:58:14Z</time>
      </trkpt>
      <trkpt lat="44.89288" lon="4.63983">
        <ele>576</ele>
        <time>2022-02-08T00:58:21Z</time>
      </trkpt>
      <trkpt lat="44.89275" lon="4.63958">
        <ele>575</ele>
        <time>2022-02-08T00:58:25Z</time>
      </trkpt>
      <trkpt lat="44.89268" lon="4.63909">
        <ele>573</ele>
        <time>2022-02-08T00:58:31Z</time>
      </trkpt>
      <trkpt lat="44.89264" lon="4.63896">
        <ele>572</ele>
        <time>2022-02-08T00:58:33Z</time>
      </trkpt>
      <trkpt lat="44.89255" lon="4.63879">
        <ele>571</ele>
        <time>2022-02-08T00:58:35Z</time>
      </trkpt>
      <trkpt lat="44.8924" lon="4.63859">
        <ele>570</ele>
        <time>2022-02-08T00:58:39Z</time>
      </trkpt>
      <trkpt lat="44.89222" lon="4.63845">
        <ele>569</ele>
        <time>2022-02-08T00:58:43Z</time>
      </trkpt>
      <trkpt lat="44.892" lon="4.63842">
        <ele>570</ele>
        <time>2022-02-08T00:58:47Z</time>
      </trkpt>
      <trkpt lat="44.89189" lon="4.63838">
        <ele>570</ele>
        <time>2022-02-08T00:58:49Z</time>
      </trkpt>
      <trkpt lat="44.89183" lon="4.63828">
        <ele>570</ele>
        <time>2022-02-08T00:58:50Z</time>
      </trkpt>
      <trkpt lat="44.8918" lon="4.63818">
        <ele>569</ele>
        <time>2022-02-08T00:58:52Z</time>
      </trkpt>
      <trkpt lat="44.89179" lon="4.63805">
        <ele>569</ele>
        <time>2022-02-08T00:58:53Z</time>
      </trkpt>
      <trkpt lat="44.89181" lon="4.63773">
        <ele>567</ele>
        <time>2022-02-08T00:58:57Z</time>
      </trkpt>
      <trkpt lat="44.89181" lon="4.63754">
        <ele>566</ele>
        <time>2022-02-08T00:59:00Z</time>
      </trkpt>
      <trkpt lat="44.89172" lon="4.63678">
        <ele>563</ele>
        <time>2022-02-08T00:59:10Z</time>
      </trkpt>
      <trkpt lat="44.89161" lon="4.63563">
        <ele>555</ele>
        <time>2022-02-08T00:59:24Z</time>
      </trkpt>
      <trkpt lat="44.89142" lon="4.63476">
        <ele>548</ele>
        <time>2022-02-08T00:59:36Z</time>
      </trkpt>
      <trkpt lat="44.89142" lon="4.63407">
        <ele>540</ele>
        <time>2022-02-08T00:59:44Z</time>
      </trkpt>
      <trkpt lat="44.89138" lon="4.63353">
        <ele>536</ele>
        <time>2022-02-08T00:59:51Z</time>
      </trkpt>
      <trkpt lat="44.89134" lon="4.63228">
        <ele>528</ele>
        <time>2022-02-08T01:00:07Z</time>
      </trkpt>
      <trkpt lat="44.89123" lon="4.63181">
        <ele>525</ele>
        <time>2022-02-08T01:00:13Z</time>
      </trkpt>
      <trkpt lat="44.89102" lon="4.63133">
        <ele>524</ele>
        <time>2022-02-08T01:00:20Z</time>
      </trkpt>
      <trkpt lat="44.89106" lon="4.63097">
        <ele>521</ele>
        <time>2022-02-08T01:00:25Z</time>
      </trkpt>
      <trkpt lat="44.8908" lon="4.63036">
        <ele>517</ele>
        <time>2022-02-08T01:00:34Z</time>
      </trkpt>
      <trkpt lat="44.89077" lon="4.62988">
        <ele>511</ele>
        <time>2022-02-08T01:00:40Z</time>
      </trkpt>
      <trkpt lat="44.8907" lon="4.62966">
        <ele>508</ele>
        <time>2022-02-08T01:00:43Z</time>
      </trkpt>
      <trkpt lat="44.89069" lon="4.62958">
        <ele>507</ele>
        <time>2022-02-08T01:00:44Z</time>
      </trkpt>
      <trkpt lat="44.8907" lon="4.62944">
        <ele>505</ele>
        <time>2022-02-08T01:00:46Z</time>
      </trkpt>
      <trkpt lat="44.8908" lon="4.62948">
        <ele>506</ele>
        <time>2022-02-08T01:00:48Z</time>
      </trkpt>
      <trkpt lat="44.89104" lon="4.62982">
        <ele>509</ele>
        <time>2022-02-08T01:00:54Z</time>
      </trkpt>
      <trkpt lat="44.89123" lon="4.62993">
        <ele>508</ele>
        <time>2022-02-08T01:00:57Z</time>
      </trkpt>
      <trkpt lat="44.89132" lon="4.62994">
        <ele>508</ele>
        <time>2022-02-08T01:00:59Z</time>
      </trkpt>
      <trkpt lat="44.89141" lon="4.6299">
        <ele>507</ele>
        <time>2022-02-08T01:01:01Z</time>
      </trkpt>
      <trkpt lat="44.8915" lon="4.62983">
        <ele>507</ele>
        <time>2022-02-08T01:01:02Z</time>
      </trkpt>
      <trkpt lat="44.89157" lon="4.62973">
        <ele>507</ele>
        <time>2022-02-08T01:01:04Z</time>
      </trkpt>
      <trkpt lat="44.89161" lon="4.62962">
        <ele>507</ele>
        <time>2022-02-08T01:01:06Z</time>
      </trkpt>
      <trkpt lat="44.89161" lon="4.62951">
        <ele>508</ele>
        <time>2022-02-08T01:01:07Z</time>
      </trkpt>
      <trkpt lat="44.8916" lon="4.62939">
        <ele>508</ele>
        <time>2022-02-08T01:01:09Z</time>
      </trkpt>
      <trkpt lat="44.89146" lon="4.6289">
        <ele>509</ele>
        <time>2022-02-08T01:01:15Z</time>
      </trkpt>
      <trkpt lat="44.89104" lon="4.62781">
        <ele>502</ele>
        <time>2022-02-08T01:01:31Z</time>
      </trkpt>
      <trkpt lat="44.89096" lon="4.62746">
        <ele>501</ele>
        <time>2022-02-08T01:01:36Z</time>
      </trkpt>
      <trkpt lat="44.89098" lon="4.62726">
        <ele>500</ele>
        <time>2022-02-08T01:01:38Z</time>
      </trkpt>
      <trkpt lat="44.89124" lon="4.62668">
        <ele>499</ele>
        <time>2022-02-08T01:01:47Z</time>
      </trkpt>
      <trkpt lat="44.89151" lon="4.62615">
        <ele>497</ele>
        <time>2022-02-08T01:01:55Z</time>
      </trkpt>
      <trkpt lat="44.8917" lon="4.62581">
        <ele>495</ele>
        <time>2022-02-08T01:02:00Z</time>
      </trkpt>
      <trkpt lat="44.89229" lon="4.62525">
        <ele>493</ele>
        <time>2022-02-08T01:02:13Z</time>
      </trkpt>
      <trkpt lat="44.8929" lon="4.62483">
        <ele>493</ele>
        <time>2022-02-08T01:02:25Z</time>
      </trkpt>
      <trkpt lat="44.89301" lon="4.62476">
        <ele>493</ele>
        <time>2022-02-08T01:02:27Z</time>
      </trkpt>
      <trkpt lat="44.89313" lon="4.62464">
        <ele>492</ele>
        <time>2022-02-08T01:02:30Z</time>
      </trkpt>
      <trkpt lat="44.89321" lon="4.62436">
        <ele>487</ele>
        <time>2022-02-08T01:02:34Z</time>
      </trkpt>
      <trkpt lat="44.89311" lon="4.62382">
        <ele>487</ele>
        <time>2022-02-08T01:02:41Z</time>
      </trkpt>
      <trkpt lat="44.89309" lon="4.6237">
        <ele>488</ele>
        <time>2022-02-08T01:02:42Z</time>
      </trkpt>
      <trkpt lat="44.89281" lon="4.62366">
        <ele>490</ele>
        <time>2022-02-08T01:02:47Z</time>
      </trkpt>
      <trkpt lat="44.89258" lon="4.62365">
        <ele>491</ele>
        <time>2022-02-08T01:02:51Z</time>
      </trkpt>
      <trkpt lat="44.89236" lon="4.62351">
        <ele>494</ele>
        <time>2022-02-08T01:02:56Z</time>
      </trkpt>
      <trkpt lat="44.89169" lon="4.62317">
        <ele>501</ele>
        <time>2022-02-08T01:03:08Z</time>
      </trkpt>
      <trkpt lat="44.89146" lon="4.62319">
        <ele>501</ele>
        <time>2022-02-08T01:03:13Z</time>
      </trkpt>
      <trkpt lat="44.89128" lon="4.62328">
        <ele>499</ele>
        <time>2022-02-08T01:03:16Z</time>
      </trkpt>
      <trkpt lat="44.89101" lon="4.62359">
        <ele>491</ele>
        <time>2022-02-08T01:03:22Z</time>
      </trkpt>
      <trkpt lat="44.89083" lon="4.62364">
        <ele>490</ele>
        <time>2022-02-08T01:03:25Z</time>
      </trkpt>
      <trkpt lat="44.89069" lon="4.62357">
        <ele>491</ele>
        <time>2022-02-08T01:03:28Z</time>
      </trkpt>
      <trkpt lat="44.89039" lon="4.62324">
        <ele>498</ele>
        <time>2022-02-08T01:03:35Z</time>
      </trkpt>
      <trkpt lat="44.89004" lon="4.62304">
        <ele>502</ele>
        <time>2022-02-08T01:03:42Z</time>
      </trkpt>
      <trkpt lat="44.88941" lon="4.62297">
        <ele>503</ele>
        <time>2022-02-08T01:03:53Z</time>
      </trkpt>
      <trkpt lat="44.88901" lon="4.62274">
        <ele>505</ele>
        <time>2022-02-08T01:04:00Z</time>
      </trkpt>
      <trkpt lat="44.88882" lon="4.62253">
        <ele>507</ele>
        <time>2022-02-08T01:04:05Z</time>
      </trkpt>
      <trkpt lat="44.8885" lon="4.62186">
        <ele>511</ele>
        <time>2022-02-08T01:04:15Z</time>
      </trkpt>
      <trkpt lat="44.88843" lon="4.6216">
        <ele>513</ele>
        <time>2022-02-08T01:04:18Z</time>
      </trkpt>
      <trkpt lat="44.88839" lon="4.62139">
        <ele>514</ele>
        <time>2022-02-08T01:04:21Z</time>
      </trkpt>
      <trkpt lat="44.88846" lon="4.62111">
        <ele>516</ele>
        <time>2022-02-08T01:04:25Z</time>
      </trkpt>
      <trkpt lat="44.88866" lon="4.62077">
        <ele>520</ele>
        <time>2022-02-08T01:04:30Z</time>
      </trkpt>
      <trkpt lat="44.8887" lon="4.62063">
        <ele>521</ele>
        <time>2022-02-08T01:04:32Z</time>
      </trkpt>
      <trkpt lat="44.88869" lon="4.62048">
        <ele>521</ele>
        <time>2022-02-08T01:04:34Z</time>
      </trkpt>
      <trkpt lat="44.88856" lon="4.61938">
        <ele>526</ele>
        <time>2022-02-08T01:04:48Z</time>
      </trkpt>
      <trkpt lat="44.88854" lon="4.61875">
        <ele>532</ele>
        <time>2022-02-08T01:04:56Z</time>
      </trkpt>
      <trkpt lat="44.88837" lon="4.61787">
        <ele>539</ele>
        <time>2022-02-08T01:05:08Z</time>
      </trkpt>
      <trkpt lat="44.88825" lon="4.61747">
        <ele>542</ele>
        <time>2022-02-08T01:05:13Z</time>
      </trkpt>
      <trkpt lat="44.88791" lon="4.61723">
        <ele>540</ele>
        <time>2022-02-08T01:05:20Z</time>
      </trkpt>
      <trkpt lat="44.88772" lon="4.61694">
        <ele>540</ele>
        <time>2022-02-08T01:05:25Z</time>
      </trkpt>
      <trkpt lat="44.88767" lon="4.61656">
        <ele>542</ele>
        <time>2022-02-08T01:05:30Z</time>
      </trkpt>
      <trkpt lat="44.88771" lon="4.6162">
        <ele>543</ele>
        <time>2022-02-08T01:05:34Z</time>
      </trkpt>
      <trkpt lat="44.88774" lon="4.61545">
        <ele>546</ele>
        <time>2022-02-08T01:05:44Z</time>
      </trkpt>
      <trkpt lat="44.88736" lon="4.61476">
        <ele>546</ele>
        <time>2022-02-08T01:05:55Z</time>
      </trkpt>
      <trkpt lat="44.88726" lon="4.6144">
        <ele>548</ele>
        <time>2022-02-08T01:06:00Z</time>
      </trkpt>
      <trkpt lat="44.88706" lon="4.6134">
        <ele>554</ele>
        <time>2022-02-08T01:06:13Z</time>
      </trkpt>
      <trkpt lat="44.88683" lon="4.61278">
        <ele>554</ele>
        <time>2022-02-08T01:06:22Z</time>
      </trkpt>
      <trkpt lat="44.88669" lon="4.61202">
        <ele>557</ele>
        <time>2022-02-08T01:06:32Z</time>
      </trkpt>
      <trkpt lat="44.88668" lon="4.61145">
        <ele>562</ele>
        <time>2022-02-08T01:06:39Z</time>
      </trkpt>
      <trkpt lat="44.88659" lon="4.61126">
        <ele>564</ele>
        <time>2022-02-08T01:06:42Z</time>
      </trkpt>
      <trkpt lat="44.88643" lon="4.61113">
        <ele>565</ele>
        <time>2022-02-08T01:06:45Z</time>
      </trkpt>
      <trkpt lat="44.88611" lon="4.61104">
        <ele>564</ele>
        <time>2022-02-08T01:06:51Z</time>
      </trkpt>
      <trkpt lat="44.88529" lon="4.61007">
        <ele>572</ele>
        <time>2022-02-08T01:07:10Z</time>
      </trkpt>
      <trkpt lat="44.88462" lon="4.60973">
        <ele>569</ele>
        <time>2022-02-08T01:07:23Z</time>
      </trkpt>
      <trkpt lat="44.88449" lon="4.60947">
        <ele>572</ele>
        <time>2022-02-08T01:07:27Z</time>
      </trkpt>
      <trkpt lat="44.88434" lon="4.60881">
        <ele>580</ele>
        <time>2022-02-08T01:07:35Z</time>
      </trkpt>
      <trkpt lat="44.88423" lon="4.60858">
        <ele>583</ele>
        <time>2022-02-08T01:07:39Z</time>
      </trkpt>
      <trkpt lat="44.88398" lon="4.60823">
        <ele>585</ele>
        <time>2022-02-08T01:07:45Z</time>
      </trkpt>
      <trkpt lat="44.88367" lon="4.60764">
        <ele>590</ele>
        <time>2022-02-08T01:07:54Z</time>
      </trkpt>
      <trkpt lat="44.88339" lon="4.60716">
        <ele>593</ele>
        <time>2022-02-08T01:08:02Z</time>
      </trkpt>
      <trkpt lat="44.88319" lon="4.60707">
        <ele>593</ele>
        <time>2022-02-08T01:08:06Z</time>
      </trkpt>
      <trkpt lat="44.88243" lon="4.60698">
        <ele>593</ele>
        <time>2022-02-08T01:08:19Z</time>
      </trkpt>
      <trkpt lat="44.88221" lon="4.60689">
        <ele>594</ele>
        <time>2022-02-08T01:08:24Z</time>
      </trkpt>
      <trkpt lat="44.88204" lon="4.60674">
        <ele>596</ele>
        <time>2022-02-08T01:08:27Z</time>
      </trkpt>
      <trkpt lat="44.88175" lon="4.60658">
        <ele>597</ele>
        <time>2022-02-08T01:08:33Z</time>
      </trkpt>
      <trkpt lat="44.88167" lon="4.60649">
        <ele>598</ele>
        <time>2022-02-08T01:08:34Z</time>
      </trkpt>
      <trkpt lat="44.88158" lon="4.60633">
        <ele>599</ele>
        <time>2022-02-08T01:08:37Z</time>
      </trkpt>
      <trkpt lat="44.88141" lon="4.60573">
        <ele>602</ele>
        <time>2022-02-08T01:08:45Z</time>
      </trkpt>
      <trkpt lat="44.88115" lon="4.604">
        <ele>610</ele>
        <time>2022-02-08T01:09:07Z</time>
      </trkpt>
      <trkpt lat="44.88118" lon="4.60342">
        <ele>613</ele>
        <time>2022-02-08T01:09:15Z</time>
      </trkpt>
      <trkpt lat="44.88129" lon="4.60259">
        <ele>621</ele>
        <time>2022-02-08T01:09:25Z</time>
      </trkpt>
      <trkpt lat="44.88135" lon="4.6018">
        <ele>624</ele>
        <time>2022-02-08T01:09:35Z</time>
      </trkpt>
      <trkpt lat="44.88135" lon="4.60173">
        <ele>624</ele>
        <time>2022-02-08T01:09:36Z</time>
      </trkpt>
      <trkpt lat="44.88137" lon="4.60143">
        <ele>625</ele>
        <time>2022-02-08T01:09:40Z</time>
      </trkpt>
      <trkpt lat="44.88126" lon="4.60076">
        <ele>627</ele>
        <time>2022-02-08T01:09:49Z</time>
      </trkpt>
      <trkpt lat="44.88108" lon="4.60042">
        <ele>630</ele>
        <time>2022-02-08T01:09:54Z</time>
      </trkpt>
      <trkpt lat="44.88049" lon="4.60014">
        <ele>628</ele>
        <time>2022-02-08T01:10:05Z</time>
      </trkpt>
      <trkpt lat="44.88025" lon="4.59999">
        <ele>629</ele>
        <time>2022-02-08T01:10:10Z</time>
      </trkpt>
      <trkpt lat="44.88009" lon="4.59973">
        <ele>633</ele>
        <time>2022-02-08T01:10:14Z</time>
      </trkpt>
      <trkpt lat="44.87951" lon="4.5983">
        <ele>643</ele>
        <time>2022-02-08T01:10:35Z</time>
      </trkpt>
      <trkpt lat="44.87938" lon="4.59735">
        <ele>648</ele>
        <time>2022-02-08T01:10:47Z</time>
      </trkpt>
      <trkpt lat="44.87908" lon="4.59679">
        <ele>645</ele>
        <time>2022-02-08T01:10:56Z</time>
      </trkpt>
      <trkpt lat="44.87886" lon="4.59642">
        <ele>646</ele>
        <time>2022-02-08T01:11:02Z</time>
      </trkpt>
      <trkpt lat="44.87854" lon="4.59525">
        <ele>656</ele>
        <time>2022-02-08T01:11:18Z</time>
      </trkpt>
      <trkpt lat="44.87822" lon="4.59447">
        <ele>661</ele>
        <time>2022-02-08T01:11:29Z</time>
      </trkpt>
      <trkpt lat="44.87816" lon="4.59389">
        <ele>664</ele>
        <time>2022-02-08T01:11:37Z</time>
      </trkpt>
      <trkpt lat="44.87819" lon="4.59338">
        <ele>662</ele>
        <time>2022-02-08T01:11:43Z</time>
      </trkpt>
      <trkpt lat="44.87808" lon="4.59321">
        <ele>663</ele>
        <time>2022-02-08T01:11:46Z</time>
      </trkpt>
      <trkpt lat="44.87797" lon="4.59305">
        <ele>662</ele>
        <time>2022-02-08T01:11:49Z</time>
      </trkpt>
      <trkpt lat="44.87743" lon="4.59273">
        <ele>665</ele>
        <time>2022-02-08T01:11:59Z</time>
      </trkpt>
      <trkpt lat="44.87709" lon="4.5926">
        <ele>663</ele>
        <time>2022-02-08T01:12:06Z</time>
      </trkpt>
      <trkpt lat="44.87653" lon="4.59279">
        <ele>666</ele>
        <time>2022-02-08T01:12:16Z</time>
      </trkpt>
      <trkpt lat="44.87605" lon="4.59299">
        <ele>665</ele>
        <time>2022-02-08T01:12:25Z</time>
      </trkpt>
      <trkpt lat="44.87553" lon="4.59323">
        <ele>666</ele>
        <time>2022-02-08T01:12:34Z</time>
      </trkpt>
      <trkpt lat="44.87508" lon="4.59327">
        <ele>663</ele>
        <time>2022-02-08T01:12:42Z</time>
      </trkpt>
      <trkpt lat="44.87476" lon="4.59328">
        <ele>668</ele>
        <time>2022-02-08T01:12:48Z</time>
      </trkpt>
      <trkpt lat="44.87458" lon="4.59312">
        <ele>671</ele>
        <time>2022-02-08T01:12:52Z</time>
      </trkpt>
      <trkpt lat="44.87449" lon="4.59255">
        <ele>673</ele>
        <time>2022-02-08T01:12:59Z</time>
      </trkpt>
      <trkpt lat="44.87455" lon="4.59198">
        <ele>669</ele>
        <time>2022-02-08T01:13:07Z</time>
      </trkpt>
      <trkpt lat="44.87454" lon="4.59174">
        <ele>668</ele>
        <time>2022-02-08T01:13:10Z</time>
      </trkpt>
      <trkpt lat="44.87447" lon="4.59147">
        <ele>668</ele>
        <time>2022-02-08T01:13:13Z</time>
      </trkpt>
      <trkpt lat="44.8744" lon="4.59134">
        <ele>669</ele>
        <time>2022-02-08T01:13:15Z</time>
      </trkpt>
      <trkpt lat="44.87434" lon="4.59134">
        <ele>670</ele>
        <time>2022-02-08T01:13:16Z</time>
      </trkpt>
      <trkpt lat="44.87431" lon="4.5914">
        <ele>671</ele>
        <time>2022-02-08T01:13:17Z</time>
      </trkpt>
      <trkpt lat="44.87444" lon="4.59188">
        <ele>670</ele>
        <time>2022-02-08T01:13:24Z</time>
      </trkpt>
      <trkpt lat="44.87434" lon="4.59254">
        <ele>676</ele>
        <time>2022-02-08T01:13:32Z</time>
      </trkpt>
      <trkpt lat="44.87437" lon="4.59319">
        <ele>675</ele>
        <time>2022-02-08T01:13:41Z</time>
      </trkpt>
      <trkpt lat="44.87411" lon="4.59374">
        <ele>678</ele>
        <time>2022-02-08T01:13:49Z</time>
      </trkpt>
      <trkpt lat="44.87369" lon="4.59442">
        <ele>681</ele>
        <time>2022-02-08T01:14:00Z</time>
      </trkpt>
      <trkpt lat="44.87358" lon="4.59453">
        <ele>682</ele>
        <time>2022-02-08T01:14:03Z</time>
      </trkpt>
      <trkpt lat="44.8735" lon="4.59459">
        <ele>682</ele>
        <time>2022-02-08T01:14:04Z</time>
      </trkpt>
      <trkpt lat="44.87341" lon="4.59462">
        <ele>682</ele>
        <time>2022-02-08T01:14:06Z</time>
      </trkpt>
      <trkpt lat="44.87321" lon="4.59464">
        <ele>681</ele>
        <time>2022-02-08T01:14:09Z</time>
      </trkpt>
      <trkpt lat="44.87211" lon="4.59421">
        <ele>680</ele>
        <time>2022-02-08T01:14:30Z</time>
      </trkpt>
      <trkpt lat="44.87185" lon="4.59424">
        <ele>679</ele>
        <time>2022-02-08T01:14:34Z</time>
      </trkpt>
      <trkpt lat="44.87138" lon="4.5944">
        <ele>673</ele>
        <time>2022-02-08T01:14:43Z</time>
      </trkpt>
      <trkpt lat="44.87111" lon="4.59437">
        <ele>671</ele>
        <time>2022-02-08T01:14:48Z</time>
      </trkpt>
      <trkpt lat="44.87089" lon="4.59444">
        <ele>668</ele>
        <time>2022-02-08T01:14:52Z</time>
      </trkpt>
      <trkpt lat="44.87034" lon="4.59498">
        <ele>661</ele>
        <time>2022-02-08T01:15:04Z</time>
      </trkpt>
      <trkpt lat="44.87014" lon="4.595">
        <ele>660</ele>
        <time>2022-02-08T01:15:07Z</time>
      </trkpt>
      <trkpt lat="44.87003" lon="4.59497">
        <ele>659</ele>
        <time>2022-02-08T01:15:09Z</time>
      </trkpt>
      <trkpt lat="44.86996" lon="4.59489">
        <ele>658</ele>
        <time>2022-02-08T01:15:11Z</time>
      </trkpt>
      <trkpt lat="44.86993" lon="4.59479">
        <ele>658</ele>
        <time>2022-02-08T01:15:12Z</time>
      </trkpt>
      <trkpt lat="44.8699" lon="4.59437">
        <ele>657</ele>
        <time>2022-02-08T01:15:18Z</time>
      </trkpt>
      <trkpt lat="44.86989" lon="4.59366">
        <ele>656</ele>
        <time>2022-02-08T01:15:27Z</time>
      </trkpt>
      <trkpt lat="44.86999" lon="4.59299">
        <ele>660</ele>
        <time>2022-02-08T01:15:35Z</time>
      </trkpt>
      <trkpt lat="44.86996" lon="4.5928">
        <ele>661</ele>
        <time>2022-02-08T01:15:38Z</time>
      </trkpt>
      <trkpt lat="44.86985" lon="4.5927">
        <ele>660</ele>
        <time>2022-02-08T01:15:40Z</time>
      </trkpt>
      <trkpt lat="44.86905" lon="4.59277">
        <ele>649</ele>
        <time>2022-02-08T01:15:54Z</time>
      </trkpt>
      <trkpt lat="44.86896" lon="4.5927">
        <ele>648</ele>
        <time>2022-02-08T01:15:56Z</time>
      </trkpt>
      <trkpt lat="44.86873" lon="4.59235">
        <ele>651</ele>
        <time>2022-02-08T01:16:02Z</time>
      </trkpt>
      <trkpt lat="44.86866" lon="4.59229">
        <ele>651</ele>
        <time>2022-02-08T01:16:04Z</time>
      </trkpt>
      <trkpt lat="44.8683" lon="4.59236">
        <ele>643</ele>
        <time>2022-02-08T01:16:10Z</time>
      </trkpt>
      <trkpt lat="44.86701" lon="4.59195">
        <ele>634</ele>
        <time>2022-02-08T01:16:34Z</time>
      </trkpt>
      <trkpt lat="44.86645" lon="4.59148">
        <ele>632</ele>
        <time>2022-02-08T01:16:45Z</time>
      </trkpt>
      <trkpt lat="44.86617" lon="4.59122">
        <ele>629</ele>
        <time>2022-02-08T01:16:51Z</time>
      </trkpt>
      <trkpt lat="44.86586" lon="4.59087">
        <ele>625</ele>
        <time>2022-02-08T01:16:58Z</time>
      </trkpt>
      <trkpt lat="44.86553" lon="4.59024">
        <ele>627</ele>
        <time>2022-02-08T01:17:08Z</time>
      </trkpt>
      <trkpt lat="44.86545" lon="4.59018">
        <ele>627</ele>
        <time>2022-02-08T01:17:10Z</time>
      </trkpt>
      <trkpt lat="44.86516" lon="4.59016">
        <ele>625</ele>
        <time>2022-02-08T01:17:15Z</time>
      </trkpt>
      <trkpt lat="44.86487" lon="4.59027">
        <ele>622</ele>
        <time>2022-02-08T01:17:20Z</time>
      </trkpt>
      <trkpt lat="44.86415" lon="4.59072">
        <ele>615</ele>
        <time>2022-02-08T01:17:34Z</time>
      </trkpt>
      <trkpt lat="44.86391" lon="4.59081">
        <ele>612</ele>
        <time>2022-02-08T01:17:39Z</time>
      </trkpt>
      <trkpt lat="44.86339" lon="4.59087">
        <ele>607</ele>
        <time>2022-02-08T01:17:48Z</time>
      </trkpt>
      <trkpt lat="44.86295" lon="4.59026">
        <ele>608</ele>
        <time>2022-02-08T01:17:59Z</time>
      </trkpt>
      <trkpt lat="44.86179" lon="4.58935">
        <ele>599</ele>
        <time>2022-02-08T01:18:22Z</time>
      </trkpt>
      <trkpt lat="44.86148" lon="4.58932">
        <ele>595</ele>
        <time>2022-02-08T01:18:28Z</time>
      </trkpt>
      <trkpt lat="44.86117" lon="4.58934">
        <ele>592</ele>
        <time>2022-02-08T01:18:34Z</time>
      </trkpt>
      <trkpt lat="44.86069" lon="4.58937">
        <ele>588</ele>
        <time>2022-02-08T01:18:42Z</time>
      </trkpt>
      <trkpt lat="44.86054" lon="4.58935">
        <ele>586</ele>
        <time>2022-02-08T01:18:45Z</time>
      </trkpt>
      <trkpt lat="44.86013" lon="4.58863">
        <ele>591</ele>
        <time>2022-02-08T01:18:56Z</time>
      </trkpt>
      <trkpt lat="44.85997" lon="4.58853">
        <ele>591</ele>
        <time>2022-02-08T01:19:00Z</time>
      </trkpt>
      <trkpt lat="44.85974" lon="4.58861">
        <ele>588</ele>
        <time>2022-02-08T01:19:04Z</time>
      </trkpt>
      <trkpt lat="44.85917" lon="4.58896">
        <ele>580</ele>
        <time>2022-02-08T01:19:15Z</time>
      </trkpt>
      <trkpt lat="44.85901" lon="4.58915">
        <ele>576</ele>
        <time>2022-02-08T01:19:19Z</time>
      </trkpt>
      <trkpt lat="44.85889" lon="4.58939">
        <ele>574</ele>
        <time>2022-02-08T01:19:22Z</time>
      </trkpt>
      <trkpt lat="44.85866" lon="4.58979">
        <ele>572</ele>
        <time>2022-02-08T01:19:29Z</time>
      </trkpt>
      <trkpt lat="44.85853" lon="4.58994">
        <ele>573</ele>
        <time>2022-02-08T01:19:32Z</time>
      </trkpt>
      <trkpt lat="44.85846" lon="4.59003">
        <ele>573</ele>
        <time>2022-02-08T01:19:33Z</time>
      </trkpt>
      <trkpt lat="44.85841" lon="4.59008">
        <ele>573</ele>
        <time>2022-02-08T01:19:34Z</time>
      </trkpt>
      <trkpt lat="44.85818" lon="4.59037">
        <ele>576</ele>
        <time>2022-02-08T01:19:40Z</time>
      </trkpt>
      <trkpt lat="44.85802" lon="4.59059">
        <ele>580</ele>
        <time>2022-02-08T01:19:44Z</time>
      </trkpt>
      <trkpt lat="44.85781" lon="4.59289">
        <ele>585</ele>
        <time>2022-02-08T01:20:13Z</time>
      </trkpt>
      <trkpt lat="44.85733" lon="4.59424">
        <ele>587</ele>
        <time>2022-02-08T01:20:32Z</time>
      </trkpt>
      <trkpt lat="44.85691" lon="4.59479">
        <ele>584</ele>
        <time>2022-02-08T01:20:42Z</time>
      </trkpt>
      <trkpt lat="44.85573" lon="4.59533">
        <ele>588</ele>
        <time>2022-02-08T01:21:05Z</time>
      </trkpt>
      <trkpt lat="44.85523" lon="4.59567">
        <ele>583</ele>
        <time>2022-02-08T01:21:14Z</time>
      </trkpt>
      <trkpt lat="44.85492" lon="4.59566">
        <ele>585</ele>
        <time>2022-02-08T01:21:20Z</time>
      </trkpt>
      <trkpt lat="44.85483" lon="4.59559">
        <ele>587</ele>
        <time>2022-02-08T01:21:22Z</time>
      </trkpt>
      <trkpt lat="44.85447" lon="4.59552">
        <ele>590</ele>
        <time>2022-02-08T01:21:28Z</time>
      </trkpt>
      <trkpt lat="44.85429" lon="4.59652">
        <ele>577</ele>
        <time>2022-02-08T01:21:41Z</time>
      </trkpt>
      <trkpt lat="44.85383" lon="4.5971">
        <ele>577</ele>
        <time>2022-02-08T01:21:52Z</time>
      </trkpt>
      <trkpt lat="44.85312" lon="4.59789">
        <ele>576</ele>
        <time>2022-02-08T01:22:08Z</time>
      </trkpt>
      <trkpt lat="44.85301" lon="4.59852">
        <ele>572</ele>
        <time>2022-02-08T01:22:16Z</time>
      </trkpt>
      <trkpt lat="44.8524" lon="4.59986">
        <ele>571</ele>
        <time>2022-02-08T01:22:37Z</time>
      </trkpt>
      <trkpt lat="44.85231" lon="4.60024">
        <ele>567</ele>
        <time>2022-02-08T01:22:42Z</time>
      </trkpt>
      <trkpt lat="44.85213" lon="4.60051">
        <ele>564</ele>
        <time>2022-02-08T01:22:46Z</time>
      </trkpt>
      <trkpt lat="44.85167" lon="4.6006">
        <ele>565</ele>
        <time>2022-02-08T01:22:55Z</time>
      </trkpt>
      <trkpt lat="44.85129" lon="4.60051">
        <ele>568</ele>
        <time>2022-02-08T01:23:01Z</time>
      </trkpt>
      <trkpt lat="44.85082" lon="4.6001">
        <ele>577</ele>
        <time>2022-02-08T01:23:11Z</time>
      </trkpt>
      <trkpt lat="44.85058" lon="4.60015">
        <ele>579</ele>
        <time>2022-02-08T01:23:16Z</time>
      </trkpt>
      <trkpt lat="44.85003" lon="4.60057">
        <ele>577</ele>
        <time>2022-02-08T01:23:27Z</time>
      </trkpt>
      <trkpt lat="44.84979" lon="4.60107">
        <ele>569</ele>
        <time>2022-02-08T01:23:34Z</time>
      </trkpt>
      <trkpt lat="44.84972" lon="4.60125">
        <ele>567</ele>
        <time>2022-02-08T01:23:37Z</time>
      </trkpt>
      <trkpt lat="44.84963" lon="4.60136">
        <ele>566</ele>
        <time>2022-02-08T01:23:39Z</time>
      </trkpt>
      <trkpt lat="44.84946" lon="4.60149">
        <ele>566</ele>
        <time>2022-02-08T01:23:42Z</time>
      </trkpt>
      <trkpt lat="44.84902" lon="4.60155">
        <ele>567</ele>
        <time>2022-02-08T01:23:50Z</time>
      </trkpt>
      <trkpt lat="44.84883" lon="4.60148">
        <ele>565</ele>
        <time>2022-02-08T01:23:54Z</time>
      </trkpt>
      <trkpt lat="44.84871" lon="4.60124">
        <ele>564</ele>
        <time>2022-02-08T01:23:57Z</time>
      </trkpt>
      <trkpt lat="44.84866" lon="4.60066">
        <ele>566</ele>
        <time>2022-02-08T01:24:05Z</time>
      </trkpt>
      <trkpt lat="44.84851" lon="4.6001">
        <ele>566</ele>
        <time>2022-02-08T01:24:12Z</time>
      </trkpt>
      <trkpt lat="44.84837" lon="4.59966">
        <ele>565</ele>
        <time>2022-02-08T01:24:19Z</time>
      </trkpt>
      <trkpt lat="44.84844" lon="4.59908">
        <ele>572</ele>
        <time>2022-02-08T01:24:26Z</time>
      </trkpt>
      <trkpt lat="44.84841" lon="4.59893">
        <ele>572</ele>
        <time>2022-02-08T01:24:28Z</time>
      </trkpt>
      <trkpt lat="44.84831" lon="4.59869">
        <ele>572</ele>
        <time>2022-02-08T01:24:31Z</time>
      </trkpt>
      <trkpt lat="44.84786" lon="4.59735">
        <ele>583</ele>
        <time>2022-02-08T01:24:50Z</time>
      </trkpt>
      <trkpt lat="44.84777" lon="4.59722">
        <ele>584</ele>
        <time>2022-02-08T01:24:52Z</time>
      </trkpt>
      <trkpt lat="44.84764" lon="4.59722">
        <ele>583</ele>
        <time>2022-02-08T01:24:55Z</time>
      </trkpt>
      <trkpt lat="44.84708" lon="4.59829">
        <ele>567</ele>
        <time>2022-02-08T01:25:11Z</time>
      </trkpt>
      <trkpt lat="44.84691" lon="4.59847">
        <ele>566</ele>
        <time>2022-02-08T01:25:15Z</time>
      </trkpt>
      <trkpt lat="44.84673" lon="4.5989">
        <ele>562</ele>
        <time>2022-02-08T01:25:22Z</time>
      </trkpt>
      <trkpt lat="44.84667" lon="4.59901">
        <ele>561</ele>
        <time>2022-02-08T01:25:23Z</time>
      </trkpt>
      <trkpt lat="44.84654" lon="4.59914">
        <ele>559</ele>
        <time>2022-02-08T01:25:26Z</time>
      </trkpt>
      <trkpt lat="44.84636" lon="4.59916">
        <ele>558</ele>
        <time>2022-02-08T01:25:29Z</time>
      </trkpt>
      <trkpt lat="44.84588" lon="4.59918">
        <ele>557</ele>
        <time>2022-02-08T01:25:38Z</time>
      </trkpt>
      <trkpt lat="44.84575" lon="4.59913">
        <ele>556</ele>
        <time>2022-02-08T01:25:40Z</time>
      </trkpt>
      <trkpt lat="44.8456" lon="4.59903">
        <ele>556</ele>
        <time>2022-02-08T01:25:43Z</time>
      </trkpt>
      <trkpt lat="44.84519" lon="4.59875">
        <ele>553</ele>
        <time>2022-02-08T01:25:51Z</time>
      </trkpt>
      <trkpt lat="44.84515" lon="4.59868">
        <ele>553</ele>
        <time>2022-02-08T01:25:53Z</time>
      </trkpt>
      <trkpt lat="44.8451" lon="4.59859">
        <ele>554</ele>
        <time>2022-02-08T01:25:54Z</time>
      </trkpt>
      <trkpt lat="44.84492" lon="4.59831">
        <ele>554</ele>
        <time>2022-02-08T01:25:59Z</time>
      </trkpt>
      <trkpt lat="44.84481" lon="4.59809">
        <ele>553</ele>
        <time>2022-02-08T01:26:02Z</time>
      </trkpt>
      <trkpt lat="44.84477" lon="4.59798">
        <ele>552</ele>
        <time>2022-02-08T01:26:04Z</time>
      </trkpt>
      <trkpt lat="44.84475" lon="4.59786">
        <ele>552</ele>
        <time>2022-02-08T01:26:05Z</time>
      </trkpt>
      <trkpt lat="44.84474" lon="4.59747">
        <ele>553</ele>
        <time>2022-02-08T01:26:10Z</time>
      </trkpt>
      <trkpt lat="44.8447" lon="4.59726">
        <ele>555</ele>
        <time>2022-02-08T01:26:13Z</time>
      </trkpt>
      <trkpt lat="44.84464" lon="4.59709">
        <ele>555</ele>
        <time>2022-02-08T01:26:15Z</time>
      </trkpt>
      <trkpt lat="44.84455" lon="4.59691">
        <ele>556</ele>
        <time>2022-02-08T01:26:18Z</time>
      </trkpt>
      <trkpt lat="44.84441" lon="4.59674">
        <ele>556</ele>
        <time>2022-02-08T01:26:21Z</time>
      </trkpt>
      <trkpt lat="44.84425" lon="4.59666">
        <ele>556</ele>
        <time>2022-02-08T01:26:24Z</time>
      </trkpt>
      <trkpt lat="44.84419" lon="4.59663">
        <ele>556</ele>
        <time>2022-02-08T01:26:26Z</time>
      </trkpt>
      <trkpt lat="44.84408" lon="4.59666">
        <ele>555</ele>
        <time>2022-02-08T01:26:28Z</time>
      </trkpt>
      <trkpt lat="44.84374" lon="4.59675">
        <ele>556</ele>
        <time>2022-02-08T01:26:34Z</time>
      </trkpt>
      <trkpt lat="44.8433" lon="4.5969">
        <ele>557</ele>
        <time>2022-02-08T01:26:42Z</time>
      </trkpt>
      <trkpt lat="44.84323" lon="4.59703">
        <ele>558</ele>
        <time>2022-02-08T01:26:44Z</time>
      </trkpt>
      <trkpt lat="44.84319" lon="4.59717">
        <ele>559</ele>
        <time>2022-02-08T01:26:46Z</time>
      </trkpt>
      <trkpt lat="44.84317" lon="4.59753">
        <ele>559</ele>
        <time>2022-02-08T01:26:50Z</time>
      </trkpt>
      <trkpt lat="44.84321" lon="4.59779">
        <ele>558</ele>
        <time>2022-02-08T01:26:54Z</time>
      </trkpt>
      <trkpt lat="44.84321" lon="4.59801">
        <ele>558</ele>
        <time>2022-02-08T01:26:56Z</time>
      </trkpt>
      <trkpt lat="44.84316" lon="4.59822">
        <ele>559</ele>
        <time>2022-02-08T01:26:59Z</time>
      </trkpt>
      <trkpt lat="44.84294" lon="4.5988">
        <ele>557</ele>
        <time>2022-02-08T01:27:07Z</time>
      </trkpt>
      <trkpt lat="44.8427" lon="4.59932">
        <ele>556</ele>
        <time>2022-02-08T01:27:15Z</time>
      </trkpt>
      <trkpt lat="44.84264" lon="4.59956">
        <ele>555</ele>
        <time>2022-02-08T01:27:18Z</time>
      </trkpt>
      <trkpt lat="44.84259" lon="4.59994">
        <ele>552</ele>
        <time>2022-02-08T01:27:23Z</time>
      </trkpt>
      <trkpt lat="44.84253" lon="4.6002">
        <ele>551</ele>
        <time>2022-02-08T01:27:27Z</time>
      </trkpt>
      <trkpt lat="44.84242" lon="4.60053">
        <ele>549</ele>
        <time>2022-02-08T01:27:31Z</time>
      </trkpt>
      <trkpt lat="44.84232" lon="4.6007">
        <ele>548</ele>
        <time>2022-02-08T01:27:34Z</time>
      </trkpt>
      <trkpt lat="44.84219" lon="4.60086">
        <ele>548</ele>
        <time>2022-02-08T01:27:37Z</time>
      </trkpt>
      <trkpt lat="44.84204" lon="4.60102">
        <ele>548</ele>
        <time>2022-02-08T01:27:41Z</time>
      </trkpt>
      <trkpt lat="44.84194" lon="4.60109">
        <ele>548</ele>
        <time>2022-02-08T01:27:43Z</time>
      </trkpt>
      <trkpt lat="44.84187" lon="4.60112">
        <ele>549</ele>
        <time>2022-02-08T01:27:44Z</time>
      </trkpt>
      <trkpt lat="44.84149" lon="4.60127">
        <ele>551</ele>
        <time>2022-02-08T01:27:51Z</time>
      </trkpt>
      <trkpt lat="44.84132" lon="4.60137">
        <ele>551</ele>
        <time>2022-02-08T01:27:54Z</time>
      </trkpt>
      <trkpt lat="44.84099" lon="4.60166">
        <ele>550</ele>
        <time>2022-02-08T01:28:01Z</time>
      </trkpt>
      <trkpt lat="44.84086" lon="4.60179">
        <ele>549</ele>
        <time>2022-02-08T01:28:04Z</time>
      </trkpt>
      <trkpt lat="44.84069" lon="4.60195">
        <ele>549</ele>
        <time>2022-02-08T01:28:08Z</time>
      </trkpt>
      <trkpt lat="44.84061" lon="4.60202">
        <ele>549</ele>
        <time>2022-02-08T01:28:09Z</time>
      </trkpt>
      <trkpt lat="44.84039" lon="4.60226">
        <ele>548</ele>
        <time>2022-02-08T01:28:14Z</time>
      </trkpt>
      <trkpt lat="44.84025" lon="4.60242">
        <ele>546</ele>
        <time>2022-02-08T01:28:17Z</time>
      </trkpt>
      <trkpt lat="44.8402" lon="4.60243">
        <ele>546</ele>
        <time>2022-02-08T01:28:18Z</time>
      </trkpt>
      <trkpt lat="44.84013" lon="4.60245">
        <ele>546</ele>
        <time>2022-02-08T01:28:20Z</time>
      </trkpt>
      <trkpt lat="44.84009" lon="4.60244">
        <ele>546</ele>
        <time>2022-02-08T01:28:20Z</time>
      </trkpt>
      <trkpt lat="44.84004" lon="4.60244">
        <ele>546</ele>
        <time>2022-02-08T01:28:21Z</time>
      </trkpt>
      <trkpt lat="44.83998" lon="4.60243">
        <ele>546</ele>
        <time>2022-02-08T01:28:22Z</time>
      </trkpt>
      <trkpt lat="44.83989" lon="4.60242">
        <ele>545</ele>
        <time>2022-02-08T01:28:24Z</time>
      </trkpt>
      <trkpt lat="44.8398" lon="4.6024">
        <ele>545</ele>
        <time>2022-02-08T01:28:26Z</time>
      </trkpt>
      <trkpt lat="44.83965" lon="4.60235">
        <ele>545</ele>
        <time>2022-02-08T01:28:28Z</time>
      </trkpt>
      <trkpt lat="44.83956" lon="4.60232">
        <ele>545</ele>
        <time>2022-02-08T01:28:30Z</time>
      </trkpt>
      <trkpt lat="44.83928" lon="4.60245">
        <ele>543</ele>
        <time>2022-02-08T01:28:35Z</time>
      </trkpt>
      <trkpt lat="44.83905" lon="4.60257">
        <ele>540</ele>
        <time>2022-02-08T01:28:40Z</time>
      </trkpt>
      <trkpt lat="44.83892" lon="4.60257">
        <ele>539</ele>
        <time>2022-02-08T01:28:42Z</time>
      </trkpt>
      <trkpt lat="44.83858" lon="4.60258">
        <ele>537</ele>
        <time>2022-02-08T01:28:48Z</time>
      </trkpt>
      <trkpt lat="44.83835" lon="4.60258">
        <ele>535</ele>
        <time>2022-02-08T01:28:52Z</time>
      </trkpt>
      <trkpt lat="44.83824" lon="4.60256">
        <ele>535</ele>
        <time>2022-02-08T01:28:54Z</time>
      </trkpt>
      <trkpt lat="44.83794" lon="4.60234">
        <ele>534</ele>
        <time>2022-02-08T01:29:00Z</time>
      </trkpt>
      <trkpt lat="44.83782" lon="4.60228">
        <ele>534</ele>
        <time>2022-02-08T01:29:02Z</time>
      </trkpt>
      <trkpt lat="44.83773" lon="4.60224">
        <ele>533</ele>
        <time>2022-02-08T01:29:04Z</time>
      </trkpt>
      <trkpt lat="44.83705" lon="4.60194">
        <ele>531</ele>
        <time>2022-02-08T01:29:17Z</time>
      </trkpt>
      <trkpt lat="44.83674" lon="4.60176">
        <ele>532</ele>
        <time>2022-02-08T01:29:23Z</time>
      </trkpt>
      <trkpt lat="44.83662" lon="4.60171">
        <ele>532</ele>
        <time>2022-02-08T01:29:25Z</time>
      </trkpt>
      <trkpt lat="44.83655" lon="4.60169">
        <ele>532</ele>
        <time>2022-02-08T01:29:26Z</time>
      </trkpt>
      <trkpt lat="44.83648" lon="4.60172">
        <ele>531</ele>
        <time>2022-02-08T01:29:27Z</time>
      </trkpt>
      <trkpt lat="44.83642" lon="4.60181">
        <ele>530</ele>
        <time>2022-02-08T01:29:29Z</time>
      </trkpt>
      <trkpt lat="44.83632" lon="4.60202">
        <ele>527</ele>
        <time>2022-02-08T01:29:32Z</time>
      </trkpt>
      <trkpt lat="44.83612" lon="4.60244">
        <ele>523</ele>
        <time>2022-02-08T01:29:38Z</time>
      </trkpt>
      <trkpt lat="44.83606" lon="4.60261">
        <ele>522</ele>
        <time>2022-02-08T01:29:41Z</time>
      </trkpt>
      <trkpt lat="44.83604" lon="4.60279">
        <ele>523</ele>
        <time>2022-02-08T01:29:43Z</time>
      </trkpt>
      <trkpt lat="44.83607" lon="4.60297">
        <ele>522</ele>
        <time>2022-02-08T01:29:46Z</time>
      </trkpt>
      <trkpt lat="44.83626" lon="4.60353">
        <ele>518</ele>
        <time>2022-02-08T01:29:53Z</time>
      </trkpt>
      <trkpt lat="44.83646" lon="4.60432">
        <ele>514</ele>
        <time>2022-02-08T01:30:04Z</time>
      </trkpt>
      <trkpt lat="44.83693" lon="4.60569">
        <ele>506</ele>
        <time>2022-02-08T01:30:23Z</time>
      </trkpt>
      <trkpt lat="44.83693" lon="4.60592">
        <ele>504</ele>
        <time>2022-02-08T01:30:26Z</time>
      </trkpt>
      <trkpt lat="44.83689" lon="4.60611">
        <ele>503</ele>
        <time>2022-02-08T01:30:29Z</time>
      </trkpt>
      <trkpt lat="44.83679" lon="4.60629">
        <ele>502</ele>
        <time>2022-02-08T01:30:31Z</time>
      </trkpt>
      <trkpt lat="44.83673" lon="4.60638">
        <ele>502</ele>
        <time>2022-02-08T01:30:33Z</time>
      </trkpt>
      <trkpt lat="44.8366" lon="4.60648">
        <ele>502</ele>
        <time>2022-02-08T01:30:36Z</time>
      </trkpt>
      <trkpt lat="44.83637" lon="4.60651">
        <ele>501</ele>
        <time>2022-02-08T01:30:40Z</time>
      </trkpt>
      <trkpt lat="44.83624" lon="4.60649">
        <ele>501</ele>
        <time>2022-02-08T01:30:42Z</time>
      </trkpt>
      <trkpt lat="44.83588" lon="4.60637">
        <ele>503</ele>
        <time>2022-02-08T01:30:49Z</time>
      </trkpt>
      <trkpt lat="44.83563" lon="4.60637">
        <ele>499</ele>
        <time>2022-02-08T01:30:53Z</time>
      </trkpt>
      <trkpt lat="44.83549" lon="4.6064">
        <ele>497</ele>
        <time>2022-02-08T01:30:56Z</time>
      </trkpt>
      <trkpt lat="44.83532" lon="4.60651">
        <ele>493</ele>
        <time>2022-02-08T01:30:59Z</time>
      </trkpt>
      <trkpt lat="44.83497" lon="4.607">
        <ele>488</ele>
        <time>2022-02-08T01:31:08Z</time>
      </trkpt>
      <trkpt lat="44.83492" lon="4.60711">
        <ele>487</ele>
        <time>2022-02-08T01:31:09Z</time>
      </trkpt>
      <trkpt lat="44.83486" lon="4.60725">
        <ele>487</ele>
        <time>2022-02-08T01:31:11Z</time>
      </trkpt>
      <trkpt lat="44.83487" lon="4.60726">
        <ele>487</ele>
        <time>2022-02-08T01:31:12Z</time>
      </trkpt>
      <trkpt lat="44.8348" lon="4.60742">
        <ele>487</ele>
        <time>2022-02-08T01:31:14Z</time>
      </trkpt>
      <trkpt lat="44.83469" lon="4.60735">
        <ele>485</ele>
        <time>2022-02-08T01:31:16Z</time>
      </trkpt>
      <trkpt lat="44.83464" lon="4.60728">
        <ele>483</ele>
        <time>2022-02-08T01:31:17Z</time>
      </trkpt>
      <trkpt lat="44.83461" lon="4.60715">
        <ele>481</ele>
        <time>2022-02-08T01:31:19Z</time>
      </trkpt>
      <trkpt lat="44.83461" lon="4.60698">
        <ele>480</ele>
        <time>2022-02-08T01:31:21Z</time>
      </trkpt>
      <trkpt lat="44.83466" lon="4.60682">
        <ele>480</ele>
        <time>2022-02-08T01:31:23Z</time>
      </trkpt>
      <trkpt lat="44.83476" lon="4.60663">
        <ele>481</ele>
        <time>2022-02-08T01:31:26Z</time>
      </trkpt>
      <trkpt lat="44.83488" lon="4.60647">
        <ele>485</ele>
        <time>2022-02-08T01:31:29Z</time>
      </trkpt>
      <trkpt lat="44.83495" lon="4.60626">
        <ele>488</ele>
        <time>2022-02-08T01:31:32Z</time>
      </trkpt>
      <trkpt lat="44.83481" lon="4.60571">
        <ele>486</ele>
        <time>2022-02-08T01:31:40Z</time>
      </trkpt>
      <trkpt lat="44.83468" lon="4.60547">
        <ele>483</ele>
        <time>2022-02-08T01:31:44Z</time>
      </trkpt>
      <trkpt lat="44.83421" lon="4.60498">
        <ele>470</ele>
        <time>2022-02-08T01:31:54Z</time>
      </trkpt>
      <trkpt lat="44.83408" lon="4.60474">
        <ele>465</ele>
        <time>2022-02-08T01:31:58Z</time>
      </trkpt>
      <trkpt lat="44.83401" lon="4.60433">
        <ele>463</ele>
        <time>2022-02-08T01:32:03Z</time>
      </trkpt>
      <trkpt lat="44.83404" lon="4.60395">
        <ele>465</ele>
        <time>2022-02-08T01:32:08Z</time>
      </trkpt>
      <trkpt lat="44.83404" lon="4.60353">
        <ele>464</ele>
        <time>2022-02-08T01:32:13Z</time>
      </trkpt>
      <trkpt lat="44.83398" lon="4.60316">
        <ele>459</ele>
        <time>2022-02-08T01:32:18Z</time>
      </trkpt>
      <trkpt lat="44.83414" lon="4.60168">
        <ele>462</ele>
        <time>2022-02-08T01:32:37Z</time>
      </trkpt>
      <trkpt lat="44.83401" lon="4.60085">
        <ele>456</ele>
        <time>2022-02-08T01:32:48Z</time>
      </trkpt>
      <trkpt lat="44.83387" lon="4.60057">
        <ele>455</ele>
        <time>2022-02-08T01:32:52Z</time>
      </trkpt>
      <trkpt lat="44.83347" lon="4.60027">
        <ele>444</ele>
        <time>2022-02-08T01:33:00Z</time>
      </trkpt>
      <trkpt lat="44.83316" lon="4.59991">
        <ele>439</ele>
        <time>2022-02-08T01:33:07Z</time>
      </trkpt>
      <trkpt lat="44.83299" lon="4.59969">
        <ele>435</ele>
        <time>2022-02-08T01:33:11Z</time>
      </trkpt>
      <trkpt lat="44.83291" lon="4.59943">
        <ele>435</ele>
        <time>2022-02-08T01:33:15Z</time>
      </trkpt>
      <trkpt lat="44.83276" lon="4.59758">
        <ele>424</ele>
        <time>2022-02-08T01:33:38Z</time>
      </trkpt>
      <trkpt lat="44.83288" lon="4.59631">
        <ele>421</ele>
        <time>2022-02-08T01:33:54Z</time>
      </trkpt>
      <trkpt lat="44.83303" lon="4.59591">
        <ele>423</ele>
        <time>2022-02-08T01:34:00Z</time>
      </trkpt>
      <trkpt lat="44.83302" lon="4.59576">
        <ele>422</ele>
        <time>2022-02-08T01:34:02Z</time>
      </trkpt>
      <trkpt lat="44.83286" lon="4.59471">
        <ele>429</ele>
        <time>2022-02-08T01:34:16Z</time>
      </trkpt>
      <trkpt lat="44.83277" lon="4.5947">
        <ele>429</ele>
        <time>2022-02-08T01:34:17Z</time>
      </trkpt>
      <trkpt lat="44.83265" lon="4.59481">
        <ele>425</ele>
        <time>2022-02-08T01:34:20Z</time>
      </trkpt>
      <trkpt lat="44.83259" lon="4.59516">
        <ele>419</ele>
        <time>2022-02-08T01:34:24Z</time>
      </trkpt>
      <trkpt lat="44.83245" lon="4.59545">
        <ele>413</ele>
        <time>2022-02-08T01:34:29Z</time>
      </trkpt>
      <trkpt lat="44.83194" lon="4.59583">
        <ele>409</ele>
        <time>2022-02-08T01:34:39Z</time>
      </trkpt>
      <trkpt lat="44.83185" lon="4.59598">
        <ele>408</ele>
        <time>2022-02-08T01:34:41Z</time>
      </trkpt>
      <trkpt lat="44.83175" lon="4.59617">
        <ele>405</ele>
        <time>2022-02-08T01:34:44Z</time>
      </trkpt>
      <trkpt lat="44.83163" lon="4.59661">
        <ele>399</ele>
        <time>2022-02-08T01:34:50Z</time>
      </trkpt>
      <trkpt lat="44.83131" lon="4.59744">
        <ele>393</ele>
        <time>2022-02-08T01:35:02Z</time>
      </trkpt>
      <trkpt lat="44.83105" lon="4.59765">
        <ele>393</ele>
        <time>2022-02-08T01:35:08Z</time>
      </trkpt>
      <trkpt lat="44.83101" lon="4.59772">
        <ele>393</ele>
        <time>2022-02-08T01:35:09Z</time>
      </trkpt>
      <trkpt lat="44.83084" lon="4.59819">
        <ele>387</ele>
        <time>2022-02-08T01:35:15Z</time>
      </trkpt>
      <trkpt lat="44.83042" lon="4.59895">
        <ele>382</ele>
        <time>2022-02-08T01:35:28Z</time>
      </trkpt>
      <trkpt lat="44.83023" lon="4.59951">
        <ele>375</ele>
        <time>2022-02-08T01:35:35Z</time>
      </trkpt>
      <trkpt lat="44.82983" lon="4.59957">
        <ele>380</ele>
        <time>2022-02-08T01:35:43Z</time>
      </trkpt>
      <trkpt lat="44.82917" lon="4.60022">
        <ele>371</ele>
        <time>2022-02-08T01:35:57Z</time>
      </trkpt>
      <trkpt lat="44.82883" lon="4.60065">
        <ele>366</ele>
        <time>2022-02-08T01:36:05Z</time>
      </trkpt>
      <trkpt lat="44.82852" lon="4.60084">
        <ele>366</ele>
        <time>2022-02-08T01:36:11Z</time>
      </trkpt>
      <trkpt lat="44.82831" lon="4.60146">
        <ele>350</ele>
        <time>2022-02-08T01:36:20Z</time>
      </trkpt>
      <trkpt lat="44.82819" lon="4.60162">
        <ele>346</ele>
        <time>2022-02-08T01:36:23Z</time>
      </trkpt>
      <trkpt lat="44.82764" lon="4.60186">
        <ele>340</ele>
        <time>2022-02-08T01:36:33Z</time>
      </trkpt>
      <trkpt lat="44.82711" lon="4.60177">
        <ele>335</ele>
        <time>2022-02-08T01:36:42Z</time>
      </trkpt>
      <trkpt lat="44.82708" lon="4.60176">
        <ele>334</ele>
        <time>2022-02-08T01:36:43Z</time>
      </trkpt>
      <trkpt lat="44.82698" lon="4.60171">
        <ele>333</ele>
        <time>2022-02-08T01:36:45Z</time>
      </trkpt>
      <trkpt lat="44.82692" lon="4.6016">
        <ele>335</ele>
        <time>2022-02-08T01:36:47Z</time>
      </trkpt>
      <trkpt lat="44.82688" lon="4.60089">
        <ele>350</ele>
        <time>2022-02-08T01:36:56Z</time>
      </trkpt>
      <trkpt lat="44.82684" lon="4.60081">
        <ele>351</ele>
        <time>2022-02-08T01:36:57Z</time>
      </trkpt>
      <trkpt lat="44.82675" lon="4.60078">
        <ele>350</ele>
        <time>2022-02-08T01:36:58Z</time>
      </trkpt>
      <trkpt lat="44.82597" lon="4.60141">
        <ele>341</ele>
        <time>2022-02-08T01:37:14Z</time>
      </trkpt>
      <trkpt lat="44.82575" lon="4.60196">
        <ele>327</ele>
        <time>2022-02-08T01:37:22Z</time>
      </trkpt>
      <trkpt lat="44.82527" lon="4.60212">
        <ele>327</ele>
        <time>2022-02-08T01:37:31Z</time>
      </trkpt>
      <trkpt lat="44.82504" lon="4.60256">
        <ele>311</ele>
        <time>2022-02-08T01:37:38Z</time>
      </trkpt>
      <trkpt lat="44.82492" lon="4.60259">
        <ele>310</ele>
        <time>2022-02-08T01:37:40Z</time>
      </trkpt>
      <trkpt lat="44.82439" lon="4.60247">
        <ele>318</ele>
        <time>2022-02-08T01:37:50Z</time>
      </trkpt>
      <trkpt lat="44.82414" lon="4.60238">
        <ele>324</ele>
        <time>2022-02-08T01:37:54Z</time>
      </trkpt>
      <trkpt lat="44.82385" lon="4.60269">
        <ele>311</ele>
        <time>2022-02-08T01:38:01Z</time>
      </trkpt>
      <trkpt lat="44.82356" lon="4.60285">
        <ele>305</ele>
        <time>2022-02-08T01:38:06Z</time>
      </trkpt>
      <trkpt lat="44.82349" lon="4.60286">
        <ele>305</ele>
        <time>2022-02-08T01:38:08Z</time>
      </trkpt>
      <trkpt lat="44.82325" lon="4.60281">
        <ele>307</ele>
        <time>2022-02-08T01:38:12Z</time>
      </trkpt>
      <trkpt lat="44.82284" lon="4.60257">
        <ele>314</ele>
        <time>2022-02-08T01:38:20Z</time>
      </trkpt>
      <trkpt lat="44.82276" lon="4.60258">
        <ele>312</ele>
        <time>2022-02-08T01:38:21Z</time>
      </trkpt>
      <trkpt lat="44.82269" lon="4.60263">
        <ele>310</ele>
        <time>2022-02-08T01:38:23Z</time>
      </trkpt>
      <trkpt lat="44.82231" lon="4.6035">
        <ele>278</ele>
        <time>2022-02-08T01:38:36Z</time>
      </trkpt>
      <trkpt lat="44.82204" lon="4.6036">
        <ele>272</ele>
        <time>2022-02-08T01:38:41Z</time>
      </trkpt>
      <trkpt lat="44.82192" lon="4.60356">
        <ele>271</ele>
        <time>2022-02-08T01:38:43Z</time>
      </trkpt>
      <trkpt lat="44.82184" lon="4.60337">
        <ele>275</ele>
        <time>2022-02-08T01:38:46Z</time>
      </trkpt>
      <trkpt lat="44.82156" lon="4.6022">
        <ele>292</ele>
        <time>2022-02-08T01:39:01Z</time>
      </trkpt>
      <trkpt lat="44.82148" lon="4.60214">
        <ele>290</ele>
        <time>2022-02-08T01:39:03Z</time>
      </trkpt>
      <trkpt lat="44.82136" lon="4.60211">
        <ele>285</ele>
        <time>2022-02-08T01:39:05Z</time>
      </trkpt>
      <trkpt lat="44.82105" lon="4.60187">
        <ele>278</ele>
        <time>2022-02-08T01:39:11Z</time>
      </trkpt>
      <trkpt lat="44.82099" lon="4.60189">
        <ele>275</ele>
        <time>2022-02-08T01:39:12Z</time>
      </trkpt>
      <trkpt lat="44.82099" lon="4.60197">
        <ele>273</ele>
        <time>2022-02-08T01:39:13Z</time>
      </trkpt>
      <trkpt lat="44.82105" lon="4.60207">
        <ele>273</ele>
        <time>2022-02-08T01:39:15Z</time>
      </trkpt>
      <trkpt lat="44.82131" lon="4.60224">
        <ele>280</ele>
        <time>2022-02-08T01:39:20Z</time>
      </trkpt>
      <trkpt lat="44.82142" lon="4.60234">
        <ele>282</ele>
        <time>2022-02-08T01:39:22Z</time>
      </trkpt>
      <trkpt lat="44.82147" lon="4.60251">
        <ele>280</ele>
        <time>2022-02-08T01:39:25Z</time>
      </trkpt>
      <trkpt lat="44.82146" lon="4.60318">
        <ele>266</ele>
        <time>2022-02-08T01:39:33Z</time>
      </trkpt>
      <trkpt lat="44.82149" lon="4.60365">
        <ele>258</ele>
        <time>2022-02-08T01:39:39Z</time>
      </trkpt>
      <trkpt lat="44.82153" lon="4.60382">
        <ele>256</ele>
        <time>2022-02-08T01:39:41Z</time>
      </trkpt>
      <trkpt lat="44.82161" lon="4.604">
        <ele>256</ele>
        <time>2022-02-08T01:39:44Z</time>
      </trkpt>
      <trkpt lat="44.82183" lon="4.60425">
        <ele>253</ele>
        <time>2022-02-08T01:39:49Z</time>
      </trkpt>
      <trkpt lat="44.82189" lon="4.60434">
        <ele>251</ele>
        <time>2022-02-08T01:39:51Z</time>
      </trkpt>
      <trkpt lat="44.82189" lon="4.60441">
        <ele>249</ele>
        <time>2022-02-08T01:39:52Z</time>
      </trkpt>
      <trkpt lat="44.82185" lon="4.60448">
        <ele>246</ele>
        <time>2022-02-08T01:39:53Z</time>
      </trkpt>
      <trkpt lat="44.82181" lon="4.60447">
        <ele>246</ele>
        <time>2022-02-08T01:39:53Z</time>
      </trkpt>
      <trkpt lat="44.82176" lon="4.60442">
        <ele>247</ele>
        <time>2022-02-08T01:39:55Z</time>
      </trkpt>
      <trkpt lat="44.82173" lon="4.60429">
        <ele>251</ele>
        <time>2022-02-08T01:39:56Z</time>
      </trkpt>
      <trkpt lat="44.82163" lon="4.60415">
        <ele>254</ele>
        <time>2022-02-08T01:39:59Z</time>
      </trkpt>
      <trkpt lat="44.82144" lon="4.60398">
        <ele>249</ele>
        <time>2022-02-08T01:40:03Z</time>
      </trkpt>
      <trkpt lat="44.82104" lon="4.60286">
        <ele>252</ele>
        <time>2022-02-08T01:40:19Z</time>
      </trkpt>
      <trkpt lat="44.82077" lon="4.60252">
        <ele>247</ele>
        <time>2022-02-08T01:40:25Z</time>
      </trkpt>
      <trkpt lat="44.82026" lon="4.60198">
        <ele>236</ele>
        <time>2022-02-08T01:40:36Z</time>
      </trkpt>
      <trkpt lat="44.82014" lon="4.60182">
        <ele>233</ele>
        <time>2022-02-08T01:40:39Z</time>
      </trkpt>
      <trkpt lat="44.81993" lon="4.60134">
        <ele>231</ele>
        <time>2022-02-08T01:40:46Z</time>
      </trkpt>
      <trkpt lat="44.81988" lon="4.60078">
        <ele>237</ele>
        <time>2022-02-08T01:40:54Z</time>
      </trkpt>
      <trkpt lat="44.81972" lon="4.60033">
        <ele>237</ele>
        <time>2022-02-08T01:41:00Z</time>
      </trkpt>
      <trkpt lat="44.81963" lon="4.60002">
        <ele>236</ele>
        <time>2022-02-08T01:41:04Z</time>
      </trkpt>
      <trkpt lat="44.81927" lon="4.5994">
        <ele>230</ele>
        <time>2022-02-08T01:41:14Z</time>
      </trkpt>
      <trkpt lat="44.81893" lon="4.59861">
        <ele>226</ele>
        <time>2022-02-08T01:41:26Z</time>
      </trkpt>
      <trkpt lat="44.81879" lon="4.59818">
        <ele>222</ele>
        <time>2022-02-08T01:41:32Z</time>
      </trkpt>
      <trkpt lat="44.81873" lon="4.59788">
        <ele>219</ele>
        <time>2022-02-08T01:41:36Z</time>
      </trkpt>
      <trkpt lat="44.81871" lon="4.59785">
        <ele>218</ele>
        <time>2022-02-08T01:41:36Z</time>
      </trkpt>
      <trkpt lat="44.81868" lon="4.59783">
        <ele>217</ele>
        <time>2022-02-08T01:41:37Z</time>
      </trkpt>
      <trkpt lat="44.81862" lon="4.59777">
        <ele>214</ele>
        <time>2022-02-08T01:41:38Z</time>
      </trkpt>
      <trkpt lat="44.8186" lon="4.59732">
        <ele>211</ele>
        <time>2022-02-08T01:41:44Z</time>
      </trkpt>
      <trkpt lat="44.81856" lon="4.59713">
        <ele>207</ele>
        <time>2022-02-08T01:41:46Z</time>
      </trkpt>
      <trkpt lat="44.81849" lon="4.59692">
        <ele>202</ele>
        <time>2022-02-08T01:41:49Z</time>
      </trkpt>
      <trkpt lat="44.8181" lon="4.59641">
        <ele>199</ele>
        <time>2022-02-08T01:41:59Z</time>
      </trkpt>
      <trkpt lat="44.81803" lon="4.59636">
        <ele>200</ele>
        <time>2022-02-08T01:42:00Z</time>
      </trkpt>
      <trkpt lat="44.81794" lon="4.59634">
        <ele>201</ele>
        <time>2022-02-08T01:42:02Z</time>
      </trkpt>
      <trkpt lat="44.81766" lon="4.59633">
        <ele>203</ele>
        <time>2022-02-08T01:42:07Z</time>
      </trkpt>
      <trkpt lat="44.81756" lon="4.59627">
        <ele>204</ele>
        <time>2022-02-08T01:42:09Z</time>
      </trkpt>
      <trkpt lat="44.81752" lon="4.59624">
        <ele>205</ele>
        <time>2022-02-08T01:42:10Z</time>
      </trkpt>
      <trkpt lat="44.81737" lon="4.5965">
        <ele>204</ele>
        <time>2022-02-08T01:42:14Z</time>
      </trkpt>
      <trkpt lat="44.81733" lon="4.59656">
        <ele>204</ele>
        <time>2022-02-08T01:42:15Z</time>
      </trkpt>
      <trkpt lat="44.8173" lon="4.59662">
        <ele>204</ele>
        <time>2022-02-08T01:42:16Z</time>
      </trkpt>
      <trkpt lat="44.81727" lon="4.59669">
        <ele>204</ele>
        <time>2022-02-08T01:42:17Z</time>
      </trkpt>
      <trkpt lat="44.81724" lon="4.59674">
        <ele>204</ele>
        <time>2022-02-08T01:42:18Z</time>
      </trkpt>
      <trkpt lat="44.81714" lon="4.59691">
        <ele>204</ele>
        <time>2022-02-08T01:42:20Z</time>
      </trkpt>
      <trkpt lat="44.8171" lon="4.59699">
        <ele>204</ele>
        <time>2022-02-08T01:42:22Z</time>
      </trkpt>
      <trkpt lat="44.81689" lon="4.59736">
        <ele>204</ele>
        <time>2022-02-08T01:42:28Z</time>
      </trkpt>
      <trkpt lat="44.81671" lon="4.59772">
        <ele>205</ele>
        <time>2022-02-08T01:42:33Z</time>
      </trkpt>
      <trkpt lat="44.81668" lon="4.59783">
        <ele>205</ele>
        <time>2022-02-08T01:42:35Z</time>
      </trkpt>
      <trkpt lat="44.81648" lon="4.59748">
        <ele>207</ele>
        <time>2022-02-08T01:42:40Z</time>
      </trkpt>
      <trkpt lat="44.81631" lon="4.5973">
        <ele>208</ele>
        <time>2022-02-08T01:42:44Z</time>
      </trkpt>
      <trkpt lat="44.81622" lon="4.59735">
        <ele>209</ele>
        <time>2022-02-08T01:42:46Z</time>
      </trkpt>
      <trkpt lat="44.81512" lon="4.59846">
        <ele>230</ele>
        <time>2022-02-08T01:43:10Z</time>
      </trkpt>
      <trkpt lat="44.8149" lon="4.59863">
        <ele>238</ele>
        <time>2022-02-08T01:43:14Z</time>
      </trkpt>
      <trkpt lat="44.81481" lon="4.59859">
        <ele>241</ele>
        <time>2022-02-08T01:43:16Z</time>
      </trkpt>
      <trkpt lat="44.81472" lon="4.59842">
        <ele>242</ele>
        <time>2022-02-08T01:43:19Z</time>
      </trkpt>
      <trkpt lat="44.81467" lon="4.59802">
        <ele>239</ele>
        <time>2022-02-08T01:43:24Z</time>
      </trkpt>
      <trkpt lat="44.81443" lon="4.59766">
        <ele>239</ele>
        <time>2022-02-08T01:43:30Z</time>
      </trkpt>
      <trkpt lat="44.81421" lon="4.59744">
        <ele>239</ele>
        <time>2022-02-08T01:43:35Z</time>
      </trkpt>
      <trkpt lat="44.81414" lon="4.59742">
        <ele>241</ele>
        <time>2022-02-08T01:43:36Z</time>
      </trkpt>
      <trkpt lat="44.81392" lon="4.59746">
        <ele>251</ele>
        <time>2022-02-08T01:43:40Z</time>
      </trkpt>
      <trkpt lat="44.81386" lon="4.59741">
        <ele>253</ele>
        <time>2022-02-08T01:43:41Z</time>
      </trkpt>
      <trkpt lat="44.81385" lon="4.59731">
        <ele>251</ele>
        <time>2022-02-08T01:43:43Z</time>
      </trkpt>
      <trkpt lat="44.81388" lon="4.59716">
        <ele>247</ele>
        <time>2022-02-08T01:43:45Z</time>
      </trkpt>
      <trkpt lat="44.81385" lon="4.59702">
        <ele>246</ele>
        <time>2022-02-08T01:43:46Z</time>
      </trkpt>
      <trkpt lat="44.81377" lon="4.59683">
        <ele>246</ele>
        <time>2022-02-08T01:43:49Z</time>
      </trkpt>
      <trkpt lat="44.81361" lon="4.5966">
        <ele>248</ele>
        <time>2022-02-08T01:43:53Z</time>
      </trkpt>
      <trkpt lat="44.81349" lon="4.59634">
        <ele>249</ele>
        <time>2022-02-08T01:43:57Z</time>
      </trkpt>
      <trkpt lat="44.81343" lon="4.59587">
        <ele>242</ele>
        <time>2022-02-08T01:44:03Z</time>
      </trkpt>
      <trkpt lat="44.81313" lon="4.59553">
        <ele>249</ele>
        <time>2022-02-08T01:44:10Z</time>
      </trkpt>
      <trkpt lat="44.81298" lon="4.59545">
        <ele>255</ele>
        <time>2022-02-08T01:44:13Z</time>
      </trkpt>
      <trkpt lat="44.81277" lon="4.59547">
        <ele>265</ele>
        <time>2022-02-08T01:44:17Z</time>
      </trkpt>
      <trkpt lat="44.81271" lon="4.5954">
        <ele>267</ele>
        <time>2022-02-08T01:44:18Z</time>
      </trkpt>
      <trkpt lat="44.8127" lon="4.59529">
        <ele>267</ele>
        <time>2022-02-08T01:44:19Z</time>
      </trkpt>
      <trkpt lat="44.81272" lon="4.59519">
        <ele>265</ele>
        <time>2022-02-08T01:44:21Z</time>
      </trkpt>
      <trkpt lat="44.81285" lon="4.59487">
        <ele>255</ele>
        <time>2022-02-08T01:44:25Z</time>
      </trkpt>
      <trkpt lat="44.81287" lon="4.59474">
        <ele>252</ele>
        <time>2022-02-08T01:44:27Z</time>
      </trkpt>
      <trkpt lat="44.81285" lon="4.59459">
        <ele>252</ele>
        <time>2022-02-08T01:44:29Z</time>
      </trkpt>
      <trkpt lat="44.81247" lon="4.59391">
        <ele>260</ele>
        <time>2022-02-08T01:44:40Z</time>
      </trkpt>
      <trkpt lat="44.8123" lon="4.59384">
        <ele>264</ele>
        <time>2022-02-08T01:44:43Z</time>
      </trkpt>
      <trkpt lat="44.81206" lon="4.59391">
        <ele>271</ele>
        <time>2022-02-08T01:44:47Z</time>
      </trkpt>
      <trkpt lat="44.81181" lon="4.59412">
        <ele>278</ele>
        <time>2022-02-08T01:44:53Z</time>
      </trkpt>
      <trkpt lat="44.81171" lon="4.59429">
        <ele>282</ele>
        <time>2022-02-08T01:44:55Z</time>
      </trkpt>
      <trkpt lat="44.81162" lon="4.59435">
        <ele>286</ele>
        <time>2022-02-08T01:44:57Z</time>
      </trkpt>
      <trkpt lat="44.81154" lon="4.59434">
        <ele>288</ele>
        <time>2022-02-08T01:44:59Z</time>
      </trkpt>
      <trkpt lat="44.81141" lon="4.5941">
        <ele>289</ele>
        <time>2022-02-08T01:45:02Z</time>
      </trkpt>
      <trkpt lat="44.8114" lon="4.59395">
        <ele>290</ele>
        <time>2022-02-08T01:45:04Z</time>
      </trkpt>
      <trkpt lat="44.81143" lon="4.59385">
        <ele>289</ele>
        <time>2022-02-08T01:45:06Z</time>
      </trkpt>
      <trkpt lat="44.8116" lon="4.59336">
        <ele>284</ele>
        <time>2022-02-08T01:45:13Z</time>
      </trkpt>
      <trkpt lat="44.8117" lon="4.59317">
        <ele>281</ele>
        <time>2022-02-08T01:45:16Z</time>
      </trkpt>
      <trkpt lat="44.81176" lon="4.59284">
        <ele>281</ele>
        <time>2022-02-08T01:45:20Z</time>
      </trkpt>
      <trkpt lat="44.81188" lon="4.59251">
        <ele>277</ele>
        <time>2022-02-08T01:45:25Z</time>
      </trkpt>
      <trkpt lat="44.81189" lon="4.5924">
        <ele>275</ele>
        <time>2022-02-08T01:45:26Z</time>
      </trkpt>
      <trkpt lat="44.81185" lon="4.59233">
        <ele>275</ele>
        <time>2022-02-08T01:45:27Z</time>
      </trkpt>
      <trkpt lat="44.8118" lon="4.5923">
        <ele>277</ele>
        <time>2022-02-08T01:45:28Z</time>
      </trkpt>
      <trkpt lat="44.81172" lon="4.59236">
        <ele>282</ele>
        <time>2022-02-08T01:45:30Z</time>
      </trkpt>
      <trkpt lat="44.81161" lon="4.59296">
        <ele>286</ele>
        <time>2022-02-08T01:45:38Z</time>
      </trkpt>
      <trkpt lat="44.81154" lon="4.59309">
        <ele>288</ele>
        <time>2022-02-08T01:45:40Z</time>
      </trkpt>
      <trkpt lat="44.81121" lon="4.59336">
        <ele>299</ele>
        <time>2022-02-08T01:45:46Z</time>
      </trkpt>
      <trkpt lat="44.81087" lon="4.59368">
        <ele>309</ele>
        <time>2022-02-08T01:45:54Z</time>
      </trkpt>
      <trkpt lat="44.81076" lon="4.59384">
        <ele>312</ele>
        <time>2022-02-08T01:45:56Z</time>
      </trkpt>
      <trkpt lat="44.81071" lon="4.59405">
        <ele>312</ele>
        <time>2022-02-08T01:45:59Z</time>
      </trkpt>
      <trkpt lat="44.8107" lon="4.59424">
        <ele>313</ele>
        <time>2022-02-08T01:46:02Z</time>
      </trkpt>
      <trkpt lat="44.81074" lon="4.59431">
        <ele>312</ele>
        <time>2022-02-08T01:46:03Z</time>
      </trkpt>
      <trkpt lat="44.81106" lon="4.5946">
        <ele>307</ele>
        <time>2022-02-08T01:46:10Z</time>
      </trkpt>
      <trkpt lat="44.81115" lon="4.59479">
        <ele>308</ele>
        <time>2022-02-08T01:46:12Z</time>
      </trkpt>
      <trkpt lat="44.81115" lon="4.59501">
        <ele>312</ele>
        <time>2022-02-08T01:46:15Z</time>
      </trkpt>
      <trkpt lat="44.81107" lon="4.59561">
        <ele>325</ele>
        <time>2022-02-08T01:46:23Z</time>
      </trkpt>
      <trkpt lat="44.81107" lon="4.59569">
        <ele>326</ele>
        <time>2022-02-08T01:46:24Z</time>
      </trkpt>
      <trkpt lat="44.81109" lon="4.59574">
        <ele>327</ele>
        <time>2022-02-08T01:46:25Z</time>
      </trkpt>
      <trkpt lat="44.81114" lon="4.59577">
        <ele>326</ele>
        <time>2022-02-08T01:46:26Z</time>
      </trkpt>
      <trkpt lat="44.81119" lon="4.59575">
        <ele>325</ele>
        <time>2022-02-08T01:46:27Z</time>
      </trkpt>
      <trkpt lat="44.81175" lon="4.59526">
        <ele>300</ele>
        <time>2022-02-08T01:46:38Z</time>
      </trkpt>
      <trkpt lat="44.81185" lon="4.59528">
        <ele>297</ele>
        <time>2022-02-08T01:46:40Z</time>
      </trkpt>
      <trkpt lat="44.81191" lon="4.59538">
        <ele>297</ele>
        <time>2022-02-08T01:46:42Z</time>
      </trkpt>
      <trkpt lat="44.8119" lon="4.59581">
        <ele>305</ele>
        <time>2022-02-08T01:46:47Z</time>
      </trkpt>
      <trkpt lat="44.81187" lon="4.59608">
        <ele>315</ele>
        <time>2022-02-08T01:46:51Z</time>
      </trkpt>
      <trkpt lat="44.81183" lon="4.59619">
        <ele>321</ele>
        <time>2022-02-08T01:46:52Z</time>
      </trkpt>
      <trkpt lat="44.81178" lon="4.59621">
        <ele>323</ele>
        <time>2022-02-08T01:46:53Z</time>
      </trkpt>
      <trkpt lat="44.81173" lon="4.59617">
        <ele>324</ele>
        <time>2022-02-08T01:46:54Z</time>
      </trkpt>
      <trkpt lat="44.81172" lon="4.59607">
        <ele>321</ele>
        <time>2022-02-08T01:46:55Z</time>
      </trkpt>
      <trkpt lat="44.81177" lon="4.59582">
        <ele>311</ele>
        <time>2022-02-08T01:46:59Z</time>
      </trkpt>
      <trkpt lat="44.81176" lon="4.5957">
        <ele>309</ele>
        <time>2022-02-08T01:47:00Z</time>
      </trkpt>
      <trkpt lat="44.81171" lon="4.59563">
        <ele>309</ele>
        <time>2022-02-08T01:47:01Z</time>
      </trkpt>
      <trkpt lat="44.81166" lon="4.59563">
        <ele>311</ele>
        <time>2022-02-08T01:47:02Z</time>
      </trkpt>
      <trkpt lat="44.81126" lon="4.59609">
        <ele>332</ele>
        <time>2022-02-08T01:47:12Z</time>
      </trkpt>
      <trkpt lat="44.81095" lon="4.59638">
        <ele>346</ele>
        <time>2022-02-08T01:47:18Z</time>
      </trkpt>
      <trkpt lat="44.81073" lon="4.59656">
        <ele>356</ele>
        <time>2022-02-08T01:47:23Z</time>
      </trkpt>
      <trkpt lat="44.81063" lon="4.59658">
        <ele>360</ele>
        <time>2022-02-08T01:47:24Z</time>
      </trkpt>
      <trkpt lat="44.81056" lon="4.59651">
        <ele>362</ele>
        <time>2022-02-08T01:47:26Z</time>
      </trkpt>
      <trkpt lat="44.81056" lon="4.59637">
        <ele>359</ele>
        <time>2022-02-08T01:47:28Z</time>
      </trkpt>
      <trkpt lat="44.8107" lon="4.59538">
        <ele>333</ele>
        <time>2022-02-08T01:47:40Z</time>
      </trkpt>
      <trkpt lat="44.81068" lon="4.59514">
        <ele>330</ele>
        <time>2022-02-08T01:47:44Z</time>
      </trkpt>
      <trkpt lat="44.81057" lon="4.59498">
        <ele>331</ele>
        <time>2022-02-08T01:47:46Z</time>
      </trkpt>
      <trkpt lat="44.81041" lon="4.59493">
        <ele>337</ele>
        <time>2022-02-08T01:47:49Z</time>
      </trkpt>
      <trkpt lat="44.80977" lon="4.595">
        <ele>363</ele>
        <time>2022-02-08T01:48:01Z</time>
      </trkpt>
      <trkpt lat="44.80973" lon="4.59494">
        <ele>364</ele>
        <time>2022-02-08T01:48:02Z</time>
      </trkpt>
      <trkpt lat="44.8097" lon="4.59481">
        <ele>363</ele>
        <time>2022-02-08T01:48:03Z</time>
      </trkpt>
      <trkpt lat="44.80974" lon="4.59468">
        <ele>359</ele>
        <time>2022-02-08T01:48:05Z</time>
      </trkpt>
      <trkpt lat="44.80971" lon="4.59453">
        <ele>359</ele>
        <time>2022-02-08T01:48:07Z</time>
      </trkpt>
      <trkpt lat="44.8096" lon="4.59441">
        <ele>362</ele>
        <time>2022-02-08T01:48:10Z</time>
      </trkpt>
      <trkpt lat="44.80958" lon="4.59432">
        <ele>362</ele>
        <time>2022-02-08T01:48:11Z</time>
      </trkpt>
      <trkpt lat="44.80969" lon="4.59407">
        <ele>355</ele>
        <time>2022-02-08T01:48:15Z</time>
      </trkpt>
      <trkpt lat="44.80971" lon="4.59393">
        <ele>355</ele>
        <time>2022-02-08T01:48:16Z</time>
      </trkpt>
      <trkpt lat="44.80967" lon="4.59378">
        <ele>358</ele>
        <time>2022-02-08T01:48:18Z</time>
      </trkpt>
      <trkpt lat="44.80958" lon="4.59362">
        <ele>363</ele>
        <time>2022-02-08T01:48:21Z</time>
      </trkpt>
      <trkpt lat="44.80959" lon="4.59354">
        <ele>363</ele>
        <time>2022-02-08T01:48:22Z</time>
      </trkpt>
      <trkpt lat="44.80974" lon="4.59311">
        <ele>361</ele>
        <time>2022-02-08T01:48:28Z</time>
      </trkpt>
      <trkpt lat="44.80985" lon="4.59296">
        <ele>359</ele>
        <time>2022-02-08T01:48:31Z</time>
      </trkpt>
      <trkpt lat="44.80999" lon="4.59286">
        <ele>355</ele>
        <time>2022-02-08T01:48:34Z</time>
      </trkpt>
      <trkpt lat="44.81012" lon="4.59271">
        <ele>354</ele>
        <time>2022-02-08T01:48:37Z</time>
      </trkpt>
      <trkpt lat="44.81022" lon="4.59255">
        <ele>354</ele>
        <time>2022-02-08T01:48:39Z</time>
      </trkpt>
      <trkpt lat="44.81024" lon="4.5924">
        <ele>354</ele>
        <time>2022-02-08T01:48:41Z</time>
      </trkpt>
      <trkpt lat="44.81022" lon="4.59223">
        <ele>355</ele>
        <time>2022-02-08T01:48:43Z</time>
      </trkpt>
      <trkpt lat="44.81016" lon="4.59202">
        <ele>358</ele>
        <time>2022-02-08T01:48:46Z</time>
      </trkpt>
      <trkpt lat="44.81001" lon="4.59171">
        <ele>364</ele>
        <time>2022-02-08T01:48:51Z</time>
      </trkpt>
      <trkpt lat="44.8096" lon="4.59117">
        <ele>372</ele>
        <time>2022-02-08T01:49:01Z</time>
      </trkpt>
      <trkpt lat="44.80943" lon="4.59106">
        <ele>376</ele>
        <time>2022-02-08T01:49:04Z</time>
      </trkpt>
      <trkpt lat="44.80933" lon="4.59094">
        <ele>377</ele>
        <time>2022-02-08T01:49:07Z</time>
      </trkpt>
      <trkpt lat="44.80925" lon="4.59094">
        <ele>380</ele>
        <time>2022-02-08T01:49:08Z</time>
      </trkpt>
      <trkpt lat="44.80919" lon="4.59101">
        <ele>383</ele>
        <time>2022-02-08T01:49:09Z</time>
      </trkpt>
      <trkpt lat="44.8092" lon="4.59112">
        <ele>385</ele>
        <time>2022-02-08T01:49:11Z</time>
      </trkpt>
      <trkpt lat="44.80926" lon="4.59121">
        <ele>384</ele>
        <time>2022-02-08T01:49:12Z</time>
      </trkpt>
      <trkpt lat="44.80956" lon="4.59146">
        <ele>378</ele>
        <time>2022-02-08T01:49:19Z</time>
      </trkpt>
      <trkpt lat="44.80961" lon="4.59158">
        <ele>378</ele>
        <time>2022-02-08T01:49:20Z</time>
      </trkpt>
      <trkpt lat="44.80964" lon="4.59172">
        <ele>378</ele>
        <time>2022-02-08T01:49:22Z</time>
      </trkpt>
      <trkpt lat="44.80964" lon="4.5919">
        <ele>378</ele>
        <time>2022-02-08T01:49:24Z</time>
      </trkpt>
      <trkpt lat="44.80961" lon="4.59248">
        <ele>378</ele>
        <time>2022-02-08T01:49:32Z</time>
      </trkpt>
      <trkpt lat="44.80956" lon="4.59256">
        <ele>378</ele>
        <time>2022-02-08T01:49:33Z</time>
      </trkpt>
      <trkpt lat="44.80941" lon="4.59265">
        <ele>383</ele>
        <time>2022-02-08T01:49:36Z</time>
      </trkpt>
      <trkpt lat="44.80925" lon="4.59277">
        <ele>387</ele>
        <time>2022-02-08T01:49:39Z</time>
      </trkpt>
      <trkpt lat="44.80916" lon="4.59295">
        <ele>389</ele>
        <time>2022-02-08T01:49:42Z</time>
      </trkpt>
      <trkpt lat="44.80907" lon="4.59319">
        <ele>391</ele>
        <time>2022-02-08T01:49:45Z</time>
      </trkpt>
      <trkpt lat="44.80892" lon="4.5934">
        <ele>398</ele>
        <time>2022-02-08T01:49:49Z</time>
      </trkpt>
      <trkpt lat="44.8088" lon="4.5937">
        <ele>403</ele>
        <time>2022-02-08T01:49:54Z</time>
      </trkpt>
      <trkpt lat="44.80885" lon="4.59406">
        <ele>399</ele>
        <time>2022-02-08T01:49:58Z</time>
      </trkpt>
      <trkpt lat="44.80862" lon="4.59433">
        <ele>412</ele>
        <time>2022-02-08T01:50:04Z</time>
      </trkpt>
      <trkpt lat="44.80858" lon="4.5944">
        <ele>415</ele>
        <time>2022-02-08T01:50:05Z</time>
      </trkpt>
      <trkpt lat="44.80857" lon="4.59456">
        <ele>416</ele>
        <time>2022-02-08T01:50:07Z</time>
      </trkpt>
      <trkpt lat="44.80865" lon="4.59473">
        <ele>412</ele>
        <time>2022-02-08T01:50:09Z</time>
      </trkpt>
      <trkpt lat="44.80882" lon="4.59516">
        <ele>406</ele>
        <time>2022-02-08T01:50:15Z</time>
      </trkpt>
      <trkpt lat="44.80885" lon="4.59578">
        <ele>414</ele>
        <time>2022-02-08T01:50:23Z</time>
      </trkpt>
      <trkpt lat="44.80891" lon="4.59599">
        <ele>416</ele>
        <time>2022-02-08T01:50:26Z</time>
      </trkpt>
      <trkpt lat="44.80904" lon="4.59614">
        <ele>414</ele>
        <time>2022-02-08T01:50:29Z</time>
      </trkpt>
      <trkpt lat="44.80942" lon="4.59639">
        <ele>405</ele>
        <time>2022-02-08T01:50:37Z</time>
      </trkpt>
      <trkpt lat="44.80948" lon="4.59655">
        <ele>406</ele>
        <time>2022-02-08T01:50:39Z</time>
      </trkpt>
      <trkpt lat="44.80946" lon="4.59677">
        <ele>411</ele>
        <time>2022-02-08T01:50:42Z</time>
      </trkpt>
      <trkpt lat="44.80928" lon="4.59767">
        <ele>429</ele>
        <time>2022-02-08T01:50:54Z</time>
      </trkpt>
      <trkpt lat="44.80933" lon="4.59804">
        <ele>431</ele>
        <time>2022-02-08T01:50:58Z</time>
      </trkpt>
      <trkpt lat="44.80956" lon="4.59841">
        <ele>426</ele>
        <time>2022-02-08T01:51:04Z</time>
      </trkpt>
      <trkpt lat="44.80977" lon="4.59915">
        <ele>431</ele>
        <time>2022-02-08T01:51:15Z</time>
      </trkpt>
      <trkpt lat="44.81013" lon="4.59969">
        <ele>427</ele>
        <time>2022-02-08T01:51:24Z</time>
      </trkpt>
      <trkpt lat="44.81014" lon="4.59993">
        <ele>429</ele>
        <time>2022-02-08T01:51:27Z</time>
      </trkpt>
      <trkpt lat="44.81002" lon="4.60018">
        <ele>434</ele>
        <time>2022-02-08T01:51:31Z</time>
      </trkpt>
      <trkpt lat="44.80999" lon="4.60045">
        <ele>435</ele>
        <time>2022-02-08T01:51:34Z</time>
      </trkpt>
      <trkpt lat="44.81003" lon="4.60073">
        <ele>435</ele>
        <time>2022-02-08T01:51:38Z</time>
      </trkpt>
      <trkpt lat="44.81" lon="4.60104">
        <ele>436</ele>
        <time>2022-02-08T01:51:42Z</time>
      </trkpt>
      <trkpt lat="44.80988" lon="4.60142">
        <ele>438</ele>
        <time>2022-02-08T01:51:47Z</time>
      </trkpt>
      <trkpt lat="44.80991" lon="4.60181">
        <ele>440</ele>
        <time>2022-02-08T01:51:52Z</time>
      </trkpt>
      <trkpt lat="44.81" lon="4.60208">
        <ele>442</ele>
        <time>2022-02-08T01:51:56Z</time>
      </trkpt>
      <trkpt lat="44.81015" lon="4.60229">
        <ele>442</ele>
        <time>2022-02-08T01:51:59Z</time>
      </trkpt>
      <trkpt lat="44.81033" lon="4.60247">
        <ele>441</ele>
        <time>2022-02-08T01:52:03Z</time>
      </trkpt>
      <trkpt lat="44.81037" lon="4.60256">
        <ele>442</ele>
        <time>2022-02-08T01:52:05Z</time>
      </trkpt>
      <trkpt lat="44.81036" lon="4.60265">
        <ele>444</ele>
        <time>2022-02-08T01:52:06Z</time>
      </trkpt>
      <trkpt lat="44.81032" lon="4.60269">
        <ele>445</ele>
        <time>2022-02-08T01:52:07Z</time>
      </trkpt>
      <trkpt lat="44.81026" lon="4.6027">
        <ele>447</ele>
        <time>2022-02-08T01:52:08Z</time>
      </trkpt>
      <trkpt lat="44.81018" lon="4.60258">
        <ele>446</ele>
        <time>2022-02-08T01:52:10Z</time>
      </trkpt>
      <trkpt lat="44.81011" lon="4.6024">
        <ele>444</ele>
        <time>2022-02-08T01:52:13Z</time>
      </trkpt>
      <trkpt lat="44.80974" lon="4.60199">
        <ele>443</ele>
        <time>2022-02-08T01:52:21Z</time>
      </trkpt>
      <trkpt lat="44.80958" lon="4.60168">
        <ele>441</ele>
        <time>2022-02-08T01:52:26Z</time>
      </trkpt>
      <trkpt lat="44.80937" lon="4.60136">
        <ele>446</ele>
        <time>2022-02-08T01:52:31Z</time>
      </trkpt>
      <trkpt lat="44.80877" lon="4.60057">
        <ele>451</ele>
        <time>2022-02-08T01:52:46Z</time>
      </trkpt>
      <trkpt lat="44.80857" lon="4.60012">
        <ele>455</ele>
        <time>2022-02-08T01:52:53Z</time>
      </trkpt>
      <trkpt lat="44.80803" lon="4.59935">
        <ele>466</ele>
        <time>2022-02-08T01:53:06Z</time>
      </trkpt>
      <trkpt lat="44.80788" lon="4.59917">
        <ele>470</ele>
        <time>2022-02-08T01:53:10Z</time>
      </trkpt>
      <trkpt lat="44.80771" lon="4.59908">
        <ele>470</ele>
        <time>2022-02-08T01:53:13Z</time>
      </trkpt>
      <trkpt lat="44.80762" lon="4.59906">
        <ele>470</ele>
        <time>2022-02-08T01:53:15Z</time>
      </trkpt>
      <trkpt lat="44.80725" lon="4.59918">
        <ele>462</ele>
        <time>2022-02-08T01:53:21Z</time>
      </trkpt>
      <trkpt lat="44.80701" lon="4.59895">
        <ele>461</ele>
        <time>2022-02-08T01:53:27Z</time>
      </trkpt>
      <trkpt lat="44.80691" lon="4.59862">
        <ele>464</ele>
        <time>2022-02-08T01:53:31Z</time>
      </trkpt>
      <trkpt lat="44.80659" lon="4.59724">
        <ele>480</ele>
        <time>2022-02-08T01:53:49Z</time>
      </trkpt>
      <trkpt lat="44.80625" lon="4.59655">
        <ele>478</ele>
        <time>2022-02-08T01:54:00Z</time>
      </trkpt>
      <trkpt lat="44.80621" lon="4.59623">
        <ele>479</ele>
        <time>2022-02-08T01:54:04Z</time>
      </trkpt>
      <trkpt lat="44.80625" lon="4.59485">
        <ele>484</ele>
        <time>2022-02-08T01:54:22Z</time>
      </trkpt>
      <trkpt lat="44.80556" lon="4.59334">
        <ele>481</ele>
        <time>2022-02-08T01:54:44Z</time>
      </trkpt>
      <trkpt lat="44.80517" lon="4.59196">
        <ele>485</ele>
        <time>2022-02-08T01:55:03Z</time>
      </trkpt>
      <trkpt lat="44.80493" lon="4.59149">
        <ele>489</ele>
        <time>2022-02-08T01:55:10Z</time>
      </trkpt>
      <trkpt lat="44.80475" lon="4.5912">
        <ele>494</ele>
        <time>2022-02-08T01:55:15Z</time>
      </trkpt>
      <trkpt lat="44.80465" lon="4.59112">
        <ele>496</ele>
        <time>2022-02-08T01:55:17Z</time>
      </trkpt>
      <trkpt lat="44.8042" lon="4.59098">
        <ele>504</ele>
        <time>2022-02-08T01:55:25Z</time>
      </trkpt>
      <trkpt lat="44.80369" lon="4.59103">
        <ele>508</ele>
        <time>2022-02-08T01:55:34Z</time>
      </trkpt>
      <trkpt lat="44.80359" lon="4.59109">
        <ele>508</ele>
        <time>2022-02-08T01:55:36Z</time>
      </trkpt>
      <trkpt lat="44.80323" lon="4.59145">
        <ele>501</ele>
        <time>2022-02-08T01:55:44Z</time>
      </trkpt>
      <trkpt lat="44.80307" lon="4.5917">
        <ele>495</ele>
        <time>2022-02-08T01:55:48Z</time>
      </trkpt>
      <trkpt lat="44.80292" lon="4.59174">
        <ele>494</ele>
        <time>2022-02-08T01:55:51Z</time>
      </trkpt>
      <trkpt lat="44.8027" lon="4.59166">
        <ele>498</ele>
        <time>2022-02-08T01:55:55Z</time>
      </trkpt>
      <trkpt lat="44.80247" lon="4.59127">
        <ele>505</ele>
        <time>2022-02-08T01:56:02Z</time>
      </trkpt>
      <trkpt lat="44.80229" lon="4.59088">
        <ele>504</ele>
        <time>2022-02-08T01:56:08Z</time>
      </trkpt>
      <trkpt lat="44.80222" lon="4.59009">
        <ele>511</ele>
        <time>2022-02-08T01:56:18Z</time>
      </trkpt>
      <trkpt lat="44.80213" lon="4.58996">
        <ele>509</ele>
        <time>2022-02-08T01:56:20Z</time>
      </trkpt>
      <trkpt lat="44.80206" lon="4.58989">
        <ele>507</ele>
        <time>2022-02-08T01:56:21Z</time>
      </trkpt>
      <trkpt lat="44.80199" lon="4.58973">
        <ele>506</ele>
        <time>2022-02-08T01:56:24Z</time>
      </trkpt>
      <trkpt lat="44.80194" lon="4.58939">
        <ele>508</ele>
        <time>2022-02-08T01:56:28Z</time>
      </trkpt>
      <trkpt lat="44.80191" lon="4.58902">
        <ele>511</ele>
        <time>2022-02-08T01:56:33Z</time>
      </trkpt>
      <trkpt lat="44.80186" lon="4.58868">
        <ele>512</ele>
        <time>2022-02-08T01:56:37Z</time>
      </trkpt>
      <trkpt lat="44.80184" lon="4.5884">
        <ele>514</ele>
        <time>2022-02-08T01:56:41Z</time>
      </trkpt>
      <trkpt lat="44.80186" lon="4.58802">
        <ele>518</ele>
        <time>2022-02-08T01:56:46Z</time>
      </trkpt>
      <trkpt lat="44.8017" lon="4.58737">
        <ele>520</ele>
        <time>2022-02-08T01:56:54Z</time>
      </trkpt>
      <trkpt lat="44.80164" lon="4.58698">
        <ele>520</ele>
        <time>2022-02-08T01:56:59Z</time>
      </trkpt>
      <trkpt lat="44.80165" lon="4.58629">
        <ele>524</ele>
        <time>2022-02-08T01:57:08Z</time>
      </trkpt>
      <trkpt lat="44.80177" lon="4.58583">
        <ele>529</ele>
        <time>2022-02-08T01:57:14Z</time>
      </trkpt>
      <trkpt lat="44.8019" lon="4.58456">
        <ele>531</ele>
        <time>2022-02-08T01:57:30Z</time>
      </trkpt>
      <trkpt lat="44.8021" lon="4.58344">
        <ele>537</ele>
        <time>2022-02-08T01:57:45Z</time>
      </trkpt>
      <trkpt lat="44.80209" lon="4.58315">
        <ele>540</ele>
        <time>2022-02-08T01:57:49Z</time>
      </trkpt>
      <trkpt lat="44.80202" lon="4.58294">
        <ele>542</ele>
        <time>2022-02-08T01:57:52Z</time>
      </trkpt>
      <trkpt lat="44.80147" lon="4.58225">
        <ele>542</ele>
        <time>2022-02-08T01:58:05Z</time>
      </trkpt>
      <trkpt lat="44.80134" lon="4.58187">
        <ele>542</ele>
        <time>2022-02-08T01:58:10Z</time>
      </trkpt>
      <trkpt lat="44.80126" lon="4.58143">
        <ele>542</ele>
        <time>2022-02-08T01:58:16Z</time>
      </trkpt>
      <trkpt lat="44.80112" lon="4.58041">
        <ele>540</ele>
        <time>2022-02-08T01:58:29Z</time>
      </trkpt>
      <trkpt lat="44.80089" lon="4.5794">
        <ele>540</ele>
        <time>2022-02-08T01:58:42Z</time>
      </trkpt>
      <trkpt lat="44.80077" lon="4.57897">
        <ele>540</ele>
        <time>2022-02-08T01:58:48Z</time>
      </trkpt>
      <trkpt lat="44.8007" lon="4.57875">
        <ele>539</ele>
        <time>2022-02-08T01:58:51Z</time>
      </trkpt>
      <trkpt lat="44.80052" lon="4.57851">
        <ele>538</ele>
        <time>2022-02-08T01:58:56Z</time>
      </trkpt>
      <trkpt lat="44.80043" lon="4.57842">
        <ele>539</ele>
        <time>2022-02-08T01:58:58Z</time>
      </trkpt>
      <trkpt lat="44.79981" lon="4.57775">
        <ele>547</ele>
        <time>2022-02-08T01:59:11Z</time>
      </trkpt>
      <trkpt lat="44.7998" lon="4.57767">
        <ele>548</ele>
        <time>2022-02-08T01:59:12Z</time>
      </trkpt>
      <trkpt lat="44.7999" lon="4.57745">
        <ele>549</ele>
        <time>2022-02-08T01:59:16Z</time>
      </trkpt>
      <trkpt lat="44.79992" lon="4.57708">
        <ele>549</ele>
        <time>2022-02-08T01:59:20Z</time>
      </trkpt>
      <trkpt lat="44.79985" lon="4.57689">
        <ele>551</ele>
        <time>2022-02-08T01:59:23Z</time>
      </trkpt>
      <trkpt lat="44.79962" lon="4.57648">
        <ele>560</ele>
        <time>2022-02-08T01:59:30Z</time>
      </trkpt>
      <trkpt lat="44.79953" lon="4.57603">
        <ele>564</ele>
        <time>2022-02-08T01:59:36Z</time>
      </trkpt>
      <trkpt lat="44.79916" lon="4.57534">
        <ele>575</ele>
        <time>2022-02-08T01:59:47Z</time>
      </trkpt>
      <trkpt lat="44.7991" lon="4.57536">
        <ele>577</ele>
        <time>2022-02-08T01:59:48Z</time>
      </trkpt>
      <trkpt lat="44.79908" lon="4.5758">
        <ele>583</ele>
        <time>2022-02-08T01:59:53Z</time>
      </trkpt>
      <trkpt lat="44.79904" lon="4.57623">
        <ele>581</ele>
        <time>2022-02-08T01:59:59Z</time>
      </trkpt>
      <trkpt lat="44.79892" lon="4.57642">
        <ele>583</ele>
        <time>2022-02-08T02:00:02Z</time>
      </trkpt>
      <trkpt lat="44.79878" lon="4.5765">
        <ele>586</ele>
        <time>2022-02-08T02:00:05Z</time>
      </trkpt>
      <trkpt lat="44.79872" lon="4.57651">
        <ele>588</ele>
        <time>2022-02-08T02:00:06Z</time>
      </trkpt>
      <trkpt lat="44.79868" lon="4.57645">
        <ele>589</ele>
        <time>2022-02-08T02:00:07Z</time>
      </trkpt>
      <trkpt lat="44.79877" lon="4.57631">
        <ele>588</ele>
        <time>2022-02-08T02:00:09Z</time>
      </trkpt>
      <trkpt lat="44.79881" lon="4.5761">
        <ele>590</ele>
        <time>2022-02-08T02:00:12Z</time>
      </trkpt>
      <trkpt lat="44.79878" lon="4.57583">
        <ele>593</ele>
        <time>2022-02-08T02:00:15Z</time>
      </trkpt>
      <trkpt lat="44.79863" lon="4.57545">
        <ele>596</ele>
        <time>2022-02-08T02:00:21Z</time>
      </trkpt>
      <trkpt lat="44.79829" lon="4.57477">
        <ele>600</ele>
        <time>2022-02-08T02:00:31Z</time>
      </trkpt>
      <trkpt lat="44.79745" lon="4.57377">
        <ele>610</ele>
        <time>2022-02-08T02:00:51Z</time>
      </trkpt>
      <trkpt lat="44.79732" lon="4.57358">
        <ele>610</ele>
        <time>2022-02-08T02:00:54Z</time>
      </trkpt>
      <trkpt lat="44.79722" lon="4.57347">
        <ele>610</ele>
        <time>2022-02-08T02:00:56Z</time>
      </trkpt>
      <trkpt lat="44.79704" lon="4.57338">
        <ele>613</ele>
        <time>2022-02-08T02:01:00Z</time>
      </trkpt>
      <trkpt lat="44.79664" lon="4.57294">
        <ele>621</ele>
        <time>2022-02-08T02:01:09Z</time>
      </trkpt>
      <trkpt lat="44.79632" lon="4.57252">
        <ele>624</ele>
        <time>2022-02-08T02:01:17Z</time>
      </trkpt>
      <trkpt lat="44.79623" lon="4.57245">
        <ele>625</ele>
        <time>2022-02-08T02:01:18Z</time>
      </trkpt>
      <trkpt lat="44.79607" lon="4.57244">
        <ele>626</ele>
        <time>2022-02-08T02:01:21Z</time>
      </trkpt>
      <trkpt lat="44.79587" lon="4.57252">
        <ele>627</ele>
        <time>2022-02-08T02:01:25Z</time>
      </trkpt>
      <trkpt lat="44.7956" lon="4.57269">
        <ele>626</ele>
        <time>2022-02-08T02:01:30Z</time>
      </trkpt>
      <trkpt lat="44.79535" lon="4.57273">
        <ele>627</ele>
        <time>2022-02-08T02:01:35Z</time>
      </trkpt>
      <trkpt lat="44.79502" lon="4.57269">
        <ele>628</ele>
        <time>2022-02-08T02:01:41Z</time>
      </trkpt>
      <trkpt lat="44.79464" lon="4.57257">
        <ele>633</ele>
        <time>2022-02-08T02:01:48Z</time>
      </trkpt>
      <trkpt lat="44.79446" lon="4.57253">
        <ele>635</ele>
        <time>2022-02-08T02:01:51Z</time>
      </trkpt>
      <trkpt lat="44.79421" lon="4.57259">
        <ele>636</ele>
        <time>2022-02-08T02:01:55Z</time>
      </trkpt>
      <trkpt lat="44.7936" lon="4.57266">
        <ele>639</ele>
        <time>2022-02-08T02:02:06Z</time>
      </trkpt>
      <trkpt lat="44.79317" lon="4.57263">
        <ele>642</ele>
        <time>2022-02-08T02:02:14Z</time>
      </trkpt>
      <trkpt lat="44.79297" lon="4.57252">
        <ele>645</ele>
        <time>2022-02-08T02:02:18Z</time>
      </trkpt>
      <trkpt lat="44.79285" lon="4.57232">
        <ele>648</ele>
        <time>2022-02-08T02:02:21Z</time>
      </trkpt>
      <trkpt lat="44.79275" lon="4.57192">
        <ele>654</ele>
        <time>2022-02-08T02:02:26Z</time>
      </trkpt>
      <trkpt lat="44.79252" lon="4.57171">
        <ele>656</ele>
        <time>2022-02-08T02:02:31Z</time>
      </trkpt>
      <trkpt lat="44.79206" lon="4.57154">
        <ele>657</ele>
        <time>2022-02-08T02:02:40Z</time>
      </trkpt>
      <trkpt lat="44.79186" lon="4.57158">
        <ele>656</ele>
        <time>2022-02-08T02:02:43Z</time>
      </trkpt>
      <trkpt lat="44.79174" lon="4.57151">
        <ele>656</ele>
        <time>2022-02-08T02:02:46Z</time>
      </trkpt>
      <trkpt lat="44.7916" lon="4.57138">
        <ele>657</ele>
        <time>2022-02-08T02:02:49Z</time>
      </trkpt>
      <trkpt lat="44.79153" lon="4.57117">
        <ele>659</ele>
        <time>2022-02-08T02:02:52Z</time>
      </trkpt>
      <trkpt lat="44.79143" lon="4.57021">
        <ele>665</ele>
        <time>2022-02-08T02:03:04Z</time>
      </trkpt>
      <trkpt lat="44.7913" lon="4.56962">
        <ele>669</ele>
        <time>2022-02-08T02:03:12Z</time>
      </trkpt>
      <trkpt lat="44.79118" lon="4.56935">
        <ele>670</ele>
        <time>2022-02-08T02:03:16Z</time>
      </trkpt>
      <trkpt lat="44.79077" lon="4.5688">
        <ele>671</ele>
        <time>2022-02-08T02:03:26Z</time>
      </trkpt>
      <trkpt lat="44.79045" lon="4.56843">
        <ele>671</ele>
        <time>2022-02-08T02:03:33Z</time>
      </trkpt>
      <trkpt lat="44.79008" lon="4.56825">
        <ele>670</ele>
        <time>2022-02-08T02:03:40Z</time>
      </trkpt>
      <trkpt lat="44.79007" lon="4.56834">
        <ele>669</ele>
        <time>2022-02-08T02:03:41Z</time>
      </trkpt>
      <trkpt lat="44.78988" lon="4.56862">
        <ele>665</ele>
        <time>2022-02-08T02:03:46Z</time>
      </trkpt>
      <trkpt lat="44.78981" lon="4.56853">
        <ele>665</ele>
        <time>2022-02-08T02:03:48Z</time>
      </trkpt>
      <trkpt lat="44.78956" lon="4.56836">
        <ele>665</ele>
        <time>2022-02-08T02:03:53Z</time>
      </trkpt>
      <trkpt lat="44.7892" lon="4.568">
        <ele>665</ele>
        <time>2022-02-08T02:04:01Z</time>
      </trkpt>
      <trkpt lat="44.78918" lon="4.56766">
        <ele>667</ele>
        <time>2022-02-08T02:04:05Z</time>
      </trkpt>
      <trkpt lat="44.78908" lon="4.56741">
        <ele>667</ele>
        <time>2022-02-08T02:04:08Z</time>
      </trkpt>
      <trkpt lat="44.78883" lon="4.56697">
        <ele>666</ele>
        <time>2022-02-08T02:04:16Z</time>
      </trkpt>
      <trkpt lat="44.78875" lon="4.56668">
        <ele>666</ele>
        <time>2022-02-08T02:04:19Z</time>
      </trkpt>
      <trkpt lat="44.78872" lon="4.56637">
        <ele>666</ele>
        <time>2022-02-08T02:04:23Z</time>
      </trkpt>
      <trkpt lat="44.78827" lon="4.56466">
        <ele>662</ele>
        <time>2022-02-08T02:04:46Z</time>
      </trkpt>
      <trkpt lat="44.78805" lon="4.56446">
        <ele>662</ele>
        <time>2022-02-08T02:04:51Z</time>
      </trkpt>
      <trkpt lat="44.78761" lon="4.56424">
        <ele>662</ele>
        <time>2022-02-08T02:04:59Z</time>
      </trkpt>
      <trkpt lat="44.78773" lon="4.56386">
        <ele>661</ele>
        <time>2022-02-08T02:05:05Z</time>
      </trkpt>
      <trkpt lat="44.78774" lon="4.56359">
        <ele>661</ele>
        <time>2022-02-08T02:05:08Z</time>
      </trkpt>
      <trkpt lat="44.78768" lon="4.56318">
        <ele>660</ele>
        <time>2022-02-08T02:05:13Z</time>
      </trkpt>
      <trkpt lat="44.7876" lon="4.56236">
        <ele>657</ele>
        <time>2022-02-08T02:05:24Z</time>
      </trkpt>
      <trkpt lat="44.78742" lon="4.56159">
        <ele>652</ele>
        <time>2022-02-08T02:05:34Z</time>
      </trkpt>
      <trkpt lat="44.78733" lon="4.5611">
        <ele>645</ele>
        <time>2022-02-08T02:05:40Z</time>
      </trkpt>
      <trkpt lat="44.7872" lon="4.56099">
        <ele>644</ele>
        <time>2022-02-08T02:05:43Z</time>
      </trkpt>
      <trkpt lat="44.78697" lon="4.56089">
        <ele>646</ele>
        <time>2022-02-08T02:05:47Z</time>
      </trkpt>
      <trkpt lat="44.78683" lon="4.56079">
        <ele>646</ele>
        <time>2022-02-08T02:05:50Z</time>
      </trkpt>
      <trkpt lat="44.7867" lon="4.56064">
        <ele>645</ele>
        <time>2022-02-08T02:05:53Z</time>
      </trkpt>
      <trkpt lat="44.78652" lon="4.56037">
        <ele>639</ele>
        <time>2022-02-08T02:05:58Z</time>
      </trkpt>
      <trkpt lat="44.7867" lon="4.56064">
        <ele>645</ele>
        <time>2022-02-08T02:06:03Z</time>
      </trkpt>
      <trkpt lat="44.78683" lon="4.56079">
        <ele>646</ele>
        <time>2022-02-08T02:06:06Z</time>
      </trkpt>
      <trkpt lat="44.78697" lon="4.56089">
        <ele>646</ele>
        <time>2022-02-08T02:06:08Z</time>
      </trkpt>
      <trkpt lat="44.7872" lon="4.56099">
        <ele>644</ele>
        <time>2022-02-08T02:06:13Z</time>
      </trkpt>
      <trkpt lat="44.78733" lon="4.5611">
        <ele>645</ele>
        <time>2022-02-08T02:06:15Z</time>
      </trkpt>
      <trkpt lat="44.78742" lon="4.56159">
        <ele>652</ele>
        <time>2022-02-08T02:06:22Z</time>
      </trkpt>
      <trkpt lat="44.7876" lon="4.56236">
        <ele>657</ele>
        <time>2022-02-08T02:06:32Z</time>
      </trkpt>
      <trkpt lat="44.78768" lon="4.56318">
        <ele>660</ele>
        <time>2022-02-08T02:06:42Z</time>
      </trkpt>
      <trkpt lat="44.78774" lon="4.56359">
        <ele>661</ele>
        <time>2022-02-08T02:06:48Z</time>
      </trkpt>
      <trkpt lat="44.78773" lon="4.56386">
        <ele>661</ele>
        <time>2022-02-08T02:06:51Z</time>
      </trkpt>
      <trkpt lat="44.78761" lon="4.56424">
        <ele>662</ele>
        <time>2022-02-08T02:06:56Z</time>
      </trkpt>
      <trkpt lat="44.78663" lon="4.56588">
        <ele>659</ele>
        <time>2022-02-08T02:07:23Z</time>
      </trkpt>
      <trkpt lat="44.78645" lon="4.56615">
        <ele>661</ele>
        <time>2022-02-08T02:07:28Z</time>
      </trkpt>
      <trkpt lat="44.78568" lon="4.56692">
        <ele>666</ele>
        <time>2022-02-08T02:07:45Z</time>
      </trkpt>
      <trkpt lat="44.78553" lon="4.56701">
        <ele>668</ele>
        <time>2022-02-08T02:07:48Z</time>
      </trkpt>
      <trkpt lat="44.78519" lon="4.5671">
        <ele>673</ele>
        <time>2022-02-08T02:07:54Z</time>
      </trkpt>
      <trkpt lat="44.78497" lon="4.56721">
        <ele>676</ele>
        <time>2022-02-08T02:07:58Z</time>
      </trkpt>
      <trkpt lat="44.78481" lon="4.56738">
        <ele>677</ele>
        <time>2022-02-08T02:08:02Z</time>
      </trkpt>
      <trkpt lat="44.78417" lon="4.56846">
        <ele>682</ele>
        <time>2022-02-08T02:08:19Z</time>
      </trkpt>
      <trkpt lat="44.78389" lon="4.56917">
        <ele>683</ele>
        <time>2022-02-08T02:08:30Z</time>
      </trkpt>
      <trkpt lat="44.78374" lon="4.56944">
        <ele>683</ele>
        <time>2022-02-08T02:08:34Z</time>
      </trkpt>
      <trkpt lat="44.78356" lon="4.56955">
        <ele>683</ele>
        <time>2022-02-08T02:08:38Z</time>
      </trkpt>
      <trkpt lat="44.78328" lon="4.56956">
        <ele>685</ele>
        <time>2022-02-08T02:08:43Z</time>
      </trkpt>
      <trkpt lat="44.78221" lon="4.56943">
        <ele>691</ele>
        <time>2022-02-08T02:09:02Z</time>
      </trkpt>
      <trkpt lat="44.78205" lon="4.56946">
        <ele>691</ele>
        <time>2022-02-08T02:09:05Z</time>
      </trkpt>
      <trkpt lat="44.78163" lon="4.56982">
        <ele>687</ele>
        <time>2022-02-08T02:09:13Z</time>
      </trkpt>
      <trkpt lat="44.78146" lon="4.56986">
        <ele>685</ele>
        <time>2022-02-08T02:09:16Z</time>
      </trkpt>
      <trkpt lat="44.78118" lon="4.56987">
        <ele>684</ele>
        <time>2022-02-08T02:09:21Z</time>
      </trkpt>
      <trkpt lat="44.78087" lon="4.56979">
        <ele>684</ele>
        <time>2022-02-08T02:09:27Z</time>
      </trkpt>
      <trkpt lat="44.78043" lon="4.56946">
        <ele>682</ele>
        <time>2022-02-08T02:09:36Z</time>
      </trkpt>
      <trkpt lat="44.78018" lon="4.56921">
        <ele>682</ele>
        <time>2022-02-08T02:09:41Z</time>
      </trkpt>
      <trkpt lat="44.77997" lon="4.56887">
        <ele>684</ele>
        <time>2022-02-08T02:09:47Z</time>
      </trkpt>
      <trkpt lat="44.77934" lon="4.56796">
        <ele>687</ele>
        <time>2022-02-08T02:10:03Z</time>
      </trkpt>
      <trkpt lat="44.77877" lon="4.56771">
        <ele>685</ele>
        <time>2022-02-08T02:10:14Z</time>
      </trkpt>
      <trkpt lat="44.77834" lon="4.56746">
        <ele>686</ele>
        <time>2022-02-08T02:10:22Z</time>
      </trkpt>
      <trkpt lat="44.77818" lon="4.56738">
        <ele>689</ele>
        <time>2022-02-08T02:10:25Z</time>
      </trkpt>
      <trkpt lat="44.77807" lon="4.5674">
        <ele>689</ele>
        <time>2022-02-08T02:10:27Z</time>
      </trkpt>
      <trkpt lat="44.778" lon="4.56748">
        <ele>688</ele>
        <time>2022-02-08T02:10:29Z</time>
      </trkpt>
      <trkpt lat="44.77781" lon="4.56785">
        <ele>685</ele>
        <time>2022-02-08T02:10:34Z</time>
      </trkpt>
      <trkpt lat="44.77752" lon="4.56832">
        <ele>685</ele>
        <time>2022-02-08T02:10:42Z</time>
      </trkpt>
      <trkpt lat="44.77743" lon="4.56855">
        <ele>685</ele>
        <time>2022-02-08T02:10:45Z</time>
      </trkpt>
      <trkpt lat="44.77709" lon="4.56994">
        <ele>679</ele>
        <time>2022-02-08T02:11:04Z</time>
      </trkpt>
      <trkpt lat="44.77677" lon="4.57083">
        <ele>679</ele>
        <time>2022-02-08T02:11:17Z</time>
      </trkpt>
      <trkpt lat="44.77656" lon="4.57132">
        <ele>677</ele>
        <time>2022-02-08T02:11:24Z</time>
      </trkpt>
      <trkpt lat="44.77624" lon="4.57184">
        <ele>672</ele>
        <time>2022-02-08T02:11:33Z</time>
      </trkpt>
      <trkpt lat="44.77606" lon="4.57209">
        <ele>670</ele>
        <time>2022-02-08T02:11:37Z</time>
      </trkpt>
      <trkpt lat="44.77596" lon="4.57217">
        <ele>669</ele>
        <time>2022-02-08T02:11:39Z</time>
      </trkpt>
      <trkpt lat="44.77557" lon="4.57227">
        <ele>668</ele>
        <time>2022-02-08T02:11:46Z</time>
      </trkpt>
      <trkpt lat="44.77496" lon="4.5723">
        <ele>666</ele>
        <time>2022-02-08T02:11:57Z</time>
      </trkpt>
      <trkpt lat="44.77471" lon="4.57223">
        <ele>665</ele>
        <time>2022-02-08T02:12:02Z</time>
      </trkpt>
      <trkpt lat="44.77415" lon="4.57219">
        <ele>660</ele>
        <time>2022-02-08T02:12:12Z</time>
      </trkpt>
      <trkpt lat="44.77388" lon="4.57212">
        <ele>656</ele>
        <time>2022-02-08T02:12:16Z</time>
      </trkpt>
      <trkpt lat="44.77373" lon="4.57198">
        <ele>656</ele>
        <time>2022-02-08T02:12:20Z</time>
      </trkpt>
      <trkpt lat="44.77311" lon="4.57086">
        <ele>653</ele>
        <time>2022-02-08T02:12:38Z</time>
      </trkpt>
      <trkpt lat="44.77271" lon="4.56991">
        <ele>648</ele>
        <time>2022-02-08T02:12:51Z</time>
      </trkpt>
      <trkpt lat="44.77205" lon="4.56883">
        <ele>637</ele>
        <time>2022-02-08T02:13:09Z</time>
      </trkpt>
      <trkpt lat="44.77192" lon="4.56839">
        <ele>634</ele>
        <time>2022-02-08T02:13:16Z</time>
      </trkpt>
      <trkpt lat="44.7719" lon="4.56819">
        <ele>632</ele>
        <time>2022-02-08T02:13:18Z</time>
      </trkpt>
      <trkpt lat="44.772" lon="4.56744">
        <ele>629</ele>
        <time>2022-02-08T02:13:28Z</time>
      </trkpt>
      <trkpt lat="44.77214" lon="4.56721">
        <ele>630</ele>
        <time>2022-02-08T02:13:32Z</time>
      </trkpt>
      <trkpt lat="44.77231" lon="4.567">
        <ele>631</ele>
        <time>2022-02-08T02:13:36Z</time>
      </trkpt>
      <trkpt lat="44.77229" lon="4.56687">
        <ele>628</ele>
        <time>2022-02-08T02:13:37Z</time>
      </trkpt>
      <trkpt lat="44.77223" lon="4.56688">
        <ele>627</ele>
        <time>2022-02-08T02:13:38Z</time>
      </trkpt>
      <trkpt lat="44.77151" lon="4.5674">
        <ele>617</ele>
        <time>2022-02-08T02:13:53Z</time>
      </trkpt>
      <trkpt lat="44.77129" lon="4.56741">
        <ele>613</ele>
        <time>2022-02-08T02:13:57Z</time>
      </trkpt>
      <trkpt lat="44.76988" lon="4.56732">
        <ele>594</ele>
        <time>2022-02-08T02:14:22Z</time>
      </trkpt>
      <trkpt lat="44.76986" lon="4.56677">
        <ele>593</ele>
        <time>2022-02-08T02:14:29Z</time>
      </trkpt>
      <trkpt lat="44.76997" lon="4.56645">
        <ele>592</ele>
        <time>2022-02-08T02:14:33Z</time>
      </trkpt>
      <trkpt lat="44.77018" lon="4.56617">
        <ele>591</ele>
        <time>2022-02-08T02:14:38Z</time>
      </trkpt>
      <trkpt lat="44.77033" lon="4.56602">
        <ele>591</ele>
        <time>2022-02-08T02:14:42Z</time>
      </trkpt>
      <trkpt lat="44.77081" lon="4.56579">
        <ele>592</ele>
        <time>2022-02-08T02:14:51Z</time>
      </trkpt>
      <trkpt lat="44.77124" lon="4.56551">
        <ele>593</ele>
        <time>2022-02-08T02:14:59Z</time>
      </trkpt>
      <trkpt lat="44.77158" lon="4.56506">
        <ele>591</ele>
        <time>2022-02-08T02:15:07Z</time>
      </trkpt>
      <trkpt lat="44.7717" lon="4.56479">
        <ele>592</ele>
        <time>2022-02-08T02:15:11Z</time>
      </trkpt>
      <trkpt lat="44.77205" lon="4.56379">
        <ele>595</ele>
        <time>2022-02-08T02:15:25Z</time>
      </trkpt>
      <trkpt lat="44.77205" lon="4.56367">
        <ele>595</ele>
        <time>2022-02-08T02:15:27Z</time>
      </trkpt>
      <trkpt lat="44.772" lon="4.56349">
        <ele>595</ele>
        <time>2022-02-08T02:15:29Z</time>
      </trkpt>
      <trkpt lat="44.77195" lon="4.56345">
        <ele>595</ele>
        <time>2022-02-08T02:15:30Z</time>
      </trkpt>
      <trkpt lat="44.77184" lon="4.56349">
        <ele>594</ele>
        <time>2022-02-08T02:15:32Z</time>
      </trkpt>
      <trkpt lat="44.77172" lon="4.56365">
        <ele>592</ele>
        <time>2022-02-08T02:15:35Z</time>
      </trkpt>
      <trkpt lat="44.77133" lon="4.56439">
        <ele>588</ele>
        <time>2022-02-08T02:15:47Z</time>
      </trkpt>
      <trkpt lat="44.7712" lon="4.56451">
        <ele>587</ele>
        <time>2022-02-08T02:15:50Z</time>
      </trkpt>
      <trkpt lat="44.77087" lon="4.5646">
        <ele>584</ele>
        <time>2022-02-08T02:15:56Z</time>
      </trkpt>
      <trkpt lat="44.77007" lon="4.56463">
        <ele>578</ele>
        <time>2022-02-08T02:16:10Z</time>
      </trkpt>
      <trkpt lat="44.76962" lon="4.56463">
        <ele>573</ele>
        <time>2022-02-08T02:16:18Z</time>
      </trkpt>
      <trkpt lat="44.76949" lon="4.56458">
        <ele>571</ele>
        <time>2022-02-08T02:16:20Z</time>
      </trkpt>
      <trkpt lat="44.76944" lon="4.56452">
        <ele>571</ele>
        <time>2022-02-08T02:16:22Z</time>
      </trkpt>
      <trkpt lat="44.7694" lon="4.56442">
        <ele>571</ele>
        <time>2022-02-08T02:16:23Z</time>
      </trkpt>
      <trkpt lat="44.76947" lon="4.56397">
        <ele>573</ele>
        <time>2022-02-08T02:16:29Z</time>
      </trkpt>
      <trkpt lat="44.76948" lon="4.56381">
        <ele>574</ele>
        <time>2022-02-08T02:16:31Z</time>
      </trkpt>
      <trkpt lat="44.76945" lon="4.56359">
        <ele>575</ele>
        <time>2022-02-08T02:16:34Z</time>
      </trkpt>
      <trkpt lat="44.76942" lon="4.5635">
        <ele>575</ele>
        <time>2022-02-08T02:16:35Z</time>
      </trkpt>
      <trkpt lat="44.76938" lon="4.56341">
        <ele>575</ele>
        <time>2022-02-08T02:16:36Z</time>
      </trkpt>
      <trkpt lat="44.76924" lon="4.56336">
        <ele>576</ele>
        <time>2022-02-08T02:16:39Z</time>
      </trkpt>
      <trkpt lat="44.76909" lon="4.56343">
        <ele>576</ele>
        <time>2022-02-08T02:16:42Z</time>
      </trkpt>
      <trkpt lat="44.76882" lon="4.56375">
        <ele>577</ele>
        <time>2022-02-08T02:16:48Z</time>
      </trkpt>
      <trkpt lat="44.76854" lon="4.56418">
        <ele>576</ele>
        <time>2022-02-08T02:16:55Z</time>
      </trkpt>
      <trkpt lat="44.76834" lon="4.5647">
        <ele>572</ele>
        <time>2022-02-08T02:17:03Z</time>
      </trkpt>
      <trkpt lat="44.76816" lon="4.565">
        <ele>569</ele>
        <time>2022-02-08T02:17:08Z</time>
      </trkpt>
      <trkpt lat="44.76795" lon="4.56529">
        <ele>567</ele>
        <time>2022-02-08T02:17:13Z</time>
      </trkpt>
      <trkpt lat="44.76769" lon="4.56541">
        <ele>566</ele>
        <time>2022-02-08T02:17:18Z</time>
      </trkpt>
      <trkpt lat="44.76749" lon="4.56546">
        <ele>567</ele>
        <time>2022-02-08T02:17:22Z</time>
      </trkpt>
      <trkpt lat="44.76728" lon="4.5654">
        <ele>566</ele>
        <time>2022-02-08T02:17:25Z</time>
      </trkpt>
      <trkpt lat="44.76675" lon="4.56509">
        <ele>565</ele>
        <time>2022-02-08T02:17:36Z</time>
      </trkpt>
      <trkpt lat="44.76627" lon="4.56471">
        <ele>568</ele>
        <time>2022-02-08T02:17:45Z</time>
      </trkpt>
      <trkpt lat="44.76584" lon="4.56421">
        <ele>570</ele>
        <time>2022-02-08T02:17:55Z</time>
      </trkpt>
      <trkpt lat="44.76575" lon="4.5642">
        <ele>571</ele>
        <time>2022-02-08T02:17:57Z</time>
      </trkpt>
      <trkpt lat="44.7657" lon="4.56424">
        <ele>572</ele>
        <time>2022-02-08T02:17:58Z</time>
      </trkpt>
      <trkpt lat="44.76561" lon="4.5643">
        <ele>573</ele>
        <time>2022-02-08T02:18:00Z</time>
      </trkpt>
      <trkpt lat="44.76555" lon="4.56447">
        <ele>574</ele>
        <time>2022-02-08T02:18:02Z</time>
      </trkpt>
      <trkpt lat="44.76565" lon="4.56493">
        <ele>571</ele>
        <time>2022-02-08T02:18:08Z</time>
      </trkpt>
      <trkpt lat="44.76567" lon="4.56538">
        <ele>569</ele>
        <time>2022-02-08T02:18:14Z</time>
      </trkpt>
      <trkpt lat="44.76552" lon="4.56627">
        <ele>570</ele>
        <time>2022-02-08T02:18:25Z</time>
      </trkpt>
      <trkpt lat="44.76545" lon="4.56659">
        <ele>572</ele>
        <time>2022-02-08T02:18:30Z</time>
      </trkpt>
      <trkpt lat="44.76531" lon="4.56636">
        <ele>576</ele>
        <time>2022-02-08T02:18:33Z</time>
      </trkpt>
      <trkpt lat="44.76535" lon="4.56581">
        <ele>575</ele>
        <time>2022-02-08T02:18:40Z</time>
      </trkpt>
      <trkpt lat="44.76528" lon="4.56517">
        <ele>579</ele>
        <time>2022-02-08T02:18:49Z</time>
      </trkpt>
      <trkpt lat="44.76511" lon="4.56447">
        <ele>582</ele>
        <time>2022-02-08T02:18:58Z</time>
      </trkpt>
      <trkpt lat="44.76489" lon="4.56343">
        <ele>586</ele>
        <time>2022-02-08T02:19:12Z</time>
      </trkpt>
      <trkpt lat="44.76487" lon="4.56298">
        <ele>587</ele>
        <time>2022-02-08T02:19:17Z</time>
      </trkpt>
      <trkpt lat="44.7648" lon="4.56252">
        <ele>588</ele>
        <time>2022-02-08T02:19:23Z</time>
      </trkpt>
      <trkpt lat="44.76472" lon="4.56224">
        <ele>589</ele>
        <time>2022-02-08T02:19:27Z</time>
      </trkpt>
      <trkpt lat="44.76457" lon="4.56191">
        <ele>591</ele>
        <time>2022-02-08T02:19:32Z</time>
      </trkpt>
      <trkpt lat="44.76432" lon="4.5615">
        <ele>593</ele>
        <time>2022-02-08T02:19:39Z</time>
      </trkpt>
      <trkpt lat="44.76419" lon="4.56123">
        <ele>595</ele>
        <time>2022-02-08T02:19:43Z</time>
      </trkpt>
      <trkpt lat="44.76416" lon="4.56103">
        <ele>595</ele>
        <time>2022-02-08T02:19:46Z</time>
      </trkpt>
      <trkpt lat="44.76416" lon="4.56084">
        <ele>595</ele>
        <time>2022-02-08T02:19:48Z</time>
      </trkpt>
      <trkpt lat="44.76427" lon="4.55979">
        <ele>598</ele>
        <time>2022-02-08T02:20:01Z</time>
      </trkpt>
      <trkpt lat="44.76431" lon="4.55955">
        <ele>599</ele>
        <time>2022-02-08T02:20:05Z</time>
      </trkpt>
      <trkpt lat="44.7644" lon="4.55936">
        <ele>600</ele>
        <time>2022-02-08T02:20:07Z</time>
      </trkpt>
      <trkpt lat="44.76447" lon="4.55913">
        <ele>602</ele>
        <time>2022-02-08T02:20:11Z</time>
      </trkpt>
      <trkpt lat="44.76448" lon="4.55892">
        <ele>603</ele>
        <time>2022-02-08T02:20:13Z</time>
      </trkpt>
      <trkpt lat="44.76445" lon="4.55875">
        <ele>604</ele>
        <time>2022-02-08T02:20:15Z</time>
      </trkpt>
      <trkpt lat="44.76402" lon="4.5574">
        <ele>609</ele>
        <time>2022-02-08T02:20:34Z</time>
      </trkpt>
      <trkpt lat="44.76381" lon="4.55691">
        <ele>611</ele>
        <time>2022-02-08T02:20:41Z</time>
      </trkpt>
      <trkpt lat="44.76361" lon="4.5559">
        <ele>613</ele>
        <time>2022-02-08T02:20:55Z</time>
      </trkpt>
      <trkpt lat="44.76349" lon="4.55489">
        <ele>616</ele>
        <time>2022-02-08T02:21:08Z</time>
      </trkpt>
      <trkpt lat="44.76343" lon="4.55416">
        <ele>624</ele>
        <time>2022-02-08T02:21:17Z</time>
      </trkpt>
      <trkpt lat="44.76345" lon="4.55404">
        <ele>623</ele>
        <time>2022-02-08T02:21:18Z</time>
      </trkpt>
      <trkpt lat="44.76349" lon="4.55395">
        <ele>623</ele>
        <time>2022-02-08T02:21:20Z</time>
      </trkpt>
      <trkpt lat="44.76362" lon="4.55385">
        <ele>624</ele>
        <time>2022-02-08T02:21:22Z</time>
      </trkpt>
      <trkpt lat="44.76384" lon="4.55371">
        <ele>628</ele>
        <time>2022-02-08T02:21:27Z</time>
      </trkpt>
      <trkpt lat="44.76414" lon="4.55336">
        <ele>632</ele>
        <time>2022-02-08T02:21:34Z</time>
      </trkpt>
      <trkpt lat="44.76435" lon="4.55292">
        <ele>635</ele>
        <time>2022-02-08T02:21:40Z</time>
      </trkpt>
      <trkpt lat="44.76451" lon="4.5523">
        <ele>640</ele>
        <time>2022-02-08T02:21:49Z</time>
      </trkpt>
      <trkpt lat="44.76453" lon="4.55204">
        <ele>643</ele>
        <time>2022-02-08T02:21:52Z</time>
      </trkpt>
      <trkpt lat="44.76448" lon="4.55182">
        <ele>643</ele>
        <time>2022-02-08T02:21:55Z</time>
      </trkpt>
      <trkpt lat="44.76396" lon="4.55083">
        <ele>644</ele>
        <time>2022-02-08T02:22:10Z</time>
      </trkpt>
      <trkpt lat="44.76373" lon="4.55036">
        <ele>639</ele>
        <time>2022-02-08T02:22:18Z</time>
      </trkpt>
      <trkpt lat="44.76368" lon="4.55019">
        <ele>638</ele>
        <time>2022-02-08T02:22:20Z</time>
      </trkpt>
      <trkpt lat="44.76367" lon="4.55003">
        <ele>639</ele>
        <time>2022-02-08T02:22:22Z</time>
      </trkpt>
      <trkpt lat="44.76381" lon="4.5494">
        <ele>648</ele>
        <time>2022-02-08T02:22:30Z</time>
      </trkpt>
      <trkpt lat="44.76386" lon="4.54865">
        <ele>651</ele>
        <time>2022-02-08T02:22:40Z</time>
      </trkpt>
      <trkpt lat="44.76395" lon="4.54828">
        <ele>657</ele>
        <time>2022-02-08T02:22:45Z</time>
      </trkpt>
      <trkpt lat="44.76395" lon="4.54817">
        <ele>659</ele>
        <time>2022-02-08T02:22:46Z</time>
      </trkpt>
      <trkpt lat="44.76391" lon="4.54806">
        <ele>658</ele>
        <time>2022-02-08T02:22:48Z</time>
      </trkpt>
      <trkpt lat="44.7638" lon="4.54782">
        <ele>656</ele>
        <time>2022-02-08T02:22:51Z</time>
      </trkpt>
      <trkpt lat="44.76376" lon="4.54742">
        <ele>661</ele>
        <time>2022-02-08T02:22:56Z</time>
      </trkpt>
      <trkpt lat="44.76372" lon="4.54722">
        <ele>664</ele>
        <time>2022-02-08T02:22:59Z</time>
      </trkpt>
      <trkpt lat="44.76362" lon="4.54705">
        <ele>665</ele>
        <time>2022-02-08T02:23:02Z</time>
      </trkpt>
      <trkpt lat="44.76347" lon="4.5469">
        <ele>664</ele>
        <time>2022-02-08T02:23:05Z</time>
      </trkpt>
      <trkpt lat="44.76304" lon="4.54661">
        <ele>660</ele>
        <time>2022-02-08T02:23:14Z</time>
      </trkpt>
      <trkpt lat="44.76292" lon="4.54651">
        <ele>659</ele>
        <time>2022-02-08T02:23:16Z</time>
      </trkpt>
      <trkpt lat="44.76285" lon="4.54639">
        <ele>659</ele>
        <time>2022-02-08T02:23:18Z</time>
      </trkpt>
      <trkpt lat="44.7628" lon="4.54614">
        <ele>661</ele>
        <time>2022-02-08T02:23:21Z</time>
      </trkpt>
      <trkpt lat="44.76279" lon="4.54584">
        <ele>666</ele>
        <time>2022-02-08T02:23:25Z</time>
      </trkpt>
      <trkpt lat="44.76272" lon="4.54549">
        <ele>666</ele>
        <time>2022-02-08T02:23:30Z</time>
      </trkpt>
      <trkpt lat="44.76269" lon="4.54509">
        <ele>667</ele>
        <time>2022-02-08T02:23:35Z</time>
      </trkpt>
      <trkpt lat="44.76276" lon="4.54431">
        <ele>675</ele>
        <time>2022-02-08T02:23:45Z</time>
      </trkpt>
      <trkpt lat="44.76272" lon="4.5438">
        <ele>670</ele>
        <time>2022-02-08T02:23:51Z</time>
      </trkpt>
      <trkpt lat="44.76276" lon="4.54359">
        <ele>670</ele>
        <time>2022-02-08T02:23:54Z</time>
      </trkpt>
      <trkpt lat="44.76289" lon="4.54331">
        <ele>674</ele>
        <time>2022-02-08T02:23:58Z</time>
      </trkpt>
      <trkpt lat="44.76299" lon="4.5432">
        <ele>678</ele>
        <time>2022-02-08T02:24:00Z</time>
      </trkpt>
      <trkpt lat="44.76307" lon="4.54306">
        <ele>681</ele>
        <time>2022-02-08T02:24:03Z</time>
      </trkpt>
      <trkpt lat="44.76328" lon="4.54242">
        <ele>687</ele>
        <time>2022-02-08T02:24:12Z</time>
      </trkpt>
      <trkpt lat="44.7633" lon="4.54227">
        <ele>689</ele>
        <time>2022-02-08T02:24:14Z</time>
      </trkpt>
      <trkpt lat="44.76329" lon="4.54212">
        <ele>690</ele>
        <time>2022-02-08T02:24:15Z</time>
      </trkpt>
      <trkpt lat="44.76312" lon="4.54155">
        <ele>690</ele>
        <time>2022-02-08T02:24:23Z</time>
      </trkpt>
      <trkpt lat="44.76303" lon="4.54132">
        <ele>690</ele>
        <time>2022-02-08T02:24:27Z</time>
      </trkpt>
      <trkpt lat="44.76291" lon="4.54116">
        <ele>688</ele>
        <time>2022-02-08T02:24:29Z</time>
      </trkpt>
      <trkpt lat="44.76275" lon="4.54098">
        <ele>684</ele>
        <time>2022-02-08T02:24:33Z</time>
      </trkpt>
      <trkpt lat="44.76268" lon="4.54054">
        <ele>690</ele>
        <time>2022-02-08T02:24:39Z</time>
      </trkpt>
      <trkpt lat="44.76249" lon="4.54007">
        <ele>694</ele>
        <time>2022-02-08T02:24:46Z</time>
      </trkpt>
      <trkpt lat="44.7623" lon="4.53967">
        <ele>702</ele>
        <time>2022-02-08T02:24:52Z</time>
      </trkpt>
      <trkpt lat="44.76216" lon="4.53952">
        <ele>705</ele>
        <time>2022-02-08T02:24:55Z</time>
      </trkpt>
      <trkpt lat="44.76202" lon="4.53947">
        <ele>705</ele>
        <time>2022-02-08T02:24:57Z</time>
      </trkpt>
      <trkpt lat="44.76185" lon="4.53948">
        <ele>703</ele>
        <time>2022-02-08T02:25:00Z</time>
      </trkpt>
      <trkpt lat="44.76147" lon="4.53961">
        <ele>699</ele>
        <time>2022-02-08T02:25:07Z</time>
      </trkpt>
      <trkpt lat="44.76123" lon="4.53987">
        <ele>694</ele>
        <time>2022-02-08T02:25:13Z</time>
      </trkpt>
      <trkpt lat="44.76097" lon="4.54006">
        <ele>694</ele>
        <time>2022-02-08T02:25:18Z</time>
      </trkpt>
      <trkpt lat="44.76068" lon="4.54015">
        <ele>693</ele>
        <time>2022-02-08T02:25:23Z</time>
      </trkpt>
      <trkpt lat="44.76053" lon="4.54005">
        <ele>693</ele>
        <time>2022-02-08T02:25:26Z</time>
      </trkpt>
      <trkpt lat="44.76048" lon="4.53987">
        <ele>694</ele>
        <time>2022-02-08T02:25:29Z</time>
      </trkpt>
      <trkpt lat="44.76051" lon="4.53938">
        <ele>698</ele>
        <time>2022-02-08T02:25:35Z</time>
      </trkpt>
      <trkpt lat="44.76062" lon="4.53886">
        <ele>702</ele>
        <time>2022-02-08T02:25:42Z</time>
      </trkpt>
      <trkpt lat="44.76091" lon="4.538">
        <ele>709</ele>
        <time>2022-02-08T02:25:54Z</time>
      </trkpt>
      <trkpt lat="44.76116" lon="4.53671">
        <ele>714</ele>
        <time>2022-02-08T02:26:11Z</time>
      </trkpt>
      <trkpt lat="44.76125" lon="4.53643">
        <ele>714</ele>
        <time>2022-02-08T02:26:15Z</time>
      </trkpt>
      <trkpt lat="44.76138" lon="4.53626">
        <ele>715</ele>
        <time>2022-02-08T02:26:18Z</time>
      </trkpt>
      <trkpt lat="44.7615" lon="4.53621">
        <ele>716</ele>
        <time>2022-02-08T02:26:20Z</time>
      </trkpt>
      <trkpt lat="44.76158" lon="4.5362">
        <ele>718</ele>
        <time>2022-02-08T02:26:21Z</time>
      </trkpt>
      <trkpt lat="44.76187" lon="4.53633">
        <ele>726</ele>
        <time>2022-02-08T02:26:27Z</time>
      </trkpt>
      <trkpt lat="44.76206" lon="4.53636">
        <ele>730</ele>
        <time>2022-02-08T02:26:30Z</time>
      </trkpt>
      <trkpt lat="44.76212" lon="4.53633">
        <ele>731</ele>
        <time>2022-02-08T02:26:31Z</time>
      </trkpt>
      <trkpt lat="44.76219" lon="4.53621">
        <ele>732</ele>
        <time>2022-02-08T02:26:33Z</time>
      </trkpt>
      <trkpt lat="44.7622" lon="4.53612">
        <ele>731</ele>
        <time>2022-02-08T02:26:34Z</time>
      </trkpt>
      <trkpt lat="44.76206" lon="4.53544">
        <ele>727</ele>
        <time>2022-02-08T02:26:43Z</time>
      </trkpt>
      <trkpt lat="44.76201" lon="4.53483">
        <ele>727</ele>
        <time>2022-02-08T02:26:51Z</time>
      </trkpt>
      <trkpt lat="44.76216" lon="4.53394">
        <ele>733</ele>
        <time>2022-02-08T02:27:03Z</time>
      </trkpt>
      <trkpt lat="44.76235" lon="4.53335">
        <ele>737</ele>
        <time>2022-02-08T02:27:11Z</time>
      </trkpt>
      <trkpt lat="44.76262" lon="4.5326">
        <ele>738</ele>
        <time>2022-02-08T02:27:22Z</time>
      </trkpt>
      <trkpt lat="44.7628" lon="4.53239">
        <ele>740</ele>
        <time>2022-02-08T02:27:26Z</time>
      </trkpt>
      <trkpt lat="44.76326" lon="4.53207">
        <ele>746</ele>
        <time>2022-02-08T02:27:35Z</time>
      </trkpt>
      <trkpt lat="44.76343" lon="4.53186">
        <ele>747</ele>
        <time>2022-02-08T02:27:39Z</time>
      </trkpt>
      <trkpt lat="44.76352" lon="4.53172">
        <ele>748</ele>
        <time>2022-02-08T02:27:41Z</time>
      </trkpt>
      <trkpt lat="44.76355" lon="4.53153">
        <ele>749</ele>
        <time>2022-02-08T02:27:44Z</time>
      </trkpt>
      <trkpt lat="44.76355" lon="4.53106">
        <ele>750</ele>
        <time>2022-02-08T02:27:50Z</time>
      </trkpt>
      <trkpt lat="44.76373" lon="4.53069">
        <ele>754</ele>
        <time>2022-02-08T02:27:55Z</time>
      </trkpt>
      <trkpt lat="44.76379" lon="4.53024">
        <ele>757</ele>
        <time>2022-02-08T02:28:01Z</time>
      </trkpt>
      <trkpt lat="44.76394" lon="4.5298">
        <ele>759</ele>
        <time>2022-02-08T02:28:07Z</time>
      </trkpt>
      <trkpt lat="44.76416" lon="4.52928">
        <ele>757</ele>
        <time>2022-02-08T02:28:15Z</time>
      </trkpt>
      <trkpt lat="44.76418" lon="4.52899">
        <ele>755</ele>
        <time>2022-02-08T02:28:19Z</time>
      </trkpt>
      <trkpt lat="44.76415" lon="4.52875">
        <ele>756</ele>
        <time>2022-02-08T02:28:22Z</time>
      </trkpt>
      <trkpt lat="44.76415" lon="4.52853">
        <ele>755</ele>
        <time>2022-02-08T02:28:24Z</time>
      </trkpt>
      <trkpt lat="44.76421" lon="4.52829">
        <ele>754</ele>
        <time>2022-02-08T02:28:28Z</time>
      </trkpt>
      <trkpt lat="44.76429" lon="4.52809">
        <ele>755</ele>
        <time>2022-02-08T02:28:31Z</time>
      </trkpt>
      <trkpt lat="44.76439" lon="4.52794">
        <ele>754</ele>
        <time>2022-02-08T02:28:33Z</time>
      </trkpt>
      <trkpt lat="44.76449" lon="4.52785">
        <ele>753</ele>
        <time>2022-02-08T02:28:35Z</time>
      </trkpt>
      <trkpt lat="44.76472" lon="4.52752">
        <ele>751</ele>
        <time>2022-02-08T02:28:41Z</time>
      </trkpt>
      <trkpt lat="44.76488" lon="4.52744">
        <ele>748</ele>
        <time>2022-02-08T02:28:44Z</time>
      </trkpt>
      <trkpt lat="44.765" lon="4.52731">
        <ele>746</ele>
        <time>2022-02-08T02:28:47Z</time>
      </trkpt>
      <trkpt lat="44.76508" lon="4.52708">
        <ele>745</ele>
        <time>2022-02-08T02:28:50Z</time>
      </trkpt>
      <trkpt lat="44.76512" lon="4.52687">
        <ele>746</ele>
        <time>2022-02-08T02:28:53Z</time>
      </trkpt>
      <trkpt lat="44.76518" lon="4.52673">
        <ele>746</ele>
        <time>2022-02-08T02:28:55Z</time>
      </trkpt>
      <trkpt lat="44.7653" lon="4.52653">
        <ele>745</ele>
        <time>2022-02-08T02:28:58Z</time>
      </trkpt>
      <trkpt lat="44.76569" lon="4.52602">
        <ele>741</ele>
        <time>2022-02-08T02:29:08Z</time>
      </trkpt>
      <trkpt lat="44.76575" lon="4.52588">
        <ele>742</ele>
        <time>2022-02-08T02:29:10Z</time>
      </trkpt>
      <trkpt lat="44.76596" lon="4.52504">
        <ele>742</ele>
        <time>2022-02-08T02:29:21Z</time>
      </trkpt>
      <trkpt lat="44.7661" lon="4.52466">
        <ele>743</ele>
        <time>2022-02-08T02:29:26Z</time>
      </trkpt>
      <trkpt lat="44.76656" lon="4.5241">
        <ele>734</ele>
        <time>2022-02-08T02:29:37Z</time>
      </trkpt>
      <trkpt lat="44.76692" lon="4.52321">
        <ele>740</ele>
        <time>2022-02-08T02:29:50Z</time>
      </trkpt>
      <trkpt lat="44.76699" lon="4.52315">
        <ele>740</ele>
        <time>2022-02-08T02:29:52Z</time>
      </trkpt>
      <trkpt lat="44.76707" lon="4.52312">
        <ele>739</ele>
        <time>2022-02-08T02:29:53Z</time>
      </trkpt>
      <trkpt lat="44.76776" lon="4.52311">
        <ele>729</ele>
        <time>2022-02-08T02:30:05Z</time>
      </trkpt>
      <trkpt lat="44.76795" lon="4.52314">
        <ele>727</ele>
        <time>2022-02-08T02:30:09Z</time>
      </trkpt>
      <trkpt lat="44.76864" lon="4.52352">
        <ele>710</ele>
        <time>2022-02-08T02:30:22Z</time>
      </trkpt>
      <trkpt lat="44.76878" lon="4.52349">
        <ele>710</ele>
        <time>2022-02-08T02:30:24Z</time>
      </trkpt>
      <trkpt lat="44.76896" lon="4.52327">
        <ele>715</ele>
        <time>2022-02-08T02:30:29Z</time>
      </trkpt>
      <trkpt lat="44.76915" lon="4.52299">
        <ele>719</ele>
        <time>2022-02-08T02:30:34Z</time>
      </trkpt>
      <trkpt lat="44.76933" lon="4.52279">
        <ele>720</ele>
        <time>2022-02-08T02:30:38Z</time>
      </trkpt>
      <trkpt lat="44.76955" lon="4.52277">
        <ele>716</ele>
        <time>2022-02-08T02:30:42Z</time>
      </trkpt>
      <trkpt lat="44.76995" lon="4.52277">
        <ele>709</ele>
        <time>2022-02-08T02:30:49Z</time>
      </trkpt>
      <trkpt lat="44.77019" lon="4.52284">
        <ele>704</ele>
        <time>2022-02-08T02:30:53Z</time>
      </trkpt>
      <trkpt lat="44.77034" lon="4.52294">
        <ele>701</ele>
        <time>2022-02-08T02:30:56Z</time>
      </trkpt>
      <trkpt lat="44.77047" lon="4.52283">
        <ele>701</ele>
        <time>2022-02-08T02:30:59Z</time>
      </trkpt>
      <trkpt lat="44.77058" lon="4.52266">
        <ele>702</ele>
        <time>2022-02-08T02:31:02Z</time>
      </trkpt>
      <trkpt lat="44.77068" lon="4.52237">
        <ele>702</ele>
        <time>2022-02-08T02:31:06Z</time>
      </trkpt>
      <trkpt lat="44.77101" lon="4.52135">
        <ele>700</ele>
        <time>2022-02-08T02:31:20Z</time>
      </trkpt>
      <trkpt lat="44.77123" lon="4.52092">
        <ele>698</ele>
        <time>2022-02-08T02:31:27Z</time>
      </trkpt>
      <trkpt lat="44.77146" lon="4.52076">
        <ele>692</ele>
        <time>2022-02-08T02:31:31Z</time>
      </trkpt>
      <trkpt lat="44.77165" lon="4.52054">
        <ele>687</ele>
        <time>2022-02-08T02:31:35Z</time>
      </trkpt>
      <trkpt lat="44.77208" lon="4.52033">
        <ele>681</ele>
        <time>2022-02-08T02:31:44Z</time>
      </trkpt>
      <trkpt lat="44.77252" lon="4.52014">
        <ele>679</ele>
        <time>2022-02-08T02:31:52Z</time>
      </trkpt>
      <trkpt lat="44.77308" lon="4.5197">
        <ele>675</ele>
        <time>2022-02-08T02:32:03Z</time>
      </trkpt>
      <trkpt lat="44.77313" lon="4.51957">
        <ele>675</ele>
        <time>2022-02-08T02:32:05Z</time>
      </trkpt>
      <trkpt lat="44.77315" lon="4.51942">
        <ele>675</ele>
        <time>2022-02-08T02:32:07Z</time>
      </trkpt>
      <trkpt lat="44.77313" lon="4.51917">
        <ele>676</ele>
        <time>2022-02-08T02:32:10Z</time>
      </trkpt>
      <trkpt lat="44.77302" lon="4.51897">
        <ele>672</ele>
        <time>2022-02-08T02:32:13Z</time>
      </trkpt>
      <trkpt lat="44.77288" lon="4.51878">
        <ele>667</ele>
        <time>2022-02-08T02:32:17Z</time>
      </trkpt>
      <trkpt lat="44.7727" lon="4.51873">
        <ele>665</ele>
        <time>2022-02-08T02:32:20Z</time>
      </trkpt>
      <trkpt lat="44.77231" lon="4.51886">
        <ele>666</ele>
        <time>2022-02-08T02:32:27Z</time>
      </trkpt>
      <trkpt lat="44.77164" lon="4.51933">
        <ele>671</ele>
        <time>2022-02-08T02:32:41Z</time>
      </trkpt>
      <trkpt lat="44.77144" lon="4.51944">
        <ele>676</ele>
        <time>2022-02-08T02:32:44Z</time>
      </trkpt>
      <trkpt lat="44.77133" lon="4.51946">
        <ele>679</ele>
        <time>2022-02-08T02:32:46Z</time>
      </trkpt>
      <trkpt lat="44.77122" lon="4.5193">
        <ele>676</ele>
        <time>2022-02-08T02:32:49Z</time>
      </trkpt>
      <trkpt lat="44.77103" lon="4.51871">
        <ele>663</ele>
        <time>2022-02-08T02:32:57Z</time>
      </trkpt>
      <trkpt lat="44.77094" lon="4.51852">
        <ele>659</ele>
        <time>2022-02-08T02:33:00Z</time>
      </trkpt>
      <trkpt lat="44.77084" lon="4.51847">
        <ele>659</ele>
        <time>2022-02-08T02:33:02Z</time>
      </trkpt>
      <trkpt lat="44.7707" lon="4.51844">
        <ele>659</ele>
        <time>2022-02-08T02:33:05Z</time>
      </trkpt>
      <trkpt lat="44.77014" lon="4.51863">
        <ele>669</ele>
        <time>2022-02-08T02:33:15Z</time>
      </trkpt>
      <trkpt lat="44.76998" lon="4.5186">
        <ele>669</ele>
        <time>2022-02-08T02:33:18Z</time>
      </trkpt>
      <trkpt lat="44.76978" lon="4.5185">
        <ele>670</ele>
        <time>2022-02-08T02:33:21Z</time>
      </trkpt>
      <trkpt lat="44.76958" lon="4.51854">
        <ele>675</ele>
        <time>2022-02-08T02:33:25Z</time>
      </trkpt>
      <trkpt lat="44.76949" lon="4.51852">
        <ele>677</ele>
        <time>2022-02-08T02:33:27Z</time>
      </trkpt>
      <trkpt lat="44.76944" lon="4.51843">
        <ele>676</ele>
        <time>2022-02-08T02:33:28Z</time>
      </trkpt>
      <trkpt lat="44.76943" lon="4.51832">
        <ele>673</ele>
        <time>2022-02-08T02:33:30Z</time>
      </trkpt>
      <trkpt lat="44.76949" lon="4.51817">
        <ele>672</ele>
        <time>2022-02-08T02:33:32Z</time>
      </trkpt>
      <trkpt lat="44.76949" lon="4.5181">
        <ele>672</ele>
        <time>2022-02-08T02:33:33Z</time>
      </trkpt>
      <trkpt lat="44.76945" lon="4.51797">
        <ele>673</ele>
        <time>2022-02-08T02:33:34Z</time>
      </trkpt>
      <trkpt lat="44.76946" lon="4.5179">
        <ele>673</ele>
        <time>2022-02-08T02:33:35Z</time>
      </trkpt>
      <trkpt lat="44.76949" lon="4.5178">
        <ele>672</ele>
        <time>2022-02-08T02:33:37Z</time>
      </trkpt>
      <trkpt lat="44.77017" lon="4.51713">
        <ele>651</ele>
        <time>2022-02-08T02:33:51Z</time>
      </trkpt>
      <trkpt lat="44.77026" lon="4.51693">
        <ele>652</ele>
        <time>2022-02-08T02:33:54Z</time>
      </trkpt>
      <trkpt lat="44.77036" lon="4.51636">
        <ele>657</ele>
        <time>2022-02-08T02:34:02Z</time>
      </trkpt>
      <trkpt lat="44.77051" lon="4.51631">
        <ele>653</ele>
        <time>2022-02-08T02:34:05Z</time>
      </trkpt>
      <trkpt lat="44.77103" lon="4.51631">
        <ele>634</ele>
        <time>2022-02-08T02:34:14Z</time>
      </trkpt>
      <trkpt lat="44.77114" lon="4.51619">
        <ele>632</ele>
        <time>2022-02-08T02:34:16Z</time>
      </trkpt>
      <trkpt lat="44.77115" lon="4.51597">
        <ele>634</ele>
        <time>2022-02-08T02:34:19Z</time>
      </trkpt>
      <trkpt lat="44.77105" lon="4.51568">
        <ele>642</ele>
        <time>2022-02-08T02:34:23Z</time>
      </trkpt>
      <trkpt lat="44.77105" lon="4.51548">
        <ele>644</ele>
        <time>2022-02-08T02:34:26Z</time>
      </trkpt>
      <trkpt lat="44.77127" lon="4.51517">
        <ele>637</ele>
        <time>2022-02-08T02:34:31Z</time>
      </trkpt>
      <trkpt lat="44.77132" lon="4.51501">
        <ele>637</ele>
        <time>2022-02-08T02:34:33Z</time>
      </trkpt>
      <trkpt lat="44.7713" lon="4.51458">
        <ele>640</ele>
        <time>2022-02-08T02:34:39Z</time>
      </trkpt>
      <trkpt lat="44.77144" lon="4.51393">
        <ele>638</ele>
        <time>2022-02-08T02:34:47Z</time>
      </trkpt>
      <trkpt lat="44.77154" lon="4.51362">
        <ele>635</ele>
        <time>2022-02-08T02:34:52Z</time>
      </trkpt>
      <trkpt lat="44.77184" lon="4.5132">
        <ele>630</ele>
        <time>2022-02-08T02:34:59Z</time>
      </trkpt>
      <trkpt lat="44.772" lon="4.51286">
        <ele>627</ele>
        <time>2022-02-08T02:35:04Z</time>
      </trkpt>
      <trkpt lat="44.77197" lon="4.5127">
        <ele>626</ele>
        <time>2022-02-08T02:35:07Z</time>
      </trkpt>
      <trkpt lat="44.77158" lon="4.51227">
        <ele>622</ele>
        <time>2022-02-08T02:35:15Z</time>
      </trkpt>
      <trkpt lat="44.77127" lon="4.51188">
        <ele>618</ele>
        <time>2022-02-08T02:35:23Z</time>
      </trkpt>
      <trkpt lat="44.77104" lon="4.51166">
        <ele>615</ele>
        <time>2022-02-08T02:35:28Z</time>
      </trkpt>
      <trkpt lat="44.77078" lon="4.51184">
        <ele>625</ele>
        <time>2022-02-08T02:35:33Z</time>
      </trkpt>
      <trkpt lat="44.77061" lon="4.51179">
        <ele>629</ele>
        <time>2022-02-08T02:35:36Z</time>
      </trkpt>
      <trkpt lat="44.77056" lon="4.51172">
        <ele>629</ele>
        <time>2022-02-08T02:35:37Z</time>
      </trkpt>
      <trkpt lat="44.77048" lon="4.51142">
        <ele>627</ele>
        <time>2022-02-08T02:35:41Z</time>
      </trkpt>
      <trkpt lat="44.77044" lon="4.51022">
        <ele>613</ele>
        <time>2022-02-08T02:35:56Z</time>
      </trkpt>
      <trkpt lat="44.77035" lon="4.50985">
        <ele>612</ele>
        <time>2022-02-08T02:36:01Z</time>
      </trkpt>
      <trkpt lat="44.77011" lon="4.50945">
        <ele>615</ele>
        <time>2022-02-08T02:36:08Z</time>
      </trkpt>
      <trkpt lat="44.76965" lon="4.50887">
        <ele>607</ele>
        <time>2022-02-08T02:36:19Z</time>
      </trkpt>
      <trkpt lat="44.76947" lon="4.50877">
        <ele>606</ele>
        <time>2022-02-08T02:36:22Z</time>
      </trkpt>
      <trkpt lat="44.76915" lon="4.50878">
        <ele>609</ele>
        <time>2022-02-08T02:36:28Z</time>
      </trkpt>
      <trkpt lat="44.76895" lon="4.5089">
        <ele>609</ele>
        <time>2022-02-08T02:36:32Z</time>
      </trkpt>
      <trkpt lat="44.76847" lon="4.50957">
        <ele>616</ele>
        <time>2022-02-08T02:36:44Z</time>
      </trkpt>
      <trkpt lat="44.76836" lon="4.51003">
        <ele>626</ele>
        <time>2022-02-08T02:36:50Z</time>
      </trkpt>
      <trkpt lat="44.76824" lon="4.51019">
        <ele>630</ele>
        <time>2022-02-08T02:36:53Z</time>
      </trkpt>
      <trkpt lat="44.76813" lon="4.5102">
        <ele>631</ele>
        <time>2022-02-08T02:36:55Z</time>
      </trkpt>
      <trkpt lat="44.76809" lon="4.51017">
        <ele>631</ele>
        <time>2022-02-08T02:36:56Z</time>
      </trkpt>
      <trkpt lat="44.76797" lon="4.50994">
        <ele>628</ele>
        <time>2022-02-08T02:36:59Z</time>
      </trkpt>
      <trkpt lat="44.76784" lon="4.50983">
        <ele>628</ele>
        <time>2022-02-08T02:37:02Z</time>
      </trkpt>
      <trkpt lat="44.76761" lon="4.50981">
        <ele>631</ele>
        <time>2022-02-08T02:37:06Z</time>
      </trkpt>
      <trkpt lat="44.76753" lon="4.50973">
        <ele>632</ele>
        <time>2022-02-08T02:37:08Z</time>
      </trkpt>
      <trkpt lat="44.76754" lon="4.50954">
        <ele>630</ele>
        <time>2022-02-08T02:37:10Z</time>
      </trkpt>
      <trkpt lat="44.76771" lon="4.50882">
        <ele>619</ele>
        <time>2022-02-08T02:37:20Z</time>
      </trkpt>
      <trkpt lat="44.76769" lon="4.50867">
        <ele>619</ele>
        <time>2022-02-08T02:37:22Z</time>
      </trkpt>
      <trkpt lat="44.76775" lon="4.50765">
        <ele>606</ele>
        <time>2022-02-08T02:37:35Z</time>
      </trkpt>
      <trkpt lat="44.76773" lon="4.50743">
        <ele>603</ele>
        <time>2022-02-08T02:37:38Z</time>
      </trkpt>
      <trkpt lat="44.76767" lon="4.50729">
        <ele>601</ele>
        <time>2022-02-08T02:37:40Z</time>
      </trkpt>
      <trkpt lat="44.76755" lon="4.50721">
        <ele>603</ele>
        <time>2022-02-08T02:37:42Z</time>
      </trkpt>
      <trkpt lat="44.76746" lon="4.50722">
        <ele>606</ele>
        <time>2022-02-08T02:37:44Z</time>
      </trkpt>
      <trkpt lat="44.76717" lon="4.50734">
        <ele>612</ele>
        <time>2022-02-08T02:37:49Z</time>
      </trkpt>
      <trkpt lat="44.76679" lon="4.50735">
        <ele>617</ele>
        <time>2022-02-08T02:37:56Z</time>
      </trkpt>
      <trkpt lat="44.76638" lon="4.5074">
        <ele>619</ele>
        <time>2022-02-08T02:38:03Z</time>
      </trkpt>
      <trkpt lat="44.76612" lon="4.50755">
        <ele>622</ele>
        <time>2022-02-08T02:38:08Z</time>
      </trkpt>
      <trkpt lat="44.76569" lon="4.5083">
        <ele>644</ele>
        <time>2022-02-08T02:38:20Z</time>
      </trkpt>
      <trkpt lat="44.76519" lon="4.50869">
        <ele>650</ele>
        <time>2022-02-08T02:38:30Z</time>
      </trkpt>
      <trkpt lat="44.76471" lon="4.50911">
        <ele>660</ele>
        <time>2022-02-08T02:38:41Z</time>
      </trkpt>
      <trkpt lat="44.76454" lon="4.50923">
        <ele>662</ele>
        <time>2022-02-08T02:38:44Z</time>
      </trkpt>
      <trkpt lat="44.76428" lon="4.50921">
        <ele>660</ele>
        <time>2022-02-08T02:38:49Z</time>
      </trkpt>
      <trkpt lat="44.76415" lon="4.50914">
        <ele>657</ele>
        <time>2022-02-08T02:38:51Z</time>
      </trkpt>
      <trkpt lat="44.76404" lon="4.50917">
        <ele>660</ele>
        <time>2022-02-08T02:38:53Z</time>
      </trkpt>
      <trkpt lat="44.76392" lon="4.50924">
        <ele>665</ele>
        <time>2022-02-08T02:38:55Z</time>
      </trkpt>
      <trkpt lat="44.76382" lon="4.50923">
        <ele>666</ele>
        <time>2022-02-08T02:38:57Z</time>
      </trkpt>
      <trkpt lat="44.76375" lon="4.5091">
        <ele>666</ele>
        <time>2022-02-08T02:38:59Z</time>
      </trkpt>
      <trkpt lat="44.76377" lon="4.50896">
        <ele>666</ele>
        <time>2022-02-08T02:39:01Z</time>
      </trkpt>
      <trkpt lat="44.76392" lon="4.50874">
        <ele>661</ele>
        <time>2022-02-08T02:39:05Z</time>
      </trkpt>
      <trkpt lat="44.76401" lon="4.50856">
        <ele>657</ele>
        <time>2022-02-08T02:39:08Z</time>
      </trkpt>
      <trkpt lat="44.76408" lon="4.50831">
        <ele>653</ele>
        <time>2022-02-08T02:39:11Z</time>
      </trkpt>
      <trkpt lat="44.76408" lon="4.5081">
        <ele>653</ele>
        <time>2022-02-08T02:39:14Z</time>
      </trkpt>
      <trkpt lat="44.76403" lon="4.50785">
        <ele>656</ele>
        <time>2022-02-08T02:39:17Z</time>
      </trkpt>
      <trkpt lat="44.76402" lon="4.50762">
        <ele>657</ele>
        <time>2022-02-08T02:39:20Z</time>
      </trkpt>
      <trkpt lat="44.76396" lon="4.50742">
        <ele>659</ele>
        <time>2022-02-08T02:39:23Z</time>
      </trkpt>
      <trkpt lat="44.76386" lon="4.50727">
        <ele>661</ele>
        <time>2022-02-08T02:39:25Z</time>
      </trkpt>
      <trkpt lat="44.76371" lon="4.50718">
        <ele>665</ele>
        <time>2022-02-08T02:39:28Z</time>
      </trkpt>
      <trkpt lat="44.76353" lon="4.50717">
        <ele>670</ele>
        <time>2022-02-08T02:39:31Z</time>
      </trkpt>
      <trkpt lat="44.76346" lon="4.50708">
        <ele>672</ele>
        <time>2022-02-08T02:39:33Z</time>
      </trkpt>
      <trkpt lat="44.76334" lon="4.50654">
        <ele>669</ele>
        <time>2022-02-08T02:39:40Z</time>
      </trkpt>
      <trkpt lat="44.76319" lon="4.50631">
        <ele>670</ele>
        <time>2022-02-08T02:39:44Z</time>
      </trkpt>
      <trkpt lat="44.76302" lon="4.50617">
        <ele>673</ele>
        <time>2022-02-08T02:39:48Z</time>
      </trkpt>
      <trkpt lat="44.76288" lon="4.50615">
        <ele>676</ele>
        <time>2022-02-08T02:39:50Z</time>
      </trkpt>
      <trkpt lat="44.76254" lon="4.50616">
        <ele>685</ele>
        <time>2022-02-08T02:39:56Z</time>
      </trkpt>
      <trkpt lat="44.76246" lon="4.50607">
        <ele>687</ele>
        <time>2022-02-08T02:39:58Z</time>
      </trkpt>
      <trkpt lat="44.76245" lon="4.50594">
        <ele>685</ele>
        <time>2022-02-08T02:40:00Z</time>
      </trkpt>
      <trkpt lat="44.76246" lon="4.50579">
        <ele>684</ele>
        <time>2022-02-08T02:40:01Z</time>
      </trkpt>
      <trkpt lat="44.76257" lon="4.50562">
        <ele>683</ele>
        <time>2022-02-08T02:40:04Z</time>
      </trkpt>
      <trkpt lat="44.76262" lon="4.50546">
        <ele>684</ele>
        <time>2022-02-08T02:40:07Z</time>
      </trkpt>
      <trkpt lat="44.76262" lon="4.50524">
        <ele>686</ele>
        <time>2022-02-08T02:40:09Z</time>
      </trkpt>
      <trkpt lat="44.76266" lon="4.50512">
        <ele>687</ele>
        <time>2022-02-08T02:40:11Z</time>
      </trkpt>
      <trkpt lat="44.76275" lon="4.50502">
        <ele>685</ele>
        <time>2022-02-08T02:40:13Z</time>
      </trkpt>
      <trkpt lat="44.76295" lon="4.50491">
        <ele>681</ele>
        <time>2022-02-08T02:40:17Z</time>
      </trkpt>
      <trkpt lat="44.76304" lon="4.50483">
        <ele>680</ele>
        <time>2022-02-08T02:40:19Z</time>
      </trkpt>
      <trkpt lat="44.7631" lon="4.50473">
        <ele>680</ele>
        <time>2022-02-08T02:40:20Z</time>
      </trkpt>
      <trkpt lat="44.76314" lon="4.50456">
        <ele>681</ele>
        <time>2022-02-08T02:40:23Z</time>
      </trkpt>
      <trkpt lat="44.76314" lon="4.5044">
        <ele>684</ele>
        <time>2022-02-08T02:40:25Z</time>
      </trkpt>
      <trkpt lat="44.76302" lon="4.50373">
        <ele>697</ele>
        <time>2022-02-08T02:40:33Z</time>
      </trkpt>
      <trkpt lat="44.76307" lon="4.50356">
        <ele>698</ele>
        <time>2022-02-08T02:40:36Z</time>
      </trkpt>
      <trkpt lat="44.76314" lon="4.50338">
        <ele>699</ele>
        <time>2022-02-08T02:40:38Z</time>
      </trkpt>
      <trkpt lat="44.76322" lon="4.50337">
        <ele>698</ele>
        <time>2022-02-08T02:40:40Z</time>
      </trkpt>
      <trkpt lat="44.76335" lon="4.50342">
        <ele>695</ele>
        <time>2022-02-08T02:40:42Z</time>
      </trkpt>
      <trkpt lat="44.7635" lon="4.50343">
        <ele>693</ele>
        <time>2022-02-08T02:40:45Z</time>
      </trkpt>
      <trkpt lat="44.7636" lon="4.50339">
        <ele>692</ele>
        <time>2022-02-08T02:40:47Z</time>
      </trkpt>
      <trkpt lat="44.76371" lon="4.50322">
        <ele>694</ele>
        <time>2022-02-08T02:40:50Z</time>
      </trkpt>
      <trkpt lat="44.76409" lon="4.50274">
        <ele>700</ele>
        <time>2022-02-08T02:40:59Z</time>
      </trkpt>
      <trkpt lat="44.76432" lon="4.50261">
        <ele>698</ele>
        <time>2022-02-08T02:41:03Z</time>
      </trkpt>
      <trkpt lat="44.76444" lon="4.50247">
        <ele>698</ele>
        <time>2022-02-08T02:41:06Z</time>
      </trkpt>
      <trkpt lat="44.76455" lon="4.50226">
        <ele>701</ele>
        <time>2022-02-08T02:41:09Z</time>
      </trkpt>
      <trkpt lat="44.76465" lon="4.50193">
        <ele>706</ele>
        <time>2022-02-08T02:41:14Z</time>
      </trkpt>
      <trkpt lat="44.76474" lon="4.50146">
        <ele>712</ele>
        <time>2022-02-08T02:41:20Z</time>
      </trkpt>
      <trkpt lat="44.7648" lon="4.50138">
        <ele>712</ele>
        <time>2022-02-08T02:41:21Z</time>
      </trkpt>
      <trkpt lat="44.7649" lon="4.50136">
        <ele>710</ele>
        <time>2022-02-08T02:41:23Z</time>
      </trkpt>
      <trkpt lat="44.76521" lon="4.5014">
        <ele>703</ele>
        <time>2022-02-08T02:41:29Z</time>
      </trkpt>
      <trkpt lat="44.76528" lon="4.50133">
        <ele>703</ele>
        <time>2022-02-08T02:41:30Z</time>
      </trkpt>
      <trkpt lat="44.7653" lon="4.50118">
        <ele>704</ele>
        <time>2022-02-08T02:41:32Z</time>
      </trkpt>
      <trkpt lat="44.7653" lon="4.50041">
        <ele>712</ele>
        <time>2022-02-08T02:41:42Z</time>
      </trkpt>
      <trkpt lat="44.76526" lon="4.50031">
        <ele>713</ele>
        <time>2022-02-08T02:41:43Z</time>
      </trkpt>
      <trkpt lat="44.76518" lon="4.50029">
        <ele>713</ele>
        <time>2022-02-08T02:41:45Z</time>
      </trkpt>
      <trkpt lat="44.76481" lon="4.50022">
        <ele>714</ele>
        <time>2022-02-08T02:41:51Z</time>
      </trkpt>
      <trkpt lat="44.76423" lon="4.50008">
        <ele>715</ele>
        <time>2022-02-08T02:42:02Z</time>
      </trkpt>
      <trkpt lat="44.76346" lon="4.49976">
        <ele>706</ele>
        <time>2022-02-08T02:42:16Z</time>
      </trkpt>
      <trkpt lat="44.76319" lon="4.49985">
        <ele>709</ele>
        <time>2022-02-08T02:42:21Z</time>
      </trkpt>
      <trkpt lat="44.76256" lon="4.50028">
        <ele>715</ele>
        <time>2022-02-08T02:42:34Z</time>
      </trkpt>
      <trkpt lat="44.76233" lon="4.5003">
        <ele>714</ele>
        <time>2022-02-08T02:42:38Z</time>
      </trkpt>
      <trkpt lat="44.76208" lon="4.50005">
        <ele>707</ele>
        <time>2022-02-08T02:42:43Z</time>
      </trkpt>
      <trkpt lat="44.76203" lon="4.5">
        <ele>706</ele>
        <time>2022-02-08T02:42:44Z</time>
      </trkpt>
      <trkpt lat="44.76179" lon="4.50002">
        <ele>704</ele>
        <time>2022-02-08T02:42:49Z</time>
      </trkpt>
      <trkpt lat="44.76148" lon="4.50031">
        <ele>707</ele>
        <time>2022-02-08T02:42:55Z</time>
      </trkpt>
      <trkpt lat="44.76133" lon="4.50039">
        <ele>708</ele>
        <time>2022-02-08T02:42:58Z</time>
      </trkpt>
      <trkpt lat="44.76094" lon="4.50018">
        <ele>702</ele>
        <time>2022-02-08T02:43:05Z</time>
      </trkpt>
      <trkpt lat="44.76014" lon="4.50003">
        <ele>701</ele>
        <time>2022-02-08T02:43:20Z</time>
      </trkpt>
      <trkpt lat="44.75991" lon="4.50001">
        <ele>700</ele>
        <time>2022-02-08T02:43:24Z</time>
      </trkpt>
      <trkpt lat="44.75914" lon="4.50053">
        <ele>715</ele>
        <time>2022-02-08T02:43:39Z</time>
      </trkpt>
      <trkpt lat="44.75892" lon="4.50054">
        <ele>717</ele>
        <time>2022-02-08T02:43:43Z</time>
      </trkpt>
      <trkpt lat="44.75882" lon="4.50034">
        <ele>715</ele>
        <time>2022-02-08T02:43:46Z</time>
      </trkpt>
      <trkpt lat="44.75855" lon="4.49775">
        <ele>709</ele>
        <time>2022-02-08T02:44:19Z</time>
      </trkpt>
      <trkpt lat="44.7583" lon="4.49628">
        <ele>710</ele>
        <time>2022-02-08T02:44:38Z</time>
      </trkpt>
      <trkpt lat="44.75835" lon="4.49589">
        <ele>708</ele>
        <time>2022-02-08T02:44:43Z</time>
      </trkpt>
      <trkpt lat="44.75849" lon="4.49506">
        <ele>701</ele>
        <time>2022-02-08T02:44:54Z</time>
      </trkpt>
      <trkpt lat="44.75847" lon="4.49454">
        <ele>699</ele>
        <time>2022-02-08T02:45:01Z</time>
      </trkpt>
      <trkpt lat="44.75839" lon="4.49426">
        <ele>699</ele>
        <time>2022-02-08T02:45:04Z</time>
      </trkpt>
      <trkpt lat="44.75778" lon="4.4936">
        <ele>696</ele>
        <time>2022-02-08T02:45:18Z</time>
      </trkpt>
      <trkpt lat="44.75751" lon="4.49361">
        <ele>698</ele>
        <time>2022-02-08T02:45:23Z</time>
      </trkpt>
      <trkpt lat="44.75673" lon="4.49365">
        <ele>695</ele>
        <time>2022-02-08T02:45:37Z</time>
      </trkpt>
      <trkpt lat="44.75649" lon="4.4938">
        <ele>700</ele>
        <time>2022-02-08T02:45:41Z</time>
      </trkpt>
      <trkpt lat="44.75625" lon="4.49382">
        <ele>702</ele>
        <time>2022-02-08T02:45:46Z</time>
      </trkpt>
      <trkpt lat="44.75586" lon="4.49354">
        <ele>694</ele>
        <time>2022-02-08T02:45:54Z</time>
      </trkpt>
      <trkpt lat="44.75558" lon="4.49344">
        <ele>692</ele>
        <time>2022-02-08T02:45:59Z</time>
      </trkpt>
      <trkpt lat="44.7553" lon="4.49349">
        <ele>695</ele>
        <time>2022-02-08T02:46:04Z</time>
      </trkpt>
      <trkpt lat="44.75499" lon="4.4937">
        <ele>703</ele>
        <time>2022-02-08T02:46:10Z</time>
      </trkpt>
      <trkpt lat="44.75476" lon="4.49378">
        <ele>711</ele>
        <time>2022-02-08T02:46:14Z</time>
      </trkpt>
      <trkpt lat="44.7546" lon="4.4937">
        <ele>714</ele>
        <time>2022-02-08T02:46:17Z</time>
      </trkpt>
      <trkpt lat="44.75456" lon="4.49347">
        <ele>712</ele>
        <time>2022-02-08T02:46:20Z</time>
      </trkpt>
      <trkpt lat="44.75463" lon="4.49279">
        <ele>701</ele>
        <time>2022-02-08T02:46:29Z</time>
      </trkpt>
      <trkpt lat="44.75462" lon="4.49249">
        <ele>699</ele>
        <time>2022-02-08T02:46:33Z</time>
      </trkpt>
      <trkpt lat="44.75453" lon="4.49235">
        <ele>699</ele>
        <time>2022-02-08T02:46:35Z</time>
      </trkpt>
      <trkpt lat="44.75392" lon="4.49215">
        <ele>705</ele>
        <time>2022-02-08T02:46:46Z</time>
      </trkpt>
      <trkpt lat="44.75297" lon="4.49232">
        <ele>711</ele>
        <time>2022-02-08T02:47:03Z</time>
      </trkpt>
      <trkpt lat="44.75264" lon="4.49265">
        <ele>717</ele>
        <time>2022-02-08T02:47:10Z</time>
      </trkpt>
      <trkpt lat="44.75193" lon="4.49307">
        <ele>728</ele>
        <time>2022-02-08T02:47:24Z</time>
      </trkpt>
      <trkpt lat="44.75181" lon="4.49307">
        <ele>728</ele>
        <time>2022-02-08T02:47:26Z</time>
      </trkpt>
      <trkpt lat="44.75172" lon="4.49297">
        <ele>726</ele>
        <time>2022-02-08T02:47:28Z</time>
      </trkpt>
      <trkpt lat="44.75164" lon="4.49275">
        <ele>723</ele>
        <time>2022-02-08T02:47:31Z</time>
      </trkpt>
      <trkpt lat="44.75145" lon="4.49237">
        <ele>726</ele>
        <time>2022-02-08T02:47:37Z</time>
      </trkpt>
      <trkpt lat="44.75138" lon="4.49214">
        <ele>729</ele>
        <time>2022-02-08T02:47:40Z</time>
      </trkpt>
      <trkpt lat="44.75157" lon="4.49128">
        <ele>725</ele>
        <time>2022-02-08T02:47:52Z</time>
      </trkpt>
      <trkpt lat="44.75188" lon="4.49067">
        <ele>719</ele>
        <time>2022-02-08T02:48:01Z</time>
      </trkpt>
      <trkpt lat="44.75191" lon="4.49043">
        <ele>719</ele>
        <time>2022-02-08T02:48:04Z</time>
      </trkpt>
      <trkpt lat="44.7518" lon="4.49029">
        <ele>722</ele>
        <time>2022-02-08T02:48:07Z</time>
      </trkpt>
      <trkpt lat="44.75139" lon="4.48992">
        <ele>733</ele>
        <time>2022-02-08T02:48:16Z</time>
      </trkpt>
      <trkpt lat="44.75128" lon="4.48952">
        <ele>736</ele>
        <time>2022-02-08T02:48:21Z</time>
      </trkpt>
      <trkpt lat="44.75139" lon="4.48897">
        <ele>734</ele>
        <time>2022-02-08T02:48:28Z</time>
      </trkpt>
      <trkpt lat="44.75157" lon="4.48868">
        <ele>732</ele>
        <time>2022-02-08T02:48:33Z</time>
      </trkpt>
      <trkpt lat="44.75175" lon="4.48847">
        <ele>731</ele>
        <time>2022-02-08T02:48:37Z</time>
      </trkpt>
      <trkpt lat="44.75195" lon="4.48814">
        <ele>727</ele>
        <time>2022-02-08T02:48:43Z</time>
      </trkpt>
      <trkpt lat="44.75195" lon="4.48799">
        <ele>727</ele>
        <time>2022-02-08T02:48:45Z</time>
      </trkpt>
      <trkpt lat="44.75193" lon="4.48783">
        <ele>727</ele>
        <time>2022-02-08T02:48:47Z</time>
      </trkpt>
      <trkpt lat="44.75186" lon="4.48766">
        <ele>728</ele>
        <time>2022-02-08T02:48:49Z</time>
      </trkpt>
      <trkpt lat="44.75179" lon="4.48762">
        <ele>728</ele>
        <time>2022-02-08T02:48:50Z</time>
      </trkpt>
      <trkpt lat="44.75169" lon="4.48764">
        <ele>730</ele>
        <time>2022-02-08T02:48:52Z</time>
      </trkpt>
      <trkpt lat="44.75156" lon="4.48788">
        <ele>733</ele>
        <time>2022-02-08T02:48:56Z</time>
      </trkpt>
      <trkpt lat="44.75155" lon="4.4879">
        <ele>733</ele>
        <time>2022-02-08T02:48:56Z</time>
      </trkpt>
      <trkpt lat="44.75104" lon="4.48781">
        <ele>736</ele>
        <time>2022-02-08T02:49:06Z</time>
      </trkpt>
      <trkpt lat="44.75077" lon="4.48773">
        <ele>739</ele>
        <time>2022-02-08T02:49:10Z</time>
      </trkpt>
      <trkpt lat="44.75046" lon="4.48752">
        <ele>745</ele>
        <time>2022-02-08T02:49:17Z</time>
      </trkpt>
      <trkpt lat="44.75025" lon="4.48728">
        <ele>750</ele>
        <time>2022-02-08T02:49:21Z</time>
      </trkpt>
      <trkpt lat="44.7502" lon="4.48708">
        <ele>749</ele>
        <time>2022-02-08T02:49:24Z</time>
      </trkpt>
      <trkpt lat="44.75023" lon="4.48681">
        <ele>744</ele>
        <time>2022-02-08T02:49:28Z</time>
      </trkpt>
      <trkpt lat="44.75015" lon="4.4865">
        <ele>745</ele>
        <time>2022-02-08T02:49:32Z</time>
      </trkpt>
      <trkpt lat="44.75004" lon="4.48623">
        <ele>747</ele>
        <time>2022-02-08T02:49:36Z</time>
      </trkpt>
      <trkpt lat="44.74998" lon="4.48613">
        <ele>748</ele>
        <time>2022-02-08T02:49:37Z</time>
      </trkpt>
      <trkpt lat="44.74992" lon="4.48567">
        <ele>744</ele>
        <time>2022-02-08T02:49:43Z</time>
      </trkpt>
      <trkpt lat="44.74985" lon="4.4855">
        <ele>743</ele>
        <time>2022-02-08T02:49:46Z</time>
      </trkpt>
      <trkpt lat="44.74965" lon="4.48545">
        <ele>746</ele>
        <time>2022-02-08T02:49:49Z</time>
      </trkpt>
      <trkpt lat="44.74875" lon="4.48567">
        <ele>766</ele>
        <time>2022-02-08T02:50:06Z</time>
      </trkpt>
      <trkpt lat="44.74859" lon="4.48558">
        <ele>767</ele>
        <time>2022-02-08T02:50:09Z</time>
      </trkpt>
      <trkpt lat="44.74818" lon="4.48438">
        <ele>763</ele>
        <time>2022-02-08T02:50:25Z</time>
      </trkpt>
      <trkpt lat="44.74806" lon="4.48344">
        <ele>762</ele>
        <time>2022-02-08T02:50:38Z</time>
      </trkpt>
      <trkpt lat="44.74781" lon="4.48238">
        <ele>763</ele>
        <time>2022-02-08T02:50:52Z</time>
      </trkpt>
      <trkpt lat="44.74751" lon="4.48167">
        <ele>765</ele>
        <time>2022-02-08T02:51:02Z</time>
      </trkpt>
      <trkpt lat="44.74718" lon="4.48128">
        <ele>760</ele>
        <time>2022-02-08T02:51:10Z</time>
      </trkpt>
      <trkpt lat="44.7468" lon="4.48131">
        <ele>765</ele>
        <time>2022-02-08T02:51:17Z</time>
      </trkpt>
      <trkpt lat="44.74592" lon="4.48167">
        <ele>774</ele>
        <time>2022-02-08T02:51:33Z</time>
      </trkpt>
      <trkpt lat="44.74558" lon="4.48189">
        <ele>779</ele>
        <time>2022-02-08T02:51:39Z</time>
      </trkpt>
      <trkpt lat="44.74538" lon="4.48186">
        <ele>778</ele>
        <time>2022-02-08T02:51:43Z</time>
      </trkpt>
      <trkpt lat="44.74497" lon="4.4816">
        <ele>772</ele>
        <time>2022-02-08T02:51:51Z</time>
      </trkpt>
      <trkpt lat="44.74471" lon="4.48164">
        <ele>776</ele>
        <time>2022-02-08T02:51:56Z</time>
      </trkpt>
      <trkpt lat="44.7444" lon="4.48181">
        <ele>783</ele>
        <time>2022-02-08T02:52:02Z</time>
      </trkpt>
      <trkpt lat="44.74413" lon="4.4818">
        <ele>786</ele>
        <time>2022-02-08T02:52:06Z</time>
      </trkpt>
      <trkpt lat="44.74377" lon="4.48166">
        <ele>788</ele>
        <time>2022-02-08T02:52:13Z</time>
      </trkpt>
      <trkpt lat="44.74345" lon="4.48144">
        <ele>788</ele>
        <time>2022-02-08T02:52:19Z</time>
      </trkpt>
      <trkpt lat="44.74327" lon="4.48111">
        <ele>782</ele>
        <time>2022-02-08T02:52:25Z</time>
      </trkpt>
      <trkpt lat="44.74314" lon="4.48084">
        <ele>775</ele>
        <time>2022-02-08T02:52:29Z</time>
      </trkpt>
      <trkpt lat="44.74294" lon="4.4808">
        <ele>774</ele>
        <time>2022-02-08T02:52:32Z</time>
      </trkpt>
      <trkpt lat="44.74282" lon="4.48101">
        <ele>779</ele>
        <time>2022-02-08T02:52:36Z</time>
      </trkpt>
      <trkpt lat="44.74261" lon="4.48131">
        <ele>786</ele>
        <time>2022-02-08T02:52:41Z</time>
      </trkpt>
      <trkpt lat="44.74211" lon="4.48197">
        <ele>796</ele>
        <time>2022-02-08T02:52:53Z</time>
      </trkpt>
      <trkpt lat="44.74174" lon="4.48222">
        <ele>794</ele>
        <time>2022-02-08T02:53:01Z</time>
      </trkpt>
      <trkpt lat="44.74134" lon="4.48224">
        <ele>791</ele>
        <time>2022-02-08T02:53:08Z</time>
      </trkpt>
      <trkpt lat="44.74104" lon="4.48216">
        <ele>789</ele>
        <time>2022-02-08T02:53:13Z</time>
      </trkpt>
      <trkpt lat="44.7408" lon="4.48176">
        <ele>788</ele>
        <time>2022-02-08T02:53:20Z</time>
      </trkpt>
      <trkpt lat="44.74067" lon="4.48163">
        <ele>789</ele>
        <time>2022-02-08T02:53:23Z</time>
      </trkpt>
      <trkpt lat="44.74051" lon="4.48161">
        <ele>791</ele>
        <time>2022-02-08T02:53:25Z</time>
      </trkpt>
      <trkpt lat="44.74036" lon="4.4817">
        <ele>794</ele>
        <time>2022-02-08T02:53:28Z</time>
      </trkpt>
      <trkpt lat="44.74028" lon="4.4817">
        <ele>795</ele>
        <time>2022-02-08T02:53:30Z</time>
      </trkpt>
      <trkpt lat="44.74017" lon="4.48153">
        <ele>794</ele>
        <time>2022-02-08T02:53:33Z</time>
      </trkpt>
      <trkpt lat="44.74003" lon="4.48143">
        <ele>794</ele>
        <time>2022-02-08T02:53:36Z</time>
      </trkpt>
      <trkpt lat="44.73995" lon="4.48141">
        <ele>795</ele>
        <time>2022-02-08T02:53:37Z</time>
      </trkpt>
      <trkpt lat="44.7399" lon="4.48133">
        <ele>795</ele>
        <time>2022-02-08T02:53:38Z</time>
      </trkpt>
      <trkpt lat="44.73986" lon="4.4811">
        <ele>792</ele>
        <time>2022-02-08T02:53:41Z</time>
      </trkpt>
      <trkpt lat="44.7399" lon="4.48133">
        <ele>795</ele>
        <time>2022-02-08T02:53:44Z</time>
      </trkpt>
      <trkpt lat="44.73995" lon="4.48141">
        <ele>795</ele>
        <time>2022-02-08T02:53:46Z</time>
      </trkpt>
      <trkpt lat="44.74003" lon="4.48143">
        <ele>794</ele>
        <time>2022-02-08T02:53:47Z</time>
      </trkpt>
      <trkpt lat="44.74017" lon="4.48153">
        <ele>794</ele>
        <time>2022-02-08T02:53:50Z</time>
      </trkpt>
      <trkpt lat="44.74028" lon="4.4817">
        <ele>795</ele>
        <time>2022-02-08T02:53:53Z</time>
      </trkpt>
      <trkpt lat="44.74036" lon="4.4817">
        <ele>794</ele>
        <time>2022-02-08T02:53:54Z</time>
      </trkpt>
      <trkpt lat="44.74051" lon="4.48161">
        <ele>791</ele>
        <time>2022-02-08T02:53:57Z</time>
      </trkpt>
      <trkpt lat="44.74067" lon="4.48163">
        <ele>789</ele>
        <time>2022-02-08T02:54:00Z</time>
      </trkpt>
      <trkpt lat="44.7408" lon="4.48176">
        <ele>788</ele>
        <time>2022-02-08T02:54:03Z</time>
      </trkpt>
      <trkpt lat="44.74104" lon="4.48216">
        <ele>789</ele>
        <time>2022-02-08T02:54:09Z</time>
      </trkpt>
      <trkpt lat="44.74072" lon="4.4819">
        <ele>789</ele>
        <time>2022-02-08T02:54:16Z</time>
      </trkpt>
      <trkpt lat="44.74062" lon="4.48182">
        <ele>791</ele>
        <time>2022-02-08T02:54:18Z</time>
      </trkpt>
      <trkpt lat="44.74045" lon="4.4819">
        <ele>793</ele>
        <time>2022-02-08T02:54:21Z</time>
      </trkpt>
      <trkpt lat="44.74035" lon="4.4822">
        <ele>794</ele>
        <time>2022-02-08T02:54:25Z</time>
      </trkpt>
      <trkpt lat="44.74027" lon="4.48235">
        <ele>795</ele>
        <time>2022-02-08T02:54:28Z</time>
      </trkpt>
      <trkpt lat="44.74011" lon="4.48245">
        <ele>797</ele>
        <time>2022-02-08T02:54:31Z</time>
      </trkpt>
      <trkpt lat="44.73988" lon="4.48251">
        <ele>800</ele>
        <time>2022-02-08T02:54:35Z</time>
      </trkpt>
      <trkpt lat="44.7398" lon="4.48235">
        <ele>801</ele>
        <time>2022-02-08T02:54:38Z</time>
      </trkpt>
      <trkpt lat="44.73984" lon="4.48227">
        <ele>800</ele>
        <time>2022-02-08T02:54:39Z</time>
      </trkpt>
      <trkpt lat="44.74009" lon="4.4822">
        <ele>797</ele>
        <time>2022-02-08T02:54:43Z</time>
      </trkpt>
      <trkpt lat="44.74013" lon="4.48203">
        <ele>796</ele>
        <time>2022-02-08T02:54:46Z</time>
      </trkpt>
      <trkpt lat="44.74002" lon="4.48194">
        <ele>798</ele>
        <time>2022-02-08T02:54:48Z</time>
      </trkpt>
      <trkpt lat="44.73967" lon="4.48196">
        <ele>803</ele>
        <time>2022-02-08T02:54:54Z</time>
      </trkpt>
      <trkpt lat="44.73949" lon="4.48211">
        <ele>806</ele>
        <time>2022-02-08T02:54:58Z</time>
      </trkpt>
      <trkpt lat="44.73923" lon="4.48293">
        <ele>804</ele>
        <time>2022-02-08T02:55:09Z</time>
      </trkpt>
      <trkpt lat="44.73901" lon="4.48303">
        <ele>804</ele>
        <time>2022-02-08T02:55:13Z</time>
      </trkpt>
      <trkpt lat="44.7387" lon="4.48292">
        <ele>807</ele>
        <time>2022-02-08T02:55:19Z</time>
      </trkpt>
      <trkpt lat="44.73799" lon="4.48243">
        <ele>815</ele>
        <time>2022-02-08T02:55:33Z</time>
      </trkpt>
      <trkpt lat="44.73761" lon="4.48251">
        <ele>816</ele>
        <time>2022-02-08T02:55:40Z</time>
      </trkpt>
      <trkpt lat="44.73733" lon="4.48235">
        <ele>820</ele>
        <time>2022-02-08T02:55:45Z</time>
      </trkpt>
      <trkpt lat="44.73708" lon="4.48249">
        <ele>824</ele>
        <time>2022-02-08T02:55:50Z</time>
      </trkpt>
      <trkpt lat="44.73683" lon="4.48283">
        <ele>826</ele>
        <time>2022-02-08T02:55:56Z</time>
      </trkpt>
      <trkpt lat="44.73676" lon="4.48298">
        <ele>827</ele>
        <time>2022-02-08T02:55:58Z</time>
      </trkpt>
      <trkpt lat="44.73673" lon="4.48322">
        <ele>826</ele>
        <time>2022-02-08T02:56:02Z</time>
      </trkpt>
      <trkpt lat="44.73675" lon="4.48347">
        <ele>826</ele>
        <time>2022-02-08T02:56:05Z</time>
      </trkpt>
      <trkpt lat="44.7369" lon="4.48417">
        <ele>824</ele>
        <time>2022-02-08T02:56:14Z</time>
      </trkpt>
      <trkpt lat="44.73692" lon="4.48462">
        <ele>825</ele>
        <time>2022-02-08T02:56:20Z</time>
      </trkpt>
      <trkpt lat="44.73689" lon="4.48527">
        <ele>829</ele>
        <time>2022-02-08T02:56:28Z</time>
      </trkpt>
      <trkpt lat="44.73692" lon="4.48584">
        <ele>832</ele>
        <time>2022-02-08T02:56:35Z</time>
      </trkpt>
      <trkpt lat="44.73708" lon="4.48648">
        <ele>832</ele>
        <time>2022-02-08T02:56:44Z</time>
      </trkpt>
      <trkpt lat="44.73707" lon="4.4866">
        <ele>834</ele>
        <time>2022-02-08T02:56:45Z</time>
      </trkpt>
      <trkpt lat="44.73701" lon="4.48669">
        <ele>836</ele>
        <time>2022-02-08T02:56:47Z</time>
      </trkpt>
      <trkpt lat="44.73689" lon="4.48636">
        <ele>837</ele>
        <time>2022-02-08T02:56:51Z</time>
      </trkpt>
      <trkpt lat="44.73668" lon="4.48517">
        <ele>836</ele>
        <time>2022-02-08T02:57:07Z</time>
      </trkpt>
      <trkpt lat="44.73667" lon="4.48486">
        <ele>835</ele>
        <time>2022-02-08T02:57:11Z</time>
      </trkpt>
      <trkpt lat="44.73662" lon="4.48453">
        <ele>835</ele>
        <time>2022-02-08T02:57:15Z</time>
      </trkpt>
      <trkpt lat="44.73656" lon="4.4842">
        <ele>836</ele>
        <time>2022-02-08T02:57:19Z</time>
      </trkpt>
      <trkpt lat="44.73632" lon="4.48337">
        <ele>838</ele>
        <time>2022-02-08T02:57:31Z</time>
      </trkpt>
      <trkpt lat="44.73629" lon="4.48302">
        <ele>841</ele>
        <time>2022-02-08T02:57:35Z</time>
      </trkpt>
      <trkpt lat="44.73632" lon="4.48274">
        <ele>841</ele>
        <time>2022-02-08T02:57:39Z</time>
      </trkpt>
      <trkpt lat="44.73641" lon="4.48251">
        <ele>839</ele>
        <time>2022-02-08T02:57:42Z</time>
      </trkpt>
      <trkpt lat="44.73671" lon="4.48207">
        <ele>835</ele>
        <time>2022-02-08T02:57:50Z</time>
      </trkpt>
      <trkpt lat="44.73679" lon="4.48191">
        <ele>834</ele>
        <time>2022-02-08T02:57:52Z</time>
      </trkpt>
      <trkpt lat="44.73683" lon="4.48164">
        <ele>835</ele>
        <time>2022-02-08T02:57:56Z</time>
      </trkpt>
      <trkpt lat="44.73679" lon="4.48138">
        <ele>834</ele>
        <time>2022-02-08T02:57:59Z</time>
      </trkpt>
      <trkpt lat="44.73672" lon="4.48113">
        <ele>834</ele>
        <time>2022-02-08T02:58:03Z</time>
      </trkpt>
      <trkpt lat="44.73639" lon="4.48059">
        <ele>840</ele>
        <time>2022-02-08T02:58:12Z</time>
      </trkpt>
      <trkpt lat="44.73605" lon="4.47996">
        <ele>845</ele>
        <time>2022-02-08T02:58:22Z</time>
      </trkpt>
      <trkpt lat="44.73601" lon="4.47975">
        <ele>847</ele>
        <time>2022-02-08T02:58:24Z</time>
      </trkpt>
      <trkpt lat="44.73602" lon="4.47952">
        <ele>847</ele>
        <time>2022-02-08T02:58:27Z</time>
      </trkpt>
      <trkpt lat="44.73608" lon="4.47922">
        <ele>846</ele>
        <time>2022-02-08T02:58:31Z</time>
      </trkpt>
      <trkpt lat="44.73623" lon="4.47899">
        <ele>845</ele>
        <time>2022-02-08T02:58:35Z</time>
      </trkpt>
      <trkpt lat="44.73639" lon="4.47886">
        <ele>843</ele>
        <time>2022-02-08T02:58:38Z</time>
      </trkpt>
      <trkpt lat="44.73685" lon="4.4787">
        <ele>834</ele>
        <time>2022-02-08T02:58:47Z</time>
      </trkpt>
      <trkpt lat="44.73699" lon="4.47851">
        <ele>832</ele>
        <time>2022-02-08T02:58:50Z</time>
      </trkpt>
      <trkpt lat="44.73704" lon="4.47819">
        <ele>832</ele>
        <time>2022-02-08T02:58:54Z</time>
      </trkpt>
      <trkpt lat="44.73701" lon="4.47805">
        <ele>832</ele>
        <time>2022-02-08T02:58:56Z</time>
      </trkpt>
      <trkpt lat="44.73694" lon="4.47786">
        <ele>833</ele>
        <time>2022-02-08T02:58:59Z</time>
      </trkpt>
      <trkpt lat="44.73677" lon="4.47768">
        <ele>837</ele>
        <time>2022-02-08T02:59:03Z</time>
      </trkpt>
      <trkpt lat="44.73652" lon="4.4775">
        <ele>843</ele>
        <time>2022-02-08T02:59:08Z</time>
      </trkpt>
      <trkpt lat="44.73622" lon="4.47721">
        <ele>846</ele>
        <time>2022-02-08T02:59:14Z</time>
      </trkpt>
      <trkpt lat="44.73616" lon="4.47701">
        <ele>845</ele>
        <time>2022-02-08T02:59:17Z</time>
      </trkpt>
      <trkpt lat="44.73615" lon="4.47677">
        <ele>842</ele>
        <time>2022-02-08T02:59:20Z</time>
      </trkpt>
      <trkpt lat="44.73621" lon="4.4758">
        <ele>839</ele>
        <time>2022-02-08T02:59:32Z</time>
      </trkpt>
      <trkpt lat="44.73621" lon="4.47542">
        <ele>839</ele>
        <time>2022-02-08T02:59:37Z</time>
      </trkpt>
      <trkpt lat="44.73619" lon="4.47526">
        <ele>839</ele>
        <time>2022-02-08T02:59:39Z</time>
      </trkpt>
      <trkpt lat="44.73613" lon="4.47511">
        <ele>840</ele>
        <time>2022-02-08T02:59:41Z</time>
      </trkpt>
      <trkpt lat="44.73596" lon="4.47489">
        <ele>840</ele>
        <time>2022-02-08T02:59:45Z</time>
      </trkpt>
      <trkpt lat="44.73578" lon="4.47478">
        <ele>839</ele>
        <time>2022-02-08T02:59:49Z</time>
      </trkpt>
      <trkpt lat="44.7353" lon="4.47477">
        <ele>842</ele>
        <time>2022-02-08T02:59:57Z</time>
      </trkpt>
      <trkpt lat="44.73455" lon="4.47495">
        <ele>850</ele>
        <time>2022-02-08T03:00:11Z</time>
      </trkpt>
      <trkpt lat="44.73438" lon="4.47489">
        <ele>850</ele>
        <time>2022-02-08T03:00:14Z</time>
      </trkpt>
      <trkpt lat="44.73424" lon="4.47476">
        <ele>848</ele>
        <time>2022-02-08T03:00:17Z</time>
      </trkpt>
      <trkpt lat="44.73408" lon="4.47437">
        <ele>845</ele>
        <time>2022-02-08T03:00:23Z</time>
      </trkpt>
      <trkpt lat="44.73406" lon="4.47394">
        <ele>842</ele>
        <time>2022-02-08T03:00:28Z</time>
      </trkpt>
      <trkpt lat="44.73401" lon="4.47375">
        <ele>842</ele>
        <time>2022-02-08T03:00:31Z</time>
      </trkpt>
      <trkpt lat="44.73394" lon="4.47336">
        <ele>842</ele>
        <time>2022-02-08T03:00:36Z</time>
      </trkpt>
      <trkpt lat="44.73397" lon="4.47316">
        <ele>842</ele>
        <time>2022-02-08T03:00:39Z</time>
      </trkpt>
      <trkpt lat="44.73424" lon="4.47276">
        <ele>835</ele>
        <time>2022-02-08T03:00:45Z</time>
      </trkpt>
      <trkpt lat="44.73424" lon="4.47246">
        <ele>834</ele>
        <time>2022-02-08T03:00:49Z</time>
      </trkpt>
      <trkpt lat="44.7341" lon="4.47212">
        <ele>834</ele>
        <time>2022-02-08T03:00:54Z</time>
      </trkpt>
      <trkpt lat="44.73367" lon="4.47153">
        <ele>841</ele>
        <time>2022-02-08T03:01:05Z</time>
      </trkpt>
      <trkpt lat="44.73364" lon="4.47128">
        <ele>844</ele>
        <time>2022-02-08T03:01:08Z</time>
      </trkpt>
      <trkpt lat="44.73371" lon="4.47107">
        <ele>843</ele>
        <time>2022-02-08T03:01:11Z</time>
      </trkpt>
      <trkpt lat="44.73385" lon="4.47093">
        <ele>841</ele>
        <time>2022-02-08T03:01:14Z</time>
      </trkpt>
      <trkpt lat="44.73439" lon="4.47074">
        <ele>830</ele>
        <time>2022-02-08T03:01:24Z</time>
      </trkpt>
      <trkpt lat="44.73453" lon="4.47066">
        <ele>829</ele>
        <time>2022-02-08T03:01:27Z</time>
      </trkpt>
      <trkpt lat="44.73467" lon="4.47052">
        <ele>828</ele>
        <time>2022-02-08T03:01:30Z</time>
      </trkpt>
      <trkpt lat="44.73498" lon="4.46994">
        <ele>832</ele>
        <time>2022-02-08T03:01:39Z</time>
      </trkpt>
      <trkpt lat="44.73514" lon="4.46974">
        <ele>831</ele>
        <time>2022-02-08T03:01:43Z</time>
      </trkpt>
      <trkpt lat="44.73538" lon="4.46936">
        <ele>829</ele>
        <time>2022-02-08T03:01:49Z</time>
      </trkpt>
      <trkpt lat="44.73555" lon="4.46892">
        <ele>828</ele>
        <time>2022-02-08T03:01:56Z</time>
      </trkpt>
      <trkpt lat="44.73561" lon="4.46864">
        <ele>828</ele>
        <time>2022-02-08T03:01:59Z</time>
      </trkpt>
      <trkpt lat="44.73564" lon="4.46828">
        <ele>830</ele>
        <time>2022-02-08T03:02:04Z</time>
      </trkpt>
      <trkpt lat="44.73562" lon="4.46772">
        <ele>832</ele>
        <time>2022-02-08T03:02:11Z</time>
      </trkpt>
      <trkpt lat="44.73545" lon="4.46682">
        <ele>838</ele>
        <time>2022-02-08T03:02:23Z</time>
      </trkpt>
      <trkpt lat="44.73538" lon="4.4665">
        <ele>842</ele>
        <time>2022-02-08T03:02:27Z</time>
      </trkpt>
      <trkpt lat="44.7354" lon="4.46632">
        <ele>844</ele>
        <time>2022-02-08T03:02:29Z</time>
      </trkpt>
      <trkpt lat="44.73548" lon="4.46619">
        <ele>842</ele>
        <time>2022-02-08T03:02:31Z</time>
      </trkpt>
      <trkpt lat="44.73559" lon="4.4661">
        <ele>839</ele>
        <time>2022-02-08T03:02:34Z</time>
      </trkpt>
      <trkpt lat="44.73582" lon="4.46602">
        <ele>833</ele>
        <time>2022-02-08T03:02:38Z</time>
      </trkpt>
      <trkpt lat="44.73622" lon="4.46554">
        <ele>834</ele>
        <time>2022-02-08T03:02:47Z</time>
      </trkpt>
      <trkpt lat="44.73636" lon="4.46542">
        <ele>834</ele>
        <time>2022-02-08T03:02:50Z</time>
      </trkpt>
      <trkpt lat="44.73669" lon="4.46541">
        <ele>828</ele>
        <time>2022-02-08T03:02:56Z</time>
      </trkpt>
      <trkpt lat="44.73689" lon="4.46538">
        <ele>827</ele>
        <time>2022-02-08T03:03:00Z</time>
      </trkpt>
      <trkpt lat="44.73701" lon="4.46529">
        <ele>828</ele>
        <time>2022-02-08T03:03:02Z</time>
      </trkpt>
      <trkpt lat="44.73714" lon="4.46509">
        <ele>831</ele>
        <time>2022-02-08T03:03:05Z</time>
      </trkpt>
      <trkpt lat="44.73726" lon="4.46499">
        <ele>832</ele>
        <time>2022-02-08T03:03:08Z</time>
      </trkpt>
      <trkpt lat="44.73742" lon="4.46495">
        <ele>831</ele>
        <time>2022-02-08T03:03:11Z</time>
      </trkpt>
      <trkpt lat="44.73788" lon="4.46499">
        <ele>827</ele>
        <time>2022-02-08T03:03:19Z</time>
      </trkpt>
      <trkpt lat="44.73804" lon="4.46488">
        <ele>826</ele>
        <time>2022-02-08T03:03:22Z</time>
      </trkpt>
      <trkpt lat="44.73814" lon="4.46463">
        <ele>825</ele>
        <time>2022-02-08T03:03:26Z</time>
      </trkpt>
      <trkpt lat="44.73813" lon="4.46427">
        <ele>826</ele>
        <time>2022-02-08T03:03:30Z</time>
      </trkpt>
      <trkpt lat="44.73799" lon="4.46348">
        <ele>826</ele>
        <time>2022-02-08T03:03:41Z</time>
      </trkpt>
      <trkpt lat="44.73793" lon="4.46305">
        <ele>830</ele>
        <time>2022-02-08T03:03:46Z</time>
      </trkpt>
      <trkpt lat="44.73797" lon="4.46275">
        <ele>831</ele>
        <time>2022-02-08T03:03:50Z</time>
      </trkpt>
      <trkpt lat="44.73806" lon="4.46248">
        <ele>830</ele>
        <time>2022-02-08T03:03:54Z</time>
      </trkpt>
      <trkpt lat="44.73822" lon="4.4622">
        <ele>827</ele>
        <time>2022-02-08T03:03:58Z</time>
      </trkpt>
      <trkpt lat="44.73841" lon="4.46189">
        <ele>826</ele>
        <time>2022-02-08T03:04:03Z</time>
      </trkpt>
      <trkpt lat="44.73856" lon="4.46153">
        <ele>827</ele>
        <time>2022-02-08T03:04:09Z</time>
      </trkpt>
      <trkpt lat="44.73863" lon="4.46122">
        <ele>826</ele>
        <time>2022-02-08T03:04:13Z</time>
      </trkpt>
      <trkpt lat="44.73874" lon="4.46088">
        <ele>826</ele>
        <time>2022-02-08T03:04:18Z</time>
      </trkpt>
      <trkpt lat="44.73873" lon="4.46079">
        <ele>826</ele>
        <time>2022-02-08T03:04:19Z</time>
      </trkpt>
      <trkpt lat="44.73873" lon="4.46071">
        <ele>825</ele>
        <time>2022-02-08T03:04:20Z</time>
      </trkpt>
      <trkpt lat="44.73877" lon="4.46061">
        <ele>824</ele>
        <time>2022-02-08T03:04:21Z</time>
      </trkpt>
      <trkpt lat="44.73891" lon="4.46044">
        <ele>823</ele>
        <time>2022-02-08T03:04:24Z</time>
      </trkpt>
      <trkpt lat="44.73902" lon="4.46025">
        <ele>823</ele>
        <time>2022-02-08T03:04:28Z</time>
      </trkpt>
      <trkpt lat="44.73908" lon="4.46009">
        <ele>822</ele>
        <time>2022-02-08T03:04:30Z</time>
      </trkpt>
      <trkpt lat="44.73911" lon="4.45986">
        <ele>821</ele>
        <time>2022-02-08T03:04:33Z</time>
      </trkpt>
      <trkpt lat="44.73912" lon="4.45963">
        <ele>820</ele>
        <time>2022-02-08T03:04:36Z</time>
      </trkpt>
      <trkpt lat="44.73909" lon="4.45932">
        <ele>817</ele>
        <time>2022-02-08T03:04:40Z</time>
      </trkpt>
      <trkpt lat="44.73913" lon="4.45909">
        <ele>816</ele>
        <time>2022-02-08T03:04:43Z</time>
      </trkpt>
      <trkpt lat="44.73933" lon="4.45855">
        <ele>815</ele>
        <time>2022-02-08T03:04:50Z</time>
      </trkpt>
      <trkpt lat="44.73935" lon="4.45837">
        <ele>814</ele>
        <time>2022-02-08T03:04:53Z</time>
      </trkpt>
      <trkpt lat="44.73933" lon="4.4582">
        <ele>814</ele>
        <time>2022-02-08T03:04:55Z</time>
      </trkpt>
      <trkpt lat="44.73927" lon="4.45805">
        <ele>813</ele>
        <time>2022-02-08T03:04:57Z</time>
      </trkpt>
      <trkpt lat="44.73914" lon="4.45794">
        <ele>813</ele>
        <time>2022-02-08T03:05:00Z</time>
      </trkpt>
      <trkpt lat="44.73884" lon="4.45778">
        <ele>808</ele>
        <time>2022-02-08T03:05:05Z</time>
      </trkpt>
      <trkpt lat="44.73874" lon="4.45769">
        <ele>806</ele>
        <time>2022-02-08T03:05:08Z</time>
      </trkpt>
      <trkpt lat="44.73865" lon="4.45755">
        <ele>805</ele>
        <time>2022-02-08T03:05:10Z</time>
      </trkpt>
      <trkpt lat="44.73847" lon="4.45708">
        <ele>806</ele>
        <time>2022-02-08T03:05:17Z</time>
      </trkpt>
      <trkpt lat="44.73839" lon="4.45695">
        <ele>806</ele>
        <time>2022-02-08T03:05:19Z</time>
      </trkpt>
      <trkpt lat="44.73806" lon="4.45662">
        <ele>802</ele>
        <time>2022-02-08T03:05:26Z</time>
      </trkpt>
      <trkpt lat="44.73796" lon="4.45658">
        <ele>800</ele>
        <time>2022-02-08T03:05:28Z</time>
      </trkpt>
      <trkpt lat="44.73766" lon="4.45651">
        <ele>795</ele>
        <time>2022-02-08T03:05:33Z</time>
      </trkpt>
      <trkpt lat="44.73752" lon="4.45646">
        <ele>792</ele>
        <time>2022-02-08T03:05:36Z</time>
      </trkpt>
      <trkpt lat="44.7374" lon="4.45638">
        <ele>790</ele>
        <time>2022-02-08T03:05:38Z</time>
      </trkpt>
      <trkpt lat="44.73726" lon="4.45626">
        <ele>789</ele>
        <time>2022-02-08T03:05:41Z</time>
      </trkpt>
      <trkpt lat="44.73713" lon="4.4561">
        <ele>787</ele>
        <time>2022-02-08T03:05:44Z</time>
      </trkpt>
      <trkpt lat="44.73685" lon="4.45565">
        <ele>786</ele>
        <time>2022-02-08T03:05:52Z</time>
      </trkpt>
      <trkpt lat="44.73673" lon="4.45551">
        <ele>785</ele>
        <time>2022-02-08T03:05:55Z</time>
      </trkpt>
      <trkpt lat="44.73609" lon="4.45524">
        <ele>776</ele>
        <time>2022-02-08T03:06:06Z</time>
      </trkpt>
      <trkpt lat="44.73601" lon="4.45516">
        <ele>776</ele>
        <time>2022-02-08T03:06:08Z</time>
      </trkpt>
      <trkpt lat="44.73595" lon="4.45508">
        <ele>777</ele>
        <time>2022-02-08T03:06:10Z</time>
      </trkpt>
      <trkpt lat="44.73588" lon="4.45493">
        <ele>777</ele>
        <time>2022-02-08T03:06:12Z</time>
      </trkpt>
      <trkpt lat="44.73583" lon="4.45488">
        <ele>776</ele>
        <time>2022-02-08T03:06:13Z</time>
      </trkpt>
      <trkpt lat="44.73578" lon="4.45488">
        <ele>774</ele>
        <time>2022-02-08T03:06:14Z</time>
      </trkpt>
      <trkpt lat="44.73575" lon="4.45491">
        <ele>773</ele>
        <time>2022-02-08T03:06:15Z</time>
      </trkpt>
      <trkpt lat="44.73573" lon="4.45494">
        <ele>772</ele>
        <time>2022-02-08T03:06:15Z</time>
      </trkpt>
      <trkpt lat="44.73572" lon="4.45503">
        <ele>771</ele>
        <time>2022-02-08T03:06:16Z</time>
      </trkpt>
      <trkpt lat="44.73574" lon="4.4551">
        <ele>771</ele>
        <time>2022-02-08T03:06:17Z</time>
      </trkpt>
      <trkpt lat="44.73596" lon="4.4554">
        <ele>770</ele>
        <time>2022-02-08T03:06:23Z</time>
      </trkpt>
      <trkpt lat="44.7364" lon="4.45581">
        <ele>773</ele>
        <time>2022-02-08T03:06:32Z</time>
      </trkpt>
      <trkpt lat="44.73645" lon="4.45588">
        <ele>773</ele>
        <time>2022-02-08T03:06:33Z</time>
      </trkpt>
      <trkpt lat="44.73649" lon="4.45601">
        <ele>772</ele>
        <time>2022-02-08T03:06:35Z</time>
      </trkpt>
      <trkpt lat="44.73652" lon="4.45617">
        <ele>770</ele>
        <time>2022-02-08T03:06:37Z</time>
      </trkpt>
      <trkpt lat="44.73653" lon="4.45653">
        <ele>765</ele>
        <time>2022-02-08T03:06:42Z</time>
      </trkpt>
      <trkpt lat="44.73659" lon="4.45671">
        <ele>764</ele>
        <time>2022-02-08T03:06:44Z</time>
      </trkpt>
      <trkpt lat="44.73659" lon="4.4568">
        <ele>764</ele>
        <time>2022-02-08T03:06:45Z</time>
      </trkpt>
      <trkpt lat="44.73653" lon="4.45686">
        <ele>761</ele>
        <time>2022-02-08T03:06:47Z</time>
      </trkpt>
      <trkpt lat="44.73647" lon="4.45682">
        <ele>760</ele>
        <time>2022-02-08T03:06:48Z</time>
      </trkpt>
      <trkpt lat="44.73642" lon="4.45676">
        <ele>759</ele>
        <time>2022-02-08T03:06:49Z</time>
      </trkpt>
      <trkpt lat="44.73637" lon="4.4566">
        <ele>759</ele>
        <time>2022-02-08T03:06:51Z</time>
      </trkpt>
      <trkpt lat="44.73632" lon="4.4562">
        <ele>764</ele>
        <time>2022-02-08T03:06:56Z</time>
      </trkpt>
      <trkpt lat="44.73627" lon="4.45608">
        <ele>765</ele>
        <time>2022-02-08T03:06:58Z</time>
      </trkpt>
      <trkpt lat="44.73614" lon="4.456">
        <ele>763</ele>
        <time>2022-02-08T03:07:01Z</time>
      </trkpt>
      <trkpt lat="44.73591" lon="4.45592">
        <ele>758</ele>
        <time>2022-02-08T03:07:05Z</time>
      </trkpt>
      <trkpt lat="44.73573" lon="4.45587">
        <ele>755</ele>
        <time>2022-02-08T03:07:08Z</time>
      </trkpt>
      <trkpt lat="44.73554" lon="4.45579">
        <ele>751</ele>
        <time>2022-02-08T03:07:12Z</time>
      </trkpt>
      <trkpt lat="44.73525" lon="4.45553">
        <ele>748</ele>
        <time>2022-02-08T03:07:18Z</time>
      </trkpt>
      <trkpt lat="44.73509" lon="4.45531">
        <ele>746</ele>
        <time>2022-02-08T03:07:22Z</time>
      </trkpt>
      <trkpt lat="44.735" lon="4.45506">
        <ele>746</ele>
        <time>2022-02-08T03:07:25Z</time>
      </trkpt>
      <trkpt lat="44.73499" lon="4.45493">
        <ele>747</ele>
        <time>2022-02-08T03:07:27Z</time>
      </trkpt>
      <trkpt lat="44.735" lon="4.45476">
        <ele>747</ele>
        <time>2022-02-08T03:07:29Z</time>
      </trkpt>
      <trkpt lat="44.73509" lon="4.45455">
        <ele>750</ele>
        <time>2022-02-08T03:07:32Z</time>
      </trkpt>
      <trkpt lat="44.73508" lon="4.45445">
        <ele>750</ele>
        <time>2022-02-08T03:07:34Z</time>
      </trkpt>
      <trkpt lat="44.73503" lon="4.45439">
        <ele>748</ele>
        <time>2022-02-08T03:07:35Z</time>
      </trkpt>
      <trkpt lat="44.73496" lon="4.4544">
        <ele>745</ele>
        <time>2022-02-08T03:07:36Z</time>
      </trkpt>
      <trkpt lat="44.73492" lon="4.45449">
        <ele>744</ele>
        <time>2022-02-08T03:07:37Z</time>
      </trkpt>
      <trkpt lat="44.73488" lon="4.45494">
        <ele>741</ele>
        <time>2022-02-08T03:07:43Z</time>
      </trkpt>
      <trkpt lat="44.73489" lon="4.45515">
        <ele>740</ele>
        <time>2022-02-08T03:07:46Z</time>
      </trkpt>
      <trkpt lat="44.73497" lon="4.45553">
        <ele>739</ele>
        <time>2022-02-08T03:07:51Z</time>
      </trkpt>
      <trkpt lat="44.73506" lon="4.45573">
        <ele>740</ele>
        <time>2022-02-08T03:07:54Z</time>
      </trkpt>
      <trkpt lat="44.73532" lon="4.45617">
        <ele>737</ele>
        <time>2022-02-08T03:08:01Z</time>
      </trkpt>
      <trkpt lat="44.73546" lon="4.45634">
        <ele>737</ele>
        <time>2022-02-08T03:08:04Z</time>
      </trkpt>
      <trkpt lat="44.73568" lon="4.45645">
        <ele>740</ele>
        <time>2022-02-08T03:08:08Z</time>
      </trkpt>
      <trkpt lat="44.73571" lon="4.45652">
        <ele>740</ele>
        <time>2022-02-08T03:08:09Z</time>
      </trkpt>
      <trkpt lat="44.73569" lon="4.4566">
        <ele>737</ele>
        <time>2022-02-08T03:08:10Z</time>
      </trkpt>
      <trkpt lat="44.73564" lon="4.45664">
        <ele>735</ele>
        <time>2022-02-08T03:08:11Z</time>
      </trkpt>
      <trkpt lat="44.73556" lon="4.45659">
        <ele>734</ele>
        <time>2022-02-08T03:08:13Z</time>
      </trkpt>
      <trkpt lat="44.73521" lon="4.45623">
        <ele>733</ele>
        <time>2022-02-08T03:08:21Z</time>
      </trkpt>
      <trkpt lat="44.73495" lon="4.45602">
        <ele>730</ele>
        <time>2022-02-08T03:08:26Z</time>
      </trkpt>
      <trkpt lat="44.73468" lon="4.45586">
        <ele>723</ele>
        <time>2022-02-08T03:08:31Z</time>
      </trkpt>
      <trkpt lat="44.73457" lon="4.45574">
        <ele>720</ele>
        <time>2022-02-08T03:08:34Z</time>
      </trkpt>
      <trkpt lat="44.73431" lon="4.45534">
        <ele>712</ele>
        <time>2022-02-08T03:08:41Z</time>
      </trkpt>
      <trkpt lat="44.73426" lon="4.4552">
        <ele>711</ele>
        <time>2022-02-08T03:08:43Z</time>
      </trkpt>
      <trkpt lat="44.73425" lon="4.45506">
        <ele>711</ele>
        <time>2022-02-08T03:08:44Z</time>
      </trkpt>
      <trkpt lat="44.73441" lon="4.45444">
        <ele>722</ele>
        <time>2022-02-08T03:08:53Z</time>
      </trkpt>
      <trkpt lat="44.73437" lon="4.45431">
        <ele>721</ele>
        <time>2022-02-08T03:08:55Z</time>
      </trkpt>
      <trkpt lat="44.7343" lon="4.45424">
        <ele>719</ele>
        <time>2022-02-08T03:08:56Z</time>
      </trkpt>
      <trkpt lat="44.73413" lon="4.45412">
        <ele>713</ele>
        <time>2022-02-08T03:08:59Z</time>
      </trkpt>
      <trkpt lat="44.734" lon="4.45397">
        <ele>708</ele>
        <time>2022-02-08T03:09:02Z</time>
      </trkpt>
      <trkpt lat="44.73395" lon="4.45374">
        <ele>707</ele>
        <time>2022-02-08T03:09:05Z</time>
      </trkpt>
      <trkpt lat="44.73395" lon="4.45354">
        <ele>709</ele>
        <time>2022-02-08T03:09:08Z</time>
      </trkpt>
      <trkpt lat="44.734" lon="4.45333">
        <ele>713</ele>
        <time>2022-02-08T03:09:11Z</time>
      </trkpt>
      <trkpt lat="44.73405" lon="4.45319">
        <ele>715</ele>
        <time>2022-02-08T03:09:13Z</time>
      </trkpt>
      <trkpt lat="44.73405" lon="4.45306">
        <ele>715</ele>
        <time>2022-02-08T03:09:14Z</time>
      </trkpt>
      <trkpt lat="44.73388" lon="4.45253">
        <ele>704</ele>
        <time>2022-02-08T03:09:22Z</time>
      </trkpt>
      <trkpt lat="44.73385" lon="4.45238">
        <ele>703</ele>
        <time>2022-02-08T03:09:24Z</time>
      </trkpt>
      <trkpt lat="44.73385" lon="4.45226">
        <ele>704</ele>
        <time>2022-02-08T03:09:25Z</time>
      </trkpt>
      <trkpt lat="44.73391" lon="4.45202">
        <ele>708</ele>
        <time>2022-02-08T03:09:28Z</time>
      </trkpt>
      <trkpt lat="44.73389" lon="4.45188">
        <ele>708</ele>
        <time>2022-02-08T03:09:30Z</time>
      </trkpt>
      <trkpt lat="44.73373" lon="4.45139">
        <ele>699</ele>
        <time>2022-02-08T03:09:37Z</time>
      </trkpt>
      <trkpt lat="44.73365" lon="4.45127">
        <ele>694</ele>
        <time>2022-02-08T03:09:39Z</time>
      </trkpt>
      <trkpt lat="44.73362" lon="4.45098">
        <ele>692</ele>
        <time>2022-02-08T03:09:43Z</time>
      </trkpt>
      <trkpt lat="44.73373" lon="4.45058">
        <ele>699</ele>
        <time>2022-02-08T03:09:48Z</time>
      </trkpt>
      <trkpt lat="44.73374" lon="4.45041">
        <ele>700</ele>
        <time>2022-02-08T03:09:50Z</time>
      </trkpt>
      <trkpt lat="44.73371" lon="4.45035">
        <ele>699</ele>
        <time>2022-02-08T03:09:51Z</time>
      </trkpt>
      <trkpt lat="44.73368" lon="4.45029">
        <ele>698</ele>
        <time>2022-02-08T03:09:52Z</time>
      </trkpt>
      <trkpt lat="44.73336" lon="4.4499">
        <ele>688</ele>
        <time>2022-02-08T03:10:00Z</time>
      </trkpt>
      <trkpt lat="44.73306" lon="4.44928">
        <ele>683</ele>
        <time>2022-02-08T03:10:09Z</time>
      </trkpt>
      <trkpt lat="44.73277" lon="4.44844">
        <ele>680</ele>
        <time>2022-02-08T03:10:21Z</time>
      </trkpt>
      <trkpt lat="44.73269" lon="4.44803">
        <ele>679</ele>
        <time>2022-02-08T03:10:26Z</time>
      </trkpt>
      <trkpt lat="44.73261" lon="4.44759">
        <ele>678</ele>
        <time>2022-02-08T03:10:32Z</time>
      </trkpt>
      <trkpt lat="44.73248" lon="4.44717">
        <ele>675</ele>
        <time>2022-02-08T03:10:38Z</time>
      </trkpt>
      <trkpt lat="44.73219" lon="4.44645">
        <ele>664</ele>
        <time>2022-02-08T03:10:48Z</time>
      </trkpt>
      <trkpt lat="44.73195" lon="4.44593">
        <ele>656</ele>
        <time>2022-02-08T03:10:56Z</time>
      </trkpt>
      <trkpt lat="44.73193" lon="4.44576">
        <ele>654</ele>
        <time>2022-02-08T03:10:59Z</time>
      </trkpt>
      <trkpt lat="44.73196" lon="4.44566">
        <ele>653</ele>
        <time>2022-02-08T03:11:00Z</time>
      </trkpt>
      <trkpt lat="44.73204" lon="4.4456">
        <ele>653</ele>
        <time>2022-02-08T03:11:01Z</time>
      </trkpt>
      <trkpt lat="44.73214" lon="4.44557">
        <ele>653</ele>
        <time>2022-02-08T03:11:03Z</time>
      </trkpt>
      <trkpt lat="44.73254" lon="4.4455">
        <ele>654</ele>
        <time>2022-02-08T03:11:10Z</time>
      </trkpt>
      <trkpt lat="44.73301" lon="4.44547">
        <ele>654</ele>
        <time>2022-02-08T03:11:19Z</time>
      </trkpt>
      <trkpt lat="44.73372" lon="4.44557">
        <ele>656</ele>
        <time>2022-02-08T03:11:32Z</time>
      </trkpt>
      <trkpt lat="44.73377" lon="4.44552">
        <ele>654</ele>
        <time>2022-02-08T03:11:33Z</time>
      </trkpt>
      <trkpt lat="44.73377" lon="4.44544">
        <ele>651</ele>
        <time>2022-02-08T03:11:34Z</time>
      </trkpt>
      <trkpt lat="44.73374" lon="4.44536">
        <ele>648</ele>
        <time>2022-02-08T03:11:35Z</time>
      </trkpt>
      <trkpt lat="44.73368" lon="4.44534">
        <ele>648</ele>
        <time>2022-02-08T03:11:36Z</time>
      </trkpt>
      <trkpt lat="44.73362" lon="4.44537">
        <ele>649</ele>
        <time>2022-02-08T03:11:37Z</time>
      </trkpt>
      <trkpt lat="44.73347" lon="4.44536">
        <ele>650</ele>
        <time>2022-02-08T03:11:40Z</time>
      </trkpt>
      <trkpt lat="44.73292" lon="4.44517">
        <ele>644</ele>
        <time>2022-02-08T03:11:50Z</time>
      </trkpt>
      <trkpt lat="44.73267" lon="4.44512">
        <ele>642</ele>
        <time>2022-02-08T03:11:54Z</time>
      </trkpt>
      <trkpt lat="44.73246" lon="4.44514">
        <ele>643</ele>
        <time>2022-02-08T03:11:58Z</time>
      </trkpt>
      <trkpt lat="44.73238" lon="4.44512">
        <ele>643</ele>
        <time>2022-02-08T03:11:59Z</time>
      </trkpt>
      <trkpt lat="44.73216" lon="4.44493">
        <ele>639</ele>
        <time>2022-02-08T03:12:04Z</time>
      </trkpt>
      <trkpt lat="44.73186" lon="4.44475">
        <ele>635</ele>
        <time>2022-02-08T03:12:10Z</time>
      </trkpt>
      <trkpt lat="44.73173" lon="4.44461">
        <ele>632</ele>
        <time>2022-02-08T03:12:13Z</time>
      </trkpt>
      <trkpt lat="44.73165" lon="4.44455">
        <ele>630</ele>
        <time>2022-02-08T03:12:14Z</time>
      </trkpt>
      <trkpt lat="44.73157" lon="4.44454">
        <ele>629</ele>
        <time>2022-02-08T03:12:16Z</time>
      </trkpt>
      <trkpt lat="44.73146" lon="4.44457">
        <ele>628</ele>
        <time>2022-02-08T03:12:18Z</time>
      </trkpt>
      <trkpt lat="44.73128" lon="4.44464">
        <ele>626</ele>
        <time>2022-02-08T03:12:21Z</time>
      </trkpt>
      <trkpt lat="44.73103" lon="4.44462">
        <ele>621</ele>
        <time>2022-02-08T03:12:26Z</time>
      </trkpt>
      <trkpt lat="44.73094" lon="4.44467">
        <ele>620</ele>
        <time>2022-02-08T03:12:27Z</time>
      </trkpt>
      <trkpt lat="44.73089" lon="4.44478">
        <ele>621</ele>
        <time>2022-02-08T03:12:29Z</time>
      </trkpt>
      <trkpt lat="44.73088" lon="4.44507">
        <ele>623</ele>
        <time>2022-02-08T03:12:33Z</time>
      </trkpt>
      <trkpt lat="44.73109" lon="4.44599">
        <ele>626</ele>
        <time>2022-02-08T03:12:45Z</time>
      </trkpt>
      <trkpt lat="44.7312" lon="4.44662">
        <ele>624</ele>
        <time>2022-02-08T03:12:53Z</time>
      </trkpt>
      <trkpt lat="44.73139" lon="4.4473">
        <ele>628</ele>
        <time>2022-02-08T03:13:02Z</time>
      </trkpt>
      <trkpt lat="44.73141" lon="4.44742">
        <ele>628</ele>
        <time>2022-02-08T03:13:04Z</time>
      </trkpt>
      <trkpt lat="44.73138" lon="4.44752">
        <ele>626</ele>
        <time>2022-02-08T03:13:05Z</time>
      </trkpt>
      <trkpt lat="44.73117" lon="4.44693">
        <ele>622</ele>
        <time>2022-02-08T03:13:14Z</time>
      </trkpt>
      <trkpt lat="44.73105" lon="4.44667">
        <ele>617</ele>
        <time>2022-02-08T03:13:17Z</time>
      </trkpt>
      <trkpt lat="44.73083" lon="4.446">
        <ele>615</ele>
        <time>2022-02-08T03:13:27Z</time>
      </trkpt>
      <trkpt lat="44.73071" lon="4.44581">
        <ele>614</ele>
        <time>2022-02-08T03:13:30Z</time>
      </trkpt>
      <trkpt lat="44.73065" lon="4.44565">
        <ele>613</ele>
        <time>2022-02-08T03:13:32Z</time>
      </trkpt>
      <trkpt lat="44.73044" lon="4.44498">
        <ele>609</ele>
        <time>2022-02-08T03:13:42Z</time>
      </trkpt>
      <trkpt lat="44.73041" lon="4.44482">
        <ele>606</ele>
        <time>2022-02-08T03:13:44Z</time>
      </trkpt>
      <trkpt lat="44.7305" lon="4.44379">
        <ele>595</ele>
        <time>2022-02-08T03:13:57Z</time>
      </trkpt>
      <trkpt lat="44.73055" lon="4.44364">
        <ele>592</ele>
        <time>2022-02-08T03:13:59Z</time>
      </trkpt>
      <trkpt lat="44.73064" lon="4.44353">
        <ele>591</ele>
        <time>2022-02-08T03:14:01Z</time>
      </trkpt>
      <trkpt lat="44.73074" lon="4.44347">
        <ele>591</ele>
        <time>2022-02-08T03:14:03Z</time>
      </trkpt>
      <trkpt lat="44.73112" lon="4.44353">
        <ele>596</ele>
        <time>2022-02-08T03:14:10Z</time>
      </trkpt>
      <trkpt lat="44.73142" lon="4.44341">
        <ele>594</ele>
        <time>2022-02-08T03:14:15Z</time>
      </trkpt>
      <trkpt lat="44.73157" lon="4.44337">
        <ele>594</ele>
        <time>2022-02-08T03:14:18Z</time>
      </trkpt>
      <trkpt lat="44.73172" lon="4.44337">
        <ele>595</ele>
        <time>2022-02-08T03:14:21Z</time>
      </trkpt>
      <trkpt lat="44.73199" lon="4.44353">
        <ele>601</ele>
        <time>2022-02-08T03:14:26Z</time>
      </trkpt>
      <trkpt lat="44.73206" lon="4.44353">
        <ele>601</ele>
        <time>2022-02-08T03:14:27Z</time>
      </trkpt>
      <trkpt lat="44.73211" lon="4.4435">
        <ele>601</ele>
        <time>2022-02-08T03:14:28Z</time>
      </trkpt>
      <trkpt lat="44.73222" lon="4.44326">
        <ele>602</ele>
        <time>2022-02-08T03:14:32Z</time>
      </trkpt>
      <trkpt lat="44.73223" lon="4.44315">
        <ele>605</ele>
        <time>2022-02-08T03:14:33Z</time>
      </trkpt>
      <trkpt lat="44.73214" lon="4.44301">
        <ele>607</ele>
        <time>2022-02-08T03:14:35Z</time>
      </trkpt>
      <trkpt lat="44.7318" lon="4.44276">
        <ele>605</ele>
        <time>2022-02-08T03:14:42Z</time>
      </trkpt>
      <trkpt lat="44.73096" lon="4.44238">
        <ele>591</ele>
        <time>2022-02-08T03:14:58Z</time>
      </trkpt>
      <trkpt lat="44.73087" lon="4.44226">
        <ele>590</ele>
        <time>2022-02-08T03:15:00Z</time>
      </trkpt>
      <trkpt lat="44.73083" lon="4.44212">
        <ele>591</ele>
        <time>2022-02-08T03:15:02Z</time>
      </trkpt>
      <trkpt lat="44.73093" lon="4.44138">
        <ele>604</ele>
        <time>2022-02-08T03:15:12Z</time>
      </trkpt>
      <trkpt lat="44.73089" lon="4.44131">
        <ele>604</ele>
        <time>2022-02-08T03:15:13Z</time>
      </trkpt>
      <trkpt lat="44.73082" lon="4.44126">
        <ele>602</ele>
        <time>2022-02-08T03:15:14Z</time>
      </trkpt>
      <trkpt lat="44.73074" lon="4.44127">
        <ele>601</ele>
        <time>2022-02-08T03:15:16Z</time>
      </trkpt>
      <trkpt lat="44.73066" lon="4.44136">
        <ele>599</ele>
        <time>2022-02-08T03:15:17Z</time>
      </trkpt>
      <trkpt lat="44.73045" lon="4.44168">
        <ele>591</ele>
        <time>2022-02-08T03:15:23Z</time>
      </trkpt>
      <trkpt lat="44.73037" lon="4.4417">
        <ele>589</ele>
        <time>2022-02-08T03:15:24Z</time>
      </trkpt>
      <trkpt lat="44.73022" lon="4.44164">
        <ele>588</ele>
        <time>2022-02-08T03:15:27Z</time>
      </trkpt>
      <trkpt lat="44.73" lon="4.44146">
        <ele>589</ele>
        <time>2022-02-08T03:15:32Z</time>
      </trkpt>
      <trkpt lat="44.72982" lon="4.44119">
        <ele>593</ele>
        <time>2022-02-08T03:15:36Z</time>
      </trkpt>
      <trkpt lat="44.72918" lon="4.44057">
        <ele>597</ele>
        <time>2022-02-08T03:15:50Z</time>
      </trkpt>
      <trkpt lat="44.72898" lon="4.4403">
        <ele>598</ele>
        <time>2022-02-08T03:15:55Z</time>
      </trkpt>
      <trkpt lat="44.72862" lon="4.43975">
        <ele>596</ele>
        <time>2022-02-08T03:16:05Z</time>
      </trkpt>
      <trkpt lat="44.72858" lon="4.43949">
        <ele>599</ele>
        <time>2022-02-08T03:16:08Z</time>
      </trkpt>
      <trkpt lat="44.72865" lon="4.43919">
        <ele>607</ele>
        <time>2022-02-08T03:16:12Z</time>
      </trkpt>
      <trkpt lat="44.72865" lon="4.43906">
        <ele>609</ele>
        <time>2022-02-08T03:16:14Z</time>
      </trkpt>
      <trkpt lat="44.72863" lon="4.43895">
        <ele>610</ele>
        <time>2022-02-08T03:16:15Z</time>
      </trkpt>
      <trkpt lat="44.72859" lon="4.4389">
        <ele>610</ele>
        <time>2022-02-08T03:16:16Z</time>
      </trkpt>
      <trkpt lat="44.72853" lon="4.43888">
        <ele>608</ele>
        <time>2022-02-08T03:16:17Z</time>
      </trkpt>
      <trkpt lat="44.72837" lon="4.4389">
        <ele>603</ele>
        <time>2022-02-08T03:16:20Z</time>
      </trkpt>
      <trkpt lat="44.72828" lon="4.43889">
        <ele>600</ele>
        <time>2022-02-08T03:16:22Z</time>
      </trkpt>
      <trkpt lat="44.7282" lon="4.43885">
        <ele>598</ele>
        <time>2022-02-08T03:16:23Z</time>
      </trkpt>
      <trkpt lat="44.72787" lon="4.43829">
        <ele>598</ele>
        <time>2022-02-08T03:16:32Z</time>
      </trkpt>
      <trkpt lat="44.72742" lon="4.43765">
        <ele>596</ele>
        <time>2022-02-08T03:16:44Z</time>
      </trkpt>
      <trkpt lat="44.72738" lon="4.43744">
        <ele>598</ele>
        <time>2022-02-08T03:16:46Z</time>
      </trkpt>
      <trkpt lat="44.72748" lon="4.43632">
        <ele>612</ele>
        <time>2022-02-08T03:17:01Z</time>
      </trkpt>
      <trkpt lat="44.72744" lon="4.43616">
        <ele>613</ele>
        <time>2022-02-08T03:17:03Z</time>
      </trkpt>
      <trkpt lat="44.72737" lon="4.43609">
        <ele>611</ele>
        <time>2022-02-08T03:17:04Z</time>
      </trkpt>
      <trkpt lat="44.72719" lon="4.43609">
        <ele>606</ele>
        <time>2022-02-08T03:17:07Z</time>
      </trkpt>
      <trkpt lat="44.72702" lon="4.43599">
        <ele>601</ele>
        <time>2022-02-08T03:17:11Z</time>
      </trkpt>
      <trkpt lat="44.72688" lon="4.43573">
        <ele>600</ele>
        <time>2022-02-08T03:17:15Z</time>
      </trkpt>
      <trkpt lat="44.72687" lon="4.43553">
        <ele>601</ele>
        <time>2022-02-08T03:17:17Z</time>
      </trkpt>
      <trkpt lat="44.7269" lon="4.43526">
        <ele>604</ele>
        <time>2022-02-08T03:17:21Z</time>
      </trkpt>
      <trkpt lat="44.7272" lon="4.43475">
        <ele>619</ele>
        <time>2022-02-08T03:17:29Z</time>
      </trkpt>
      <trkpt lat="44.7272" lon="4.43464">
        <ele>620</ele>
        <time>2022-02-08T03:17:31Z</time>
      </trkpt>
      <trkpt lat="44.72716" lon="4.43456">
        <ele>620</ele>
        <time>2022-02-08T03:17:32Z</time>
      </trkpt>
      <trkpt lat="44.72709" lon="4.43451">
        <ele>619</ele>
        <time>2022-02-08T03:17:33Z</time>
      </trkpt>
      <trkpt lat="44.72691" lon="4.43459">
        <ele>613</ele>
        <time>2022-02-08T03:17:37Z</time>
      </trkpt>
      <trkpt lat="44.72669" lon="4.43458">
        <ele>607</ele>
        <time>2022-02-08T03:17:41Z</time>
      </trkpt>
      <trkpt lat="44.72649" lon="4.4344">
        <ele>610</ele>
        <time>2022-02-08T03:17:45Z</time>
      </trkpt>
      <trkpt lat="44.72598" lon="4.43365">
        <ele>618</ele>
        <time>2022-02-08T03:17:58Z</time>
      </trkpt>
      <trkpt lat="44.72589" lon="4.43364">
        <ele>617</ele>
        <time>2022-02-08T03:17:59Z</time>
      </trkpt>
      <trkpt lat="44.72582" lon="4.43368">
        <ele>617</ele>
        <time>2022-02-08T03:18:01Z</time>
      </trkpt>
      <trkpt lat="44.72578" lon="4.43374">
        <ele>617</ele>
        <time>2022-02-08T03:18:02Z</time>
      </trkpt>
      <trkpt lat="44.7257" lon="4.43412">
        <ele>615</ele>
        <time>2022-02-08T03:18:07Z</time>
      </trkpt>
      <trkpt lat="44.72577" lon="4.43463">
        <ele>612</ele>
        <time>2022-02-08T03:18:13Z</time>
      </trkpt>
      <trkpt lat="44.72576" lon="4.43548">
        <ele>608</ele>
        <time>2022-02-08T03:18:24Z</time>
      </trkpt>
      <trkpt lat="44.72571" lon="4.43576">
        <ele>607</ele>
        <time>2022-02-08T03:18:28Z</time>
      </trkpt>
      <trkpt lat="44.72558" lon="4.43594">
        <ele>606</ele>
        <time>2022-02-08T03:18:31Z</time>
      </trkpt>
      <trkpt lat="44.72539" lon="4.43602">
        <ele>606</ele>
        <time>2022-02-08T03:18:35Z</time>
      </trkpt>
      <trkpt lat="44.7251" lon="4.43597">
        <ele>611</ele>
        <time>2022-02-08T03:18:40Z</time>
      </trkpt>
      <trkpt lat="44.72444" lon="4.43569">
        <ele>611</ele>
        <time>2022-02-08T03:18:52Z</time>
      </trkpt>
      <trkpt lat="44.72415" lon="4.43546">
        <ele>611</ele>
        <time>2022-02-08T03:18:58Z</time>
      </trkpt>
      <trkpt lat="44.72379" lon="4.43481">
        <ele>611</ele>
        <time>2022-02-08T03:19:08Z</time>
      </trkpt>
      <trkpt lat="44.72363" lon="4.43418">
        <ele>614</ele>
        <time>2022-02-08T03:19:17Z</time>
      </trkpt>
      <trkpt lat="44.7234" lon="4.43364">
        <ele>609</ele>
        <time>2022-02-08T03:19:25Z</time>
      </trkpt>
      <trkpt lat="44.72336" lon="4.43347">
        <ele>608</ele>
        <time>2022-02-08T03:19:27Z</time>
      </trkpt>
      <trkpt lat="44.72341" lon="4.43298">
        <ele>615</ele>
        <time>2022-02-08T03:19:33Z</time>
      </trkpt>
      <trkpt lat="44.72341" lon="4.43281">
        <ele>617</ele>
        <time>2022-02-08T03:19:36Z</time>
      </trkpt>
      <trkpt lat="44.72338" lon="4.43267">
        <ele>619</ele>
        <time>2022-02-08T03:19:37Z</time>
      </trkpt>
      <trkpt lat="44.72327" lon="4.43253">
        <ele>617</ele>
        <time>2022-02-08T03:19:40Z</time>
      </trkpt>
      <trkpt lat="44.72288" lon="4.43228">
        <ele>606</ele>
        <time>2022-02-08T03:19:48Z</time>
      </trkpt>
      <trkpt lat="44.72258" lon="4.43198">
        <ele>600</ele>
        <time>2022-02-08T03:19:54Z</time>
      </trkpt>
      <trkpt lat="44.72248" lon="4.43182">
        <ele>599</ele>
        <time>2022-02-08T03:19:57Z</time>
      </trkpt>
      <trkpt lat="44.72239" lon="4.43166">
        <ele>598</ele>
        <time>2022-02-08T03:19:59Z</time>
      </trkpt>
      <trkpt lat="44.72205" lon="4.43076">
        <ele>589</ele>
        <time>2022-02-08T03:20:12Z</time>
      </trkpt>
      <trkpt lat="44.72202" lon="4.43056">
        <ele>586</ele>
        <time>2022-02-08T03:20:15Z</time>
      </trkpt>
      <trkpt lat="44.72205" lon="4.43036">
        <ele>585</ele>
        <time>2022-02-08T03:20:18Z</time>
      </trkpt>
      <trkpt lat="44.72241" lon="4.42969">
        <ele>590</ele>
        <time>2022-02-08T03:20:28Z</time>
      </trkpt>
      <trkpt lat="44.72296" lon="4.42908">
        <ele>592</ele>
        <time>2022-02-08T03:20:41Z</time>
      </trkpt>
      <trkpt lat="44.7233" lon="4.42887">
        <ele>597</ele>
        <time>2022-02-08T03:20:47Z</time>
      </trkpt>
      <trkpt lat="44.72331" lon="4.42881">
        <ele>597</ele>
        <time>2022-02-08T03:20:48Z</time>
      </trkpt>
      <trkpt lat="44.72328" lon="4.42868">
        <ele>597</ele>
        <time>2022-02-08T03:20:50Z</time>
      </trkpt>
      <trkpt lat="44.72327" lon="4.42864">
        <ele>598</ele>
        <time>2022-02-08T03:20:50Z</time>
      </trkpt>
      <trkpt lat="44.723" lon="4.42859">
        <ele>598</ele>
        <time>2022-02-08T03:20:55Z</time>
      </trkpt>
      <trkpt lat="44.72244" lon="4.42869">
        <ele>596</ele>
        <time>2022-02-08T03:21:05Z</time>
      </trkpt>
      <trkpt lat="44.72195" lon="4.42867">
        <ele>594</ele>
        <time>2022-02-08T03:21:14Z</time>
      </trkpt>
      <trkpt lat="44.72189" lon="4.42866">
        <ele>594</ele>
        <time>2022-02-08T03:21:15Z</time>
      </trkpt>
      <trkpt lat="44.72149" lon="4.42851">
        <ele>597</ele>
        <time>2022-02-08T03:21:22Z</time>
      </trkpt>
      <trkpt lat="44.72118" lon="4.42851">
        <ele>594</ele>
        <time>2022-02-08T03:21:28Z</time>
      </trkpt>
      <trkpt lat="44.72107" lon="4.42846">
        <ele>594</ele>
        <time>2022-02-08T03:21:30Z</time>
      </trkpt>
      <trkpt lat="44.72051" lon="4.42805">
        <ele>595</ele>
        <time>2022-02-08T03:21:41Z</time>
      </trkpt>
      <trkpt lat="44.72036" lon="4.42769">
        <ele>600</ele>
        <time>2022-02-08T03:21:46Z</time>
      </trkpt>
      <trkpt lat="44.72031" lon="4.42764">
        <ele>600</ele>
        <time>2022-02-08T03:21:47Z</time>
      </trkpt>
      <trkpt lat="44.72022" lon="4.42759">
        <ele>599</ele>
        <time>2022-02-08T03:21:49Z</time>
      </trkpt>
      <trkpt lat="44.72017" lon="4.42754">
        <ele>599</ele>
        <time>2022-02-08T03:21:50Z</time>
      </trkpt>
      <trkpt lat="44.7201" lon="4.42741">
        <ele>600</ele>
        <time>2022-02-08T03:21:52Z</time>
      </trkpt>
      <trkpt lat="44.71995" lon="4.42703">
        <ele>603</ele>
        <time>2022-02-08T03:21:58Z</time>
      </trkpt>
      <trkpt lat="44.71991" lon="4.4268">
        <ele>606</ele>
        <time>2022-02-08T03:22:01Z</time>
      </trkpt>
      <trkpt lat="44.71975" lon="4.42627">
        <ele>611</ele>
        <time>2022-02-08T03:22:08Z</time>
      </trkpt>
      <trkpt lat="44.71953" lon="4.42595">
        <ele>610</ele>
        <time>2022-02-08T03:22:14Z</time>
      </trkpt>
      <trkpt lat="44.71951" lon="4.42591">
        <ele>610</ele>
        <time>2022-02-08T03:22:14Z</time>
      </trkpt>
      <trkpt lat="44.71941" lon="4.42571">
        <ele>611</ele>
        <time>2022-02-08T03:22:17Z</time>
      </trkpt>
      <trkpt lat="44.71926" lon="4.42512">
        <ele>618</ele>
        <time>2022-02-08T03:22:25Z</time>
      </trkpt>
      <trkpt lat="44.71918" lon="4.42499">
        <ele>618</ele>
        <time>2022-02-08T03:22:28Z</time>
      </trkpt>
      <trkpt lat="44.71911" lon="4.42494">
        <ele>618</ele>
        <time>2022-02-08T03:22:29Z</time>
      </trkpt>
      <trkpt lat="44.719" lon="4.42497">
        <ele>616</ele>
        <time>2022-02-08T03:22:31Z</time>
      </trkpt>
      <trkpt lat="44.71886" lon="4.42522">
        <ele>610</ele>
        <time>2022-02-08T03:22:35Z</time>
      </trkpt>
      <trkpt lat="44.71876" lon="4.42536">
        <ele>606</ele>
        <time>2022-02-08T03:22:37Z</time>
      </trkpt>
      <trkpt lat="44.71865" lon="4.42548">
        <ele>603</ele>
        <time>2022-02-08T03:22:40Z</time>
      </trkpt>
      <trkpt lat="44.71855" lon="4.42551">
        <ele>602</ele>
        <time>2022-02-08T03:22:42Z</time>
      </trkpt>
      <trkpt lat="44.71843" lon="4.4255">
        <ele>601</ele>
        <time>2022-02-08T03:22:44Z</time>
      </trkpt>
      <trkpt lat="44.71834" lon="4.42542">
        <ele>601</ele>
        <time>2022-02-08T03:22:46Z</time>
      </trkpt>
      <trkpt lat="44.71822" lon="4.42519">
        <ele>598</ele>
        <time>2022-02-08T03:22:49Z</time>
      </trkpt>
      <trkpt lat="44.71819" lon="4.42504">
        <ele>598</ele>
        <time>2022-02-08T03:22:51Z</time>
      </trkpt>
      <trkpt lat="44.71816" lon="4.4247">
        <ele>597</ele>
        <time>2022-02-08T03:22:56Z</time>
      </trkpt>
      <trkpt lat="44.71818" lon="4.4244">
        <ele>598</ele>
        <time>2022-02-08T03:23:00Z</time>
      </trkpt>
      <trkpt lat="44.71818" lon="4.42413">
        <ele>599</ele>
        <time>2022-02-08T03:23:03Z</time>
      </trkpt>
      <trkpt lat="44.71812" lon="4.42382">
        <ele>597</ele>
        <time>2022-02-08T03:23:07Z</time>
      </trkpt>
      <trkpt lat="44.71811" lon="4.4236">
        <ele>597</ele>
        <time>2022-02-08T03:23:10Z</time>
      </trkpt>
      <trkpt lat="44.71816" lon="4.42297">
        <ele>598</ele>
        <time>2022-02-08T03:23:18Z</time>
      </trkpt>
      <trkpt lat="44.71825" lon="4.4227">
        <ele>600</ele>
        <time>2022-02-08T03:23:22Z</time>
      </trkpt>
      <trkpt lat="44.71837" lon="4.42244">
        <ele>603</ele>
        <time>2022-02-08T03:23:25Z</time>
      </trkpt>
      <trkpt lat="44.71851" lon="4.42224">
        <ele>608</ele>
        <time>2022-02-08T03:23:29Z</time>
      </trkpt>
      <trkpt lat="44.71855" lon="4.42214">
        <ele>609</ele>
        <time>2022-02-08T03:23:30Z</time>
      </trkpt>
      <trkpt lat="44.71856" lon="4.422">
        <ele>610</ele>
        <time>2022-02-08T03:23:32Z</time>
      </trkpt>
      <trkpt lat="44.71854" lon="4.42185">
        <ele>609</ele>
        <time>2022-02-08T03:23:34Z</time>
      </trkpt>
      <trkpt lat="44.7185" lon="4.4217">
        <ele>607</ele>
        <time>2022-02-08T03:23:36Z</time>
      </trkpt>
      <trkpt lat="44.71828" lon="4.42124">
        <ele>604</ele>
        <time>2022-02-08T03:23:43Z</time>
      </trkpt>
      <trkpt lat="44.71824" lon="4.42108">
        <ele>605</ele>
        <time>2022-02-08T03:23:45Z</time>
      </trkpt>
      <trkpt lat="44.71824" lon="4.42057">
        <ele>615</ele>
        <time>2022-02-08T03:23:52Z</time>
      </trkpt>
      <trkpt lat="44.71819" lon="4.42033">
        <ele>619</ele>
        <time>2022-02-08T03:23:55Z</time>
      </trkpt>
      <trkpt lat="44.71812" lon="4.42018">
        <ele>620</ele>
        <time>2022-02-08T03:23:57Z</time>
      </trkpt>
      <trkpt lat="44.71801" lon="4.4201">
        <ele>618</ele>
        <time>2022-02-08T03:23:59Z</time>
      </trkpt>
      <trkpt lat="44.71766" lon="4.41993">
        <ele>610</ele>
        <time>2022-02-08T03:24:06Z</time>
      </trkpt>
      <trkpt lat="44.71743" lon="4.41972">
        <ele>607</ele>
        <time>2022-02-08T03:24:11Z</time>
      </trkpt>
      <trkpt lat="44.71695" lon="4.41923">
        <ele>598</ele>
        <time>2022-02-08T03:24:21Z</time>
      </trkpt>
      <trkpt lat="44.71689" lon="4.41914">
        <ele>597</ele>
        <time>2022-02-08T03:24:23Z</time>
      </trkpt>
      <trkpt lat="44.71677" lon="4.41887">
        <ele>600</ele>
        <time>2022-02-08T03:24:27Z</time>
      </trkpt>
      <trkpt lat="44.71659" lon="4.41837">
        <ele>609</ele>
        <time>2022-02-08T03:24:34Z</time>
      </trkpt>
      <trkpt lat="44.71613" lon="4.41762">
        <ele>617</ele>
        <time>2022-02-08T03:24:47Z</time>
      </trkpt>
      <trkpt lat="44.71605" lon="4.41752">
        <ele>618</ele>
        <time>2022-02-08T03:24:49Z</time>
      </trkpt>
      <trkpt lat="44.71596" lon="4.41748">
        <ele>616</ele>
        <time>2022-02-08T03:24:50Z</time>
      </trkpt>
      <trkpt lat="44.71584" lon="4.41752">
        <ele>611</ele>
        <time>2022-02-08T03:24:52Z</time>
      </trkpt>
      <trkpt lat="44.71552" lon="4.4178">
        <ele>603</ele>
        <time>2022-02-08T03:24:59Z</time>
      </trkpt>
      <trkpt lat="44.71536" lon="4.41791">
        <ele>601</ele>
        <time>2022-02-08T03:25:02Z</time>
      </trkpt>
      <trkpt lat="44.71515" lon="4.41795">
        <ele>601</ele>
        <time>2022-02-08T03:25:06Z</time>
      </trkpt>
      <trkpt lat="44.71453" lon="4.41839">
        <ele>592</ele>
        <time>2022-02-08T03:25:18Z</time>
      </trkpt>
      <trkpt lat="44.71431" lon="4.41846">
        <ele>593</ele>
        <time>2022-02-08T03:25:22Z</time>
      </trkpt>
      <trkpt lat="44.71403" lon="4.41847">
        <ele>591</ele>
        <time>2022-02-08T03:25:27Z</time>
      </trkpt>
      <trkpt lat="44.71378" lon="4.41836">
        <ele>590</ele>
        <time>2022-02-08T03:25:32Z</time>
      </trkpt>
      <trkpt lat="44.71363" lon="4.41826">
        <ele>590</ele>
        <time>2022-02-08T03:25:35Z</time>
      </trkpt>
      <trkpt lat="44.71352" lon="4.41814">
        <ele>591</ele>
        <time>2022-02-08T03:25:38Z</time>
      </trkpt>
      <trkpt lat="44.7132" lon="4.41772">
        <ele>596</ele>
        <time>2022-02-08T03:25:45Z</time>
      </trkpt>
      <trkpt lat="44.7129" lon="4.41726">
        <ele>599</ele>
        <time>2022-02-08T03:25:53Z</time>
      </trkpt>
      <trkpt lat="44.71281" lon="4.41717">
        <ele>599</ele>
        <time>2022-02-08T03:25:55Z</time>
      </trkpt>
      <trkpt lat="44.71249" lon="4.41707">
        <ele>589</ele>
        <time>2022-02-08T03:26:01Z</time>
      </trkpt>
      <trkpt lat="44.71235" lon="4.41697">
        <ele>586</ele>
        <time>2022-02-08T03:26:04Z</time>
      </trkpt>
      <trkpt lat="44.71223" lon="4.41681">
        <ele>585</ele>
        <time>2022-02-08T03:26:07Z</time>
      </trkpt>
      <trkpt lat="44.71218" lon="4.41663">
        <ele>588</ele>
        <time>2022-02-08T03:26:09Z</time>
      </trkpt>
      <trkpt lat="44.71217" lon="4.41649">
        <ele>592</ele>
        <time>2022-02-08T03:26:11Z</time>
      </trkpt>
      <trkpt lat="44.71212" lon="4.41635">
        <ele>595</ele>
        <time>2022-02-08T03:26:13Z</time>
      </trkpt>
      <trkpt lat="44.71154" lon="4.41578">
        <ele>583</ele>
        <time>2022-02-08T03:26:26Z</time>
      </trkpt>
      <trkpt lat="44.71148" lon="4.41563">
        <ele>584</ele>
        <time>2022-02-08T03:26:28Z</time>
      </trkpt>
      <trkpt lat="44.71137" lon="4.41526">
        <ele>589</ele>
        <time>2022-02-08T03:26:33Z</time>
      </trkpt>
      <trkpt lat="44.71118" lon="4.41495">
        <ele>586</ele>
        <time>2022-02-08T03:26:38Z</time>
      </trkpt>
      <trkpt lat="44.7107" lon="4.41396">
        <ele>593</ele>
        <time>2022-02-08T03:26:53Z</time>
      </trkpt>
      <trkpt lat="44.71063" lon="4.41389">
        <ele>595</ele>
        <time>2022-02-08T03:26:55Z</time>
      </trkpt>
      <trkpt lat="44.71057" lon="4.41385">
        <ele>596</ele>
        <time>2022-02-08T03:26:56Z</time>
      </trkpt>
      <trkpt lat="44.71049" lon="4.41388">
        <ele>596</ele>
        <time>2022-02-08T03:26:57Z</time>
      </trkpt>
      <trkpt lat="44.71021" lon="4.41423">
        <ele>586</ele>
        <time>2022-02-08T03:27:04Z</time>
      </trkpt>
      <trkpt lat="44.70987" lon="4.41449">
        <ele>579</ele>
        <time>2022-02-08T03:27:11Z</time>
      </trkpt>
      <trkpt lat="44.70959" lon="4.41461">
        <ele>580</ele>
        <time>2022-02-08T03:27:16Z</time>
      </trkpt>
      <trkpt lat="44.70937" lon="4.41479">
        <ele>579</ele>
        <time>2022-02-08T03:27:21Z</time>
      </trkpt>
      <trkpt lat="44.70917" lon="4.41525">
        <ele>572</ele>
        <time>2022-02-08T03:27:27Z</time>
      </trkpt>
      <trkpt lat="44.70894" lon="4.41566">
        <ele>564</ele>
        <time>2022-02-08T03:27:34Z</time>
      </trkpt>
      <trkpt lat="44.70883" lon="4.41579">
        <ele>562</ele>
        <time>2022-02-08T03:27:37Z</time>
      </trkpt>
      <trkpt lat="44.7087" lon="4.41585">
        <ele>562</ele>
        <time>2022-02-08T03:27:39Z</time>
      </trkpt>
      <trkpt lat="44.70858" lon="4.41583">
        <ele>564</ele>
        <time>2022-02-08T03:27:41Z</time>
      </trkpt>
      <trkpt lat="44.70849" lon="4.41576">
        <ele>566</ele>
        <time>2022-02-08T03:27:43Z</time>
      </trkpt>
      <trkpt lat="44.70832" lon="4.4156">
        <ele>570</ele>
        <time>2022-02-08T03:27:47Z</time>
      </trkpt>
      <trkpt lat="44.70822" lon="4.4155">
        <ele>569</ele>
        <time>2022-02-08T03:27:49Z</time>
      </trkpt>
      <trkpt lat="44.70809" lon="4.41522">
        <ele>570</ele>
        <time>2022-02-08T03:27:53Z</time>
      </trkpt>
      <trkpt lat="44.70793" lon="4.41501">
        <ele>570</ele>
        <time>2022-02-08T03:27:57Z</time>
      </trkpt>
      <trkpt lat="44.7077" lon="4.41474">
        <ele>570</ele>
        <time>2022-02-08T03:28:02Z</time>
      </trkpt>
      <trkpt lat="44.70766" lon="4.4147">
        <ele>570</ele>
        <time>2022-02-08T03:28:03Z</time>
      </trkpt>
      <trkpt lat="44.70752" lon="4.41457">
        <ele>569</ele>
        <time>2022-02-08T03:28:06Z</time>
      </trkpt>
      <trkpt lat="44.7074" lon="4.41457">
        <ele>566</ele>
        <time>2022-02-08T03:28:08Z</time>
      </trkpt>
      <trkpt lat="44.70724" lon="4.41452">
        <ele>562</ele>
        <time>2022-02-08T03:28:11Z</time>
      </trkpt>
      <trkpt lat="44.70707" lon="4.4144">
        <ele>560</ele>
        <time>2022-02-08T03:28:15Z</time>
      </trkpt>
      <trkpt lat="44.70692" lon="4.41414">
        <ele>560</ele>
        <time>2022-02-08T03:28:19Z</time>
      </trkpt>
      <trkpt lat="44.70688" lon="4.41396">
        <ele>560</ele>
        <time>2022-02-08T03:28:21Z</time>
      </trkpt>
      <trkpt lat="44.70681" lon="4.41335">
        <ele>561</ele>
        <time>2022-02-08T03:28:29Z</time>
      </trkpt>
      <trkpt lat="44.7068" lon="4.41277">
        <ele>561</ele>
        <time>2022-02-08T03:28:36Z</time>
      </trkpt>
      <trkpt lat="44.70685" lon="4.41203">
        <ele>560</ele>
        <time>2022-02-08T03:28:46Z</time>
      </trkpt>
      <trkpt lat="44.70706" lon="4.41109">
        <ele>558</ele>
        <time>2022-02-08T03:28:58Z</time>
      </trkpt>
      <trkpt lat="44.70718" lon="4.41086">
        <ele>560</ele>
        <time>2022-02-08T03:29:02Z</time>
      </trkpt>
      <trkpt lat="44.70732" lon="4.41064">
        <ele>565</ele>
        <time>2022-02-08T03:29:06Z</time>
      </trkpt>
      <trkpt lat="44.70738" lon="4.4104">
        <ele>564</ele>
        <time>2022-02-08T03:29:09Z</time>
      </trkpt>
      <trkpt lat="44.70737" lon="4.4099">
        <ele>557</ele>
        <time>2022-02-08T03:29:15Z</time>
      </trkpt>
      <trkpt lat="44.70744" lon="4.40961">
        <ele>560</ele>
        <time>2022-02-08T03:29:19Z</time>
      </trkpt>
      <trkpt lat="44.70743" lon="4.40941">
        <ele>559</ele>
        <time>2022-02-08T03:29:21Z</time>
      </trkpt>
      <trkpt lat="44.70738" lon="4.4091">
        <ele>557</ele>
        <time>2022-02-08T03:29:25Z</time>
      </trkpt>
      <trkpt lat="44.70738" lon="4.40865">
        <ele>560</ele>
        <time>2022-02-08T03:29:31Z</time>
      </trkpt>
      <trkpt lat="44.70739" lon="4.40838">
        <ele>562</ele>
        <time>2022-02-08T03:29:35Z</time>
      </trkpt>
      <trkpt lat="44.70744" lon="4.4081">
        <ele>566</ele>
        <time>2022-02-08T03:29:38Z</time>
      </trkpt>
      <trkpt lat="44.70743" lon="4.40793">
        <ele>568</ele>
        <time>2022-02-08T03:29:40Z</time>
      </trkpt>
      <trkpt lat="44.70737" lon="4.40781">
        <ele>570</ele>
        <time>2022-02-08T03:29:42Z</time>
      </trkpt>
      <trkpt lat="44.7072" lon="4.4077">
        <ele>572</ele>
        <time>2022-02-08T03:29:46Z</time>
      </trkpt>
      <trkpt lat="44.70697" lon="4.40781">
        <ele>569</ele>
        <time>2022-02-08T03:29:50Z</time>
      </trkpt>
      <trkpt lat="44.70651" lon="4.40825">
        <ele>556</ele>
        <time>2022-02-08T03:30:00Z</time>
      </trkpt>
      <trkpt lat="44.70581" lon="4.40879">
        <ele>550</ele>
        <time>2022-02-08T03:30:14Z</time>
      </trkpt>
      <trkpt lat="44.70539" lon="4.40895">
        <ele>546</ele>
        <time>2022-02-08T03:30:22Z</time>
      </trkpt>
      <trkpt lat="44.70505" lon="4.40899">
        <ele>546</ele>
        <time>2022-02-08T03:30:28Z</time>
      </trkpt>
      <trkpt lat="44.70473" lon="4.40898">
        <ele>545</ele>
        <time>2022-02-08T03:30:34Z</time>
      </trkpt>
      <trkpt lat="44.70457" lon="4.40891">
        <ele>547</ele>
        <time>2022-02-08T03:30:37Z</time>
      </trkpt>
      <trkpt lat="44.70442" lon="4.4088">
        <ele>549</ele>
        <time>2022-02-08T03:30:40Z</time>
      </trkpt>
      <trkpt lat="44.70418" lon="4.40849">
        <ele>555</ele>
        <time>2022-02-08T03:30:45Z</time>
      </trkpt>
      <trkpt lat="44.70409" lon="4.40844">
        <ele>558</ele>
        <time>2022-02-08T03:30:47Z</time>
      </trkpt>
      <trkpt lat="44.704" lon="4.40844">
        <ele>560</ele>
        <time>2022-02-08T03:30:49Z</time>
      </trkpt>
      <trkpt lat="44.70388" lon="4.40853">
        <ele>560</ele>
        <time>2022-02-08T03:30:51Z</time>
      </trkpt>
      <trkpt lat="44.70379" lon="4.40868">
        <ele>558</ele>
        <time>2022-02-08T03:30:54Z</time>
      </trkpt>
      <trkpt lat="44.70374" lon="4.40885">
        <ele>556</ele>
        <time>2022-02-08T03:30:56Z</time>
      </trkpt>
      <trkpt lat="44.70371" lon="4.40919">
        <ele>550</ele>
        <time>2022-02-08T03:31:00Z</time>
      </trkpt>
      <trkpt lat="44.70354" lon="4.40977">
        <ele>546</ele>
        <time>2022-02-08T03:31:08Z</time>
      </trkpt>
      <trkpt lat="44.70334" lon="4.41054">
        <ele>543</ele>
        <time>2022-02-08T03:31:19Z</time>
      </trkpt>
      <trkpt lat="44.70326" lon="4.41064">
        <ele>541</ele>
        <time>2022-02-08T03:31:20Z</time>
      </trkpt>
      <trkpt lat="44.70317" lon="4.41068">
        <ele>540</ele>
        <time>2022-02-08T03:31:22Z</time>
      </trkpt>
      <trkpt lat="44.70277" lon="4.4107">
        <ele>537</ele>
        <time>2022-02-08T03:31:29Z</time>
      </trkpt>
      <trkpt lat="44.70235" lon="4.41054">
        <ele>534</ele>
        <time>2022-02-08T03:31:37Z</time>
      </trkpt>
      <trkpt lat="44.70215" lon="4.41037">
        <ele>532</ele>
        <time>2022-02-08T03:31:41Z</time>
      </trkpt>
      <trkpt lat="44.70195" lon="4.41003">
        <ele>535</ele>
        <time>2022-02-08T03:31:47Z</time>
      </trkpt>
      <trkpt lat="44.70185" lon="4.40972">
        <ele>540</ele>
        <time>2022-02-08T03:31:51Z</time>
      </trkpt>
      <trkpt lat="44.70159" lon="4.40931">
        <ele>543</ele>
        <time>2022-02-08T03:31:58Z</time>
      </trkpt>
      <trkpt lat="44.70109" lon="4.40906">
        <ele>538</ele>
        <time>2022-02-08T03:32:07Z</time>
      </trkpt>
      <trkpt lat="44.70093" lon="4.40893">
        <ele>536</ele>
        <time>2022-02-08T03:32:11Z</time>
      </trkpt>
      <trkpt lat="44.70083" lon="4.4088">
        <ele>535</ele>
        <time>2022-02-08T03:32:13Z</time>
      </trkpt>
      <trkpt lat="44.70078" lon="4.40868">
        <ele>533</ele>
        <time>2022-02-08T03:32:15Z</time>
      </trkpt>
      <trkpt lat="44.70075" lon="4.40846">
        <ele>533</ele>
        <time>2022-02-08T03:32:18Z</time>
      </trkpt>
      <trkpt lat="44.70074" lon="4.40813">
        <ele>534</ele>
        <time>2022-02-08T03:32:22Z</time>
      </trkpt>
      <trkpt lat="44.70069" lon="4.40773">
        <ele>532</ele>
        <time>2022-02-08T03:32:27Z</time>
      </trkpt>
      <trkpt lat="44.70069" lon="4.40762">
        <ele>532</ele>
        <time>2022-02-08T03:32:28Z</time>
      </trkpt>
      <trkpt lat="44.70072" lon="4.40746">
        <ele>534</ele>
        <time>2022-02-08T03:32:30Z</time>
      </trkpt>
      <trkpt lat="44.70074" lon="4.40729">
        <ele>535</ele>
        <time>2022-02-08T03:32:33Z</time>
      </trkpt>
      <trkpt lat="44.70074" lon="4.40685">
        <ele>535</ele>
        <time>2022-02-08T03:32:38Z</time>
      </trkpt>
      <trkpt lat="44.70072" lon="4.40653">
        <ele>535</ele>
        <time>2022-02-08T03:32:42Z</time>
      </trkpt>
      <trkpt lat="44.70076" lon="4.4061">
        <ele>540</ele>
        <time>2022-02-08T03:32:48Z</time>
      </trkpt>
      <trkpt lat="44.70071" lon="4.40588">
        <ele>540</ele>
        <time>2022-02-08T03:32:51Z</time>
      </trkpt>
      <trkpt lat="44.70056" lon="4.40553">
        <ele>540</ele>
        <time>2022-02-08T03:32:56Z</time>
      </trkpt>
      <trkpt lat="44.70059" lon="4.40531">
        <ele>544</ele>
        <time>2022-02-08T03:32:59Z</time>
      </trkpt>
      <trkpt lat="44.70057" lon="4.40514">
        <ele>546</ele>
        <time>2022-02-08T03:33:01Z</time>
      </trkpt>
      <trkpt lat="44.70052" lon="4.40499">
        <ele>547</ele>
        <time>2022-02-08T03:33:03Z</time>
      </trkpt>
      <trkpt lat="44.70044" lon="4.4049">
        <ele>548</ele>
        <time>2022-02-08T03:33:05Z</time>
      </trkpt>
      <trkpt lat="44.70026" lon="4.40486">
        <ele>546</ele>
        <time>2022-02-08T03:33:08Z</time>
      </trkpt>
      <trkpt lat="44.70004" lon="4.40491">
        <ele>540</ele>
        <time>2022-02-08T03:33:12Z</time>
      </trkpt>
      <trkpt lat="44.69988" lon="4.40521">
        <ele>535</ele>
        <time>2022-02-08T03:33:17Z</time>
      </trkpt>
      <trkpt lat="44.69965" lon="4.40526">
        <ele>540</ele>
        <time>2022-02-08T03:33:21Z</time>
      </trkpt>
      <trkpt lat="44.69954" lon="4.40532">
        <ele>541</ele>
        <time>2022-02-08T03:33:23Z</time>
      </trkpt>
      <trkpt lat="44.69951" lon="4.4055">
        <ele>538</ele>
        <time>2022-02-08T03:33:25Z</time>
      </trkpt>
      <trkpt lat="44.69958" lon="4.40575">
        <ele>530</ele>
        <time>2022-02-08T03:33:29Z</time>
      </trkpt>
      <trkpt lat="44.69956" lon="4.40586">
        <ele>528</ele>
        <time>2022-02-08T03:33:30Z</time>
      </trkpt>
      <trkpt lat="44.69947" lon="4.40606">
        <ele>525</ele>
        <time>2022-02-08T03:33:33Z</time>
      </trkpt>
      <trkpt lat="44.69841" lon="4.40706">
        <ele>515</ele>
        <time>2022-02-08T03:33:56Z</time>
      </trkpt>
      <trkpt lat="44.69785" lon="4.40747">
        <ele>507</ele>
        <time>2022-02-08T03:34:07Z</time>
      </trkpt>
      <trkpt lat="44.69773" lon="4.40753">
        <ele>507</ele>
        <time>2022-02-08T03:34:09Z</time>
      </trkpt>
      <trkpt lat="44.69742" lon="4.40744">
        <ele>513</ele>
        <time>2022-02-08T03:34:15Z</time>
      </trkpt>
      <trkpt lat="44.6971" lon="4.40748">
        <ele>513</ele>
        <time>2022-02-08T03:34:21Z</time>
      </trkpt>
      <trkpt lat="44.69698" lon="4.40755">
        <ele>512</ele>
        <time>2022-02-08T03:34:23Z</time>
      </trkpt>
      <trkpt lat="44.6969" lon="4.40766">
        <ele>511</ele>
        <time>2022-02-08T03:34:25Z</time>
      </trkpt>
      <trkpt lat="44.69679" lon="4.40821">
        <ele>504</ele>
        <time>2022-02-08T03:34:32Z</time>
      </trkpt>
      <trkpt lat="44.69673" lon="4.4083">
        <ele>504</ele>
        <time>2022-02-08T03:34:34Z</time>
      </trkpt>
      <trkpt lat="44.69667" lon="4.40832">
        <ele>505</ele>
        <time>2022-02-08T03:34:35Z</time>
      </trkpt>
      <trkpt lat="44.69661" lon="4.40832">
        <ele>504</ele>
        <time>2022-02-08T03:34:36Z</time>
      </trkpt>
      <trkpt lat="44.69654" lon="4.40821">
        <ele>505</ele>
        <time>2022-02-08T03:34:38Z</time>
      </trkpt>
      <trkpt lat="44.69652" lon="4.40799">
        <ele>508</ele>
        <time>2022-02-08T03:34:41Z</time>
      </trkpt>
      <trkpt lat="44.69658" lon="4.40748">
        <ele>515</ele>
        <time>2022-02-08T03:34:47Z</time>
      </trkpt>
      <trkpt lat="44.69652" lon="4.40737">
        <ele>517</ele>
        <time>2022-02-08T03:34:49Z</time>
      </trkpt>
      <trkpt lat="44.69638" lon="4.4073">
        <ele>519</ele>
        <time>2022-02-08T03:34:52Z</time>
      </trkpt>
      <trkpt lat="44.69629" lon="4.40732">
        <ele>519</ele>
        <time>2022-02-08T03:34:53Z</time>
      </trkpt>
      <trkpt lat="44.6962" lon="4.4074">
        <ele>518</ele>
        <time>2022-02-08T03:34:55Z</time>
      </trkpt>
      <trkpt lat="44.69611" lon="4.40752">
        <ele>516</ele>
        <time>2022-02-08T03:34:57Z</time>
      </trkpt>
      <trkpt lat="44.69603" lon="4.40759">
        <ele>514</ele>
        <time>2022-02-08T03:34:59Z</time>
      </trkpt>
      <trkpt lat="44.69594" lon="4.40764">
        <ele>513</ele>
        <time>2022-02-08T03:35:01Z</time>
      </trkpt>
      <trkpt lat="44.69577" lon="4.40769">
        <ele>511</ele>
        <time>2022-02-08T03:35:04Z</time>
      </trkpt>
      <trkpt lat="44.69525" lon="4.40777">
        <ele>510</ele>
        <time>2022-02-08T03:35:13Z</time>
      </trkpt>
      <trkpt lat="44.69495" lon="4.40782">
        <ele>508</ele>
        <time>2022-02-08T03:35:18Z</time>
      </trkpt>
      <trkpt lat="44.69463" lon="4.40793">
        <ele>503</ele>
        <time>2022-02-08T03:35:24Z</time>
      </trkpt>
      <trkpt lat="44.69445" lon="4.40791">
        <ele>503</ele>
        <time>2022-02-08T03:35:28Z</time>
      </trkpt>
      <trkpt lat="44.69392" lon="4.40771">
        <ele>501</ele>
        <time>2022-02-08T03:35:37Z</time>
      </trkpt>
      <trkpt lat="44.69377" lon="4.40759">
        <ele>498</ele>
        <time>2022-02-08T03:35:40Z</time>
      </trkpt>
      <trkpt lat="44.69368" lon="4.40742">
        <ele>498</ele>
        <time>2022-02-08T03:35:43Z</time>
      </trkpt>
      <trkpt lat="44.69363" lon="4.40726">
        <ele>500</ele>
        <time>2022-02-08T03:35:45Z</time>
      </trkpt>
      <trkpt lat="44.69355" lon="4.40685">
        <ele>505</ele>
        <time>2022-02-08T03:35:51Z</time>
      </trkpt>
      <trkpt lat="44.69341" lon="4.4064">
        <ele>501</ele>
        <time>2022-02-08T03:35:57Z</time>
      </trkpt>
      <trkpt lat="44.69333" lon="4.40603">
        <ele>496</ele>
        <time>2022-02-08T03:36:02Z</time>
      </trkpt>
      <trkpt lat="44.69333" lon="4.40572">
        <ele>496</ele>
        <time>2022-02-08T03:36:06Z</time>
      </trkpt>
      <trkpt lat="44.69343" lon="4.40531">
        <ele>500</ele>
        <time>2022-02-08T03:36:11Z</time>
      </trkpt>
      <trkpt lat="44.69346" lon="4.40513">
        <ele>501</ele>
        <time>2022-02-08T03:36:13Z</time>
      </trkpt>
      <trkpt lat="44.6934" lon="4.40492">
        <ele>498</ele>
        <time>2022-02-08T03:36:16Z</time>
      </trkpt>
      <trkpt lat="44.69323" lon="4.40433">
        <ele>496</ele>
        <time>2022-02-08T03:36:24Z</time>
      </trkpt>
      <trkpt lat="44.69302" lon="4.40383">
        <ele>489</ele>
        <time>2022-02-08T03:36:32Z</time>
      </trkpt>
      <trkpt lat="44.69287" lon="4.40297">
        <ele>487</ele>
        <time>2022-02-08T03:36:43Z</time>
      </trkpt>
      <trkpt lat="44.69274" lon="4.40252">
        <ele>486</ele>
        <time>2022-02-08T03:36:49Z</time>
      </trkpt>
      <trkpt lat="44.69273" lon="4.40232">
        <ele>486</ele>
        <time>2022-02-08T03:36:52Z</time>
      </trkpt>
      <trkpt lat="44.69281" lon="4.40197">
        <ele>487</ele>
        <time>2022-02-08T03:36:56Z</time>
      </trkpt>
      <trkpt lat="44.6928" lon="4.40181">
        <ele>486</ele>
        <time>2022-02-08T03:36:58Z</time>
      </trkpt>
      <trkpt lat="44.69273" lon="4.40169">
        <ele>485</ele>
        <time>2022-02-08T03:37:00Z</time>
      </trkpt>
      <trkpt lat="44.69271" lon="4.40156">
        <ele>484</ele>
        <time>2022-02-08T03:37:02Z</time>
      </trkpt>
      <trkpt lat="44.69253" lon="4.40172">
        <ele>483</ele>
        <time>2022-02-08T03:37:06Z</time>
      </trkpt>
      <trkpt lat="44.69232" lon="4.40188">
        <ele>482</ele>
        <time>2022-02-08T03:37:10Z</time>
      </trkpt>
      <trkpt lat="44.69206" lon="4.40213">
        <ele>480</ele>
        <time>2022-02-08T03:37:16Z</time>
      </trkpt>
      <trkpt lat="44.69182" lon="4.40222">
        <ele>478</ele>
        <time>2022-02-08T03:37:20Z</time>
      </trkpt>
      <trkpt lat="44.69176" lon="4.40222">
        <ele>478</ele>
        <time>2022-02-08T03:37:21Z</time>
      </trkpt>
      <trkpt lat="44.69149" lon="4.40212">
        <ele>475</ele>
        <time>2022-02-08T03:37:26Z</time>
      </trkpt>
      <trkpt lat="44.69133" lon="4.40196">
        <ele>474</ele>
        <time>2022-02-08T03:37:30Z</time>
      </trkpt>
      <trkpt lat="44.69078" lon="4.40123">
        <ele>464</ele>
        <time>2022-02-08T03:37:43Z</time>
      </trkpt>
      <trkpt lat="44.69076" lon="4.40117">
        <ele>464</ele>
        <time>2022-02-08T03:37:44Z</time>
      </trkpt>
      <trkpt lat="44.69047" lon="4.40116">
        <ele>463</ele>
        <time>2022-02-08T03:37:49Z</time>
      </trkpt>
      <trkpt lat="44.68964" lon="4.40129">
        <ele>461</ele>
        <time>2022-02-08T03:38:04Z</time>
      </trkpt>
      <trkpt lat="44.68953" lon="4.40133">
        <ele>462</ele>
        <time>2022-02-08T03:38:06Z</time>
      </trkpt>
      <trkpt lat="44.68943" lon="4.4014">
        <ele>461</ele>
        <time>2022-02-08T03:38:08Z</time>
      </trkpt>
      <trkpt lat="44.68929" lon="4.40155">
        <ele>460</ele>
        <time>2022-02-08T03:38:11Z</time>
      </trkpt>
      <trkpt lat="44.68872" lon="4.40225">
        <ele>449</ele>
        <time>2022-02-08T03:38:24Z</time>
      </trkpt>
      <trkpt lat="44.6886" lon="4.40235">
        <ele>447</ele>
        <time>2022-02-08T03:38:27Z</time>
      </trkpt>
      <trkpt lat="44.68852" lon="4.40237">
        <ele>447</ele>
        <time>2022-02-08T03:38:28Z</time>
      </trkpt>
      <trkpt lat="44.68842" lon="4.40238">
        <ele>447</ele>
        <time>2022-02-08T03:38:30Z</time>
      </trkpt>
      <trkpt lat="44.68793" lon="4.40216">
        <ele>451</ele>
        <time>2022-02-08T03:38:39Z</time>
      </trkpt>
      <trkpt lat="44.68771" lon="4.40212">
        <ele>451</ele>
        <time>2022-02-08T03:38:43Z</time>
      </trkpt>
      <trkpt lat="44.68703" lon="4.40223">
        <ele>443</ele>
        <time>2022-02-08T03:38:55Z</time>
      </trkpt>
      <trkpt lat="44.68691" lon="4.40227">
        <ele>441</ele>
        <time>2022-02-08T03:38:58Z</time>
      </trkpt>
      <trkpt lat="44.68681" lon="4.40234">
        <ele>439</ele>
        <time>2022-02-08T03:39:00Z</time>
      </trkpt>
      <trkpt lat="44.68655" lon="4.40259">
        <ele>432</ele>
        <time>2022-02-08T03:39:05Z</time>
      </trkpt>
      <trkpt lat="44.68641" lon="4.40267">
        <ele>431</ele>
        <time>2022-02-08T03:39:08Z</time>
      </trkpt>
      <trkpt lat="44.68629" lon="4.40271">
        <ele>430</ele>
        <time>2022-02-08T03:39:10Z</time>
      </trkpt>
      <trkpt lat="44.68613" lon="4.40272">
        <ele>429</ele>
        <time>2022-02-08T03:39:13Z</time>
      </trkpt>
      <trkpt lat="44.68598" lon="4.4027">
        <ele>430</ele>
        <time>2022-02-08T03:39:16Z</time>
      </trkpt>
      <trkpt lat="44.68566" lon="4.40259">
        <ele>432</ele>
        <time>2022-02-08T03:39:22Z</time>
      </trkpt>
      <trkpt lat="44.6851" lon="4.40255">
        <ele>430</ele>
        <time>2022-02-08T03:39:31Z</time>
      </trkpt>
      <trkpt lat="44.68494" lon="4.40258">
        <ele>429</ele>
        <time>2022-02-08T03:39:34Z</time>
      </trkpt>
      <trkpt lat="44.68479" lon="4.40267">
        <ele>427</ele>
        <time>2022-02-08T03:39:37Z</time>
      </trkpt>
      <trkpt lat="44.6846" lon="4.40283">
        <ele>424</ele>
        <time>2022-02-08T03:39:41Z</time>
      </trkpt>
      <trkpt lat="44.6845" lon="4.40294">
        <ele>423</ele>
        <time>2022-02-08T03:39:43Z</time>
      </trkpt>
      <trkpt lat="44.68437" lon="4.40316">
        <ele>419</ele>
        <time>2022-02-08T03:39:47Z</time>
      </trkpt>
      <trkpt lat="44.68427" lon="4.40324">
        <ele>419</ele>
        <time>2022-02-08T03:39:49Z</time>
      </trkpt>
      <trkpt lat="44.68419" lon="4.40325">
        <ele>419</ele>
        <time>2022-02-08T03:39:51Z</time>
      </trkpt>
      <trkpt lat="44.68411" lon="4.40323">
        <ele>418</ele>
        <time>2022-02-08T03:39:52Z</time>
      </trkpt>
      <trkpt lat="44.68404" lon="4.40316">
        <ele>417</ele>
        <time>2022-02-08T03:39:54Z</time>
      </trkpt>
      <trkpt lat="44.68397" lon="4.403">
        <ele>418</ele>
        <time>2022-02-08T03:39:56Z</time>
      </trkpt>
      <trkpt lat="44.68394" lon="4.40272">
        <ele>422</ele>
        <time>2022-02-08T03:39:59Z</time>
      </trkpt>
      <trkpt lat="44.68388" lon="4.40249">
        <ele>424</ele>
        <time>2022-02-08T03:40:03Z</time>
      </trkpt>
      <trkpt lat="44.68374" lon="4.40234">
        <ele>421</ele>
        <time>2022-02-08T03:40:06Z</time>
      </trkpt>
      <trkpt lat="44.68345" lon="4.40219">
        <ele>416</ele>
        <time>2022-02-08T03:40:11Z</time>
      </trkpt>
      <trkpt lat="44.6831" lon="4.40183">
        <ele>412</ele>
        <time>2022-02-08T03:40:19Z</time>
      </trkpt>
      <trkpt lat="44.68299" lon="4.40167">
        <ele>410</ele>
        <time>2022-02-08T03:40:22Z</time>
      </trkpt>
      <trkpt lat="44.68293" lon="4.40152">
        <ele>407</ele>
        <time>2022-02-08T03:40:24Z</time>
      </trkpt>
      <trkpt lat="44.68291" lon="4.4013">
        <ele>404</ele>
        <time>2022-02-08T03:40:27Z</time>
      </trkpt>
      <trkpt lat="44.68293" lon="4.40119">
        <ele>404</ele>
        <time>2022-02-08T03:40:28Z</time>
      </trkpt>
      <trkpt lat="44.68304" lon="4.4009">
        <ele>402</ele>
        <time>2022-02-08T03:40:32Z</time>
      </trkpt>
      <trkpt lat="44.68305" lon="4.40081">
        <ele>401</ele>
        <time>2022-02-08T03:40:33Z</time>
      </trkpt>
      <trkpt lat="44.68318" lon="4.40081">
        <ele>403</ele>
        <time>2022-02-08T03:40:36Z</time>
      </trkpt>
      <trkpt lat="44.68339" lon="4.40093">
        <ele>407</ele>
        <time>2022-02-08T03:40:40Z</time>
      </trkpt>
      <trkpt lat="44.68391" lon="4.40096">
        <ele>407</ele>
        <time>2022-02-08T03:40:49Z</time>
      </trkpt>
      <trkpt lat="44.68425" lon="4.40078">
        <ele>400</ele>
        <time>2022-02-08T03:40:56Z</time>
      </trkpt>
      <trkpt lat="44.68477" lon="4.40071">
        <ele>400</ele>
        <time>2022-02-08T03:41:05Z</time>
      </trkpt>
      <trkpt lat="44.68536" lon="4.40034">
        <ele>404</ele>
        <time>2022-02-08T03:41:16Z</time>
      </trkpt>
      <trkpt lat="44.68551" lon="4.39999">
        <ele>403</ele>
        <time>2022-02-08T03:41:22Z</time>
      </trkpt>
      <trkpt lat="44.68568" lon="4.39914">
        <ele>397</ele>
        <time>2022-02-08T03:41:33Z</time>
      </trkpt>
      <trkpt lat="44.68571" lon="4.39834">
        <ele>383</ele>
        <time>2022-02-08T03:41:43Z</time>
      </trkpt>
      <trkpt lat="44.68579" lon="4.39815">
        <ele>382</ele>
        <time>2022-02-08T03:41:46Z</time>
      </trkpt>
      <trkpt lat="44.68622" lon="4.3978">
        <ele>378</ele>
        <time>2022-02-08T03:41:54Z</time>
      </trkpt>
      <trkpt lat="44.68669" lon="4.39767">
        <ele>378</ele>
        <time>2022-02-08T03:42:03Z</time>
      </trkpt>
      <trkpt lat="44.68741" lon="4.39792">
        <ele>385</ele>
        <time>2022-02-08T03:42:16Z</time>
      </trkpt>
      <trkpt lat="44.6876" lon="4.39793">
        <ele>386</ele>
        <time>2022-02-08T03:42:20Z</time>
      </trkpt>
      <trkpt lat="44.68779" lon="4.39788">
        <ele>386</ele>
        <time>2022-02-08T03:42:23Z</time>
      </trkpt>
      <trkpt lat="44.68809" lon="4.39756">
        <ele>374</ele>
        <time>2022-02-08T03:42:30Z</time>
      </trkpt>
      <trkpt lat="44.68837" lon="4.39717">
        <ele>373</ele>
        <time>2022-02-08T03:42:37Z</time>
      </trkpt>
      <trkpt lat="44.68851" lon="4.39708">
        <ele>373</ele>
        <time>2022-02-08T03:42:39Z</time>
      </trkpt>
      <trkpt lat="44.6886" lon="4.39702">
        <ele>373</ele>
        <time>2022-02-08T03:42:41Z</time>
      </trkpt>
      <trkpt lat="44.68873" lon="4.39675">
        <ele>375</ele>
        <time>2022-02-08T03:42:45Z</time>
      </trkpt>
      <trkpt lat="44.68874" lon="4.39659">
        <ele>379</ele>
        <time>2022-02-08T03:42:47Z</time>
      </trkpt>
      <trkpt lat="44.68865" lon="4.3964">
        <ele>386</ele>
        <time>2022-02-08T03:42:50Z</time>
      </trkpt>
      <trkpt lat="44.68853" lon="4.39632">
        <ele>389</ele>
        <time>2022-02-08T03:42:53Z</time>
      </trkpt>
      <trkpt lat="44.68823" lon="4.39629">
        <ele>388</ele>
        <time>2022-02-08T03:42:58Z</time>
      </trkpt>
      <trkpt lat="44.68793" lon="4.39646">
        <ele>381</ele>
        <time>2022-02-08T03:43:04Z</time>
      </trkpt>
      <trkpt lat="44.68772" lon="4.39672">
        <ele>374</ele>
        <time>2022-02-08T03:43:09Z</time>
      </trkpt>
      <trkpt lat="44.68757" lon="4.39676">
        <ele>374</ele>
        <time>2022-02-08T03:43:11Z</time>
      </trkpt>
      <trkpt lat="44.68705" lon="4.39647">
        <ele>374</ele>
        <time>2022-02-08T03:43:21Z</time>
      </trkpt>
      <trkpt lat="44.687" lon="4.39629">
        <ele>378</ele>
        <time>2022-02-08T03:43:24Z</time>
      </trkpt>
      <trkpt lat="44.687" lon="4.39607">
        <ele>384</ele>
        <time>2022-02-08T03:43:27Z</time>
      </trkpt>
      <trkpt lat="44.68707" lon="4.39567">
        <ele>394</ele>
        <time>2022-02-08T03:43:32Z</time>
      </trkpt>
      <trkpt lat="44.68707" lon="4.39558">
        <ele>395</ele>
        <time>2022-02-08T03:43:33Z</time>
      </trkpt>
      <trkpt lat="44.68703" lon="4.39547">
        <ele>396</ele>
        <time>2022-02-08T03:43:35Z</time>
      </trkpt>
      <trkpt lat="44.68699" lon="4.39542">
        <ele>396</ele>
        <time>2022-02-08T03:43:35Z</time>
      </trkpt>
      <trkpt lat="44.68687" lon="4.39534">
        <ele>396</ele>
        <time>2022-02-08T03:43:38Z</time>
      </trkpt>
      <trkpt lat="44.68682" lon="4.39534">
        <ele>396</ele>
        <time>2022-02-08T03:43:39Z</time>
      </trkpt>
      <trkpt lat="44.68677" lon="4.3954">
        <ele>394</ele>
        <time>2022-02-08T03:43:40Z</time>
      </trkpt>
      <trkpt lat="44.68655" lon="4.39592">
        <ele>384</ele>
        <time>2022-02-08T03:43:48Z</time>
      </trkpt>
      <trkpt lat="44.68644" lon="4.39608">
        <ele>380</ele>
        <time>2022-02-08T03:43:50Z</time>
      </trkpt>
      <trkpt lat="44.68635" lon="4.39613">
        <ele>379</ele>
        <time>2022-02-08T03:43:52Z</time>
      </trkpt>
      <trkpt lat="44.68581" lon="4.3961">
        <ele>383</ele>
        <time>2022-02-08T03:44:02Z</time>
      </trkpt>
      <trkpt lat="44.68568" lon="4.39611">
        <ele>385</ele>
        <time>2022-02-08T03:44:04Z</time>
      </trkpt>
      <trkpt lat="44.68555" lon="4.39616">
        <ele>385</ele>
        <time>2022-02-08T03:44:06Z</time>
      </trkpt>
      <trkpt lat="44.68545" lon="4.39625">
        <ele>383</ele>
        <time>2022-02-08T03:44:09Z</time>
      </trkpt>
      <trkpt lat="44.68527" lon="4.39635">
        <ele>382</ele>
        <time>2022-02-08T03:44:12Z</time>
      </trkpt>
      <trkpt lat="44.68489" lon="4.39632">
        <ele>389</ele>
        <time>2022-02-08T03:44:19Z</time>
      </trkpt>
      <trkpt lat="44.68477" lon="4.39638">
        <ele>389</ele>
        <time>2022-02-08T03:44:21Z</time>
      </trkpt>
      <trkpt lat="44.68436" lon="4.39675">
        <ele>387</ele>
        <time>2022-02-08T03:44:30Z</time>
      </trkpt>
      <trkpt lat="44.68377" lon="4.39749">
        <ele>378</ele>
        <time>2022-02-08T03:44:44Z</time>
      </trkpt>
      <trkpt lat="44.68363" lon="4.39752">
        <ele>377</ele>
        <time>2022-02-08T03:44:46Z</time>
      </trkpt>
      <trkpt lat="44.68349" lon="4.39743">
        <ele>380</ele>
        <time>2022-02-08T03:44:49Z</time>
      </trkpt>
      <trkpt lat="44.68231" lon="4.39635">
        <ele>384</ele>
        <time>2022-02-08T03:45:14Z</time>
      </trkpt>
      <trkpt lat="44.68226" lon="4.39619">
        <ele>385</ele>
        <time>2022-02-08T03:45:16Z</time>
      </trkpt>
      <trkpt lat="44.68223" lon="4.39595">
        <ele>388</ele>
        <time>2022-02-08T03:45:19Z</time>
      </trkpt>
      <trkpt lat="44.68238" lon="4.39529">
        <ele>400</ele>
        <time>2022-02-08T03:45:28Z</time>
      </trkpt>
      <trkpt lat="44.6825" lon="4.39384">
        <ele>413</ele>
        <time>2022-02-08T03:45:47Z</time>
      </trkpt>
      <trkpt lat="44.68248" lon="4.39355">
        <ele>416</ele>
        <time>2022-02-08T03:45:50Z</time>
      </trkpt>
      <trkpt lat="44.6824" lon="4.3934">
        <ele>418</ele>
        <time>2022-02-08T03:45:53Z</time>
      </trkpt>
      <trkpt lat="44.68229" lon="4.39338">
        <ele>418</ele>
        <time>2022-02-08T03:45:55Z</time>
      </trkpt>
      <trkpt lat="44.68198" lon="4.39392">
        <ele>408</ele>
        <time>2022-02-08T03:46:03Z</time>
      </trkpt>
      <trkpt lat="44.68167" lon="4.39405">
        <ele>403</ele>
        <time>2022-02-08T03:46:09Z</time>
      </trkpt>
      <trkpt lat="44.68139" lon="4.39389">
        <ele>402</ele>
        <time>2022-02-08T03:46:15Z</time>
      </trkpt>
      <trkpt lat="44.68098" lon="4.39323">
        <ele>413</ele>
        <time>2022-02-08T03:46:26Z</time>
      </trkpt>
      <trkpt lat="44.68069" lon="4.39311">
        <ele>409</ele>
        <time>2022-02-08T03:46:31Z</time>
      </trkpt>
      <trkpt lat="44.6804" lon="4.39288">
        <ele>406</ele>
        <time>2022-02-08T03:46:37Z</time>
      </trkpt>
      <trkpt lat="44.68029" lon="4.39271">
        <ele>406</ele>
        <time>2022-02-08T03:46:40Z</time>
      </trkpt>
      <trkpt lat="44.68026" lon="4.39253">
        <ele>408</ele>
        <time>2022-02-08T03:46:42Z</time>
      </trkpt>
      <trkpt lat="44.68017" lon="4.39178">
        <ele>416</ele>
        <time>2022-02-08T03:46:52Z</time>
      </trkpt>
      <trkpt lat="44.67972" lon="4.39045">
        <ele>424</ele>
        <time>2022-02-08T03:47:10Z</time>
      </trkpt>
      <trkpt lat="44.67968" lon="4.39029">
        <ele>425</ele>
        <time>2022-02-08T03:47:13Z</time>
      </trkpt>
      <trkpt lat="44.67969" lon="4.38999">
        <ele>430</ele>
        <time>2022-02-08T03:47:16Z</time>
      </trkpt>
      <trkpt lat="44.67966" lon="4.38991">
        <ele>431</ele>
        <time>2022-02-08T03:47:17Z</time>
      </trkpt>
      <trkpt lat="44.67959" lon="4.38984">
        <ele>430</ele>
        <time>2022-02-08T03:47:19Z</time>
      </trkpt>
      <trkpt lat="44.67937" lon="4.38977">
        <ele>425</ele>
        <time>2022-02-08T03:47:23Z</time>
      </trkpt>
      <trkpt lat="44.67924" lon="4.38966">
        <ele>424</ele>
        <time>2022-02-08T03:47:26Z</time>
      </trkpt>
      <trkpt lat="44.6788" lon="4.38904">
        <ele>430</ele>
        <time>2022-02-08T03:47:37Z</time>
      </trkpt>
      <trkpt lat="44.67875" lon="4.38891">
        <ele>429</ele>
        <time>2022-02-08T03:47:39Z</time>
      </trkpt>
      <trkpt lat="44.67874" lon="4.38876">
        <ele>429</ele>
        <time>2022-02-08T03:47:41Z</time>
      </trkpt>
      <trkpt lat="44.67886" lon="4.38741">
        <ele>420</ele>
        <time>2022-02-08T03:47:58Z</time>
      </trkpt>
      <trkpt lat="44.67896" lon="4.38722">
        <ele>420</ele>
        <time>2022-02-08T03:48:01Z</time>
      </trkpt>
      <trkpt lat="44.67925" lon="4.38696">
        <ele>424</ele>
        <time>2022-02-08T03:48:07Z</time>
      </trkpt>
      <trkpt lat="44.67975" lon="4.38644">
        <ele>436</ele>
        <time>2022-02-08T03:48:18Z</time>
      </trkpt>
      <trkpt lat="44.67984" lon="4.38624">
        <ele>439</ele>
        <time>2022-02-08T03:48:21Z</time>
      </trkpt>
      <trkpt lat="44.67985" lon="4.38615">
        <ele>439</ele>
        <time>2022-02-08T03:48:22Z</time>
      </trkpt>
      <trkpt lat="44.67984" lon="4.38605">
        <ele>439</ele>
        <time>2022-02-08T03:48:23Z</time>
      </trkpt>
      <trkpt lat="44.67979" lon="4.38597">
        <ele>438</ele>
        <time>2022-02-08T03:48:25Z</time>
      </trkpt>
      <trkpt lat="44.67974" lon="4.38581">
        <ele>437</ele>
        <time>2022-02-08T03:48:27Z</time>
      </trkpt>
      <trkpt lat="44.67964" lon="4.38566">
        <ele>438</ele>
        <time>2022-02-08T03:48:30Z</time>
      </trkpt>
      <trkpt lat="44.67946" lon="4.38554">
        <ele>437</ele>
        <time>2022-02-08T03:48:33Z</time>
      </trkpt>
      <trkpt lat="44.67905" lon="4.38548">
        <ele>429</ele>
        <time>2022-02-08T03:48:40Z</time>
      </trkpt>
      <trkpt lat="44.67876" lon="4.38529">
        <ele>431</ele>
        <time>2022-02-08T03:48:46Z</time>
      </trkpt>
      <trkpt lat="44.67861" lon="4.38528">
        <ele>430</ele>
        <time>2022-02-08T03:48:49Z</time>
      </trkpt>
      <trkpt lat="44.67812" lon="4.38539">
        <ele>422</ele>
        <time>2022-02-08T03:48:58Z</time>
      </trkpt>
      <trkpt lat="44.67788" lon="4.38541">
        <ele>421</ele>
        <time>2022-02-08T03:49:02Z</time>
      </trkpt>
      <trkpt lat="44.67741" lon="4.38511">
        <ele>424</ele>
        <time>2022-02-08T03:49:11Z</time>
      </trkpt>
      <trkpt lat="44.67733" lon="4.38492">
        <ele>424</ele>
        <time>2022-02-08T03:49:14Z</time>
      </trkpt>
      <trkpt lat="44.67732" lon="4.38481">
        <ele>423</ele>
        <time>2022-02-08T03:49:15Z</time>
      </trkpt>
      <trkpt lat="44.6774" lon="4.38471">
        <ele>422</ele>
        <time>2022-02-08T03:49:17Z</time>
      </trkpt>
      <trkpt lat="44.6776" lon="4.38465">
        <ele>423</ele>
        <time>2022-02-08T03:49:21Z</time>
      </trkpt>
      <trkpt lat="44.67773" lon="4.38449">
        <ele>424</ele>
        <time>2022-02-08T03:49:24Z</time>
      </trkpt>
      <trkpt lat="44.67791" lon="4.38434">
        <ele>426</ele>
        <time>2022-02-08T03:49:28Z</time>
      </trkpt>
      <trkpt lat="44.67806" lon="4.38428">
        <ele>429</ele>
        <time>2022-02-08T03:49:30Z</time>
      </trkpt>
      <trkpt lat="44.67811" lon="4.38419">
        <ele>430</ele>
        <time>2022-02-08T03:49:32Z</time>
      </trkpt>
      <trkpt lat="44.67812" lon="4.38411">
        <ele>431</ele>
        <time>2022-02-08T03:49:33Z</time>
      </trkpt>
      <trkpt lat="44.67811" lon="4.38402">
        <ele>432</ele>
        <time>2022-02-08T03:49:34Z</time>
      </trkpt>
      <trkpt lat="44.67806" lon="4.38393">
        <ele>432</ele>
        <time>2022-02-08T03:49:35Z</time>
      </trkpt>
      <trkpt lat="44.67775" lon="4.3839">
        <ele>426</ele>
        <time>2022-02-08T03:49:41Z</time>
      </trkpt>
      <trkpt lat="44.67739" lon="4.38373">
        <ele>422</ele>
        <time>2022-02-08T03:49:48Z</time>
      </trkpt>
      <trkpt lat="44.67682" lon="4.38297">
        <ele>412</ele>
        <time>2022-02-08T03:50:02Z</time>
      </trkpt>
      <trkpt lat="44.67677" lon="4.38283">
        <ele>410</ele>
        <time>2022-02-08T03:50:04Z</time>
      </trkpt>
      <trkpt lat="44.67678" lon="4.38272">
        <ele>410</ele>
        <time>2022-02-08T03:50:05Z</time>
      </trkpt>
      <trkpt lat="44.67686" lon="4.3825">
        <ele>413</ele>
        <time>2022-02-08T03:50:08Z</time>
      </trkpt>
      <trkpt lat="44.67731" lon="4.38166">
        <ele>422</ele>
        <time>2022-02-08T03:50:22Z</time>
      </trkpt>
      <trkpt lat="44.67733" lon="4.38161">
        <ele>423</ele>
        <time>2022-02-08T03:50:22Z</time>
      </trkpt>
      <trkpt lat="44.67733" lon="4.38152">
        <ele>424</ele>
        <time>2022-02-08T03:50:23Z</time>
      </trkpt>
      <trkpt lat="44.67733" lon="4.38148">
        <ele>425</ele>
        <time>2022-02-08T03:50:24Z</time>
      </trkpt>
      <trkpt lat="44.67729" lon="4.38136">
        <ele>426</ele>
        <time>2022-02-08T03:50:26Z</time>
      </trkpt>
      <trkpt lat="44.67722" lon="4.38131">
        <ele>426</ele>
        <time>2022-02-08T03:50:27Z</time>
      </trkpt>
      <trkpt lat="44.67716" lon="4.38129">
        <ele>426</ele>
        <time>2022-02-08T03:50:28Z</time>
      </trkpt>
      <trkpt lat="44.67706" lon="4.38133">
        <ele>424</ele>
        <time>2022-02-08T03:50:30Z</time>
      </trkpt>
      <trkpt lat="44.67688" lon="4.38147">
        <ele>418</ele>
        <time>2022-02-08T03:50:34Z</time>
      </trkpt>
      <trkpt lat="44.67663" lon="4.38161">
        <ele>411</ele>
        <time>2022-02-08T03:50:38Z</time>
      </trkpt>
      <trkpt lat="44.6765" lon="4.38171">
        <ele>410</ele>
        <time>2022-02-08T03:50:41Z</time>
      </trkpt>
      <trkpt lat="44.67632" lon="4.38194">
        <ele>408</ele>
        <time>2022-02-08T03:50:45Z</time>
      </trkpt>
      <trkpt lat="44.67619" lon="4.38205">
        <ele>407</ele>
        <time>2022-02-08T03:50:48Z</time>
      </trkpt>
      <trkpt lat="44.67595" lon="4.38218">
        <ele>404</ele>
        <time>2022-02-08T03:50:53Z</time>
      </trkpt>
      <trkpt lat="44.67555" lon="4.38225">
        <ele>398</ele>
        <time>2022-02-08T03:51:00Z</time>
      </trkpt>
      <trkpt lat="44.67537" lon="4.38226">
        <ele>396</ele>
        <time>2022-02-08T03:51:03Z</time>
      </trkpt>
      <trkpt lat="44.67529" lon="4.38218">
        <ele>397</ele>
        <time>2022-02-08T03:51:05Z</time>
      </trkpt>
      <trkpt lat="44.67523" lon="4.38208">
        <ele>397</ele>
        <time>2022-02-08T03:51:06Z</time>
      </trkpt>
      <trkpt lat="44.67523" lon="4.3819">
        <ele>399</ele>
        <time>2022-02-08T03:51:09Z</time>
      </trkpt>
      <trkpt lat="44.67526" lon="4.38174">
        <ele>401</ele>
        <time>2022-02-08T03:51:11Z</time>
      </trkpt>
      <trkpt lat="44.67536" lon="4.38147">
        <ele>405</ele>
        <time>2022-02-08T03:51:15Z</time>
      </trkpt>
      <trkpt lat="44.67563" lon="4.38088">
        <ele>414</ele>
        <time>2022-02-08T03:51:24Z</time>
      </trkpt>
      <trkpt lat="44.6757" lon="4.38037">
        <ele>418</ele>
        <time>2022-02-08T03:51:30Z</time>
      </trkpt>
      <trkpt lat="44.67569" lon="4.38027">
        <ele>419</ele>
        <time>2022-02-08T03:51:31Z</time>
      </trkpt>
      <trkpt lat="44.67563" lon="4.38018">
        <ele>419</ele>
        <time>2022-02-08T03:51:33Z</time>
      </trkpt>
      <trkpt lat="44.67535" lon="4.38015">
        <ele>414</ele>
        <time>2022-02-08T03:51:38Z</time>
      </trkpt>
      <trkpt lat="44.67516" lon="4.38015">
        <ele>411</ele>
        <time>2022-02-08T03:51:41Z</time>
      </trkpt>
      <trkpt lat="44.67494" lon="4.38025">
        <ele>407</ele>
        <time>2022-02-08T03:51:45Z</time>
      </trkpt>
      <trkpt lat="44.67482" lon="4.38026">
        <ele>405</ele>
        <time>2022-02-08T03:51:48Z</time>
      </trkpt>
      <trkpt lat="44.67478" lon="4.3802">
        <ele>405</ele>
        <time>2022-02-08T03:51:49Z</time>
      </trkpt>
      <trkpt lat="44.67477" lon="4.38009">
        <ele>406</ele>
        <time>2022-02-08T03:51:50Z</time>
      </trkpt>
      <trkpt lat="44.67496" lon="4.37948">
        <ele>412</ele>
        <time>2022-02-08T03:51:58Z</time>
      </trkpt>
      <trkpt lat="44.67495" lon="4.37923">
        <ele>413</ele>
        <time>2022-02-08T03:52:02Z</time>
      </trkpt>
      <trkpt lat="44.67491" lon="4.37909">
        <ele>414</ele>
        <time>2022-02-08T03:52:04Z</time>
      </trkpt>
      <trkpt lat="44.67477" lon="4.379">
        <ele>413</ele>
        <time>2022-02-08T03:52:06Z</time>
      </trkpt>
      <trkpt lat="44.67449" lon="4.37907">
        <ele>407</ele>
        <time>2022-02-08T03:52:11Z</time>
      </trkpt>
      <trkpt lat="44.67439" lon="4.37897">
        <ele>407</ele>
        <time>2022-02-08T03:52:13Z</time>
      </trkpt>
      <trkpt lat="44.67423" lon="4.37873">
        <ele>409</ele>
        <time>2022-02-08T03:52:18Z</time>
      </trkpt>
      <trkpt lat="44.67411" lon="4.37858">
        <ele>411</ele>
        <time>2022-02-08T03:52:21Z</time>
      </trkpt>
      <trkpt lat="44.67398" lon="4.37847">
        <ele>412</ele>
        <time>2022-02-08T03:52:23Z</time>
      </trkpt>
      <trkpt lat="44.67381" lon="4.37834">
        <ele>414</ele>
        <time>2022-02-08T03:52:27Z</time>
      </trkpt>
      <trkpt lat="44.67379" lon="4.37826">
        <ele>414</ele>
        <time>2022-02-08T03:52:28Z</time>
      </trkpt>
      <trkpt lat="44.67377" lon="4.37816">
        <ele>413</ele>
        <time>2022-02-08T03:52:29Z</time>
      </trkpt>
      <trkpt lat="44.6738" lon="4.37761">
        <ele>412</ele>
        <time>2022-02-08T03:52:36Z</time>
      </trkpt>
      <trkpt lat="44.67378" lon="4.3774">
        <ele>410</ele>
        <time>2022-02-08T03:52:39Z</time>
      </trkpt>
      <trkpt lat="44.67369" lon="4.37695">
        <ele>401</ele>
        <time>2022-02-08T03:52:45Z</time>
      </trkpt>
      <trkpt lat="44.67359" lon="4.37623">
        <ele>388</ele>
        <time>2022-02-08T03:52:54Z</time>
      </trkpt>
      <trkpt lat="44.67358" lon="4.37601">
        <ele>384</ele>
        <time>2022-02-08T03:52:57Z</time>
      </trkpt>
      <trkpt lat="44.6736" lon="4.37585">
        <ele>382</ele>
        <time>2022-02-08T03:52:59Z</time>
      </trkpt>
      <trkpt lat="44.67367" lon="4.37568">
        <ele>380</ele>
        <time>2022-02-08T03:53:01Z</time>
      </trkpt>
      <trkpt lat="44.67375" lon="4.37559">
        <ele>380</ele>
        <time>2022-02-08T03:53:03Z</time>
      </trkpt>
      <trkpt lat="44.6738" lon="4.37552">
        <ele>379</ele>
        <time>2022-02-08T03:53:04Z</time>
      </trkpt>
      <trkpt lat="44.67382" lon="4.37545">
        <ele>378</ele>
        <time>2022-02-08T03:53:05Z</time>
      </trkpt>
      <trkpt lat="44.67379" lon="4.37537">
        <ele>377</ele>
        <time>2022-02-08T03:53:06Z</time>
      </trkpt>
      <trkpt lat="44.67374" lon="4.37532">
        <ele>375</ele>
        <time>2022-02-08T03:53:07Z</time>
      </trkpt>
      <trkpt lat="44.67367" lon="4.37533">
        <ele>375</ele>
        <time>2022-02-08T03:53:09Z</time>
      </trkpt>
      <trkpt lat="44.67361" lon="4.37539">
        <ele>375</ele>
        <time>2022-02-08T03:53:10Z</time>
      </trkpt>
      <trkpt lat="44.67348" lon="4.37577">
        <ele>379</ele>
        <time>2022-02-08T03:53:15Z</time>
      </trkpt>
      <trkpt lat="44.67342" lon="4.37618">
        <ele>384</ele>
        <time>2022-02-08T03:53:21Z</time>
      </trkpt>
      <trkpt lat="44.67342" lon="4.37632">
        <ele>386</ele>
        <time>2022-02-08T03:53:22Z</time>
      </trkpt>
      <trkpt lat="44.67349" lon="4.37703">
        <ele>398</ele>
        <time>2022-02-08T03:53:32Z</time>
      </trkpt>
      <trkpt lat="44.67347" lon="4.37713">
        <ele>399</ele>
        <time>2022-02-08T03:53:33Z</time>
      </trkpt>
      <trkpt lat="44.67345" lon="4.37717">
        <ele>399</ele>
        <time>2022-02-08T03:53:33Z</time>
      </trkpt>
      <trkpt lat="44.67337" lon="4.37722">
        <ele>398</ele>
        <time>2022-02-08T03:53:35Z</time>
      </trkpt>
      <trkpt lat="44.67329" lon="4.37719">
        <ele>397</ele>
        <time>2022-02-08T03:53:36Z</time>
      </trkpt>
      <trkpt lat="44.67321" lon="4.37707">
        <ele>397</ele>
        <time>2022-02-08T03:53:39Z</time>
      </trkpt>
      <trkpt lat="44.67298" lon="4.37662">
        <ele>392</ele>
        <time>2022-02-08T03:53:46Z</time>
      </trkpt>
      <trkpt lat="44.6729" lon="4.37653">
        <ele>391</ele>
        <time>2022-02-08T03:53:47Z</time>
      </trkpt>
      <trkpt lat="44.6728" lon="4.37647">
        <ele>391</ele>
        <time>2022-02-08T03:53:49Z</time>
      </trkpt>
      <trkpt lat="44.67273" lon="4.37637">
        <ele>390</ele>
        <time>2022-02-08T03:53:51Z</time>
      </trkpt>
      <trkpt lat="44.67271" lon="4.37621">
        <ele>387</ele>
        <time>2022-02-08T03:53:53Z</time>
      </trkpt>
      <trkpt lat="44.67271" lon="4.37592">
        <ele>382</ele>
        <time>2022-02-08T03:53:57Z</time>
      </trkpt>
      <trkpt lat="44.67269" lon="4.37584">
        <ele>380</ele>
        <time>2022-02-08T03:53:58Z</time>
      </trkpt>
      <trkpt lat="44.67263" lon="4.37575">
        <ele>379</ele>
        <time>2022-02-08T03:53:59Z</time>
      </trkpt>
      <trkpt lat="44.6725" lon="4.3756">
        <ele>375</ele>
        <time>2022-02-08T03:54:02Z</time>
      </trkpt>
      <trkpt lat="44.6723" lon="4.37537">
        <ele>373</ele>
        <time>2022-02-08T03:54:07Z</time>
      </trkpt>
      <trkpt lat="44.67218" lon="4.37519">
        <ele>371</ele>
        <time>2022-02-08T03:54:10Z</time>
      </trkpt>
      <trkpt lat="44.67174" lon="4.37438">
        <ele>360</ele>
        <time>2022-02-08T03:54:23Z</time>
      </trkpt>
      <trkpt lat="44.67145" lon="4.37396">
        <ele>351</ele>
        <time>2022-02-08T03:54:30Z</time>
      </trkpt>
      <trkpt lat="44.67133" lon="4.37392">
        <ele>351</ele>
        <time>2022-02-08T03:54:33Z</time>
      </trkpt>
      <trkpt lat="44.67121" lon="4.37393">
        <ele>351</ele>
        <time>2022-02-08T03:54:35Z</time>
      </trkpt>
      <trkpt lat="44.67087" lon="4.37426">
        <ele>360</ele>
        <time>2022-02-08T03:54:42Z</time>
      </trkpt>
      <trkpt lat="44.67072" lon="4.37434">
        <ele>365</ele>
        <time>2022-02-08T03:54:45Z</time>
      </trkpt>
      <trkpt lat="44.67051" lon="4.37433">
        <ele>369</ele>
        <time>2022-02-08T03:54:49Z</time>
      </trkpt>
      <trkpt lat="44.67045" lon="4.37427">
        <ele>369</ele>
        <time>2022-02-08T03:54:50Z</time>
      </trkpt>
      <trkpt lat="44.6704" lon="4.37413">
        <ele>367</ele>
        <time>2022-02-08T03:54:52Z</time>
      </trkpt>
      <trkpt lat="44.67039" lon="4.37403">
        <ele>366</ele>
        <time>2022-02-08T03:54:53Z</time>
      </trkpt>
      <trkpt lat="44.67048" lon="4.37361">
        <ele>360</ele>
        <time>2022-02-08T03:54:59Z</time>
      </trkpt>
      <trkpt lat="44.67056" lon="4.37335">
        <ele>354</ele>
        <time>2022-02-08T03:55:02Z</time>
      </trkpt>
      <trkpt lat="44.67061" lon="4.37308">
        <ele>349</ele>
        <time>2022-02-08T03:55:06Z</time>
      </trkpt>
      <trkpt lat="44.67064" lon="4.37282">
        <ele>345</ele>
        <time>2022-02-08T03:55:09Z</time>
      </trkpt>
      <trkpt lat="44.67063" lon="4.37238">
        <ele>340</ele>
        <time>2022-02-08T03:55:15Z</time>
      </trkpt>
      <trkpt lat="44.67065" lon="4.37224">
        <ele>338</ele>
        <time>2022-02-08T03:55:17Z</time>
      </trkpt>
      <trkpt lat="44.67078" lon="4.37195">
        <ele>331</ele>
        <time>2022-02-08T03:55:21Z</time>
      </trkpt>
      <trkpt lat="44.6708" lon="4.37181">
        <ele>329</ele>
        <time>2022-02-08T03:55:23Z</time>
      </trkpt>
      <trkpt lat="44.67079" lon="4.37168">
        <ele>328</ele>
        <time>2022-02-08T03:55:25Z</time>
      </trkpt>
      <trkpt lat="44.67076" lon="4.37154">
        <ele>326</ele>
        <time>2022-02-08T03:55:26Z</time>
      </trkpt>
      <trkpt lat="44.67072" lon="4.37143">
        <ele>325</ele>
        <time>2022-02-08T03:55:28Z</time>
      </trkpt>
      <trkpt lat="44.67067" lon="4.37134">
        <ele>324</ele>
        <time>2022-02-08T03:55:29Z</time>
      </trkpt>
      <trkpt lat="44.67059" lon="4.37132">
        <ele>325</ele>
        <time>2022-02-08T03:55:31Z</time>
      </trkpt>
      <trkpt lat="44.67051" lon="4.37135">
        <ele>327</ele>
        <time>2022-02-08T03:55:32Z</time>
      </trkpt>
      <trkpt lat="44.67013" lon="4.37155">
        <ele>337</ele>
        <time>2022-02-08T03:55:40Z</time>
      </trkpt>
      <trkpt lat="44.66996" lon="4.37155">
        <ele>340</ele>
        <time>2022-02-08T03:55:43Z</time>
      </trkpt>
      <trkpt lat="44.66991" lon="4.37149">
        <ele>341</ele>
        <time>2022-02-08T03:55:44Z</time>
      </trkpt>
      <trkpt lat="44.66987" lon="4.37137">
        <ele>340</ele>
        <time>2022-02-08T03:55:45Z</time>
      </trkpt>
      <trkpt lat="44.66987" lon="4.37125">
        <ele>338</ele>
        <time>2022-02-08T03:55:47Z</time>
      </trkpt>
      <trkpt lat="44.66997" lon="4.37073">
        <ele>328</ele>
        <time>2022-02-08T03:55:54Z</time>
      </trkpt>
      <trkpt lat="44.67007" lon="4.37035">
        <ele>321</ele>
        <time>2022-02-08T03:55:59Z</time>
      </trkpt>
      <trkpt lat="44.67007" lon="4.37024">
        <ele>320</ele>
        <time>2022-02-08T03:56:00Z</time>
      </trkpt>
      <trkpt lat="44.67004" lon="4.37016">
        <ele>320</ele>
        <time>2022-02-08T03:56:01Z</time>
      </trkpt>
      <trkpt lat="44.6699" lon="4.36997">
        <ele>321</ele>
        <time>2022-02-08T03:56:05Z</time>
      </trkpt>
      <trkpt lat="44.66974" lon="4.36908">
        <ele>309</ele>
        <time>2022-02-08T03:56:16Z</time>
      </trkpt>
      <trkpt lat="44.66971" lon="4.36899">
        <ele>308</ele>
        <time>2022-02-08T03:56:18Z</time>
      </trkpt>
      <trkpt lat="44.66966" lon="4.36891">
        <ele>307</ele>
        <time>2022-02-08T03:56:19Z</time>
      </trkpt>
      <trkpt lat="44.66961" lon="4.36887">
        <ele>308</ele>
        <time>2022-02-08T03:56:20Z</time>
      </trkpt>
      <trkpt lat="44.66945" lon="4.36882">
        <ele>310</ele>
        <time>2022-02-08T03:56:23Z</time>
      </trkpt>
      <trkpt lat="44.66937" lon="4.36876">
        <ele>311</ele>
        <time>2022-02-08T03:56:25Z</time>
      </trkpt>
      <trkpt lat="44.66911" lon="4.36826">
        <ele>304</ele>
        <time>2022-02-08T03:56:32Z</time>
      </trkpt>
      <trkpt lat="44.66904" lon="4.36817">
        <ele>302</ele>
        <time>2022-02-08T03:56:34Z</time>
      </trkpt>
      <trkpt lat="44.66896" lon="4.3681">
        <ele>301</ele>
        <time>2022-02-08T03:56:36Z</time>
      </trkpt>
      <trkpt lat="44.66887" lon="4.36804">
        <ele>300</ele>
        <time>2022-02-08T03:56:38Z</time>
      </trkpt>
      <trkpt lat="44.66876" lon="4.36801">
        <ele>300</ele>
        <time>2022-02-08T03:56:40Z</time>
      </trkpt>
      <trkpt lat="44.66822" lon="4.36792">
        <ele>299</ele>
        <time>2022-02-08T03:56:49Z</time>
      </trkpt>
      <trkpt lat="44.66812" lon="4.36794">
        <ele>298</ele>
        <time>2022-02-08T03:56:51Z</time>
      </trkpt>
      <trkpt lat="44.66804" lon="4.36798">
        <ele>297</ele>
        <time>2022-02-08T03:56:53Z</time>
      </trkpt>
      <trkpt lat="44.66794" lon="4.36808">
        <ele>297</ele>
        <time>2022-02-08T03:56:55Z</time>
      </trkpt>
      <trkpt lat="44.66788" lon="4.3682">
        <ele>298</ele>
        <time>2022-02-08T03:56:57Z</time>
      </trkpt>
      <trkpt lat="44.6678" lon="4.36868">
        <ele>304</ele>
        <time>2022-02-08T03:57:03Z</time>
      </trkpt>
      <trkpt lat="44.66777" lon="4.36875">
        <ele>305</ele>
        <time>2022-02-08T03:57:04Z</time>
      </trkpt>
      <trkpt lat="44.66772" lon="4.3688">
        <ele>305</ele>
        <time>2022-02-08T03:57:05Z</time>
      </trkpt>
      <trkpt lat="44.66759" lon="4.36884">
        <ele>303</ele>
        <time>2022-02-08T03:57:07Z</time>
      </trkpt>
      <trkpt lat="44.66672" lon="4.36833">
        <ele>287</ele>
        <time>2022-02-08T03:57:24Z</time>
      </trkpt>
      <trkpt lat="44.66646" lon="4.36826">
        <ele>285</ele>
        <time>2022-02-08T03:57:29Z</time>
      </trkpt>
      <trkpt lat="44.66622" lon="4.36825">
        <ele>283</ele>
        <time>2022-02-08T03:57:33Z</time>
      </trkpt>
      <trkpt lat="44.66535" lon="4.36862">
        <ele>280</ele>
        <time>2022-02-08T03:57:49Z</time>
      </trkpt>
      <trkpt lat="44.66532" lon="4.36836">
        <ele>278</ele>
        <time>2022-02-08T03:57:53Z</time>
      </trkpt>
      <trkpt lat="44.66532" lon="4.36806">
        <ele>276</ele>
        <time>2022-02-08T03:57:56Z</time>
      </trkpt>
      <trkpt lat="44.66536" lon="4.36776">
        <ele>274</ele>
        <time>2022-02-08T03:58:00Z</time>
      </trkpt>
      <trkpt lat="44.66541" lon="4.36769">
        <ele>274</ele>
        <time>2022-02-08T03:58:02Z</time>
      </trkpt>
      <trkpt lat="44.66583" lon="4.36739">
        <ele>274</ele>
        <time>2022-02-08T03:58:10Z</time>
      </trkpt>
      <trkpt lat="44.66592" lon="4.36725">
        <ele>273</ele>
        <time>2022-02-08T03:58:12Z</time>
      </trkpt>
      <trkpt lat="44.66602" lon="4.36692">
        <ele>271</ele>
        <time>2022-02-08T03:58:17Z</time>
      </trkpt>
      <trkpt lat="44.6661" lon="4.36677">
        <ele>270</ele>
        <time>2022-02-08T03:58:19Z</time>
      </trkpt>
      <trkpt lat="44.66643" lon="4.36642">
        <ele>268</ele>
        <time>2022-02-08T03:58:27Z</time>
      </trkpt>
      <trkpt lat="44.66636" lon="4.36603">
        <ele>265</ele>
        <time>2022-02-08T03:58:32Z</time>
      </trkpt>
      <trkpt lat="44.66628" lon="4.36605">
        <ele>264</ele>
        <time>2022-02-08T03:58:33Z</time>
      </trkpt>
      <trkpt lat="44.66609" lon="4.3661">
        <ele>264</ele>
        <time>2022-02-08T03:58:37Z</time>
      </trkpt>
      <trkpt lat="44.66606" lon="4.3661">
        <ele>264</ele>
        <time>2022-02-08T03:58:37Z</time>
      </trkpt>
      <trkpt lat="44.66594" lon="4.36611">
        <ele>264</ele>
        <time>2022-02-08T03:58:39Z</time>
      </trkpt>
      <trkpt lat="44.66581" lon="4.36611">
        <ele>263</ele>
        <time>2022-02-08T03:58:42Z</time>
      </trkpt>
      <trkpt lat="44.6657" lon="4.36611">
        <ele>263</ele>
        <time>2022-02-08T03:58:43Z</time>
      </trkpt>
      <trkpt lat="44.66558" lon="4.36611">
        <ele>262</ele>
        <time>2022-02-08T03:58:46Z</time>
      </trkpt>
      <trkpt lat="44.66549" lon="4.36611">
        <ele>262</ele>
        <time>2022-02-08T03:58:47Z</time>
      </trkpt>
      <trkpt lat="44.66534" lon="4.3662">
        <ele>262</ele>
        <time>2022-02-08T03:58:50Z</time>
      </trkpt>
      <trkpt lat="44.66471" lon="4.36682">
        <ele>262</ele>
        <time>2022-02-08T03:59:04Z</time>
      </trkpt>
      <trkpt lat="44.66451" lon="4.36702">
        <ele>261</ele>
        <time>2022-02-08T03:59:08Z</time>
      </trkpt>
      <trkpt lat="44.66411" lon="4.36741">
        <ele>260</ele>
        <time>2022-02-08T03:59:17Z</time>
      </trkpt>
      <trkpt lat="44.66409" lon="4.36744">
        <ele>260</ele>
        <time>2022-02-08T03:59:17Z</time>
      </trkpt>
      <trkpt lat="44.66382" lon="4.3677">
        <ele>261</ele>
        <time>2022-02-08T03:59:23Z</time>
      </trkpt>
      <trkpt lat="44.66361" lon="4.3679">
        <ele>262</ele>
        <time>2022-02-08T03:59:28Z</time>
      </trkpt>
      <trkpt lat="44.66353" lon="4.36797">
        <ele>262</ele>
        <time>2022-02-08T03:59:29Z</time>
      </trkpt>
      <trkpt lat="44.66333" lon="4.3681">
        <ele>262</ele>
        <time>2022-02-08T03:59:33Z</time>
      </trkpt>
      <trkpt lat="44.6631" lon="4.36816">
        <ele>261</ele>
        <time>2022-02-08T03:59:37Z</time>
      </trkpt>
      <trkpt lat="44.66295" lon="4.36816">
        <ele>261</ele>
        <time>2022-02-08T03:59:40Z</time>
      </trkpt>
      <trkpt lat="44.66283" lon="4.36814">
        <ele>260</ele>
        <time>2022-02-08T03:59:42Z</time>
      </trkpt>
      <trkpt lat="44.66248" lon="4.36803">
        <ele>257</ele>
        <time>2022-02-08T03:59:49Z</time>
      </trkpt>
      <trkpt lat="44.66239" lon="4.36804">
        <ele>257</ele>
        <time>2022-02-08T03:59:50Z</time>
      </trkpt>
      <trkpt lat="44.6623" lon="4.36807">
        <ele>257</ele>
        <time>2022-02-08T03:59:52Z</time>
      </trkpt>
      <trkpt lat="44.66186" lon="4.36831">
        <ele>258</ele>
        <time>2022-02-08T04:00:00Z</time>
      </trkpt>
      <trkpt lat="44.66165" lon="4.36836">
        <ele>258</ele>
        <time>2022-02-08T04:00:04Z</time>
      </trkpt>
      <trkpt lat="44.66113" lon="4.36827">
        <ele>256</ele>
        <time>2022-02-08T04:00:13Z</time>
      </trkpt>
      <trkpt lat="44.65976" lon="4.36797">
        <ele>254</ele>
        <time>2022-02-08T04:00:38Z</time>
      </trkpt>
      <trkpt lat="44.65973" lon="4.36794">
        <ele>254</ele>
        <time>2022-02-08T04:00:39Z</time>
      </trkpt>
      <trkpt lat="44.6597" lon="4.36791">
        <ele>254</ele>
        <time>2022-02-08T04:00:39Z</time>
      </trkpt>
      <trkpt lat="44.6597" lon="4.36784">
        <ele>253</ele>
        <time>2022-02-08T04:00:40Z</time>
      </trkpt>
      <trkpt lat="44.6597" lon="4.36765">
        <ele>250</ele>
        <time>2022-02-08T04:00:43Z</time>
      </trkpt>
      <trkpt lat="44.65974" lon="4.36712">
        <ele>254</ele>
        <time>2022-02-08T04:00:49Z</time>
      </trkpt>
      <trkpt lat="44.65978" lon="4.36698">
        <ele>255</ele>
        <time>2022-02-08T04:00:51Z</time>
      </trkpt>
      <trkpt lat="44.65853" lon="4.3667">
        <ele>253</ele>
        <time>2022-02-08T04:01:14Z</time>
      </trkpt>
      <trkpt lat="44.65841" lon="4.3667">
        <ele>252</ele>
        <time>2022-02-08T04:01:16Z</time>
      </trkpt>
      <trkpt lat="44.65821" lon="4.36665">
        <ele>252</ele>
        <time>2022-02-08T04:01:20Z</time>
      </trkpt>
      <trkpt lat="44.65796" lon="4.36656">
        <ele>254</ele>
        <time>2022-02-08T04:01:24Z</time>
      </trkpt>
      <trkpt lat="44.6573" lon="4.36622">
        <ele>255</ele>
        <time>2022-02-08T04:01:37Z</time>
      </trkpt>
      <trkpt lat="44.65643" lon="4.36566">
        <ele>253</ele>
        <time>2022-02-08T04:01:54Z</time>
      </trkpt>
      <trkpt lat="44.65598" lon="4.36542">
        <ele>253</ele>
        <time>2022-02-08T04:02:02Z</time>
      </trkpt>
      <trkpt lat="44.65446" lon="4.36487">
        <ele>252</ele>
        <time>2022-02-08T04:02:30Z</time>
      </trkpt>
      <trkpt lat="44.65418" lon="4.36489">
        <ele>252</ele>
        <time>2022-02-08T04:02:35Z</time>
      </trkpt>
      <trkpt lat="44.65396" lon="4.36497">
        <ele>250</ele>
        <time>2022-02-08T04:02:39Z</time>
      </trkpt>
      <trkpt lat="44.65312" lon="4.36535">
        <ele>244</ele>
        <time>2022-02-08T04:02:55Z</time>
      </trkpt>
      <trkpt lat="44.65301" lon="4.36536">
        <ele>243</ele>
        <time>2022-02-08T04:02:57Z</time>
      </trkpt>
      <trkpt lat="44.65289" lon="4.36532">
        <ele>243</ele>
        <time>2022-02-08T04:02:59Z</time>
      </trkpt>
      <trkpt lat="44.65288" lon="4.3653">
        <ele>243</ele>
        <time>2022-02-08T04:02:59Z</time>
      </trkpt>
      <trkpt lat="44.65279" lon="4.36526">
        <ele>243</ele>
        <time>2022-02-08T04:03:01Z</time>
      </trkpt>
      <trkpt lat="44.65275" lon="4.36529">
        <ele>242</ele>
        <time>2022-02-08T04:03:02Z</time>
      </trkpt>
      <trkpt lat="44.65274" lon="4.36535">
        <ele>241</ele>
        <time>2022-02-08T04:03:03Z</time>
      </trkpt>
      <trkpt lat="44.65232" lon="4.36516">
        <ele>240</ele>
        <time>2022-02-08T04:03:11Z</time>
      </trkpt>
      <trkpt lat="44.65218" lon="4.36518">
        <ele>238</ele>
        <time>2022-02-08T04:03:13Z</time>
      </trkpt>
      <trkpt lat="44.65196" lon="4.3653">
        <ele>235</ele>
        <time>2022-02-08T04:03:17Z</time>
      </trkpt>
      <trkpt lat="44.65064" lon="4.36595">
        <ele>238</ele>
        <time>2022-02-08T04:03:42Z</time>
      </trkpt>
      <trkpt lat="44.65055" lon="4.36599">
        <ele>239</ele>
        <time>2022-02-08T04:03:44Z</time>
      </trkpt>
      <trkpt lat="44.65042" lon="4.36605">
        <ele>239</ele>
        <time>2022-02-08T04:03:46Z</time>
      </trkpt>
      <trkpt lat="44.65036" lon="4.36605">
        <ele>239</ele>
        <time>2022-02-08T04:03:47Z</time>
      </trkpt>
      <trkpt lat="44.65028" lon="4.36603">
        <ele>240</ele>
        <time>2022-02-08T04:03:49Z</time>
      </trkpt>
      <trkpt lat="44.65021" lon="4.36612">
        <ele>240</ele>
        <time>2022-02-08T04:03:50Z</time>
      </trkpt>
      <trkpt lat="44.65011" lon="4.36623">
        <ele>240</ele>
        <time>2022-02-08T04:03:53Z</time>
      </trkpt>
      <trkpt lat="44.65002" lon="4.36635">
        <ele>240</ele>
        <time>2022-02-08T04:03:55Z</time>
      </trkpt>
      <trkpt lat="44.64972" lon="4.36657">
        <ele>242</ele>
        <time>2022-02-08T04:04:01Z</time>
      </trkpt>
      <trkpt lat="44.64952" lon="4.36665">
        <ele>243</ele>
        <time>2022-02-08T04:04:05Z</time>
      </trkpt>
      <trkpt lat="44.6494" lon="4.36671">
        <ele>243</ele>
        <time>2022-02-08T04:04:07Z</time>
      </trkpt>
      <trkpt lat="44.64921" lon="4.36679">
        <ele>244</ele>
        <time>2022-02-08T04:04:10Z</time>
      </trkpt>
      <trkpt lat="44.64915" lon="4.36682">
        <ele>244</ele>
        <time>2022-02-08T04:04:12Z</time>
      </trkpt>
      <trkpt lat="44.64909" lon="4.36684">
        <ele>245</ele>
        <time>2022-02-08T04:04:13Z</time>
      </trkpt>
      <trkpt lat="44.649" lon="4.36689">
        <ele>245</ele>
        <time>2022-02-08T04:04:14Z</time>
      </trkpt>
      <trkpt lat="44.64888" lon="4.36694">
        <ele>246</ele>
        <time>2022-02-08T04:04:17Z</time>
      </trkpt>
      <trkpt lat="44.64876" lon="4.367">
        <ele>247</ele>
        <time>2022-02-08T04:04:19Z</time>
      </trkpt>
      <trkpt lat="44.64861" lon="4.36708">
        <ele>247</ele>
        <time>2022-02-08T04:04:22Z</time>
      </trkpt>
      <trkpt lat="44.64855" lon="4.3671">
        <ele>247</ele>
        <time>2022-02-08T04:04:23Z</time>
      </trkpt>
      <trkpt lat="44.64801" lon="4.36734">
        <ele>248</ele>
        <time>2022-02-08T04:04:33Z</time>
      </trkpt>
      <trkpt lat="44.6473" lon="4.36766">
        <ele>246</ele>
        <time>2022-02-08T04:04:46Z</time>
      </trkpt>
      <trkpt lat="44.64715" lon="4.36772">
        <ele>247</ele>
        <time>2022-02-08T04:04:49Z</time>
      </trkpt>
      <trkpt lat="44.64712" lon="4.36773">
        <ele>247</ele>
        <time>2022-02-08T04:04:49Z</time>
      </trkpt>
      <trkpt lat="44.64696" lon="4.36785">
        <ele>247</ele>
        <time>2022-02-08T04:04:53Z</time>
      </trkpt>
      <trkpt lat="44.64679" lon="4.368">
        <ele>246</ele>
        <time>2022-02-08T04:04:56Z</time>
      </trkpt>
      <trkpt lat="44.6467" lon="4.36812">
        <ele>246</ele>
        <time>2022-02-08T04:04:58Z</time>
      </trkpt>
      <trkpt lat="44.64655" lon="4.36837">
        <ele>245</ele>
        <time>2022-02-08T04:05:03Z</time>
      </trkpt>
      <trkpt lat="44.64642" lon="4.36863">
        <ele>245</ele>
        <time>2022-02-08T04:05:07Z</time>
      </trkpt>
      <trkpt lat="44.64635" lon="4.36873">
        <ele>245</ele>
        <time>2022-02-08T04:05:08Z</time>
      </trkpt>
      <trkpt lat="44.64629" lon="4.3688">
        <ele>246</ele>
        <time>2022-02-08T04:05:10Z</time>
      </trkpt>
      <trkpt lat="44.64619" lon="4.36889">
        <ele>246</ele>
        <time>2022-02-08T04:05:12Z</time>
      </trkpt>
      <trkpt lat="44.64569" lon="4.36918">
        <ele>248</ele>
        <time>2022-02-08T04:05:22Z</time>
      </trkpt>
      <trkpt lat="44.64556" lon="4.36925">
        <ele>247</ele>
        <time>2022-02-08T04:05:24Z</time>
      </trkpt>
      <trkpt lat="44.64544" lon="4.36924">
        <ele>247</ele>
        <time>2022-02-08T04:05:26Z</time>
      </trkpt>
      <trkpt lat="44.64537" lon="4.36923">
        <ele>247</ele>
        <time>2022-02-08T04:05:27Z</time>
      </trkpt>
      <trkpt lat="44.64532" lon="4.36919">
        <ele>247</ele>
        <time>2022-02-08T04:05:28Z</time>
      </trkpt>
      <trkpt lat="44.64527" lon="4.36913">
        <ele>248</ele>
        <time>2022-02-08T04:05:30Z</time>
      </trkpt>
      <trkpt lat="44.64528" lon="4.36905">
        <ele>248</ele>
        <time>2022-02-08T04:05:31Z</time>
      </trkpt>
      <trkpt lat="44.64527" lon="4.36897">
        <ele>249</ele>
        <time>2022-02-08T04:05:32Z</time>
      </trkpt>
      <trkpt lat="44.64524" lon="4.3689">
        <ele>249</ele>
        <time>2022-02-08T04:05:33Z</time>
      </trkpt>
      <trkpt lat="44.64519" lon="4.36884">
        <ele>249</ele>
        <time>2022-02-08T04:05:34Z</time>
      </trkpt>
      <trkpt lat="44.64514" lon="4.36881">
        <ele>250</ele>
        <time>2022-02-08T04:05:35Z</time>
      </trkpt>
      <trkpt lat="44.64508" lon="4.3688">
        <ele>250</ele>
        <time>2022-02-08T04:05:36Z</time>
      </trkpt>
      <trkpt lat="44.64502" lon="4.36883">
        <ele>249</ele>
        <time>2022-02-08T04:05:37Z</time>
      </trkpt>
      <trkpt lat="44.64497" lon="4.36888">
        <ele>249</ele>
        <time>2022-02-08T04:05:38Z</time>
      </trkpt>
      <trkpt lat="44.64492" lon="4.36899">
        <ele>249</ele>
        <time>2022-02-08T04:05:40Z</time>
      </trkpt>
      <trkpt lat="44.64491" lon="4.36906">
        <ele>248</ele>
        <time>2022-02-08T04:05:41Z</time>
      </trkpt>
      <trkpt lat="44.64493" lon="4.36918">
        <ele>247</ele>
        <time>2022-02-08T04:05:42Z</time>
      </trkpt>
      <trkpt lat="44.64486" lon="4.3693">
        <ele>247</ele>
        <time>2022-02-08T04:05:44Z</time>
      </trkpt>
      <trkpt lat="44.6448" lon="4.36936">
        <ele>247</ele>
        <time>2022-02-08T04:05:46Z</time>
      </trkpt>
      <trkpt lat="44.64428" lon="4.36929">
        <ele>249</ele>
        <time>2022-02-08T04:05:55Z</time>
      </trkpt>
      <trkpt lat="44.64365" lon="4.36912">
        <ele>252</ele>
        <time>2022-02-08T04:06:06Z</time>
      </trkpt>
      <trkpt lat="44.6435" lon="4.36907">
        <ele>254</ele>
        <time>2022-02-08T04:06:09Z</time>
      </trkpt>
      <trkpt lat="44.64329" lon="4.36883">
        <ele>258</ele>
        <time>2022-02-08T04:06:14Z</time>
      </trkpt>
      <trkpt lat="44.6431" lon="4.36876">
        <ele>260</ele>
        <time>2022-02-08T04:06:17Z</time>
      </trkpt>
      <trkpt lat="44.64107" lon="4.36959">
        <ele>266</ele>
        <time>2022-02-08T04:06:55Z</time>
      </trkpt>
      <trkpt lat="44.64098" lon="4.3694">
        <ele>270</ele>
        <time>2022-02-08T04:06:58Z</time>
      </trkpt>
      <trkpt lat="44.64089" lon="4.3694">
        <ele>271</ele>
        <time>2022-02-08T04:06:59Z</time>
      </trkpt>
      <trkpt lat="44.64077" lon="4.36919">
        <ele>275</ele>
        <time>2022-02-08T04:07:03Z</time>
      </trkpt>
      <trkpt lat="44.64071" lon="4.36919">
        <ele>276</ele>
        <time>2022-02-08T04:07:04Z</time>
      </trkpt>
      <trkpt lat="44.64064" lon="4.36914">
        <ele>278</ele>
        <time>2022-02-08T04:07:05Z</time>
      </trkpt>
      <trkpt lat="44.64061" lon="4.36908">
        <ele>279</ele>
        <time>2022-02-08T04:07:06Z</time>
      </trkpt>
      <trkpt lat="44.64052" lon="4.36912">
        <ele>280</ele>
        <time>2022-02-08T04:07:08Z</time>
      </trkpt>
      <trkpt lat="44.64042" lon="4.36911">
        <ele>281</ele>
        <time>2022-02-08T04:07:10Z</time>
      </trkpt>
      <trkpt lat="44.6402" lon="4.36898">
        <ele>286</ele>
        <time>2022-02-08T04:07:14Z</time>
      </trkpt>
      <trkpt lat="44.63986" lon="4.36821">
        <ele>297</ele>
        <time>2022-02-08T04:07:25Z</time>
      </trkpt>
      <trkpt lat="44.63974" lon="4.36812">
        <ele>298</ele>
        <time>2022-02-08T04:07:28Z</time>
      </trkpt>
      <trkpt lat="44.63966" lon="4.36803">
        <ele>299</ele>
        <time>2022-02-08T04:07:30Z</time>
      </trkpt>
      <trkpt lat="44.63938" lon="4.36839">
        <ele>295</ele>
        <time>2022-02-08T04:07:36Z</time>
      </trkpt>
      <trkpt lat="44.63915" lon="4.36876">
        <ele>294</ele>
        <time>2022-02-08T04:07:43Z</time>
      </trkpt>
      <trkpt lat="44.63905" lon="4.36882">
        <ele>293</ele>
        <time>2022-02-08T04:07:45Z</time>
      </trkpt>
      <trkpt lat="44.63895" lon="4.36878">
        <ele>292</ele>
        <time>2022-02-08T04:07:46Z</time>
      </trkpt>
      <trkpt lat="44.63882" lon="4.36866">
        <ele>292</ele>
        <time>2022-02-08T04:07:49Z</time>
      </trkpt>
      <trkpt lat="44.63866" lon="4.36835">
        <ele>294</ele>
        <time>2022-02-08T04:07:54Z</time>
      </trkpt>
      <trkpt lat="44.63858" lon="4.36822">
        <ele>295</ele>
        <time>2022-02-08T04:07:56Z</time>
      </trkpt>
      <trkpt lat="44.63809" lon="4.36806">
        <ele>295</ele>
        <time>2022-02-08T04:08:05Z</time>
      </trkpt>
      <trkpt lat="44.63793" lon="4.36796">
        <ele>296</ele>
        <time>2022-02-08T04:08:08Z</time>
      </trkpt>
      <trkpt lat="44.6373" lon="4.36716">
        <ele>303</ele>
        <time>2022-02-08T04:08:23Z</time>
      </trkpt>
      <trkpt lat="44.63693" lon="4.36683">
        <ele>303</ele>
        <time>2022-02-08T04:08:31Z</time>
      </trkpt>
      <trkpt lat="44.6368" lon="4.36667">
        <ele>304</ele>
        <time>2022-02-08T04:08:34Z</time>
      </trkpt>
      <trkpt lat="44.6366" lon="4.36661">
        <ele>302</ele>
        <time>2022-02-08T04:08:38Z</time>
      </trkpt>
      <trkpt lat="44.63647" lon="4.36667">
        <ele>302</ele>
        <time>2022-02-08T04:08:40Z</time>
      </trkpt>
      <trkpt lat="44.63632" lon="4.36689">
        <ele>299</ele>
        <time>2022-02-08T04:08:44Z</time>
      </trkpt>
      <trkpt lat="44.63613" lon="4.36739">
        <ele>295</ele>
        <time>2022-02-08T04:08:51Z</time>
      </trkpt>
      <trkpt lat="44.63593" lon="4.36782">
        <ele>291</ele>
        <time>2022-02-08T04:08:58Z</time>
      </trkpt>
      <trkpt lat="44.6359" lon="4.36793">
        <ele>290</ele>
        <time>2022-02-08T04:08:59Z</time>
      </trkpt>
      <trkpt lat="44.63556" lon="4.36745">
        <ele>292</ele>
        <time>2022-02-08T04:09:08Z</time>
      </trkpt>
      <trkpt lat="44.6355" lon="4.3673">
        <ele>292</ele>
        <time>2022-02-08T04:09:10Z</time>
      </trkpt>
      <trkpt lat="44.63551" lon="4.36687">
        <ele>293</ele>
        <time>2022-02-08T04:09:16Z</time>
      </trkpt>
      <trkpt lat="44.63557" lon="4.36619">
        <ele>294</ele>
        <time>2022-02-08T04:09:24Z</time>
      </trkpt>
      <trkpt lat="44.63567" lon="4.36589">
        <ele>294</ele>
        <time>2022-02-08T04:09:28Z</time>
      </trkpt>
      <trkpt lat="44.63581" lon="4.36563">
        <ele>294</ele>
        <time>2022-02-08T04:09:33Z</time>
      </trkpt>
      <trkpt lat="44.63598" lon="4.36528">
        <ele>295</ele>
        <time>2022-02-08T04:09:38Z</time>
      </trkpt>
      <trkpt lat="44.6361" lon="4.36504">
        <ele>297</ele>
        <time>2022-02-08T04:09:42Z</time>
      </trkpt>
      <trkpt lat="44.63618" lon="4.36477">
        <ele>299</ele>
        <time>2022-02-08T04:09:45Z</time>
      </trkpt>
      <trkpt lat="44.63617" lon="4.36464">
        <ele>300</ele>
        <time>2022-02-08T04:09:47Z</time>
      </trkpt>
      <trkpt lat="44.63616" lon="4.36445">
        <ele>301</ele>
        <time>2022-02-08T04:09:49Z</time>
      </trkpt>
      <trkpt lat="44.63609" lon="4.36429">
        <ele>301</ele>
        <time>2022-02-08T04:09:52Z</time>
      </trkpt>
      <trkpt lat="44.63603" lon="4.36419">
        <ele>301</ele>
        <time>2022-02-08T04:09:53Z</time>
      </trkpt>
      <trkpt lat="44.63597" lon="4.36412">
        <ele>301</ele>
        <time>2022-02-08T04:09:55Z</time>
      </trkpt>
      <trkpt lat="44.63561" lon="4.36396">
        <ele>304</ele>
        <time>2022-02-08T04:10:02Z</time>
      </trkpt>
      <trkpt lat="44.63532" lon="4.3638">
        <ele>305</ele>
        <time>2022-02-08T04:10:07Z</time>
      </trkpt>
      <trkpt lat="44.63519" lon="4.36369">
        <ele>306</ele>
        <time>2022-02-08T04:10:10Z</time>
      </trkpt>
      <trkpt lat="44.63498" lon="4.36338">
        <ele>306</ele>
        <time>2022-02-08T04:10:15Z</time>
      </trkpt>
      <trkpt lat="44.63491" lon="4.36323">
        <ele>307</ele>
        <time>2022-02-08T04:10:17Z</time>
      </trkpt>
      <trkpt lat="44.63477" lon="4.36265">
        <ele>313</ele>
        <time>2022-02-08T04:10:25Z</time>
      </trkpt>
      <trkpt lat="44.63467" lon="4.36239">
        <ele>315</ele>
        <time>2022-02-08T04:10:29Z</time>
      </trkpt>
      <trkpt lat="44.63419" lon="4.36153">
        <ele>317</ele>
        <time>2022-02-08T04:10:43Z</time>
      </trkpt>
      <trkpt lat="44.63375" lon="4.3608">
        <ele>324</ele>
        <time>2022-02-08T04:10:55Z</time>
      </trkpt>
      <trkpt lat="44.63363" lon="4.36068">
        <ele>325</ele>
        <time>2022-02-08T04:10:58Z</time>
      </trkpt>
      <trkpt lat="44.63316" lon="4.36049">
        <ele>325</ele>
        <time>2022-02-08T04:11:06Z</time>
      </trkpt>
      <trkpt lat="44.63271" lon="4.36035">
        <ele>324</ele>
        <time>2022-02-08T04:11:14Z</time>
      </trkpt>
      <trkpt lat="44.63262" lon="4.36023">
        <ele>324</ele>
        <time>2022-02-08T04:11:17Z</time>
      </trkpt>
      <trkpt lat="44.63229" lon="4.35942">
        <ele>328</ele>
        <time>2022-02-08T04:11:28Z</time>
      </trkpt>
      <trkpt lat="44.63201" lon="4.35895">
        <ele>328</ele>
        <time>2022-02-08T04:11:36Z</time>
      </trkpt>
      <trkpt lat="44.63179" lon="4.3587">
        <ele>328</ele>
        <time>2022-02-08T04:11:41Z</time>
      </trkpt>
      <trkpt lat="44.63145" lon="4.35825">
        <ele>330</ele>
        <time>2022-02-08T04:11:50Z</time>
      </trkpt>
      <trkpt lat="44.63129" lon="4.35814">
        <ele>330</ele>
        <time>2022-02-08T04:11:53Z</time>
      </trkpt>
      <trkpt lat="44.63108" lon="4.35808">
        <ele>329</ele>
        <time>2022-02-08T04:11:57Z</time>
      </trkpt>
      <trkpt lat="44.6306" lon="4.3579">
        <ele>327</ele>
        <time>2022-02-08T04:12:05Z</time>
      </trkpt>
      <trkpt lat="44.63044" lon="4.35777">
        <ele>327</ele>
        <time>2022-02-08T04:12:09Z</time>
      </trkpt>
      <trkpt lat="44.63013" lon="4.3574">
        <ele>327</ele>
        <time>2022-02-08T04:12:16Z</time>
      </trkpt>
      <trkpt lat="44.63002" lon="4.35723">
        <ele>327</ele>
        <time>2022-02-08T04:12:19Z</time>
      </trkpt>
      <trkpt lat="44.62985" lon="4.35687">
        <ele>329</ele>
        <time>2022-02-08T04:12:24Z</time>
      </trkpt>
      <trkpt lat="44.6298" lon="4.35676">
        <ele>330</ele>
        <time>2022-02-08T04:12:26Z</time>
      </trkpt>
      <trkpt lat="44.62961" lon="4.35633">
        <ele>334</ele>
        <time>2022-02-08T04:12:32Z</time>
      </trkpt>
      <trkpt lat="44.62945" lon="4.35616">
        <ele>336</ele>
        <time>2022-02-08T04:12:36Z</time>
      </trkpt>
      <trkpt lat="44.62925" lon="4.35624">
        <ele>334</ele>
        <time>2022-02-08T04:12:40Z</time>
      </trkpt>
      <trkpt lat="44.62917" lon="4.3563">
        <ele>333</ele>
        <time>2022-02-08T04:12:41Z</time>
      </trkpt>
      <trkpt lat="44.62891" lon="4.35634">
        <ele>332</ele>
        <time>2022-02-08T04:12:46Z</time>
      </trkpt>
      <trkpt lat="44.62879" lon="4.35626">
        <ele>332</ele>
        <time>2022-02-08T04:12:48Z</time>
      </trkpt>
      <trkpt lat="44.6286" lon="4.35606">
        <ele>334</ele>
        <time>2022-02-08T04:12:52Z</time>
      </trkpt>
      <trkpt lat="44.62854" lon="4.35593">
        <ele>334</ele>
        <time>2022-02-08T04:12:54Z</time>
      </trkpt>
      <trkpt lat="44.62853" lon="4.35573">
        <ele>336</ele>
        <time>2022-02-08T04:12:57Z</time>
      </trkpt>
      <trkpt lat="44.62856" lon="4.35529">
        <ele>341</ele>
        <time>2022-02-08T04:13:03Z</time>
      </trkpt>
      <trkpt lat="44.62852" lon="4.35505">
        <ele>343</ele>
        <time>2022-02-08T04:13:06Z</time>
      </trkpt>
      <trkpt lat="44.62842" lon="4.35483">
        <ele>345</ele>
        <time>2022-02-08T04:13:09Z</time>
      </trkpt>
      <trkpt lat="44.62816" lon="4.35454">
        <ele>348</ele>
        <time>2022-02-08T04:13:15Z</time>
      </trkpt>
      <trkpt lat="44.62806" lon="4.35434">
        <ele>350</ele>
        <time>2022-02-08T04:13:18Z</time>
      </trkpt>
      <trkpt lat="44.62795" lon="4.35424">
        <ele>351</ele>
        <time>2022-02-08T04:13:20Z</time>
      </trkpt>
      <trkpt lat="44.62789" lon="4.35423">
        <ele>351</ele>
        <time>2022-02-08T04:13:21Z</time>
      </trkpt>
      <trkpt lat="44.62739" lon="4.35416">
        <ele>349</ele>
        <time>2022-02-08T04:13:30Z</time>
      </trkpt>
      <trkpt lat="44.62727" lon="4.35411">
        <ele>349</ele>
        <time>2022-02-08T04:13:33Z</time>
      </trkpt>
      <trkpt lat="44.62715" lon="4.35402">
        <ele>349</ele>
        <time>2022-02-08T04:13:35Z</time>
      </trkpt>
      <trkpt lat="44.62701" lon="4.35384">
        <ele>349</ele>
        <time>2022-02-08T04:13:38Z</time>
      </trkpt>
      <trkpt lat="44.62697" lon="4.35368">
        <ele>350</ele>
        <time>2022-02-08T04:13:40Z</time>
      </trkpt>
      <trkpt lat="44.62694" lon="4.35325">
        <ele>352</ele>
        <time>2022-02-08T04:13:46Z</time>
      </trkpt>
      <trkpt lat="44.62696" lon="4.35285">
        <ele>357</ele>
        <time>2022-02-08T04:13:51Z</time>
      </trkpt>
      <trkpt lat="44.62687" lon="4.35219">
        <ele>362</ele>
        <time>2022-02-08T04:14:00Z</time>
      </trkpt>
      <trkpt lat="44.62682" lon="4.35167">
        <ele>368</ele>
        <time>2022-02-08T04:14:06Z</time>
      </trkpt>
      <trkpt lat="44.62675" lon="4.35144">
        <ele>372</ele>
        <time>2022-02-08T04:14:09Z</time>
      </trkpt>
      <trkpt lat="44.6267" lon="4.35139">
        <ele>372</ele>
        <time>2022-02-08T04:14:10Z</time>
      </trkpt>
      <trkpt lat="44.62627" lon="4.35131">
        <ele>371</ele>
        <time>2022-02-08T04:14:18Z</time>
      </trkpt>
      <trkpt lat="44.62583" lon="4.35109">
        <ele>371</ele>
        <time>2022-02-08T04:14:26Z</time>
      </trkpt>
      <trkpt lat="44.62573" lon="4.35097">
        <ele>371</ele>
        <time>2022-02-08T04:14:29Z</time>
      </trkpt>
      <trkpt lat="44.62575" lon="4.35047">
        <ele>381</ele>
        <time>2022-02-08T04:14:35Z</time>
      </trkpt>
      <trkpt lat="44.6257" lon="4.35031">
        <ele>383</ele>
        <time>2022-02-08T04:14:37Z</time>
      </trkpt>
      <trkpt lat="44.62562" lon="4.35024">
        <ele>383</ele>
        <time>2022-02-08T04:14:39Z</time>
      </trkpt>
      <trkpt lat="44.62533" lon="4.35024">
        <ele>378</ele>
        <time>2022-02-08T04:14:44Z</time>
      </trkpt>
      <trkpt lat="44.62514" lon="4.35014">
        <ele>377</ele>
        <time>2022-02-08T04:14:48Z</time>
      </trkpt>
      <trkpt lat="44.62434" lon="4.34882">
        <ele>384</ele>
        <time>2022-02-08T04:15:10Z</time>
      </trkpt>
      <trkpt lat="44.6243" lon="4.34865">
        <ele>385</ele>
        <time>2022-02-08T04:15:12Z</time>
      </trkpt>
      <trkpt lat="44.62431" lon="4.34842">
        <ele>388</ele>
        <time>2022-02-08T04:15:15Z</time>
      </trkpt>
      <trkpt lat="44.62439" lon="4.34824">
        <ele>392</ele>
        <time>2022-02-08T04:15:18Z</time>
      </trkpt>
      <trkpt lat="44.62441" lon="4.34813">
        <ele>394</ele>
        <time>2022-02-08T04:15:19Z</time>
      </trkpt>
      <trkpt lat="44.62438" lon="4.34799">
        <ele>395</ele>
        <time>2022-02-08T04:15:21Z</time>
      </trkpt>
      <trkpt lat="44.62425" lon="4.34786">
        <ele>394</ele>
        <time>2022-02-08T04:15:24Z</time>
      </trkpt>
      <trkpt lat="44.62416" lon="4.34782">
        <ele>393</ele>
        <time>2022-02-08T04:15:25Z</time>
      </trkpt>
      <trkpt lat="44.62406" lon="4.34782">
        <ele>391</ele>
        <time>2022-02-08T04:15:27Z</time>
      </trkpt>
      <trkpt lat="44.62388" lon="4.34776">
        <ele>390</ele>
        <time>2022-02-08T04:15:31Z</time>
      </trkpt>
      <trkpt lat="44.62365" lon="4.34731">
        <ele>394</ele>
        <time>2022-02-08T04:15:38Z</time>
      </trkpt>
      <trkpt lat="44.62349" lon="4.34713">
        <ele>395</ele>
        <time>2022-02-08T04:15:41Z</time>
      </trkpt>
      <trkpt lat="44.6233" lon="4.34702">
        <ele>395</ele>
        <time>2022-02-08T04:15:45Z</time>
      </trkpt>
      <trkpt lat="44.62306" lon="4.34702">
        <ele>395</ele>
        <time>2022-02-08T04:15:49Z</time>
      </trkpt>
      <trkpt lat="44.62285" lon="4.34691">
        <ele>396</ele>
        <time>2022-02-08T04:15:53Z</time>
      </trkpt>
      <trkpt lat="44.62272" lon="4.3466">
        <ele>399</ele>
        <time>2022-02-08T04:15:58Z</time>
      </trkpt>
      <trkpt lat="44.62245" lon="4.34626">
        <ele>402</ele>
        <time>2022-02-08T04:16:04Z</time>
      </trkpt>
      <trkpt lat="44.6224" lon="4.34624">
        <ele>402</ele>
        <time>2022-02-08T04:16:05Z</time>
      </trkpt>
      <trkpt lat="44.62237" lon="4.34613">
        <ele>403</ele>
        <time>2022-02-08T04:16:07Z</time>
      </trkpt>
      <trkpt lat="44.62212" lon="4.34572">
        <ele>406</ele>
        <time>2022-02-08T04:16:13Z</time>
      </trkpt>
      <trkpt lat="44.6221" lon="4.34561">
        <ele>407</ele>
        <time>2022-02-08T04:16:15Z</time>
      </trkpt>
      <trkpt lat="44.62215" lon="4.3455">
        <ele>408</ele>
        <time>2022-02-08T04:16:16Z</time>
      </trkpt>
      <trkpt lat="44.62228" lon="4.34546">
        <ele>410</ele>
        <time>2022-02-08T04:16:19Z</time>
      </trkpt>
      <trkpt lat="44.62243" lon="4.34551">
        <ele>411</ele>
        <time>2022-02-08T04:16:22Z</time>
      </trkpt>
      <trkpt lat="44.62311" lon="4.34584">
        <ele>411</ele>
        <time>2022-02-08T04:16:34Z</time>
      </trkpt>
      <trkpt lat="44.62331" lon="4.346">
        <ele>409</ele>
        <time>2022-02-08T04:16:38Z</time>
      </trkpt>
      <trkpt lat="44.6234" lon="4.346">
        <ele>411</ele>
        <time>2022-02-08T04:16:40Z</time>
      </trkpt>
      <trkpt lat="44.62348" lon="4.34593">
        <ele>413</ele>
        <time>2022-02-08T04:16:42Z</time>
      </trkpt>
      <trkpt lat="44.6235" lon="4.34583">
        <ele>415</ele>
        <time>2022-02-08T04:16:43Z</time>
      </trkpt>
      <trkpt lat="44.6234" lon="4.34566">
        <ele>417</ele>
        <time>2022-02-08T04:16:46Z</time>
      </trkpt>
      <trkpt lat="44.62308" lon="4.34538">
        <ele>419</ele>
        <time>2022-02-08T04:16:53Z</time>
      </trkpt>
      <trkpt lat="44.62303" lon="4.34517">
        <ele>423</ele>
        <time>2022-02-08T04:16:55Z</time>
      </trkpt>
      <trkpt lat="44.62296" lon="4.34464">
        <ele>431</ele>
        <time>2022-02-08T04:17:02Z</time>
      </trkpt>
      <trkpt lat="44.62275" lon="4.34418">
        <ele>435</ele>
        <time>2022-02-08T04:17:09Z</time>
      </trkpt>
      <trkpt lat="44.62258" lon="4.34393">
        <ele>436</ele>
        <time>2022-02-08T04:17:13Z</time>
      </trkpt>
      <trkpt lat="44.62233" lon="4.34382">
        <ele>432</ele>
        <time>2022-02-08T04:17:18Z</time>
      </trkpt>
      <trkpt lat="44.6223" lon="4.34376">
        <ele>433</ele>
        <time>2022-02-08T04:17:19Z</time>
      </trkpt>
      <trkpt lat="44.62231" lon="4.34367">
        <ele>434</ele>
        <time>2022-02-08T04:17:20Z</time>
      </trkpt>
      <trkpt lat="44.62235" lon="4.34366">
        <ele>435</ele>
        <time>2022-02-08T04:17:21Z</time>
      </trkpt>
      <trkpt lat="44.62244" lon="4.34369">
        <ele>437</ele>
        <time>2022-02-08T04:17:23Z</time>
      </trkpt>
      <trkpt lat="44.62266" lon="4.34369">
        <ele>441</ele>
        <time>2022-02-08T04:17:27Z</time>
      </trkpt>
      <trkpt lat="44.62301" lon="4.34399">
        <ele>443</ele>
        <time>2022-02-08T04:17:34Z</time>
      </trkpt>
      <trkpt lat="44.62331" lon="4.34434">
        <ele>443</ele>
        <time>2022-02-08T04:17:41Z</time>
      </trkpt>
      <trkpt lat="44.62369" lon="4.3445">
        <ele>444</ele>
        <time>2022-02-08T04:17:48Z</time>
      </trkpt>
      <trkpt lat="44.62396" lon="4.34464">
        <ele>445</ele>
        <time>2022-02-08T04:17:53Z</time>
      </trkpt>
      <trkpt lat="44.6241" lon="4.34469">
        <ele>446</ele>
        <time>2022-02-08T04:17:56Z</time>
      </trkpt>
      <trkpt lat="44.62436" lon="4.34467">
        <ele>448</ele>
        <time>2022-02-08T04:18:00Z</time>
      </trkpt>
      <trkpt lat="44.6247" lon="4.34476">
        <ele>449</ele>
        <time>2022-02-08T04:18:06Z</time>
      </trkpt>
      <trkpt lat="44.62488" lon="4.34483">
        <ele>449</ele>
        <time>2022-02-08T04:18:10Z</time>
      </trkpt>
      <trkpt lat="44.62504" lon="4.34487">
        <ele>448</ele>
        <time>2022-02-08T04:18:13Z</time>
      </trkpt>
      <trkpt lat="44.6252" lon="4.34484">
        <ele>449</ele>
        <time>2022-02-08T04:18:15Z</time>
      </trkpt>
      <trkpt lat="44.62531" lon="4.34472">
        <ele>450</ele>
        <time>2022-02-08T04:18:18Z</time>
      </trkpt>
      <trkpt lat="44.62536" lon="4.3446">
        <ele>452</ele>
        <time>2022-02-08T04:18:20Z</time>
      </trkpt>
      <trkpt lat="44.62547" lon="4.34383">
        <ele>460</ele>
        <time>2022-02-08T04:18:30Z</time>
      </trkpt>
      <trkpt lat="44.62564" lon="4.34334">
        <ele>462</ele>
        <time>2022-02-08T04:18:36Z</time>
      </trkpt>
      <trkpt lat="44.62576" lon="4.34295">
        <ele>466</ele>
        <time>2022-02-08T04:18:42Z</time>
      </trkpt>
      <trkpt lat="44.62596" lon="4.34265">
        <ele>467</ele>
        <time>2022-02-08T04:18:47Z</time>
      </trkpt>
      <trkpt lat="44.62603" lon="4.34246">
        <ele>468</ele>
        <time>2022-02-08T04:18:50Z</time>
      </trkpt>
      <trkpt lat="44.62607" lon="4.34203">
        <ele>471</ele>
        <time>2022-02-08T04:18:55Z</time>
      </trkpt>
      <trkpt lat="44.62603" lon="4.34162">
        <ele>475</ele>
        <time>2022-02-08T04:19:00Z</time>
      </trkpt>
      <trkpt lat="44.62595" lon="4.34111">
        <ele>477</ele>
        <time>2022-02-08T04:19:07Z</time>
      </trkpt>
      <trkpt lat="44.62593" lon="4.34038">
        <ele>483</ele>
        <time>2022-02-08T04:19:16Z</time>
      </trkpt>
      <trkpt lat="44.62598" lon="4.33987">
        <ele>488</ele>
        <time>2022-02-08T04:19:23Z</time>
      </trkpt>
      <trkpt lat="44.62597" lon="4.33966">
        <ele>489</ele>
        <time>2022-02-08T04:19:26Z</time>
      </trkpt>
      <trkpt lat="44.626" lon="4.33943">
        <ele>490</ele>
        <time>2022-02-08T04:19:29Z</time>
      </trkpt>
      <trkpt lat="44.62608" lon="4.3392">
        <ele>491</ele>
        <time>2022-02-08T04:19:32Z</time>
      </trkpt>
      <trkpt lat="44.62616" lon="4.33915">
        <ele>491</ele>
        <time>2022-02-08T04:19:33Z</time>
      </trkpt>
      <trkpt lat="44.62622" lon="4.33915">
        <ele>491</ele>
        <time>2022-02-08T04:19:34Z</time>
      </trkpt>
      <trkpt lat="44.62629" lon="4.33923">
        <ele>490</ele>
        <time>2022-02-08T04:19:36Z</time>
      </trkpt>
      <trkpt lat="44.62649" lon="4.33938">
        <ele>489</ele>
        <time>2022-02-08T04:19:40Z</time>
      </trkpt>
      <trkpt lat="44.62726" lon="4.34018">
        <ele>486</ele>
        <time>2022-02-08T04:19:57Z</time>
      </trkpt>
      <trkpt lat="44.62737" lon="4.34021">
        <ele>487</ele>
        <time>2022-02-08T04:19:59Z</time>
      </trkpt>
      <trkpt lat="44.6275" lon="4.34021">
        <ele>489</ele>
        <time>2022-02-08T04:20:01Z</time>
      </trkpt>
      <trkpt lat="44.62762" lon="4.34017">
        <ele>492</ele>
        <time>2022-02-08T04:20:04Z</time>
      </trkpt>
      <trkpt lat="44.62776" lon="4.34018">
        <ele>494</ele>
        <time>2022-02-08T04:20:06Z</time>
      </trkpt>
      <trkpt lat="44.62811" lon="4.3404">
        <ele>496</ele>
        <time>2022-02-08T04:20:13Z</time>
      </trkpt>
      <trkpt lat="44.62818" lon="4.3404">
        <ele>497</ele>
        <time>2022-02-08T04:20:14Z</time>
      </trkpt>
      <trkpt lat="44.62848" lon="4.34054">
        <ele>498</ele>
        <time>2022-02-08T04:20:20Z</time>
      </trkpt>
      <trkpt lat="44.62896" lon="4.34067">
        <ele>501</ele>
        <time>2022-02-08T04:20:28Z</time>
      </trkpt>
      <trkpt lat="44.62956" lon="4.3409">
        <ele>506</ele>
        <time>2022-02-08T04:20:40Z</time>
      </trkpt>
      <trkpt lat="44.63026" lon="4.34135">
        <ele>511</ele>
        <time>2022-02-08T04:20:53Z</time>
      </trkpt>
      <trkpt lat="44.63027" lon="4.34117">
        <ele>512</ele>
        <time>2022-02-08T04:20:55Z</time>
      </trkpt>
      <trkpt lat="44.63" lon="4.34093">
        <ele>511</ele>
        <time>2022-02-08T04:21:01Z</time>
      </trkpt>
      <trkpt lat="44.62989" lon="4.34087">
        <ele>510</ele>
        <time>2022-02-08T04:21:03Z</time>
      </trkpt>
      <trkpt lat="44.62986" lon="4.34079">
        <ele>511</ele>
        <time>2022-02-08T04:21:04Z</time>
      </trkpt>
      <trkpt lat="44.62996" lon="4.34082">
        <ele>512</ele>
        <time>2022-02-08T04:21:06Z</time>
      </trkpt>
      <trkpt lat="44.63032" lon="4.34109">
        <ele>513</ele>
        <time>2022-02-08T04:21:13Z</time>
      </trkpt>
      <trkpt lat="44.63038" lon="4.34105">
        <ele>514</ele>
        <time>2022-02-08T04:21:15Z</time>
      </trkpt>
      <trkpt lat="44.63039" lon="4.3409">
        <ele>515</ele>
        <time>2022-02-08T04:21:17Z</time>
      </trkpt>
      <trkpt lat="44.63009" lon="4.34036">
        <ele>518</ele>
        <time>2022-02-08T04:21:25Z</time>
      </trkpt>
      <trkpt lat="44.62969" lon="4.34022">
        <ele>517</ele>
        <time>2022-02-08T04:21:33Z</time>
      </trkpt>
      <trkpt lat="44.62944" lon="4.34014">
        <ele>517</ele>
        <time>2022-02-08T04:21:37Z</time>
      </trkpt>
      <trkpt lat="44.62931" lon="4.34005">
        <ele>517</ele>
        <time>2022-02-08T04:21:40Z</time>
      </trkpt>
      <trkpt lat="44.62905" lon="4.3398">
        <ele>520</ele>
        <time>2022-02-08T04:21:45Z</time>
      </trkpt>
      <trkpt lat="44.62877" lon="4.33961">
        <ele>520</ele>
        <time>2022-02-08T04:21:51Z</time>
      </trkpt>
      <trkpt lat="44.62853" lon="4.33933">
        <ele>522</ele>
        <time>2022-02-08T04:21:56Z</time>
      </trkpt>
      <trkpt lat="44.62818" lon="4.33898">
        <ele>522</ele>
        <time>2022-02-08T04:22:04Z</time>
      </trkpt>
      <trkpt lat="44.62794" lon="4.33844">
        <ele>525</ele>
        <time>2022-02-08T04:22:12Z</time>
      </trkpt>
      <trkpt lat="44.62778" lon="4.3382">
        <ele>525</ele>
        <time>2022-02-08T04:22:16Z</time>
      </trkpt>
      <trkpt lat="44.62745" lon="4.33773">
        <ele>522</ele>
        <time>2022-02-08T04:22:25Z</time>
      </trkpt>
      <trkpt lat="44.62712" lon="4.33684">
        <ele>523</ele>
        <time>2022-02-08T04:22:37Z</time>
      </trkpt>
      <trkpt lat="44.62706" lon="4.33677">
        <ele>523</ele>
        <time>2022-02-08T04:22:39Z</time>
      </trkpt>
      <trkpt lat="44.62697" lon="4.33672">
        <ele>522</ele>
        <time>2022-02-08T04:22:40Z</time>
      </trkpt>
      <trkpt lat="44.62677" lon="4.33671">
        <ele>521</ele>
        <time>2022-02-08T04:22:44Z</time>
      </trkpt>
      <trkpt lat="44.62653" lon="4.33661">
        <ele>519</ele>
        <time>2022-02-08T04:22:48Z</time>
      </trkpt>
      <trkpt lat="44.62644" lon="4.33645">
        <ele>519</ele>
        <time>2022-02-08T04:22:51Z</time>
      </trkpt>
      <trkpt lat="44.6263" lon="4.33623">
        <ele>520</ele>
        <time>2022-02-08T04:22:55Z</time>
      </trkpt>
      <trkpt lat="44.626" lon="4.33564">
        <ele>520</ele>
        <time>2022-02-08T04:23:04Z</time>
      </trkpt>
      <trkpt lat="44.62568" lon="4.33446">
        <ele>522</ele>
        <time>2022-02-08T04:23:20Z</time>
      </trkpt>
      <trkpt lat="44.62546" lon="4.334">
        <ele>521</ele>
        <time>2022-02-08T04:23:27Z</time>
      </trkpt>
      <trkpt lat="44.62514" lon="4.33351">
        <ele>520</ele>
        <time>2022-02-08T04:23:35Z</time>
      </trkpt>
      <trkpt lat="44.62492" lon="4.33325">
        <ele>519</ele>
        <time>2022-02-08T04:23:41Z</time>
      </trkpt>
      <trkpt lat="44.62476" lon="4.33306">
        <ele>520</ele>
        <time>2022-02-08T04:23:44Z</time>
      </trkpt>
      <trkpt lat="44.62466" lon="4.33293">
        <ele>520</ele>
        <time>2022-02-08T04:23:47Z</time>
      </trkpt>
      <trkpt lat="44.62456" lon="4.33281">
        <ele>520</ele>
        <time>2022-02-08T04:23:49Z</time>
      </trkpt>
      <trkpt lat="44.62444" lon="4.33264">
        <ele>520</ele>
        <time>2022-02-08T04:23:52Z</time>
      </trkpt>
      <trkpt lat="44.62412" lon="4.33218">
        <ele>518</ele>
        <time>2022-02-08T04:24:00Z</time>
      </trkpt>
      <trkpt lat="44.62403" lon="4.33201">
        <ele>517</ele>
        <time>2022-02-08T04:24:03Z</time>
      </trkpt>
      <trkpt lat="44.62388" lon="4.33156">
        <ele>515</ele>
        <time>2022-02-08T04:24:09Z</time>
      </trkpt>
      <trkpt lat="44.6238" lon="4.33122">
        <ele>515</ele>
        <time>2022-02-08T04:24:14Z</time>
      </trkpt>
      <trkpt lat="44.62374" lon="4.33098">
        <ele>515</ele>
        <time>2022-02-08T04:24:17Z</time>
      </trkpt>
      <trkpt lat="44.62365" lon="4.33086">
        <ele>514</ele>
        <time>2022-02-08T04:24:19Z</time>
      </trkpt>
      <trkpt lat="44.62357" lon="4.33081">
        <ele>514</ele>
        <time>2022-02-08T04:24:21Z</time>
      </trkpt>
      <trkpt lat="44.62302" lon="4.33065">
        <ele>511</ele>
        <time>2022-02-08T04:24:31Z</time>
      </trkpt>
      <trkpt lat="44.62283" lon="4.33053">
        <ele>511</ele>
        <time>2022-02-08T04:24:34Z</time>
      </trkpt>
      <trkpt lat="44.62264" lon="4.33033">
        <ele>514</ele>
        <time>2022-02-08T04:24:39Z</time>
      </trkpt>
      <trkpt lat="44.62244" lon="4.33023">
        <ele>515</ele>
        <time>2022-02-08T04:24:42Z</time>
      </trkpt>
      <trkpt lat="44.62228" lon="4.33023">
        <ele>517</ele>
        <time>2022-02-08T04:24:45Z</time>
      </trkpt>
      <trkpt lat="44.62218" lon="4.33032">
        <ele>516</ele>
        <time>2022-02-08T04:24:47Z</time>
      </trkpt>
      <trkpt lat="44.62214" lon="4.33056">
        <ele>512</ele>
        <time>2022-02-08T04:24:50Z</time>
      </trkpt>
      <trkpt lat="44.6219" lon="4.33094">
        <ele>508</ele>
        <time>2022-02-08T04:24:57Z</time>
      </trkpt>
      <trkpt lat="44.62167" lon="4.33125">
        <ele>506</ele>
        <time>2022-02-08T04:25:03Z</time>
      </trkpt>
      <trkpt lat="44.62149" lon="4.33119">
        <ele>507</ele>
        <time>2022-02-08T04:25:06Z</time>
      </trkpt>
      <trkpt lat="44.62133" lon="4.33127">
        <ele>505</ele>
        <time>2022-02-08T04:25:09Z</time>
      </trkpt>
      <trkpt lat="44.62109" lon="4.3313">
        <ele>504</ele>
        <time>2022-02-08T04:25:13Z</time>
      </trkpt>
      <trkpt lat="44.62087" lon="4.33144">
        <ele>501</ele>
        <time>2022-02-08T04:25:17Z</time>
      </trkpt>
      <trkpt lat="44.62064" lon="4.33156">
        <ele>497</ele>
        <time>2022-02-08T04:25:22Z</time>
      </trkpt>
      <trkpt lat="44.62001" lon="4.33143">
        <ele>494</ele>
        <time>2022-02-08T04:25:33Z</time>
      </trkpt>
      <trkpt lat="44.61985" lon="4.33117">
        <ele>499</ele>
        <time>2022-02-08T04:25:38Z</time>
      </trkpt>
      <trkpt lat="44.61956" lon="4.33097">
        <ele>501</ele>
        <time>2022-02-08T04:25:43Z</time>
      </trkpt>
      <trkpt lat="44.61931" lon="4.33068">
        <ele>503</ele>
        <time>2022-02-08T04:25:49Z</time>
      </trkpt>
      <trkpt lat="44.61919" lon="4.33048">
        <ele>503</ele>
        <time>2022-02-08T04:25:52Z</time>
      </trkpt>
      <trkpt lat="44.61914" lon="4.33035">
        <ele>503</ele>
        <time>2022-02-08T04:25:54Z</time>
      </trkpt>
      <trkpt lat="44.61914" lon="4.33023">
        <ele>503</ele>
        <time>2022-02-08T04:25:56Z</time>
      </trkpt>
      <trkpt lat="44.61924" lon="4.33008">
        <ele>504</ele>
        <time>2022-02-08T04:25:58Z</time>
      </trkpt>
      <trkpt lat="44.61934" lon="4.33001">
        <ele>505</ele>
        <time>2022-02-08T04:26:00Z</time>
      </trkpt>
      <trkpt lat="44.61963" lon="4.32986">
        <ele>508</ele>
        <time>2022-02-08T04:26:06Z</time>
      </trkpt>
      <trkpt lat="44.61969" lon="4.32962">
        <ele>510</ele>
        <time>2022-02-08T04:26:09Z</time>
      </trkpt>
      <trkpt lat="44.61954" lon="4.32903">
        <ele>510</ele>
        <time>2022-02-08T04:26:17Z</time>
      </trkpt>
      <trkpt lat="44.61923" lon="4.32835">
        <ele>507</ele>
        <time>2022-02-08T04:26:27Z</time>
      </trkpt>
      <trkpt lat="44.61832" lon="4.32658">
        <ele>499</ele>
        <time>2022-02-08T04:26:55Z</time>
      </trkpt>
      <trkpt lat="44.61827" lon="4.3262">
        <ele>498</ele>
        <time>2022-02-08T04:27:00Z</time>
      </trkpt>
      <trkpt lat="44.61841" lon="4.32599">
        <ele>499</ele>
        <time>2022-02-08T04:27:03Z</time>
      </trkpt>
      <trkpt lat="44.61862" lon="4.32587">
        <ele>500</ele>
        <time>2022-02-08T04:27:07Z</time>
      </trkpt>
      <trkpt lat="44.61909" lon="4.32582">
        <ele>502</ele>
        <time>2022-02-08T04:27:16Z</time>
      </trkpt>
      <trkpt lat="44.61932" lon="4.32564">
        <ele>503</ele>
        <time>2022-02-08T04:27:21Z</time>
      </trkpt>
      <trkpt lat="44.61944" lon="4.32535">
        <ele>504</ele>
        <time>2022-02-08T04:27:25Z</time>
      </trkpt>
      <trkpt lat="44.61934" lon="4.32496">
        <ele>504</ele>
        <time>2022-02-08T04:27:30Z</time>
      </trkpt>
      <trkpt lat="44.61897" lon="4.32419">
        <ele>505</ele>
        <time>2022-02-08T04:27:42Z</time>
      </trkpt>
      <trkpt lat="44.61879" lon="4.32385">
        <ele>505</ele>
        <time>2022-02-08T04:27:47Z</time>
      </trkpt>
      <trkpt lat="44.61858" lon="4.32353">
        <ele>503</ele>
        <time>2022-02-08T04:27:53Z</time>
      </trkpt>
      <trkpt lat="44.61847" lon="4.32316">
        <ele>504</ele>
        <time>2022-02-08T04:27:58Z</time>
      </trkpt>
      <trkpt lat="44.61841" lon="4.3229">
        <ele>504</ele>
        <time>2022-02-08T04:28:01Z</time>
      </trkpt>
      <trkpt lat="44.61835" lon="4.3225">
        <ele>506</ele>
        <time>2022-02-08T04:28:06Z</time>
      </trkpt>
      <trkpt lat="44.61817" lon="4.32224">
        <ele>507</ele>
        <time>2022-02-08T04:28:11Z</time>
      </trkpt>
      <trkpt lat="44.61759" lon="4.32217">
        <ele>500</ele>
        <time>2022-02-08T04:28:21Z</time>
      </trkpt>
      <trkpt lat="44.61737" lon="4.32191">
        <ele>500</ele>
        <time>2022-02-08T04:28:26Z</time>
      </trkpt>
      <trkpt lat="44.61716" lon="4.32142">
        <ele>502</ele>
        <time>2022-02-08T04:28:34Z</time>
      </trkpt>
      <trkpt lat="44.61686" lon="4.32115">
        <ele>501</ele>
        <time>2022-02-08T04:28:40Z</time>
      </trkpt>
      <trkpt lat="44.6164" lon="4.32099">
        <ele>500</ele>
        <time>2022-02-08T04:28:48Z</time>
      </trkpt>
      <trkpt lat="44.61548" lon="4.32044">
        <ele>505</ele>
        <time>2022-02-08T04:29:06Z</time>
      </trkpt>
      <trkpt lat="44.61467" lon="4.31991">
        <ele>505</ele>
        <time>2022-02-08T04:29:22Z</time>
      </trkpt>
      <trkpt lat="44.61427" lon="4.31954">
        <ele>503</ele>
        <time>2022-02-08T04:29:31Z</time>
      </trkpt>
      <trkpt lat="44.61416" lon="4.3193">
        <ele>503</ele>
        <time>2022-02-08T04:29:34Z</time>
      </trkpt>
      <trkpt lat="44.61407" lon="4.31904">
        <ele>500</ele>
        <time>2022-02-08T04:29:38Z</time>
      </trkpt>
      <trkpt lat="44.61408" lon="4.31885">
        <ele>499</ele>
        <time>2022-02-08T04:29:40Z</time>
      </trkpt>
      <trkpt lat="44.61417" lon="4.31868">
        <ele>501</ele>
        <time>2022-02-08T04:29:43Z</time>
      </trkpt>
      <trkpt lat="44.61437" lon="4.31839">
        <ele>502</ele>
        <time>2022-02-08T04:29:48Z</time>
      </trkpt>
      <trkpt lat="44.61581" lon="4.31689">
        <ele>503</ele>
        <time>2022-02-08T04:30:20Z</time>
      </trkpt>
      <trkpt lat="44.61589" lon="4.31677">
        <ele>502</ele>
        <time>2022-02-08T04:30:22Z</time>
      </trkpt>
      <trkpt lat="44.61593" lon="4.31658">
        <ele>501</ele>
        <time>2022-02-08T04:30:25Z</time>
      </trkpt>
      <trkpt lat="44.61593" lon="4.31612">
        <ele>500</ele>
        <time>2022-02-08T04:30:30Z</time>
      </trkpt>
      <trkpt lat="44.61598" lon="4.31581">
        <ele>499</ele>
        <time>2022-02-08T04:30:35Z</time>
      </trkpt>
      <trkpt lat="44.61619" lon="4.31542">
        <ele>500</ele>
        <time>2022-02-08T04:30:41Z</time>
      </trkpt>
      <trkpt lat="44.61629" lon="4.3151">
        <ele>500</ele>
        <time>2022-02-08T04:30:45Z</time>
      </trkpt>
      <trkpt lat="44.61628" lon="4.31502">
        <ele>500</ele>
        <time>2022-02-08T04:30:46Z</time>
      </trkpt>
      <trkpt lat="44.61626" lon="4.31492">
        <ele>501</ele>
        <time>2022-02-08T04:30:47Z</time>
      </trkpt>
      <trkpt lat="44.61609" lon="4.31472">
        <ele>502</ele>
        <time>2022-02-08T04:30:51Z</time>
      </trkpt>
      <trkpt lat="44.61599" lon="4.31465">
        <ele>502</ele>
        <time>2022-02-08T04:30:53Z</time>
      </trkpt>
      <trkpt lat="44.61589" lon="4.31463">
        <ele>501</ele>
        <time>2022-02-08T04:30:55Z</time>
      </trkpt>
      <trkpt lat="44.6158" lon="4.31465">
        <ele>501</ele>
        <time>2022-02-08T04:30:57Z</time>
      </trkpt>
      <trkpt lat="44.61502" lon="4.31515">
        <ele>498</ele>
        <time>2022-02-08T04:31:12Z</time>
      </trkpt>
      <trkpt lat="44.61488" lon="4.31521">
        <ele>496</ele>
        <time>2022-02-08T04:31:15Z</time>
      </trkpt>
      <trkpt lat="44.61472" lon="4.31523">
        <ele>495</ele>
        <time>2022-02-08T04:31:18Z</time>
      </trkpt>
      <trkpt lat="44.61459" lon="4.3152">
        <ele>494</ele>
        <time>2022-02-08T04:31:20Z</time>
      </trkpt>
      <trkpt lat="44.61445" lon="4.31515">
        <ele>493</ele>
        <time>2022-02-08T04:31:22Z</time>
      </trkpt>
      <trkpt lat="44.61434" lon="4.31507">
        <ele>493</ele>
        <time>2022-02-08T04:31:25Z</time>
      </trkpt>
      <trkpt lat="44.61427" lon="4.31498">
        <ele>493</ele>
        <time>2022-02-08T04:31:26Z</time>
      </trkpt>
      <trkpt lat="44.61422" lon="4.31485">
        <ele>494</ele>
        <time>2022-02-08T04:31:28Z</time>
      </trkpt>
      <trkpt lat="44.61419" lon="4.31465">
        <ele>495</ele>
        <time>2022-02-08T04:31:31Z</time>
      </trkpt>
      <trkpt lat="44.6142" lon="4.31438">
        <ele>497</ele>
        <time>2022-02-08T04:31:34Z</time>
      </trkpt>
      <trkpt lat="44.61428" lon="4.31411">
        <ele>499</ele>
        <time>2022-02-08T04:31:38Z</time>
      </trkpt>
      <trkpt lat="44.61439" lon="4.31392">
        <ele>501</ele>
        <time>2022-02-08T04:31:41Z</time>
      </trkpt>
      <trkpt lat="44.61444" lon="4.31381">
        <ele>501</ele>
        <time>2022-02-08T04:31:43Z</time>
      </trkpt>
      <trkpt lat="44.61446" lon="4.3137">
        <ele>501</ele>
        <time>2022-02-08T04:31:44Z</time>
      </trkpt>
      <trkpt lat="44.61438" lon="4.31345">
        <ele>500</ele>
        <time>2022-02-08T04:31:48Z</time>
      </trkpt>
      <trkpt lat="44.61429" lon="4.31322">
        <ele>499</ele>
        <time>2022-02-08T04:31:51Z</time>
      </trkpt>
      <trkpt lat="44.61418" lon="4.31304">
        <ele>498</ele>
        <time>2022-02-08T04:31:54Z</time>
      </trkpt>
      <trkpt lat="44.61417" lon="4.313">
        <ele>498</ele>
        <time>2022-02-08T04:31:54Z</time>
      </trkpt>
      <trkpt lat="44.61416" lon="4.31293">
        <ele>498</ele>
        <time>2022-02-08T04:31:55Z</time>
      </trkpt>
      <trkpt lat="44.61419" lon="4.31276">
        <ele>498</ele>
        <time>2022-02-08T04:31:58Z</time>
      </trkpt>
      <trkpt lat="44.61435" lon="4.31232">
        <ele>499</ele>
        <time>2022-02-08T04:32:04Z</time>
      </trkpt>
      <trkpt lat="44.61451" lon="4.31211">
        <ele>499</ele>
        <time>2022-02-08T04:32:08Z</time>
      </trkpt>
      <trkpt lat="44.61481" lon="4.31186">
        <ele>503</ele>
        <time>2022-02-08T04:32:14Z</time>
      </trkpt>
      <trkpt lat="44.61487" lon="4.31177">
        <ele>504</ele>
        <time>2022-02-08T04:32:16Z</time>
      </trkpt>
      <trkpt lat="44.61496" lon="4.3116">
        <ele>505</ele>
        <time>2022-02-08T04:32:18Z</time>
      </trkpt>
      <trkpt lat="44.6154" lon="4.31041">
        <ele>520</ele>
        <time>2022-02-08T04:32:35Z</time>
      </trkpt>
      <trkpt lat="44.61538" lon="4.31018">
        <ele>521</ele>
        <time>2022-02-08T04:32:38Z</time>
      </trkpt>
      <trkpt lat="44.61532" lon="4.31008">
        <ele>520</ele>
        <time>2022-02-08T04:32:40Z</time>
      </trkpt>
      <trkpt lat="44.61516" lon="4.30994">
        <ele>517</ele>
        <time>2022-02-08T04:32:43Z</time>
      </trkpt>
      <trkpt lat="44.61487" lon="4.30977">
        <ele>511</ele>
        <time>2022-02-08T04:32:49Z</time>
      </trkpt>
      <trkpt lat="44.6147" lon="4.30945">
        <ele>509</ele>
        <time>2022-02-08T04:32:54Z</time>
      </trkpt>
      <trkpt lat="44.61462" lon="4.30916">
        <ele>510</ele>
        <time>2022-02-08T04:32:58Z</time>
      </trkpt>
      <trkpt lat="44.61465" lon="4.30879">
        <ele>509</ele>
        <time>2022-02-08T04:33:02Z</time>
      </trkpt>
      <trkpt lat="44.61477" lon="4.30861">
        <ele>512</ele>
        <time>2022-02-08T04:33:06Z</time>
      </trkpt>
      <trkpt lat="44.61487" lon="4.30853">
        <ele>515</ele>
        <time>2022-02-08T04:33:08Z</time>
      </trkpt>
      <trkpt lat="44.61508" lon="4.30847">
        <ele>521</ele>
        <time>2022-02-08T04:33:11Z</time>
      </trkpt>
      <trkpt lat="44.61513" lon="4.30837">
        <ele>523</ele>
        <time>2022-02-08T04:33:13Z</time>
      </trkpt>
      <trkpt lat="44.61498" lon="4.30766">
        <ele>522</ele>
        <time>2022-02-08T04:33:22Z</time>
      </trkpt>
      <trkpt lat="44.61494" lon="4.30681">
        <ele>528</ele>
        <time>2022-02-08T04:33:33Z</time>
      </trkpt>
      <trkpt lat="44.61495" lon="4.30651">
        <ele>532</ele>
        <time>2022-02-08T04:33:37Z</time>
      </trkpt>
      <trkpt lat="44.61498" lon="4.3063">
        <ele>536</ele>
        <time>2022-02-08T04:33:40Z</time>
      </trkpt>
      <trkpt lat="44.61497" lon="4.30617">
        <ele>538</ele>
        <time>2022-02-08T04:33:41Z</time>
      </trkpt>
      <trkpt lat="44.61492" lon="4.30612">
        <ele>539</ele>
        <time>2022-02-08T04:33:42Z</time>
      </trkpt>
      <trkpt lat="44.61487" lon="4.30611">
        <ele>539</ele>
        <time>2022-02-08T04:33:43Z</time>
      </trkpt>
      <trkpt lat="44.61473" lon="4.30616">
        <ele>538</ele>
        <time>2022-02-08T04:33:46Z</time>
      </trkpt>
      <trkpt lat="44.61447" lon="4.30644">
        <ele>530</ele>
        <time>2022-02-08T04:33:52Z</time>
      </trkpt>
      <trkpt lat="44.61424" lon="4.30661">
        <ele>523</ele>
        <time>2022-02-08T04:33:56Z</time>
      </trkpt>
      <trkpt lat="44.61399" lon="4.30658">
        <ele>520</ele>
        <time>2022-02-08T04:34:01Z</time>
      </trkpt>
      <trkpt lat="44.6138" lon="4.30636">
        <ele>522</ele>
        <time>2022-02-08T04:34:05Z</time>
      </trkpt>
      <trkpt lat="44.61367" lon="4.30603">
        <ele>525</ele>
        <time>2022-02-08T04:34:10Z</time>
      </trkpt>
      <trkpt lat="44.61359" lon="4.30568">
        <ele>528</ele>
        <time>2022-02-08T04:34:15Z</time>
      </trkpt>
      <trkpt lat="44.61354" lon="4.30525">
        <ele>532</ele>
        <time>2022-02-08T04:34:20Z</time>
      </trkpt>
      <trkpt lat="44.61353" lon="4.30491">
        <ele>537</ele>
        <time>2022-02-08T04:34:24Z</time>
      </trkpt>
      <trkpt lat="44.61366" lon="4.30456">
        <ele>546</ele>
        <time>2022-02-08T04:34:29Z</time>
      </trkpt>
      <trkpt lat="44.61367" lon="4.30435">
        <ele>549</ele>
        <time>2022-02-08T04:34:32Z</time>
      </trkpt>
      <trkpt lat="44.6135" lon="4.30413">
        <ele>548</ele>
        <time>2022-02-08T04:34:36Z</time>
      </trkpt>
      <trkpt lat="44.61324" lon="4.30386">
        <ele>553</ele>
        <time>2022-02-08T04:34:42Z</time>
      </trkpt>
      <trkpt lat="44.61297" lon="4.30366">
        <ele>558</ele>
        <time>2022-02-08T04:34:47Z</time>
      </trkpt>
      <trkpt lat="44.61277" lon="4.30368">
        <ele>557</ele>
        <time>2022-02-08T04:34:51Z</time>
      </trkpt>
      <trkpt lat="44.61267" lon="4.30393">
        <ele>552</ele>
        <time>2022-02-08T04:34:55Z</time>
      </trkpt>
      <trkpt lat="44.61258" lon="4.30429">
        <ele>544</ele>
        <time>2022-02-08T04:34:59Z</time>
      </trkpt>
      <trkpt lat="44.61244" lon="4.30445">
        <ele>542</ele>
        <time>2022-02-08T04:35:03Z</time>
      </trkpt>
      <trkpt lat="44.61228" lon="4.30453">
        <ele>542</ele>
        <time>2022-02-08T04:35:06Z</time>
      </trkpt>
      <trkpt lat="44.61196" lon="4.30454">
        <ele>545</ele>
        <time>2022-02-08T04:35:11Z</time>
      </trkpt>
      <trkpt lat="44.61187" lon="4.30467">
        <ele>544</ele>
        <time>2022-02-08T04:35:14Z</time>
      </trkpt>
      <trkpt lat="44.61183" lon="4.30485">
        <ele>542</ele>
        <time>2022-02-08T04:35:16Z</time>
      </trkpt>
      <trkpt lat="44.61181" lon="4.30489">
        <ele>542</ele>
        <time>2022-02-08T04:35:17Z</time>
      </trkpt>
      <trkpt lat="44.61178" lon="4.30495">
        <ele>542</ele>
        <time>2022-02-08T04:35:18Z</time>
      </trkpt>
      <trkpt lat="44.61162" lon="4.30497">
        <ele>544</ele>
        <time>2022-02-08T04:35:20Z</time>
      </trkpt>
      <trkpt lat="44.61122" lon="4.30482">
        <ele>548</ele>
        <time>2022-02-08T04:35:28Z</time>
      </trkpt>
      <trkpt lat="44.61098" lon="4.30466">
        <ele>548</ele>
        <time>2022-02-08T04:35:33Z</time>
      </trkpt>
      <trkpt lat="44.61086" lon="4.3045">
        <ele>547</ele>
        <time>2022-02-08T04:35:35Z</time>
      </trkpt>
      <trkpt lat="44.6108" lon="4.30452">
        <ele>548</ele>
        <time>2022-02-08T04:35:37Z</time>
      </trkpt>
      <trkpt lat="44.61076" lon="4.30445">
        <ele>548</ele>
        <time>2022-02-08T04:35:38Z</time>
      </trkpt>
      <trkpt lat="44.61047" lon="4.30411">
        <ele>545</ele>
        <time>2022-02-08T04:35:44Z</time>
      </trkpt>
      <trkpt lat="44.61035" lon="4.30405">
        <ele>544</ele>
        <time>2022-02-08T04:35:47Z</time>
      </trkpt>
      <trkpt lat="44.61016" lon="4.30404">
        <ele>545</ele>
        <time>2022-02-08T04:35:50Z</time>
      </trkpt>
      <trkpt lat="44.6097" lon="4.30409">
        <ele>550</ele>
        <time>2022-02-08T04:35:58Z</time>
      </trkpt>
      <trkpt lat="44.60848" lon="4.30367">
        <ele>544</ele>
        <time>2022-02-08T04:36:21Z</time>
      </trkpt>
      <trkpt lat="44.6084" lon="4.30368">
        <ele>544</ele>
        <time>2022-02-08T04:36:22Z</time>
      </trkpt>
      <trkpt lat="44.60831" lon="4.30369">
        <ele>544</ele>
        <time>2022-02-08T04:36:24Z</time>
      </trkpt>
      <trkpt lat="44.60788" lon="4.30384">
        <ele>540</ele>
        <time>2022-02-08T04:36:32Z</time>
      </trkpt>
      <trkpt lat="44.60748" lon="4.30394">
        <ele>535</ele>
        <time>2022-02-08T04:36:39Z</time>
      </trkpt>
      <trkpt lat="44.60725" lon="4.30404">
        <ele>531</ele>
        <time>2022-02-08T04:36:43Z</time>
      </trkpt>
      <trkpt lat="44.60709" lon="4.30416">
        <ele>529</ele>
        <time>2022-02-08T04:36:46Z</time>
      </trkpt>
      <trkpt lat="44.60699" lon="4.30433">
        <ele>528</ele>
        <time>2022-02-08T04:36:49Z</time>
      </trkpt>
      <trkpt lat="44.60693" lon="4.30455">
        <ele>527</ele>
        <time>2022-02-08T04:36:52Z</time>
      </trkpt>
      <trkpt lat="44.60684" lon="4.30514">
        <ele>526</ele>
        <time>2022-02-08T04:37:00Z</time>
      </trkpt>
      <trkpt lat="44.60673" lon="4.30588">
        <ele>521</ele>
        <time>2022-02-08T04:37:09Z</time>
      </trkpt>
      <trkpt lat="44.60673" lon="4.30606">
        <ele>521</ele>
        <time>2022-02-08T04:37:12Z</time>
      </trkpt>
      <trkpt lat="44.60678" lon="4.30659">
        <ele>524</ele>
        <time>2022-02-08T04:37:18Z</time>
      </trkpt>
      <trkpt lat="44.60681" lon="4.30705">
        <ele>526</ele>
        <time>2022-02-08T04:37:24Z</time>
      </trkpt>
      <trkpt lat="44.60681" lon="4.30727">
        <ele>527</ele>
        <time>2022-02-08T04:37:27Z</time>
      </trkpt>
      <trkpt lat="44.60672" lon="4.30782">
        <ele>522</ele>
        <time>2022-02-08T04:37:34Z</time>
      </trkpt>
      <trkpt lat="44.6067" lon="4.30813">
        <ele>521</ele>
        <time>2022-02-08T04:37:38Z</time>
      </trkpt>
      <trkpt lat="44.60666" lon="4.30829">
        <ele>520</ele>
        <time>2022-02-08T04:37:40Z</time>
      </trkpt>
      <trkpt lat="44.60666" lon="4.30839">
        <ele>520</ele>
        <time>2022-02-08T04:37:41Z</time>
      </trkpt>
      <trkpt lat="44.60669" lon="4.30864">
        <ele>522</ele>
        <time>2022-02-08T04:37:45Z</time>
      </trkpt>
      <trkpt lat="44.60666" lon="4.30877">
        <ele>522</ele>
        <time>2022-02-08T04:37:46Z</time>
      </trkpt>
      <trkpt lat="44.6066" lon="4.30885">
        <ele>520</ele>
        <time>2022-02-08T04:37:48Z</time>
      </trkpt>
      <trkpt lat="44.60641" lon="4.30893">
        <ele>515</ele>
        <time>2022-02-08T04:37:51Z</time>
      </trkpt>
      <trkpt lat="44.6063" lon="4.30895">
        <ele>512</ele>
        <time>2022-02-08T04:37:53Z</time>
      </trkpt>
      <trkpt lat="44.60615" lon="4.30888">
        <ele>506</ele>
        <time>2022-02-08T04:37:56Z</time>
      </trkpt>
      <trkpt lat="44.60602" lon="4.30884">
        <ele>501</ele>
        <time>2022-02-08T04:37:59Z</time>
      </trkpt>
      <trkpt lat="44.60591" lon="4.30891">
        <ele>499</ele>
        <time>2022-02-08T04:38:01Z</time>
      </trkpt>
      <trkpt lat="44.60582" lon="4.30902">
        <ele>498</ele>
        <time>2022-02-08T04:38:03Z</time>
      </trkpt>
      <trkpt lat="44.60566" lon="4.30942">
        <ele>499</ele>
        <time>2022-02-08T04:38:09Z</time>
      </trkpt>
      <trkpt lat="44.60564" lon="4.30964">
        <ele>502</ele>
        <time>2022-02-08T04:38:11Z</time>
      </trkpt>
      <trkpt lat="44.60559" lon="4.30984">
        <ele>504</ele>
        <time>2022-02-08T04:38:14Z</time>
      </trkpt>
      <trkpt lat="44.60549" lon="4.30997">
        <ele>503</ele>
        <time>2022-02-08T04:38:17Z</time>
      </trkpt>
      <trkpt lat="44.60534" lon="4.31005">
        <ele>500</ele>
        <time>2022-02-08T04:38:19Z</time>
      </trkpt>
      <trkpt lat="44.60511" lon="4.31007">
        <ele>492</ele>
        <time>2022-02-08T04:38:24Z</time>
      </trkpt>
      <trkpt lat="44.60494" lon="4.31011">
        <ele>487</ele>
        <time>2022-02-08T04:38:27Z</time>
      </trkpt>
      <trkpt lat="44.60485" lon="4.31018">
        <ele>485</ele>
        <time>2022-02-08T04:38:28Z</time>
      </trkpt>
      <trkpt lat="44.60479" lon="4.31027">
        <ele>484</ele>
        <time>2022-02-08T04:38:30Z</time>
      </trkpt>
      <trkpt lat="44.60474" lon="4.31041">
        <ele>484</ele>
        <time>2022-02-08T04:38:32Z</time>
      </trkpt>
      <trkpt lat="44.6047" lon="4.31052">
        <ele>484</ele>
        <time>2022-02-08T04:38:34Z</time>
      </trkpt>
      <trkpt lat="44.60453" lon="4.31097">
        <ele>482</ele>
        <time>2022-02-08T04:38:40Z</time>
      </trkpt>
      <trkpt lat="44.60446" lon="4.31112">
        <ele>480</ele>
        <time>2022-02-08T04:38:42Z</time>
      </trkpt>
      <trkpt lat="44.60424" lon="4.31141">
        <ele>473</ele>
        <time>2022-02-08T04:38:48Z</time>
      </trkpt>
      <trkpt lat="44.60416" lon="4.31154">
        <ele>472</ele>
        <time>2022-02-08T04:38:50Z</time>
      </trkpt>
      <trkpt lat="44.60415" lon="4.31165">
        <ele>472</ele>
        <time>2022-02-08T04:38:51Z</time>
      </trkpt>
      <trkpt lat="44.60416" lon="4.31182">
        <ele>473</ele>
        <time>2022-02-08T04:38:53Z</time>
      </trkpt>
      <trkpt lat="44.60415" lon="4.31193">
        <ele>473</ele>
        <time>2022-02-08T04:38:55Z</time>
      </trkpt>
      <trkpt lat="44.60407" lon="4.31205">
        <ele>471</ele>
        <time>2022-02-08T04:38:57Z</time>
      </trkpt>
      <trkpt lat="44.60394" lon="4.31219">
        <ele>468</ele>
        <time>2022-02-08T04:39:00Z</time>
      </trkpt>
      <trkpt lat="44.60382" lon="4.31238">
        <ele>466</ele>
        <time>2022-02-08T04:39:03Z</time>
      </trkpt>
      <trkpt lat="44.60372" lon="4.3126">
        <ele>464</ele>
        <time>2022-02-08T04:39:06Z</time>
      </trkpt>
      <trkpt lat="44.60369" lon="4.31275">
        <ele>462</ele>
        <time>2022-02-08T04:39:08Z</time>
      </trkpt>
      <trkpt lat="44.60371" lon="4.31286">
        <ele>461</ele>
        <time>2022-02-08T04:39:10Z</time>
      </trkpt>
      <trkpt lat="44.60377" lon="4.31293">
        <ele>461</ele>
        <time>2022-02-08T04:39:11Z</time>
      </trkpt>
      <trkpt lat="44.60384" lon="4.31298">
        <ele>461</ele>
        <time>2022-02-08T04:39:13Z</time>
      </trkpt>
      <trkpt lat="44.60399" lon="4.31303">
        <ele>462</ele>
        <time>2022-02-08T04:39:15Z</time>
      </trkpt>
      <trkpt lat="44.60412" lon="4.31312">
        <ele>463</ele>
        <time>2022-02-08T04:39:18Z</time>
      </trkpt>
      <trkpt lat="44.60431" lon="4.31331">
        <ele>459</ele>
        <time>2022-02-08T04:39:22Z</time>
      </trkpt>
      <trkpt lat="44.60448" lon="4.31335">
        <ele>457</ele>
        <time>2022-02-08T04:39:25Z</time>
      </trkpt>
      <trkpt lat="44.60456" lon="4.31334">
        <ele>457</ele>
        <time>2022-02-08T04:39:26Z</time>
      </trkpt>
      <trkpt lat="44.60468" lon="4.31328">
        <ele>458</ele>
        <time>2022-02-08T04:39:29Z</time>
      </trkpt>
      <trkpt lat="44.60482" lon="4.31316">
        <ele>461</ele>
        <time>2022-02-08T04:39:32Z</time>
      </trkpt>
      <trkpt lat="44.605" lon="4.31307">
        <ele>462</ele>
        <time>2022-02-08T04:39:35Z</time>
      </trkpt>
      <trkpt lat="44.60507" lon="4.31294">
        <ele>467</ele>
        <time>2022-02-08T04:39:37Z</time>
      </trkpt>
      <trkpt lat="44.60513" lon="4.31286">
        <ele>470</ele>
        <time>2022-02-08T04:39:39Z</time>
      </trkpt>
      <trkpt lat="44.60519" lon="4.31288">
        <ele>471</ele>
        <time>2022-02-08T04:39:40Z</time>
      </trkpt>
      <trkpt lat="44.60524" lon="4.31295">
        <ele>470</ele>
        <time>2022-02-08T04:39:41Z</time>
      </trkpt>
      <trkpt lat="44.60531" lon="4.31312">
        <ele>466</ele>
        <time>2022-02-08T04:39:43Z</time>
      </trkpt>
      <trkpt lat="44.60548" lon="4.3136">
        <ele>456</ele>
        <time>2022-02-08T04:39:50Z</time>
      </trkpt>
      <trkpt lat="44.60558" lon="4.31371">
        <ele>455</ele>
        <time>2022-02-08T04:39:52Z</time>
      </trkpt>
      <trkpt lat="44.60567" lon="4.31374">
        <ele>456</ele>
        <time>2022-02-08T04:39:54Z</time>
      </trkpt>
      <trkpt lat="44.60577" lon="4.31374">
        <ele>457</ele>
        <time>2022-02-08T04:39:56Z</time>
      </trkpt>
      <trkpt lat="44.60583" lon="4.31378">
        <ele>457</ele>
        <time>2022-02-08T04:39:57Z</time>
      </trkpt>
      <trkpt lat="44.60585" lon="4.31385">
        <ele>457</ele>
        <time>2022-02-08T04:39:58Z</time>
      </trkpt>
      <trkpt lat="44.60577" lon="4.31444">
        <ele>444</ele>
        <time>2022-02-08T04:40:06Z</time>
      </trkpt>
      <trkpt lat="44.60576" lon="4.31478">
        <ele>438</ele>
        <time>2022-02-08T04:40:10Z</time>
      </trkpt>
      <trkpt lat="44.60576" lon="4.31517">
        <ele>432</ele>
        <time>2022-02-08T04:40:15Z</time>
      </trkpt>
      <trkpt lat="44.6058" lon="4.31543">
        <ele>427</ele>
        <time>2022-02-08T04:40:18Z</time>
      </trkpt>
      <trkpt lat="44.60588" lon="4.31559">
        <ele>426</ele>
        <time>2022-02-08T04:40:21Z</time>
      </trkpt>
      <trkpt lat="44.60588" lon="4.31564">
        <ele>425</ele>
        <time>2022-02-08T04:40:21Z</time>
      </trkpt>
      <trkpt lat="44.60587" lon="4.31568">
        <ele>424</ele>
        <time>2022-02-08T04:40:22Z</time>
      </trkpt>
      <trkpt lat="44.60583" lon="4.31569">
        <ele>423</ele>
        <time>2022-02-08T04:40:23Z</time>
      </trkpt>
      <trkpt lat="44.6058" lon="4.31566">
        <ele>423</ele>
        <time>2022-02-08T04:40:23Z</time>
      </trkpt>
      <trkpt lat="44.60558" lon="4.315">
        <ele>430</ele>
        <time>2022-02-08T04:40:33Z</time>
      </trkpt>
      <trkpt lat="44.60552" lon="4.31473">
        <ele>433</ele>
        <time>2022-02-08T04:40:36Z</time>
      </trkpt>
      <trkpt lat="44.60548" lon="4.31442">
        <ele>438</ele>
        <time>2022-02-08T04:40:40Z</time>
      </trkpt>
      <trkpt lat="44.60545" lon="4.31429">
        <ele>440</ele>
        <time>2022-02-08T04:40:42Z</time>
      </trkpt>
      <trkpt lat="44.60539" lon="4.31423">
        <ele>440</ele>
        <time>2022-02-08T04:40:43Z</time>
      </trkpt>
      <trkpt lat="44.60526" lon="4.31417">
        <ele>439</ele>
        <time>2022-02-08T04:40:46Z</time>
      </trkpt>
      <trkpt lat="44.6052" lon="4.31422">
        <ele>436</ele>
        <time>2022-02-08T04:40:47Z</time>
      </trkpt>
      <trkpt lat="44.60506" lon="4.31458">
        <ele>426</ele>
        <time>2022-02-08T04:40:52Z</time>
      </trkpt>
      <trkpt lat="44.60497" lon="4.31471">
        <ele>422</ele>
        <time>2022-02-08T04:40:54Z</time>
      </trkpt>
      <trkpt lat="44.60494" lon="4.31488">
        <ele>418</ele>
        <time>2022-02-08T04:40:57Z</time>
      </trkpt>
      <trkpt lat="44.60488" lon="4.31518">
        <ele>412</ele>
        <time>2022-02-08T04:41:00Z</time>
      </trkpt>
      <trkpt lat="44.60478" lon="4.31546">
        <ele>406</ele>
        <time>2022-02-08T04:41:04Z</time>
      </trkpt>
      <trkpt lat="44.60471" lon="4.31558">
        <ele>403</ele>
        <time>2022-02-08T04:41:06Z</time>
      </trkpt>
      <trkpt lat="44.60461" lon="4.31568">
        <ele>400</ele>
        <time>2022-02-08T04:41:09Z</time>
      </trkpt>
      <trkpt lat="44.60451" lon="4.3157">
        <ele>398</ele>
        <time>2022-02-08T04:41:10Z</time>
      </trkpt>
      <trkpt lat="44.60404" lon="4.31553">
        <ele>400</ele>
        <time>2022-02-08T04:41:19Z</time>
      </trkpt>
      <trkpt lat="44.60374" lon="4.31547">
        <ele>396</ele>
        <time>2022-02-08T04:41:24Z</time>
      </trkpt>
      <trkpt lat="44.60358" lon="4.31525">
        <ele>401</ele>
        <time>2022-02-08T04:41:28Z</time>
      </trkpt>
      <trkpt lat="44.60348" lon="4.31523">
        <ele>399</ele>
        <time>2022-02-08T04:41:30Z</time>
      </trkpt>
      <trkpt lat="44.60338" lon="4.31529">
        <ele>396</ele>
        <time>2022-02-08T04:41:32Z</time>
      </trkpt>
      <trkpt lat="44.6032" lon="4.31544">
        <ele>387</ele>
        <time>2022-02-08T04:41:36Z</time>
      </trkpt>
      <trkpt lat="44.60307" lon="4.31548">
        <ele>383</ele>
        <time>2022-02-08T04:41:38Z</time>
      </trkpt>
      <trkpt lat="44.60291" lon="4.31543">
        <ele>381</ele>
        <time>2022-02-08T04:41:41Z</time>
      </trkpt>
      <trkpt lat="44.6028" lon="4.31529">
        <ele>382</ele>
        <time>2022-02-08T04:41:44Z</time>
      </trkpt>
      <trkpt lat="44.60273" lon="4.31514">
        <ele>384</ele>
        <time>2022-02-08T04:41:46Z</time>
      </trkpt>
      <trkpt lat="44.60266" lon="4.31504">
        <ele>384</ele>
        <time>2022-02-08T04:41:48Z</time>
      </trkpt>
      <trkpt lat="44.60204" lon="4.31445">
        <ele>385</ele>
        <time>2022-02-08T04:42:01Z</time>
      </trkpt>
      <trkpt lat="44.60174" lon="4.31439">
        <ele>378</ele>
        <time>2022-02-08T04:42:07Z</time>
      </trkpt>
      <trkpt lat="44.60167" lon="4.31433">
        <ele>378</ele>
        <time>2022-02-08T04:42:08Z</time>
      </trkpt>
      <trkpt lat="44.60163" lon="4.31422">
        <ele>380</ele>
        <time>2022-02-08T04:42:10Z</time>
      </trkpt>
      <trkpt lat="44.60162" lon="4.31407">
        <ele>384</ele>
        <time>2022-02-08T04:42:12Z</time>
      </trkpt>
      <trkpt lat="44.60158" lon="4.31403">
        <ele>385</ele>
        <time>2022-02-08T04:42:12Z</time>
      </trkpt>
      <trkpt lat="44.60149" lon="4.31405">
        <ele>384</ele>
        <time>2022-02-08T04:42:14Z</time>
      </trkpt>
      <trkpt lat="44.6012" lon="4.31425">
        <ele>376</ele>
        <time>2022-02-08T04:42:20Z</time>
      </trkpt>
      <trkpt lat="44.6009" lon="4.31432">
        <ele>371</ele>
        <time>2022-02-08T04:42:25Z</time>
      </trkpt>
      <trkpt lat="44.60068" lon="4.31429">
        <ele>369</ele>
        <time>2022-02-08T04:42:29Z</time>
      </trkpt>
      <trkpt lat="44.60041" lon="4.31431">
        <ele>365</ele>
        <time>2022-02-08T04:42:34Z</time>
      </trkpt>
      <trkpt lat="44.6" lon="4.31441">
        <ele>358</ele>
        <time>2022-02-08T04:42:41Z</time>
      </trkpt>
      <trkpt lat="44.59993" lon="4.31445">
        <ele>357</ele>
        <time>2022-02-08T04:42:43Z</time>
      </trkpt>
      <trkpt lat="44.5998" lon="4.31451">
        <ele>355</ele>
        <time>2022-02-08T04:42:45Z</time>
      </trkpt>
      <trkpt lat="44.59966" lon="4.31457">
        <ele>353</ele>
        <time>2022-02-08T04:42:48Z</time>
      </trkpt>
      <trkpt lat="44.59952" lon="4.31457">
        <ele>352</ele>
        <time>2022-02-08T04:42:50Z</time>
      </trkpt>
      <trkpt lat="44.59945" lon="4.31449">
        <ele>352</ele>
        <time>2022-02-08T04:42:52Z</time>
      </trkpt>
      <trkpt lat="44.59941" lon="4.31433">
        <ele>353</ele>
        <time>2022-02-08T04:42:54Z</time>
      </trkpt>
      <trkpt lat="44.59938" lon="4.31418">
        <ele>354</ele>
        <time>2022-02-08T04:42:56Z</time>
      </trkpt>
      <trkpt lat="44.59932" lon="4.31393">
        <ele>355</ele>
        <time>2022-02-08T04:42:59Z</time>
      </trkpt>
      <trkpt lat="44.59914" lon="4.3135">
        <ele>356</ele>
        <time>2022-02-08T04:43:06Z</time>
      </trkpt>
      <trkpt lat="44.59908" lon="4.31331">
        <ele>359</ele>
        <time>2022-02-08T04:43:08Z</time>
      </trkpt>
      <trkpt lat="44.59905" lon="4.3133">
        <ele>361</ele>
        <time>2022-02-08T04:43:09Z</time>
      </trkpt>
      <trkpt lat="44.59892" lon="4.31337">
        <ele>365</ele>
        <time>2022-02-08T04:43:11Z</time>
      </trkpt>
      <trkpt lat="44.59888" lon="4.31365">
        <ele>364</ele>
        <time>2022-02-08T04:43:15Z</time>
      </trkpt>
      <trkpt lat="44.59887" lon="4.31402">
        <ele>360</ele>
        <time>2022-02-08T04:43:20Z</time>
      </trkpt>
      <trkpt lat="44.59877" lon="4.31447">
        <ele>356</ele>
        <time>2022-02-08T04:43:26Z</time>
      </trkpt>
      <trkpt lat="44.59866" lon="4.31474">
        <ele>352</ele>
        <time>2022-02-08T04:43:29Z</time>
      </trkpt>
      <trkpt lat="44.59846" lon="4.3148">
        <ele>352</ele>
        <time>2022-02-08T04:43:33Z</time>
      </trkpt>
      <trkpt lat="44.59843" lon="4.31473">
        <ele>354</ele>
        <time>2022-02-08T04:43:34Z</time>
      </trkpt>
      <trkpt lat="44.59837" lon="4.3147">
        <ele>356</ele>
        <time>2022-02-08T04:43:35Z</time>
      </trkpt>
      <trkpt lat="44.59819" lon="4.3147">
        <ele>356</ele>
        <time>2022-02-08T04:43:38Z</time>
      </trkpt>
      <trkpt lat="44.5981" lon="4.31466">
        <ele>356</ele>
        <time>2022-02-08T04:43:40Z</time>
      </trkpt>
      <trkpt lat="44.598" lon="4.31458">
        <ele>358</ele>
        <time>2022-02-08T04:43:42Z</time>
      </trkpt>
      <trkpt lat="44.59783" lon="4.31435">
        <ele>364</ele>
        <time>2022-02-08T04:43:46Z</time>
      </trkpt>
      <trkpt lat="44.59775" lon="4.31429">
        <ele>365</ele>
        <time>2022-02-08T04:43:48Z</time>
      </trkpt>
      <trkpt lat="44.59766" lon="4.31428">
        <ele>365</ele>
        <time>2022-02-08T04:43:50Z</time>
      </trkpt>
      <trkpt lat="44.59758" lon="4.3143">
        <ele>364</ele>
        <time>2022-02-08T04:43:51Z</time>
      </trkpt>
      <trkpt lat="44.5974" lon="4.31447">
        <ele>360</ele>
        <time>2022-02-08T04:43:55Z</time>
      </trkpt>
      <trkpt lat="44.59728" lon="4.31453">
        <ele>359</ele>
        <time>2022-02-08T04:43:57Z</time>
      </trkpt>
      <trkpt lat="44.59704" lon="4.31455">
        <ele>360</ele>
        <time>2022-02-08T04:44:01Z</time>
      </trkpt>
      <trkpt lat="44.5969" lon="4.31454">
        <ele>361</ele>
        <time>2022-02-08T04:44:04Z</time>
      </trkpt>
      <trkpt lat="44.5968" lon="4.31448">
        <ele>364</ele>
        <time>2022-02-08T04:44:06Z</time>
      </trkpt>
      <trkpt lat="44.5964" lon="4.31421">
        <ele>375</ele>
        <time>2022-02-08T04:44:14Z</time>
      </trkpt>
      <trkpt lat="44.59577" lon="4.31409">
        <ele>383</ele>
        <time>2022-02-08T04:44:25Z</time>
      </trkpt>
      <trkpt lat="44.59565" lon="4.31415">
        <ele>382</ele>
        <time>2022-02-08T04:44:27Z</time>
      </trkpt>
      <trkpt lat="44.59556" lon="4.31426">
        <ele>379</ele>
        <time>2022-02-08T04:44:29Z</time>
      </trkpt>
      <trkpt lat="44.59535" lon="4.3144">
        <ele>376</ele>
        <time>2022-02-08T04:44:34Z</time>
      </trkpt>
      <trkpt lat="44.59523" lon="4.31443">
        <ele>376</ele>
        <time>2022-02-08T04:44:36Z</time>
      </trkpt>
      <trkpt lat="44.5951" lon="4.31444">
        <ele>378</ele>
        <time>2022-02-08T04:44:38Z</time>
      </trkpt>
      <trkpt lat="44.59495" lon="4.31443">
        <ele>380</ele>
        <time>2022-02-08T04:44:41Z</time>
      </trkpt>
      <trkpt lat="44.59482" lon="4.31436">
        <ele>382</ele>
        <time>2022-02-08T04:44:43Z</time>
      </trkpt>
      <trkpt lat="44.59436" lon="4.31412">
        <ele>388</ele>
        <time>2022-02-08T04:44:52Z</time>
      </trkpt>
      <trkpt lat="44.59424" lon="4.3141">
        <ele>388</ele>
        <time>2022-02-08T04:44:54Z</time>
      </trkpt>
      <trkpt lat="44.59402" lon="4.31413">
        <ele>388</ele>
        <time>2022-02-08T04:44:58Z</time>
      </trkpt>
      <trkpt lat="44.59382" lon="4.31411">
        <ele>390</ele>
        <time>2022-02-08T04:45:02Z</time>
      </trkpt>
      <trkpt lat="44.5936" lon="4.31413">
        <ele>392</ele>
        <time>2022-02-08T04:45:06Z</time>
      </trkpt>
      <trkpt lat="44.5934" lon="4.3142">
        <ele>391</ele>
        <time>2022-02-08T04:45:09Z</time>
      </trkpt>
      <trkpt lat="44.59324" lon="4.31425">
        <ele>392</ele>
        <time>2022-02-08T04:45:12Z</time>
      </trkpt>
      <trkpt lat="44.59294" lon="4.31421">
        <ele>396</ele>
        <time>2022-02-08T04:45:18Z</time>
      </trkpt>
      <trkpt lat="44.59286" lon="4.31422">
        <ele>396</ele>
        <time>2022-02-08T04:45:19Z</time>
      </trkpt>
      <trkpt lat="44.59274" lon="4.31427">
        <ele>396</ele>
        <time>2022-02-08T04:45:21Z</time>
      </trkpt>
      <trkpt lat="44.59266" lon="4.31428">
        <ele>397</ele>
        <time>2022-02-08T04:45:23Z</time>
      </trkpt>
      <trkpt lat="44.59241" lon="4.31424">
        <ele>398</ele>
        <time>2022-02-08T04:45:27Z</time>
      </trkpt>
      <trkpt lat="44.59229" lon="4.31413">
        <ele>398</ele>
        <time>2022-02-08T04:45:30Z</time>
      </trkpt>
      <trkpt lat="44.59217" lon="4.314">
        <ele>398</ele>
        <time>2022-02-08T04:45:32Z</time>
      </trkpt>
      <trkpt lat="44.59213" lon="4.31388">
        <ele>398</ele>
        <time>2022-02-08T04:45:34Z</time>
      </trkpt>
      <trkpt lat="44.59209" lon="4.31374">
        <ele>399</ele>
        <time>2022-02-08T04:45:36Z</time>
      </trkpt>
      <trkpt lat="44.59207" lon="4.31351">
        <ele>400</ele>
        <time>2022-02-08T04:45:39Z</time>
      </trkpt>
      <trkpt lat="44.59209" lon="4.31331">
        <ele>402</ele>
        <time>2022-02-08T04:45:41Z</time>
      </trkpt>
      <trkpt lat="44.59213" lon="4.31317">
        <ele>403</ele>
        <time>2022-02-08T04:45:43Z</time>
      </trkpt>
      <trkpt lat="44.59224" lon="4.31288">
        <ele>406</ele>
        <time>2022-02-08T04:45:47Z</time>
      </trkpt>
      <trkpt lat="44.59236" lon="4.31256">
        <ele>410</ele>
        <time>2022-02-08T04:45:52Z</time>
      </trkpt>
      <trkpt lat="44.59322" lon="4.31062">
        <ele>418</ele>
        <time>2022-02-08T04:46:21Z</time>
      </trkpt>
      <trkpt lat="44.59327" lon="4.31048">
        <ele>419</ele>
        <time>2022-02-08T04:46:23Z</time>
      </trkpt>
      <trkpt lat="44.59338" lon="4.30997">
        <ele>418</ele>
        <time>2022-02-08T04:46:30Z</time>
      </trkpt>
      <trkpt lat="44.59345" lon="4.30976">
        <ele>417</ele>
        <time>2022-02-08T04:46:33Z</time>
      </trkpt>
      <trkpt lat="44.59363" lon="4.3095">
        <ele>420</ele>
        <time>2022-02-08T04:46:37Z</time>
      </trkpt>
      <trkpt lat="44.59415" lon="4.30898">
        <ele>429</ele>
        <time>2022-02-08T04:46:49Z</time>
      </trkpt>
      <trkpt lat="44.59424" lon="4.30884">
        <ele>430</ele>
        <time>2022-02-08T04:46:51Z</time>
      </trkpt>
      <trkpt lat="44.59464" lon="4.30785">
        <ele>432</ele>
        <time>2022-02-08T04:47:05Z</time>
      </trkpt>
      <trkpt lat="44.59469" lon="4.30777">
        <ele>433</ele>
        <time>2022-02-08T04:47:07Z</time>
      </trkpt>
      <trkpt lat="44.59483" lon="4.30764">
        <ele>437</ele>
        <time>2022-02-08T04:47:10Z</time>
      </trkpt>
      <trkpt lat="44.59488" lon="4.30757">
        <ele>438</ele>
        <time>2022-02-08T04:47:11Z</time>
      </trkpt>
      <trkpt lat="44.59491" lon="4.30753">
        <ele>439</ele>
        <time>2022-02-08T04:47:12Z</time>
      </trkpt>
      <trkpt lat="44.59494" lon="4.30741">
        <ele>441</ele>
        <time>2022-02-08T04:47:13Z</time>
      </trkpt>
      <trkpt lat="44.59494" lon="4.30733">
        <ele>441</ele>
        <time>2022-02-08T04:47:14Z</time>
      </trkpt>
      <trkpt lat="44.59486" lon="4.30681">
        <ele>443</ele>
        <time>2022-02-08T04:47:21Z</time>
      </trkpt>
      <trkpt lat="44.59478" lon="4.30653">
        <ele>445</ele>
        <time>2022-02-08T04:47:25Z</time>
      </trkpt>
      <trkpt lat="44.59472" lon="4.30643">
        <ele>445</ele>
        <time>2022-02-08T04:47:27Z</time>
      </trkpt>
      <trkpt lat="44.59462" lon="4.30634">
        <ele>444</ele>
        <time>2022-02-08T04:47:29Z</time>
      </trkpt>
      <trkpt lat="44.59447" lon="4.30624">
        <ele>442</ele>
        <time>2022-02-08T04:47:32Z</time>
      </trkpt>
      <trkpt lat="44.59424" lon="4.30603">
        <ele>439</ele>
        <time>2022-02-08T04:47:37Z</time>
      </trkpt>
      <trkpt lat="44.59418" lon="4.30589">
        <ele>439</ele>
        <time>2022-02-08T04:47:39Z</time>
      </trkpt>
      <trkpt lat="44.59418" lon="4.30578">
        <ele>439</ele>
        <time>2022-02-08T04:47:40Z</time>
      </trkpt>
      <trkpt lat="44.59421" lon="4.30558">
        <ele>438</ele>
        <time>2022-02-08T04:47:43Z</time>
      </trkpt>
      <trkpt lat="44.59426" lon="4.30546">
        <ele>438</ele>
        <time>2022-02-08T04:47:44Z</time>
      </trkpt>
      <trkpt lat="44.59457" lon="4.30507">
        <ele>444</ele>
        <time>2022-02-08T04:47:52Z</time>
      </trkpt>
      <trkpt lat="44.59475" lon="4.30479">
        <ele>449</ele>
        <time>2022-02-08T04:47:57Z</time>
      </trkpt>
      <trkpt lat="44.59488" lon="4.30427">
        <ele>449</ele>
        <time>2022-02-08T04:48:04Z</time>
      </trkpt>
      <trkpt lat="44.595" lon="4.30365">
        <ele>449</ele>
        <time>2022-02-08T04:48:12Z</time>
      </trkpt>
      <trkpt lat="44.59499" lon="4.30354">
        <ele>449</ele>
        <time>2022-02-08T04:48:13Z</time>
      </trkpt>
      <trkpt lat="44.59495" lon="4.30347">
        <ele>449</ele>
        <time>2022-02-08T04:48:14Z</time>
      </trkpt>
      <trkpt lat="44.59489" lon="4.30344">
        <ele>450</ele>
        <time>2022-02-08T04:48:15Z</time>
      </trkpt>
      <trkpt lat="44.59477" lon="4.30344">
        <ele>450</ele>
        <time>2022-02-08T04:48:18Z</time>
      </trkpt>
      <trkpt lat="44.5947" lon="4.30347">
        <ele>450</ele>
        <time>2022-02-08T04:48:19Z</time>
      </trkpt>
      <trkpt lat="44.59463" lon="4.30354">
        <ele>450</ele>
        <time>2022-02-08T04:48:20Z</time>
      </trkpt>
      <trkpt lat="44.59447" lon="4.30377">
        <ele>447</ele>
        <time>2022-02-08T04:48:24Z</time>
      </trkpt>
      <trkpt lat="44.59439" lon="4.30383">
        <ele>446</ele>
        <time>2022-02-08T04:48:26Z</time>
      </trkpt>
      <trkpt lat="44.59429" lon="4.30385">
        <ele>445</ele>
        <time>2022-02-08T04:48:28Z</time>
      </trkpt>
      <trkpt lat="44.59383" lon="4.30382">
        <ele>445</ele>
        <time>2022-02-08T04:48:36Z</time>
      </trkpt>
      <trkpt lat="44.59335" lon="4.30386">
        <ele>445</ele>
        <time>2022-02-08T04:48:45Z</time>
      </trkpt>
      <trkpt lat="44.59257" lon="4.30381">
        <ele>439</ele>
        <time>2022-02-08T04:48:58Z</time>
      </trkpt>
      <trkpt lat="44.59248" lon="4.30378">
        <ele>439</ele>
        <time>2022-02-08T04:49:00Z</time>
      </trkpt>
      <trkpt lat="44.59243" lon="4.30372">
        <ele>438</ele>
        <time>2022-02-08T04:49:01Z</time>
      </trkpt>
      <trkpt lat="44.59241" lon="4.30364">
        <ele>439</ele>
        <time>2022-02-08T04:49:02Z</time>
      </trkpt>
      <trkpt lat="44.59245" lon="4.30328">
        <ele>445</ele>
        <time>2022-02-08T04:49:07Z</time>
      </trkpt>
      <trkpt lat="44.59247" lon="4.30286">
        <ele>446</ele>
        <time>2022-02-08T04:49:12Z</time>
      </trkpt>
      <trkpt lat="44.59244" lon="4.30251">
        <ele>446</ele>
        <time>2022-02-08T04:49:17Z</time>
      </trkpt>
      <trkpt lat="44.59245" lon="4.30235">
        <ele>446</ele>
        <time>2022-02-08T04:49:19Z</time>
      </trkpt>
      <trkpt lat="44.59259" lon="4.30156">
        <ele>453</ele>
        <time>2022-02-08T04:49:29Z</time>
      </trkpt>
      <trkpt lat="44.59259" lon="4.30139">
        <ele>455</ele>
        <time>2022-02-08T04:49:31Z</time>
      </trkpt>
      <trkpt lat="44.59253" lon="4.30121">
        <ele>456</ele>
        <time>2022-02-08T04:49:34Z</time>
      </trkpt>
      <trkpt lat="44.59246" lon="4.30112">
        <ele>456</ele>
        <time>2022-02-08T04:49:35Z</time>
      </trkpt>
      <trkpt lat="44.59243" lon="4.3011">
        <ele>456</ele>
        <time>2022-02-08T04:49:36Z</time>
      </trkpt>
      <trkpt lat="44.59236" lon="4.30111">
        <ele>456</ele>
        <time>2022-02-08T04:49:37Z</time>
      </trkpt>
      <trkpt lat="44.59192" lon="4.30137">
        <ele>447</ele>
        <time>2022-02-08T04:49:46Z</time>
      </trkpt>
      <trkpt lat="44.59175" lon="4.3014">
        <ele>445</ele>
        <time>2022-02-08T04:49:49Z</time>
      </trkpt>
      <trkpt lat="44.59164" lon="4.30138">
        <ele>444</ele>
        <time>2022-02-08T04:49:51Z</time>
      </trkpt>
      <trkpt lat="44.59149" lon="4.30132">
        <ele>444</ele>
        <time>2022-02-08T04:49:54Z</time>
      </trkpt>
      <trkpt lat="44.59138" lon="4.30126">
        <ele>444</ele>
        <time>2022-02-08T04:49:56Z</time>
      </trkpt>
      <trkpt lat="44.59126" lon="4.30114">
        <ele>445</ele>
        <time>2022-02-08T04:49:58Z</time>
      </trkpt>
      <trkpt lat="44.59113" lon="4.30097">
        <ele>446</ele>
        <time>2022-02-08T04:50:01Z</time>
      </trkpt>
      <trkpt lat="44.59103" lon="4.30081">
        <ele>446</ele>
        <time>2022-02-08T04:50:04Z</time>
      </trkpt>
      <trkpt lat="44.59084" lon="4.30041">
        <ele>449</ele>
        <time>2022-02-08T04:50:10Z</time>
      </trkpt>
      <trkpt lat="44.59077" lon="4.30035">
        <ele>451</ele>
        <time>2022-02-08T04:50:12Z</time>
      </trkpt>
      <trkpt lat="44.59067" lon="4.30035">
        <ele>453</ele>
        <time>2022-02-08T04:50:14Z</time>
      </trkpt>
      <trkpt lat="44.59058" lon="4.3004">
        <ele>454</ele>
        <time>2022-02-08T04:50:15Z</time>
      </trkpt>
      <trkpt lat="44.59024" lon="4.3009">
        <ele>456</ele>
        <time>2022-02-08T04:50:24Z</time>
      </trkpt>
      <trkpt lat="44.59015" lon="4.30107">
        <ele>457</ele>
        <time>2022-02-08T04:50:27Z</time>
      </trkpt>
      <trkpt lat="44.59011" lon="4.30138">
        <ele>458</ele>
        <time>2022-02-08T04:50:31Z</time>
      </trkpt>
      <trkpt lat="44.59014" lon="4.30155">
        <ele>456</ele>
        <time>2022-02-08T04:50:33Z</time>
      </trkpt>
      <trkpt lat="44.59023" lon="4.30178">
        <ele>453</ele>
        <time>2022-02-08T04:50:36Z</time>
      </trkpt>
      <trkpt lat="44.5903" lon="4.30191">
        <ele>450</ele>
        <time>2022-02-08T04:50:38Z</time>
      </trkpt>
      <trkpt lat="44.59031" lon="4.30203">
        <ele>448</ele>
        <time>2022-02-08T04:50:40Z</time>
      </trkpt>
      <trkpt lat="44.59025" lon="4.30221">
        <ele>449</ele>
        <time>2022-02-08T04:50:42Z</time>
      </trkpt>
      <trkpt lat="44.59003" lon="4.30273">
        <ele>451</ele>
        <time>2022-02-08T04:50:50Z</time>
      </trkpt>
      <trkpt lat="44.5899" lon="4.3028">
        <ele>450</ele>
        <time>2022-02-08T04:50:52Z</time>
      </trkpt>
      <trkpt lat="44.58962" lon="4.30286">
        <ele>447</ele>
        <time>2022-02-08T04:50:58Z</time>
      </trkpt>
      <trkpt lat="44.58934" lon="4.30287">
        <ele>443</ele>
        <time>2022-02-08T04:51:03Z</time>
      </trkpt>
      <trkpt lat="44.58925" lon="4.30283">
        <ele>443</ele>
        <time>2022-02-08T04:51:04Z</time>
      </trkpt>
      <trkpt lat="44.58914" lon="4.30275">
        <ele>443</ele>
        <time>2022-02-08T04:51:06Z</time>
      </trkpt>
      <trkpt lat="44.58906" lon="4.30265">
        <ele>441</ele>
        <time>2022-02-08T04:51:08Z</time>
      </trkpt>
      <trkpt lat="44.58882" lon="4.30212">
        <ele>443</ele>
        <time>2022-02-08T04:51:16Z</time>
      </trkpt>
      <trkpt lat="44.5885" lon="4.3015">
        <ele>445</ele>
        <time>2022-02-08T04:51:26Z</time>
      </trkpt>
      <trkpt lat="44.58822" lon="4.30109">
        <ele>446</ele>
        <time>2022-02-08T04:51:33Z</time>
      </trkpt>
      <trkpt lat="44.58811" lon="4.30098">
        <ele>445</ele>
        <time>2022-02-08T04:51:36Z</time>
      </trkpt>
      <trkpt lat="44.58778" lon="4.30083">
        <ele>437</ele>
        <time>2022-02-08T04:51:42Z</time>
      </trkpt>
      <trkpt lat="44.58765" lon="4.30073">
        <ele>436</ele>
        <time>2022-02-08T04:51:44Z</time>
      </trkpt>
      <trkpt lat="44.58737" lon="4.30034">
        <ele>441</ele>
        <time>2022-02-08T04:51:51Z</time>
      </trkpt>
      <trkpt lat="44.58727" lon="4.30023">
        <ele>443</ele>
        <time>2022-02-08T04:51:54Z</time>
      </trkpt>
      <trkpt lat="44.58718" lon="4.30021">
        <ele>441</ele>
        <time>2022-02-08T04:51:55Z</time>
      </trkpt>
      <trkpt lat="44.58709" lon="4.30023">
        <ele>439</ele>
        <time>2022-02-08T04:51:57Z</time>
      </trkpt>
      <trkpt lat="44.58693" lon="4.30036">
        <ele>432</ele>
        <time>2022-02-08T04:52:00Z</time>
      </trkpt>
      <trkpt lat="44.58683" lon="4.3004">
        <ele>429</ele>
        <time>2022-02-08T04:52:02Z</time>
      </trkpt>
      <trkpt lat="44.58671" lon="4.3004">
        <ele>427</ele>
        <time>2022-02-08T04:52:04Z</time>
      </trkpt>
      <trkpt lat="44.58661" lon="4.30035">
        <ele>426</ele>
        <time>2022-02-08T04:52:06Z</time>
      </trkpt>
      <trkpt lat="44.58653" lon="4.30026">
        <ele>427</ele>
        <time>2022-02-08T04:52:08Z</time>
      </trkpt>
      <trkpt lat="44.58648" lon="4.30014">
        <ele>428</ele>
        <time>2022-02-08T04:52:10Z</time>
      </trkpt>
      <trkpt lat="44.58641" lon="4.29983">
        <ele>435</ele>
        <time>2022-02-08T04:52:14Z</time>
      </trkpt>
      <trkpt lat="44.58635" lon="4.29976">
        <ele>436</ele>
        <time>2022-02-08T04:52:15Z</time>
      </trkpt>
      <trkpt lat="44.58626" lon="4.29973">
        <ele>435</ele>
        <time>2022-02-08T04:52:17Z</time>
      </trkpt>
      <trkpt lat="44.5859" lon="4.29978">
        <ele>426</ele>
        <time>2022-02-08T04:52:23Z</time>
      </trkpt>
      <trkpt lat="44.5858" lon="4.29977">
        <ele>425</ele>
        <time>2022-02-08T04:52:25Z</time>
      </trkpt>
      <trkpt lat="44.5856" lon="4.29965">
        <ele>426</ele>
        <time>2022-02-08T04:52:29Z</time>
      </trkpt>
      <trkpt lat="44.58538" lon="4.29949">
        <ele>426</ele>
        <time>2022-02-08T04:52:33Z</time>
      </trkpt>
      <trkpt lat="44.58531" lon="4.29939">
        <ele>427</ele>
        <time>2022-02-08T04:52:35Z</time>
      </trkpt>
      <trkpt lat="44.58522" lon="4.2991">
        <ele>429</ele>
        <time>2022-02-08T04:52:39Z</time>
      </trkpt>
      <trkpt lat="44.58516" lon="4.29899">
        <ele>429</ele>
        <time>2022-02-08T04:52:41Z</time>
      </trkpt>
      <trkpt lat="44.58505" lon="4.29891">
        <ele>428</ele>
        <time>2022-02-08T04:52:43Z</time>
      </trkpt>
      <trkpt lat="44.58491" lon="4.29872">
        <ele>430</ele>
        <time>2022-02-08T04:52:46Z</time>
      </trkpt>
      <trkpt lat="44.58475" lon="4.29844">
        <ele>435</ele>
        <time>2022-02-08T04:52:51Z</time>
      </trkpt>
      <trkpt lat="44.58464" lon="4.29844">
        <ele>436</ele>
        <time>2022-02-08T04:52:53Z</time>
      </trkpt>
      <trkpt lat="44.58454" lon="4.29847">
        <ele>437</ele>
        <time>2022-02-08T04:52:55Z</time>
      </trkpt>
      <trkpt lat="44.58441" lon="4.29858">
        <ele>437</ele>
        <time>2022-02-08T04:52:58Z</time>
      </trkpt>
      <trkpt lat="44.58438" lon="4.29869">
        <ele>436</ele>
        <time>2022-02-08T04:52:59Z</time>
      </trkpt>
      <trkpt lat="44.58444" lon="4.29891">
        <ele>434</ele>
        <time>2022-02-08T04:53:02Z</time>
      </trkpt>
      <trkpt lat="44.58445" lon="4.29908">
        <ele>433</ele>
        <time>2022-02-08T04:53:04Z</time>
      </trkpt>
      <trkpt lat="44.5844" lon="4.29922">
        <ele>433</ele>
        <time>2022-02-08T04:53:06Z</time>
      </trkpt>
      <trkpt lat="44.58416" lon="4.29962">
        <ele>438</ele>
        <time>2022-02-08T04:53:13Z</time>
      </trkpt>
      <trkpt lat="44.58415" lon="4.29982">
        <ele>438</ele>
        <time>2022-02-08T04:53:15Z</time>
      </trkpt>
      <trkpt lat="44.58437" lon="4.30032">
        <ele>435</ele>
        <time>2022-02-08T04:53:23Z</time>
      </trkpt>
      <trkpt lat="44.58439" lon="4.3005">
        <ele>436</ele>
        <time>2022-02-08T04:53:25Z</time>
      </trkpt>
      <trkpt lat="44.58434" lon="4.30088">
        <ele>441</ele>
        <time>2022-02-08T04:53:30Z</time>
      </trkpt>
      <trkpt lat="44.58436" lon="4.30098">
        <ele>442</ele>
        <time>2022-02-08T04:53:31Z</time>
      </trkpt>
      <trkpt lat="44.58439" lon="4.30104">
        <ele>441</ele>
        <time>2022-02-08T04:53:32Z</time>
      </trkpt>
      <trkpt lat="44.58449" lon="4.30112">
        <ele>438</ele>
        <time>2022-02-08T04:53:34Z</time>
      </trkpt>
      <trkpt lat="44.58463" lon="4.30128">
        <ele>434</ele>
        <time>2022-02-08T04:53:37Z</time>
      </trkpt>
      <trkpt lat="44.58474" lon="4.30152">
        <ele>431</ele>
        <time>2022-02-08T04:53:41Z</time>
      </trkpt>
      <trkpt lat="44.58477" lon="4.30192">
        <ele>436</ele>
        <time>2022-02-08T04:53:46Z</time>
      </trkpt>
      <trkpt lat="44.58473" lon="4.30233">
        <ele>446</ele>
        <time>2022-02-08T04:53:51Z</time>
      </trkpt>
      <trkpt lat="44.58473" lon="4.30255">
        <ele>451</ele>
        <time>2022-02-08T04:53:54Z</time>
      </trkpt>
      <trkpt lat="44.58479" lon="4.30264">
        <ele>450</ele>
        <time>2022-02-08T04:53:56Z</time>
      </trkpt>
      <trkpt lat="44.58495" lon="4.30272">
        <ele>445</ele>
        <time>2022-02-08T04:53:59Z</time>
      </trkpt>
      <trkpt lat="44.58529" lon="4.30279">
        <ele>436</ele>
        <time>2022-02-08T04:54:05Z</time>
      </trkpt>
      <trkpt lat="44.58536" lon="4.30284">
        <ele>435</ele>
        <time>2022-02-08T04:54:06Z</time>
      </trkpt>
      <trkpt lat="44.5855" lon="4.30302">
        <ele>435</ele>
        <time>2022-02-08T04:54:10Z</time>
      </trkpt>
      <trkpt lat="44.58555" lon="4.30318">
        <ele>437</ele>
        <time>2022-02-08T04:54:12Z</time>
      </trkpt>
      <trkpt lat="44.58556" lon="4.30335">
        <ele>441</ele>
        <time>2022-02-08T04:54:14Z</time>
      </trkpt>
      <trkpt lat="44.58551" lon="4.30377">
        <ele>444</ele>
        <time>2022-02-08T04:54:19Z</time>
      </trkpt>
      <trkpt lat="44.58545" lon="4.30407">
        <ele>447</ele>
        <time>2022-02-08T04:54:23Z</time>
      </trkpt>
      <trkpt lat="44.58529" lon="4.30437">
        <ele>454</ele>
        <time>2022-02-08T04:54:28Z</time>
      </trkpt>
      <trkpt lat="44.58527" lon="4.30461">
        <ele>455</ele>
        <time>2022-02-08T04:54:31Z</time>
      </trkpt>
      <trkpt lat="44.58526" lon="4.30547">
        <ele>456</ele>
        <time>2022-02-08T04:54:42Z</time>
      </trkpt>
      <trkpt lat="44.58538" lon="4.30621">
        <ele>452</ele>
        <time>2022-02-08T04:54:52Z</time>
      </trkpt>
      <trkpt lat="44.58536" lon="4.30639">
        <ele>452</ele>
        <time>2022-02-08T04:54:54Z</time>
      </trkpt>
      <trkpt lat="44.5853" lon="4.30647">
        <ele>452</ele>
        <time>2022-02-08T04:54:56Z</time>
      </trkpt>
      <trkpt lat="44.58522" lon="4.30651">
        <ele>453</ele>
        <time>2022-02-08T04:54:57Z</time>
      </trkpt>
      <trkpt lat="44.58492" lon="4.30644">
        <ele>456</ele>
        <time>2022-02-08T04:55:02Z</time>
      </trkpt>
      <trkpt lat="44.58462" lon="4.30645">
        <ele>458</ele>
        <time>2022-02-08T04:55:08Z</time>
      </trkpt>
      <trkpt lat="44.58434" lon="4.30659">
        <ele>456</ele>
        <time>2022-02-08T04:55:13Z</time>
      </trkpt>
      <trkpt lat="44.5842" lon="4.3066">
        <ele>456</ele>
        <time>2022-02-08T04:55:16Z</time>
      </trkpt>
      <trkpt lat="44.58407" lon="4.30656">
        <ele>455</ele>
        <time>2022-02-08T04:55:18Z</time>
      </trkpt>
      <trkpt lat="44.58361" lon="4.30628">
        <ele>455</ele>
        <time>2022-02-08T04:55:27Z</time>
      </trkpt>
      <trkpt lat="44.58249" lon="4.30506">
        <ele>461</ele>
        <time>2022-02-08T04:55:52Z</time>
      </trkpt>
      <trkpt lat="44.5821" lon="4.3048">
        <ele>459</ele>
        <time>2022-02-08T04:56:00Z</time>
      </trkpt>
      <trkpt lat="44.58161" lon="4.30438">
        <ele>455</ele>
        <time>2022-02-08T04:56:10Z</time>
      </trkpt>
      <trkpt lat="44.58094" lon="4.30355">
        <ele>454</ele>
        <time>2022-02-08T04:56:26Z</time>
      </trkpt>
      <trkpt lat="44.58054" lon="4.30311">
        <ele>453</ele>
        <time>2022-02-08T04:56:35Z</time>
      </trkpt>
      <trkpt lat="44.58025" lon="4.30275">
        <ele>452</ele>
        <time>2022-02-08T04:56:42Z</time>
      </trkpt>
      <trkpt lat="44.5802" lon="4.30261">
        <ele>452</ele>
        <time>2022-02-08T04:56:44Z</time>
      </trkpt>
      <trkpt lat="44.57995" lon="4.3015">
        <ele>451</ele>
        <time>2022-02-08T04:56:59Z</time>
      </trkpt>
      <trkpt lat="44.57987" lon="4.30126">
        <ele>452</ele>
        <time>2022-02-08T04:57:02Z</time>
      </trkpt>
      <trkpt lat="44.5797" lon="4.30086">
        <ele>451</ele>
        <time>2022-02-08T04:57:08Z</time>
      </trkpt>
      <trkpt lat="44.5796" lon="4.30035">
        <ele>453</ele>
        <time>2022-02-08T04:57:15Z</time>
      </trkpt>
      <trkpt lat="44.5792" lon="4.29934">
        <ele>449</ele>
        <time>2022-02-08T04:57:29Z</time>
      </trkpt>
      <trkpt lat="44.57897" lon="4.29872">
        <ele>446</ele>
        <time>2022-02-08T04:57:38Z</time>
      </trkpt>
      <trkpt lat="44.57887" lon="4.29826">
        <ele>447</ele>
        <time>2022-02-08T04:57:44Z</time>
      </trkpt>
      <trkpt lat="44.57882" lon="4.29815">
        <ele>448</ele>
        <time>2022-02-08T04:57:46Z</time>
      </trkpt>
      <trkpt lat="44.57858" lon="4.29783">
        <ele>446</ele>
        <time>2022-02-08T04:57:52Z</time>
      </trkpt>
      <trkpt lat="44.57848" lon="4.29767">
        <ele>446</ele>
        <time>2022-02-08T04:57:54Z</time>
      </trkpt>
      <trkpt lat="44.57829" lon="4.29731">
        <ele>446</ele>
        <time>2022-02-08T04:58:00Z</time>
      </trkpt>
      <trkpt lat="44.57817" lon="4.29713">
        <ele>447</ele>
        <time>2022-02-08T04:58:03Z</time>
      </trkpt>
      <trkpt lat="44.5781" lon="4.29707">
        <ele>446</ele>
        <time>2022-02-08T04:58:05Z</time>
      </trkpt>
      <trkpt lat="44.57746" lon="4.29682">
        <ele>441</ele>
        <time>2022-02-08T04:58:16Z</time>
      </trkpt>
      <trkpt lat="44.57736" lon="4.29676">
        <ele>441</ele>
        <time>2022-02-08T04:58:18Z</time>
      </trkpt>
      <trkpt lat="44.57728" lon="4.29668">
        <ele>442</ele>
        <time>2022-02-08T04:58:20Z</time>
      </trkpt>
      <trkpt lat="44.57725" lon="4.29658">
        <ele>443</ele>
        <time>2022-02-08T04:58:21Z</time>
      </trkpt>
      <trkpt lat="44.57721" lon="4.29612">
        <ele>445</ele>
        <time>2022-02-08T04:58:27Z</time>
      </trkpt>
      <trkpt lat="44.5772" lon="4.29582">
        <ele>447</ele>
        <time>2022-02-08T04:58:31Z</time>
      </trkpt>
      <trkpt lat="44.5772" lon="4.29561">
        <ele>445</ele>
        <time>2022-02-08T04:58:34Z</time>
      </trkpt>
      <trkpt lat="44.57726" lon="4.29541">
        <ele>444</ele>
        <time>2022-02-08T04:58:37Z</time>
      </trkpt>
      <trkpt lat="44.57736" lon="4.29529">
        <ele>444</ele>
        <time>2022-02-08T04:58:39Z</time>
      </trkpt>
      <trkpt lat="44.57746" lon="4.29521">
        <ele>443</ele>
        <time>2022-02-08T04:58:41Z</time>
      </trkpt>
      <trkpt lat="44.57748" lon="4.29514">
        <ele>443</ele>
        <time>2022-02-08T04:58:42Z</time>
      </trkpt>
      <trkpt lat="44.57746" lon="4.29479">
        <ele>442</ele>
        <time>2022-02-08T04:58:46Z</time>
      </trkpt>
      <trkpt lat="44.57736" lon="4.2941">
        <ele>439</ele>
        <time>2022-02-08T04:58:55Z</time>
      </trkpt>
      <trkpt lat="44.57727" lon="4.29326">
        <ele>432</ele>
        <time>2022-02-08T04:59:06Z</time>
      </trkpt>
      <trkpt lat="44.5771" lon="4.29236">
        <ele>423</ele>
        <time>2022-02-08T04:59:18Z</time>
      </trkpt>
      <trkpt lat="44.57691" lon="4.29151">
        <ele>414</ele>
        <time>2022-02-08T04:59:29Z</time>
      </trkpt>
      <trkpt lat="44.57688" lon="4.29126">
        <ele>413</ele>
        <time>2022-02-08T04:59:32Z</time>
      </trkpt>
      <trkpt lat="44.57686" lon="4.29102">
        <ele>413</ele>
        <time>2022-02-08T04:59:35Z</time>
      </trkpt>
      <trkpt lat="44.5769" lon="4.29042">
        <ele>416</ele>
        <time>2022-02-08T04:59:43Z</time>
      </trkpt>
      <trkpt lat="44.57688" lon="4.29034">
        <ele>416</ele>
        <time>2022-02-08T04:59:44Z</time>
      </trkpt>
      <trkpt lat="44.57684" lon="4.29027">
        <ele>414</ele>
        <time>2022-02-08T04:59:45Z</time>
      </trkpt>
      <trkpt lat="44.5768" lon="4.29023">
        <ele>413</ele>
        <time>2022-02-08T04:59:46Z</time>
      </trkpt>
      <trkpt lat="44.57675" lon="4.29022">
        <ele>411</ele>
        <time>2022-02-08T04:59:47Z</time>
      </trkpt>
      <trkpt lat="44.57669" lon="4.29024">
        <ele>408</ele>
        <time>2022-02-08T04:59:48Z</time>
      </trkpt>
      <trkpt lat="44.57664" lon="4.29029">
        <ele>406</ele>
        <time>2022-02-08T04:59:49Z</time>
      </trkpt>
      <trkpt lat="44.57661" lon="4.29043">
        <ele>404</ele>
        <time>2022-02-08T04:59:51Z</time>
      </trkpt>
      <trkpt lat="44.5766" lon="4.29053">
        <ele>403</ele>
        <time>2022-02-08T04:59:52Z</time>
      </trkpt>
      <trkpt lat="44.57666" lon="4.29094">
        <ele>404</ele>
        <time>2022-02-08T04:59:58Z</time>
      </trkpt>
      <trkpt lat="44.57666" lon="4.29108">
        <ele>404</ele>
        <time>2022-02-08T04:59:59Z</time>
      </trkpt>
      <trkpt lat="44.57659" lon="4.29271">
        <ele>408</ele>
        <time>2022-02-08T05:00:20Z</time>
      </trkpt>
      <trkpt lat="44.57657" lon="4.29284">
        <ele>410</ele>
        <time>2022-02-08T05:00:22Z</time>
      </trkpt>
      <trkpt lat="44.57655" lon="4.29287">
        <ele>410</ele>
        <time>2022-02-08T05:00:22Z</time>
      </trkpt>
      <trkpt lat="44.57647" lon="4.29293">
        <ele>412</ele>
        <time>2022-02-08T05:00:24Z</time>
      </trkpt>
      <trkpt lat="44.5764" lon="4.29293">
        <ele>413</ele>
        <time>2022-02-08T05:00:25Z</time>
      </trkpt>
      <trkpt lat="44.57636" lon="4.29289">
        <ele>413</ele>
        <time>2022-02-08T05:00:26Z</time>
      </trkpt>
      <trkpt lat="44.57633" lon="4.29283">
        <ele>413</ele>
        <time>2022-02-08T05:00:27Z</time>
      </trkpt>
      <trkpt lat="44.57633" lon="4.2927">
        <ele>411</ele>
        <time>2022-02-08T05:00:29Z</time>
      </trkpt>
      <trkpt lat="44.57638" lon="4.29264">
        <ele>409</ele>
        <time>2022-02-08T05:00:30Z</time>
      </trkpt>
      <trkpt lat="44.57645" lon="4.29254">
        <ele>407</ele>
        <time>2022-02-08T05:00:32Z</time>
      </trkpt>
      <trkpt lat="44.57645" lon="4.29238">
        <ele>406</ele>
        <time>2022-02-08T05:00:34Z</time>
      </trkpt>
      <trkpt lat="44.57615" lon="4.29141">
        <ele>393</ele>
        <time>2022-02-08T05:00:47Z</time>
      </trkpt>
      <trkpt lat="44.57608" lon="4.29123">
        <ele>391</ele>
        <time>2022-02-08T05:00:50Z</time>
      </trkpt>
      <trkpt lat="44.57604" lon="4.29114">
        <ele>389</ele>
        <time>2022-02-08T05:00:51Z</time>
      </trkpt>
      <trkpt lat="44.57575" lon="4.29063">
        <ele>380</ele>
        <time>2022-02-08T05:00:59Z</time>
      </trkpt>
      <trkpt lat="44.57573" lon="4.29053">
        <ele>379</ele>
        <time>2022-02-08T05:01:01Z</time>
      </trkpt>
      <trkpt lat="44.57573" lon="4.29041">
        <ele>379</ele>
        <time>2022-02-08T05:01:02Z</time>
      </trkpt>
      <trkpt lat="44.57582" lon="4.28999">
        <ele>378</ele>
        <time>2022-02-08T05:01:08Z</time>
      </trkpt>
      <trkpt lat="44.57585" lon="4.28982">
        <ele>379</ele>
        <time>2022-02-08T05:01:10Z</time>
      </trkpt>
      <trkpt lat="44.57585" lon="4.28967">
        <ele>380</ele>
        <time>2022-02-08T05:01:12Z</time>
      </trkpt>
      <trkpt lat="44.57583" lon="4.28955">
        <ele>380</ele>
        <time>2022-02-08T05:01:13Z</time>
      </trkpt>
      <trkpt lat="44.57579" lon="4.28945">
        <ele>379</ele>
        <time>2022-02-08T05:01:15Z</time>
      </trkpt>
      <trkpt lat="44.57564" lon="4.2892">
        <ele>374</ele>
        <time>2022-02-08T05:01:19Z</time>
      </trkpt>
      <trkpt lat="44.57559" lon="4.28905">
        <ele>372</ele>
        <time>2022-02-08T05:01:21Z</time>
      </trkpt>
      <trkpt lat="44.57537" lon="4.28819">
        <ele>365</ele>
        <time>2022-02-08T05:01:33Z</time>
      </trkpt>
      <trkpt lat="44.57535" lon="4.28795">
        <ele>363</ele>
        <time>2022-02-08T05:01:36Z</time>
      </trkpt>
      <trkpt lat="44.57536" lon="4.28774">
        <ele>362</ele>
        <time>2022-02-08T05:01:38Z</time>
      </trkpt>
      <trkpt lat="44.57539" lon="4.28756">
        <ele>362</ele>
        <time>2022-02-08T05:01:41Z</time>
      </trkpt>
      <trkpt lat="44.57548" lon="4.28728">
        <ele>362</ele>
        <time>2022-02-08T05:01:45Z</time>
      </trkpt>
      <trkpt lat="44.57548" lon="4.28717">
        <ele>362</ele>
        <time>2022-02-08T05:01:46Z</time>
      </trkpt>
      <trkpt lat="44.57546" lon="4.28706">
        <ele>361</ele>
        <time>2022-02-08T05:01:47Z</time>
      </trkpt>
      <trkpt lat="44.57531" lon="4.28672">
        <ele>356</ele>
        <time>2022-02-08T05:01:52Z</time>
      </trkpt>
      <trkpt lat="44.57528" lon="4.28662">
        <ele>355</ele>
        <time>2022-02-08T05:01:54Z</time>
      </trkpt>
      <trkpt lat="44.57526" lon="4.28648">
        <ele>355</ele>
        <time>2022-02-08T05:01:56Z</time>
      </trkpt>
      <trkpt lat="44.57533" lon="4.28613">
        <ele>356</ele>
        <time>2022-02-08T05:02:00Z</time>
      </trkpt>
      <trkpt lat="44.57509" lon="4.28591">
        <ele>351</ele>
        <time>2022-02-08T05:02:05Z</time>
      </trkpt>
      <trkpt lat="44.57497" lon="4.28587">
        <ele>349</ele>
        <time>2022-02-08T05:02:08Z</time>
      </trkpt>
      <trkpt lat="44.57463" lon="4.28584">
        <ele>345</ele>
        <time>2022-02-08T05:02:14Z</time>
      </trkpt>
      <trkpt lat="44.57419" lon="4.28574">
        <ele>341</ele>
        <time>2022-02-08T05:02:22Z</time>
      </trkpt>
      <trkpt lat="44.5742" lon="4.28588">
        <ele>341</ele>
        <time>2022-02-08T05:02:23Z</time>
      </trkpt>
      <trkpt lat="44.57426" lon="4.28603">
        <ele>340</ele>
        <time>2022-02-08T05:02:26Z</time>
      </trkpt>
      <trkpt lat="44.57463" lon="4.2864">
        <ele>343</ele>
        <time>2022-02-08T05:02:34Z</time>
      </trkpt>
      <trkpt lat="44.57467" lon="4.28647">
        <ele>344</ele>
        <time>2022-02-08T05:02:35Z</time>
      </trkpt>
      <trkpt lat="44.57471" lon="4.28665">
        <ele>344</ele>
        <time>2022-02-08T05:02:37Z</time>
      </trkpt>
      <trkpt lat="44.57471" lon="4.28674">
        <ele>344</ele>
        <time>2022-02-08T05:02:38Z</time>
      </trkpt>
      <trkpt lat="44.57466" lon="4.28691">
        <ele>343</ele>
        <time>2022-02-08T05:02:41Z</time>
      </trkpt>
      <trkpt lat="44.57461" lon="4.28696">
        <ele>342</ele>
        <time>2022-02-08T05:02:42Z</time>
      </trkpt>
      <trkpt lat="44.57455" lon="4.28699">
        <ele>341</ele>
        <time>2022-02-08T05:02:43Z</time>
      </trkpt>
      <trkpt lat="44.57445" lon="4.28698">
        <ele>339</ele>
        <time>2022-02-08T05:02:45Z</time>
      </trkpt>
      <trkpt lat="44.5741" lon="4.28681">
        <ele>333</ele>
        <time>2022-02-08T05:02:51Z</time>
      </trkpt>
      <trkpt lat="44.57398" lon="4.28685">
        <ele>331</ele>
        <time>2022-02-08T05:02:53Z</time>
      </trkpt>
      <trkpt lat="44.57393" lon="4.28691">
        <ele>330</ele>
        <time>2022-02-08T05:02:55Z</time>
      </trkpt>
      <trkpt lat="44.57388" lon="4.28699">
        <ele>330</ele>
        <time>2022-02-08T05:02:56Z</time>
      </trkpt>
      <trkpt lat="44.57386" lon="4.28708">
        <ele>329</ele>
        <time>2022-02-08T05:02:57Z</time>
      </trkpt>
      <trkpt lat="44.57387" lon="4.28719">
        <ele>329</ele>
        <time>2022-02-08T05:02:59Z</time>
      </trkpt>
      <trkpt lat="44.57397" lon="4.28744">
        <ele>330</ele>
        <time>2022-02-08T05:03:02Z</time>
      </trkpt>
      <trkpt lat="44.574" lon="4.28762">
        <ele>330</ele>
        <time>2022-02-08T05:03:05Z</time>
      </trkpt>
      <trkpt lat="44.57399" lon="4.28771">
        <ele>330</ele>
        <time>2022-02-08T05:03:06Z</time>
      </trkpt>
      <trkpt lat="44.57393" lon="4.28784">
        <ele>330</ele>
        <time>2022-02-08T05:03:08Z</time>
      </trkpt>
      <trkpt lat="44.5739" lon="4.28788">
        <ele>330</ele>
        <time>2022-02-08T05:03:08Z</time>
      </trkpt>
      <trkpt lat="44.57383" lon="4.2879">
        <ele>329</ele>
        <time>2022-02-08T05:03:10Z</time>
      </trkpt>
      <trkpt lat="44.57374" lon="4.2879">
        <ele>328</ele>
        <time>2022-02-08T05:03:11Z</time>
      </trkpt>
      <trkpt lat="44.57332" lon="4.28758">
        <ele>322</ele>
        <time>2022-02-08T05:03:20Z</time>
      </trkpt>
      <trkpt lat="44.57311" lon="4.28749">
        <ele>320</ele>
        <time>2022-02-08T05:03:24Z</time>
      </trkpt>
      <trkpt lat="44.57285" lon="4.28745">
        <ele>318</ele>
        <time>2022-02-08T05:03:28Z</time>
      </trkpt>
      <trkpt lat="44.57265" lon="4.28746">
        <ele>317</ele>
        <time>2022-02-08T05:03:32Z</time>
      </trkpt>
      <trkpt lat="44.57231" lon="4.28752">
        <ele>316</ele>
        <time>2022-02-08T05:03:38Z</time>
      </trkpt>
      <trkpt lat="44.57221" lon="4.28751">
        <ele>316</ele>
        <time>2022-02-08T05:03:40Z</time>
      </trkpt>
      <trkpt lat="44.57215" lon="4.28748">
        <ele>316</ele>
        <time>2022-02-08T05:03:41Z</time>
      </trkpt>
      <trkpt lat="44.57185" lon="4.28722">
        <ele>314</ele>
        <time>2022-02-08T05:03:47Z</time>
      </trkpt>
      <trkpt lat="44.57174" lon="4.28717">
        <ele>313</ele>
        <time>2022-02-08T05:03:49Z</time>
      </trkpt>
      <trkpt lat="44.57148" lon="4.28711">
        <ele>312</ele>
        <time>2022-02-08T05:03:54Z</time>
      </trkpt>
      <trkpt lat="44.57123" lon="4.28708">
        <ele>311</ele>
        <time>2022-02-08T05:03:58Z</time>
      </trkpt>
      <trkpt lat="44.57113" lon="4.28709">
        <ele>311</ele>
        <time>2022-02-08T05:04:00Z</time>
      </trkpt>
      <trkpt lat="44.57048" lon="4.28726">
        <ele>312</ele>
        <time>2022-02-08T05:04:12Z</time>
      </trkpt>
      <trkpt lat="44.57031" lon="4.28728">
        <ele>312</ele>
        <time>2022-02-08T05:04:15Z</time>
      </trkpt>
      <trkpt lat="44.57005" lon="4.28723">
        <ele>311</ele>
        <time>2022-02-08T05:04:20Z</time>
      </trkpt>
      <trkpt lat="44.56976" lon="4.28705">
        <ele>306</ele>
        <time>2022-02-08T05:04:25Z</time>
      </trkpt>
      <trkpt lat="44.56959" lon="4.28698">
        <ele>304</ele>
        <time>2022-02-08T05:04:28Z</time>
      </trkpt>
      <trkpt lat="44.56943" lon="4.28695">
        <ele>302</ele>
        <time>2022-02-08T05:04:31Z</time>
      </trkpt>
      <trkpt lat="44.56914" lon="4.28696">
        <ele>300</ele>
        <time>2022-02-08T05:04:36Z</time>
      </trkpt>
      <trkpt lat="44.56886" lon="4.28702">
        <ele>299</ele>
        <time>2022-02-08T05:04:41Z</time>
      </trkpt>
      <trkpt lat="44.56859" lon="4.287">
        <ele>298</ele>
        <time>2022-02-08T05:04:46Z</time>
      </trkpt>
      <trkpt lat="44.56836" lon="4.28705">
        <ele>297</ele>
        <time>2022-02-08T05:04:50Z</time>
      </trkpt>
      <trkpt lat="44.56823" lon="4.28704">
        <ele>296</ele>
        <time>2022-02-08T05:04:53Z</time>
      </trkpt>
      <trkpt lat="44.56825" lon="4.28697">
        <ele>296</ele>
        <time>2022-02-08T05:04:54Z</time>
      </trkpt>
      <trkpt lat="44.56824" lon="4.28688">
        <ele>296</ele>
        <time>2022-02-08T05:04:55Z</time>
      </trkpt>
      <trkpt lat="44.56822" lon="4.28676">
        <ele>295</ele>
        <time>2022-02-08T05:04:56Z</time>
      </trkpt>
      <trkpt lat="44.56807" lon="4.28637">
        <ele>301</ele>
        <time>2022-02-08T05:05:02Z</time>
      </trkpt>
      <trkpt lat="44.56806" lon="4.28625">
        <ele>304</ele>
        <time>2022-02-08T05:05:04Z</time>
      </trkpt>
      <trkpt lat="44.56808" lon="4.28619">
        <ele>305</ele>
        <time>2022-02-08T05:05:04Z</time>
      </trkpt>
      <trkpt lat="44.56819" lon="4.28601">
        <ele>307</ele>
        <time>2022-02-08T05:05:07Z</time>
      </trkpt>
      <trkpt lat="44.56834" lon="4.28589">
        <ele>308</ele>
        <time>2022-02-08T05:05:10Z</time>
      </trkpt>
      <trkpt lat="44.56846" lon="4.28585">
        <ele>309</ele>
        <time>2022-02-08T05:05:13Z</time>
      </trkpt>
      <trkpt lat="44.56877" lon="4.28583">
        <ele>310</ele>
        <time>2022-02-08T05:05:18Z</time>
      </trkpt>
      <trkpt lat="44.56924" lon="4.28584">
        <ele>310</ele>
        <time>2022-02-08T05:05:27Z</time>
      </trkpt>
      <trkpt lat="44.57006" lon="4.2859">
        <ele>314</ele>
        <time>2022-02-08T05:05:41Z</time>
      </trkpt>
      <trkpt lat="44.57054" lon="4.28582">
        <ele>313</ele>
        <time>2022-02-08T05:05:50Z</time>
      </trkpt>
      <trkpt lat="44.57078" lon="4.28575">
        <ele>313</ele>
        <time>2022-02-08T05:05:54Z</time>
      </trkpt>
      <trkpt lat="44.57087" lon="4.28568">
        <ele>313</ele>
        <time>2022-02-08T05:05:56Z</time>
      </trkpt>
      <trkpt lat="44.57097" lon="4.28551">
        <ele>316</ele>
        <time>2022-02-08T05:05:59Z</time>
      </trkpt>
      <trkpt lat="44.57104" lon="4.28524">
        <ele>319</ele>
        <time>2022-02-08T05:06:02Z</time>
      </trkpt>
      <trkpt lat="44.57108" lon="4.28497">
        <ele>321</ele>
        <time>2022-02-08T05:06:06Z</time>
      </trkpt>
      <trkpt lat="44.57107" lon="4.28484">
        <ele>322</ele>
        <time>2022-02-08T05:06:08Z</time>
      </trkpt>
      <trkpt lat="44.5707" lon="4.2839">
        <ele>328</ele>
        <time>2022-02-08T05:06:21Z</time>
      </trkpt>
      <trkpt lat="44.57066" lon="4.28376">
        <ele>329</ele>
        <time>2022-02-08T05:06:23Z</time>
      </trkpt>
      <trkpt lat="44.57065" lon="4.28347">
        <ele>330</ele>
        <time>2022-02-08T05:06:27Z</time>
      </trkpt>
      <trkpt lat="44.57072" lon="4.28313">
        <ele>330</ele>
        <time>2022-02-08T05:06:31Z</time>
      </trkpt>
      <trkpt lat="44.57072" lon="4.28295">
        <ele>332</ele>
        <time>2022-02-08T05:06:34Z</time>
      </trkpt>
      <trkpt lat="44.57069" lon="4.28281">
        <ele>334</ele>
        <time>2022-02-08T05:06:35Z</time>
      </trkpt>
      <trkpt lat="44.57026" lon="4.28108">
        <ele>348</ele>
        <time>2022-02-08T05:06:59Z</time>
      </trkpt>
      <trkpt lat="44.57024" lon="4.28093">
        <ele>349</ele>
        <time>2022-02-08T05:07:01Z</time>
      </trkpt>
      <trkpt lat="44.57025" lon="4.28074">
        <ele>350</ele>
        <time>2022-02-08T05:07:03Z</time>
      </trkpt>
      <trkpt lat="44.57036" lon="4.28039">
        <ele>351</ele>
        <time>2022-02-08T05:07:08Z</time>
      </trkpt>
      <trkpt lat="44.57049" lon="4.28021">
        <ele>353</ele>
        <time>2022-02-08T05:07:11Z</time>
      </trkpt>
      <trkpt lat="44.57073" lon="4.28002">
        <ele>357</ele>
        <time>2022-02-08T05:07:16Z</time>
      </trkpt>
      <trkpt lat="44.57085" lon="4.27985">
        <ele>358</ele>
        <time>2022-02-08T05:07:19Z</time>
      </trkpt>
      <trkpt lat="44.57104" lon="4.27928">
        <ele>360</ele>
        <time>2022-02-08T05:07:27Z</time>
      </trkpt>
      <trkpt lat="44.57108" lon="4.2792">
        <ele>361</ele>
        <time>2022-02-08T05:07:28Z</time>
      </trkpt>
      <trkpt lat="44.57113" lon="4.27914">
        <ele>362</ele>
        <time>2022-02-08T05:07:29Z</time>
      </trkpt>
      <trkpt lat="44.57131" lon="4.27899">
        <ele>367</ele>
        <time>2022-02-08T05:07:33Z</time>
      </trkpt>
      <trkpt lat="44.57139" lon="4.27883">
        <ele>369</ele>
        <time>2022-02-08T05:07:36Z</time>
      </trkpt>
      <trkpt lat="44.57143" lon="4.27835">
        <ele>370</ele>
        <time>2022-02-08T05:07:42Z</time>
      </trkpt>
      <trkpt lat="44.57154" lon="4.27808">
        <ele>373</ele>
        <time>2022-02-08T05:07:46Z</time>
      </trkpt>
      <trkpt lat="44.57155" lon="4.27799">
        <ele>374</ele>
        <time>2022-02-08T05:07:47Z</time>
      </trkpt>
      <trkpt lat="44.57155" lon="4.27788">
        <ele>374</ele>
        <time>2022-02-08T05:07:48Z</time>
      </trkpt>
      <trkpt lat="44.57152" lon="4.27779">
        <ele>373</ele>
        <time>2022-02-08T05:07:49Z</time>
      </trkpt>
      <trkpt lat="44.57136" lon="4.27759">
        <ele>370</ele>
        <time>2022-02-08T05:07:53Z</time>
      </trkpt>
      <trkpt lat="44.57121" lon="4.27725">
        <ele>369</ele>
        <time>2022-02-08T05:07:58Z</time>
      </trkpt>
      <trkpt lat="44.57117" lon="4.27708">
        <ele>369</ele>
        <time>2022-02-08T05:08:01Z</time>
      </trkpt>
      <trkpt lat="44.57117" lon="4.27696">
        <ele>370</ele>
        <time>2022-02-08T05:08:02Z</time>
      </trkpt>
      <trkpt lat="44.57121" lon="4.27673">
        <ele>372</ele>
        <time>2022-02-08T05:08:05Z</time>
      </trkpt>
      <trkpt lat="44.57152" lon="4.276">
        <ele>375</ele>
        <time>2022-02-08T05:08:16Z</time>
      </trkpt>
      <trkpt lat="44.57205" lon="4.27463">
        <ele>378</ele>
        <time>2022-02-08T05:08:36Z</time>
      </trkpt>
      <trkpt lat="44.57205" lon="4.27455">
        <ele>379</ele>
        <time>2022-02-08T05:08:37Z</time>
      </trkpt>
      <trkpt lat="44.57202" lon="4.27444">
        <ele>380</ele>
        <time>2022-02-08T05:08:38Z</time>
      </trkpt>
      <trkpt lat="44.57196" lon="4.27438">
        <ele>381</ele>
        <time>2022-02-08T05:08:39Z</time>
      </trkpt>
      <trkpt lat="44.5719" lon="4.27434">
        <ele>382</ele>
        <time>2022-02-08T05:08:41Z</time>
      </trkpt>
      <trkpt lat="44.57185" lon="4.27434">
        <ele>383</ele>
        <time>2022-02-08T05:08:42Z</time>
      </trkpt>
      <trkpt lat="44.5718" lon="4.27437">
        <ele>384</ele>
        <time>2022-02-08T05:08:43Z</time>
      </trkpt>
      <trkpt lat="44.57165" lon="4.27447">
        <ele>385</ele>
        <time>2022-02-08T05:08:45Z</time>
      </trkpt>
      <trkpt lat="44.57139" lon="4.27471">
        <ele>382</ele>
        <time>2022-02-08T05:08:51Z</time>
      </trkpt>
      <trkpt lat="44.57131" lon="4.27475">
        <ele>381</ele>
        <time>2022-02-08T05:08:53Z</time>
      </trkpt>
      <trkpt lat="44.57115" lon="4.27471">
        <ele>381</ele>
        <time>2022-02-08T05:08:55Z</time>
      </trkpt>
      <trkpt lat="44.57104" lon="4.27464">
        <ele>382</ele>
        <time>2022-02-08T05:08:58Z</time>
      </trkpt>
      <trkpt lat="44.57093" lon="4.27445">
        <ele>384</ele>
        <time>2022-02-08T05:09:01Z</time>
      </trkpt>
      <trkpt lat="44.57089" lon="4.27434">
        <ele>386</ele>
        <time>2022-02-08T05:09:02Z</time>
      </trkpt>
      <trkpt lat="44.57087" lon="4.27418">
        <ele>388</ele>
        <time>2022-02-08T05:09:04Z</time>
      </trkpt>
      <trkpt lat="44.57086" lon="4.27381">
        <ele>390</ele>
        <time>2022-02-08T05:09:09Z</time>
      </trkpt>
      <trkpt lat="44.5709" lon="4.27262">
        <ele>396</ele>
        <time>2022-02-08T05:09:24Z</time>
      </trkpt>
      <trkpt lat="44.57092" lon="4.27169">
        <ele>400</ele>
        <time>2022-02-08T05:09:36Z</time>
      </trkpt>
      <trkpt lat="44.57089" lon="4.2715">
        <ele>402</ele>
        <time>2022-02-08T05:09:38Z</time>
      </trkpt>
      <trkpt lat="44.57076" lon="4.27115">
        <ele>404</ele>
        <time>2022-02-08T05:09:43Z</time>
      </trkpt>
      <trkpt lat="44.57013" lon="4.2699">
        <ele>412</ele>
        <time>2022-02-08T05:10:03Z</time>
      </trkpt>
      <trkpt lat="44.5701" lon="4.2698">
        <ele>414</ele>
        <time>2022-02-08T05:10:04Z</time>
      </trkpt>
      <trkpt lat="44.57006" lon="4.26948">
        <ele>419</ele>
        <time>2022-02-08T05:10:08Z</time>
      </trkpt>
      <trkpt lat="44.57003" lon="4.26937">
        <ele>421</ele>
        <time>2022-02-08T05:10:10Z</time>
      </trkpt>
      <trkpt lat="44.56997" lon="4.26931">
        <ele>422</ele>
        <time>2022-02-08T05:10:11Z</time>
      </trkpt>
      <trkpt lat="44.56941" lon="4.26897">
        <ele>427</ele>
        <time>2022-02-08T05:10:22Z</time>
      </trkpt>
      <trkpt lat="44.56933" lon="4.26895">
        <ele>427</ele>
        <time>2022-02-08T05:10:23Z</time>
      </trkpt>
      <trkpt lat="44.56925" lon="4.26896">
        <ele>427</ele>
        <time>2022-02-08T05:10:25Z</time>
      </trkpt>
      <trkpt lat="44.56897" lon="4.2691">
        <ele>425</ele>
        <time>2022-02-08T05:10:30Z</time>
      </trkpt>
      <trkpt lat="44.56886" lon="4.26907">
        <ele>427</ele>
        <time>2022-02-08T05:10:32Z</time>
      </trkpt>
      <trkpt lat="44.56883" lon="4.26903">
        <ele>428</ele>
        <time>2022-02-08T05:10:33Z</time>
      </trkpt>
      <trkpt lat="44.56882" lon="4.26892">
        <ele>431</ele>
        <time>2022-02-08T05:10:34Z</time>
      </trkpt>
      <trkpt lat="44.56887" lon="4.26882">
        <ele>432</ele>
        <time>2022-02-08T05:10:36Z</time>
      </trkpt>
      <trkpt lat="44.56904" lon="4.2686">
        <ele>436</ele>
        <time>2022-02-08T05:10:40Z</time>
      </trkpt>
      <trkpt lat="44.56913" lon="4.26851">
        <ele>438</ele>
        <time>2022-02-08T05:10:42Z</time>
      </trkpt>
      <trkpt lat="44.5692" lon="4.2685">
        <ele>438</ele>
        <time>2022-02-08T05:10:43Z</time>
      </trkpt>
      <trkpt lat="44.56928" lon="4.26851">
        <ele>437</ele>
        <time>2022-02-08T05:10:45Z</time>
      </trkpt>
      <trkpt lat="44.5695" lon="4.26866">
        <ele>434</ele>
        <time>2022-02-08T05:10:49Z</time>
      </trkpt>
      <trkpt lat="44.56962" lon="4.26869">
        <ele>433</ele>
        <time>2022-02-08T05:10:51Z</time>
      </trkpt>
      <trkpt lat="44.56975" lon="4.26872">
        <ele>432</ele>
        <time>2022-02-08T05:10:53Z</time>
      </trkpt>
      <trkpt lat="44.56987" lon="4.2687">
        <ele>432</ele>
        <time>2022-02-08T05:10:56Z</time>
      </trkpt>
      <trkpt lat="44.56998" lon="4.26867">
        <ele>433</ele>
        <time>2022-02-08T05:10:58Z</time>
      </trkpt>
      <trkpt lat="44.57019" lon="4.26855">
        <ele>431</ele>
        <time>2022-02-08T05:11:02Z</time>
      </trkpt>
      <trkpt lat="44.57028" lon="4.26836">
        <ele>431</ele>
        <time>2022-02-08T05:11:04Z</time>
      </trkpt>
      <trkpt lat="44.57028" lon="4.26827">
        <ele>432</ele>
        <time>2022-02-08T05:11:06Z</time>
      </trkpt>
      <trkpt lat="44.5702" lon="4.26776">
        <ele>438</ele>
        <time>2022-02-08T05:11:12Z</time>
      </trkpt>
      <trkpt lat="44.57019" lon="4.26758">
        <ele>440</ele>
        <time>2022-02-08T05:11:14Z</time>
      </trkpt>
      <trkpt lat="44.57025" lon="4.26674">
        <ele>442</ele>
        <time>2022-02-08T05:11:25Z</time>
      </trkpt>
      <trkpt lat="44.57027" lon="4.26642">
        <ele>442</ele>
        <time>2022-02-08T05:11:29Z</time>
      </trkpt>
      <trkpt lat="44.57026" lon="4.26629">
        <ele>443</ele>
        <time>2022-02-08T05:11:31Z</time>
      </trkpt>
      <trkpt lat="44.57023" lon="4.26614">
        <ele>444</ele>
        <time>2022-02-08T05:11:33Z</time>
      </trkpt>
      <trkpt lat="44.57017" lon="4.26596">
        <ele>447</ele>
        <time>2022-02-08T05:11:35Z</time>
      </trkpt>
      <trkpt lat="44.57001" lon="4.26575">
        <ele>455</ele>
        <time>2022-02-08T05:11:39Z</time>
      </trkpt>
      <trkpt lat="44.56998" lon="4.26566">
        <ele>456</ele>
        <time>2022-02-08T05:11:41Z</time>
      </trkpt>
      <trkpt lat="44.56996" lon="4.26552">
        <ele>457</ele>
        <time>2022-02-08T05:11:42Z</time>
      </trkpt>
      <trkpt lat="44.56998" lon="4.26543">
        <ele>456</ele>
        <time>2022-02-08T05:11:44Z</time>
      </trkpt>
      <trkpt lat="44.57005" lon="4.2652">
        <ele>454</ele>
        <time>2022-02-08T05:11:47Z</time>
      </trkpt>
      <trkpt lat="44.57007" lon="4.26506">
        <ele>454</ele>
        <time>2022-02-08T05:11:49Z</time>
      </trkpt>
      <trkpt lat="44.57003" lon="4.26494">
        <ele>455</ele>
        <time>2022-02-08T05:11:50Z</time>
      </trkpt>
      <trkpt lat="44.56991" lon="4.26483">
        <ele>459</ele>
        <time>2022-02-08T05:11:53Z</time>
      </trkpt>
      <trkpt lat="44.56969" lon="4.26469">
        <ele>464</ele>
        <time>2022-02-08T05:11:57Z</time>
      </trkpt>
      <trkpt lat="44.56957" lon="4.26447">
        <ele>466</ele>
        <time>2022-02-08T05:12:01Z</time>
      </trkpt>
      <trkpt lat="44.56949" lon="4.26435">
        <ele>468</ele>
        <time>2022-02-08T05:12:03Z</time>
      </trkpt>
      <trkpt lat="44.56922" lon="4.26406">
        <ele>475</ele>
        <time>2022-02-08T05:12:09Z</time>
      </trkpt>
      <trkpt lat="44.56919" lon="4.26393">
        <ele>476</ele>
        <time>2022-02-08T05:12:10Z</time>
      </trkpt>
      <trkpt lat="44.5692" lon="4.26383">
        <ele>476</ele>
        <time>2022-02-08T05:12:12Z</time>
      </trkpt>
      <trkpt lat="44.56924" lon="4.26374">
        <ele>475</ele>
        <time>2022-02-08T05:12:13Z</time>
      </trkpt>
      <trkpt lat="44.56966" lon="4.26329">
        <ele>467</ele>
        <time>2022-02-08T05:12:22Z</time>
      </trkpt>
      <trkpt lat="44.56972" lon="4.26316">
        <ele>466</ele>
        <time>2022-02-08T05:12:24Z</time>
      </trkpt>
      <trkpt lat="44.56975" lon="4.26296">
        <ele>466</ele>
        <time>2022-02-08T05:12:27Z</time>
      </trkpt>
      <trkpt lat="44.56973" lon="4.26274">
        <ele>467</ele>
        <time>2022-02-08T05:12:30Z</time>
      </trkpt>
      <trkpt lat="44.56966" lon="4.26258">
        <ele>469</ele>
        <time>2022-02-08T05:12:32Z</time>
      </trkpt>
      <trkpt lat="44.56952" lon="4.26238">
        <ele>473</ele>
        <time>2022-02-08T05:12:36Z</time>
      </trkpt>
      <trkpt lat="44.56938" lon="4.26229">
        <ele>476</ele>
        <time>2022-02-08T05:12:39Z</time>
      </trkpt>
      <trkpt lat="44.56923" lon="4.26225">
        <ele>479</ele>
        <time>2022-02-08T05:12:41Z</time>
      </trkpt>
      <trkpt lat="44.56906" lon="4.26225">
        <ele>482</ele>
        <time>2022-02-08T05:12:44Z</time>
      </trkpt>
      <trkpt lat="44.56899" lon="4.26218">
        <ele>482</ele>
        <time>2022-02-08T05:12:46Z</time>
      </trkpt>
      <trkpt lat="44.56892" lon="4.26205">
        <ele>483</ele>
        <time>2022-02-08T05:12:48Z</time>
      </trkpt>
      <trkpt lat="44.56891" lon="4.26191">
        <ele>482</ele>
        <time>2022-02-08T05:12:50Z</time>
      </trkpt>
      <trkpt lat="44.56892" lon="4.26169">
        <ele>481</ele>
        <time>2022-02-08T05:12:52Z</time>
      </trkpt>
      <trkpt lat="44.56895" lon="4.26158">
        <ele>480</ele>
        <time>2022-02-08T05:12:54Z</time>
      </trkpt>
      <trkpt lat="44.56922" lon="4.26103">
        <ele>479</ele>
        <time>2022-02-08T05:13:02Z</time>
      </trkpt>
      <trkpt lat="44.56988" lon="4.25985">
        <ele>491</ele>
        <time>2022-02-08T05:13:21Z</time>
      </trkpt>
      <trkpt lat="44.56998" lon="4.25952">
        <ele>491</ele>
        <time>2022-02-08T05:13:26Z</time>
      </trkpt>
      <trkpt lat="44.57001" lon="4.25929">
        <ele>490</ele>
        <time>2022-02-08T05:13:29Z</time>
      </trkpt>
      <trkpt lat="44.57002" lon="4.259">
        <ele>490</ele>
        <time>2022-02-08T05:13:33Z</time>
      </trkpt>
      <trkpt lat="44.57" lon="4.25866">
        <ele>489</ele>
        <time>2022-02-08T05:13:37Z</time>
      </trkpt>
      <trkpt lat="44.56995" lon="4.2584">
        <ele>488</ele>
        <time>2022-02-08T05:13:40Z</time>
      </trkpt>
      <trkpt lat="44.56986" lon="4.25803">
        <ele>487</ele>
        <time>2022-02-08T05:13:45Z</time>
      </trkpt>
      <trkpt lat="44.56979" lon="4.25765">
        <ele>488</ele>
        <time>2022-02-08T05:13:50Z</time>
      </trkpt>
      <trkpt lat="44.56976" lon="4.25727">
        <ele>486</ele>
        <time>2022-02-08T05:13:55Z</time>
      </trkpt>
      <trkpt lat="44.56977" lon="4.25693">
        <ele>484</ele>
        <time>2022-02-08T05:13:59Z</time>
      </trkpt>
      <trkpt lat="44.56984" lon="4.2566">
        <ele>485</ele>
        <time>2022-02-08T05:14:04Z</time>
      </trkpt>
      <trkpt lat="44.56986" lon="4.25629">
        <ele>486</ele>
        <time>2022-02-08T05:14:08Z</time>
      </trkpt>
      <trkpt lat="44.56981" lon="4.25593">
        <ele>485</ele>
        <time>2022-02-08T05:14:12Z</time>
      </trkpt>
      <trkpt lat="44.56976" lon="4.25536">
        <ele>486</ele>
        <time>2022-02-08T05:14:20Z</time>
      </trkpt>
      <trkpt lat="44.56972" lon="4.25519">
        <ele>486</ele>
        <time>2022-02-08T05:14:22Z</time>
      </trkpt>
      <trkpt lat="44.56966" lon="4.25502">
        <ele>485</ele>
        <time>2022-02-08T05:14:24Z</time>
      </trkpt>
      <trkpt lat="44.56957" lon="4.25491">
        <ele>484</ele>
        <time>2022-02-08T05:14:26Z</time>
      </trkpt>
      <trkpt lat="44.56929" lon="4.25465">
        <ele>476</ele>
        <time>2022-02-08T05:14:32Z</time>
      </trkpt>
      <trkpt lat="44.56922" lon="4.25453">
        <ele>474</ele>
        <time>2022-02-08T05:14:34Z</time>
      </trkpt>
      <trkpt lat="44.56915" lon="4.25433">
        <ele>472</ele>
        <time>2022-02-08T05:14:37Z</time>
      </trkpt>
      <trkpt lat="44.56913" lon="4.25413">
        <ele>472</ele>
        <time>2022-02-08T05:14:40Z</time>
      </trkpt>
      <trkpt lat="44.56914" lon="4.25386">
        <ele>470</ele>
        <time>2022-02-08T05:14:43Z</time>
      </trkpt>
      <trkpt lat="44.56919" lon="4.25369">
        <ele>470</ele>
        <time>2022-02-08T05:14:46Z</time>
      </trkpt>
      <trkpt lat="44.56938" lon="4.25336">
        <ele>474</ele>
        <time>2022-02-08T05:14:51Z</time>
      </trkpt>
      <trkpt lat="44.56966" lon="4.25295">
        <ele>482</ele>
        <time>2022-02-08T05:14:58Z</time>
      </trkpt>
      <trkpt lat="44.5697" lon="4.25283">
        <ele>482</ele>
        <time>2022-02-08T05:15:00Z</time>
      </trkpt>
      <trkpt lat="44.56971" lon="4.25269">
        <ele>482</ele>
        <time>2022-02-08T05:15:02Z</time>
      </trkpt>
      <trkpt lat="44.56969" lon="4.25253">
        <ele>481</ele>
        <time>2022-02-08T05:15:04Z</time>
      </trkpt>
      <trkpt lat="44.56966" lon="4.25243">
        <ele>480</ele>
        <time>2022-02-08T05:15:05Z</time>
      </trkpt>
      <trkpt lat="44.5696" lon="4.25234">
        <ele>479</ele>
        <time>2022-02-08T05:15:07Z</time>
      </trkpt>
      <trkpt lat="44.56936" lon="4.25211">
        <ele>475</ele>
        <time>2022-02-08T05:15:12Z</time>
      </trkpt>
      <trkpt lat="44.56925" lon="4.25194">
        <ele>473</ele>
        <time>2022-02-08T05:15:15Z</time>
      </trkpt>
      <trkpt lat="44.56897" lon="4.25096">
        <ele>475</ele>
        <time>2022-02-08T05:15:28Z</time>
      </trkpt>
      <trkpt lat="44.56888" lon="4.25079">
        <ele>474</ele>
        <time>2022-02-08T05:15:31Z</time>
      </trkpt>
      <trkpt lat="44.56873" lon="4.25061">
        <ele>473</ele>
        <time>2022-02-08T05:15:34Z</time>
      </trkpt>
      <trkpt lat="44.56816" lon="4.25005">
        <ele>464</ele>
        <time>2022-02-08T05:15:47Z</time>
      </trkpt>
      <trkpt lat="44.56807" lon="4.24994">
        <ele>463</ele>
        <time>2022-02-08T05:15:49Z</time>
      </trkpt>
      <trkpt lat="44.56795" lon="4.24974">
        <ele>462</ele>
        <time>2022-02-08T05:15:52Z</time>
      </trkpt>
      <trkpt lat="44.56761" lon="4.24909">
        <ele>457</ele>
        <time>2022-02-08T05:16:02Z</time>
      </trkpt>
      <trkpt lat="44.56757" lon="4.24894">
        <ele>456</ele>
        <time>2022-02-08T05:16:04Z</time>
      </trkpt>
      <trkpt lat="44.56755" lon="4.2488">
        <ele>456</ele>
        <time>2022-02-08T05:16:06Z</time>
      </trkpt>
      <trkpt lat="44.56756" lon="4.24868">
        <ele>456</ele>
        <time>2022-02-08T05:16:08Z</time>
      </trkpt>
      <trkpt lat="44.56761" lon="4.24846">
        <ele>458</ele>
        <time>2022-02-08T05:16:11Z</time>
      </trkpt>
      <trkpt lat="44.5677" lon="4.24823">
        <ele>459</ele>
        <time>2022-02-08T05:16:14Z</time>
      </trkpt>
      <trkpt lat="44.56817" lon="4.24712">
        <ele>452</ele>
        <time>2022-02-08T05:16:30Z</time>
      </trkpt>
      <trkpt lat="44.56831" lon="4.24682">
        <ele>447</ele>
        <time>2022-02-08T05:16:35Z</time>
      </trkpt>
      <trkpt lat="44.56839" lon="4.24669">
        <ele>446</ele>
        <time>2022-02-08T05:16:37Z</time>
      </trkpt>
      <trkpt lat="44.5686" lon="4.2465">
        <ele>445</ele>
        <time>2022-02-08T05:16:41Z</time>
      </trkpt>
      <trkpt lat="44.569" lon="4.24624">
        <ele>443</ele>
        <time>2022-02-08T05:16:49Z</time>
      </trkpt>
      <trkpt lat="44.56955" lon="4.24592">
        <ele>440</ele>
        <time>2022-02-08T05:17:00Z</time>
      </trkpt>
      <trkpt lat="44.56963" lon="4.24585">
        <ele>439</ele>
        <time>2022-02-08T05:17:02Z</time>
      </trkpt>
      <trkpt lat="44.56968" lon="4.24571">
        <ele>440</ele>
        <time>2022-02-08T05:17:04Z</time>
      </trkpt>
      <trkpt lat="44.56968" lon="4.24562">
        <ele>440</ele>
        <time>2022-02-08T05:17:05Z</time>
      </trkpt>
      <trkpt lat="44.56963" lon="4.24548">
        <ele>441</ele>
        <time>2022-02-08T05:17:07Z</time>
      </trkpt>
      <trkpt lat="44.56957" lon="4.24542">
        <ele>440</ele>
        <time>2022-02-08T05:17:08Z</time>
      </trkpt>
      <trkpt lat="44.56948" lon="4.24537">
        <ele>440</ele>
        <time>2022-02-08T05:17:10Z</time>
      </trkpt>
      <trkpt lat="44.56904" lon="4.24522">
        <ele>436</ele>
        <time>2022-02-08T05:17:18Z</time>
      </trkpt>
      <trkpt lat="44.56896" lon="4.24513">
        <ele>435</ele>
        <time>2022-02-08T05:17:20Z</time>
      </trkpt>
      <trkpt lat="44.56889" lon="4.24502">
        <ele>435</ele>
        <time>2022-02-08T05:17:21Z</time>
      </trkpt>
      <trkpt lat="44.56882" lon="4.2448">
        <ele>435</ele>
        <time>2022-02-08T05:17:25Z</time>
      </trkpt>
      <trkpt lat="44.56874" lon="4.24464">
        <ele>435</ele>
        <time>2022-02-08T05:17:27Z</time>
      </trkpt>
      <trkpt lat="44.56867" lon="4.24451">
        <ele>435</ele>
        <time>2022-02-08T05:17:29Z</time>
      </trkpt>
      <trkpt lat="44.56858" lon="4.24442">
        <ele>434</ele>
        <time>2022-02-08T05:17:31Z</time>
      </trkpt>
      <trkpt lat="44.56823" lon="4.24416">
        <ele>429</ele>
        <time>2022-02-08T05:17:38Z</time>
      </trkpt>
      <trkpt lat="44.56813" lon="4.24399">
        <ele>428</ele>
        <time>2022-02-08T05:17:41Z</time>
      </trkpt>
      <trkpt lat="44.56787" lon="4.24329">
        <ele>427</ele>
        <time>2022-02-08T05:17:51Z</time>
      </trkpt>
      <trkpt lat="44.56782" lon="4.24318">
        <ele>427</ele>
        <time>2022-02-08T05:17:53Z</time>
      </trkpt>
      <trkpt lat="44.5677" lon="4.24302">
        <ele>426</ele>
        <time>2022-02-08T05:17:55Z</time>
      </trkpt>
      <trkpt lat="44.56751" lon="4.24269">
        <ele>424</ele>
        <time>2022-02-08T05:18:01Z</time>
      </trkpt>
      <trkpt lat="44.56736" lon="4.24253">
        <ele>423</ele>
        <time>2022-02-08T05:18:04Z</time>
      </trkpt>
      <trkpt lat="44.56716" lon="4.24239">
        <ele>423</ele>
        <time>2022-02-08T05:18:08Z</time>
      </trkpt>
      <trkpt lat="44.56703" lon="4.24235">
        <ele>422</ele>
        <time>2022-02-08T05:18:11Z</time>
      </trkpt>
      <trkpt lat="44.56678" lon="4.24231">
        <ele>420</ele>
        <time>2022-02-08T05:18:15Z</time>
      </trkpt>
      <trkpt lat="44.56658" lon="4.24225">
        <ele>419</ele>
        <time>2022-02-08T05:18:19Z</time>
      </trkpt>
      <trkpt lat="44.56644" lon="4.24218">
        <ele>418</ele>
        <time>2022-02-08T05:18:21Z</time>
      </trkpt>
      <trkpt lat="44.56632" lon="4.24208">
        <ele>418</ele>
        <time>2022-02-08T05:18:24Z</time>
      </trkpt>
      <trkpt lat="44.56617" lon="4.24188">
        <ele>417</ele>
        <time>2022-02-08T05:18:27Z</time>
      </trkpt>
      <trkpt lat="44.56608" lon="4.24172">
        <ele>416</ele>
        <time>2022-02-08T05:18:30Z</time>
      </trkpt>
      <trkpt lat="44.56582" lon="4.2412">
        <ele>414</ele>
        <time>2022-02-08T05:18:38Z</time>
      </trkpt>
      <trkpt lat="44.56569" lon="4.24097">
        <ele>414</ele>
        <time>2022-02-08T05:18:42Z</time>
      </trkpt>
      <trkpt lat="44.5656" lon="4.2409">
        <ele>413</ele>
        <time>2022-02-08T05:18:44Z</time>
      </trkpt>
      <trkpt lat="44.56529" lon="4.24084">
        <ele>409</ele>
        <time>2022-02-08T05:18:49Z</time>
      </trkpt>
      <trkpt lat="44.56506" lon="4.24073">
        <ele>408</ele>
        <time>2022-02-08T05:18:54Z</time>
      </trkpt>
      <trkpt lat="44.5635" lon="4.23907">
        <ele>403</ele>
        <time>2022-02-08T05:19:28Z</time>
      </trkpt>
      <trkpt lat="44.56335" lon="4.23895">
        <ele>402</ele>
        <time>2022-02-08T05:19:31Z</time>
      </trkpt>
      <trkpt lat="44.56286" lon="4.23868">
        <ele>397</ele>
        <time>2022-02-08T05:19:41Z</time>
      </trkpt>
      <trkpt lat="44.56264" lon="4.23848">
        <ele>396</ele>
        <time>2022-02-08T05:19:45Z</time>
      </trkpt>
      <trkpt lat="44.56254" lon="4.23833">
        <ele>396</ele>
        <time>2022-02-08T05:19:48Z</time>
      </trkpt>
      <trkpt lat="44.5625" lon="4.23821">
        <ele>396</ele>
        <time>2022-02-08T05:19:50Z</time>
      </trkpt>
      <trkpt lat="44.56249" lon="4.23806">
        <ele>396</ele>
        <time>2022-02-08T05:19:52Z</time>
      </trkpt>
      <trkpt lat="44.56251" lon="4.23791">
        <ele>396</ele>
        <time>2022-02-08T05:19:54Z</time>
      </trkpt>
      <trkpt lat="44.56269" lon="4.23744">
        <ele>397</ele>
        <time>2022-02-08T05:20:00Z</time>
      </trkpt>
      <trkpt lat="44.56287" lon="4.23715">
        <ele>397</ele>
        <time>2022-02-08T05:20:05Z</time>
      </trkpt>
      <trkpt lat="44.56311" lon="4.2369">
        <ele>397</ele>
        <time>2022-02-08T05:20:11Z</time>
      </trkpt>
      <trkpt lat="44.56323" lon="4.23666">
        <ele>396</ele>
        <time>2022-02-08T05:20:14Z</time>
      </trkpt>
      <trkpt lat="44.56332" lon="4.23641">
        <ele>394</ele>
        <time>2022-02-08T05:20:18Z</time>
      </trkpt>
      <trkpt lat="44.56343" lon="4.23621">
        <ele>393</ele>
        <time>2022-02-08T05:20:21Z</time>
      </trkpt>
      <trkpt lat="44.5635" lon="4.23602">
        <ele>392</ele>
        <time>2022-02-08T05:20:24Z</time>
      </trkpt>
      <trkpt lat="44.56356" lon="4.23575">
        <ele>390</ele>
        <time>2022-02-08T05:20:27Z</time>
      </trkpt>
      <trkpt lat="44.56383" lon="4.2337">
        <ele>391</ele>
        <time>2022-02-08T05:20:54Z</time>
      </trkpt>
      <trkpt lat="44.56389" lon="4.23349">
        <ele>393</ele>
        <time>2022-02-08T05:20:57Z</time>
      </trkpt>
      <trkpt lat="44.56398" lon="4.23331">
        <ele>395</ele>
        <time>2022-02-08T05:20:59Z</time>
      </trkpt>
      <trkpt lat="44.56461" lon="4.23249">
        <ele>402</ele>
        <time>2022-02-08T05:21:15Z</time>
      </trkpt>
      <trkpt lat="44.56477" lon="4.23217">
        <ele>402</ele>
        <time>2022-02-08T05:21:20Z</time>
      </trkpt>
      <trkpt lat="44.56488" lon="4.23186">
        <ele>401</ele>
        <time>2022-02-08T05:21:24Z</time>
      </trkpt>
      <trkpt lat="44.56519" lon="4.23118">
        <ele>403</ele>
        <time>2022-02-08T05:21:34Z</time>
      </trkpt>
      <trkpt lat="44.56526" lon="4.23088">
        <ele>403</ele>
        <time>2022-02-08T05:21:38Z</time>
      </trkpt>
      <trkpt lat="44.56543" lon="4.22989">
        <ele>403</ele>
        <time>2022-02-08T05:21:51Z</time>
      </trkpt>
      <trkpt lat="44.56547" lon="4.22954">
        <ele>402</ele>
        <time>2022-02-08T05:21:56Z</time>
      </trkpt>
      <trkpt lat="44.56547" lon="4.22922">
        <ele>401</ele>
        <time>2022-02-08T05:22:00Z</time>
      </trkpt>
      <trkpt lat="44.56545" lon="4.22907">
        <ele>401</ele>
        <time>2022-02-08T05:22:02Z</time>
      </trkpt>
      <trkpt lat="44.56541" lon="4.22895">
        <ele>401</ele>
        <time>2022-02-08T05:22:03Z</time>
      </trkpt>
      <trkpt lat="44.56524" lon="4.22856">
        <ele>401</ele>
        <time>2022-02-08T05:22:09Z</time>
      </trkpt>
      <trkpt lat="44.56521" lon="4.22839">
        <ele>402</ele>
        <time>2022-02-08T05:22:11Z</time>
      </trkpt>
      <trkpt lat="44.5652" lon="4.2282">
        <ele>402</ele>
        <time>2022-02-08T05:22:14Z</time>
      </trkpt>
      <trkpt lat="44.56522" lon="4.22723">
        <ele>405</ele>
        <time>2022-02-08T05:22:26Z</time>
      </trkpt>
      <trkpt lat="44.5652" lon="4.22707">
        <ele>406</ele>
        <time>2022-02-08T05:22:28Z</time>
      </trkpt>
      <trkpt lat="44.56508" lon="4.22653">
        <ele>405</ele>
        <time>2022-02-08T05:22:35Z</time>
      </trkpt>
      <trkpt lat="44.56504" lon="4.2262">
        <ele>405</ele>
        <time>2022-02-08T05:22:40Z</time>
      </trkpt>
      <trkpt lat="44.56503" lon="4.22593">
        <ele>405</ele>
        <time>2022-02-08T05:22:43Z</time>
      </trkpt>
      <trkpt lat="44.56506" lon="4.22565">
        <ele>407</ele>
        <time>2022-02-08T05:22:47Z</time>
      </trkpt>
      <trkpt lat="44.56511" lon="4.22549">
        <ele>408</ele>
        <time>2022-02-08T05:22:49Z</time>
      </trkpt>
      <trkpt lat="44.56529" lon="4.22511">
        <ele>412</ele>
        <time>2022-02-08T05:22:55Z</time>
      </trkpt>
      <trkpt lat="44.56536" lon="4.22492">
        <ele>413</ele>
        <time>2022-02-08T05:22:57Z</time>
      </trkpt>
      <trkpt lat="44.56541" lon="4.22472">
        <ele>413</ele>
        <time>2022-02-08T05:23:00Z</time>
      </trkpt>
      <trkpt lat="44.56549" lon="4.22418">
        <ele>413</ele>
        <time>2022-02-08T05:23:07Z</time>
      </trkpt>
      <trkpt lat="44.56554" lon="4.22402">
        <ele>414</ele>
        <time>2022-02-08T05:23:09Z</time>
      </trkpt>
      <trkpt lat="44.56565" lon="4.22383">
        <ele>414</ele>
        <time>2022-02-08T05:23:12Z</time>
      </trkpt>
      <trkpt lat="44.56584" lon="4.22367">
        <ele>413</ele>
        <time>2022-02-08T05:23:16Z</time>
      </trkpt>
      <trkpt lat="44.56617" lon="4.22352">
        <ele>415</ele>
        <time>2022-02-08T05:23:22Z</time>
      </trkpt>
      <trkpt lat="44.56631" lon="4.22338">
        <ele>415</ele>
        <time>2022-02-08T05:23:25Z</time>
      </trkpt>
      <trkpt lat="44.56635" lon="4.22329">
        <ele>416</ele>
        <time>2022-02-08T05:23:27Z</time>
      </trkpt>
      <trkpt lat="44.56636" lon="4.22317">
        <ele>416</ele>
        <time>2022-02-08T05:23:28Z</time>
      </trkpt>
      <trkpt lat="44.56634" lon="4.22307">
        <ele>417</ele>
        <time>2022-02-08T05:23:30Z</time>
      </trkpt>
      <trkpt lat="44.56629" lon="4.22298">
        <ele>417</ele>
        <time>2022-02-08T05:23:31Z</time>
      </trkpt>
      <trkpt lat="44.56624" lon="4.22293">
        <ele>417</ele>
        <time>2022-02-08T05:23:32Z</time>
      </trkpt>
      <trkpt lat="44.56615" lon="4.22287">
        <ele>418</ele>
        <time>2022-02-08T05:23:34Z</time>
      </trkpt>
      <trkpt lat="44.56586" lon="4.22285">
        <ele>417</ele>
        <time>2022-02-08T05:23:39Z</time>
      </trkpt>
      <trkpt lat="44.56558" lon="4.22275">
        <ele>420</ele>
        <time>2022-02-08T05:23:44Z</time>
      </trkpt>
      <trkpt lat="44.56549" lon="4.22276">
        <ele>421</ele>
        <time>2022-02-08T05:23:46Z</time>
      </trkpt>
      <trkpt lat="44.56541" lon="4.2228">
        <ele>421</ele>
        <time>2022-02-08T05:23:47Z</time>
      </trkpt>
      <trkpt lat="44.56526" lon="4.22298">
        <ele>420</ele>
        <time>2022-02-08T05:23:51Z</time>
      </trkpt>
      <trkpt lat="44.56501" lon="4.22338">
        <ele>418</ele>
        <time>2022-02-08T05:23:58Z</time>
      </trkpt>
      <trkpt lat="44.56487" lon="4.22351">
        <ele>416</ele>
        <time>2022-02-08T05:24:01Z</time>
      </trkpt>
      <trkpt lat="44.5648" lon="4.22352">
        <ele>416</ele>
        <time>2022-02-08T05:24:02Z</time>
      </trkpt>
      <trkpt lat="44.56468" lon="4.22345">
        <ele>416</ele>
        <time>2022-02-08T05:24:04Z</time>
      </trkpt>
      <trkpt lat="44.56463" lon="4.22337">
        <ele>416</ele>
        <time>2022-02-08T05:24:06Z</time>
      </trkpt>
      <trkpt lat="44.56461" lon="4.22327">
        <ele>417</ele>
        <time>2022-02-08T05:24:07Z</time>
      </trkpt>
      <trkpt lat="44.56461" lon="4.22316">
        <ele>417</ele>
        <time>2022-02-08T05:24:08Z</time>
      </trkpt>
      <trkpt lat="44.56465" lon="4.22305">
        <ele>419</ele>
        <time>2022-02-08T05:24:10Z</time>
      </trkpt>
      <trkpt lat="44.56495" lon="4.22256">
        <ele>427</ele>
        <time>2022-02-08T05:24:18Z</time>
      </trkpt>
      <trkpt lat="44.5651" lon="4.22228">
        <ele>428</ele>
        <time>2022-02-08T05:24:22Z</time>
      </trkpt>
      <trkpt lat="44.56517" lon="4.22209">
        <ele>429</ele>
        <time>2022-02-08T05:24:25Z</time>
      </trkpt>
      <trkpt lat="44.56522" lon="4.22181">
        <ele>430</ele>
        <time>2022-02-08T05:24:29Z</time>
      </trkpt>
      <trkpt lat="44.56523" lon="4.22161">
        <ele>432</ele>
        <time>2022-02-08T05:24:31Z</time>
      </trkpt>
      <trkpt lat="44.56522" lon="4.22148">
        <ele>433</ele>
        <time>2022-02-08T05:24:33Z</time>
      </trkpt>
      <trkpt lat="44.56519" lon="4.22137">
        <ele>433</ele>
        <time>2022-02-08T05:24:35Z</time>
      </trkpt>
      <trkpt lat="44.56515" lon="4.22128">
        <ele>434</ele>
        <time>2022-02-08T05:24:36Z</time>
      </trkpt>
      <trkpt lat="44.56496" lon="4.22105">
        <ele>434</ele>
        <time>2022-02-08T05:24:40Z</time>
      </trkpt>
      <trkpt lat="44.56493" lon="4.22097">
        <ele>434</ele>
        <time>2022-02-08T05:24:41Z</time>
      </trkpt>
      <trkpt lat="44.56493" lon="4.22083">
        <ele>435</ele>
        <time>2022-02-08T05:24:43Z</time>
      </trkpt>
      <trkpt lat="44.56497" lon="4.22077">
        <ele>436</ele>
        <time>2022-02-08T05:24:44Z</time>
      </trkpt>
      <trkpt lat="44.56502" lon="4.22073">
        <ele>437</ele>
        <time>2022-02-08T05:24:45Z</time>
      </trkpt>
      <trkpt lat="44.56513" lon="4.22074">
        <ele>438</ele>
        <time>2022-02-08T05:24:47Z</time>
      </trkpt>
      <trkpt lat="44.5653" lon="4.22095">
        <ele>438</ele>
        <time>2022-02-08T05:24:51Z</time>
      </trkpt>
      <trkpt lat="44.56539" lon="4.22102">
        <ele>438</ele>
        <time>2022-02-08T05:24:53Z</time>
      </trkpt>
      <trkpt lat="44.56548" lon="4.22104">
        <ele>438</ele>
        <time>2022-02-08T05:24:55Z</time>
      </trkpt>
      <trkpt lat="44.56556" lon="4.22102">
        <ele>439</ele>
        <time>2022-02-08T05:24:56Z</time>
      </trkpt>
      <trkpt lat="44.56564" lon="4.22095">
        <ele>440</ele>
        <time>2022-02-08T05:24:58Z</time>
      </trkpt>
      <trkpt lat="44.56576" lon="4.22081">
        <ele>443</ele>
        <time>2022-02-08T05:25:01Z</time>
      </trkpt>
      <trkpt lat="44.56613" lon="4.22031">
        <ele>445</ele>
        <time>2022-02-08T05:25:10Z</time>
      </trkpt>
      <trkpt lat="44.56624" lon="4.22011">
        <ele>445</ele>
        <time>2022-02-08T05:25:13Z</time>
      </trkpt>
      <trkpt lat="44.56638" lon="4.21963">
        <ele>447</ele>
        <time>2022-02-08T05:25:20Z</time>
      </trkpt>
      <trkpt lat="44.56643" lon="4.21938">
        <ele>449</ele>
        <time>2022-02-08T05:25:23Z</time>
      </trkpt>
      <trkpt lat="44.56647" lon="4.21856">
        <ele>453</ele>
        <time>2022-02-08T05:25:33Z</time>
      </trkpt>
      <trkpt lat="44.56649" lon="4.21841">
        <ele>454</ele>
        <time>2022-02-08T05:25:35Z</time>
      </trkpt>
      <trkpt lat="44.56655" lon="4.21825">
        <ele>453</ele>
        <time>2022-02-08T05:25:38Z</time>
      </trkpt>
      <trkpt lat="44.56667" lon="4.218">
        <ele>452</ele>
        <time>2022-02-08T05:25:41Z</time>
      </trkpt>
      <trkpt lat="44.56672" lon="4.2178">
        <ele>453</ele>
        <time>2022-02-08T05:25:44Z</time>
      </trkpt>
      <trkpt lat="44.56676" lon="4.21756">
        <ele>455</ele>
        <time>2022-02-08T05:25:47Z</time>
      </trkpt>
      <trkpt lat="44.56681" lon="4.21703">
        <ele>461</ele>
        <time>2022-02-08T05:25:54Z</time>
      </trkpt>
      <trkpt lat="44.567" lon="4.2158">
        <ele>475</ele>
        <time>2022-02-08T05:26:10Z</time>
      </trkpt>
      <trkpt lat="44.56708" lon="4.21542">
        <ele>474</ele>
        <time>2022-02-08T05:26:15Z</time>
      </trkpt>
      <trkpt lat="44.56712" lon="4.21491">
        <ele>476</ele>
        <time>2022-02-08T05:26:21Z</time>
      </trkpt>
      <trkpt lat="44.56715" lon="4.21474">
        <ele>477</ele>
        <time>2022-02-08T05:26:24Z</time>
      </trkpt>
      <trkpt lat="44.56721" lon="4.2146">
        <ele>478</ele>
        <time>2022-02-08T05:26:26Z</time>
      </trkpt>
      <trkpt lat="44.56728" lon="4.2145">
        <ele>477</ele>
        <time>2022-02-08T05:26:27Z</time>
      </trkpt>
      <trkpt lat="44.56754" lon="4.21425">
        <ele>476</ele>
        <time>2022-02-08T05:26:33Z</time>
      </trkpt>
      <trkpt lat="44.56768" lon="4.21415">
        <ele>478</ele>
        <time>2022-02-08T05:26:36Z</time>
      </trkpt>
      <trkpt lat="44.56787" lon="4.21407">
        <ele>479</ele>
        <time>2022-02-08T05:26:39Z</time>
      </trkpt>
      <trkpt lat="44.56795" lon="4.21398">
        <ele>479</ele>
        <time>2022-02-08T05:26:41Z</time>
      </trkpt>
      <trkpt lat="44.56803" lon="4.21383">
        <ele>478</ele>
        <time>2022-02-08T05:26:44Z</time>
      </trkpt>
      <trkpt lat="44.56804" lon="4.21374">
        <ele>478</ele>
        <time>2022-02-08T05:26:45Z</time>
      </trkpt>
      <trkpt lat="44.56804" lon="4.21348">
        <ele>477</ele>
        <time>2022-02-08T05:26:48Z</time>
      </trkpt>
      <trkpt lat="44.56806" lon="4.21338">
        <ele>477</ele>
        <time>2022-02-08T05:26:49Z</time>
      </trkpt>
      <trkpt lat="44.56811" lon="4.21331">
        <ele>476</ele>
        <time>2022-02-08T05:26:51Z</time>
      </trkpt>
      <trkpt lat="44.56819" lon="4.21325">
        <ele>474</ele>
        <time>2022-02-08T05:26:52Z</time>
      </trkpt>
      <trkpt lat="44.56826" lon="4.21324">
        <ele>472</ele>
        <time>2022-02-08T05:26:53Z</time>
      </trkpt>
      <trkpt lat="44.56835" lon="4.21326">
        <ele>471</ele>
        <time>2022-02-08T05:26:55Z</time>
      </trkpt>
      <trkpt lat="44.56854" lon="4.21339">
        <ele>474</ele>
        <time>2022-02-08T05:26:59Z</time>
      </trkpt>
      <trkpt lat="44.56859" lon="4.21341">
        <ele>474</ele>
        <time>2022-02-08T05:27:00Z</time>
      </trkpt>
      <trkpt lat="44.56866" lon="4.2134">
        <ele>474</ele>
        <time>2022-02-08T05:27:01Z</time>
      </trkpt>
      <trkpt lat="44.56872" lon="4.21338">
        <ele>475</ele>
        <time>2022-02-08T05:27:02Z</time>
      </trkpt>
      <trkpt lat="44.56899" lon="4.21311">
        <ele>470</ele>
        <time>2022-02-08T05:27:08Z</time>
      </trkpt>
      <trkpt lat="44.56919" lon="4.21292">
        <ele>465</ele>
        <time>2022-02-08T05:27:12Z</time>
      </trkpt>
      <trkpt lat="44.56927" lon="4.21287">
        <ele>465</ele>
        <time>2022-02-08T05:27:14Z</time>
      </trkpt>
      <trkpt lat="44.56936" lon="4.21285">
        <ele>465</ele>
        <time>2022-02-08T05:27:16Z</time>
      </trkpt>
      <trkpt lat="44.56946" lon="4.21286">
        <ele>466</ele>
        <time>2022-02-08T05:27:17Z</time>
      </trkpt>
      <trkpt lat="44.56976" lon="4.21298">
        <ele>470</ele>
        <time>2022-02-08T05:27:23Z</time>
      </trkpt>
      <trkpt lat="44.56983" lon="4.21296">
        <ele>470</ele>
        <time>2022-02-08T05:27:24Z</time>
      </trkpt>
      <trkpt lat="44.56992" lon="4.21284">
        <ele>469</ele>
        <time>2022-02-08T05:27:26Z</time>
      </trkpt>
      <trkpt lat="44.56995" lon="4.21266">
        <ele>468</ele>
        <time>2022-02-08T05:27:29Z</time>
      </trkpt>
      <trkpt lat="44.56993" lon="4.21251">
        <ele>466</ele>
        <time>2022-02-08T05:27:31Z</time>
      </trkpt>
      <trkpt lat="44.5698" lon="4.21177">
        <ele>462</ele>
        <time>2022-02-08T05:27:40Z</time>
      </trkpt>
      <trkpt lat="44.56976" lon="4.21151">
        <ele>460</ele>
        <time>2022-02-08T05:27:44Z</time>
      </trkpt>
      <trkpt lat="44.56976" lon="4.2113">
        <ele>458</ele>
        <time>2022-02-08T05:27:46Z</time>
      </trkpt>
      <trkpt lat="44.56979" lon="4.21109">
        <ele>457</ele>
        <time>2022-02-08T05:27:49Z</time>
      </trkpt>
      <trkpt lat="44.57033" lon="4.20927">
        <ele>441</ele>
        <time>2022-02-08T05:28:14Z</time>
      </trkpt>
      <trkpt lat="44.57036" lon="4.20911">
        <ele>439</ele>
        <time>2022-02-08T05:28:16Z</time>
      </trkpt>
      <trkpt lat="44.57036" lon="4.20897">
        <ele>437</ele>
        <time>2022-02-08T05:28:18Z</time>
      </trkpt>
      <trkpt lat="44.57033" lon="4.20883">
        <ele>436</ele>
        <time>2022-02-08T05:28:20Z</time>
      </trkpt>
      <trkpt lat="44.57027" lon="4.20869">
        <ele>434</ele>
        <time>2022-02-08T05:28:22Z</time>
      </trkpt>
      <trkpt lat="44.57021" lon="4.20861">
        <ele>433</ele>
        <time>2022-02-08T05:28:23Z</time>
      </trkpt>
      <trkpt lat="44.57013" lon="4.20857">
        <ele>432</ele>
        <time>2022-02-08T05:28:25Z</time>
      </trkpt>
      <trkpt lat="44.57007" lon="4.20857">
        <ele>432</ele>
        <time>2022-02-08T05:28:26Z</time>
      </trkpt>
      <trkpt lat="44.5699" lon="4.20865">
        <ele>431</ele>
        <time>2022-02-08T05:28:29Z</time>
      </trkpt>
      <trkpt lat="44.56982" lon="4.20876">
        <ele>431</ele>
        <time>2022-02-08T05:28:31Z</time>
      </trkpt>
      <trkpt lat="44.56976" lon="4.2089">
        <ele>432</ele>
        <time>2022-02-08T05:28:33Z</time>
      </trkpt>
      <trkpt lat="44.56974" lon="4.20907">
        <ele>433</ele>
        <time>2022-02-08T05:28:35Z</time>
      </trkpt>
      <trkpt lat="44.56971" lon="4.20965">
        <ele>437</ele>
        <time>2022-02-08T05:28:43Z</time>
      </trkpt>
      <trkpt lat="44.56967" lon="4.21002">
        <ele>438</ele>
        <time>2022-02-08T05:28:47Z</time>
      </trkpt>
      <trkpt lat="44.56963" lon="4.21018">
        <ele>439</ele>
        <time>2022-02-08T05:28:50Z</time>
      </trkpt>
      <trkpt lat="44.56928" lon="4.2111">
        <ele>441</ele>
        <time>2022-02-08T05:29:03Z</time>
      </trkpt>
      <trkpt lat="44.56922" lon="4.21119">
        <ele>440</ele>
        <time>2022-02-08T05:29:04Z</time>
      </trkpt>
      <trkpt lat="44.56918" lon="4.21122">
        <ele>439</ele>
        <time>2022-02-08T05:29:05Z</time>
      </trkpt>
      <trkpt lat="44.569" lon="4.21121">
        <ele>440</ele>
        <time>2022-02-08T05:29:08Z</time>
      </trkpt>
      <trkpt lat="44.56888" lon="4.21102">
        <ele>439</ele>
        <time>2022-02-08T05:29:12Z</time>
      </trkpt>
      <trkpt lat="44.56885" lon="4.21076">
        <ele>438</ele>
        <time>2022-02-08T05:29:15Z</time>
      </trkpt>
      <trkpt lat="44.56886" lon="4.21061">
        <ele>437</ele>
        <time>2022-02-08T05:29:17Z</time>
      </trkpt>
      <trkpt lat="44.56889" lon="4.21">
        <ele>433</ele>
        <time>2022-02-08T05:29:25Z</time>
      </trkpt>
      <trkpt lat="44.56887" lon="4.20934">
        <ele>432</ele>
        <time>2022-02-08T05:29:33Z</time>
      </trkpt>
      <trkpt lat="44.56889" lon="4.20913">
        <ele>431</ele>
        <time>2022-02-08T05:29:36Z</time>
      </trkpt>
      <trkpt lat="44.569" lon="4.20882">
        <ele>426</ele>
        <time>2022-02-08T05:29:40Z</time>
      </trkpt>
      <trkpt lat="44.56913" lon="4.20857">
        <ele>420</ele>
        <time>2022-02-08T05:29:44Z</time>
      </trkpt>
      <trkpt lat="44.56921" lon="4.20835">
        <ele>419</ele>
        <time>2022-02-08T05:29:47Z</time>
      </trkpt>
      <trkpt lat="44.56943" lon="4.20773">
        <ele>412</ele>
        <time>2022-02-08T05:29:56Z</time>
      </trkpt>
      <trkpt lat="44.56944" lon="4.20769">
        <ele>412</ele>
        <time>2022-02-08T05:29:56Z</time>
      </trkpt>
      <trkpt lat="44.56946" lon="4.20754">
        <ele>410</ele>
        <time>2022-02-08T05:29:58Z</time>
      </trkpt>
      <trkpt lat="44.56947" lon="4.20741">
        <ele>409</ele>
        <time>2022-02-08T05:30:00Z</time>
      </trkpt>
      <trkpt lat="44.56946" lon="4.20726">
        <ele>407</ele>
        <time>2022-02-08T05:30:02Z</time>
      </trkpt>
      <trkpt lat="44.56944" lon="4.20715">
        <ele>406</ele>
        <time>2022-02-08T05:30:03Z</time>
      </trkpt>
      <trkpt lat="44.56935" lon="4.20695">
        <ele>404</ele>
        <time>2022-02-08T05:30:06Z</time>
      </trkpt>
      <trkpt lat="44.56928" lon="4.20676">
        <ele>402</ele>
        <time>2022-02-08T05:30:09Z</time>
      </trkpt>
      <trkpt lat="44.56932" lon="4.20651">
        <ele>401</ele>
        <time>2022-02-08T05:30:12Z</time>
      </trkpt>
      <trkpt lat="44.56934" lon="4.20648">
        <ele>401</ele>
        <time>2022-02-08T05:30:13Z</time>
      </trkpt>
      <trkpt lat="44.56932" lon="4.20651">
        <ele>401</ele>
        <time>2022-02-08T05:30:13Z</time>
      </trkpt>
      <trkpt lat="44.56928" lon="4.20676">
        <ele>402</ele>
        <time>2022-02-08T05:30:17Z</time>
      </trkpt>
      <trkpt lat="44.56926" lon="4.20668">
        <ele>401</ele>
        <time>2022-02-08T05:30:18Z</time>
      </trkpt>
      <trkpt lat="44.56923" lon="4.20648">
        <ele>400</ele>
        <time>2022-02-08T05:30:20Z</time>
      </trkpt>
      <trkpt lat="44.56925" lon="4.20605">
        <ele>399</ele>
        <time>2022-02-08T05:30:26Z</time>
      </trkpt>
      <trkpt lat="44.5693" lon="4.20558">
        <ele>398</ele>
        <time>2022-02-08T05:30:32Z</time>
      </trkpt>
      <trkpt lat="44.56941" lon="4.20499">
        <ele>397</ele>
        <time>2022-02-08T05:30:39Z</time>
      </trkpt>
      <trkpt lat="44.56942" lon="4.20486">
        <ele>397</ele>
        <time>2022-02-08T05:30:41Z</time>
      </trkpt>
      <trkpt lat="44.56939" lon="4.20463">
        <ele>394</ele>
        <time>2022-02-08T05:30:44Z</time>
      </trkpt>
      <trkpt lat="44.56929" lon="4.20412">
        <ele>388</ele>
        <time>2022-02-08T05:30:51Z</time>
      </trkpt>
      <trkpt lat="44.56927" lon="4.20393">
        <ele>387</ele>
        <time>2022-02-08T05:30:53Z</time>
      </trkpt>
      <trkpt lat="44.56929" lon="4.20366">
        <ele>386</ele>
        <time>2022-02-08T05:30:57Z</time>
      </trkpt>
      <trkpt lat="44.56943" lon="4.20328">
        <ele>387</ele>
        <time>2022-02-08T05:31:02Z</time>
      </trkpt>
      <trkpt lat="44.5695" lon="4.20275">
        <ele>380</ele>
        <time>2022-02-08T05:31:09Z</time>
      </trkpt>
      <trkpt lat="44.56955" lon="4.20254">
        <ele>377</ele>
        <time>2022-02-08T05:31:12Z</time>
      </trkpt>
      <trkpt lat="44.56962" lon="4.20236">
        <ele>375</ele>
        <time>2022-02-08T05:31:14Z</time>
      </trkpt>
      <trkpt lat="44.56974" lon="4.20225">
        <ele>374</ele>
        <time>2022-02-08T05:31:17Z</time>
      </trkpt>
      <trkpt lat="44.56983" lon="4.20223">
        <ele>375</ele>
        <time>2022-02-08T05:31:19Z</time>
      </trkpt>
      <trkpt lat="44.56992" lon="4.2022">
        <ele>375</ele>
        <time>2022-02-08T05:31:20Z</time>
      </trkpt>
      <trkpt lat="44.57021" lon="4.20219">
        <ele>375</ele>
        <time>2022-02-08T05:31:25Z</time>
      </trkpt>
      <trkpt lat="44.57029" lon="4.20217">
        <ele>375</ele>
        <time>2022-02-08T05:31:27Z</time>
      </trkpt>
      <trkpt lat="44.5704" lon="4.2021">
        <ele>375</ele>
        <time>2022-02-08T05:31:29Z</time>
      </trkpt>
      <trkpt lat="44.57066" lon="4.2019">
        <ele>374</ele>
        <time>2022-02-08T05:31:34Z</time>
      </trkpt>
      <trkpt lat="44.57072" lon="4.20183">
        <ele>374</ele>
        <time>2022-02-08T05:31:36Z</time>
      </trkpt>
      <trkpt lat="44.57074" lon="4.20175">
        <ele>373</ele>
        <time>2022-02-08T05:31:37Z</time>
      </trkpt>
      <trkpt lat="44.57075" lon="4.20166">
        <ele>373</ele>
        <time>2022-02-08T05:31:38Z</time>
      </trkpt>
      <trkpt lat="44.57073" lon="4.20154">
        <ele>375</ele>
        <time>2022-02-08T05:31:39Z</time>
      </trkpt>
      <trkpt lat="44.57069" lon="4.20142">
        <ele>376</ele>
        <time>2022-02-08T05:31:41Z</time>
      </trkpt>
      <trkpt lat="44.57061" lon="4.20128">
        <ele>377</ele>
        <time>2022-02-08T05:31:43Z</time>
      </trkpt>
      <trkpt lat="44.5704" lon="4.20103">
        <ele>377</ele>
        <time>2022-02-08T05:31:48Z</time>
      </trkpt>
      <trkpt lat="44.57027" lon="4.20094">
        <ele>375</ele>
        <time>2022-02-08T05:31:51Z</time>
      </trkpt>
      <trkpt lat="44.57022" lon="4.20091">
        <ele>374</ele>
        <time>2022-02-08T05:31:52Z</time>
      </trkpt>
      <trkpt lat="44.57006" lon="4.2008">
        <ele>372</ele>
        <time>2022-02-08T05:31:55Z</time>
      </trkpt>
      <trkpt lat="44.56961" lon="4.20036">
        <ele>376</ele>
        <time>2022-02-08T05:32:05Z</time>
      </trkpt>
      <trkpt lat="44.56929" lon="4.2001">
        <ele>376</ele>
        <time>2022-02-08T05:32:11Z</time>
      </trkpt>
      <trkpt lat="44.569" lon="4.19994">
        <ele>375</ele>
        <time>2022-02-08T05:32:17Z</time>
      </trkpt>
      <trkpt lat="44.56855" lon="4.1998">
        <ele>374</ele>
        <time>2022-02-08T05:32:25Z</time>
      </trkpt>
      <trkpt lat="44.56835" lon="4.19979">
        <ele>371</ele>
        <time>2022-02-08T05:32:29Z</time>
      </trkpt>
      <trkpt lat="44.56799" lon="4.19981">
        <ele>367</ele>
        <time>2022-02-08T05:32:35Z</time>
      </trkpt>
      <trkpt lat="44.56792" lon="4.19978">
        <ele>366</ele>
        <time>2022-02-08T05:32:36Z</time>
      </trkpt>
      <trkpt lat="44.56784" lon="4.19972">
        <ele>366</ele>
        <time>2022-02-08T05:32:38Z</time>
      </trkpt>
      <trkpt lat="44.56778" lon="4.19963">
        <ele>366</ele>
        <time>2022-02-08T05:32:39Z</time>
      </trkpt>
      <trkpt lat="44.56772" lon="4.19951">
        <ele>366</ele>
        <time>2022-02-08T05:32:41Z</time>
      </trkpt>
      <trkpt lat="44.56768" lon="4.19935">
        <ele>366</ele>
        <time>2022-02-08T05:32:43Z</time>
      </trkpt>
      <trkpt lat="44.56742" lon="4.19824">
        <ele>370</ele>
        <time>2022-02-08T05:32:58Z</time>
      </trkpt>
      <trkpt lat="44.56737" lon="4.19798">
        <ele>370</ele>
        <time>2022-02-08T05:33:02Z</time>
      </trkpt>
      <trkpt lat="44.5673" lon="4.19737">
        <ele>371</ele>
        <time>2022-02-08T05:33:10Z</time>
      </trkpt>
      <trkpt lat="44.56725" lon="4.19721">
        <ele>371</ele>
        <time>2022-02-08T05:33:12Z</time>
      </trkpt>
      <trkpt lat="44.56717" lon="4.19708">
        <ele>370</ele>
        <time>2022-02-08T05:33:14Z</time>
      </trkpt>
      <trkpt lat="44.5669" lon="4.19687">
        <ele>364</ele>
        <time>2022-02-08T05:33:19Z</time>
      </trkpt>
      <trkpt lat="44.56667" lon="4.19658">
        <ele>360</ele>
        <time>2022-02-08T05:33:25Z</time>
      </trkpt>
      <trkpt lat="44.56657" lon="4.19641">
        <ele>364</ele>
        <time>2022-02-08T05:33:28Z</time>
      </trkpt>
      <trkpt lat="44.56641" lon="4.19605">
        <ele>368</ele>
        <time>2022-02-08T05:33:33Z</time>
      </trkpt>
      <trkpt lat="44.56627" lon="4.19584">
        <ele>367</ele>
        <time>2022-02-08T05:33:37Z</time>
      </trkpt>
      <trkpt lat="44.56622" lon="4.1957">
        <ele>368</ele>
        <time>2022-02-08T05:33:39Z</time>
      </trkpt>
      <trkpt lat="44.56614" lon="4.19518">
        <ele>369</ele>
        <time>2022-02-08T05:33:45Z</time>
      </trkpt>
      <trkpt lat="44.56608" lon="4.19496">
        <ele>367</ele>
        <time>2022-02-08T05:33:48Z</time>
      </trkpt>
      <trkpt lat="44.5658" lon="4.19416">
        <ele>363</ele>
        <time>2022-02-08T05:34:00Z</time>
      </trkpt>
      <trkpt lat="44.5657" lon="4.19378">
        <ele>366</ele>
        <time>2022-02-08T05:34:05Z</time>
      </trkpt>
      <trkpt lat="44.56551" lon="4.19346">
        <ele>363</ele>
        <time>2022-02-08T05:34:10Z</time>
      </trkpt>
      <trkpt lat="44.56545" lon="4.19335">
        <ele>362</ele>
        <time>2022-02-08T05:34:12Z</time>
      </trkpt>
      <trkpt lat="44.56538" lon="4.19323">
        <ele>362</ele>
        <time>2022-02-08T05:34:14Z</time>
      </trkpt>
      <trkpt lat="44.56528" lon="4.19313">
        <ele>361</ele>
        <time>2022-02-08T05:34:16Z</time>
      </trkpt>
      <trkpt lat="44.56523" lon="4.19311">
        <ele>360</ele>
        <time>2022-02-08T05:34:17Z</time>
      </trkpt>
      <trkpt lat="44.56496" lon="4.1931">
        <ele>352</ele>
        <time>2022-02-08T05:34:22Z</time>
      </trkpt>
      <trkpt lat="44.56489" lon="4.19306">
        <ele>353</ele>
        <time>2022-02-08T05:34:23Z</time>
      </trkpt>
      <trkpt lat="44.56478" lon="4.19292">
        <ele>355</ele>
        <time>2022-02-08T05:34:26Z</time>
      </trkpt>
      <trkpt lat="44.56459" lon="4.19246">
        <ele>356</ele>
        <time>2022-02-08T05:34:33Z</time>
      </trkpt>
      <trkpt lat="44.56448" lon="4.19222">
        <ele>352</ele>
        <time>2022-02-08T05:34:36Z</time>
      </trkpt>
      <trkpt lat="44.56448" lon="4.19208">
        <ele>352</ele>
        <time>2022-02-08T05:34:38Z</time>
      </trkpt>
      <trkpt lat="44.56451" lon="4.19156">
        <ele>350</ele>
        <time>2022-02-08T05:34:45Z</time>
      </trkpt>
      <trkpt lat="44.5645" lon="4.19091">
        <ele>344</ele>
        <time>2022-02-08T05:34:53Z</time>
      </trkpt>
      <trkpt lat="44.56453" lon="4.19073">
        <ele>345</ele>
        <time>2022-02-08T05:34:55Z</time>
      </trkpt>
      <trkpt lat="44.56459" lon="4.19056">
        <ele>347</ele>
        <time>2022-02-08T05:34:58Z</time>
      </trkpt>
      <trkpt lat="44.56465" lon="4.19049">
        <ele>348</ele>
        <time>2022-02-08T05:34:59Z</time>
      </trkpt>
      <trkpt lat="44.56476" lon="4.19043">
        <ele>348</ele>
        <time>2022-02-08T05:35:01Z</time>
      </trkpt>
      <trkpt lat="44.56486" lon="4.19042">
        <ele>348</ele>
        <time>2022-02-08T05:35:03Z</time>
      </trkpt>
      <trkpt lat="44.5653" lon="4.19047">
        <ele>352</ele>
        <time>2022-02-08T05:35:11Z</time>
      </trkpt>
      <trkpt lat="44.5655" lon="4.19046">
        <ele>354</ele>
        <time>2022-02-08T05:35:14Z</time>
      </trkpt>
      <trkpt lat="44.56597" lon="4.19034">
        <ele>355</ele>
        <time>2022-02-08T05:35:23Z</time>
      </trkpt>
      <trkpt lat="44.56621" lon="4.19024">
        <ele>356</ele>
        <time>2022-02-08T05:35:27Z</time>
      </trkpt>
      <trkpt lat="44.56641" lon="4.19012">
        <ele>355</ele>
        <time>2022-02-08T05:35:31Z</time>
      </trkpt>
      <trkpt lat="44.56663" lon="4.18989">
        <ele>353</ele>
        <time>2022-02-08T05:35:36Z</time>
      </trkpt>
      <trkpt lat="44.56671" lon="4.18975">
        <ele>355</ele>
        <time>2022-02-08T05:35:38Z</time>
      </trkpt>
      <trkpt lat="44.56677" lon="4.18956">
        <ele>357</ele>
        <time>2022-02-08T05:35:41Z</time>
      </trkpt>
      <trkpt lat="44.56679" lon="4.18938">
        <ele>358</ele>
        <time>2022-02-08T05:35:43Z</time>
      </trkpt>
      <trkpt lat="44.56679" lon="4.18921">
        <ele>359</ele>
        <time>2022-02-08T05:35:45Z</time>
      </trkpt>
      <trkpt lat="44.5667" lon="4.18888">
        <ele>357</ele>
        <time>2022-02-08T05:35:50Z</time>
      </trkpt>
      <trkpt lat="44.56591" lon="4.18697">
        <ele>350</ele>
        <time>2022-02-08T05:36:18Z</time>
      </trkpt>
      <trkpt lat="44.56575" lon="4.18654">
        <ele>354</ele>
        <time>2022-02-08T05:36:24Z</time>
      </trkpt>
      <trkpt lat="44.56564" lon="4.18619">
        <ele>360</ele>
        <time>2022-02-08T05:36:29Z</time>
      </trkpt>
      <trkpt lat="44.5656" lon="4.18595">
        <ele>363</ele>
        <time>2022-02-08T05:36:32Z</time>
      </trkpt>
      <trkpt lat="44.56552" lon="4.18545">
        <ele>367</ele>
        <time>2022-02-08T05:36:38Z</time>
      </trkpt>
      <trkpt lat="44.5654" lon="4.1849">
        <ele>368</ele>
        <time>2022-02-08T05:36:46Z</time>
      </trkpt>
      <trkpt lat="44.56528" lon="4.18453">
        <ele>366</ele>
        <time>2022-02-08T05:36:51Z</time>
      </trkpt>
      <trkpt lat="44.56516" lon="4.1846">
        <ele>361</ele>
        <time>2022-02-08T05:36:53Z</time>
      </trkpt>
      <trkpt lat="44.56477" lon="4.18481">
        <ele>364</ele>
        <time>2022-02-08T05:37:01Z</time>
      </trkpt>
      <trkpt lat="44.56473" lon="4.18485">
        <ele>366</ele>
        <time>2022-02-08T05:37:01Z</time>
      </trkpt>
      <trkpt lat="44.56472" lon="4.18499">
        <ele>366</ele>
        <time>2022-02-08T05:37:03Z</time>
      </trkpt>
      <trkpt lat="44.56486" lon="4.18559">
        <ele>363</ele>
        <time>2022-02-08T05:37:11Z</time>
      </trkpt>
      <trkpt lat="44.56486" lon="4.1857">
        <ele>364</ele>
        <time>2022-02-08T05:37:13Z</time>
      </trkpt>
      <trkpt lat="44.56483" lon="4.18602">
        <ele>367</ele>
        <time>2022-02-08T05:37:17Z</time>
      </trkpt>
      <trkpt lat="44.56487" lon="4.18647">
        <ele>367</ele>
        <time>2022-02-08T05:37:22Z</time>
      </trkpt>
      <trkpt lat="44.56488" lon="4.18682">
        <ele>368</ele>
        <time>2022-02-08T05:37:27Z</time>
      </trkpt>
      <trkpt lat="44.56484" lon="4.18719">
        <ele>372</ele>
        <time>2022-02-08T05:37:32Z</time>
      </trkpt>
      <trkpt lat="44.56483" lon="4.18752">
        <ele>375</ele>
        <time>2022-02-08T05:37:36Z</time>
      </trkpt>
      <trkpt lat="44.56484" lon="4.18772">
        <ele>376</ele>
        <time>2022-02-08T05:37:38Z</time>
      </trkpt>
      <trkpt lat="44.56493" lon="4.18803">
        <ele>375</ele>
        <time>2022-02-08T05:37:43Z</time>
      </trkpt>
      <trkpt lat="44.56504" lon="4.1883">
        <ele>373</ele>
        <time>2022-02-08T05:37:47Z</time>
      </trkpt>
      <trkpt lat="44.56517" lon="4.18847">
        <ele>369</ele>
        <time>2022-02-08T05:37:50Z</time>
      </trkpt>
      <trkpt lat="44.5652" lon="4.18855">
        <ele>367</ele>
        <time>2022-02-08T05:37:51Z</time>
      </trkpt>
      <trkpt lat="44.56522" lon="4.18865">
        <ele>365</ele>
        <time>2022-02-08T05:37:52Z</time>
      </trkpt>
      <trkpt lat="44.56521" lon="4.18877">
        <ele>364</ele>
        <time>2022-02-08T05:37:54Z</time>
      </trkpt>
      <trkpt lat="44.56516" lon="4.18883">
        <ele>365</ele>
        <time>2022-02-08T05:37:55Z</time>
      </trkpt>
      <trkpt lat="44.5651" lon="4.18883">
        <ele>366</ele>
        <time>2022-02-08T05:37:56Z</time>
      </trkpt>
      <trkpt lat="44.56505" lon="4.18878">
        <ele>368</ele>
        <time>2022-02-08T05:37:57Z</time>
      </trkpt>
      <trkpt lat="44.56503" lon="4.1887">
        <ele>369</ele>
        <time>2022-02-08T05:37:58Z</time>
      </trkpt>
      <trkpt lat="44.56502" lon="4.18847">
        <ele>373</ele>
        <time>2022-02-08T05:38:01Z</time>
      </trkpt>
      <trkpt lat="44.56477" lon="4.18804">
        <ele>382</ele>
        <time>2022-02-08T05:38:08Z</time>
      </trkpt>
      <trkpt lat="44.56463" lon="4.18773">
        <ele>386</ele>
        <time>2022-02-08T05:38:13Z</time>
      </trkpt>
      <trkpt lat="44.56457" lon="4.18746">
        <ele>387</ele>
        <time>2022-02-08T05:38:16Z</time>
      </trkpt>
      <trkpt lat="44.56453" lon="4.187">
        <ele>386</ele>
        <time>2022-02-08T05:38:22Z</time>
      </trkpt>
      <trkpt lat="44.56448" lon="4.18672">
        <ele>387</ele>
        <time>2022-02-08T05:38:26Z</time>
      </trkpt>
      <trkpt lat="44.56444" lon="4.18658">
        <ele>389</ele>
        <time>2022-02-08T05:38:28Z</time>
      </trkpt>
      <trkpt lat="44.56437" lon="4.18647">
        <ele>393</ele>
        <time>2022-02-08T05:38:30Z</time>
      </trkpt>
      <trkpt lat="44.56417" lon="4.18627">
        <ele>403</ele>
        <time>2022-02-08T05:38:34Z</time>
      </trkpt>
      <trkpt lat="44.56415" lon="4.18618">
        <ele>404</ele>
        <time>2022-02-08T05:38:35Z</time>
      </trkpt>
      <trkpt lat="44.56416" lon="4.18607">
        <ele>403</ele>
        <time>2022-02-08T05:38:37Z</time>
      </trkpt>
      <trkpt lat="44.56419" lon="4.18599">
        <ele>402</ele>
        <time>2022-02-08T05:38:38Z</time>
      </trkpt>
      <trkpt lat="44.56433" lon="4.18579">
        <ele>394</ele>
        <time>2022-02-08T05:38:41Z</time>
      </trkpt>
      <trkpt lat="44.56433" lon="4.18565">
        <ele>392</ele>
        <time>2022-02-08T05:38:43Z</time>
      </trkpt>
      <trkpt lat="44.56429" lon="4.18554">
        <ele>394</ele>
        <time>2022-02-08T05:38:45Z</time>
      </trkpt>
      <trkpt lat="44.56423" lon="4.18545">
        <ele>396</ele>
        <time>2022-02-08T05:38:46Z</time>
      </trkpt>
      <trkpt lat="44.56415" lon="4.18542">
        <ele>400</ele>
        <time>2022-02-08T05:38:48Z</time>
      </trkpt>
      <trkpt lat="44.56409" lon="4.18543">
        <ele>403</ele>
        <time>2022-02-08T05:38:49Z</time>
      </trkpt>
      <trkpt lat="44.56403" lon="4.18547">
        <ele>407</ele>
        <time>2022-02-08T05:38:50Z</time>
      </trkpt>
      <trkpt lat="44.56398" lon="4.18557">
        <ele>410</ele>
        <time>2022-02-08T05:38:51Z</time>
      </trkpt>
      <trkpt lat="44.56394" lon="4.18579">
        <ele>414</ele>
        <time>2022-02-08T05:38:54Z</time>
      </trkpt>
      <trkpt lat="44.56395" lon="4.1861">
        <ele>414</ele>
        <time>2022-02-08T05:38:58Z</time>
      </trkpt>
      <trkpt lat="44.56416" lon="4.18665">
        <ele>403</ele>
        <time>2022-02-08T05:39:06Z</time>
      </trkpt>
      <trkpt lat="44.56419" lon="4.18689">
        <ele>403</ele>
        <time>2022-02-08T05:39:09Z</time>
      </trkpt>
      <trkpt lat="44.56417" lon="4.18715">
        <ele>405</ele>
        <time>2022-02-08T05:39:13Z</time>
      </trkpt>
      <trkpt lat="44.56409" lon="4.18749">
        <ele>411</ele>
        <time>2022-02-08T05:39:17Z</time>
      </trkpt>
      <trkpt lat="44.56404" lon="4.18801">
        <ele>413</ele>
        <time>2022-02-08T05:39:24Z</time>
      </trkpt>
      <trkpt lat="44.56397" lon="4.18826">
        <ele>415</ele>
        <time>2022-02-08T05:39:27Z</time>
      </trkpt>
      <trkpt lat="44.56384" lon="4.18848">
        <ele>416</ele>
        <time>2022-02-08T05:39:31Z</time>
      </trkpt>
      <trkpt lat="44.56374" lon="4.18857">
        <ele>418</ele>
        <time>2022-02-08T05:39:33Z</time>
      </trkpt>
      <trkpt lat="44.56321" lon="4.18889">
        <ele>425</ele>
        <time>2022-02-08T05:39:43Z</time>
      </trkpt>
      <trkpt lat="44.56252" lon="4.18939">
        <ele>427</ele>
        <time>2022-02-08T05:39:57Z</time>
      </trkpt>
      <trkpt lat="44.56151" lon="4.18965">
        <ele>422</ele>
        <time>2022-02-08T05:40:15Z</time>
      </trkpt>
      <trkpt lat="44.56144" lon="4.1896">
        <ele>420</ele>
        <time>2022-02-08T05:40:17Z</time>
      </trkpt>
      <trkpt lat="44.5614" lon="4.18946">
        <ele>422</ele>
        <time>2022-02-08T05:40:19Z</time>
      </trkpt>
      <trkpt lat="44.5614" lon="4.18825">
        <ele>446</ele>
        <time>2022-02-08T05:40:34Z</time>
      </trkpt>
      <trkpt lat="44.56134" lon="4.18774">
        <ele>450</ele>
        <time>2022-02-08T05:40:41Z</time>
      </trkpt>
      <trkpt lat="44.56101" lon="4.18624">
        <ele>458</ele>
        <time>2022-02-08T05:41:00Z</time>
      </trkpt>
      <trkpt lat="44.56075" lon="4.18547">
        <ele>466</ele>
        <time>2022-02-08T05:41:11Z</time>
      </trkpt>
      <trkpt lat="44.56067" lon="4.18494">
        <ele>476</ele>
        <time>2022-02-08T05:41:18Z</time>
      </trkpt>
      <trkpt lat="44.56029" lon="4.18431">
        <ele>477</ele>
        <time>2022-02-08T05:41:29Z</time>
      </trkpt>
      <trkpt lat="44.56008" lon="4.18378">
        <ele>483</ele>
        <time>2022-02-08T05:41:36Z</time>
      </trkpt>
      <trkpt lat="44.5598" lon="4.18296">
        <ele>498</ele>
        <time>2022-02-08T05:41:48Z</time>
      </trkpt>
      <trkpt lat="44.55972" lon="4.18283">
        <ele>501</ele>
        <time>2022-02-08T05:41:50Z</time>
      </trkpt>
      <trkpt lat="44.55965" lon="4.18279">
        <ele>502</ele>
        <time>2022-02-08T05:41:51Z</time>
      </trkpt>
      <trkpt lat="44.55954" lon="4.1828">
        <ele>502</ele>
        <time>2022-02-08T05:41:53Z</time>
      </trkpt>
      <trkpt lat="44.55951" lon="4.1828">
        <ele>502</ele>
        <time>2022-02-08T05:41:54Z</time>
      </trkpt>
      <trkpt lat="44.55945" lon="4.18288">
        <ele>501</ele>
        <time>2022-02-08T05:41:55Z</time>
      </trkpt>
      <trkpt lat="44.55943" lon="4.18305">
        <ele>499</ele>
        <time>2022-02-08T05:41:57Z</time>
      </trkpt>
      <trkpt lat="44.55943" lon="4.18339">
        <ele>495</ele>
        <time>2022-02-08T05:42:02Z</time>
      </trkpt>
      <trkpt lat="44.55936" lon="4.1838">
        <ele>491</ele>
        <time>2022-02-08T05:42:07Z</time>
      </trkpt>
      <trkpt lat="44.55935" lon="4.18401">
        <ele>488</ele>
        <time>2022-02-08T05:42:10Z</time>
      </trkpt>
      <trkpt lat="44.55909" lon="4.18484">
        <ele>489</ele>
        <time>2022-02-08T05:42:21Z</time>
      </trkpt>
      <trkpt lat="44.55875" lon="4.18542">
        <ele>492</ele>
        <time>2022-02-08T05:42:31Z</time>
      </trkpt>
      <trkpt lat="44.55859" lon="4.18579">
        <ele>493</ele>
        <time>2022-02-08T05:42:36Z</time>
      </trkpt>
      <trkpt lat="44.5584" lon="4.18611">
        <ele>497</ele>
        <time>2022-02-08T05:42:42Z</time>
      </trkpt>
      <trkpt lat="44.55828" lon="4.18639">
        <ele>498</ele>
        <time>2022-02-08T05:42:46Z</time>
      </trkpt>
      <trkpt lat="44.55813" lon="4.18687">
        <ele>495</ele>
        <time>2022-02-08T05:42:52Z</time>
      </trkpt>
      <trkpt lat="44.55785" lon="4.18738">
        <ele>495</ele>
        <time>2022-02-08T05:43:00Z</time>
      </trkpt>
      <trkpt lat="44.55777" lon="4.18746">
        <ele>495</ele>
        <time>2022-02-08T05:43:02Z</time>
      </trkpt>
      <trkpt lat="44.55762" lon="4.1875">
        <ele>497</ele>
        <time>2022-02-08T05:43:05Z</time>
      </trkpt>
      <trkpt lat="44.55707" lon="4.18725">
        <ele>492</ele>
        <time>2022-02-08T05:43:15Z</time>
      </trkpt>
      <trkpt lat="44.55696" lon="4.18715">
        <ele>490</ele>
        <time>2022-02-08T05:43:18Z</time>
      </trkpt>
      <trkpt lat="44.55693" lon="4.18698">
        <ele>491</ele>
        <time>2022-02-08T05:43:20Z</time>
      </trkpt>
      <trkpt lat="44.55706" lon="4.18648">
        <ele>496</ele>
        <time>2022-02-08T05:43:27Z</time>
      </trkpt>
      <trkpt lat="44.55711" lon="4.18612">
        <ele>497</ele>
        <time>2022-02-08T05:43:31Z</time>
      </trkpt>
      <trkpt lat="44.557" lon="4.18552">
        <ele>496</ele>
        <time>2022-02-08T05:43:39Z</time>
      </trkpt>
      <trkpt lat="44.55687" lon="4.1853">
        <ele>494</ele>
        <time>2022-02-08T05:43:43Z</time>
      </trkpt>
      <trkpt lat="44.55678" lon="4.185">
        <ele>494</ele>
        <time>2022-02-08T05:43:47Z</time>
      </trkpt>
      <trkpt lat="44.55675" lon="4.1844">
        <ele>497</ele>
        <time>2022-02-08T05:43:54Z</time>
      </trkpt>
      <trkpt lat="44.55676" lon="4.18394">
        <ele>502</ele>
        <time>2022-02-08T05:44:00Z</time>
      </trkpt>
      <trkpt lat="44.55668" lon="4.18343">
        <ele>506</ele>
        <time>2022-02-08T05:44:07Z</time>
      </trkpt>
      <trkpt lat="44.55659" lon="4.18305">
        <ele>508</ele>
        <time>2022-02-08T05:44:12Z</time>
      </trkpt>
      <trkpt lat="44.55621" lon="4.18207">
        <ele>505</ele>
        <time>2022-02-08T05:44:26Z</time>
      </trkpt>
      <trkpt lat="44.55621" lon="4.18163">
        <ele>512</ele>
        <time>2022-02-08T05:44:32Z</time>
      </trkpt>
      <trkpt lat="44.55618" lon="4.18134">
        <ele>518</ele>
        <time>2022-02-08T05:44:35Z</time>
      </trkpt>
      <trkpt lat="44.55608" lon="4.18112">
        <ele>519</ele>
        <time>2022-02-08T05:44:39Z</time>
      </trkpt>
      <trkpt lat="44.55551" lon="4.18062">
        <ele>506</ele>
        <time>2022-02-08T05:44:51Z</time>
      </trkpt>
      <trkpt lat="44.55541" lon="4.18026">
        <ele>507</ele>
        <time>2022-02-08T05:44:56Z</time>
      </trkpt>
      <trkpt lat="44.55562" lon="4.17955">
        <ele>529</ele>
        <time>2022-02-08T05:45:05Z</time>
      </trkpt>
      <trkpt lat="44.55561" lon="4.17933">
        <ele>532</ele>
        <time>2022-02-08T05:45:08Z</time>
      </trkpt>
      <trkpt lat="44.55524" lon="4.17887">
        <ele>519</ele>
        <time>2022-02-08T05:45:17Z</time>
      </trkpt>
      <trkpt lat="44.55516" lon="4.17863">
        <ele>518</ele>
        <time>2022-02-08T05:45:20Z</time>
      </trkpt>
      <trkpt lat="44.55518" lon="4.17769">
        <ele>527</ele>
        <time>2022-02-08T05:45:32Z</time>
      </trkpt>
      <trkpt lat="44.55513" lon="4.17724">
        <ele>527</ele>
        <time>2022-02-08T05:45:38Z</time>
      </trkpt>
      <trkpt lat="44.55517" lon="4.17669">
        <ele>533</ele>
        <time>2022-02-08T05:45:45Z</time>
      </trkpt>
      <trkpt lat="44.55507" lon="4.1762">
        <ele>527</ele>
        <time>2022-02-08T05:45:51Z</time>
      </trkpt>
      <trkpt lat="44.55522" lon="4.17575">
        <ele>537</ele>
        <time>2022-02-08T05:45:58Z</time>
      </trkpt>
      <trkpt lat="44.55511" lon="4.17511">
        <ele>531</ele>
        <time>2022-02-08T05:46:06Z</time>
      </trkpt>
      <trkpt lat="44.55538" lon="4.17392">
        <ele>540</ele>
        <time>2022-02-08T05:46:22Z</time>
      </trkpt>
      <trkpt lat="44.55566" lon="4.17339">
        <ele>549</ele>
        <time>2022-02-08T05:46:30Z</time>
      </trkpt>
      <trkpt lat="44.55599" lon="4.17293">
        <ele>565</ele>
        <time>2022-02-08T05:46:39Z</time>
      </trkpt>
      <trkpt lat="44.55589" lon="4.17276">
        <ele>563</ele>
        <time>2022-02-08T05:46:41Z</time>
      </trkpt>
      <trkpt lat="44.55537" lon="4.17278">
        <ele>544</ele>
        <time>2022-02-08T05:46:51Z</time>
      </trkpt>
      <trkpt lat="44.55525" lon="4.17255">
        <ele>543</ele>
        <time>2022-02-08T05:46:54Z</time>
      </trkpt>
      <trkpt lat="44.55496" lon="4.17131">
        <ele>560</ele>
        <time>2022-02-08T05:47:11Z</time>
      </trkpt>
      <trkpt lat="44.55491" lon="4.17091">
        <ele>566</ele>
        <time>2022-02-08T05:47:16Z</time>
      </trkpt>
      <trkpt lat="44.5548" lon="4.17086">
        <ele>569</ele>
        <time>2022-02-08T05:47:18Z</time>
      </trkpt>
      <trkpt lat="44.55469" lon="4.17092">
        <ele>570</ele>
        <time>2022-02-08T05:47:20Z</time>
      </trkpt>
      <trkpt lat="44.5546" lon="4.17107">
        <ele>570</ele>
        <time>2022-02-08T05:47:23Z</time>
      </trkpt>
      <trkpt lat="44.55426" lon="4.17263">
        <ele>551</ele>
        <time>2022-02-08T05:47:43Z</time>
      </trkpt>
      <trkpt lat="44.55391" lon="4.17338">
        <ele>544</ele>
        <time>2022-02-08T05:47:55Z</time>
      </trkpt>
      <trkpt lat="44.55382" lon="4.1735">
        <ele>543</ele>
        <time>2022-02-08T05:47:57Z</time>
      </trkpt>
      <trkpt lat="44.55367" lon="4.17352">
        <ele>546</ele>
        <time>2022-02-08T05:47:59Z</time>
      </trkpt>
      <trkpt lat="44.55346" lon="4.17339">
        <ele>554</ele>
        <time>2022-02-08T05:48:04Z</time>
      </trkpt>
      <trkpt lat="44.55324" lon="4.17337">
        <ele>560</ele>
        <time>2022-02-08T05:48:08Z</time>
      </trkpt>
      <trkpt lat="44.55304" lon="4.17348">
        <ele>563</ele>
        <time>2022-02-08T05:48:11Z</time>
      </trkpt>
      <trkpt lat="44.55285" lon="4.1737">
        <ele>563</ele>
        <time>2022-02-08T05:48:16Z</time>
      </trkpt>
      <trkpt lat="44.55255" lon="4.17425">
        <ele>558</ele>
        <time>2022-02-08T05:48:24Z</time>
      </trkpt>
      <trkpt lat="44.55235" lon="4.17506">
        <ele>552</ele>
        <time>2022-02-08T05:48:35Z</time>
      </trkpt>
      <trkpt lat="44.55236" lon="4.17544">
        <ele>547</ele>
        <time>2022-02-08T05:48:40Z</time>
      </trkpt>
      <trkpt lat="44.55232" lon="4.17563">
        <ele>547</ele>
        <time>2022-02-08T05:48:43Z</time>
      </trkpt>
      <trkpt lat="44.55224" lon="4.17579">
        <ele>548</ele>
        <time>2022-02-08T05:48:45Z</time>
      </trkpt>
      <trkpt lat="44.55182" lon="4.17619">
        <ele>553</ele>
        <time>2022-02-08T05:48:54Z</time>
      </trkpt>
      <trkpt lat="44.55164" lon="4.17644">
        <ele>551</ele>
        <time>2022-02-08T05:48:59Z</time>
      </trkpt>
      <trkpt lat="44.55142" lon="4.17684">
        <ele>549</ele>
        <time>2022-02-08T05:49:05Z</time>
      </trkpt>
      <trkpt lat="44.55095" lon="4.17721">
        <ele>556</ele>
        <time>2022-02-08T05:49:15Z</time>
      </trkpt>
      <trkpt lat="44.55076" lon="4.17752">
        <ele>554</ele>
        <time>2022-02-08T05:49:20Z</time>
      </trkpt>
      <trkpt lat="44.55071" lon="4.17769">
        <ele>552</ele>
        <time>2022-02-08T05:49:22Z</time>
      </trkpt>
      <trkpt lat="44.55044" lon="4.17822">
        <ele>552</ele>
        <time>2022-02-08T05:49:30Z</time>
      </trkpt>
      <trkpt lat="44.55034" lon="4.17852">
        <ele>550</ele>
        <time>2022-02-08T05:49:35Z</time>
      </trkpt>
      <trkpt lat="44.55011" lon="4.17883">
        <ele>555</ele>
        <time>2022-02-08T05:49:40Z</time>
      </trkpt>
      <trkpt lat="44.55" lon="4.17914">
        <ele>555</ele>
        <time>2022-02-08T05:49:45Z</time>
      </trkpt>
      <trkpt lat="44.54983" lon="4.17989">
        <ele>547</ele>
        <time>2022-02-08T05:49:55Z</time>
      </trkpt>
      <trkpt lat="44.54977" lon="4.18001">
        <ele>547</ele>
        <time>2022-02-08T05:49:57Z</time>
      </trkpt>
      <trkpt lat="44.54951" lon="4.18033">
        <ele>550</ele>
        <time>2022-02-08T05:50:03Z</time>
      </trkpt>
      <trkpt lat="44.54926" lon="4.1806">
        <ele>553</ele>
        <time>2022-02-08T05:50:08Z</time>
      </trkpt>
      <trkpt lat="44.54917" lon="4.18058">
        <ele>554</ele>
        <time>2022-02-08T05:50:10Z</time>
      </trkpt>
      <trkpt lat="44.54892" lon="4.18032">
        <ele>557</ele>
        <time>2022-02-08T05:50:16Z</time>
      </trkpt>
      <trkpt lat="44.54879" lon="4.18027">
        <ele>557</ele>
        <time>2022-02-08T05:50:18Z</time>
      </trkpt>
      <trkpt lat="44.54852" lon="4.1803">
        <ele>556</ele>
        <time>2022-02-08T05:50:23Z</time>
      </trkpt>
      <trkpt lat="44.54842" lon="4.18029">
        <ele>556</ele>
        <time>2022-02-08T05:50:25Z</time>
      </trkpt>
      <trkpt lat="44.54831" lon="4.18022">
        <ele>557</ele>
        <time>2022-02-08T05:50:27Z</time>
      </trkpt>
      <trkpt lat="44.54822" lon="4.18004">
        <ele>558</ele>
        <time>2022-02-08T05:50:29Z</time>
      </trkpt>
      <trkpt lat="44.54818" lon="4.1799">
        <ele>559</ele>
        <time>2022-02-08T05:50:31Z</time>
      </trkpt>
      <trkpt lat="44.54817" lon="4.17985">
        <ele>560</ele>
        <time>2022-02-08T05:50:32Z</time>
      </trkpt>
      <trkpt lat="44.54814" lon="4.17974">
        <ele>560</ele>
        <time>2022-02-08T05:50:34Z</time>
      </trkpt>
      <trkpt lat="44.54812" lon="4.17957">
        <ele>562</ele>
        <time>2022-02-08T05:50:36Z</time>
      </trkpt>
      <trkpt lat="44.54815" lon="4.1793">
        <ele>565</ele>
        <time>2022-02-08T05:50:39Z</time>
      </trkpt>
      <trkpt lat="44.54814" lon="4.17888">
        <ele>566</ele>
        <time>2022-02-08T05:50:44Z</time>
      </trkpt>
      <trkpt lat="44.54821" lon="4.17858">
        <ele>569</ele>
        <time>2022-02-08T05:50:48Z</time>
      </trkpt>
      <trkpt lat="44.54826" lon="4.17851">
        <ele>571</ele>
        <time>2022-02-08T05:50:50Z</time>
      </trkpt>
      <trkpt lat="44.54834" lon="4.17842">
        <ele>573</ele>
        <time>2022-02-08T05:50:52Z</time>
      </trkpt>
      <trkpt lat="44.54846" lon="4.17814">
        <ele>576</ele>
        <time>2022-02-08T05:50:56Z</time>
      </trkpt>
      <trkpt lat="44.54848" lon="4.17796">
        <ele>578</ele>
        <time>2022-02-08T05:50:58Z</time>
      </trkpt>
      <trkpt lat="44.54846" lon="4.17778">
        <ele>578</ele>
        <time>2022-02-08T05:51:00Z</time>
      </trkpt>
      <trkpt lat="44.54839" lon="4.17752">
        <ele>577</ele>
        <time>2022-02-08T05:51:04Z</time>
      </trkpt>
      <trkpt lat="44.54828" lon="4.17677">
        <ele>580</ele>
        <time>2022-02-08T05:51:14Z</time>
      </trkpt>
      <trkpt lat="44.54843" lon="4.17588">
        <ele>580</ele>
        <time>2022-02-08T05:51:25Z</time>
      </trkpt>
      <trkpt lat="44.5486" lon="4.17552">
        <ele>583</ele>
        <time>2022-02-08T05:51:31Z</time>
      </trkpt>
      <trkpt lat="44.54867" lon="4.17514">
        <ele>584</ele>
        <time>2022-02-08T05:51:36Z</time>
      </trkpt>
      <trkpt lat="44.5488" lon="4.17464">
        <ele>588</ele>
        <time>2022-02-08T05:51:42Z</time>
      </trkpt>
      <trkpt lat="44.54872" lon="4.17402">
        <ele>588</ele>
        <time>2022-02-08T05:51:50Z</time>
      </trkpt>
      <trkpt lat="44.54886" lon="4.17358">
        <ele>592</ele>
        <time>2022-02-08T05:51:56Z</time>
      </trkpt>
      <trkpt lat="44.5489" lon="4.17258">
        <ele>597</ele>
        <time>2022-02-08T05:52:09Z</time>
      </trkpt>
      <trkpt lat="44.54875" lon="4.17201">
        <ele>599</ele>
        <time>2022-02-08T05:52:17Z</time>
      </trkpt>
      <trkpt lat="44.54847" lon="4.1716">
        <ele>594</ele>
        <time>2022-02-08T05:52:24Z</time>
      </trkpt>
      <trkpt lat="44.54821" lon="4.17008">
        <ele>605</ele>
        <time>2022-02-08T05:52:44Z</time>
      </trkpt>
      <trkpt lat="44.54822" lon="4.16958">
        <ele>615</ele>
        <time>2022-02-08T05:52:50Z</time>
      </trkpt>
      <trkpt lat="44.5481" lon="4.16944">
        <ele>615</ele>
        <time>2022-02-08T05:52:53Z</time>
      </trkpt>
      <trkpt lat="44.54794" lon="4.16942">
        <ele>612</ele>
        <time>2022-02-08T05:52:56Z</time>
      </trkpt>
      <trkpt lat="44.5474" lon="4.16966">
        <ele>593</ele>
        <time>2022-02-08T05:53:06Z</time>
      </trkpt>
      <trkpt lat="44.54728" lon="4.16958">
        <ele>592</ele>
        <time>2022-02-08T05:53:08Z</time>
      </trkpt>
      <trkpt lat="44.54718" lon="4.16903">
        <ele>602</ele>
        <time>2022-02-08T05:53:16Z</time>
      </trkpt>
      <trkpt lat="44.54683" lon="4.16846">
        <ele>601</ele>
        <time>2022-02-08T05:53:25Z</time>
      </trkpt>
      <trkpt lat="44.54687" lon="4.16731">
        <ele>616</ele>
        <time>2022-02-08T05:53:40Z</time>
      </trkpt>
      <trkpt lat="44.54695" lon="4.16701">
        <ele>625</ele>
        <time>2022-02-08T05:53:44Z</time>
      </trkpt>
      <trkpt lat="44.54691" lon="4.16688">
        <ele>625</ele>
        <time>2022-02-08T05:53:46Z</time>
      </trkpt>
      <trkpt lat="44.54624" lon="4.16664">
        <ele>622</ele>
        <time>2022-02-08T05:53:58Z</time>
      </trkpt>
      <trkpt lat="44.54496" lon="4.16775">
        <ele>611</ele>
        <time>2022-02-08T05:54:25Z</time>
      </trkpt>
      <trkpt lat="44.54457" lon="4.16825">
        <ele>610</ele>
        <time>2022-02-08T05:54:34Z</time>
      </trkpt>
      <trkpt lat="44.54424" lon="4.16852">
        <ele>613</ele>
        <time>2022-02-08T05:54:41Z</time>
      </trkpt>
      <trkpt lat="44.54352" lon="4.16887">
        <ele>610</ele>
        <time>2022-02-08T05:54:54Z</time>
      </trkpt>
      <trkpt lat="44.5432" lon="4.16895">
        <ele>608</ele>
        <time>2022-02-08T05:55:00Z</time>
      </trkpt>
      <trkpt lat="44.54293" lon="4.16889">
        <ele>606</ele>
        <time>2022-02-08T05:55:05Z</time>
      </trkpt>
      <trkpt lat="44.54264" lon="4.16828">
        <ele>616</ele>
        <time>2022-02-08T05:55:14Z</time>
      </trkpt>
      <trkpt lat="44.54252" lon="4.16709">
        <ele>621</ele>
        <time>2022-02-08T05:55:30Z</time>
      </trkpt>
      <trkpt lat="44.54265" lon="4.16573">
        <ele>643</ele>
        <time>2022-02-08T05:55:47Z</time>
      </trkpt>
      <trkpt lat="44.54261" lon="4.16558">
        <ele>647</ele>
        <time>2022-02-08T05:55:49Z</time>
      </trkpt>
      <trkpt lat="44.54253" lon="4.1655">
        <ele>647</ele>
        <time>2022-02-08T05:55:51Z</time>
      </trkpt>
      <trkpt lat="44.54233" lon="4.16554">
        <ele>646</ele>
        <time>2022-02-08T05:55:54Z</time>
      </trkpt>
      <trkpt lat="44.54201" lon="4.16586">
        <ele>637</ele>
        <time>2022-02-08T05:56:01Z</time>
      </trkpt>
      <trkpt lat="44.54174" lon="4.16598">
        <ele>635</ele>
        <time>2022-02-08T05:56:06Z</time>
      </trkpt>
      <trkpt lat="44.54119" lon="4.16637">
        <ele>634</ele>
        <time>2022-02-08T05:56:17Z</time>
      </trkpt>
      <trkpt lat="44.54071" lon="4.16653">
        <ele>641</ele>
        <time>2022-02-08T05:56:26Z</time>
      </trkpt>
      <trkpt lat="44.54046" lon="4.16695">
        <ele>635</ele>
        <time>2022-02-08T05:56:33Z</time>
      </trkpt>
      <trkpt lat="44.53985" lon="4.16743">
        <ele>640</ele>
        <time>2022-02-08T05:56:45Z</time>
      </trkpt>
      <trkpt lat="44.53899" lon="4.16758">
        <ele>643</ele>
        <time>2022-02-08T05:57:01Z</time>
      </trkpt>
      <trkpt lat="44.53884" lon="4.16767">
        <ele>642</ele>
        <time>2022-02-08T05:57:04Z</time>
      </trkpt>
      <trkpt lat="44.5387" lon="4.1678">
        <ele>641</ele>
        <time>2022-02-08T05:57:07Z</time>
      </trkpt>
      <trkpt lat="44.53856" lon="4.168">
        <ele>639</ele>
        <time>2022-02-08T05:57:10Z</time>
      </trkpt>
      <trkpt lat="44.53836" lon="4.16816">
        <ele>641</ele>
        <time>2022-02-08T05:57:14Z</time>
      </trkpt>
      <trkpt lat="44.53825" lon="4.16821">
        <ele>641</ele>
        <time>2022-02-08T05:57:16Z</time>
      </trkpt>
      <trkpt lat="44.53809" lon="4.16827">
        <ele>642</ele>
        <time>2022-02-08T05:57:19Z</time>
      </trkpt>
      <trkpt lat="44.53804" lon="4.16828">
        <ele>642</ele>
        <time>2022-02-08T05:57:20Z</time>
      </trkpt>
      <trkpt lat="44.53799" lon="4.16829">
        <ele>642</ele>
        <time>2022-02-08T05:57:21Z</time>
      </trkpt>
      <trkpt lat="44.53793" lon="4.16826">
        <ele>643</ele>
        <time>2022-02-08T05:57:22Z</time>
      </trkpt>
      <trkpt lat="44.53776" lon="4.1681">
        <ele>644</ele>
        <time>2022-02-08T05:57:26Z</time>
      </trkpt>
      <trkpt lat="44.53772" lon="4.16804">
        <ele>643</ele>
        <time>2022-02-08T05:57:27Z</time>
      </trkpt>
      <trkpt lat="44.53769" lon="4.16795">
        <ele>643</ele>
        <time>2022-02-08T05:57:28Z</time>
      </trkpt>
      <trkpt lat="44.53761" lon="4.16774">
        <ele>640</ele>
        <time>2022-02-08T05:57:31Z</time>
      </trkpt>
      <trkpt lat="44.53755" lon="4.16778">
        <ele>640</ele>
        <time>2022-02-08T05:57:33Z</time>
      </trkpt>
      <trkpt lat="44.53722" lon="4.16794">
        <ele>634</ele>
        <time>2022-02-08T05:57:39Z</time>
      </trkpt>
      <trkpt lat="44.53686" lon="4.1684">
        <ele>632</ele>
        <time>2022-02-08T05:57:47Z</time>
      </trkpt>
      <trkpt lat="44.5365" lon="4.1687">
        <ele>630</ele>
        <time>2022-02-08T05:57:55Z</time>
      </trkpt>
      <trkpt lat="44.53629" lon="4.16899">
        <ele>631</ele>
        <time>2022-02-08T05:58:00Z</time>
      </trkpt>
      <trkpt lat="44.5358" lon="4.16904">
        <ele>620</ele>
        <time>2022-02-08T05:58:09Z</time>
      </trkpt>
      <trkpt lat="44.53446" lon="4.16984">
        <ele>617</ele>
        <time>2022-02-08T05:58:35Z</time>
      </trkpt>
      <trkpt lat="44.53369" lon="4.17003">
        <ele>608</ele>
        <time>2022-02-08T05:58:49Z</time>
      </trkpt>
      <trkpt lat="44.53345" lon="4.17025">
        <ele>606</ele>
        <time>2022-02-08T05:58:54Z</time>
      </trkpt>
      <trkpt lat="44.53307" lon="4.17116">
        <ele>595</ele>
        <time>2022-02-08T05:59:07Z</time>
      </trkpt>
      <trkpt lat="44.53301" lon="4.17168">
        <ele>592</ele>
        <time>2022-02-08T05:59:14Z</time>
      </trkpt>
      <trkpt lat="44.53327" lon="4.17263">
        <ele>594</ele>
        <time>2022-02-08T05:59:27Z</time>
      </trkpt>
      <trkpt lat="44.53323" lon="4.17307">
        <ele>590</ele>
        <time>2022-02-08T05:59:32Z</time>
      </trkpt>
      <trkpt lat="44.53287" lon="4.17421">
        <ele>573</ele>
        <time>2022-02-08T05:59:48Z</time>
      </trkpt>
      <trkpt lat="44.53285" lon="4.17489">
        <ele>572</ele>
        <time>2022-02-08T05:59:57Z</time>
      </trkpt>
      <trkpt lat="44.53272" lon="4.17531">
        <ele>569</ele>
        <time>2022-02-08T06:00:03Z</time>
      </trkpt>
      <trkpt lat="44.53233" lon="4.17611">
        <ele>559</ele>
        <time>2022-02-08T06:00:15Z</time>
      </trkpt>
      <trkpt lat="44.53226" lon="4.17644">
        <ele>557</ele>
        <time>2022-02-08T06:00:19Z</time>
      </trkpt>
      <trkpt lat="44.53207" lon="4.17684">
        <ele>551</ele>
        <time>2022-02-08T06:00:25Z</time>
      </trkpt>
      <trkpt lat="44.53147" lon="4.17746">
        <ele>546</ele>
        <time>2022-02-08T06:00:39Z</time>
      </trkpt>
      <trkpt lat="44.53134" lon="4.17755">
        <ele>547</ele>
        <time>2022-02-08T06:00:41Z</time>
      </trkpt>
      <trkpt lat="44.53119" lon="4.1776">
        <ele>548</ele>
        <time>2022-02-08T06:00:44Z</time>
      </trkpt>
      <trkpt lat="44.53067" lon="4.17756">
        <ele>549</ele>
        <time>2022-02-08T06:00:53Z</time>
      </trkpt>
      <trkpt lat="44.53051" lon="4.17752">
        <ele>550</ele>
        <time>2022-02-08T06:00:56Z</time>
      </trkpt>
      <trkpt lat="44.53011" lon="4.17731">
        <ele>547</ele>
        <time>2022-02-08T06:01:04Z</time>
      </trkpt>
      <trkpt lat="44.52968" lon="4.17719">
        <ele>545</ele>
        <time>2022-02-08T06:01:11Z</time>
      </trkpt>
      <trkpt lat="44.52953" lon="4.17714">
        <ele>545</ele>
        <time>2022-02-08T06:01:14Z</time>
      </trkpt>
      <trkpt lat="44.52911" lon="4.17699">
        <ele>542</ele>
        <time>2022-02-08T06:01:22Z</time>
      </trkpt>
      <trkpt lat="44.52899" lon="4.17697">
        <ele>540</ele>
        <time>2022-02-08T06:01:24Z</time>
      </trkpt>
      <trkpt lat="44.52864" lon="4.17701">
        <ele>536</ele>
        <time>2022-02-08T06:01:30Z</time>
      </trkpt>
      <trkpt lat="44.52853" lon="4.17698">
        <ele>534</ele>
        <time>2022-02-08T06:01:32Z</time>
      </trkpt>
      <trkpt lat="44.52825" lon="4.17687">
        <ele>529</ele>
        <time>2022-02-08T06:01:38Z</time>
      </trkpt>
      <trkpt lat="44.5282" lon="4.17689">
        <ele>527</ele>
        <time>2022-02-08T06:01:38Z</time>
      </trkpt>
      <trkpt lat="44.52815" lon="4.17693">
        <ele>526</ele>
        <time>2022-02-08T06:01:39Z</time>
      </trkpt>
      <trkpt lat="44.52812" lon="4.17699">
        <ele>525</ele>
        <time>2022-02-08T06:01:40Z</time>
      </trkpt>
      <trkpt lat="44.52811" lon="4.1771">
        <ele>526</ele>
        <time>2022-02-08T06:01:42Z</time>
      </trkpt>
      <trkpt lat="44.52811" lon="4.17723">
        <ele>526</ele>
        <time>2022-02-08T06:01:43Z</time>
      </trkpt>
      <trkpt lat="44.52814" lon="4.17735">
        <ele>528</ele>
        <time>2022-02-08T06:01:45Z</time>
      </trkpt>
      <trkpt lat="44.52819" lon="4.17748">
        <ele>531</ele>
        <time>2022-02-08T06:01:47Z</time>
      </trkpt>
      <trkpt lat="44.52825" lon="4.17755">
        <ele>533</ele>
        <time>2022-02-08T06:01:48Z</time>
      </trkpt>
      <trkpt lat="44.5284" lon="4.17767">
        <ele>537</ele>
        <time>2022-02-08T06:01:51Z</time>
      </trkpt>
      <trkpt lat="44.52846" lon="4.17774">
        <ele>538</ele>
        <time>2022-02-08T06:01:53Z</time>
      </trkpt>
      <trkpt lat="44.52849" lon="4.1778">
        <ele>538</ele>
        <time>2022-02-08T06:01:54Z</time>
      </trkpt>
      <trkpt lat="44.52849" lon="4.17792">
        <ele>537</ele>
        <time>2022-02-08T06:01:55Z</time>
      </trkpt>
      <trkpt lat="44.52846" lon="4.17799">
        <ele>535</ele>
        <time>2022-02-08T06:01:56Z</time>
      </trkpt>
      <trkpt lat="44.52842" lon="4.17803">
        <ele>534</ele>
        <time>2022-02-08T06:01:57Z</time>
      </trkpt>
      <trkpt lat="44.52836" lon="4.17801">
        <ele>532</ele>
        <time>2022-02-08T06:01:58Z</time>
      </trkpt>
      <trkpt lat="44.52833" lon="4.17799">
        <ele>531</ele>
        <time>2022-02-08T06:01:59Z</time>
      </trkpt>
      <trkpt lat="44.52814" lon="4.17757">
        <ele>528</ele>
        <time>2022-02-08T06:02:05Z</time>
      </trkpt>
      <trkpt lat="44.52795" lon="4.17722">
        <ele>521</ele>
        <time>2022-02-08T06:02:11Z</time>
      </trkpt>
      <trkpt lat="44.5279" lon="4.17709">
        <ele>519</ele>
        <time>2022-02-08T06:02:13Z</time>
      </trkpt>
      <trkpt lat="44.52788" lon="4.17693">
        <ele>518</ele>
        <time>2022-02-08T06:02:15Z</time>
      </trkpt>
      <trkpt lat="44.52788" lon="4.17672">
        <ele>518</ele>
        <time>2022-02-08T06:02:17Z</time>
      </trkpt>
      <trkpt lat="44.52791" lon="4.17659">
        <ele>517</ele>
        <time>2022-02-08T06:02:19Z</time>
      </trkpt>
      <trkpt lat="44.52797" lon="4.17647">
        <ele>516</ele>
        <time>2022-02-08T06:02:21Z</time>
      </trkpt>
      <trkpt lat="44.52809" lon="4.17636">
        <ele>516</ele>
        <time>2022-02-08T06:02:23Z</time>
      </trkpt>
      <trkpt lat="44.52818" lon="4.17631">
        <ele>517</ele>
        <time>2022-02-08T06:02:25Z</time>
      </trkpt>
      <trkpt lat="44.52828" lon="4.17629">
        <ele>519</ele>
        <time>2022-02-08T06:02:27Z</time>
      </trkpt>
      <trkpt lat="44.52838" lon="4.17629">
        <ele>520</ele>
        <time>2022-02-08T06:02:29Z</time>
      </trkpt>
      <trkpt lat="44.52848" lon="4.17633">
        <ele>521</ele>
        <time>2022-02-08T06:02:31Z</time>
      </trkpt>
      <trkpt lat="44.52857" lon="4.1764">
        <ele>523</ele>
        <time>2022-02-08T06:02:32Z</time>
      </trkpt>
      <trkpt lat="44.52874" lon="4.17662">
        <ele>530</ele>
        <time>2022-02-08T06:02:37Z</time>
      </trkpt>
      <trkpt lat="44.52879" lon="4.17666">
        <ele>531</ele>
        <time>2022-02-08T06:02:38Z</time>
      </trkpt>
      <trkpt lat="44.52884" lon="4.17666">
        <ele>531</ele>
        <time>2022-02-08T06:02:38Z</time>
      </trkpt>
      <trkpt lat="44.52891" lon="4.17658">
        <ele>529</ele>
        <time>2022-02-08T06:02:40Z</time>
      </trkpt>
      <trkpt lat="44.52892" lon="4.1765">
        <ele>526</ele>
        <time>2022-02-08T06:02:41Z</time>
      </trkpt>
      <trkpt lat="44.5289" lon="4.17645">
        <ele>525</ele>
        <time>2022-02-08T06:02:42Z</time>
      </trkpt>
      <trkpt lat="44.52887" lon="4.17642">
        <ele>524</ele>
        <time>2022-02-08T06:02:42Z</time>
      </trkpt>
      <trkpt lat="44.5287" lon="4.17637">
        <ele>522</ele>
        <time>2022-02-08T06:02:46Z</time>
      </trkpt>
      <trkpt lat="44.52844" lon="4.17615">
        <ele>516</ele>
        <time>2022-02-08T06:02:51Z</time>
      </trkpt>
      <trkpt lat="44.52835" lon="4.17612">
        <ele>516</ele>
        <time>2022-02-08T06:02:53Z</time>
      </trkpt>
      <trkpt lat="44.52823" lon="4.1761">
        <ele>513</ele>
        <time>2022-02-08T06:02:55Z</time>
      </trkpt>
      <trkpt lat="44.52815" lon="4.17605">
        <ele>511</ele>
        <time>2022-02-08T06:02:56Z</time>
      </trkpt>
      <trkpt lat="44.52808" lon="4.17603">
        <ele>509</ele>
        <time>2022-02-08T06:02:58Z</time>
      </trkpt>
      <trkpt lat="44.52801" lon="4.17603">
        <ele>507</ele>
        <time>2022-02-08T06:02:59Z</time>
      </trkpt>
      <trkpt lat="44.52793" lon="4.17606">
        <ele>507</ele>
        <time>2022-02-08T06:03:00Z</time>
      </trkpt>
      <trkpt lat="44.52785" lon="4.17613">
        <ele>506</ele>
        <time>2022-02-08T06:03:02Z</time>
      </trkpt>
      <trkpt lat="44.52771" lon="4.17633">
        <ele>507</ele>
        <time>2022-02-08T06:03:06Z</time>
      </trkpt>
      <trkpt lat="44.52751" lon="4.1767">
        <ele>509</ele>
        <time>2022-02-08T06:03:11Z</time>
      </trkpt>
      <trkpt lat="44.52748" lon="4.17685">
        <ele>507</ele>
        <time>2022-02-08T06:03:13Z</time>
      </trkpt>
      <trkpt lat="44.52747" lon="4.17702">
        <ele>505</ele>
        <time>2022-02-08T06:03:16Z</time>
      </trkpt>
      <trkpt lat="44.52747" lon="4.17721">
        <ele>503</ele>
        <time>2022-02-08T06:03:18Z</time>
      </trkpt>
      <trkpt lat="44.52753" lon="4.17743">
        <ele>504</ele>
        <time>2022-02-08T06:03:21Z</time>
      </trkpt>
      <trkpt lat="44.52784" lon="4.17828">
        <ele>505</ele>
        <time>2022-02-08T06:03:33Z</time>
      </trkpt>
      <trkpt lat="44.52789" lon="4.17846">
        <ele>506</ele>
        <time>2022-02-08T06:03:36Z</time>
      </trkpt>
      <trkpt lat="44.52793" lon="4.17884">
        <ele>505</ele>
        <time>2022-02-08T06:03:40Z</time>
      </trkpt>
      <trkpt lat="44.52802" lon="4.17926">
        <ele>506</ele>
        <time>2022-02-08T06:03:46Z</time>
      </trkpt>
      <trkpt lat="44.52802" lon="4.17934">
        <ele>507</ele>
        <time>2022-02-08T06:03:47Z</time>
      </trkpt>
      <trkpt lat="44.52801" lon="4.17941">
        <ele>507</ele>
        <time>2022-02-08T06:03:48Z</time>
      </trkpt>
      <trkpt lat="44.52797" lon="4.17945">
        <ele>506</ele>
        <time>2022-02-08T06:03:49Z</time>
      </trkpt>
      <trkpt lat="44.52791" lon="4.17947">
        <ele>504</ele>
        <time>2022-02-08T06:03:50Z</time>
      </trkpt>
      <trkpt lat="44.52742" lon="4.17948">
        <ele>487</ele>
        <time>2022-02-08T06:03:59Z</time>
      </trkpt>
      <trkpt lat="44.52734" lon="4.17951">
        <ele>485</ele>
        <time>2022-02-08T06:04:00Z</time>
      </trkpt>
      <trkpt lat="44.52727" lon="4.17955">
        <ele>484</ele>
        <time>2022-02-08T06:04:01Z</time>
      </trkpt>
      <trkpt lat="44.52723" lon="4.17961">
        <ele>483</ele>
        <time>2022-02-08T06:04:02Z</time>
      </trkpt>
      <trkpt lat="44.5272" lon="4.17971">
        <ele>483</ele>
        <time>2022-02-08T06:04:04Z</time>
      </trkpt>
      <trkpt lat="44.52717" lon="4.18016">
        <ele>485</ele>
        <time>2022-02-08T06:04:10Z</time>
      </trkpt>
      <trkpt lat="44.52715" lon="4.18032">
        <ele>485</ele>
        <time>2022-02-08T06:04:12Z</time>
      </trkpt>
      <trkpt lat="44.52711" lon="4.18046">
        <ele>484</ele>
        <time>2022-02-08T06:04:14Z</time>
      </trkpt>
      <trkpt lat="44.52703" lon="4.18061">
        <ele>482</ele>
        <time>2022-02-08T06:04:16Z</time>
      </trkpt>
      <trkpt lat="44.52678" lon="4.18094">
        <ele>475</ele>
        <time>2022-02-08T06:04:22Z</time>
      </trkpt>
      <trkpt lat="44.52675" lon="4.18104">
        <ele>473</ele>
        <time>2022-02-08T06:04:23Z</time>
      </trkpt>
      <trkpt lat="44.52675" lon="4.1812">
        <ele>472</ele>
        <time>2022-02-08T06:04:25Z</time>
      </trkpt>
      <trkpt lat="44.5268" lon="4.18124">
        <ele>473</ele>
        <time>2022-02-08T06:04:26Z</time>
      </trkpt>
      <trkpt lat="44.52719" lon="4.18134">
        <ele>481</ele>
        <time>2022-02-08T06:04:34Z</time>
      </trkpt>
      <trkpt lat="44.52734" lon="4.18141">
        <ele>483</ele>
        <time>2022-02-08T06:04:36Z</time>
      </trkpt>
      <trkpt lat="44.52742" lon="4.18148">
        <ele>484</ele>
        <time>2022-02-08T06:04:38Z</time>
      </trkpt>
      <trkpt lat="44.52745" lon="4.18155">
        <ele>484</ele>
        <time>2022-02-08T06:04:39Z</time>
      </trkpt>
      <trkpt lat="44.52745" lon="4.18163">
        <ele>482</ele>
        <time>2022-02-08T06:04:40Z</time>
      </trkpt>
      <trkpt lat="44.52741" lon="4.18172">
        <ele>482</ele>
        <time>2022-02-08T06:04:41Z</time>
      </trkpt>
      <trkpt lat="44.52715" lon="4.18201">
        <ele>477</ele>
        <time>2022-02-08T06:04:47Z</time>
      </trkpt>
      <trkpt lat="44.52681" lon="4.18253">
        <ele>467</ele>
        <time>2022-02-08T06:04:56Z</time>
      </trkpt>
      <trkpt lat="44.52677" lon="4.18264">
        <ele>467</ele>
        <time>2022-02-08T06:04:58Z</time>
      </trkpt>
      <trkpt lat="44.52674" lon="4.18274">
        <ele>466</ele>
        <time>2022-02-08T06:04:59Z</time>
      </trkpt>
      <trkpt lat="44.52674" lon="4.18307">
        <ele>469</ele>
        <time>2022-02-08T06:05:03Z</time>
      </trkpt>
      <trkpt lat="44.52673" lon="4.18318">
        <ele>470</ele>
        <time>2022-02-08T06:05:05Z</time>
      </trkpt>
      <trkpt lat="44.52664" lon="4.18337">
        <ele>469</ele>
        <time>2022-02-08T06:05:08Z</time>
      </trkpt>
      <trkpt lat="44.52625" lon="4.18376">
        <ele>464</ele>
        <time>2022-02-08T06:05:16Z</time>
      </trkpt>
      <trkpt lat="44.52614" lon="4.18381">
        <ele>462</ele>
        <time>2022-02-08T06:05:18Z</time>
      </trkpt>
      <trkpt lat="44.52607" lon="4.18381">
        <ele>460</ele>
        <time>2022-02-08T06:05:20Z</time>
      </trkpt>
      <trkpt lat="44.52577" lon="4.18379">
        <ele>455</ele>
        <time>2022-02-08T06:05:25Z</time>
      </trkpt>
      <trkpt lat="44.52574" lon="4.18381">
        <ele>454</ele>
        <time>2022-02-08T06:05:25Z</time>
      </trkpt>
      <trkpt lat="44.52571" lon="4.18382">
        <ele>454</ele>
        <time>2022-02-08T06:05:26Z</time>
      </trkpt>
      <trkpt lat="44.52568" lon="4.18385">
        <ele>453</ele>
        <time>2022-02-08T06:05:27Z</time>
      </trkpt>
      <trkpt lat="44.52565" lon="4.18391">
        <ele>453</ele>
        <time>2022-02-08T06:05:28Z</time>
      </trkpt>
      <trkpt lat="44.5256" lon="4.18411">
        <ele>452</ele>
        <time>2022-02-08T06:05:30Z</time>
      </trkpt>
      <trkpt lat="44.5256" lon="4.18429">
        <ele>451</ele>
        <time>2022-02-08T06:05:33Z</time>
      </trkpt>
      <trkpt lat="44.52564" lon="4.18448">
        <ele>451</ele>
        <time>2022-02-08T06:05:35Z</time>
      </trkpt>
      <trkpt lat="44.52597" lon="4.18511">
        <ele>455</ele>
        <time>2022-02-08T06:05:45Z</time>
      </trkpt>
      <trkpt lat="44.526" lon="4.18523">
        <ele>455</ele>
        <time>2022-02-08T06:05:47Z</time>
      </trkpt>
      <trkpt lat="44.52599" lon="4.18531">
        <ele>454</ele>
        <time>2022-02-08T06:05:48Z</time>
      </trkpt>
      <trkpt lat="44.52589" lon="4.18566">
        <ele>449</ele>
        <time>2022-02-08T06:05:52Z</time>
      </trkpt>
      <trkpt lat="44.52585" lon="4.18597">
        <ele>447</ele>
        <time>2022-02-08T06:05:56Z</time>
      </trkpt>
      <trkpt lat="44.52588" lon="4.18609">
        <ele>448</ele>
        <time>2022-02-08T06:05:58Z</time>
      </trkpt>
      <trkpt lat="44.52602" lon="4.18642">
        <ele>453</ele>
        <time>2022-02-08T06:06:03Z</time>
      </trkpt>
      <trkpt lat="44.52603" lon="4.1865">
        <ele>453</ele>
        <time>2022-02-08T06:06:04Z</time>
      </trkpt>
      <trkpt lat="44.52602" lon="4.18657">
        <ele>453</ele>
        <time>2022-02-08T06:06:05Z</time>
      </trkpt>
      <trkpt lat="44.52596" lon="4.18668">
        <ele>451</ele>
        <time>2022-02-08T06:06:07Z</time>
      </trkpt>
      <trkpt lat="44.52537" lon="4.18747">
        <ele>440</ele>
        <time>2022-02-08T06:06:21Z</time>
      </trkpt>
      <trkpt lat="44.52518" lon="4.18772">
        <ele>437</ele>
        <time>2022-02-08T06:06:26Z</time>
      </trkpt>
      <trkpt lat="44.52466" lon="4.18876">
        <ele>435</ele>
        <time>2022-02-08T06:06:42Z</time>
      </trkpt>
      <trkpt lat="44.52459" lon="4.18884">
        <ele>434</ele>
        <time>2022-02-08T06:06:43Z</time>
      </trkpt>
      <trkpt lat="44.52452" lon="4.18889">
        <ele>433</ele>
        <time>2022-02-08T06:06:45Z</time>
      </trkpt>
      <trkpt lat="44.52429" lon="4.18889">
        <ele>425</ele>
        <time>2022-02-08T06:06:49Z</time>
      </trkpt>
      <trkpt lat="44.52419" lon="4.18893">
        <ele>422</ele>
        <time>2022-02-08T06:06:51Z</time>
      </trkpt>
      <trkpt lat="44.52409" lon="4.18898">
        <ele>421</ele>
        <time>2022-02-08T06:06:53Z</time>
      </trkpt>
      <trkpt lat="44.52401" lon="4.18905">
        <ele>422</ele>
        <time>2022-02-08T06:06:54Z</time>
      </trkpt>
      <trkpt lat="44.52374" lon="4.18933">
        <ele>424</ele>
        <time>2022-02-08T06:07:00Z</time>
      </trkpt>
      <trkpt lat="44.5236" lon="4.18942">
        <ele>424</ele>
        <time>2022-02-08T06:07:03Z</time>
      </trkpt>
      <trkpt lat="44.52317" lon="4.18956">
        <ele>419</ele>
        <time>2022-02-08T06:07:11Z</time>
      </trkpt>
      <trkpt lat="44.52299" lon="4.18967">
        <ele>416</ele>
        <time>2022-02-08T06:07:14Z</time>
      </trkpt>
      <trkpt lat="44.52245" lon="4.19041">
        <ele>422</ele>
        <time>2022-02-08T06:07:28Z</time>
      </trkpt>
      <trkpt lat="44.52237" lon="4.19048">
        <ele>422</ele>
        <time>2022-02-08T06:07:30Z</time>
      </trkpt>
      <trkpt lat="44.52228" lon="4.19053">
        <ele>422</ele>
        <time>2022-02-08T06:07:31Z</time>
      </trkpt>
      <trkpt lat="44.52195" lon="4.19057">
        <ele>416</ele>
        <time>2022-02-08T06:07:37Z</time>
      </trkpt>
      <trkpt lat="44.52181" lon="4.19062">
        <ele>415</ele>
        <time>2022-02-08T06:07:40Z</time>
      </trkpt>
      <trkpt lat="44.52156" lon="4.19076">
        <ele>414</ele>
        <time>2022-02-08T06:07:45Z</time>
      </trkpt>
      <trkpt lat="44.52148" lon="4.19079">
        <ele>412</ele>
        <time>2022-02-08T06:07:46Z</time>
      </trkpt>
      <trkpt lat="44.52121" lon="4.19081">
        <ele>404</ele>
        <time>2022-02-08T06:07:51Z</time>
      </trkpt>
      <trkpt lat="44.52022" lon="4.19168">
        <ele>395</ele>
        <time>2022-02-08T06:08:12Z</time>
      </trkpt>
      <trkpt lat="44.52016" lon="4.19177">
        <ele>395</ele>
        <time>2022-02-08T06:08:13Z</time>
      </trkpt>
      <trkpt lat="44.52008" lon="4.19197">
        <ele>397</ele>
        <time>2022-02-08T06:08:16Z</time>
      </trkpt>
      <trkpt lat="44.52003" lon="4.19202">
        <ele>397</ele>
        <time>2022-02-08T06:08:17Z</time>
      </trkpt>
      <trkpt lat="44.51977" lon="4.19215">
        <ele>389</ele>
        <time>2022-02-08T06:08:22Z</time>
      </trkpt>
      <trkpt lat="44.51967" lon="4.19223">
        <ele>387</ele>
        <time>2022-02-08T06:08:24Z</time>
      </trkpt>
      <trkpt lat="44.51935" lon="4.19267">
        <ele>389</ele>
        <time>2022-02-08T06:08:32Z</time>
      </trkpt>
      <trkpt lat="44.51926" lon="4.19273">
        <ele>387</ele>
        <time>2022-02-08T06:08:34Z</time>
      </trkpt>
      <trkpt lat="44.51871" lon="4.19301">
        <ele>380</ele>
        <time>2022-02-08T06:08:44Z</time>
      </trkpt>
      <trkpt lat="44.51841" lon="4.19329">
        <ele>382</ele>
        <time>2022-02-08T06:08:51Z</time>
      </trkpt>
      <trkpt lat="44.51832" lon="4.19334">
        <ele>381</ele>
        <time>2022-02-08T06:08:52Z</time>
      </trkpt>
      <trkpt lat="44.51823" lon="4.19332">
        <ele>378</ele>
        <time>2022-02-08T06:08:54Z</time>
      </trkpt>
      <trkpt lat="44.51788" lon="4.19318">
        <ele>367</ele>
        <time>2022-02-08T06:09:00Z</time>
      </trkpt>
      <trkpt lat="44.51782" lon="4.19317">
        <ele>366</ele>
        <time>2022-02-08T06:09:02Z</time>
      </trkpt>
      <trkpt lat="44.51777" lon="4.19319">
        <ele>365</ele>
        <time>2022-02-08T06:09:02Z</time>
      </trkpt>
      <trkpt lat="44.51772" lon="4.19326">
        <ele>366</ele>
        <time>2022-02-08T06:09:04Z</time>
      </trkpt>
      <trkpt lat="44.51768" lon="4.19344">
        <ele>366</ele>
        <time>2022-02-08T06:09:06Z</time>
      </trkpt>
      <trkpt lat="44.51767" lon="4.19357">
        <ele>365</ele>
        <time>2022-02-08T06:09:08Z</time>
      </trkpt>
      <trkpt lat="44.51769" lon="4.19382">
        <ele>365</ele>
        <time>2022-02-08T06:09:11Z</time>
      </trkpt>
      <trkpt lat="44.51773" lon="4.19391">
        <ele>365</ele>
        <time>2022-02-08T06:09:12Z</time>
      </trkpt>
      <trkpt lat="44.51778" lon="4.19397">
        <ele>366</ele>
        <time>2022-02-08T06:09:14Z</time>
      </trkpt>
      <trkpt lat="44.51795" lon="4.19398">
        <ele>368</ele>
        <time>2022-02-08T06:09:17Z</time>
      </trkpt>
      <trkpt lat="44.51827" lon="4.19392">
        <ele>372</ele>
        <time>2022-02-08T06:09:22Z</time>
      </trkpt>
      <trkpt lat="44.51845" lon="4.19395">
        <ele>375</ele>
        <time>2022-02-08T06:09:26Z</time>
      </trkpt>
      <trkpt lat="44.51892" lon="4.19439">
        <ele>372</ele>
        <time>2022-02-08T06:09:36Z</time>
      </trkpt>
      <trkpt lat="44.51915" lon="4.19443">
        <ele>375</ele>
        <time>2022-02-08T06:09:40Z</time>
      </trkpt>
      <trkpt lat="44.51917" lon="4.19446">
        <ele>375</ele>
        <time>2022-02-08T06:09:40Z</time>
      </trkpt>
      <trkpt lat="44.51918" lon="4.19451">
        <ele>374</ele>
        <time>2022-02-08T06:09:41Z</time>
      </trkpt>
      <trkpt lat="44.51916" lon="4.19458">
        <ele>371</ele>
        <time>2022-02-08T06:09:42Z</time>
      </trkpt>
      <trkpt lat="44.51913" lon="4.19459">
        <ele>370</ele>
        <time>2022-02-08T06:09:42Z</time>
      </trkpt>
      <trkpt lat="44.51907" lon="4.19457">
        <ele>369</ele>
        <time>2022-02-08T06:09:43Z</time>
      </trkpt>
      <trkpt lat="44.51843" lon="4.19417">
        <ele>371</ele>
        <time>2022-02-08T06:09:56Z</time>
      </trkpt>
      <trkpt lat="44.51834" lon="4.19415">
        <ele>370</ele>
        <time>2022-02-08T06:09:58Z</time>
      </trkpt>
      <trkpt lat="44.51797" lon="4.19426">
        <ele>363</ele>
        <time>2022-02-08T06:10:04Z</time>
      </trkpt>
      <trkpt lat="44.51787" lon="4.19431">
        <ele>360</ele>
        <time>2022-02-08T06:10:06Z</time>
      </trkpt>
      <trkpt lat="44.51751" lon="4.19458">
        <ele>350</ele>
        <time>2022-02-08T06:10:13Z</time>
      </trkpt>
      <trkpt lat="44.51739" lon="4.19458">
        <ele>345</ele>
        <time>2022-02-08T06:10:16Z</time>
      </trkpt>
      <trkpt lat="44.51735" lon="4.19454">
        <ele>344</ele>
        <time>2022-02-08T06:10:16Z</time>
      </trkpt>
      <trkpt lat="44.51733" lon="4.19445">
        <ele>345</ele>
        <time>2022-02-08T06:10:18Z</time>
      </trkpt>
      <trkpt lat="44.51727" lon="4.19398">
        <ele>348</ele>
        <time>2022-02-08T06:10:24Z</time>
      </trkpt>
      <trkpt lat="44.51733" lon="4.19259">
        <ele>340</ele>
        <time>2022-02-08T06:10:41Z</time>
      </trkpt>
      <trkpt lat="44.51735" lon="4.19242">
        <ele>337</ele>
        <time>2022-02-08T06:10:44Z</time>
      </trkpt>
      <trkpt lat="44.51739" lon="4.19229">
        <ele>335</ele>
        <time>2022-02-08T06:10:45Z</time>
      </trkpt>
      <trkpt lat="44.51743" lon="4.19221">
        <ele>334</ele>
        <time>2022-02-08T06:10:47Z</time>
      </trkpt>
      <trkpt lat="44.5175" lon="4.19217">
        <ele>337</ele>
        <time>2022-02-08T06:10:48Z</time>
      </trkpt>
      <trkpt lat="44.51759" lon="4.19214">
        <ele>336</ele>
        <time>2022-02-08T06:10:50Z</time>
      </trkpt>
      <trkpt lat="44.51761" lon="4.19206">
        <ele>332</ele>
        <time>2022-02-08T06:10:51Z</time>
      </trkpt>
      <trkpt lat="44.51758" lon="4.19202">
        <ele>330</ele>
        <time>2022-02-08T06:10:51Z</time>
      </trkpt>
      <trkpt lat="44.51753" lon="4.192">
        <ele>329</ele>
        <time>2022-02-08T06:10:52Z</time>
      </trkpt>
      <trkpt lat="44.51745" lon="4.19204">
        <ele>328</ele>
        <time>2022-02-08T06:10:54Z</time>
      </trkpt>
      <trkpt lat="44.51734" lon="4.19216">
        <ele>326</ele>
        <time>2022-02-08T06:10:56Z</time>
      </trkpt>
      <trkpt lat="44.51727" lon="4.19229">
        <ele>326</ele>
        <time>2022-02-08T06:10:58Z</time>
      </trkpt>
      <trkpt lat="44.51721" lon="4.19245">
        <ele>328</ele>
        <time>2022-02-08T06:11:01Z</time>
      </trkpt>
      <trkpt lat="44.51718" lon="4.19266">
        <ele>331</ele>
        <time>2022-02-08T06:11:03Z</time>
      </trkpt>
      <trkpt lat="44.51716" lon="4.19302">
        <ele>335</ele>
        <time>2022-02-08T06:11:08Z</time>
      </trkpt>
      <trkpt lat="44.51711" lon="4.19328">
        <ele>336</ele>
        <time>2022-02-08T06:11:11Z</time>
      </trkpt>
      <trkpt lat="44.51696" lon="4.19376">
        <ele>328</ele>
        <time>2022-02-08T06:11:18Z</time>
      </trkpt>
      <trkpt lat="44.51694" lon="4.19391">
        <ele>328</ele>
        <time>2022-02-08T06:11:20Z</time>
      </trkpt>
      <trkpt lat="44.51696" lon="4.19438">
        <ele>327</ele>
        <time>2022-02-08T06:11:26Z</time>
      </trkpt>
      <trkpt lat="44.51694" lon="4.19476">
        <ele>322</ele>
        <time>2022-02-08T06:11:31Z</time>
      </trkpt>
      <trkpt lat="44.51687" lon="4.19518">
        <ele>312</ele>
        <time>2022-02-08T06:11:36Z</time>
      </trkpt>
      <trkpt lat="44.5169" lon="4.19548">
        <ele>306</ele>
        <time>2022-02-08T06:11:40Z</time>
      </trkpt>
      <trkpt lat="44.51697" lon="4.19558">
        <ele>304</ele>
        <time>2022-02-08T06:11:42Z</time>
      </trkpt>
      <trkpt lat="44.51713" lon="4.19561">
        <ele>307</ele>
        <time>2022-02-08T06:11:45Z</time>
      </trkpt>
      <trkpt lat="44.51725" lon="4.19556">
        <ele>310</ele>
        <time>2022-02-08T06:11:47Z</time>
      </trkpt>
      <trkpt lat="44.51736" lon="4.19546">
        <ele>316</ele>
        <time>2022-02-08T06:11:49Z</time>
      </trkpt>
      <trkpt lat="44.5175" lon="4.19537">
        <ele>323</ele>
        <time>2022-02-08T06:11:52Z</time>
      </trkpt>
      <trkpt lat="44.51789" lon="4.19515">
        <ele>330</ele>
        <time>2022-02-08T06:12:00Z</time>
      </trkpt>
      <trkpt lat="44.51808" lon="4.19513">
        <ele>330</ele>
        <time>2022-02-08T06:12:03Z</time>
      </trkpt>
      <trkpt lat="44.5182" lon="4.19514">
        <ele>329</ele>
        <time>2022-02-08T06:12:05Z</time>
      </trkpt>
      <trkpt lat="44.51831" lon="4.19519">
        <ele>326</ele>
        <time>2022-02-08T06:12:07Z</time>
      </trkpt>
      <trkpt lat="44.51865" lon="4.19549">
        <ele>330</ele>
        <time>2022-02-08T06:12:14Z</time>
      </trkpt>
      <trkpt lat="44.51869" lon="4.19564">
        <ele>328</ele>
        <time>2022-02-08T06:12:16Z</time>
      </trkpt>
      <trkpt lat="44.51868" lon="4.19574">
        <ele>325</ele>
        <time>2022-02-08T06:12:18Z</time>
      </trkpt>
      <trkpt lat="44.51858" lon="4.19603">
        <ele>317</ele>
        <time>2022-02-08T06:12:22Z</time>
      </trkpt>
      <trkpt lat="44.51851" lon="4.19629">
        <ele>312</ele>
        <time>2022-02-08T06:12:25Z</time>
      </trkpt>
      <trkpt lat="44.51838" lon="4.19711">
        <ele>301</ele>
        <time>2022-02-08T06:12:36Z</time>
      </trkpt>
      <trkpt lat="44.51837" lon="4.19727">
        <ele>300</ele>
        <time>2022-02-08T06:12:38Z</time>
      </trkpt>
      <trkpt lat="44.51839" lon="4.19742">
        <ele>301</ele>
        <time>2022-02-08T06:12:40Z</time>
      </trkpt>
      <trkpt lat="44.51847" lon="4.19766">
        <ele>301</ele>
        <time>2022-02-08T06:12:43Z</time>
      </trkpt>
      <trkpt lat="44.51856" lon="4.1979">
        <ele>300</ele>
        <time>2022-02-08T06:12:47Z</time>
      </trkpt>
      <trkpt lat="44.51887" lon="4.19843">
        <ele>301</ele>
        <time>2022-02-08T06:12:55Z</time>
      </trkpt>
      <trkpt lat="44.51896" lon="4.19881">
        <ele>292</ele>
        <time>2022-02-08T06:13:00Z</time>
      </trkpt>
      <trkpt lat="44.51903" lon="4.19894">
        <ele>291</ele>
        <time>2022-02-08T06:13:02Z</time>
      </trkpt>
      <trkpt lat="44.51919" lon="4.19911">
        <ele>291</ele>
        <time>2022-02-08T06:13:06Z</time>
      </trkpt>
      <trkpt lat="44.51927" lon="4.19917">
        <ele>290</ele>
        <time>2022-02-08T06:13:08Z</time>
      </trkpt>
      <trkpt lat="44.51939" lon="4.19921">
        <ele>290</ele>
        <time>2022-02-08T06:13:10Z</time>
      </trkpt>
      <trkpt lat="44.51959" lon="4.19923">
        <ele>292</ele>
        <time>2022-02-08T06:13:13Z</time>
      </trkpt>
      <trkpt lat="44.51966" lon="4.1993">
        <ele>289</ele>
        <time>2022-02-08T06:13:15Z</time>
      </trkpt>
      <trkpt lat="44.51967" lon="4.19935">
        <ele>287</ele>
        <time>2022-02-08T06:13:16Z</time>
      </trkpt>
      <trkpt lat="44.51965" lon="4.1994">
        <ele>284</ele>
        <time>2022-02-08T06:13:16Z</time>
      </trkpt>
      <trkpt lat="44.51961" lon="4.19942">
        <ele>282</ele>
        <time>2022-02-08T06:13:17Z</time>
      </trkpt>
      <trkpt lat="44.51955" lon="4.19942">
        <ele>282</ele>
        <time>2022-02-08T06:13:18Z</time>
      </trkpt>
      <trkpt lat="44.51938" lon="4.1993">
        <ele>285</ele>
        <time>2022-02-08T06:13:22Z</time>
      </trkpt>
      <trkpt lat="44.519" lon="4.19916">
        <ele>282</ele>
        <time>2022-02-08T06:13:29Z</time>
      </trkpt>
      <trkpt lat="44.51892" lon="4.19909">
        <ele>281</ele>
        <time>2022-02-08T06:13:30Z</time>
      </trkpt>
      <trkpt lat="44.51878" lon="4.19891">
        <ele>281</ele>
        <time>2022-02-08T06:13:34Z</time>
      </trkpt>
      <trkpt lat="44.5187" lon="4.19864">
        <ele>286</ele>
        <time>2022-02-08T06:13:37Z</time>
      </trkpt>
      <trkpt lat="44.51844" lon="4.19836">
        <ele>282</ele>
        <time>2022-02-08T06:13:43Z</time>
      </trkpt>
      <trkpt lat="44.51834" lon="4.19821">
        <ele>280</ele>
        <time>2022-02-08T06:13:46Z</time>
      </trkpt>
      <trkpt lat="44.51823" lon="4.19797">
        <ele>280</ele>
        <time>2022-02-08T06:13:49Z</time>
      </trkpt>
      <trkpt lat="44.51805" lon="4.19771">
        <ele>277</ele>
        <time>2022-02-08T06:13:54Z</time>
      </trkpt>
      <trkpt lat="44.51799" lon="4.19759">
        <ele>277</ele>
        <time>2022-02-08T06:13:56Z</time>
      </trkpt>
      <trkpt lat="44.51789" lon="4.19734">
        <ele>276</ele>
        <time>2022-02-08T06:13:59Z</time>
      </trkpt>
      <trkpt lat="44.51789" lon="4.19721">
        <ele>278</ele>
        <time>2022-02-08T06:14:01Z</time>
      </trkpt>
      <trkpt lat="44.51791" lon="4.19712">
        <ele>280</ele>
        <time>2022-02-08T06:14:02Z</time>
      </trkpt>
      <trkpt lat="44.51799" lon="4.19694">
        <ele>286</ele>
        <time>2022-02-08T06:14:05Z</time>
      </trkpt>
      <trkpt lat="44.51801" lon="4.19686">
        <ele>287</ele>
        <time>2022-02-08T06:14:06Z</time>
      </trkpt>
      <trkpt lat="44.518" lon="4.19681">
        <ele>288</ele>
        <time>2022-02-08T06:14:07Z</time>
      </trkpt>
      <trkpt lat="44.51797" lon="4.19678">
        <ele>287</ele>
        <time>2022-02-08T06:14:07Z</time>
      </trkpt>
      <trkpt lat="44.51793" lon="4.19677">
        <ele>286</ele>
        <time>2022-02-08T06:14:08Z</time>
      </trkpt>
      <trkpt lat="44.51785" lon="4.19684">
        <ele>282</ele>
        <time>2022-02-08T06:14:10Z</time>
      </trkpt>
      <trkpt lat="44.51781" lon="4.19695">
        <ele>278</ele>
        <time>2022-02-08T06:14:11Z</time>
      </trkpt>
      <trkpt lat="44.51779" lon="4.19707">
        <ele>276</ele>
        <time>2022-02-08T06:14:13Z</time>
      </trkpt>
      <trkpt lat="44.51779" lon="4.1974">
        <ele>270</ele>
        <time>2022-02-08T06:14:17Z</time>
      </trkpt>
      <trkpt lat="44.51782" lon="4.19755">
        <ele>269</ele>
        <time>2022-02-08T06:14:19Z</time>
      </trkpt>
      <trkpt lat="44.51798" lon="4.19788">
        <ele>268</ele>
        <time>2022-02-08T06:14:24Z</time>
      </trkpt>
      <trkpt lat="44.51803" lon="4.19801">
        <ele>268</ele>
        <time>2022-02-08T06:14:26Z</time>
      </trkpt>
      <trkpt lat="44.51813" lon="4.19841">
        <ele>263</ele>
        <time>2022-02-08T06:14:31Z</time>
      </trkpt>
      <trkpt lat="44.51821" lon="4.1986">
        <ele>263</ele>
        <time>2022-02-08T06:14:34Z</time>
      </trkpt>
      <trkpt lat="44.51837" lon="4.19883">
        <ele>264</ele>
        <time>2022-02-08T06:14:38Z</time>
      </trkpt>
      <trkpt lat="44.5184" lon="4.19891">
        <ele>263</ele>
        <time>2022-02-08T06:14:39Z</time>
      </trkpt>
      <trkpt lat="44.51845" lon="4.19923">
        <ele>256</ele>
        <time>2022-02-08T06:14:44Z</time>
      </trkpt>
      <trkpt lat="44.51855" lon="4.19945">
        <ele>252</ele>
        <time>2022-02-08T06:14:47Z</time>
      </trkpt>
      <trkpt lat="44.51861" lon="4.19952">
        <ele>252</ele>
        <time>2022-02-08T06:14:48Z</time>
      </trkpt>
      <trkpt lat="44.51883" lon="4.19971">
        <ele>252</ele>
        <time>2022-02-08T06:14:53Z</time>
      </trkpt>
      <trkpt lat="44.51899" lon="4.19986">
        <ele>250</ele>
        <time>2022-02-08T06:14:56Z</time>
      </trkpt>
      <trkpt lat="44.51908" lon="4.1999">
        <ele>251</ele>
        <time>2022-02-08T06:14:58Z</time>
      </trkpt>
      <trkpt lat="44.51941" lon="4.1999">
        <ele>255</ele>
        <time>2022-02-08T06:15:04Z</time>
      </trkpt>
      <trkpt lat="44.51945" lon="4.19993">
        <ele>254</ele>
        <time>2022-02-08T06:15:05Z</time>
      </trkpt>
      <trkpt lat="44.51946" lon="4.19997">
        <ele>252</ele>
        <time>2022-02-08T06:15:05Z</time>
      </trkpt>
      <trkpt lat="44.51945" lon="4.20007">
        <ele>248</ele>
        <time>2022-02-08T06:15:06Z</time>
      </trkpt>
      <trkpt lat="44.51941" lon="4.2001">
        <ele>246</ele>
        <time>2022-02-08T06:15:07Z</time>
      </trkpt>
      <trkpt lat="44.51925" lon="4.20005">
        <ele>247</ele>
        <time>2022-02-08T06:15:10Z</time>
      </trkpt>
      <trkpt lat="44.519" lon="4.20001">
        <ele>244</ele>
        <time>2022-02-08T06:15:15Z</time>
      </trkpt>
      <trkpt lat="44.51879" lon="4.19988">
        <ele>244</ele>
        <time>2022-02-08T06:15:19Z</time>
      </trkpt>
      <trkpt lat="44.51847" lon="4.1998">
        <ele>238</ele>
        <time>2022-02-08T06:15:25Z</time>
      </trkpt>
      <trkpt lat="44.51832" lon="4.19967">
        <ele>238</ele>
        <time>2022-02-08T06:15:28Z</time>
      </trkpt>
      <trkpt lat="44.51802" lon="4.19904">
        <ele>243</ele>
        <time>2022-02-08T06:15:37Z</time>
      </trkpt>
      <trkpt lat="44.51777" lon="4.1986">
        <ele>240</ele>
        <time>2022-02-08T06:15:44Z</time>
      </trkpt>
      <trkpt lat="44.5176" lon="4.1982">
        <ele>239</ele>
        <time>2022-02-08T06:15:50Z</time>
      </trkpt>
      <trkpt lat="44.5175" lon="4.19804">
        <ele>237</ele>
        <time>2022-02-08T06:15:53Z</time>
      </trkpt>
      <trkpt lat="44.51731" lon="4.19779">
        <ele>239</ele>
        <time>2022-02-08T06:15:58Z</time>
      </trkpt>
      <trkpt lat="44.51725" lon="4.19768">
        <ele>240</ele>
        <time>2022-02-08T06:15:59Z</time>
      </trkpt>
      <trkpt lat="44.5172" lon="4.19763">
        <ele>240</ele>
        <time>2022-02-08T06:16:00Z</time>
      </trkpt>
      <trkpt lat="44.51705" lon="4.19761">
        <ele>235</ele>
        <time>2022-02-08T06:16:03Z</time>
      </trkpt>
      <trkpt lat="44.51688" lon="4.19753">
        <ele>231</ele>
        <time>2022-02-08T06:16:06Z</time>
      </trkpt>
      <trkpt lat="44.51662" lon="4.19723">
        <ele>234</ele>
        <time>2022-02-08T06:16:12Z</time>
      </trkpt>
      <trkpt lat="44.51648" lon="4.19715">
        <ele>234</ele>
        <time>2022-02-08T06:16:15Z</time>
      </trkpt>
      <trkpt lat="44.51624" lon="4.19696">
        <ele>235</ele>
        <time>2022-02-08T06:16:20Z</time>
      </trkpt>
      <trkpt lat="44.51609" lon="4.19694">
        <ele>232</ele>
        <time>2022-02-08T06:16:23Z</time>
      </trkpt>
      <trkpt lat="44.51601" lon="4.19695">
        <ele>230</ele>
        <time>2022-02-08T06:16:24Z</time>
      </trkpt>
      <trkpt lat="44.51599" lon="4.19703">
        <ele>228</ele>
        <time>2022-02-08T06:16:25Z</time>
      </trkpt>
      <trkpt lat="44.51575" lon="4.19776">
        <ele>219</ele>
        <time>2022-02-08T06:16:35Z</time>
      </trkpt>
      <trkpt lat="44.5157" lon="4.19797">
        <ele>222</ele>
        <time>2022-02-08T06:16:38Z</time>
      </trkpt>
      <trkpt lat="44.51562" lon="4.19797">
        <ele>221</ele>
        <time>2022-02-08T06:16:40Z</time>
      </trkpt>
      <trkpt lat="44.51543" lon="4.19805">
        <ele>222</ele>
        <time>2022-02-08T06:16:43Z</time>
      </trkpt>
      <trkpt lat="44.51534" lon="4.19811">
        <ele>222</ele>
        <time>2022-02-08T06:16:45Z</time>
      </trkpt>
      <trkpt lat="44.51514" lon="4.19835">
        <ele>224</ele>
        <time>2022-02-08T06:16:50Z</time>
      </trkpt>
      <trkpt lat="44.51504" lon="4.19844">
        <ele>226</ele>
        <time>2022-02-08T06:16:52Z</time>
      </trkpt>
      <trkpt lat="44.51472" lon="4.19862">
        <ele>226</ele>
        <time>2022-02-08T06:16:58Z</time>
      </trkpt>
      <trkpt lat="44.51387" lon="4.19906">
        <ele>224</ele>
        <time>2022-02-08T06:17:14Z</time>
      </trkpt>
      <trkpt lat="44.51348" lon="4.19911">
        <ele>219</ele>
        <time>2022-02-08T06:17:21Z</time>
      </trkpt>
      <trkpt lat="44.51331" lon="4.19927">
        <ele>220</ele>
        <time>2022-02-08T06:17:25Z</time>
      </trkpt>
      <trkpt lat="44.51208" lon="4.20135">
        <ele>221</ele>
        <time>2022-02-08T06:17:59Z</time>
      </trkpt>
      <trkpt lat="44.51203" lon="4.20149">
        <ele>221</ele>
        <time>2022-02-08T06:18:01Z</time>
      </trkpt>
      <trkpt lat="44.51201" lon="4.20163">
        <ele>221</ele>
        <time>2022-02-08T06:18:03Z</time>
      </trkpt>
      <trkpt lat="44.51199" lon="4.20208">
        <ele>217</ele>
        <time>2022-02-08T06:18:08Z</time>
      </trkpt>
      <trkpt lat="44.51202" lon="4.20225">
        <ele>217</ele>
        <time>2022-02-08T06:18:11Z</time>
      </trkpt>
      <trkpt lat="44.51227" lon="4.20308">
        <ele>215</ele>
        <time>2022-02-08T06:18:22Z</time>
      </trkpt>
      <trkpt lat="44.51241" lon="4.20334">
        <ele>214</ele>
        <time>2022-02-08T06:18:26Z</time>
      </trkpt>
      <trkpt lat="44.51264" lon="4.20368">
        <ele>213</ele>
        <time>2022-02-08T06:18:32Z</time>
      </trkpt>
      <trkpt lat="44.51278" lon="4.20378">
        <ele>214</ele>
        <time>2022-02-08T06:18:35Z</time>
      </trkpt>
      <trkpt lat="44.51301" lon="4.20386">
        <ele>218</ele>
        <time>2022-02-08T06:18:39Z</time>
      </trkpt>
      <trkpt lat="44.51311" lon="4.20391">
        <ele>219</ele>
        <time>2022-02-08T06:18:41Z</time>
      </trkpt>
      <trkpt lat="44.51319" lon="4.20397">
        <ele>219</ele>
        <time>2022-02-08T06:18:43Z</time>
      </trkpt>
      <trkpt lat="44.51327" lon="4.20405">
        <ele>218</ele>
        <time>2022-02-08T06:18:44Z</time>
      </trkpt>
      <trkpt lat="44.51367" lon="4.20479">
        <ele>213</ele>
        <time>2022-02-08T06:18:56Z</time>
      </trkpt>
      <trkpt lat="44.51404" lon="4.20531">
        <ele>209</ele>
        <time>2022-02-08T06:19:05Z</time>
      </trkpt>
      <trkpt lat="44.51413" lon="4.20542">
        <ele>208</ele>
        <time>2022-02-08T06:19:08Z</time>
      </trkpt>
      <trkpt lat="44.51424" lon="4.20549">
        <ele>209</ele>
        <time>2022-02-08T06:19:10Z</time>
      </trkpt>
      <trkpt lat="44.51438" lon="4.20553">
        <ele>212</ele>
        <time>2022-02-08T06:19:12Z</time>
      </trkpt>
      <trkpt lat="44.51467" lon="4.20557">
        <ele>220</ele>
        <time>2022-02-08T06:19:17Z</time>
      </trkpt>
      <trkpt lat="44.51478" lon="4.20564">
        <ele>221</ele>
        <time>2022-02-08T06:19:20Z</time>
      </trkpt>
      <trkpt lat="44.51486" lon="4.20572">
        <ele>221</ele>
        <time>2022-02-08T06:19:21Z</time>
      </trkpt>
      <trkpt lat="44.51493" lon="4.20583">
        <ele>219</ele>
        <time>2022-02-08T06:19:23Z</time>
      </trkpt>
      <trkpt lat="44.51509" lon="4.20623">
        <ele>219</ele>
        <time>2022-02-08T06:19:29Z</time>
      </trkpt>
      <trkpt lat="44.51592" lon="4.20775">
        <ele>224</ele>
        <time>2022-02-08T06:19:53Z</time>
      </trkpt>
      <trkpt lat="44.51594" lon="4.20788">
        <ele>222</ele>
        <time>2022-02-08T06:19:55Z</time>
      </trkpt>
      <trkpt lat="44.51595" lon="4.20798">
        <ele>221</ele>
        <time>2022-02-08T06:19:56Z</time>
      </trkpt>
      <trkpt lat="44.51592" lon="4.2081">
        <ele>216</ele>
        <time>2022-02-08T06:19:58Z</time>
      </trkpt>
      <trkpt lat="44.51537" lon="4.20933">
        <ele>202</ele>
        <time>2022-02-08T06:20:16Z</time>
      </trkpt>
      <trkpt lat="44.51498" lon="4.21089">
        <ele>206</ele>
        <time>2022-02-08T06:20:37Z</time>
      </trkpt>
      <trkpt lat="44.51487" lon="4.21115">
        <ele>207</ele>
        <time>2022-02-08T06:20:41Z</time>
      </trkpt>
      <trkpt lat="44.51481" lon="4.21124">
        <ele>207</ele>
        <time>2022-02-08T06:20:43Z</time>
      </trkpt>
      <trkpt lat="44.51457" lon="4.21144">
        <ele>209</ele>
        <time>2022-02-08T06:20:48Z</time>
      </trkpt>
      <trkpt lat="44.51378" lon="4.21187">
        <ele>212</ele>
        <time>2022-02-08T06:21:03Z</time>
      </trkpt>
      <trkpt lat="44.51341" lon="4.21211">
        <ele>212</ele>
        <time>2022-02-08T06:21:10Z</time>
      </trkpt>
      <trkpt lat="44.51332" lon="4.21219">
        <ele>211</ele>
        <time>2022-02-08T06:21:12Z</time>
      </trkpt>
      <trkpt lat="44.51321" lon="4.21235">
        <ele>206</ele>
        <time>2022-02-08T06:21:15Z</time>
      </trkpt>
      <trkpt lat="44.51295" lon="4.21293">
        <ele>199</ele>
        <time>2022-02-08T06:21:23Z</time>
      </trkpt>
      <trkpt lat="44.51288" lon="4.21303">
        <ele>198</ele>
        <time>2022-02-08T06:21:25Z</time>
      </trkpt>
      <trkpt lat="44.5128" lon="4.21308">
        <ele>198</ele>
        <time>2022-02-08T06:21:27Z</time>
      </trkpt>
      <trkpt lat="44.51271" lon="4.21309">
        <ele>199</ele>
        <time>2022-02-08T06:21:28Z</time>
      </trkpt>
      <trkpt lat="44.51264" lon="4.21305">
        <ele>199</ele>
        <time>2022-02-08T06:21:30Z</time>
      </trkpt>
      <trkpt lat="44.51251" lon="4.21289">
        <ele>201</ele>
        <time>2022-02-08T06:21:33Z</time>
      </trkpt>
      <trkpt lat="44.5122" lon="4.21223">
        <ele>208</ele>
        <time>2022-02-08T06:21:43Z</time>
      </trkpt>
      <trkpt lat="44.51207" lon="4.21202">
        <ele>210</ele>
        <time>2022-02-08T06:21:46Z</time>
      </trkpt>
      <trkpt lat="44.51137" lon="4.21107">
        <ele>218</ele>
        <time>2022-02-08T06:22:04Z</time>
      </trkpt>
      <trkpt lat="44.51128" lon="4.21097">
        <ele>219</ele>
        <time>2022-02-08T06:22:06Z</time>
      </trkpt>
      <trkpt lat="44.51077" lon="4.21073">
        <ele>216</ele>
        <time>2022-02-08T06:22:15Z</time>
      </trkpt>
      <trkpt lat="44.51059" lon="4.21069">
        <ele>219</ele>
        <time>2022-02-08T06:22:19Z</time>
      </trkpt>
      <trkpt lat="44.51008" lon="4.21071">
        <ele>220</ele>
        <time>2022-02-08T06:22:28Z</time>
      </trkpt>
      <trkpt lat="44.50995" lon="4.21076">
        <ele>219</ele>
        <time>2022-02-08T06:22:30Z</time>
      </trkpt>
      <trkpt lat="44.50987" lon="4.21088">
        <ele>218</ele>
        <time>2022-02-08T06:22:32Z</time>
      </trkpt>
      <trkpt lat="44.50981" lon="4.21111">
        <ele>215</ele>
        <time>2022-02-08T06:22:35Z</time>
      </trkpt>
      <trkpt lat="44.50976" lon="4.21125">
        <ele>214</ele>
        <time>2022-02-08T06:22:37Z</time>
      </trkpt>
      <trkpt lat="44.50954" lon="4.21151">
        <ele>216</ele>
        <time>2022-02-08T06:22:42Z</time>
      </trkpt>
      <trkpt lat="44.50925" lon="4.21189">
        <ele>215</ele>
        <time>2022-02-08T06:22:49Z</time>
      </trkpt>
      <trkpt lat="44.50915" lon="4.21214">
        <ele>210</ele>
        <time>2022-02-08T06:22:53Z</time>
      </trkpt>
      <trkpt lat="44.50905" lon="4.2125">
        <ele>202</ele>
        <time>2022-02-08T06:22:58Z</time>
      </trkpt>
      <trkpt lat="44.50896" lon="4.21263">
        <ele>203</ele>
        <time>2022-02-08T06:23:00Z</time>
      </trkpt>
      <trkpt lat="44.50842" lon="4.21327">
        <ele>201</ele>
        <time>2022-02-08T06:23:13Z</time>
      </trkpt>
      <trkpt lat="44.50834" lon="4.2133">
        <ele>202</ele>
        <time>2022-02-08T06:23:14Z</time>
      </trkpt>
      <trkpt lat="44.50822" lon="4.21331">
        <ele>200</ele>
        <time>2022-02-08T06:23:16Z</time>
      </trkpt>
      <trkpt lat="44.5081" lon="4.21328">
        <ele>199</ele>
        <time>2022-02-08T06:23:19Z</time>
      </trkpt>
      <trkpt lat="44.50703" lon="4.21222">
        <ele>204</ele>
        <time>2022-02-08T06:23:42Z</time>
      </trkpt>
      <trkpt lat="44.5066" lon="4.21173">
        <ele>199</ele>
        <time>2022-02-08T06:23:52Z</time>
      </trkpt>
      <trkpt lat="44.50649" lon="4.21161">
        <ele>200</ele>
        <time>2022-02-08T06:23:54Z</time>
      </trkpt>
      <trkpt lat="44.50643" lon="4.21154">
        <ele>201</ele>
        <time>2022-02-08T06:23:56Z</time>
      </trkpt>
      <trkpt lat="44.50615" lon="4.21138">
        <ele>201</ele>
        <time>2022-02-08T06:24:01Z</time>
      </trkpt>
      <trkpt lat="44.50577" lon="4.21109">
        <ele>202</ele>
        <time>2022-02-08T06:24:09Z</time>
      </trkpt>
      <trkpt lat="44.5053" lon="4.21077">
        <ele>200</ele>
        <time>2022-02-08T06:24:18Z</time>
      </trkpt>
      <trkpt lat="44.50505" lon="4.21058">
        <ele>201</ele>
        <time>2022-02-08T06:24:23Z</time>
      </trkpt>
      <trkpt lat="44.50468" lon="4.21023">
        <ele>205</ele>
        <time>2022-02-08T06:24:31Z</time>
      </trkpt>
      <trkpt lat="44.50438" lon="4.21002">
        <ele>202</ele>
        <time>2022-02-08T06:24:37Z</time>
      </trkpt>
      <trkpt lat="44.50383" lon="4.20973">
        <ele>203</ele>
        <time>2022-02-08T06:24:47Z</time>
      </trkpt>
      <trkpt lat="44.50367" lon="4.20967">
        <ele>204</ele>
        <time>2022-02-08T06:24:50Z</time>
      </trkpt>
      <trkpt lat="44.5034" lon="4.20964">
        <ele>202</ele>
        <time>2022-02-08T06:24:55Z</time>
      </trkpt>
      <trkpt lat="44.50291" lon="4.2094">
        <ele>204</ele>
        <time>2022-02-08T06:25:04Z</time>
      </trkpt>
      <trkpt lat="44.50245" lon="4.20933">
        <ele>201</ele>
        <time>2022-02-08T06:25:13Z</time>
      </trkpt>
      <trkpt lat="44.50216" lon="4.20935">
        <ele>202</ele>
        <time>2022-02-08T06:25:18Z</time>
      </trkpt>
      <trkpt lat="44.50183" lon="4.20927">
        <ele>206</ele>
        <time>2022-02-08T06:25:24Z</time>
      </trkpt>
      <trkpt lat="44.5017" lon="4.20926">
        <ele>207</ele>
        <time>2022-02-08T06:25:26Z</time>
      </trkpt>
      <trkpt lat="44.50138" lon="4.20936">
        <ele>205</ele>
        <time>2022-02-08T06:25:32Z</time>
      </trkpt>
      <trkpt lat="44.5012" lon="4.20939">
        <ele>204</ele>
        <time>2022-02-08T06:25:35Z</time>
      </trkpt>
      <trkpt lat="44.50053" lon="4.20938">
        <ele>204</ele>
        <time>2022-02-08T06:25:47Z</time>
      </trkpt>
      <trkpt lat="44.50037" lon="4.20942">
        <ele>202</ele>
        <time>2022-02-08T06:25:50Z</time>
      </trkpt>
      <trkpt lat="44.49996" lon="4.20961">
        <ele>197</ele>
        <time>2022-02-08T06:25:58Z</time>
      </trkpt>
      <trkpt lat="44.49969" lon="4.20981">
        <ele>198</ele>
        <time>2022-02-08T06:26:03Z</time>
      </trkpt>
      <trkpt lat="44.49888" lon="4.21047">
        <ele>201</ele>
        <time>2022-02-08T06:26:20Z</time>
      </trkpt>
      <trkpt lat="44.49832" lon="4.21105">
        <ele>202</ele>
        <time>2022-02-08T06:26:32Z</time>
      </trkpt>
      <trkpt lat="44.49826" lon="4.21116">
        <ele>204</ele>
        <time>2022-02-08T06:26:34Z</time>
      </trkpt>
      <trkpt lat="44.49817" lon="4.21145">
        <ele>204</ele>
        <time>2022-02-08T06:26:38Z</time>
      </trkpt>
      <trkpt lat="44.49817" lon="4.21157">
        <ele>201</ele>
        <time>2022-02-08T06:26:39Z</time>
      </trkpt>
      <trkpt lat="44.49821" lon="4.21189">
        <ele>196</ele>
        <time>2022-02-08T06:26:44Z</time>
      </trkpt>
      <trkpt lat="44.4982" lon="4.2121">
        <ele>196</ele>
        <time>2022-02-08T06:26:46Z</time>
      </trkpt>
      <trkpt lat="44.49815" lon="4.21239">
        <ele>197</ele>
        <time>2022-02-08T06:26:50Z</time>
      </trkpt>
      <trkpt lat="44.49803" lon="4.2129">
        <ele>201</ele>
        <time>2022-02-08T06:26:57Z</time>
      </trkpt>
      <trkpt lat="44.49805" lon="4.21326">
        <ele>197</ele>
        <time>2022-02-08T06:27:01Z</time>
      </trkpt>
      <trkpt lat="44.49793" lon="4.21436">
        <ele>196</ele>
        <time>2022-02-08T06:27:15Z</time>
      </trkpt>
      <trkpt lat="44.4979" lon="4.21456">
        <ele>196</ele>
        <time>2022-02-08T06:27:18Z</time>
      </trkpt>
      <trkpt lat="44.49785" lon="4.21478">
        <ele>197</ele>
        <time>2022-02-08T06:27:21Z</time>
      </trkpt>
      <trkpt lat="44.49727" lon="4.21626">
        <ele>196</ele>
        <time>2022-02-08T06:27:42Z</time>
      </trkpt>
      <trkpt lat="44.49705" lon="4.21693">
        <ele>194</ele>
        <time>2022-02-08T06:27:52Z</time>
      </trkpt>
      <trkpt lat="44.49697" lon="4.21713">
        <ele>194</ele>
        <time>2022-02-08T06:27:55Z</time>
      </trkpt>
      <trkpt lat="44.49683" lon="4.2174">
        <ele>193</ele>
        <time>2022-02-08T06:27:59Z</time>
      </trkpt>
      <trkpt lat="44.49668" lon="4.21754">
        <ele>194</ele>
        <time>2022-02-08T06:28:02Z</time>
      </trkpt>
      <trkpt lat="44.49604" lon="4.21793">
        <ele>196</ele>
        <time>2022-02-08T06:28:15Z</time>
      </trkpt>
      <trkpt lat="44.49596" lon="4.21805">
        <ele>195</ele>
        <time>2022-02-08T06:28:17Z</time>
      </trkpt>
      <trkpt lat="44.49563" lon="4.21874">
        <ele>203</ele>
        <time>2022-02-08T06:28:27Z</time>
      </trkpt>
      <trkpt lat="44.49561" lon="4.21885">
        <ele>205</ele>
        <time>2022-02-08T06:28:29Z</time>
      </trkpt>
      <trkpt lat="44.49562" lon="4.21894">
        <ele>206</ele>
        <time>2022-02-08T06:28:30Z</time>
      </trkpt>
      <trkpt lat="44.49565" lon="4.21901">
        <ele>207</ele>
        <time>2022-02-08T06:28:31Z</time>
      </trkpt>
      <trkpt lat="44.49571" lon="4.21906">
        <ele>207</ele>
        <time>2022-02-08T06:28:32Z</time>
      </trkpt>
      <trkpt lat="44.4958" lon="4.21909">
        <ele>205</ele>
        <time>2022-02-08T06:28:34Z</time>
      </trkpt>
      <trkpt lat="44.49608" lon="4.21908">
        <ele>203</ele>
        <time>2022-02-08T06:28:39Z</time>
      </trkpt>
      <trkpt lat="44.49694" lon="4.21873">
        <ele>191</ele>
        <time>2022-02-08T06:28:55Z</time>
      </trkpt>
      <trkpt lat="44.49703" lon="4.21871">
        <ele>189</ele>
        <time>2022-02-08T06:28:56Z</time>
      </trkpt>
      <trkpt lat="44.49712" lon="4.21873">
        <ele>189</ele>
        <time>2022-02-08T06:28:58Z</time>
      </trkpt>
      <trkpt lat="44.4972" lon="4.21878">
        <ele>189</ele>
        <time>2022-02-08T06:28:59Z</time>
      </trkpt>
      <trkpt lat="44.49725" lon="4.21887">
        <ele>189</ele>
        <time>2022-02-08T06:29:01Z</time>
      </trkpt>
      <trkpt lat="44.49728" lon="4.21898">
        <ele>190</ele>
        <time>2022-02-08T06:29:02Z</time>
      </trkpt>
      <trkpt lat="44.49732" lon="4.2195">
        <ele>193</ele>
        <time>2022-02-08T06:29:09Z</time>
      </trkpt>
      <trkpt lat="44.49731" lon="4.21964">
        <ele>194</ele>
        <time>2022-02-08T06:29:11Z</time>
      </trkpt>
      <trkpt lat="44.49727" lon="4.21979">
        <ele>196</ele>
        <time>2022-02-08T06:29:13Z</time>
      </trkpt>
      <trkpt lat="44.49712" lon="4.22001">
        <ele>202</ele>
        <time>2022-02-08T06:29:17Z</time>
      </trkpt>
      <trkpt lat="44.49697" lon="4.22033">
        <ele>204</ele>
        <time>2022-02-08T06:29:22Z</time>
      </trkpt>
      <trkpt lat="44.49685" lon="4.22051">
        <ele>207</ele>
        <time>2022-02-08T06:29:25Z</time>
      </trkpt>
      <trkpt lat="44.49652" lon="4.22111">
        <ele>209</ele>
        <time>2022-02-08T06:29:34Z</time>
      </trkpt>
      <trkpt lat="44.4962" lon="4.22142">
        <ele>214</ele>
        <time>2022-02-08T06:29:41Z</time>
      </trkpt>
      <trkpt lat="44.49606" lon="4.22166">
        <ele>216</ele>
        <time>2022-02-08T06:29:45Z</time>
      </trkpt>
      <trkpt lat="44.4958" lon="4.22227">
        <ele>218</ele>
        <time>2022-02-08T06:29:54Z</time>
      </trkpt>
      <trkpt lat="44.49554" lon="4.22302">
        <ele>225</ele>
        <time>2022-02-08T06:30:05Z</time>
      </trkpt>
      <trkpt lat="44.49551" lon="4.22318">
        <ele>226</ele>
        <time>2022-02-08T06:30:07Z</time>
      </trkpt>
      <trkpt lat="44.49552" lon="4.22339">
        <ele>224</ele>
        <time>2022-02-08T06:30:10Z</time>
      </trkpt>
      <trkpt lat="44.49556" lon="4.22379">
        <ele>221</ele>
        <time>2022-02-08T06:30:15Z</time>
      </trkpt>
      <trkpt lat="44.49554" lon="4.22397">
        <ele>221</ele>
        <time>2022-02-08T06:30:17Z</time>
      </trkpt>
      <trkpt lat="44.49522" lon="4.22524">
        <ele>228</ele>
        <time>2022-02-08T06:30:34Z</time>
      </trkpt>
      <trkpt lat="44.49519" lon="4.22548">
        <ele>229</ele>
        <time>2022-02-08T06:30:37Z</time>
      </trkpt>
      <trkpt lat="44.49517" lon="4.22609">
        <ele>227</ele>
        <time>2022-02-08T06:30:45Z</time>
      </trkpt>
      <trkpt lat="44.4952" lon="4.22669">
        <ele>225</ele>
        <time>2022-02-08T06:30:53Z</time>
      </trkpt>
      <trkpt lat="44.49544" lon="4.22847">
        <ele>222</ele>
        <time>2022-02-08T06:31:16Z</time>
      </trkpt>
      <trkpt lat="44.49549" lon="4.22876">
        <ele>222</ele>
        <time>2022-02-08T06:31:19Z</time>
      </trkpt>
      <trkpt lat="44.49561" lon="4.22932">
        <ele>220</ele>
        <time>2022-02-08T06:31:27Z</time>
      </trkpt>
      <trkpt lat="44.49569" lon="4.22959">
        <ele>220</ele>
        <time>2022-02-08T06:31:30Z</time>
      </trkpt>
      <trkpt lat="44.49579" lon="4.2298">
        <ele>219</ele>
        <time>2022-02-08T06:31:34Z</time>
      </trkpt>
      <trkpt lat="44.49596" lon="4.23009">
        <ele>218</ele>
        <time>2022-02-08T06:31:38Z</time>
      </trkpt>
      <trkpt lat="44.49641" lon="4.23126">
        <ele>215</ele>
        <time>2022-02-08T06:31:55Z</time>
      </trkpt>
      <trkpt lat="44.49655" lon="4.23173">
        <ele>219</ele>
        <time>2022-02-08T06:32:02Z</time>
      </trkpt>
      <trkpt lat="44.49671" lon="4.23211">
        <ele>221</ele>
        <time>2022-02-08T06:32:07Z</time>
      </trkpt>
      <trkpt lat="44.49698" lon="4.23266">
        <ele>217</ele>
        <time>2022-02-08T06:32:16Z</time>
      </trkpt>
      <trkpt lat="44.49709" lon="4.2331">
        <ele>218</ele>
        <time>2022-02-08T06:32:22Z</time>
      </trkpt>
      <trkpt lat="44.49722" lon="4.23358">
        <ele>219</ele>
        <time>2022-02-08T06:32:28Z</time>
      </trkpt>
      <trkpt lat="44.49755" lon="4.23457">
        <ele>220</ele>
        <time>2022-02-08T06:32:42Z</time>
      </trkpt>
      <trkpt lat="44.49769" lon="4.23505">
        <ele>215</ele>
        <time>2022-02-08T06:32:49Z</time>
      </trkpt>
      <trkpt lat="44.49771" lon="4.23515">
        <ele>213</ele>
        <time>2022-02-08T06:32:50Z</time>
      </trkpt>
      <trkpt lat="44.4977" lon="4.23524">
        <ele>213</ele>
        <time>2022-02-08T06:32:51Z</time>
      </trkpt>
      <trkpt lat="44.49767" lon="4.23532">
        <ele>214</ele>
        <time>2022-02-08T06:32:52Z</time>
      </trkpt>
      <trkpt lat="44.49761" lon="4.23537">
        <ele>216</ele>
        <time>2022-02-08T06:32:54Z</time>
      </trkpt>
      <trkpt lat="44.49753" lon="4.23539">
        <ele>220</ele>
        <time>2022-02-08T06:32:55Z</time>
      </trkpt>
      <trkpt lat="44.49735" lon="4.23534">
        <ele>221</ele>
        <time>2022-02-08T06:32:58Z</time>
      </trkpt>
      <trkpt lat="44.49699" lon="4.2352">
        <ele>225</ele>
        <time>2022-02-08T06:33:05Z</time>
      </trkpt>
      <trkpt lat="44.49646" lon="4.23495">
        <ele>231</ele>
        <time>2022-02-08T06:33:15Z</time>
      </trkpt>
      <trkpt lat="44.49635" lon="4.23493">
        <ele>230</ele>
        <time>2022-02-08T06:33:17Z</time>
      </trkpt>
      <trkpt lat="44.49513" lon="4.23479">
        <ele>224</ele>
        <time>2022-02-08T06:33:39Z</time>
      </trkpt>
      <trkpt lat="44.4949" lon="4.2347">
        <ele>225</ele>
        <time>2022-02-08T06:33:43Z</time>
      </trkpt>
      <trkpt lat="44.49434" lon="4.23436">
        <ele>230</ele>
        <time>2022-02-08T06:33:54Z</time>
      </trkpt>
      <trkpt lat="44.49322" lon="4.23376">
        <ele>230</ele>
        <time>2022-02-08T06:34:15Z</time>
      </trkpt>
      <trkpt lat="44.4931" lon="4.23372">
        <ele>230</ele>
        <time>2022-02-08T06:34:17Z</time>
      </trkpt>
      <trkpt lat="44.49248" lon="4.23371">
        <ele>225</ele>
        <time>2022-02-08T06:34:28Z</time>
      </trkpt>
      <trkpt lat="44.49159" lon="4.2336">
        <ele>219</ele>
        <time>2022-02-08T06:34:44Z</time>
      </trkpt>
      <trkpt lat="44.49093" lon="4.23333">
        <ele>220</ele>
        <time>2022-02-08T06:34:56Z</time>
      </trkpt>
      <trkpt lat="44.49055" lon="4.23322">
        <ele>217</ele>
        <time>2022-02-08T06:35:03Z</time>
      </trkpt>
      <trkpt lat="44.49028" lon="4.23306">
        <ele>215</ele>
        <time>2022-02-08T06:35:09Z</time>
      </trkpt>
      <trkpt lat="44.4898" lon="4.2325">
        <ele>213</ele>
        <time>2022-02-08T06:35:20Z</time>
      </trkpt>
      <trkpt lat="44.48906" lon="4.23146">
        <ele>206</ele>
        <time>2022-02-08T06:35:38Z</time>
      </trkpt>
      <trkpt lat="44.489" lon="4.23122">
        <ele>205</ele>
        <time>2022-02-08T06:35:42Z</time>
      </trkpt>
      <trkpt lat="44.48904" lon="4.23094">
        <ele>207</ele>
        <time>2022-02-08T06:35:45Z</time>
      </trkpt>
      <trkpt lat="44.48911" lon="4.23068">
        <ele>207</ele>
        <time>2022-02-08T06:35:49Z</time>
      </trkpt>
      <trkpt lat="44.48923" lon="4.23046">
        <ele>208</ele>
        <time>2022-02-08T06:35:52Z</time>
      </trkpt>
      <trkpt lat="44.48931" lon="4.23025">
        <ele>209</ele>
        <time>2022-02-08T06:35:55Z</time>
      </trkpt>
      <trkpt lat="44.48931" lon="4.23009">
        <ele>208</ele>
        <time>2022-02-08T06:35:57Z</time>
      </trkpt>
      <trkpt lat="44.48923" lon="4.22996">
        <ele>207</ele>
        <time>2022-02-08T06:35:59Z</time>
      </trkpt>
      <trkpt lat="44.48912" lon="4.22987">
        <ele>206</ele>
        <time>2022-02-08T06:36:02Z</time>
      </trkpt>
      <trkpt lat="44.48893" lon="4.22985">
        <ele>203</ele>
        <time>2022-02-08T06:36:05Z</time>
      </trkpt>
      <trkpt lat="44.48868" lon="4.22976">
        <ele>199</ele>
        <time>2022-02-08T06:36:10Z</time>
      </trkpt>
      <trkpt lat="44.4886" lon="4.22972">
        <ele>198</ele>
        <time>2022-02-08T06:36:11Z</time>
      </trkpt>
      <trkpt lat="44.48852" lon="4.22962">
        <ele>197</ele>
        <time>2022-02-08T06:36:13Z</time>
      </trkpt>
      <trkpt lat="44.4885" lon="4.22945">
        <ele>197</ele>
        <time>2022-02-08T06:36:15Z</time>
      </trkpt>
      <trkpt lat="44.48855" lon="4.229">
        <ele>199</ele>
        <time>2022-02-08T06:36:21Z</time>
      </trkpt>
      <trkpt lat="44.48854" lon="4.22881">
        <ele>199</ele>
        <time>2022-02-08T06:36:23Z</time>
      </trkpt>
      <trkpt lat="44.48852" lon="4.22872">
        <ele>199</ele>
        <time>2022-02-08T06:36:25Z</time>
      </trkpt>
      <trkpt lat="44.48845" lon="4.2284">
        <ele>199</ele>
        <time>2022-02-08T06:36:29Z</time>
      </trkpt>
      <trkpt lat="44.48844" lon="4.22835">
        <ele>199</ele>
        <time>2022-02-08T06:36:30Z</time>
      </trkpt>
      <trkpt lat="44.48834" lon="4.2282">
        <ele>201</ele>
        <time>2022-02-08T06:36:32Z</time>
      </trkpt>
      <trkpt lat="44.4882" lon="4.22814">
        <ele>202</ele>
        <time>2022-02-08T06:36:35Z</time>
      </trkpt>
      <trkpt lat="44.488" lon="4.22814">
        <ele>201</ele>
        <time>2022-02-08T06:36:38Z</time>
      </trkpt>
      <trkpt lat="44.48774" lon="4.22835">
        <ele>198</ele>
        <time>2022-02-08T06:36:44Z</time>
      </trkpt>
      <trkpt lat="44.48761" lon="4.22846">
        <ele>197</ele>
        <time>2022-02-08T06:36:46Z</time>
      </trkpt>
      <trkpt lat="44.48733" lon="4.22862">
        <ele>198</ele>
        <time>2022-02-08T06:36:52Z</time>
      </trkpt>
      <trkpt lat="44.48716" lon="4.22878">
        <ele>198</ele>
        <time>2022-02-08T06:36:55Z</time>
      </trkpt>
      <trkpt lat="44.48575" lon="4.22892">
        <ele>199</ele>
        <time>2022-02-08T06:37:21Z</time>
      </trkpt>
      <trkpt lat="44.48553" lon="4.22893">
        <ele>198</ele>
        <time>2022-02-08T06:37:25Z</time>
      </trkpt>
      <trkpt lat="44.48525" lon="4.22902">
        <ele>196</ele>
        <time>2022-02-08T06:37:30Z</time>
      </trkpt>
      <trkpt lat="44.48497" lon="4.22924">
        <ele>192</ele>
        <time>2022-02-08T06:37:35Z</time>
      </trkpt>
      <trkpt lat="44.48461" lon="4.22948">
        <ele>188</ele>
        <time>2022-02-08T06:37:42Z</time>
      </trkpt>
      <trkpt lat="44.48415" lon="4.22985">
        <ele>184</ele>
        <time>2022-02-08T06:37:52Z</time>
      </trkpt>
      <trkpt lat="44.4824" lon="4.23104">
        <ele>179</ele>
        <time>2022-02-08T06:38:26Z</time>
      </trkpt>
      <trkpt lat="44.48061" lon="4.2323">
        <ele>174</ele>
        <time>2022-02-08T06:39:02Z</time>
      </trkpt>
      <trkpt lat="44.48045" lon="4.23248">
        <ele>173</ele>
        <time>2022-02-08T06:39:06Z</time>
      </trkpt>
      <trkpt lat="44.48042" lon="4.23263">
        <ele>173</ele>
        <time>2022-02-08T06:39:08Z</time>
      </trkpt>
      <trkpt lat="44.48042" lon="4.23287">
        <ele>173</ele>
        <time>2022-02-08T06:39:11Z</time>
      </trkpt>
      <trkpt lat="44.48048" lon="4.23338">
        <ele>173</ele>
        <time>2022-02-08T06:39:17Z</time>
      </trkpt>
      <trkpt lat="44.48049" lon="4.23361">
        <ele>175</ele>
        <time>2022-02-08T06:39:20Z</time>
      </trkpt>
      <trkpt lat="44.4805" lon="4.23367">
        <ele>175</ele>
        <time>2022-02-08T06:39:21Z</time>
      </trkpt>
      <trkpt lat="44.48043" lon="4.23393">
        <ele>178</ele>
        <time>2022-02-08T06:39:25Z</time>
      </trkpt>
      <trkpt lat="44.48038" lon="4.23431">
        <ele>181</ele>
        <time>2022-02-08T06:39:29Z</time>
      </trkpt>
      <trkpt lat="44.48017" lon="4.23484">
        <ele>185</ele>
        <time>2022-02-08T06:39:37Z</time>
      </trkpt>
      <trkpt lat="44.48009" lon="4.23499">
        <ele>186</ele>
        <time>2022-02-08T06:39:40Z</time>
      </trkpt>
      <trkpt lat="44.48002" lon="4.23501">
        <ele>188</ele>
        <time>2022-02-08T06:39:41Z</time>
      </trkpt>
      <trkpt lat="44.48003" lon="4.23458">
        <ele>187</ele>
        <time>2022-02-08T06:39:46Z</time>
      </trkpt>
      <trkpt lat="44.48" lon="4.23434">
        <ele>187</ele>
        <time>2022-02-08T06:39:49Z</time>
      </trkpt>
      <trkpt lat="44.47995" lon="4.23414">
        <ele>187</ele>
        <time>2022-02-08T06:39:52Z</time>
      </trkpt>
      <trkpt lat="44.47989" lon="4.23398">
        <ele>187</ele>
        <time>2022-02-08T06:39:54Z</time>
      </trkpt>
      <trkpt lat="44.47981" lon="4.23388">
        <ele>187</ele>
        <time>2022-02-08T06:39:56Z</time>
      </trkpt>
      <trkpt lat="44.4797" lon="4.23379">
        <ele>188</ele>
        <time>2022-02-08T06:39:59Z</time>
      </trkpt>
      <trkpt lat="44.47956" lon="4.23372">
        <ele>189</ele>
        <time>2022-02-08T06:40:01Z</time>
      </trkpt>
      <trkpt lat="44.47916" lon="4.23361">
        <ele>194</ele>
        <time>2022-02-08T06:40:08Z</time>
      </trkpt>
      <trkpt lat="44.4787" lon="4.23342">
        <ele>196</ele>
        <time>2022-02-08T06:40:17Z</time>
      </trkpt>
      <trkpt lat="44.47859" lon="4.23335">
        <ele>197</ele>
        <time>2022-02-08T06:40:19Z</time>
      </trkpt>
      <trkpt lat="44.47837" lon="4.2331">
        <ele>198</ele>
        <time>2022-02-08T06:40:24Z</time>
      </trkpt>
      <trkpt lat="44.47826" lon="4.23282">
        <ele>199</ele>
        <time>2022-02-08T06:40:28Z</time>
      </trkpt>
      <trkpt lat="44.47822" lon="4.23264">
        <ele>199</ele>
        <time>2022-02-08T06:40:31Z</time>
      </trkpt>
      <trkpt lat="44.47821" lon="4.23249">
        <ele>199</ele>
        <time>2022-02-08T06:40:33Z</time>
      </trkpt>
      <trkpt lat="44.4782" lon="4.23183">
        <ele>202</ele>
        <time>2022-02-08T06:40:41Z</time>
      </trkpt>
      <trkpt lat="44.47818" lon="4.23153">
        <ele>203</ele>
        <time>2022-02-08T06:40:45Z</time>
      </trkpt>
      <trkpt lat="44.47813" lon="4.2312">
        <ele>204</ele>
        <time>2022-02-08T06:40:49Z</time>
      </trkpt>
      <trkpt lat="44.47805" lon="4.23077">
        <ele>206</ele>
        <time>2022-02-08T06:40:55Z</time>
      </trkpt>
      <trkpt lat="44.47736" lon="4.22828">
        <ele>216</ele>
        <time>2022-02-08T06:41:29Z</time>
      </trkpt>
      <trkpt lat="44.47711" lon="4.22761">
        <ele>218</ele>
        <time>2022-02-08T06:41:38Z</time>
      </trkpt>
      <trkpt lat="44.47687" lon="4.22701">
        <ele>220</ele>
        <time>2022-02-08T06:41:47Z</time>
      </trkpt>
      <trkpt lat="44.47652" lon="4.22637">
        <ele>224</ele>
        <time>2022-02-08T06:41:57Z</time>
      </trkpt>
      <trkpt lat="44.47593" lon="4.22503">
        <ele>228</ele>
        <time>2022-02-08T06:42:17Z</time>
      </trkpt>
      <trkpt lat="44.47568" lon="4.22459">
        <ele>229</ele>
        <time>2022-02-08T06:42:24Z</time>
      </trkpt>
      <trkpt lat="44.47532" lon="4.22422">
        <ele>232</ele>
        <time>2022-02-08T06:42:32Z</time>
      </trkpt>
      <trkpt lat="44.47507" lon="4.22406">
        <ele>233</ele>
        <time>2022-02-08T06:42:37Z</time>
      </trkpt>
      <trkpt lat="44.47482" lon="4.22398">
        <ele>234</ele>
        <time>2022-02-08T06:42:42Z</time>
      </trkpt>
      <trkpt lat="44.47412" lon="4.22381">
        <ele>233</ele>
        <time>2022-02-08T06:42:54Z</time>
      </trkpt>
      <trkpt lat="44.47303" lon="4.22359">
        <ele>237</ele>
        <time>2022-02-08T06:43:14Z</time>
      </trkpt>
      <trkpt lat="44.47273" lon="4.22349">
        <ele>237</ele>
        <time>2022-02-08T06:43:19Z</time>
      </trkpt>
      <trkpt lat="44.47254" lon="4.22339">
        <ele>237</ele>
        <time>2022-02-08T06:43:23Z</time>
      </trkpt>
      <trkpt lat="44.47229" lon="4.2232">
        <ele>237</ele>
        <time>2022-02-08T06:43:28Z</time>
      </trkpt>
      <trkpt lat="44.47212" lon="4.22304">
        <ele>238</ele>
        <time>2022-02-08T06:43:32Z</time>
      </trkpt>
      <trkpt lat="44.4719" lon="4.22278">
        <ele>238</ele>
        <time>2022-02-08T06:43:37Z</time>
      </trkpt>
      <trkpt lat="44.4711" lon="4.2217">
        <ele>242</ele>
        <time>2022-02-08T06:43:57Z</time>
      </trkpt>
      <trkpt lat="44.46924" lon="4.21929">
        <ele>255</ele>
        <time>2022-02-08T06:44:42Z</time>
      </trkpt>
      <trkpt lat="44.46883" lon="4.21871">
        <ele>256</ele>
        <time>2022-02-08T06:44:52Z</time>
      </trkpt>
      <trkpt lat="44.46852" lon="4.21842">
        <ele>256</ele>
        <time>2022-02-08T06:44:59Z</time>
      </trkpt>
      <trkpt lat="44.46759" lon="4.21774">
        <ele>255</ele>
        <time>2022-02-08T06:45:17Z</time>
      </trkpt>
      <trkpt lat="44.46389" lon="4.21489">
        <ele>258</ele>
        <time>2022-02-08T06:46:32Z</time>
      </trkpt>
      <trkpt lat="44.46393" lon="4.21474">
        <ele>258</ele>
        <time>2022-02-08T06:46:34Z</time>
      </trkpt>
      <trkpt lat="44.46396" lon="4.21447">
        <ele>257</ele>
        <time>2022-02-08T06:46:38Z</time>
      </trkpt>
      <trkpt lat="44.46404" lon="4.21194">
        <ele>245</ele>
        <time>2022-02-08T06:47:10Z</time>
      </trkpt>
      <trkpt lat="44.46408" lon="4.21108">
        <ele>242</ele>
        <time>2022-02-08T06:47:21Z</time>
      </trkpt>
      <trkpt lat="44.46413" lon="4.21087">
        <ele>241</ele>
        <time>2022-02-08T06:47:24Z</time>
      </trkpt>
      <trkpt lat="44.46423" lon="4.21066">
        <ele>241</ele>
        <time>2022-02-08T06:47:27Z</time>
      </trkpt>
      <trkpt lat="44.46421" lon="4.21064">
        <ele>241</ele>
        <time>2022-02-08T06:47:28Z</time>
      </trkpt>
      <trkpt lat="44.46413" lon="4.21051">
        <ele>241</ele>
        <time>2022-02-08T06:47:30Z</time>
      </trkpt>
      <trkpt lat="44.46375" lon="4.21003">
        <ele>242</ele>
        <time>2022-02-08T06:47:39Z</time>
      </trkpt>
      <trkpt lat="44.46364" lon="4.20977">
        <ele>242</ele>
        <time>2022-02-08T06:47:43Z</time>
      </trkpt>
      <trkpt lat="44.46353" lon="4.20917">
        <ele>241</ele>
        <time>2022-02-08T06:47:50Z</time>
      </trkpt>
      <trkpt lat="44.46356" lon="4.20823">
        <ele>243</ele>
        <time>2022-02-08T06:48:02Z</time>
      </trkpt>
      <trkpt lat="44.46351" lon="4.2076">
        <ele>244</ele>
        <time>2022-02-08T06:48:10Z</time>
      </trkpt>
      <trkpt lat="44.46344" lon="4.20703">
        <ele>244</ele>
        <time>2022-02-08T06:48:18Z</time>
      </trkpt>
      <trkpt lat="44.4634" lon="4.20678">
        <ele>244</ele>
        <time>2022-02-08T06:48:21Z</time>
      </trkpt>
      <trkpt lat="44.46335" lon="4.20656">
        <ele>244</ele>
        <time>2022-02-08T06:48:24Z</time>
      </trkpt>
      <trkpt lat="44.46298" lon="4.20483">
        <ele>254</ele>
        <time>2022-02-08T06:48:47Z</time>
      </trkpt>
      <trkpt lat="44.46303" lon="4.20423">
        <ele>256</ele>
        <time>2022-02-08T06:48:55Z</time>
      </trkpt>
      <trkpt lat="44.46302" lon="4.20367">
        <ele>257</ele>
        <time>2022-02-08T06:49:02Z</time>
      </trkpt>
      <trkpt lat="44.46284" lon="4.20249">
        <ele>261</ele>
        <time>2022-02-08T06:49:17Z</time>
      </trkpt>
      <trkpt lat="44.4627" lon="4.20191">
        <ele>264</ele>
        <time>2022-02-08T06:49:25Z</time>
      </trkpt>
      <trkpt lat="44.46266" lon="4.20159">
        <ele>266</ele>
        <time>2022-02-08T06:49:29Z</time>
      </trkpt>
      <trkpt lat="44.46268" lon="4.2012">
        <ele>267</ele>
        <time>2022-02-08T06:49:34Z</time>
      </trkpt>
      <trkpt lat="44.46287" lon="4.19962">
        <ele>272</ele>
        <time>2022-02-08T06:49:54Z</time>
      </trkpt>
      <trkpt lat="44.46287" lon="4.19946">
        <ele>272</ele>
        <time>2022-02-08T06:49:56Z</time>
      </trkpt>
      <trkpt lat="44.46281" lon="4.19925">
        <ele>272</ele>
        <time>2022-02-08T06:49:59Z</time>
      </trkpt>
      <trkpt lat="44.46259" lon="4.19879">
        <ele>274</ele>
        <time>2022-02-08T06:50:06Z</time>
      </trkpt>
      <trkpt lat="44.46209" lon="4.19795">
        <ele>273</ele>
        <time>2022-02-08T06:50:20Z</time>
      </trkpt>
      <trkpt lat="44.46174" lon="4.1975">
        <ele>272</ele>
        <time>2022-02-08T06:50:29Z</time>
      </trkpt>
      <trkpt lat="44.46135" lon="4.1972">
        <ele>273</ele>
        <time>2022-02-08T06:50:36Z</time>
      </trkpt>
      <trkpt lat="44.46109" lon="4.19681">
        <ele>275</ele>
        <time>2022-02-08T06:50:43Z</time>
      </trkpt>
      <trkpt lat="44.46057" lon="4.19534">
        <ele>282</ele>
        <time>2022-02-08T06:51:04Z</time>
      </trkpt>
      <trkpt lat="44.46034" lon="4.19478">
        <ele>283</ele>
        <time>2022-02-08T06:51:12Z</time>
      </trkpt>
      <trkpt lat="44.46006" lon="4.19399">
        <ele>281</ele>
        <time>2022-02-08T06:51:23Z</time>
      </trkpt>
      <trkpt lat="44.45977" lon="4.19328">
        <ele>277</ele>
        <time>2022-02-08T06:51:34Z</time>
      </trkpt>
      <trkpt lat="44.45947" lon="4.19277">
        <ele>272</ele>
        <time>2022-02-08T06:51:42Z</time>
      </trkpt>
      <trkpt lat="44.45944" lon="4.19258">
        <ele>271</ele>
        <time>2022-02-08T06:51:45Z</time>
      </trkpt>
      <trkpt lat="44.45944" lon="4.19235">
        <ele>270</ele>
        <time>2022-02-08T06:51:48Z</time>
      </trkpt>
      <trkpt lat="44.45953" lon="4.1916">
        <ele>269</ele>
        <time>2022-02-08T06:51:57Z</time>
      </trkpt>
      <trkpt lat="44.45996" lon="4.18977">
        <ele>268</ele>
        <time>2022-02-08T06:52:22Z</time>
      </trkpt>
      <trkpt lat="44.46012" lon="4.18929">
        <ele>265</ele>
        <time>2022-02-08T06:52:29Z</time>
      </trkpt>
      <trkpt lat="44.46035" lon="4.18893">
        <ele>265</ele>
        <time>2022-02-08T06:52:35Z</time>
      </trkpt>
      <trkpt lat="44.46046" lon="4.18872">
        <ele>265</ele>
        <time>2022-02-08T06:52:38Z</time>
      </trkpt>
      <trkpt lat="44.46057" lon="4.18841">
        <ele>265</ele>
        <time>2022-02-08T06:52:42Z</time>
      </trkpt>
      <trkpt lat="44.46058" lon="4.18795">
        <ele>267</ele>
        <time>2022-02-08T06:52:48Z</time>
      </trkpt>
      <trkpt lat="44.46056" lon="4.18769">
        <ele>267</ele>
        <time>2022-02-08T06:52:52Z</time>
      </trkpt>
      <trkpt lat="44.46065" lon="4.18729">
        <ele>270</ele>
        <time>2022-02-08T06:52:57Z</time>
      </trkpt>
      <trkpt lat="44.46078" lon="4.18683">
        <ele>270</ele>
        <time>2022-02-08T06:53:03Z</time>
      </trkpt>
      <trkpt lat="44.46085" lon="4.18649">
        <ele>271</ele>
        <time>2022-02-08T06:53:08Z</time>
      </trkpt>
      <trkpt lat="44.46084" lon="4.18606">
        <ele>272</ele>
        <time>2022-02-08T06:53:13Z</time>
      </trkpt>
      <trkpt lat="44.46073" lon="4.18566">
        <ele>273</ele>
        <time>2022-02-08T06:53:19Z</time>
      </trkpt>
      <trkpt lat="44.46054" lon="4.18518">
        <ele>275</ele>
        <time>2022-02-08T06:53:26Z</time>
      </trkpt>
      <trkpt lat="44.45891" lon="4.18243">
        <ele>264</ele>
        <time>2022-02-08T06:54:11Z</time>
      </trkpt>
      <trkpt lat="44.45857" lon="4.18193">
        <ele>259</ele>
        <time>2022-02-08T06:54:20Z</time>
      </trkpt>
      <trkpt lat="44.45821" lon="4.18136">
        <ele>266</ele>
        <time>2022-02-08T06:54:29Z</time>
      </trkpt>
      <trkpt lat="44.45816" lon="4.18113">
        <ele>270</ele>
        <time>2022-02-08T06:54:32Z</time>
      </trkpt>
      <trkpt lat="44.45817" lon="4.18103">
        <ele>271</ele>
        <time>2022-02-08T06:54:34Z</time>
      </trkpt>
      <trkpt lat="44.45878" lon="4.1788">
        <ele>276</ele>
        <time>2022-02-08T06:55:04Z</time>
      </trkpt>
      <trkpt lat="44.45916" lon="4.17734">
        <ele>279</ele>
        <time>2022-02-08T06:55:24Z</time>
      </trkpt>
      <trkpt lat="44.45919" lon="4.17715">
        <ele>278</ele>
        <time>2022-02-08T06:55:26Z</time>
      </trkpt>
      <trkpt lat="44.45917" lon="4.1768">
        <ele>278</ele>
        <time>2022-02-08T06:55:31Z</time>
      </trkpt>
      <trkpt lat="44.45913" lon="4.17664">
        <ele>278</ele>
        <time>2022-02-08T06:55:33Z</time>
      </trkpt>
      <trkpt lat="44.45906" lon="4.1765">
        <ele>278</ele>
        <time>2022-02-08T06:55:35Z</time>
      </trkpt>
      <trkpt lat="44.45895" lon="4.17638">
        <ele>279</ele>
        <time>2022-02-08T06:55:37Z</time>
      </trkpt>
      <trkpt lat="44.45742" lon="4.17546">
        <ele>285</ele>
        <time>2022-02-08T06:56:07Z</time>
      </trkpt>
      <trkpt lat="44.45734" lon="4.17543">
        <ele>286</ele>
        <time>2022-02-08T06:56:09Z</time>
      </trkpt>
      <trkpt lat="44.45722" lon="4.17542">
        <ele>287</ele>
        <time>2022-02-08T06:56:11Z</time>
      </trkpt>
      <trkpt lat="44.4571" lon="4.17546">
        <ele>289</ele>
        <time>2022-02-08T06:56:13Z</time>
      </trkpt>
      <trkpt lat="44.45686" lon="4.17559">
        <ele>294</ele>
        <time>2022-02-08T06:56:17Z</time>
      </trkpt>
      <trkpt lat="44.45675" lon="4.17561">
        <ele>295</ele>
        <time>2022-02-08T06:56:19Z</time>
      </trkpt>
      <trkpt lat="44.45666" lon="4.1756">
        <ele>296</ele>
        <time>2022-02-08T06:56:21Z</time>
      </trkpt>
      <trkpt lat="44.45661" lon="4.17557">
        <ele>296</ele>
        <time>2022-02-08T06:56:22Z</time>
      </trkpt>
      <trkpt lat="44.45655" lon="4.17551">
        <ele>296</ele>
        <time>2022-02-08T06:56:23Z</time>
      </trkpt>
      <trkpt lat="44.45649" lon="4.17541">
        <ele>296</ele>
        <time>2022-02-08T06:56:25Z</time>
      </trkpt>
      <trkpt lat="44.45647" lon="4.1753">
        <ele>295</ele>
        <time>2022-02-08T06:56:26Z</time>
      </trkpt>
      <trkpt lat="44.45646" lon="4.17497">
        <ele>292</ele>
        <time>2022-02-08T06:56:31Z</time>
      </trkpt>
      <trkpt lat="44.45598" lon="4.17334">
        <ele>299</ele>
        <time>2022-02-08T06:56:53Z</time>
      </trkpt>
      <trkpt lat="44.45564" lon="4.17212">
        <ele>299</ele>
        <time>2022-02-08T06:57:10Z</time>
      </trkpt>
      <trkpt lat="44.4556" lon="4.17204">
        <ele>299</ele>
        <time>2022-02-08T06:57:11Z</time>
      </trkpt>
      <trkpt lat="44.45508" lon="4.17142">
        <ele>301</ele>
        <time>2022-02-08T06:57:23Z</time>
      </trkpt>
      <trkpt lat="44.45424" lon="4.17059">
        <ele>303</ele>
        <time>2022-02-08T06:57:41Z</time>
      </trkpt>
      <trkpt lat="44.45401" lon="4.17043">
        <ele>304</ele>
        <time>2022-02-08T06:57:46Z</time>
      </trkpt>
      <trkpt lat="44.45383" lon="4.17027">
        <ele>304</ele>
        <time>2022-02-08T06:57:50Z</time>
      </trkpt>
      <trkpt lat="44.4529" lon="4.16907">
        <ele>305</ele>
        <time>2022-02-08T06:58:12Z</time>
      </trkpt>
      <trkpt lat="44.45283" lon="4.16889">
        <ele>305</ele>
        <time>2022-02-08T06:58:15Z</time>
      </trkpt>
      <trkpt lat="44.45279" lon="4.16871">
        <ele>305</ele>
        <time>2022-02-08T06:58:17Z</time>
      </trkpt>
      <trkpt lat="44.4527" lon="4.1678">
        <ele>308</ele>
        <time>2022-02-08T06:58:29Z</time>
      </trkpt>
      <trkpt lat="44.45218" lon="4.16537">
        <ele>322</ele>
        <time>2022-02-08T06:59:01Z</time>
      </trkpt>
      <trkpt lat="44.45216" lon="4.16519">
        <ele>324</ele>
        <time>2022-02-08T06:59:03Z</time>
      </trkpt>
      <trkpt lat="44.45216" lon="4.16511">
        <ele>325</ele>
        <time>2022-02-08T06:59:04Z</time>
      </trkpt>
      <trkpt lat="44.45219" lon="4.16503">
        <ele>326</ele>
        <time>2022-02-08T06:59:06Z</time>
      </trkpt>
      <trkpt lat="44.45226" lon="4.16492">
        <ele>326</ele>
        <time>2022-02-08T06:59:07Z</time>
      </trkpt>
      <trkpt lat="44.45256" lon="4.16463">
        <ele>327</ele>
        <time>2022-02-08T06:59:14Z</time>
      </trkpt>
      <trkpt lat="44.45271" lon="4.16436">
        <ele>326</ele>
        <time>2022-02-08T06:59:18Z</time>
      </trkpt>
      <trkpt lat="44.4529" lon="4.16392">
        <ele>326</ele>
        <time>2022-02-08T06:59:25Z</time>
      </trkpt>
      <trkpt lat="44.45311" lon="4.16357">
        <ele>326</ele>
        <time>2022-02-08T06:59:31Z</time>
      </trkpt>
      <trkpt lat="44.45338" lon="4.1632">
        <ele>326</ele>
        <time>2022-02-08T06:59:37Z</time>
      </trkpt>
      <trkpt lat="44.4534" lon="4.16311">
        <ele>326</ele>
        <time>2022-02-08T06:59:39Z</time>
      </trkpt>
      <trkpt lat="44.45339" lon="4.1629">
        <ele>328</ele>
        <time>2022-02-08T06:59:41Z</time>
      </trkpt>
      <trkpt lat="44.45336" lon="4.1628">
        <ele>329</ele>
        <time>2022-02-08T06:59:43Z</time>
      </trkpt>
      <trkpt lat="44.45289" lon="4.16194">
        <ele>333</ele>
        <time>2022-02-08T06:59:56Z</time>
      </trkpt>
      <trkpt lat="44.45268" lon="4.16159">
        <ele>334</ele>
        <time>2022-02-08T07:00:02Z</time>
      </trkpt>
      <trkpt lat="44.45231" lon="4.16127">
        <ele>337</ele>
        <time>2022-02-08T07:00:10Z</time>
      </trkpt>
      <trkpt lat="44.45201" lon="4.16078">
        <ele>339</ele>
        <time>2022-02-08T07:00:18Z</time>
      </trkpt>
      <trkpt lat="44.4518" lon="4.16029">
        <ele>343</ele>
        <time>2022-02-08T07:00:25Z</time>
      </trkpt>
      <trkpt lat="44.45164" lon="4.15949">
        <ele>345</ele>
        <time>2022-02-08T07:00:36Z</time>
      </trkpt>
      <trkpt lat="44.45159" lon="4.15915">
        <ele>345</ele>
        <time>2022-02-08T07:00:40Z</time>
      </trkpt>
      <trkpt lat="44.45153" lon="4.15893">
        <ele>346</ele>
        <time>2022-02-08T07:00:43Z</time>
      </trkpt>
      <trkpt lat="44.45147" lon="4.15876">
        <ele>346</ele>
        <time>2022-02-08T07:00:46Z</time>
      </trkpt>
      <trkpt lat="44.45138" lon="4.15857">
        <ele>347</ele>
        <time>2022-02-08T07:00:49Z</time>
      </trkpt>
      <trkpt lat="44.45087" lon="4.1578">
        <ele>349</ele>
        <time>2022-02-08T07:01:02Z</time>
      </trkpt>
      <trkpt lat="44.45077" lon="4.1576">
        <ele>350</ele>
        <time>2022-02-08T07:01:05Z</time>
      </trkpt>
      <trkpt lat="44.45073" lon="4.15746">
        <ele>350</ele>
        <time>2022-02-08T07:01:07Z</time>
      </trkpt>
      <trkpt lat="44.4507" lon="4.15715">
        <ele>350</ele>
        <time>2022-02-08T07:01:11Z</time>
      </trkpt>
      <trkpt lat="44.45075" lon="4.15662">
        <ele>350</ele>
        <time>2022-02-08T07:01:18Z</time>
      </trkpt>
      <trkpt lat="44.45075" lon="4.15638">
        <ele>351</ele>
        <time>2022-02-08T07:01:21Z</time>
      </trkpt>
      <trkpt lat="44.45065" lon="4.15547">
        <ele>354</ele>
        <time>2022-02-08T07:01:32Z</time>
      </trkpt>
      <trkpt lat="44.45065" lon="4.15527">
        <ele>355</ele>
        <time>2022-02-08T07:01:35Z</time>
      </trkpt>
      <trkpt lat="44.4508" lon="4.15368">
        <ele>365</ele>
        <time>2022-02-08T07:01:55Z</time>
      </trkpt>
      <trkpt lat="44.45086" lon="4.15294">
        <ele>371</ele>
        <time>2022-02-08T07:02:05Z</time>
      </trkpt>
      <trkpt lat="44.45092" lon="4.15178">
        <ele>377</ele>
        <time>2022-02-08T07:02:20Z</time>
      </trkpt>
      <trkpt lat="44.45095" lon="4.15165">
        <ele>377</ele>
        <time>2022-02-08T07:02:21Z</time>
      </trkpt>
      <trkpt lat="44.45101" lon="4.15152">
        <ele>378</ele>
        <time>2022-02-08T07:02:23Z</time>
      </trkpt>
      <trkpt lat="44.45136" lon="4.15088">
        <ele>381</ele>
        <time>2022-02-08T07:02:34Z</time>
      </trkpt>
      <trkpt lat="44.45171" lon="4.15014">
        <ele>385</ele>
        <time>2022-02-08T07:02:45Z</time>
      </trkpt>
      <trkpt lat="44.45184" lon="4.14982">
        <ele>386</ele>
        <time>2022-02-08T07:02:49Z</time>
      </trkpt>
      <trkpt lat="44.45193" lon="4.14949">
        <ele>387</ele>
        <time>2022-02-08T07:02:54Z</time>
      </trkpt>
      <trkpt lat="44.45197" lon="4.14918">
        <ele>389</ele>
        <time>2022-02-08T07:02:58Z</time>
      </trkpt>
      <trkpt lat="44.45194" lon="4.14857">
        <ele>391</ele>
        <time>2022-02-08T07:03:06Z</time>
      </trkpt>
      <trkpt lat="44.45199" lon="4.14735">
        <ele>396</ele>
        <time>2022-02-08T07:03:21Z</time>
      </trkpt>
      <trkpt lat="44.45195" lon="4.14685">
        <ele>399</ele>
        <time>2022-02-08T07:03:28Z</time>
      </trkpt>
      <trkpt lat="44.45179" lon="4.14637">
        <ele>401</ele>
        <time>2022-02-08T07:03:34Z</time>
      </trkpt>
      <trkpt lat="44.4514" lon="4.14587">
        <ele>401</ele>
        <time>2022-02-08T07:03:44Z</time>
      </trkpt>
      <trkpt lat="44.45103" lon="4.14548">
        <ele>400</ele>
        <time>2022-02-08T07:03:52Z</time>
      </trkpt>
      <trkpt lat="44.45083" lon="4.14531">
        <ele>400</ele>
        <time>2022-02-08T07:03:56Z</time>
      </trkpt>
      <trkpt lat="44.45026" lon="4.14518">
        <ele>396</ele>
        <time>2022-02-08T07:04:06Z</time>
      </trkpt>
      <trkpt lat="44.45016" lon="4.14512">
        <ele>396</ele>
        <time>2022-02-08T07:04:08Z</time>
      </trkpt>
      <trkpt lat="44.44999" lon="4.14492">
        <ele>396</ele>
        <time>2022-02-08T07:04:12Z</time>
      </trkpt>
      <trkpt lat="44.44933" lon="4.14381">
        <ele>392</ele>
        <time>2022-02-08T07:04:31Z</time>
      </trkpt>
      <trkpt lat="44.44922" lon="4.14359">
        <ele>392</ele>
        <time>2022-02-08T07:04:34Z</time>
      </trkpt>
      <trkpt lat="44.44835" lon="4.14222">
        <ele>390</ele>
        <time>2022-02-08T07:04:57Z</time>
      </trkpt>
      <trkpt lat="44.44798" lon="4.14153">
        <ele>391</ele>
        <time>2022-02-08T07:05:08Z</time>
      </trkpt>
      <trkpt lat="44.44763" lon="4.14033">
        <ele>391</ele>
        <time>2022-02-08T07:05:25Z</time>
      </trkpt>
      <trkpt lat="44.44753" lon="4.1401">
        <ele>390</ele>
        <time>2022-02-08T07:05:28Z</time>
      </trkpt>
      <trkpt lat="44.44722" lon="4.13957">
        <ele>389</ele>
        <time>2022-02-08T07:05:37Z</time>
      </trkpt>
      <trkpt lat="44.44681" lon="4.13935">
        <ele>391</ele>
        <time>2022-02-08T07:05:45Z</time>
      </trkpt>
      <trkpt lat="44.44667" lon="4.13911">
        <ele>392</ele>
        <time>2022-02-08T07:05:49Z</time>
      </trkpt>
      <trkpt lat="44.44653" lon="4.13719">
        <ele>379</ele>
        <time>2022-02-08T07:06:13Z</time>
      </trkpt>
      <trkpt lat="44.44602" lon="4.13633">
        <ele>372</ele>
        <time>2022-02-08T07:06:27Z</time>
      </trkpt>
      <trkpt lat="44.44571" lon="4.13613">
        <ele>371</ele>
        <time>2022-02-08T07:06:34Z</time>
      </trkpt>
      <trkpt lat="44.44542" lon="4.13612">
        <ele>369</ele>
        <time>2022-02-08T07:06:39Z</time>
      </trkpt>
      <trkpt lat="44.44451" lon="4.13644">
        <ele>366</ele>
        <time>2022-02-08T07:06:55Z</time>
      </trkpt>
      <trkpt lat="44.44426" lon="4.13657">
        <ele>365</ele>
        <time>2022-02-08T07:07:00Z</time>
      </trkpt>
      <trkpt lat="44.44361" lon="4.13723">
        <ele>362</ele>
        <time>2022-02-08T07:07:14Z</time>
      </trkpt>
      <trkpt lat="44.44337" lon="4.1373">
        <ele>360</ele>
        <time>2022-02-08T07:07:19Z</time>
      </trkpt>
      <trkpt lat="44.4428" lon="4.13709">
        <ele>352</ele>
        <time>2022-02-08T07:07:29Z</time>
      </trkpt>
      <trkpt lat="44.44264" lon="4.13717">
        <ele>350</ele>
        <time>2022-02-08T07:07:32Z</time>
      </trkpt>
      <trkpt lat="44.44254" lon="4.13739">
        <ele>349</ele>
        <time>2022-02-08T07:07:36Z</time>
      </trkpt>
      <trkpt lat="44.44257" lon="4.13772">
        <ele>350</ele>
        <time>2022-02-08T07:07:40Z</time>
      </trkpt>
      <trkpt lat="44.44288" lon="4.13878">
        <ele>354</ele>
        <time>2022-02-08T07:07:54Z</time>
      </trkpt>
      <trkpt lat="44.44285" lon="4.13906">
        <ele>354</ele>
        <time>2022-02-08T07:07:58Z</time>
      </trkpt>
      <trkpt lat="44.44269" lon="4.13921">
        <ele>352</ele>
        <time>2022-02-08T07:08:01Z</time>
      </trkpt>
      <trkpt lat="44.4426" lon="4.1392">
        <ele>351</ele>
        <time>2022-02-08T07:08:03Z</time>
      </trkpt>
      <trkpt lat="44.44237" lon="4.13904">
        <ele>349</ele>
        <time>2022-02-08T07:08:08Z</time>
      </trkpt>
      <trkpt lat="44.44205" lon="4.13903">
        <ele>349</ele>
        <time>2022-02-08T07:08:13Z</time>
      </trkpt>
      <trkpt lat="44.44184" lon="4.13899">
        <ele>348</ele>
        <time>2022-02-08T07:08:17Z</time>
      </trkpt>
      <trkpt lat="44.44134" lon="4.13875">
        <ele>343</ele>
        <time>2022-02-08T07:08:26Z</time>
      </trkpt>
      <trkpt lat="44.44051" lon="4.13848">
        <ele>337</ele>
        <time>2022-02-08T07:08:42Z</time>
      </trkpt>
      <trkpt lat="44.43915" lon="4.13835">
        <ele>328</ele>
        <time>2022-02-08T07:09:06Z</time>
      </trkpt>
      <trkpt lat="44.4387" lon="4.13838">
        <ele>326</ele>
        <time>2022-02-08T07:09:14Z</time>
      </trkpt>
      <trkpt lat="44.43834" lon="4.13847">
        <ele>324</ele>
        <time>2022-02-08T07:09:20Z</time>
      </trkpt>
      <trkpt lat="44.437" lon="4.13897">
        <ele>318</ele>
        <time>2022-02-08T07:09:45Z</time>
      </trkpt>
      <trkpt lat="44.4367" lon="4.13903">
        <ele>317</ele>
        <time>2022-02-08T07:09:50Z</time>
      </trkpt>
      <trkpt lat="44.43643" lon="4.13904">
        <ele>316</ele>
        <time>2022-02-08T07:09:55Z</time>
      </trkpt>
      <trkpt lat="44.43534" lon="4.13895">
        <ele>309</ele>
        <time>2022-02-08T07:10:15Z</time>
      </trkpt>
      <trkpt lat="44.43409" lon="4.13856">
        <ele>301</ele>
        <time>2022-02-08T07:10:37Z</time>
      </trkpt>
      <trkpt lat="44.43384" lon="4.13843">
        <ele>300</ele>
        <time>2022-02-08T07:10:42Z</time>
      </trkpt>
      <trkpt lat="44.43144" lon="4.13672">
        <ele>280</ele>
        <time>2022-02-08T07:11:30Z</time>
      </trkpt>
      <trkpt lat="44.43126" lon="4.13665">
        <ele>279</ele>
        <time>2022-02-08T07:11:33Z</time>
      </trkpt>
      <trkpt lat="44.43079" lon="4.13655">
        <ele>274</ele>
        <time>2022-02-08T07:11:42Z</time>
      </trkpt>
      <trkpt lat="44.43071" lon="4.13648">
        <ele>272</ele>
        <time>2022-02-08T07:11:44Z</time>
      </trkpt>
      <trkpt lat="44.4307" lon="4.13637">
        <ele>269</ele>
        <time>2022-02-08T07:11:45Z</time>
      </trkpt>
      <trkpt lat="44.43076" lon="4.13627">
        <ele>267</ele>
        <time>2022-02-08T07:11:47Z</time>
      </trkpt>
      <trkpt lat="44.43096" lon="4.1361">
        <ele>265</ele>
        <time>2022-02-08T07:11:51Z</time>
      </trkpt>
      <trkpt lat="44.43117" lon="4.13598">
        <ele>263</ele>
        <time>2022-02-08T07:11:55Z</time>
      </trkpt>
      <trkpt lat="44.43148" lon="4.13585">
        <ele>262</ele>
        <time>2022-02-08T07:12:01Z</time>
      </trkpt>
      <trkpt lat="44.43182" lon="4.13572">
        <ele>262</ele>
        <time>2022-02-08T07:12:07Z</time>
      </trkpt>
      <trkpt lat="44.43204" lon="4.13569">
        <ele>264</ele>
        <time>2022-02-08T07:12:11Z</time>
      </trkpt>
      <trkpt lat="44.43205" lon="4.13563">
        <ele>263</ele>
        <time>2022-02-08T07:12:12Z</time>
      </trkpt>
      <trkpt lat="44.43212" lon="4.13562">
        <ele>263</ele>
        <time>2022-02-08T07:12:13Z</time>
      </trkpt>
      <trkpt lat="44.43218" lon="4.13551">
        <ele>263</ele>
        <time>2022-02-08T07:12:15Z</time>
      </trkpt>
      <trkpt lat="44.43219" lon="4.13539">
        <ele>261</ele>
        <time>2022-02-08T07:12:16Z</time>
      </trkpt>
      <trkpt lat="44.43217" lon="4.13516">
        <ele>257</ele>
        <time>2022-02-08T07:12:19Z</time>
      </trkpt>
      <trkpt lat="44.43218" lon="4.13507">
        <ele>256</ele>
        <time>2022-02-08T07:12:20Z</time>
      </trkpt>
      <trkpt lat="44.43222" lon="4.13491">
        <ele>254</ele>
        <time>2022-02-08T07:12:22Z</time>
      </trkpt>
      <trkpt lat="44.43229" lon="4.13476">
        <ele>252</ele>
        <time>2022-02-08T07:12:25Z</time>
      </trkpt>
      <trkpt lat="44.43259" lon="4.13438">
        <ele>250</ele>
        <time>2022-02-08T07:12:32Z</time>
      </trkpt>
      <trkpt lat="44.43292" lon="4.13404">
        <ele>251</ele>
        <time>2022-02-08T07:12:39Z</time>
      </trkpt>
      <trkpt lat="44.43349" lon="4.1333">
        <ele>247</ele>
        <time>2022-02-08T07:12:53Z</time>
      </trkpt>
      <trkpt lat="44.43376" lon="4.13219">
        <ele>236</ele>
        <time>2022-02-08T07:13:08Z</time>
      </trkpt>
      <trkpt lat="44.43373" lon="4.13166">
        <ele>228</ele>
        <time>2022-02-08T07:13:15Z</time>
      </trkpt>
      <trkpt lat="44.43378" lon="4.1315">
        <ele>230</ele>
        <time>2022-02-08T07:13:17Z</time>
      </trkpt>
      <trkpt lat="44.43363" lon="4.13009">
        <ele>214</ele>
        <time>2022-02-08T07:13:35Z</time>
      </trkpt>
      <trkpt lat="44.43362" lon="4.12984">
        <ele>212</ele>
        <time>2022-02-08T07:13:38Z</time>
      </trkpt>
      <trkpt lat="44.43365" lon="4.12944">
        <ele>209</ele>
        <time>2022-02-08T07:13:43Z</time>
      </trkpt>
      <trkpt lat="44.43375" lon="4.12872">
        <ele>200</ele>
        <time>2022-02-08T07:13:53Z</time>
      </trkpt>
      <trkpt lat="44.43374" lon="4.12861">
        <ele>198</ele>
        <time>2022-02-08T07:13:54Z</time>
      </trkpt>
      <trkpt lat="44.43368" lon="4.1286">
        <ele>196</ele>
        <time>2022-02-08T07:13:55Z</time>
      </trkpt>
      <trkpt lat="44.43357" lon="4.12884">
        <ele>197</ele>
        <time>2022-02-08T07:13:59Z</time>
      </trkpt>
      <trkpt lat="44.43315" lon="4.13022">
        <ele>194</ele>
        <time>2022-02-08T07:14:18Z</time>
      </trkpt>
      <trkpt lat="44.43303" lon="4.13055">
        <ele>190</ele>
        <time>2022-02-08T07:14:22Z</time>
      </trkpt>
      <trkpt lat="44.43284" lon="4.131">
        <ele>186</ele>
        <time>2022-02-08T07:14:29Z</time>
      </trkpt>
      <trkpt lat="44.43269" lon="4.13153">
        <ele>185</ele>
        <time>2022-02-08T07:14:36Z</time>
      </trkpt>
      <trkpt lat="44.43247" lon="4.1318">
        <ele>181</ele>
        <time>2022-02-08T07:14:42Z</time>
      </trkpt>
      <trkpt lat="44.43097" lon="4.13242">
        <ele>155</ele>
        <time>2022-02-08T07:15:09Z</time>
      </trkpt>
      <trkpt lat="44.43065" lon="4.13254">
        <ele>152</ele>
        <time>2022-02-08T07:15:15Z</time>
      </trkpt>
      <trkpt lat="44.43052" lon="4.13255">
        <ele>151</ele>
        <time>2022-02-08T07:15:18Z</time>
      </trkpt>
      <trkpt lat="44.43046" lon="4.13246">
        <ele>150</ele>
        <time>2022-02-08T07:15:19Z</time>
      </trkpt>
      <trkpt lat="44.43034" lon="4.13194">
        <ele>158</ele>
        <time>2022-02-08T07:15:26Z</time>
      </trkpt>
      <trkpt lat="44.43031" lon="4.13185">
        <ele>160</ele>
        <time>2022-02-08T07:15:27Z</time>
      </trkpt>
      <trkpt lat="44.42832" lon="4.13253">
        <ele>156</ele>
        <time>2022-02-08T07:16:04Z</time>
      </trkpt>
      <trkpt lat="44.42618" lon="4.13344">
        <ele>158</ele>
        <time>2022-02-08T07:16:44Z</time>
      </trkpt>
      <trkpt lat="44.42584" lon="4.13362">
        <ele>158</ele>
        <time>2022-02-08T07:16:50Z</time>
      </trkpt>
      <trkpt lat="44.42505" lon="4.13391">
        <ele>156</ele>
        <time>2022-02-08T07:17:05Z</time>
      </trkpt>
      <trkpt lat="44.4246" lon="4.13397">
        <ele>153</ele>
        <time>2022-02-08T07:17:13Z</time>
      </trkpt>
      <trkpt lat="44.42443" lon="4.13398">
        <ele>151</ele>
        <time>2022-02-08T07:17:16Z</time>
      </trkpt>
      <trkpt lat="44.42421" lon="4.13391">
        <ele>152</ele>
        <time>2022-02-08T07:17:20Z</time>
      </trkpt>
      <trkpt lat="44.42392" lon="4.13378">
        <ele>153</ele>
        <time>2022-02-08T07:17:25Z</time>
      </trkpt>
      <trkpt lat="44.42379" lon="4.13369">
        <ele>153</ele>
        <time>2022-02-08T07:17:28Z</time>
      </trkpt>
      <trkpt lat="44.42373" lon="4.1336">
        <ele>154</ele>
        <time>2022-02-08T07:17:29Z</time>
      </trkpt>
      <trkpt lat="44.42326" lon="4.13329">
        <ele>153</ele>
        <time>2022-02-08T07:17:38Z</time>
      </trkpt>
      <trkpt lat="44.42305" lon="4.13305">
        <ele>156</ele>
        <time>2022-02-08T07:17:43Z</time>
      </trkpt>
      <trkpt lat="44.42252" lon="4.13229">
        <ele>159</ele>
        <time>2022-02-08T07:17:57Z</time>
      </trkpt>
      <trkpt lat="44.42164" lon="4.13084">
        <ele>165</ele>
        <time>2022-02-08T07:18:21Z</time>
      </trkpt>
      <trkpt lat="44.42142" lon="4.13052">
        <ele>164</ele>
        <time>2022-02-08T07:18:27Z</time>
      </trkpt>
      <trkpt lat="44.4212" lon="4.13025">
        <ele>162</ele>
        <time>2022-02-08T07:18:32Z</time>
      </trkpt>
      <trkpt lat="44.4209" lon="4.13003">
        <ele>158</ele>
        <time>2022-02-08T07:18:38Z</time>
      </trkpt>
      <trkpt lat="44.42071" lon="4.12981">
        <ele>162</ele>
        <time>2022-02-08T07:18:42Z</time>
      </trkpt>
      <trkpt lat="44.42064" lon="4.12977">
        <ele>163</ele>
        <time>2022-02-08T07:18:44Z</time>
      </trkpt>
      <trkpt lat="44.42039" lon="4.12965">
        <ele>165</ele>
        <time>2022-02-08T07:18:48Z</time>
      </trkpt>
      <trkpt lat="44.42015" lon="4.12957">
        <ele>165</ele>
        <time>2022-02-08T07:18:53Z</time>
      </trkpt>
      <trkpt lat="44.41875" lon="4.12936">
        <ele>167</ele>
        <time>2022-02-08T07:19:18Z</time>
      </trkpt>
      <trkpt lat="44.41851" lon="4.12935">
        <ele>168</ele>
        <time>2022-02-08T07:19:22Z</time>
      </trkpt>
      <trkpt lat="44.41728" lon="4.12942">
        <ele>163</ele>
        <time>2022-02-08T07:19:44Z</time>
      </trkpt>
      <trkpt lat="44.41721" lon="4.1294">
        <ele>163</ele>
        <time>2022-02-08T07:19:45Z</time>
      </trkpt>
      <trkpt lat="44.41678" lon="4.12899">
        <ele>165</ele>
        <time>2022-02-08T07:19:54Z</time>
      </trkpt>
      <trkpt lat="44.41666" lon="4.12884">
        <ele>165</ele>
        <time>2022-02-08T07:19:57Z</time>
      </trkpt>
      <trkpt lat="44.41624" lon="4.12812">
        <ele>164</ele>
        <time>2022-02-08T07:20:09Z</time>
      </trkpt>
      <trkpt lat="44.41608" lon="4.12788">
        <ele>163</ele>
        <time>2022-02-08T07:20:13Z</time>
      </trkpt>
      <trkpt lat="44.416" lon="4.12768">
        <ele>163</ele>
        <time>2022-02-08T07:20:16Z</time>
      </trkpt>
      <trkpt lat="44.41596" lon="4.12762">
        <ele>163</ele>
        <time>2022-02-08T07:20:17Z</time>
      </trkpt>
      <trkpt lat="44.41581" lon="4.1275">
        <ele>162</ele>
        <time>2022-02-08T07:20:20Z</time>
      </trkpt>
      <trkpt lat="44.41478" lon="4.12693">
        <ele>152</ele>
        <time>2022-02-08T07:20:40Z</time>
      </trkpt>
      <trkpt lat="44.41422" lon="4.12666">
        <ele>148</ele>
        <time>2022-02-08T07:20:51Z</time>
      </trkpt>
      <trkpt lat="44.4132" lon="4.12625">
        <ele>165</ele>
        <time>2022-02-08T07:21:09Z</time>
      </trkpt>
      <trkpt lat="44.41316" lon="4.12624">
        <ele>167</ele>
        <time>2022-02-08T07:21:10Z</time>
      </trkpt>
      <trkpt lat="44.41306" lon="4.1263">
        <ele>173</ele>
        <time>2022-02-08T07:21:12Z</time>
      </trkpt>
      <trkpt lat="44.41301" lon="4.12644">
        <ele>175</ele>
        <time>2022-02-08T07:21:14Z</time>
      </trkpt>
      <trkpt lat="44.41299" lon="4.1268">
        <ele>175</ele>
        <time>2022-02-08T07:21:19Z</time>
      </trkpt>
      <trkpt lat="44.41269" lon="4.12878">
        <ele>180</ele>
        <time>2022-02-08T07:21:44Z</time>
      </trkpt>
      <trkpt lat="44.41237" lon="4.13119">
        <ele>176</ele>
        <time>2022-02-08T07:22:16Z</time>
      </trkpt>
      <trkpt lat="44.41232" lon="4.13147">
        <ele>176</ele>
        <time>2022-02-08T07:22:19Z</time>
      </trkpt>
      <trkpt lat="44.41224" lon="4.13173">
        <ele>176</ele>
        <time>2022-02-08T07:22:23Z</time>
      </trkpt>
      <trkpt lat="44.41218" lon="4.13186">
        <ele>176</ele>
        <time>2022-02-08T07:22:25Z</time>
      </trkpt>
      <trkpt lat="44.41213" lon="4.13191">
        <ele>176</ele>
        <time>2022-02-08T07:22:26Z</time>
      </trkpt>
      <trkpt lat="44.41203" lon="4.13196">
        <ele>177</ele>
        <time>2022-02-08T07:22:28Z</time>
      </trkpt>
      <trkpt lat="44.41189" lon="4.13197">
        <ele>179</ele>
        <time>2022-02-08T07:22:30Z</time>
      </trkpt>
      <trkpt lat="44.41087" lon="4.13172">
        <ele>188</ele>
        <time>2022-02-08T07:22:49Z</time>
      </trkpt>
      <trkpt lat="44.41063" lon="4.13168">
        <ele>189</ele>
        <time>2022-02-08T07:22:53Z</time>
      </trkpt>
      <trkpt lat="44.41032" lon="4.13167">
        <ele>190</ele>
        <time>2022-02-08T07:22:58Z</time>
      </trkpt>
      <trkpt lat="44.41003" lon="4.13176">
        <ele>191</ele>
        <time>2022-02-08T07:23:04Z</time>
      </trkpt>
      <trkpt lat="44.40969" lon="4.13192">
        <ele>191</ele>
        <time>2022-02-08T07:23:10Z</time>
      </trkpt>
      <trkpt lat="44.40961" lon="4.13194">
        <ele>191</ele>
        <time>2022-02-08T07:23:12Z</time>
      </trkpt>
      <trkpt lat="44.40937" lon="4.13186">
        <ele>190</ele>
        <time>2022-02-08T07:23:16Z</time>
      </trkpt>
      <trkpt lat="44.40907" lon="4.13169">
        <ele>189</ele>
        <time>2022-02-08T07:23:22Z</time>
      </trkpt>
      <trkpt lat="44.40828" lon="4.13122">
        <ele>186</ele>
        <time>2022-02-08T07:23:37Z</time>
      </trkpt>
      <trkpt lat="44.4078" lon="4.13098">
        <ele>187</ele>
        <time>2022-02-08T07:23:46Z</time>
      </trkpt>
      <trkpt lat="44.40763" lon="4.13093">
        <ele>187</ele>
        <time>2022-02-08T07:23:49Z</time>
      </trkpt>
      <trkpt lat="44.40709" lon="4.13085">
        <ele>186</ele>
        <time>2022-02-08T07:23:59Z</time>
      </trkpt>
      <trkpt lat="44.4067" lon="4.13085">
        <ele>184</ele>
        <time>2022-02-08T07:24:06Z</time>
      </trkpt>
      <trkpt lat="44.40658" lon="4.13087">
        <ele>183</ele>
        <time>2022-02-08T07:24:08Z</time>
      </trkpt>
      <trkpt lat="44.40634" lon="4.131">
        <ele>182</ele>
        <time>2022-02-08T07:24:13Z</time>
      </trkpt>
      <trkpt lat="44.40609" lon="4.13129">
        <ele>179</ele>
        <time>2022-02-08T07:24:18Z</time>
      </trkpt>
      <trkpt lat="44.40587" lon="4.1315">
        <ele>177</ele>
        <time>2022-02-08T07:24:23Z</time>
      </trkpt>
      <trkpt lat="44.40557" lon="4.13083">
        <ele>180</ele>
        <time>2022-02-08T07:24:33Z</time>
      </trkpt>
      <trkpt lat="44.40547" lon="4.13055">
        <ele>181</ele>
        <time>2022-02-08T07:24:37Z</time>
      </trkpt>
      <trkpt lat="44.40536" lon="4.13004">
        <ele>182</ele>
        <time>2022-02-08T07:24:44Z</time>
      </trkpt>
      <trkpt lat="44.40534" lon="4.13">
        <ele>182</ele>
        <time>2022-02-08T07:24:44Z</time>
      </trkpt>
      <trkpt lat="44.4053" lon="4.12997">
        <ele>182</ele>
        <time>2022-02-08T07:24:45Z</time>
      </trkpt>
      <trkpt lat="44.40526" lon="4.12997">
        <ele>182</ele>
        <time>2022-02-08T07:24:46Z</time>
      </trkpt>
      <trkpt lat="44.40521" lon="4.13001">
        <ele>181</ele>
        <time>2022-02-08T07:24:47Z</time>
      </trkpt>
      <trkpt lat="44.40519" lon="4.13006">
        <ele>181</ele>
        <time>2022-02-08T07:24:48Z</time>
      </trkpt>
      <trkpt lat="44.40504" lon="4.13082">
        <ele>180</ele>
        <time>2022-02-08T07:24:58Z</time>
      </trkpt>
      <trkpt lat="44.40495" lon="4.13118">
        <ele>180</ele>
        <time>2022-02-08T07:25:03Z</time>
      </trkpt>
      <trkpt lat="44.40492" lon="4.13119">
        <ele>180</ele>
        <time>2022-02-08T07:25:03Z</time>
      </trkpt>
      <trkpt lat="44.40485" lon="4.13129">
        <ele>181</ele>
        <time>2022-02-08T07:25:05Z</time>
      </trkpt>
      <trkpt lat="44.40477" lon="4.13153">
        <ele>181</ele>
        <time>2022-02-08T07:25:08Z</time>
      </trkpt>
      <trkpt lat="44.40468" lon="4.13197">
        <ele>182</ele>
        <time>2022-02-08T07:25:14Z</time>
      </trkpt>
      <trkpt lat="44.40465" lon="4.13211">
        <ele>182</ele>
        <time>2022-02-08T07:25:16Z</time>
      </trkpt>
      <trkpt lat="44.40454" lon="4.13235">
        <ele>183</ele>
        <time>2022-02-08T07:25:20Z</time>
      </trkpt>
      <trkpt lat="44.40441" lon="4.13254">
        <ele>184</ele>
        <time>2022-02-08T07:25:23Z</time>
      </trkpt>
      <trkpt lat="44.40413" lon="4.13281">
        <ele>185</ele>
        <time>2022-02-08T07:25:29Z</time>
      </trkpt>
      <trkpt lat="44.40392" lon="4.13284">
        <ele>186</ele>
        <time>2022-02-08T07:25:33Z</time>
      </trkpt>
      <trkpt lat="44.40378" lon="4.13288">
        <ele>186</ele>
        <time>2022-02-08T07:25:35Z</time>
      </trkpt>
      <trkpt lat="44.4037" lon="4.1329">
        <ele>186</ele>
        <time>2022-02-08T07:25:37Z</time>
      </trkpt>
      <trkpt lat="44.40302" lon="4.13311">
        <ele>189</ele>
        <time>2022-02-08T07:25:49Z</time>
      </trkpt>
      <trkpt lat="44.40296" lon="4.13313">
        <ele>189</ele>
        <time>2022-02-08T07:25:50Z</time>
      </trkpt>
      <trkpt lat="44.40287" lon="4.13312">
        <ele>190</ele>
        <time>2022-02-08T07:25:52Z</time>
      </trkpt>
      <trkpt lat="44.40277" lon="4.13306">
        <ele>191</ele>
        <time>2022-02-08T07:25:54Z</time>
      </trkpt>
      <trkpt lat="44.40269" lon="4.13299">
        <ele>193</ele>
        <time>2022-02-08T07:25:55Z</time>
      </trkpt>
      <trkpt lat="44.40268" lon="4.13296">
        <ele>194</ele>
        <time>2022-02-08T07:25:56Z</time>
      </trkpt>
      <trkpt lat="44.40265" lon="4.13287">
        <ele>195</ele>
        <time>2022-02-08T07:25:57Z</time>
      </trkpt>
      <trkpt lat="44.40266" lon="4.13277">
        <ele>196</ele>
        <time>2022-02-08T07:25:58Z</time>
      </trkpt>
      <trkpt lat="44.40269" lon="4.13267">
        <ele>197</ele>
        <time>2022-02-08T07:26:00Z</time>
      </trkpt>
      <trkpt lat="44.40333" lon="4.13146">
        <ele>201</ele>
        <time>2022-02-08T07:26:19Z</time>
      </trkpt>
      <trkpt lat="44.40339" lon="4.13129">
        <ele>202</ele>
        <time>2022-02-08T07:26:21Z</time>
      </trkpt>
      <trkpt lat="44.40342" lon="4.13103">
        <ele>204</ele>
        <time>2022-02-08T07:26:25Z</time>
      </trkpt>
      <trkpt lat="44.40333" lon="4.1303">
        <ele>207</ele>
        <time>2022-02-08T07:26:34Z</time>
      </trkpt>
      <trkpt lat="44.40321" lon="4.12982">
        <ele>210</ele>
        <time>2022-02-08T07:26:41Z</time>
      </trkpt>
      <trkpt lat="44.40304" lon="4.1293">
        <ele>213</ele>
        <time>2022-02-08T07:26:48Z</time>
      </trkpt>
      <trkpt lat="44.40265" lon="4.12862">
        <ele>221</ele>
        <time>2022-02-08T07:26:59Z</time>
      </trkpt>
      <trkpt lat="44.40246" lon="4.12837">
        <ele>225</ele>
        <time>2022-02-08T07:27:04Z</time>
      </trkpt>
      <trkpt lat="44.40238" lon="4.12822">
        <ele>229</ele>
        <time>2022-02-08T07:27:06Z</time>
      </trkpt>
      <trkpt lat="44.40239" lon="4.1281">
        <ele>229</ele>
        <time>2022-02-08T07:27:07Z</time>
      </trkpt>
      <trkpt lat="44.40254" lon="4.12768">
        <ele>223</ele>
        <time>2022-02-08T07:27:13Z</time>
      </trkpt>
      <trkpt lat="44.40256" lon="4.12738">
        <ele>222</ele>
        <time>2022-02-08T07:27:17Z</time>
      </trkpt>
      <trkpt lat="44.40252" lon="4.12689">
        <ele>221</ele>
        <time>2022-02-08T07:27:24Z</time>
      </trkpt>
      <trkpt lat="44.40228" lon="4.12621">
        <ele>224</ele>
        <time>2022-02-08T07:27:33Z</time>
      </trkpt>
      <trkpt lat="44.40187" lon="4.12567">
        <ele>230</ele>
        <time>2022-02-08T07:27:43Z</time>
      </trkpt>
      <trkpt lat="44.40119" lon="4.1251">
        <ele>233</ele>
        <time>2022-02-08T07:27:57Z</time>
      </trkpt>
      <trkpt lat="44.4011" lon="4.12507">
        <ele>235</ele>
        <time>2022-02-08T07:27:59Z</time>
      </trkpt>
      <trkpt lat="44.40106" lon="4.1251">
        <ele>237</ele>
        <time>2022-02-08T07:28:00Z</time>
      </trkpt>
      <trkpt lat="44.40105" lon="4.1252">
        <ele>241</ele>
        <time>2022-02-08T07:28:01Z</time>
      </trkpt>
      <trkpt lat="44.40133" lon="4.12543">
        <ele>241</ele>
        <time>2022-02-08T07:28:07Z</time>
      </trkpt>
      <trkpt lat="44.40162" lon="4.1257">
        <ele>240</ele>
        <time>2022-02-08T07:28:13Z</time>
      </trkpt>
      <trkpt lat="44.40175" lon="4.12588">
        <ele>240</ele>
        <time>2022-02-08T07:28:16Z</time>
      </trkpt>
      <trkpt lat="44.40193" lon="4.12621">
        <ele>239</ele>
        <time>2022-02-08T07:28:22Z</time>
      </trkpt>
      <trkpt lat="44.402" lon="4.12643">
        <ele>241</ele>
        <time>2022-02-08T07:28:25Z</time>
      </trkpt>
      <trkpt lat="44.40205" lon="4.12668">
        <ele>243</ele>
        <time>2022-02-08T07:28:28Z</time>
      </trkpt>
      <trkpt lat="44.40205" lon="4.12716">
        <ele>245</ele>
        <time>2022-02-08T07:28:34Z</time>
      </trkpt>
      <trkpt lat="44.40199" lon="4.12739">
        <ele>249</ele>
        <time>2022-02-08T07:28:37Z</time>
      </trkpt>
      <trkpt lat="44.40188" lon="4.12759">
        <ele>254</ele>
        <time>2022-02-08T07:28:40Z</time>
      </trkpt>
      <trkpt lat="44.40168" lon="4.12782">
        <ele>263</ele>
        <time>2022-02-08T07:28:45Z</time>
      </trkpt>
      <trkpt lat="44.40159" lon="4.12794">
        <ele>267</ele>
        <time>2022-02-08T07:28:47Z</time>
      </trkpt>
      <trkpt lat="44.40156" lon="4.12805">
        <ele>268</ele>
        <time>2022-02-08T07:28:49Z</time>
      </trkpt>
      <trkpt lat="44.4016" lon="4.12835">
        <ele>265</ele>
        <time>2022-02-08T07:28:53Z</time>
      </trkpt>
      <trkpt lat="44.40205" lon="4.12954">
        <ele>260</ele>
        <time>2022-02-08T07:29:10Z</time>
      </trkpt>
      <trkpt lat="44.40216" lon="4.13002">
        <ele>258</ele>
        <time>2022-02-08T07:29:16Z</time>
      </trkpt>
      <trkpt lat="44.40217" lon="4.13032">
        <ele>256</ele>
        <time>2022-02-08T07:29:20Z</time>
      </trkpt>
      <trkpt lat="44.40214" lon="4.13051">
        <ele>256</ele>
        <time>2022-02-08T07:29:22Z</time>
      </trkpt>
      <trkpt lat="44.40206" lon="4.13065">
        <ele>257</ele>
        <time>2022-02-08T07:29:25Z</time>
      </trkpt>
      <trkpt lat="44.40199" lon="4.13072">
        <ele>259</ele>
        <time>2022-02-08T07:29:26Z</time>
      </trkpt>
      <trkpt lat="44.40187" lon="4.13077">
        <ele>263</ele>
        <time>2022-02-08T07:29:28Z</time>
      </trkpt>
      <trkpt lat="44.40055" lon="4.13077">
        <ele>283</ele>
        <time>2022-02-08T07:29:52Z</time>
      </trkpt>
      <trkpt lat="44.40032" lon="4.13083">
        <ele>285</ele>
        <time>2022-02-08T07:29:56Z</time>
      </trkpt>
      <trkpt lat="44.40006" lon="4.13094">
        <ele>286</ele>
        <time>2022-02-08T07:30:01Z</time>
      </trkpt>
      <trkpt lat="44.39992" lon="4.13104">
        <ele>285</ele>
        <time>2022-02-08T07:30:04Z</time>
      </trkpt>
      <trkpt lat="44.39977" lon="4.13118">
        <ele>284</ele>
        <time>2022-02-08T07:30:07Z</time>
      </trkpt>
      <trkpt lat="44.39964" lon="4.13139">
        <ele>282</ele>
        <time>2022-02-08T07:30:10Z</time>
      </trkpt>
      <trkpt lat="44.39952" lon="4.13171">
        <ele>280</ele>
        <time>2022-02-08T07:30:15Z</time>
      </trkpt>
      <trkpt lat="44.39945" lon="4.13196">
        <ele>281</ele>
        <time>2022-02-08T07:30:18Z</time>
      </trkpt>
      <trkpt lat="44.39942" lon="4.1322">
        <ele>280</ele>
        <time>2022-02-08T07:30:22Z</time>
      </trkpt>
      <trkpt lat="44.39938" lon="4.13293">
        <ele>277</ele>
        <time>2022-02-08T07:30:31Z</time>
      </trkpt>
      <trkpt lat="44.39941" lon="4.13362">
        <ele>278</ele>
        <time>2022-02-08T07:30:40Z</time>
      </trkpt>
      <trkpt lat="44.39935" lon="4.13384">
        <ele>282</ele>
        <time>2022-02-08T07:30:43Z</time>
      </trkpt>
      <trkpt lat="44.39923" lon="4.13396">
        <ele>286</ele>
        <time>2022-02-08T07:30:45Z</time>
      </trkpt>
      <trkpt lat="44.39892" lon="4.1341">
        <ele>287</ele>
        <time>2022-02-08T07:30:51Z</time>
      </trkpt>
      <trkpt lat="44.39757" lon="4.13422">
        <ele>285</ele>
        <time>2022-02-08T07:31:15Z</time>
      </trkpt>
      <trkpt lat="44.3968" lon="4.13431">
        <ele>281</ele>
        <time>2022-02-08T07:31:29Z</time>
      </trkpt>
      <trkpt lat="44.39663" lon="4.1343">
        <ele>280</ele>
        <time>2022-02-08T07:31:32Z</time>
      </trkpt>
      <trkpt lat="44.3963" lon="4.13414">
        <ele>282</ele>
        <time>2022-02-08T07:31:38Z</time>
      </trkpt>
      <trkpt lat="44.39562" lon="4.13386">
        <ele>285</ele>
        <time>2022-02-08T07:31:51Z</time>
      </trkpt>
      <trkpt lat="44.39546" lon="4.13382">
        <ele>286</ele>
        <time>2022-02-08T07:31:54Z</time>
      </trkpt>
      <trkpt lat="44.39531" lon="4.13381">
        <ele>286</ele>
        <time>2022-02-08T07:31:56Z</time>
      </trkpt>
      <trkpt lat="44.3943" lon="4.13388">
        <ele>287</ele>
        <time>2022-02-08T07:32:14Z</time>
      </trkpt>
      <trkpt lat="44.39409" lon="4.13382">
        <ele>287</ele>
        <time>2022-02-08T07:32:18Z</time>
      </trkpt>
      <trkpt lat="44.39369" lon="4.13366">
        <ele>287</ele>
        <time>2022-02-08T07:32:25Z</time>
      </trkpt>
      <trkpt lat="44.39329" lon="4.13359">
        <ele>286</ele>
        <time>2022-02-08T07:32:33Z</time>
      </trkpt>
      <trkpt lat="44.39295" lon="4.13343">
        <ele>287</ele>
        <time>2022-02-08T07:32:39Z</time>
      </trkpt>
      <trkpt lat="44.39219" lon="4.13274">
        <ele>287</ele>
        <time>2022-02-08T07:32:55Z</time>
      </trkpt>
      <trkpt lat="44.392" lon="4.13266">
        <ele>286</ele>
        <time>2022-02-08T07:32:59Z</time>
      </trkpt>
      <trkpt lat="44.39184" lon="4.13262">
        <ele>286</ele>
        <time>2022-02-08T07:33:02Z</time>
      </trkpt>
      <trkpt lat="44.39129" lon="4.13263">
        <ele>284</ele>
        <time>2022-02-08T07:33:11Z</time>
      </trkpt>
      <trkpt lat="44.3912" lon="4.13257">
        <ele>284</ele>
        <time>2022-02-08T07:33:13Z</time>
      </trkpt>
      <trkpt lat="44.3911" lon="4.1324">
        <ele>284</ele>
        <time>2022-02-08T07:33:16Z</time>
      </trkpt>
      <trkpt lat="44.39072" lon="4.13141">
        <ele>285</ele>
        <time>2022-02-08T07:33:30Z</time>
      </trkpt>
      <trkpt lat="44.3906" lon="4.13126">
        <ele>285</ele>
        <time>2022-02-08T07:33:33Z</time>
      </trkpt>
      <trkpt lat="44.39051" lon="4.13123">
        <ele>286</ele>
        <time>2022-02-08T07:33:35Z</time>
      </trkpt>
      <trkpt lat="44.3904" lon="4.13126">
        <ele>286</ele>
        <time>2022-02-08T07:33:37Z</time>
      </trkpt>
      <trkpt lat="44.39031" lon="4.13136">
        <ele>285</ele>
        <time>2022-02-08T07:33:39Z</time>
      </trkpt>
      <trkpt lat="44.39024" lon="4.13149">
        <ele>285</ele>
        <time>2022-02-08T07:33:41Z</time>
      </trkpt>
      <trkpt lat="44.39004" lon="4.13207">
        <ele>282</ele>
        <time>2022-02-08T07:33:49Z</time>
      </trkpt>
      <trkpt lat="44.38986" lon="4.13232">
        <ele>281</ele>
        <time>2022-02-08T07:33:54Z</time>
      </trkpt>
      <trkpt lat="44.38944" lon="4.13271">
        <ele>279</ele>
        <time>2022-02-08T07:34:02Z</time>
      </trkpt>
      <trkpt lat="44.38932" lon="4.13276">
        <ele>279</ele>
        <time>2022-02-08T07:34:05Z</time>
      </trkpt>
      <trkpt lat="44.38914" lon="4.13277">
        <ele>279</ele>
        <time>2022-02-08T07:34:08Z</time>
      </trkpt>
      <trkpt lat="44.38825" lon="4.13257">
        <ele>278</ele>
        <time>2022-02-08T07:34:24Z</time>
      </trkpt>
      <trkpt lat="44.38805" lon="4.13243">
        <ele>277</ele>
        <time>2022-02-08T07:34:28Z</time>
      </trkpt>
      <trkpt lat="44.38798" lon="4.13234">
        <ele>277</ele>
        <time>2022-02-08T07:34:30Z</time>
      </trkpt>
      <trkpt lat="44.38793" lon="4.13221">
        <ele>277</ele>
        <time>2022-02-08T07:34:32Z</time>
      </trkpt>
      <trkpt lat="44.38791" lon="4.13205">
        <ele>277</ele>
        <time>2022-02-08T07:34:34Z</time>
      </trkpt>
      <trkpt lat="44.38793" lon="4.13141">
        <ele>282</ele>
        <time>2022-02-08T07:34:42Z</time>
      </trkpt>
      <trkpt lat="44.38788" lon="4.1313">
        <ele>282</ele>
        <time>2022-02-08T07:34:43Z</time>
      </trkpt>
      <trkpt lat="44.38781" lon="4.13125">
        <ele>282</ele>
        <time>2022-02-08T07:34:45Z</time>
      </trkpt>
      <trkpt lat="44.38774" lon="4.13123">
        <ele>282</ele>
        <time>2022-02-08T07:34:46Z</time>
      </trkpt>
      <trkpt lat="44.38761" lon="4.1313">
        <ele>280</ele>
        <time>2022-02-08T07:34:49Z</time>
      </trkpt>
      <trkpt lat="44.38661" lon="4.13232">
        <ele>275</ele>
        <time>2022-02-08T07:35:11Z</time>
      </trkpt>
      <trkpt lat="44.38645" lon="4.13231">
        <ele>274</ele>
        <time>2022-02-08T07:35:13Z</time>
      </trkpt>
      <trkpt lat="44.38634" lon="4.13225">
        <ele>274</ele>
        <time>2022-02-08T07:35:15Z</time>
      </trkpt>
      <trkpt lat="44.38513" lon="4.13104">
        <ele>280</ele>
        <time>2022-02-08T07:35:42Z</time>
      </trkpt>
      <trkpt lat="44.38497" lon="4.13095">
        <ele>280</ele>
        <time>2022-02-08T07:35:45Z</time>
      </trkpt>
      <trkpt lat="44.38425" lon="4.13088">
        <ele>277</ele>
        <time>2022-02-08T07:35:58Z</time>
      </trkpt>
      <trkpt lat="44.38401" lon="4.13066">
        <ele>275</ele>
        <time>2022-02-08T07:36:03Z</time>
      </trkpt>
      <trkpt lat="44.38393" lon="4.13048">
        <ele>275</ele>
        <time>2022-02-08T07:36:06Z</time>
      </trkpt>
      <trkpt lat="44.38382" lon="4.13011">
        <ele>275</ele>
        <time>2022-02-08T07:36:11Z</time>
      </trkpt>
      <trkpt lat="44.38383" lon="4.12989">
        <ele>277</ele>
        <time>2022-02-08T07:36:14Z</time>
      </trkpt>
      <trkpt lat="44.38389" lon="4.12961">
        <ele>278</ele>
        <time>2022-02-08T07:36:17Z</time>
      </trkpt>
      <trkpt lat="44.38398" lon="4.12933">
        <ele>279</ele>
        <time>2022-02-08T07:36:21Z</time>
      </trkpt>
      <trkpt lat="44.38431" lon="4.12847">
        <ele>283</ele>
        <time>2022-02-08T07:36:34Z</time>
      </trkpt>
      <trkpt lat="44.38432" lon="4.12833">
        <ele>282</ele>
        <time>2022-02-08T07:36:35Z</time>
      </trkpt>
      <trkpt lat="44.3843" lon="4.12823">
        <ele>283</ele>
        <time>2022-02-08T07:36:37Z</time>
      </trkpt>
      <trkpt lat="44.38426" lon="4.12814">
        <ele>284</ele>
        <time>2022-02-08T07:36:38Z</time>
      </trkpt>
      <trkpt lat="44.38418" lon="4.12809">
        <ele>284</ele>
        <time>2022-02-08T07:36:40Z</time>
      </trkpt>
      <trkpt lat="44.38412" lon="4.12808">
        <ele>285</ele>
        <time>2022-02-08T07:36:41Z</time>
      </trkpt>
      <trkpt lat="44.38399" lon="4.12818">
        <ele>284</ele>
        <time>2022-02-08T07:36:43Z</time>
      </trkpt>
      <trkpt lat="44.3833" lon="4.12904">
        <ele>276</ele>
        <time>2022-02-08T07:37:00Z</time>
      </trkpt>
      <trkpt lat="44.38319" lon="4.12906">
        <ele>277</ele>
        <time>2022-02-08T07:37:02Z</time>
      </trkpt>
      <trkpt lat="44.38297" lon="4.12892">
        <ele>283</ele>
        <time>2022-02-08T07:37:06Z</time>
      </trkpt>
      <trkpt lat="44.38287" lon="4.12895">
        <ele>284</ele>
        <time>2022-02-08T07:37:08Z</time>
      </trkpt>
      <trkpt lat="44.38278" lon="4.12907">
        <ele>283</ele>
        <time>2022-02-08T07:37:10Z</time>
      </trkpt>
      <trkpt lat="44.38275" lon="4.12943">
        <ele>281</ele>
        <time>2022-02-08T07:37:15Z</time>
      </trkpt>
      <trkpt lat="44.38264" lon="4.12984">
        <ele>280</ele>
        <time>2022-02-08T07:37:20Z</time>
      </trkpt>
      <trkpt lat="44.38249" lon="4.13008">
        <ele>280</ele>
        <time>2022-02-08T07:37:24Z</time>
      </trkpt>
      <trkpt lat="44.38226" lon="4.13031">
        <ele>281</ele>
        <time>2022-02-08T07:37:29Z</time>
      </trkpt>
      <trkpt lat="44.38212" lon="4.13061">
        <ele>279</ele>
        <time>2022-02-08T07:37:34Z</time>
      </trkpt>
      <trkpt lat="44.38202" lon="4.13103">
        <ele>276</ele>
        <time>2022-02-08T07:37:40Z</time>
      </trkpt>
      <trkpt lat="44.38192" lon="4.13121">
        <ele>274</ele>
        <time>2022-02-08T07:37:42Z</time>
      </trkpt>
      <trkpt lat="44.38169" lon="4.13127">
        <ele>274</ele>
        <time>2022-02-08T07:37:47Z</time>
      </trkpt>
      <trkpt lat="44.38142" lon="4.1313">
        <ele>272</ele>
        <time>2022-02-08T07:37:51Z</time>
      </trkpt>
      <trkpt lat="44.38121" lon="4.13126">
        <ele>270</ele>
        <time>2022-02-08T07:37:55Z</time>
      </trkpt>
      <trkpt lat="44.3811" lon="4.13119">
        <ele>271</ele>
        <time>2022-02-08T07:37:57Z</time>
      </trkpt>
      <trkpt lat="44.38096" lon="4.13101">
        <ele>273</ele>
        <time>2022-02-08T07:38:01Z</time>
      </trkpt>
      <trkpt lat="44.38065" lon="4.13031">
        <ele>279</ele>
        <time>2022-02-08T07:38:11Z</time>
      </trkpt>
      <trkpt lat="44.37963" lon="4.12921">
        <ele>282</ele>
        <time>2022-02-08T07:38:34Z</time>
      </trkpt>
      <trkpt lat="44.37952" lon="4.12907">
        <ele>282</ele>
        <time>2022-02-08T07:38:37Z</time>
      </trkpt>
      <trkpt lat="44.37941" lon="4.12882">
        <ele>283</ele>
        <time>2022-02-08T07:38:40Z</time>
      </trkpt>
      <trkpt lat="44.37915" lon="4.12798">
        <ele>285</ele>
        <time>2022-02-08T07:38:52Z</time>
      </trkpt>
      <trkpt lat="44.37895" lon="4.12746">
        <ele>290</ele>
        <time>2022-02-08T07:39:00Z</time>
      </trkpt>
      <trkpt lat="44.37879" lon="4.12694">
        <ele>287</ele>
        <time>2022-02-08T07:39:07Z</time>
      </trkpt>
      <trkpt lat="44.37875" lon="4.12642">
        <ele>284</ele>
        <time>2022-02-08T07:39:13Z</time>
      </trkpt>
      <trkpt lat="44.37877" lon="4.12605">
        <ele>282</ele>
        <time>2022-02-08T07:39:18Z</time>
      </trkpt>
      <trkpt lat="44.37879" lon="4.12581">
        <ele>281</ele>
        <time>2022-02-08T07:39:21Z</time>
      </trkpt>
      <trkpt lat="44.37872" lon="4.12578">
        <ele>280</ele>
        <time>2022-02-08T07:39:23Z</time>
      </trkpt>
      <trkpt lat="44.3782" lon="4.12564">
        <ele>275</ele>
        <time>2022-02-08T07:39:32Z</time>
      </trkpt>
      <trkpt lat="44.37794" lon="4.12561">
        <ele>277</ele>
        <time>2022-02-08T07:39:37Z</time>
      </trkpt>
      <trkpt lat="44.37782" lon="4.12556">
        <ele>278</ele>
        <time>2022-02-08T07:39:39Z</time>
      </trkpt>
      <trkpt lat="44.37727" lon="4.12545">
        <ele>284</ele>
        <time>2022-02-08T07:39:49Z</time>
      </trkpt>
      <trkpt lat="44.37693" lon="4.12526">
        <ele>288</ele>
        <time>2022-02-08T07:39:55Z</time>
      </trkpt>
      <trkpt lat="44.3765" lon="4.1253">
        <ele>290</ele>
        <time>2022-02-08T07:40:03Z</time>
      </trkpt>
      <trkpt lat="44.37636" lon="4.12526">
        <ele>292</ele>
        <time>2022-02-08T07:40:05Z</time>
      </trkpt>
      <trkpt lat="44.37595" lon="4.12504">
        <ele>297</ele>
        <time>2022-02-08T07:40:13Z</time>
      </trkpt>
      <trkpt lat="44.37586" lon="4.12508">
        <ele>298</ele>
        <time>2022-02-08T07:40:15Z</time>
      </trkpt>
      <trkpt lat="44.37574" lon="4.12523">
        <ele>296</ele>
        <time>2022-02-08T07:40:18Z</time>
      </trkpt>
      <trkpt lat="44.37523" lon="4.12537">
        <ele>297</ele>
        <time>2022-02-08T07:40:27Z</time>
      </trkpt>
      <trkpt lat="44.37475" lon="4.1254">
        <ele>300</ele>
        <time>2022-02-08T07:40:36Z</time>
      </trkpt>
      <trkpt lat="44.37435" lon="4.1253">
        <ele>305</ele>
        <time>2022-02-08T07:40:43Z</time>
      </trkpt>
      <trkpt lat="44.37425" lon="4.12534">
        <ele>305</ele>
        <time>2022-02-08T07:40:45Z</time>
      </trkpt>
      <trkpt lat="44.37411" lon="4.12554">
        <ele>303</ele>
        <time>2022-02-08T07:40:48Z</time>
      </trkpt>
      <trkpt lat="44.37388" lon="4.12567">
        <ele>304</ele>
        <time>2022-02-08T07:40:53Z</time>
      </trkpt>
      <trkpt lat="44.37356" lon="4.12583">
        <ele>305</ele>
        <time>2022-02-08T07:40:59Z</time>
      </trkpt>
      <trkpt lat="44.37304" lon="4.12594">
        <ele>308</ele>
        <time>2022-02-08T07:41:08Z</time>
      </trkpt>
      <trkpt lat="44.37264" lon="4.1262">
        <ele>308</ele>
        <time>2022-02-08T07:41:16Z</time>
      </trkpt>
      <trkpt lat="44.37201" lon="4.12627">
        <ele>309</ele>
        <time>2022-02-08T07:41:27Z</time>
      </trkpt>
      <trkpt lat="44.37114" lon="4.12629">
        <ele>311</ele>
        <time>2022-02-08T07:41:43Z</time>
      </trkpt>
      <trkpt lat="44.37088" lon="4.12626">
        <ele>312</ele>
        <time>2022-02-08T07:41:47Z</time>
      </trkpt>
      <trkpt lat="44.37047" lon="4.12597">
        <ele>314</ele>
        <time>2022-02-08T07:41:55Z</time>
      </trkpt>
      <trkpt lat="44.37025" lon="4.12603">
        <ele>314</ele>
        <time>2022-02-08T07:41:59Z</time>
      </trkpt>
      <trkpt lat="44.36994" lon="4.12625">
        <ele>314</ele>
        <time>2022-02-08T07:42:06Z</time>
      </trkpt>
      <trkpt lat="44.36964" lon="4.12626">
        <ele>316</ele>
        <time>2022-02-08T07:42:11Z</time>
      </trkpt>
      <trkpt lat="44.36923" lon="4.12609">
        <ele>318</ele>
        <time>2022-02-08T07:42:19Z</time>
      </trkpt>
      <trkpt lat="44.36865" lon="4.12578">
        <ele>317</ele>
        <time>2022-02-08T07:42:30Z</time>
      </trkpt>
      <trkpt lat="44.36841" lon="4.12577">
        <ele>316</ele>
        <time>2022-02-08T07:42:34Z</time>
      </trkpt>
      <trkpt lat="44.36827" lon="4.12565">
        <ele>317</ele>
        <time>2022-02-08T07:42:37Z</time>
      </trkpt>
      <trkpt lat="44.36812" lon="4.12536">
        <ele>319</ele>
        <time>2022-02-08T07:42:41Z</time>
      </trkpt>
      <trkpt lat="44.36788" lon="4.12539">
        <ele>315</ele>
        <time>2022-02-08T07:42:46Z</time>
      </trkpt>
      <trkpt lat="44.36769" lon="4.12516">
        <ele>314</ele>
        <time>2022-02-08T07:42:50Z</time>
      </trkpt>
      <trkpt lat="44.36767" lon="4.12468">
        <ele>322</ele>
        <time>2022-02-08T07:42:56Z</time>
      </trkpt>
      <trkpt lat="44.36743" lon="4.12447">
        <ele>322</ele>
        <time>2022-02-08T07:43:01Z</time>
      </trkpt>
      <trkpt lat="44.36707" lon="4.1246">
        <ele>313</ele>
        <time>2022-02-08T07:43:08Z</time>
      </trkpt>
      <trkpt lat="44.3668" lon="4.12442">
        <ele>311</ele>
        <time>2022-02-08T07:43:13Z</time>
      </trkpt>
      <trkpt lat="44.36668" lon="4.12405">
        <ele>313</ele>
        <time>2022-02-08T07:43:18Z</time>
      </trkpt>
      <trkpt lat="44.367" lon="4.12369">
        <ele>320</ele>
        <time>2022-02-08T07:43:26Z</time>
      </trkpt>
      <trkpt lat="44.36719" lon="4.12331">
        <ele>325</ele>
        <time>2022-02-08T07:43:32Z</time>
      </trkpt>
      <trkpt lat="44.36707" lon="4.12278">
        <ele>335</ele>
        <time>2022-02-08T07:43:39Z</time>
      </trkpt>
      <trkpt lat="44.36697" lon="4.12258">
        <ele>338</ele>
        <time>2022-02-08T07:43:42Z</time>
      </trkpt>
      <trkpt lat="44.36678" lon="4.12268">
        <ele>333</ele>
        <time>2022-02-08T07:43:45Z</time>
      </trkpt>
      <trkpt lat="44.36657" lon="4.12289">
        <ele>325</ele>
        <time>2022-02-08T07:43:50Z</time>
      </trkpt>
      <trkpt lat="44.3663" lon="4.12289">
        <ele>322</ele>
        <time>2022-02-08T07:43:55Z</time>
      </trkpt>
      <trkpt lat="44.36607" lon="4.12262">
        <ele>327</ele>
        <time>2022-02-08T07:44:00Z</time>
      </trkpt>
      <trkpt lat="44.3658" lon="4.12241">
        <ele>328</ele>
        <time>2022-02-08T07:44:06Z</time>
      </trkpt>
      <trkpt lat="44.36555" lon="4.12246">
        <ele>324</ele>
        <time>2022-02-08T07:44:10Z</time>
      </trkpt>
      <trkpt lat="44.36534" lon="4.1224">
        <ele>322</ele>
        <time>2022-02-08T07:44:14Z</time>
      </trkpt>
      <trkpt lat="44.36486" lon="4.12176">
        <ele>323</ele>
        <time>2022-02-08T07:44:26Z</time>
      </trkpt>
      <trkpt lat="44.36462" lon="4.12145">
        <ele>322</ele>
        <time>2022-02-08T07:44:32Z</time>
      </trkpt>
      <trkpt lat="44.36454" lon="4.12139">
        <ele>321</ele>
        <time>2022-02-08T07:44:33Z</time>
      </trkpt>
      <trkpt lat="44.36443" lon="4.12129">
        <ele>321</ele>
        <time>2022-02-08T07:44:35Z</time>
      </trkpt>
      <trkpt lat="44.36413" lon="4.12105">
        <ele>320</ele>
        <time>2022-02-08T07:44:42Z</time>
      </trkpt>
      <trkpt lat="44.36391" lon="4.12052">
        <ele>323</ele>
        <time>2022-02-08T07:44:49Z</time>
      </trkpt>
      <trkpt lat="44.36385" lon="4.11989">
        <ele>323</ele>
        <time>2022-02-08T07:44:58Z</time>
      </trkpt>
      <trkpt lat="44.3637" lon="4.11935">
        <ele>321</ele>
        <time>2022-02-08T07:45:05Z</time>
      </trkpt>
      <trkpt lat="44.36336" lon="4.1189">
        <ele>318</ele>
        <time>2022-02-08T07:45:13Z</time>
      </trkpt>
      <trkpt lat="44.36315" lon="4.11842">
        <ele>315</ele>
        <time>2022-02-08T07:45:20Z</time>
      </trkpt>
      <trkpt lat="44.36289" lon="4.11829">
        <ele>317</ele>
        <time>2022-02-08T07:45:25Z</time>
      </trkpt>
      <trkpt lat="44.36278" lon="4.11807">
        <ele>316</ele>
        <time>2022-02-08T07:45:29Z</time>
      </trkpt>
      <trkpt lat="44.36269" lon="4.11745">
        <ele>312</ele>
        <time>2022-02-08T07:45:37Z</time>
      </trkpt>
      <trkpt lat="44.36239" lon="4.11691">
        <ele>311</ele>
        <time>2022-02-08T07:45:45Z</time>
      </trkpt>
      <trkpt lat="44.36209" lon="4.11645">
        <ele>314</ele>
        <time>2022-02-08T07:45:53Z</time>
      </trkpt>
      <trkpt lat="44.36204" lon="4.11598">
        <ele>310</ele>
        <time>2022-02-08T07:45:59Z</time>
      </trkpt>
      <trkpt lat="44.36196" lon="4.11573">
        <ele>309</ele>
        <time>2022-02-08T07:46:03Z</time>
      </trkpt>
      <trkpt lat="44.36187" lon="4.11543">
        <ele>308</ele>
        <time>2022-02-08T07:46:07Z</time>
      </trkpt>
      <trkpt lat="44.3613" lon="4.11451">
        <ele>307</ele>
        <time>2022-02-08T07:46:23Z</time>
      </trkpt>
      <trkpt lat="44.36082" lon="4.1138">
        <ele>303</ele>
        <time>2022-02-08T07:46:35Z</time>
      </trkpt>
      <trkpt lat="44.36068" lon="4.11323">
        <ele>293</ele>
        <time>2022-02-08T07:46:43Z</time>
      </trkpt>
      <trkpt lat="44.36021" lon="4.11274">
        <ele>289</ele>
        <time>2022-02-08T07:46:53Z</time>
      </trkpt>
      <trkpt lat="44.35959" lon="4.11271">
        <ele>293</ele>
        <time>2022-02-08T07:47:04Z</time>
      </trkpt>
      <trkpt lat="44.35903" lon="4.1125">
        <ele>291</ele>
        <time>2022-02-08T07:47:14Z</time>
      </trkpt>
      <trkpt lat="44.3586" lon="4.11203">
        <ele>287</ele>
        <time>2022-02-08T07:47:24Z</time>
      </trkpt>
      <trkpt lat="44.35828" lon="4.11183">
        <ele>286</ele>
        <time>2022-02-08T07:47:30Z</time>
      </trkpt>
      <trkpt lat="44.35799" lon="4.11149">
        <ele>283</ele>
        <time>2022-02-08T07:47:37Z</time>
      </trkpt>
      <trkpt lat="44.35766" lon="4.1113">
        <ele>284</ele>
        <time>2022-02-08T07:47:43Z</time>
      </trkpt>
      <trkpt lat="44.35734" lon="4.11105">
        <ele>283</ele>
        <time>2022-02-08T07:47:50Z</time>
      </trkpt>
      <trkpt lat="44.35669" lon="4.11032">
        <ele>279</ele>
        <time>2022-02-08T07:48:05Z</time>
      </trkpt>
      <trkpt lat="44.35648" lon="4.11022">
        <ele>283</ele>
        <time>2022-02-08T07:48:09Z</time>
      </trkpt>
      <trkpt lat="44.35638" lon="4.11009">
        <ele>283</ele>
        <time>2022-02-08T07:48:11Z</time>
      </trkpt>
      <trkpt lat="44.35631" lon="4.10975">
        <ele>278</ele>
        <time>2022-02-08T07:48:16Z</time>
      </trkpt>
      <trkpt lat="44.35606" lon="4.10957">
        <ele>283</ele>
        <time>2022-02-08T07:48:21Z</time>
      </trkpt>
      <trkpt lat="44.35588" lon="4.10929">
        <ele>282</ele>
        <time>2022-02-08T07:48:25Z</time>
      </trkpt>
      <trkpt lat="44.35557" lon="4.10872">
        <ele>276</ele>
        <time>2022-02-08T07:48:35Z</time>
      </trkpt>
      <trkpt lat="44.35522" lon="4.1082">
        <ele>269</ele>
        <time>2022-02-08T07:48:44Z</time>
      </trkpt>
      <trkpt lat="44.35494" lon="4.10811">
        <ele>272</ele>
        <time>2022-02-08T07:48:49Z</time>
      </trkpt>
      <trkpt lat="44.35466" lon="4.10754">
        <ele>264</ele>
        <time>2022-02-08T07:48:58Z</time>
      </trkpt>
      <trkpt lat="44.35422" lon="4.10708">
        <ele>266</ele>
        <time>2022-02-08T07:49:07Z</time>
      </trkpt>
      <trkpt lat="44.35398" lon="4.10705">
        <ele>270</ele>
        <time>2022-02-08T07:49:12Z</time>
      </trkpt>
      <trkpt lat="44.35384" lon="4.10686">
        <ele>269</ele>
        <time>2022-02-08T07:49:15Z</time>
      </trkpt>
      <trkpt lat="44.35369" lon="4.10645">
        <ele>264</ele>
        <time>2022-02-08T07:49:21Z</time>
      </trkpt>
      <trkpt lat="44.35324" lon="4.10598">
        <ele>261</ele>
        <time>2022-02-08T07:49:31Z</time>
      </trkpt>
      <trkpt lat="44.35287" lon="4.10554">
        <ele>255</ele>
        <time>2022-02-08T07:49:40Z</time>
      </trkpt>
      <trkpt lat="44.35234" lon="4.10538">
        <ele>252</ele>
        <time>2022-02-08T07:49:49Z</time>
      </trkpt>
      <trkpt lat="44.35153" lon="4.10546">
        <ele>255</ele>
        <time>2022-02-08T07:50:04Z</time>
      </trkpt>
      <trkpt lat="44.3509" lon="4.10542">
        <ele>258</ele>
        <time>2022-02-08T07:50:15Z</time>
      </trkpt>
      <trkpt lat="44.35041" lon="4.10507">
        <ele>250</ele>
        <time>2022-02-08T07:50:25Z</time>
      </trkpt>
      <trkpt lat="44.3494" lon="4.10461">
        <ele>252</ele>
        <time>2022-02-08T07:50:44Z</time>
      </trkpt>
      <trkpt lat="44.34897" lon="4.10432">
        <ele>247</ele>
        <time>2022-02-08T07:50:52Z</time>
      </trkpt>
      <trkpt lat="44.34837" lon="4.10385">
        <ele>243</ele>
        <time>2022-02-08T07:51:04Z</time>
      </trkpt>
      <trkpt lat="44.34789" lon="4.10362">
        <ele>242</ele>
        <time>2022-02-08T07:51:13Z</time>
      </trkpt>
      <trkpt lat="44.34732" lon="4.10319">
        <ele>237</ele>
        <time>2022-02-08T07:51:25Z</time>
      </trkpt>
      <trkpt lat="44.3467" lon="4.1028">
        <ele>234</ele>
        <time>2022-02-08T07:51:37Z</time>
      </trkpt>
      <trkpt lat="44.34646" lon="4.10264">
        <ele>234</ele>
        <time>2022-02-08T07:51:42Z</time>
      </trkpt>
      <trkpt lat="44.34625" lon="4.10251">
        <ele>233</ele>
        <time>2022-02-08T07:51:46Z</time>
      </trkpt>
      <trkpt lat="44.34622" lon="4.10251">
        <ele>233</ele>
        <time>2022-02-08T07:51:46Z</time>
      </trkpt>
      <trkpt lat="44.34612" lon="4.10257">
        <ele>235</ele>
        <time>2022-02-08T07:51:48Z</time>
      </trkpt>
      <trkpt lat="44.34607" lon="4.10258">
        <ele>235</ele>
        <time>2022-02-08T07:51:49Z</time>
      </trkpt>
      <trkpt lat="44.34596" lon="4.10258">
        <ele>236</ele>
        <time>2022-02-08T07:51:51Z</time>
      </trkpt>
      <trkpt lat="44.34576" lon="4.10242">
        <ele>235</ele>
        <time>2022-02-08T07:51:55Z</time>
      </trkpt>
      <trkpt lat="44.34517" lon="4.10186">
        <ele>233</ele>
        <time>2022-02-08T07:52:08Z</time>
      </trkpt>
      <trkpt lat="44.34415" lon="4.1008">
        <ele>231</ele>
        <time>2022-02-08T07:52:31Z</time>
      </trkpt>
      <trkpt lat="44.34383" lon="4.10038">
        <ele>235</ele>
        <time>2022-02-08T07:52:38Z</time>
      </trkpt>
      <trkpt lat="44.34353" lon="4.09994">
        <ele>235</ele>
        <time>2022-02-08T07:52:46Z</time>
      </trkpt>
      <trkpt lat="44.34327" lon="4.09936">
        <ele>234</ele>
        <time>2022-02-08T07:52:55Z</time>
      </trkpt>
      <trkpt lat="44.3432" lon="4.09916">
        <ele>235</ele>
        <time>2022-02-08T07:52:58Z</time>
      </trkpt>
      <trkpt lat="44.34316" lon="4.09866">
        <ele>235</ele>
        <time>2022-02-08T07:53:04Z</time>
      </trkpt>
      <trkpt lat="44.34316" lon="4.09852">
        <ele>235</ele>
        <time>2022-02-08T07:53:06Z</time>
      </trkpt>
      <trkpt lat="44.34319" lon="4.09816">
        <ele>234</ele>
        <time>2022-02-08T07:53:10Z</time>
      </trkpt>
      <trkpt lat="44.34333" lon="4.09749">
        <ele>230</ele>
        <time>2022-02-08T07:53:19Z</time>
      </trkpt>
      <trkpt lat="44.34338" lon="4.09705">
        <ele>228</ele>
        <time>2022-02-08T07:53:25Z</time>
      </trkpt>
      <trkpt lat="44.34341" lon="4.09684">
        <ele>227</ele>
        <time>2022-02-08T07:53:28Z</time>
      </trkpt>
      <trkpt lat="44.34341" lon="4.09662">
        <ele>226</ele>
        <time>2022-02-08T07:53:30Z</time>
      </trkpt>
      <trkpt lat="44.34336" lon="4.09594">
        <ele>224</ele>
        <time>2022-02-08T07:53:39Z</time>
      </trkpt>
      <trkpt lat="44.34336" lon="4.09551">
        <ele>223</ele>
        <time>2022-02-08T07:53:45Z</time>
      </trkpt>
      <trkpt lat="44.34331" lon="4.09522">
        <ele>222</ele>
        <time>2022-02-08T07:53:48Z</time>
      </trkpt>
      <trkpt lat="44.34323" lon="4.09498">
        <ele>222</ele>
        <time>2022-02-08T07:53:52Z</time>
      </trkpt>
      <trkpt lat="44.34303" lon="4.09456">
        <ele>222</ele>
        <time>2022-02-08T07:53:58Z</time>
      </trkpt>
      <trkpt lat="44.34294" lon="4.09442">
        <ele>222</ele>
        <time>2022-02-08T07:54:01Z</time>
      </trkpt>
      <trkpt lat="44.34284" lon="4.09435">
        <ele>222</ele>
        <time>2022-02-08T07:54:03Z</time>
      </trkpt>
      <trkpt lat="44.34277" lon="4.09433">
        <ele>222</ele>
        <time>2022-02-08T07:54:04Z</time>
      </trkpt>
      <trkpt lat="44.34213" lon="4.09432">
        <ele>221</ele>
        <time>2022-02-08T07:54:15Z</time>
      </trkpt>
      <trkpt lat="44.34164" lon="4.09435">
        <ele>220</ele>
        <time>2022-02-08T07:54:24Z</time>
      </trkpt>
      <trkpt lat="44.33988" lon="4.09465">
        <ele>219</ele>
        <time>2022-02-08T07:54:56Z</time>
      </trkpt>
      <trkpt lat="44.33804" lon="4.09539">
        <ele>216</ele>
        <time>2022-02-08T07:55:30Z</time>
      </trkpt>
      <trkpt lat="44.33774" lon="4.09555">
        <ele>215</ele>
        <time>2022-02-08T07:55:35Z</time>
      </trkpt>
      <trkpt lat="44.33765" lon="4.09562">
        <ele>214</ele>
        <time>2022-02-08T07:55:37Z</time>
      </trkpt>
      <trkpt lat="44.3371" lon="4.09622">
        <ele>214</ele>
        <time>2022-02-08T07:55:50Z</time>
      </trkpt>
      <trkpt lat="44.33692" lon="4.09648">
        <ele>213</ele>
        <time>2022-02-08T07:55:54Z</time>
      </trkpt>
      <trkpt lat="44.3368" lon="4.0968">
        <ele>212</ele>
        <time>2022-02-08T07:55:59Z</time>
      </trkpt>
      <trkpt lat="44.33655" lon="4.09764">
        <ele>213</ele>
        <time>2022-02-08T07:56:10Z</time>
      </trkpt>
      <trkpt lat="44.33629" lon="4.0984">
        <ele>211</ele>
        <time>2022-02-08T07:56:21Z</time>
      </trkpt>
      <trkpt lat="44.33603" lon="4.09902">
        <ele>211</ele>
        <time>2022-02-08T07:56:30Z</time>
      </trkpt>
      <trkpt lat="44.33577" lon="4.09998">
        <ele>213</ele>
        <time>2022-02-08T07:56:43Z</time>
      </trkpt>
      <trkpt lat="44.33562" lon="4.10042">
        <ele>214</ele>
        <time>2022-02-08T07:56:50Z</time>
      </trkpt>
      <trkpt lat="44.33546" lon="4.10083">
        <ele>214</ele>
        <time>2022-02-08T07:56:55Z</time>
      </trkpt>
      <trkpt lat="44.33495" lon="4.10224">
        <ele>209</ele>
        <time>2022-02-08T07:57:16Z</time>
      </trkpt>
      <trkpt lat="44.33454" lon="4.10351">
        <ele>210</ele>
        <time>2022-02-08T07:57:33Z</time>
      </trkpt>
      <trkpt lat="44.33448" lon="4.10376">
        <ele>210</ele>
        <time>2022-02-08T07:57:37Z</time>
      </trkpt>
      <trkpt lat="44.33439" lon="4.10403">
        <ele>210</ele>
        <time>2022-02-08T07:57:40Z</time>
      </trkpt>
      <trkpt lat="44.33425" lon="4.1043">
        <ele>210</ele>
        <time>2022-02-08T07:57:45Z</time>
      </trkpt>
      <trkpt lat="44.33412" lon="4.10446">
        <ele>211</ele>
        <time>2022-02-08T07:57:48Z</time>
      </trkpt>
      <trkpt lat="44.33381" lon="4.10498">
        <ele>215</ele>
        <time>2022-02-08T07:57:56Z</time>
      </trkpt>
      <trkpt lat="44.33373" lon="4.10518">
        <ele>216</ele>
        <time>2022-02-08T07:57:59Z</time>
      </trkpt>
      <trkpt lat="44.33349" lon="4.10585">
        <ele>219</ele>
        <time>2022-02-08T07:58:09Z</time>
      </trkpt>
      <trkpt lat="44.33331" lon="4.10613">
        <ele>219</ele>
        <time>2022-02-08T07:58:14Z</time>
      </trkpt>
      <trkpt lat="44.33271" lon="4.10693">
        <ele>218</ele>
        <time>2022-02-08T07:58:28Z</time>
      </trkpt>
      <trkpt lat="44.33242" lon="4.10736">
        <ele>216</ele>
        <time>2022-02-08T07:58:36Z</time>
      </trkpt>
      <trkpt lat="44.33212" lon="4.10774">
        <ele>216</ele>
        <time>2022-02-08T07:58:43Z</time>
      </trkpt>
      <trkpt lat="44.33181" lon="4.10833">
        <ele>212</ele>
        <time>2022-02-08T07:58:52Z</time>
      </trkpt>
      <trkpt lat="44.33158" lon="4.10884">
        <ele>210</ele>
        <time>2022-02-08T07:59:00Z</time>
      </trkpt>
      <trkpt lat="44.33148" lon="4.10913">
        <ele>210</ele>
        <time>2022-02-08T07:59:04Z</time>
      </trkpt>
      <trkpt lat="44.33113" lon="4.11014">
        <ele>206</ele>
        <time>2022-02-08T07:59:18Z</time>
      </trkpt>
      <trkpt lat="44.331" lon="4.11068">
        <ele>205</ele>
        <time>2022-02-08T07:59:26Z</time>
      </trkpt>
      <trkpt lat="44.3308" lon="4.11184">
        <ele>206</ele>
        <time>2022-02-08T07:59:41Z</time>
      </trkpt>
      <trkpt lat="44.3307" lon="4.11226">
        <ele>206</ele>
        <time>2022-02-08T07:59:47Z</time>
      </trkpt>
      <trkpt lat="44.33056" lon="4.11298">
        <ele>207</ele>
        <time>2022-02-08T07:59:56Z</time>
      </trkpt>
      <trkpt lat="44.33042" lon="4.11375">
        <ele>208</ele>
        <time>2022-02-08T08:00:06Z</time>
      </trkpt>
      <trkpt lat="44.33037" lon="4.11402">
        <ele>208</ele>
        <time>2022-02-08T08:00:10Z</time>
      </trkpt>
      <trkpt lat="44.33031" lon="4.11422">
        <ele>208</ele>
        <time>2022-02-08T08:00:12Z</time>
      </trkpt>
      <trkpt lat="44.33028" lon="4.11429">
        <ele>208</ele>
        <time>2022-02-08T08:00:14Z</time>
      </trkpt>
      <trkpt lat="44.33024" lon="4.11437">
        <ele>208</ele>
        <time>2022-02-08T08:00:15Z</time>
      </trkpt>
      <trkpt lat="44.32964" lon="4.11496">
        <ele>205</ele>
        <time>2022-02-08T08:00:28Z</time>
      </trkpt>
      <trkpt lat="44.32899" lon="4.11557">
        <ele>203</ele>
        <time>2022-02-08T08:00:42Z</time>
      </trkpt>
      <trkpt lat="44.32885" lon="4.1157">
        <ele>202</ele>
        <time>2022-02-08T08:00:45Z</time>
      </trkpt>
      <trkpt lat="44.32829" lon="4.1163">
        <ele>202</ele>
        <time>2022-02-08T08:00:57Z</time>
      </trkpt>
      <trkpt lat="44.32808" lon="4.11661">
        <ele>202</ele>
        <time>2022-02-08T08:01:03Z</time>
      </trkpt>
      <trkpt lat="44.32788" lon="4.11694">
        <ele>203</ele>
        <time>2022-02-08T08:01:08Z</time>
      </trkpt>
      <trkpt lat="44.32779" lon="4.11706">
        <ele>203</ele>
        <time>2022-02-08T08:01:10Z</time>
      </trkpt>
      <trkpt lat="44.32769" lon="4.11726">
        <ele>203</ele>
        <time>2022-02-08T08:01:14Z</time>
      </trkpt>
      <trkpt lat="44.32758" lon="4.11745">
        <ele>203</ele>
        <time>2022-02-08T08:01:17Z</time>
      </trkpt>
      <trkpt lat="44.32731" lon="4.11805">
        <ele>205</ele>
        <time>2022-02-08T08:01:26Z</time>
      </trkpt>
      <trkpt lat="44.32701" lon="4.11867">
        <ele>211</ele>
        <time>2022-02-08T08:01:35Z</time>
      </trkpt>
      <trkpt lat="44.32685" lon="4.11891">
        <ele>211</ele>
        <time>2022-02-08T08:01:39Z</time>
      </trkpt>
      <trkpt lat="44.32663" lon="4.11914">
        <ele>209</ele>
        <time>2022-02-08T08:01:44Z</time>
      </trkpt>
      <trkpt lat="44.32657" lon="4.11918">
        <ele>209</ele>
        <time>2022-02-08T08:01:45Z</time>
      </trkpt>
      <trkpt lat="44.32649" lon="4.1192">
        <ele>209</ele>
        <time>2022-02-08T08:01:47Z</time>
      </trkpt>
      <trkpt lat="44.32612" lon="4.11926">
        <ele>207</ele>
        <time>2022-02-08T08:01:54Z</time>
      </trkpt>
      <trkpt lat="44.32541" lon="4.11957">
        <ele>211</ele>
        <time>2022-02-08T08:02:07Z</time>
      </trkpt>
      <trkpt lat="44.32515" lon="4.11965">
        <ele>212</ele>
        <time>2022-02-08T08:02:11Z</time>
      </trkpt>
      <trkpt lat="44.325" lon="4.11965">
        <ele>211</ele>
        <time>2022-02-08T08:02:14Z</time>
      </trkpt>
      <trkpt lat="44.32452" lon="4.11958">
        <ele>209</ele>
        <time>2022-02-08T08:02:23Z</time>
      </trkpt>
      <trkpt lat="44.32389" lon="4.11949">
        <ele>206</ele>
        <time>2022-02-08T08:02:34Z</time>
      </trkpt>
      <trkpt lat="44.32387" lon="4.11949">
        <ele>206</ele>
        <time>2022-02-08T08:02:34Z</time>
      </trkpt>
      <trkpt lat="44.32351" lon="4.11948">
        <ele>205</ele>
        <time>2022-02-08T08:02:41Z</time>
      </trkpt>
      <trkpt lat="44.32336" lon="4.11941">
        <ele>203</ele>
        <time>2022-02-08T08:02:44Z</time>
      </trkpt>
      <trkpt lat="44.32322" lon="4.11928">
        <ele>200</ele>
        <time>2022-02-08T08:02:47Z</time>
      </trkpt>
      <trkpt lat="44.32315" lon="4.11926">
        <ele>199</ele>
        <time>2022-02-08T08:02:48Z</time>
      </trkpt>
      <trkpt lat="44.32301" lon="4.11936">
        <ele>200</ele>
        <time>2022-02-08T08:02:51Z</time>
      </trkpt>
      <trkpt lat="44.32282" lon="4.11955">
        <ele>202</ele>
        <time>2022-02-08T08:02:55Z</time>
      </trkpt>
      <trkpt lat="44.32263" lon="4.11978">
        <ele>204</ele>
        <time>2022-02-08T08:02:59Z</time>
      </trkpt>
      <trkpt lat="44.32257" lon="4.11989">
        <ele>204</ele>
        <time>2022-02-08T08:03:01Z</time>
      </trkpt>
      <trkpt lat="44.32246" lon="4.1201">
        <ele>205</ele>
        <time>2022-02-08T08:03:04Z</time>
      </trkpt>
      <trkpt lat="44.3223" lon="4.12065">
        <ele>205</ele>
        <time>2022-02-08T08:03:12Z</time>
      </trkpt>
      <trkpt lat="44.32223" lon="4.12111">
        <ele>205</ele>
        <time>2022-02-08T08:03:18Z</time>
      </trkpt>
      <trkpt lat="44.3222" lon="4.12159">
        <ele>206</ele>
        <time>2022-02-08T08:03:24Z</time>
      </trkpt>
      <trkpt lat="44.3222" lon="4.12198">
        <ele>206</ele>
        <time>2022-02-08T08:03:29Z</time>
      </trkpt>
      <trkpt lat="44.32218" lon="4.12211">
        <ele>205</ele>
        <time>2022-02-08T08:03:31Z</time>
      </trkpt>
      <trkpt lat="44.32216" lon="4.12218">
        <ele>205</ele>
        <time>2022-02-08T08:03:32Z</time>
      </trkpt>
      <trkpt lat="44.32213" lon="4.12222">
        <ele>204</ele>
        <time>2022-02-08T08:03:32Z</time>
      </trkpt>
      <trkpt lat="44.32188" lon="4.12231">
        <ele>200</ele>
        <time>2022-02-08T08:03:37Z</time>
      </trkpt>
      <trkpt lat="44.3218" lon="4.1224">
        <ele>199</ele>
        <time>2022-02-08T08:03:39Z</time>
      </trkpt>
      <trkpt lat="44.32175" lon="4.12251">
        <ele>198</ele>
        <time>2022-02-08T08:03:40Z</time>
      </trkpt>
      <trkpt lat="44.32172" lon="4.12266">
        <ele>198</ele>
        <time>2022-02-08T08:03:42Z</time>
      </trkpt>
      <trkpt lat="44.32171" lon="4.12278">
        <ele>199</ele>
        <time>2022-02-08T08:03:44Z</time>
      </trkpt>
      <trkpt lat="44.32171" lon="4.12341">
        <ele>200</ele>
        <time>2022-02-08T08:03:52Z</time>
      </trkpt>
      <trkpt lat="44.3217" lon="4.12352">
        <ele>200</ele>
        <time>2022-02-08T08:03:53Z</time>
      </trkpt>
      <trkpt lat="44.32167" lon="4.12362">
        <ele>199</ele>
        <time>2022-02-08T08:03:55Z</time>
      </trkpt>
      <trkpt lat="44.32162" lon="4.12375">
        <ele>199</ele>
        <time>2022-02-08T08:03:57Z</time>
      </trkpt>
      <trkpt lat="44.3214" lon="4.12408">
        <ele>197</ele>
        <time>2022-02-08T08:04:02Z</time>
      </trkpt>
      <trkpt lat="44.32132" lon="4.12423">
        <ele>196</ele>
        <time>2022-02-08T08:04:05Z</time>
      </trkpt>
      <trkpt lat="44.32027" lon="4.12706">
        <ele>191</ele>
        <time>2022-02-08T08:04:45Z</time>
      </trkpt>
      <trkpt lat="44.31992" lon="4.12796">
        <ele>189</ele>
        <time>2022-02-08T08:04:58Z</time>
      </trkpt>
      <trkpt lat="44.31971" lon="4.12855">
        <ele>190</ele>
        <time>2022-02-08T08:05:07Z</time>
      </trkpt>
      <trkpt lat="44.31959" lon="4.12884">
        <ele>190</ele>
        <time>2022-02-08T08:05:11Z</time>
      </trkpt>
      <trkpt lat="44.31949" lon="4.12914">
        <ele>190</ele>
        <time>2022-02-08T08:05:15Z</time>
      </trkpt>
      <trkpt lat="44.3193" lon="4.12982">
        <ele>191</ele>
        <time>2022-02-08T08:05:25Z</time>
      </trkpt>
      <trkpt lat="44.31912" lon="4.13051">
        <ele>191</ele>
        <time>2022-02-08T08:05:34Z</time>
      </trkpt>
      <trkpt lat="44.31904" lon="4.13092">
        <ele>190</ele>
        <time>2022-02-08T08:05:39Z</time>
      </trkpt>
      <trkpt lat="44.31895" lon="4.13133">
        <ele>190</ele>
        <time>2022-02-08T08:05:45Z</time>
      </trkpt>
      <trkpt lat="44.31893" lon="4.13146">
        <ele>190</ele>
        <time>2022-02-08T08:05:46Z</time>
      </trkpt>
      <trkpt lat="44.31875" lon="4.13217">
        <ele>190</ele>
        <time>2022-02-08T08:05:56Z</time>
      </trkpt>
      <trkpt lat="44.31874" lon="4.13222">
        <ele>190</ele>
        <time>2022-02-08T08:05:57Z</time>
      </trkpt>
      <trkpt lat="44.31866" lon="4.13236">
        <ele>190</ele>
        <time>2022-02-08T08:05:59Z</time>
      </trkpt>
      <trkpt lat="44.31859" lon="4.13244">
        <ele>191</ele>
        <time>2022-02-08T08:06:01Z</time>
      </trkpt>
      <trkpt lat="44.31841" lon="4.13259">
        <ele>192</ele>
        <time>2022-02-08T08:06:04Z</time>
      </trkpt>
      <trkpt lat="44.3183" lon="4.13265">
        <ele>193</ele>
        <time>2022-02-08T08:06:06Z</time>
      </trkpt>
      <trkpt lat="44.31796" lon="4.13275">
        <ele>195</ele>
        <time>2022-02-08T08:06:13Z</time>
      </trkpt>
      <trkpt lat="44.31754" lon="4.13283">
        <ele>197</ele>
        <time>2022-02-08T08:06:20Z</time>
      </trkpt>
      <trkpt lat="44.3175" lon="4.13287">
        <ele>198</ele>
        <time>2022-02-08T08:06:21Z</time>
      </trkpt>
      <trkpt lat="44.31758" lon="4.13292">
        <ele>198</ele>
        <time>2022-02-08T08:06:23Z</time>
      </trkpt>
      <trkpt lat="44.31765" lon="4.13299">
        <ele>198</ele>
        <time>2022-02-08T08:06:24Z</time>
      </trkpt>
      <trkpt lat="44.31771" lon="4.13308">
        <ele>199</ele>
        <time>2022-02-08T08:06:26Z</time>
      </trkpt>
      <trkpt lat="44.31776" lon="4.1332">
        <ele>200</ele>
        <time>2022-02-08T08:06:27Z</time>
      </trkpt>
      <trkpt lat="44.31782" lon="4.13338">
        <ele>201</ele>
        <time>2022-02-08T08:06:30Z</time>
      </trkpt>
      <trkpt lat="44.3179" lon="4.13354">
        <ele>201</ele>
        <time>2022-02-08T08:06:32Z</time>
      </trkpt>
      <trkpt lat="44.318" lon="4.13364">
        <ele>202</ele>
        <time>2022-02-08T08:06:35Z</time>
      </trkpt>
      <trkpt lat="44.31824" lon="4.13377">
        <ele>202</ele>
        <time>2022-02-08T08:06:39Z</time>
      </trkpt>
      <trkpt lat="44.31833" lon="4.13384">
        <ele>202</ele>
        <time>2022-02-08T08:06:41Z</time>
      </trkpt>
      <trkpt lat="44.31839" lon="4.13393">
        <ele>202</ele>
        <time>2022-02-08T08:06:43Z</time>
      </trkpt>
      <trkpt lat="44.3184" lon="4.134">
        <ele>202</ele>
        <time>2022-02-08T08:06:44Z</time>
      </trkpt>
      <trkpt lat="44.3184" lon="4.13412">
        <ele>203</ele>
        <time>2022-02-08T08:06:45Z</time>
      </trkpt>
      <trkpt lat="44.31835" lon="4.13423">
        <ele>203</ele>
        <time>2022-02-08T08:06:47Z</time>
      </trkpt>
      <trkpt lat="44.31831" lon="4.13427">
        <ele>204</ele>
        <time>2022-02-08T08:06:48Z</time>
      </trkpt>
      <trkpt lat="44.31797" lon="4.13449">
        <ele>205</ele>
        <time>2022-02-08T08:06:54Z</time>
      </trkpt>
      <trkpt lat="44.31789" lon="4.13455">
        <ele>206</ele>
        <time>2022-02-08T08:06:56Z</time>
      </trkpt>
      <trkpt lat="44.31784" lon="4.1346">
        <ele>206</ele>
        <time>2022-02-08T08:06:57Z</time>
      </trkpt>
      <trkpt lat="44.31779" lon="4.13466">
        <ele>207</ele>
        <time>2022-02-08T08:06:58Z</time>
      </trkpt>
      <trkpt lat="44.31776" lon="4.13474">
        <ele>208</ele>
        <time>2022-02-08T08:06:59Z</time>
      </trkpt>
      <trkpt lat="44.3177" lon="4.13517">
        <ele>212</ele>
        <time>2022-02-08T08:07:05Z</time>
      </trkpt>
      <trkpt lat="44.31766" lon="4.13529">
        <ele>214</ele>
        <time>2022-02-08T08:07:07Z</time>
      </trkpt>
      <trkpt lat="44.3176" lon="4.13538">
        <ele>216</ele>
        <time>2022-02-08T08:07:08Z</time>
      </trkpt>
      <trkpt lat="44.31751" lon="4.1354">
        <ele>217</ele>
        <time>2022-02-08T08:07:10Z</time>
      </trkpt>
      <trkpt lat="44.3174" lon="4.13538">
        <ele>217</ele>
        <time>2022-02-08T08:07:12Z</time>
      </trkpt>
      <trkpt lat="44.31686" lon="4.13507">
        <ele>217</ele>
        <time>2022-02-08T08:07:22Z</time>
      </trkpt>
      <trkpt lat="44.31676" lon="4.13503">
        <ele>218</ele>
        <time>2022-02-08T08:07:24Z</time>
      </trkpt>
      <trkpt lat="44.31667" lon="4.13509">
        <ele>219</ele>
        <time>2022-02-08T08:07:26Z</time>
      </trkpt>
      <trkpt lat="44.31664" lon="4.13521">
        <ele>220</ele>
        <time>2022-02-08T08:07:27Z</time>
      </trkpt>
      <trkpt lat="44.31668" lon="4.13533">
        <ele>221</ele>
        <time>2022-02-08T08:07:29Z</time>
      </trkpt>
      <trkpt lat="44.31675" lon="4.13542">
        <ele>222</ele>
        <time>2022-02-08T08:07:31Z</time>
      </trkpt>
      <trkpt lat="44.31693" lon="4.13552">
        <ele>222</ele>
        <time>2022-02-08T08:07:34Z</time>
      </trkpt>
      <trkpt lat="44.31699" lon="4.13562">
        <ele>223</ele>
        <time>2022-02-08T08:07:36Z</time>
      </trkpt>
      <trkpt lat="44.31699" lon="4.13575">
        <ele>224</ele>
        <time>2022-02-08T08:07:38Z</time>
      </trkpt>
      <trkpt lat="44.31693" lon="4.13605">
        <ele>229</ele>
        <time>2022-02-08T08:07:41Z</time>
      </trkpt>
      <trkpt lat="44.31687" lon="4.13615">
        <ele>230</ele>
        <time>2022-02-08T08:07:43Z</time>
      </trkpt>
      <trkpt lat="44.31674" lon="4.13621">
        <ele>232</ele>
        <time>2022-02-08T08:07:46Z</time>
      </trkpt>
      <trkpt lat="44.31657" lon="4.13617">
        <ele>231</ele>
        <time>2022-02-08T08:07:49Z</time>
      </trkpt>
      <trkpt lat="44.31616" lon="4.13601">
        <ele>229</ele>
        <time>2022-02-08T08:07:56Z</time>
      </trkpt>
      <trkpt lat="44.31601" lon="4.13602">
        <ele>229</ele>
        <time>2022-02-08T08:07:59Z</time>
      </trkpt>
      <trkpt lat="44.31588" lon="4.13616">
        <ele>231</ele>
        <time>2022-02-08T08:08:02Z</time>
      </trkpt>
      <trkpt lat="44.31582" lon="4.13649">
        <ele>236</ele>
        <time>2022-02-08T08:08:06Z</time>
      </trkpt>
      <trkpt lat="44.3158" lon="4.13675">
        <ele>240</ele>
        <time>2022-02-08T08:08:09Z</time>
      </trkpt>
      <trkpt lat="44.31576" lon="4.13693">
        <ele>242</ele>
        <time>2022-02-08T08:08:12Z</time>
      </trkpt>
      <trkpt lat="44.31565" lon="4.13707">
        <ele>244</ele>
        <time>2022-02-08T08:08:15Z</time>
      </trkpt>
      <trkpt lat="44.31546" lon="4.13718">
        <ele>245</ele>
        <time>2022-02-08T08:08:18Z</time>
      </trkpt>
      <trkpt lat="44.31518" lon="4.13726">
        <ele>245</ele>
        <time>2022-02-08T08:08:23Z</time>
      </trkpt>
      <trkpt lat="44.31496" lon="4.1374">
        <ele>248</ele>
        <time>2022-02-08T08:08:28Z</time>
      </trkpt>
      <trkpt lat="44.31482" lon="4.13745">
        <ele>251</ele>
        <time>2022-02-08T08:08:30Z</time>
      </trkpt>
      <trkpt lat="44.31469" lon="4.13744">
        <ele>252</ele>
        <time>2022-02-08T08:08:32Z</time>
      </trkpt>
      <trkpt lat="44.31421" lon="4.13709">
        <ele>250</ele>
        <time>2022-02-08T08:08:42Z</time>
      </trkpt>
      <trkpt lat="44.31408" lon="4.13704">
        <ele>250</ele>
        <time>2022-02-08T08:08:44Z</time>
      </trkpt>
      <trkpt lat="44.31379" lon="4.13702">
        <ele>251</ele>
        <time>2022-02-08T08:08:50Z</time>
      </trkpt>
      <trkpt lat="44.31363" lon="4.13699">
        <ele>251</ele>
        <time>2022-02-08T08:08:53Z</time>
      </trkpt>
      <trkpt lat="44.31337" lon="4.13682">
        <ele>251</ele>
        <time>2022-02-08T08:08:58Z</time>
      </trkpt>
      <trkpt lat="44.31316" lon="4.13661">
        <ele>250</ele>
        <time>2022-02-08T08:09:02Z</time>
      </trkpt>
      <trkpt lat="44.31295" lon="4.13647">
        <ele>249</ele>
        <time>2022-02-08T08:09:06Z</time>
      </trkpt>
      <trkpt lat="44.31285" lon="4.13646">
        <ele>249</ele>
        <time>2022-02-08T08:09:08Z</time>
      </trkpt>
      <trkpt lat="44.31279" lon="4.13654">
        <ele>251</ele>
        <time>2022-02-08T08:09:10Z</time>
      </trkpt>
      <trkpt lat="44.31277" lon="4.13663">
        <ele>252</ele>
        <time>2022-02-08T08:09:11Z</time>
      </trkpt>
      <trkpt lat="44.3128" lon="4.13674">
        <ele>254</ele>
        <time>2022-02-08T08:09:12Z</time>
      </trkpt>
      <trkpt lat="44.31291" lon="4.13685">
        <ele>255</ele>
        <time>2022-02-08T08:09:15Z</time>
      </trkpt>
      <trkpt lat="44.31305" lon="4.13693">
        <ele>255</ele>
        <time>2022-02-08T08:09:17Z</time>
      </trkpt>
      <trkpt lat="44.31323" lon="4.13706">
        <ele>255</ele>
        <time>2022-02-08T08:09:21Z</time>
      </trkpt>
      <trkpt lat="44.31333" lon="4.13733">
        <ele>258</ele>
        <time>2022-02-08T08:09:25Z</time>
      </trkpt>
      <trkpt lat="44.31341" lon="4.13746">
        <ele>260</ele>
        <time>2022-02-08T08:09:27Z</time>
      </trkpt>
      <trkpt lat="44.31352" lon="4.13753">
        <ele>261</ele>
        <time>2022-02-08T08:09:29Z</time>
      </trkpt>
      <trkpt lat="44.31374" lon="4.13752">
        <ele>261</ele>
        <time>2022-02-08T08:09:33Z</time>
      </trkpt>
      <trkpt lat="44.31396" lon="4.13754">
        <ele>262</ele>
        <time>2022-02-08T08:09:37Z</time>
      </trkpt>
      <trkpt lat="44.31415" lon="4.13764">
        <ele>265</ele>
        <time>2022-02-08T08:09:41Z</time>
      </trkpt>
      <trkpt lat="44.31459" lon="4.13798">
        <ele>272</ele>
        <time>2022-02-08T08:09:50Z</time>
      </trkpt>
      <trkpt lat="44.31473" lon="4.13803">
        <ele>272</ele>
        <time>2022-02-08T08:09:52Z</time>
      </trkpt>
      <trkpt lat="44.31495" lon="4.1381">
        <ele>273</ele>
        <time>2022-02-08T08:09:56Z</time>
      </trkpt>
      <trkpt lat="44.31492" lon="4.13821">
        <ele>278</ele>
        <time>2022-02-08T08:09:58Z</time>
      </trkpt>
      <trkpt lat="44.31481" lon="4.13827">
        <ele>281</ele>
        <time>2022-02-08T08:10:00Z</time>
      </trkpt>
      <trkpt lat="44.31471" lon="4.13828">
        <ele>281</ele>
        <time>2022-02-08T08:10:02Z</time>
      </trkpt>
      <trkpt lat="44.3144" lon="4.13811">
        <ele>278</ele>
        <time>2022-02-08T08:10:08Z</time>
      </trkpt>
      <trkpt lat="44.31428" lon="4.13807">
        <ele>277</ele>
        <time>2022-02-08T08:10:10Z</time>
      </trkpt>
      <trkpt lat="44.31408" lon="4.13807">
        <ele>278</ele>
        <time>2022-02-08T08:10:13Z</time>
      </trkpt>
      <trkpt lat="44.31385" lon="4.13811">
        <ele>277</ele>
        <time>2022-02-08T08:10:17Z</time>
      </trkpt>
      <trkpt lat="44.31363" lon="4.13818">
        <ele>278</ele>
        <time>2022-02-08T08:10:21Z</time>
      </trkpt>
      <trkpt lat="44.31355" lon="4.13824">
        <ele>279</ele>
        <time>2022-02-08T08:10:23Z</time>
      </trkpt>
      <trkpt lat="44.31342" lon="4.13853">
        <ele>284</ele>
        <time>2022-02-08T08:10:27Z</time>
      </trkpt>
      <trkpt lat="44.31333" lon="4.13863">
        <ele>286</ele>
        <time>2022-02-08T08:10:29Z</time>
      </trkpt>
      <trkpt lat="44.31324" lon="4.13872">
        <ele>288</ele>
        <time>2022-02-08T08:10:31Z</time>
      </trkpt>
      <trkpt lat="44.31316" lon="4.13876">
        <ele>289</ele>
        <time>2022-02-08T08:10:33Z</time>
      </trkpt>
      <trkpt lat="44.31308" lon="4.13879">
        <ele>289</ele>
        <time>2022-02-08T08:10:34Z</time>
      </trkpt>
      <trkpt lat="44.3127" lon="4.1387">
        <ele>288</ele>
        <time>2022-02-08T08:10:41Z</time>
      </trkpt>
      <trkpt lat="44.31262" lon="4.13873">
        <ele>288</ele>
        <time>2022-02-08T08:10:43Z</time>
      </trkpt>
      <trkpt lat="44.31258" lon="4.13878">
        <ele>289</ele>
        <time>2022-02-08T08:10:44Z</time>
      </trkpt>
      <trkpt lat="44.31245" lon="4.13904">
        <ele>293</ele>
        <time>2022-02-08T08:10:48Z</time>
      </trkpt>
      <trkpt lat="44.3124" lon="4.1391">
        <ele>295</ele>
        <time>2022-02-08T08:10:49Z</time>
      </trkpt>
      <trkpt lat="44.31233" lon="4.13915">
        <ele>296</ele>
        <time>2022-02-08T08:10:50Z</time>
      </trkpt>
      <trkpt lat="44.31207" lon="4.13913">
        <ele>297</ele>
        <time>2022-02-08T08:10:55Z</time>
      </trkpt>
      <trkpt lat="44.31178" lon="4.13906">
        <ele>298</ele>
        <time>2022-02-08T08:11:00Z</time>
      </trkpt>
      <trkpt lat="44.31165" lon="4.13907">
        <ele>299</ele>
        <time>2022-02-08T08:11:02Z</time>
      </trkpt>
      <trkpt lat="44.31136" lon="4.13914">
        <ele>306</ele>
        <time>2022-02-08T08:11:08Z</time>
      </trkpt>
      <trkpt lat="44.31128" lon="4.13918">
        <ele>308</ele>
        <time>2022-02-08T08:11:09Z</time>
      </trkpt>
      <trkpt lat="44.31125" lon="4.1393">
        <ele>311</ele>
        <time>2022-02-08T08:11:11Z</time>
      </trkpt>
      <trkpt lat="44.31128" lon="4.13937">
        <ele>312</ele>
        <time>2022-02-08T08:11:12Z</time>
      </trkpt>
      <trkpt lat="44.31194" lon="4.14023">
        <ele>323</ele>
        <time>2022-02-08T08:11:28Z</time>
      </trkpt>
      <trkpt lat="44.31213" lon="4.14037">
        <ele>326</ele>
        <time>2022-02-08T08:11:32Z</time>
      </trkpt>
      <trkpt lat="44.31228" lon="4.14042">
        <ele>326</ele>
        <time>2022-02-08T08:11:34Z</time>
      </trkpt>
      <trkpt lat="44.31243" lon="4.1405">
        <ele>327</ele>
        <time>2022-02-08T08:11:37Z</time>
      </trkpt>
      <trkpt lat="44.31246" lon="4.14057">
        <ele>329</ele>
        <time>2022-02-08T08:11:38Z</time>
      </trkpt>
      <trkpt lat="44.31246" lon="4.14065">
        <ele>332</ele>
        <time>2022-02-08T08:11:39Z</time>
      </trkpt>
      <trkpt lat="44.31245" lon="4.14072">
        <ele>334</ele>
        <time>2022-02-08T08:11:40Z</time>
      </trkpt>
      <trkpt lat="44.31236" lon="4.14086">
        <ele>338</ele>
        <time>2022-02-08T08:11:43Z</time>
      </trkpt>
      <trkpt lat="44.31229" lon="4.14092">
        <ele>340</ele>
        <time>2022-02-08T08:11:44Z</time>
      </trkpt>
      <trkpt lat="44.31212" lon="4.14101">
        <ele>343</ele>
        <time>2022-02-08T08:11:47Z</time>
      </trkpt>
      <trkpt lat="44.31201" lon="4.14101">
        <ele>344</ele>
        <time>2022-02-08T08:11:49Z</time>
      </trkpt>
      <trkpt lat="44.3119" lon="4.14098">
        <ele>343</ele>
        <time>2022-02-08T08:11:51Z</time>
      </trkpt>
      <trkpt lat="44.31157" lon="4.14071">
        <ele>338</ele>
        <time>2022-02-08T08:11:58Z</time>
      </trkpt>
      <trkpt lat="44.31147" lon="4.14071">
        <ele>338</ele>
        <time>2022-02-08T08:12:00Z</time>
      </trkpt>
      <trkpt lat="44.31138" lon="4.14074">
        <ele>340</ele>
        <time>2022-02-08T08:12:02Z</time>
      </trkpt>
      <trkpt lat="44.3111" lon="4.14093">
        <ele>345</ele>
        <time>2022-02-08T08:12:07Z</time>
      </trkpt>
      <trkpt lat="44.31106" lon="4.14096">
        <ele>345</ele>
        <time>2022-02-08T08:12:08Z</time>
      </trkpt>
      <trkpt lat="44.31101" lon="4.141">
        <ele>346</ele>
        <time>2022-02-08T08:12:09Z</time>
      </trkpt>
      <trkpt lat="44.31095" lon="4.14106">
        <ele>346</ele>
        <time>2022-02-08T08:12:10Z</time>
      </trkpt>
      <trkpt lat="44.31092" lon="4.14108">
        <ele>346</ele>
        <time>2022-02-08T08:12:11Z</time>
      </trkpt>
      <trkpt lat="44.31088" lon="4.14116">
        <ele>347</ele>
        <time>2022-02-08T08:12:12Z</time>
      </trkpt>
      <trkpt lat="44.31081" lon="4.14135">
        <ele>348</ele>
        <time>2022-02-08T08:12:15Z</time>
      </trkpt>
      <trkpt lat="44.31072" lon="4.14157">
        <ele>348</ele>
        <time>2022-02-08T08:12:18Z</time>
      </trkpt>
      <trkpt lat="44.31042" lon="4.14205">
        <ele>347</ele>
        <time>2022-02-08T08:12:26Z</time>
      </trkpt>
      <trkpt lat="44.3099" lon="4.14279">
        <ele>337</ele>
        <time>2022-02-08T08:12:39Z</time>
      </trkpt>
      <trkpt lat="44.30971" lon="4.14308">
        <ele>337</ele>
        <time>2022-02-08T08:12:44Z</time>
      </trkpt>
      <trkpt lat="44.30956" lon="4.14332">
        <ele>337</ele>
        <time>2022-02-08T08:12:48Z</time>
      </trkpt>
      <trkpt lat="44.30909" lon="4.1442">
        <ele>333</ele>
        <time>2022-02-08T08:13:02Z</time>
      </trkpt>
      <trkpt lat="44.30899" lon="4.14431">
        <ele>333</ele>
        <time>2022-02-08T08:13:05Z</time>
      </trkpt>
      <trkpt lat="44.3089" lon="4.14436">
        <ele>333</ele>
        <time>2022-02-08T08:13:06Z</time>
      </trkpt>
      <trkpt lat="44.3088" lon="4.14438">
        <ele>333</ele>
        <time>2022-02-08T08:13:08Z</time>
      </trkpt>
      <trkpt lat="44.30868" lon="4.1443">
        <ele>335</ele>
        <time>2022-02-08T08:13:11Z</time>
      </trkpt>
      <trkpt lat="44.30857" lon="4.14416">
        <ele>338</ele>
        <time>2022-02-08T08:13:13Z</time>
      </trkpt>
      <trkpt lat="44.30847" lon="4.14416">
        <ele>339</ele>
        <time>2022-02-08T08:13:15Z</time>
      </trkpt>
      <trkpt lat="44.30838" lon="4.14425">
        <ele>338</ele>
        <time>2022-02-08T08:13:17Z</time>
      </trkpt>
      <trkpt lat="44.30805" lon="4.14485">
        <ele>334</ele>
        <time>2022-02-08T08:13:27Z</time>
      </trkpt>
      <trkpt lat="44.30773" lon="4.1455">
        <ele>333</ele>
        <time>2022-02-08T08:13:37Z</time>
      </trkpt>
      <trkpt lat="44.30764" lon="4.14562">
        <ele>333</ele>
        <time>2022-02-08T08:13:39Z</time>
      </trkpt>
      <trkpt lat="44.30751" lon="4.14577">
        <ele>333</ele>
        <time>2022-02-08T08:13:42Z</time>
      </trkpt>
      <trkpt lat="44.30742" lon="4.14589">
        <ele>332</ele>
        <time>2022-02-08T08:13:44Z</time>
      </trkpt>
      <trkpt lat="44.3069" lon="4.14636">
        <ele>329</ele>
        <time>2022-02-08T08:13:55Z</time>
      </trkpt>
      <trkpt lat="44.30589" lon="4.14734">
        <ele>326</ele>
        <time>2022-02-08T08:14:17Z</time>
      </trkpt>
      <trkpt lat="44.30561" lon="4.14761">
        <ele>326</ele>
        <time>2022-02-08T08:14:23Z</time>
      </trkpt>
      <trkpt lat="44.30507" lon="4.14801">
        <ele>325</ele>
        <time>2022-02-08T08:14:34Z</time>
      </trkpt>
      <trkpt lat="44.30402" lon="4.14874">
        <ele>314</ele>
        <time>2022-02-08T08:14:55Z</time>
      </trkpt>
      <trkpt lat="44.3035" lon="4.14907">
        <ele>312</ele>
        <time>2022-02-08T08:15:05Z</time>
      </trkpt>
      <trkpt lat="44.30331" lon="4.1492">
        <ele>311</ele>
        <time>2022-02-08T08:15:09Z</time>
      </trkpt>
      <trkpt lat="44.30263" lon="4.14966">
        <ele>307</ele>
        <time>2022-02-08T08:15:22Z</time>
      </trkpt>
      <trkpt lat="44.3023" lon="4.14989">
        <ele>307</ele>
        <time>2022-02-08T08:15:29Z</time>
      </trkpt>
      <trkpt lat="44.30201" lon="4.15034">
        <ele>306</ele>
        <time>2022-02-08T08:15:36Z</time>
      </trkpt>
      <trkpt lat="44.30148" lon="4.15134">
        <ele>301</ele>
        <time>2022-02-08T08:15:52Z</time>
      </trkpt>
      <trkpt lat="44.30127" lon="4.15171">
        <ele>299</ele>
        <time>2022-02-08T08:15:58Z</time>
      </trkpt>
      <trkpt lat="44.3011" lon="4.15205">
        <ele>299</ele>
        <time>2022-02-08T08:16:04Z</time>
      </trkpt>
      <trkpt lat="44.30105" lon="4.15224">
        <ele>299</ele>
        <time>2022-02-08T08:16:06Z</time>
      </trkpt>
      <trkpt lat="44.30103" lon="4.15254">
        <ele>298</ele>
        <time>2022-02-08T08:16:10Z</time>
      </trkpt>
      <trkpt lat="44.30101" lon="4.15275">
        <ele>297</ele>
        <time>2022-02-08T08:16:13Z</time>
      </trkpt>
      <trkpt lat="44.30098" lon="4.15285">
        <ele>297</ele>
        <time>2022-02-08T08:16:14Z</time>
      </trkpt>
      <trkpt lat="44.30096" lon="4.15288">
        <ele>297</ele>
        <time>2022-02-08T08:16:15Z</time>
      </trkpt>
      <trkpt lat="44.30095" lon="4.1529">
        <ele>297</ele>
        <time>2022-02-08T08:16:15Z</time>
      </trkpt>
      <trkpt lat="44.30086" lon="4.15304">
        <ele>296</ele>
        <time>2022-02-08T08:16:17Z</time>
      </trkpt>
      <trkpt lat="44.30078" lon="4.15316">
        <ele>295</ele>
        <time>2022-02-08T08:16:19Z</time>
      </trkpt>
      <trkpt lat="44.30051" lon="4.15351">
        <ele>294</ele>
        <time>2022-02-08T08:16:26Z</time>
      </trkpt>
      <trkpt lat="44.30016" lon="4.15398">
        <ele>292</ele>
        <time>2022-02-08T08:16:35Z</time>
      </trkpt>
      <trkpt lat="44.30009" lon="4.15406">
        <ele>292</ele>
        <time>2022-02-08T08:16:36Z</time>
      </trkpt>
      <trkpt lat="44.29975" lon="4.15449">
        <ele>292</ele>
        <time>2022-02-08T08:16:44Z</time>
      </trkpt>
      <trkpt lat="44.29969" lon="4.15462">
        <ele>292</ele>
        <time>2022-02-08T08:16:46Z</time>
      </trkpt>
      <trkpt lat="44.29963" lon="4.1548">
        <ele>292</ele>
        <time>2022-02-08T08:16:49Z</time>
      </trkpt>
      <trkpt lat="44.29945" lon="4.1551">
        <ele>292</ele>
        <time>2022-02-08T08:16:54Z</time>
      </trkpt>
      <trkpt lat="44.2993" lon="4.15548">
        <ele>292</ele>
        <time>2022-02-08T08:16:59Z</time>
      </trkpt>
      <trkpt lat="44.29929" lon="4.15561">
        <ele>291</ele>
        <time>2022-02-08T08:17:01Z</time>
      </trkpt>
      <trkpt lat="44.29935" lon="4.15614">
        <ele>289</ele>
        <time>2022-02-08T08:17:08Z</time>
      </trkpt>
      <trkpt lat="44.29926" lon="4.15694">
        <ele>289</ele>
        <time>2022-02-08T08:17:18Z</time>
      </trkpt>
      <trkpt lat="44.29925" lon="4.15703">
        <ele>289</ele>
        <time>2022-02-08T08:17:19Z</time>
      </trkpt>
      <trkpt lat="44.29917" lon="4.15779">
        <ele>291</ele>
        <time>2022-02-08T08:17:29Z</time>
      </trkpt>
      <trkpt lat="44.29916" lon="4.15787">
        <ele>291</ele>
        <time>2022-02-08T08:17:30Z</time>
      </trkpt>
      <trkpt lat="44.29913" lon="4.1582">
        <ele>292</ele>
        <time>2022-02-08T08:17:34Z</time>
      </trkpt>
      <trkpt lat="44.29903" lon="4.15887">
        <ele>291</ele>
        <time>2022-02-08T08:17:43Z</time>
      </trkpt>
      <trkpt lat="44.29901" lon="4.15897">
        <ele>290</ele>
        <time>2022-02-08T08:17:44Z</time>
      </trkpt>
      <trkpt lat="44.29896" lon="4.15919">
        <ele>289</ele>
        <time>2022-02-08T08:17:47Z</time>
      </trkpt>
      <trkpt lat="44.2989" lon="4.15949">
        <ele>286</ele>
        <time>2022-02-08T08:17:51Z</time>
      </trkpt>
      <trkpt lat="44.29891" lon="4.16009">
        <ele>281</ele>
        <time>2022-02-08T08:17:59Z</time>
      </trkpt>
      <trkpt lat="44.29884" lon="4.16087">
        <ele>277</ele>
        <time>2022-02-08T08:18:09Z</time>
      </trkpt>
      <trkpt lat="44.29882" lon="4.16138">
        <ele>276</ele>
        <time>2022-02-08T08:18:15Z</time>
      </trkpt>
      <trkpt lat="44.29876" lon="4.16248">
        <ele>273</ele>
        <time>2022-02-08T08:18:30Z</time>
      </trkpt>
      <trkpt lat="44.29853" lon="4.16322">
        <ele>273</ele>
        <time>2022-02-08T08:18:40Z</time>
      </trkpt>
      <trkpt lat="44.29822" lon="4.16391">
        <ele>275</ele>
        <time>2022-02-08T08:18:50Z</time>
      </trkpt>
      <trkpt lat="44.29782" lon="4.16464">
        <ele>271</ele>
        <time>2022-02-08T08:19:02Z</time>
      </trkpt>
      <trkpt lat="44.29751" lon="4.16509">
        <ele>270</ele>
        <time>2022-02-08T08:19:10Z</time>
      </trkpt>
      <trkpt lat="44.29707" lon="4.16624">
        <ele>267</ele>
        <time>2022-02-08T08:19:26Z</time>
      </trkpt>
      <trkpt lat="44.29682" lon="4.16733">
        <ele>270</ele>
        <time>2022-02-08T08:19:41Z</time>
      </trkpt>
      <trkpt lat="44.29634" lon="4.169">
        <ele>266</ele>
        <time>2022-02-08T08:20:04Z</time>
      </trkpt>
      <trkpt lat="44.29603" lon="4.17002">
        <ele>263</ele>
        <time>2022-02-08T08:20:18Z</time>
      </trkpt>
      <trkpt lat="44.29537" lon="4.17128">
        <ele>267</ele>
        <time>2022-02-08T08:20:38Z</time>
      </trkpt>
      <trkpt lat="44.29515" lon="4.17158">
        <ele>268</ele>
        <time>2022-02-08T08:20:43Z</time>
      </trkpt>
      <trkpt lat="44.29501" lon="4.17191">
        <ele>268</ele>
        <time>2022-02-08T08:20:48Z</time>
      </trkpt>
      <trkpt lat="44.29494" lon="4.17222">
        <ele>266</ele>
        <time>2022-02-08T08:20:52Z</time>
      </trkpt>
      <trkpt lat="44.29474" lon="4.1739">
        <ele>258</ele>
        <time>2022-02-08T08:21:14Z</time>
      </trkpt>
      <trkpt lat="44.29472" lon="4.17421">
        <ele>257</ele>
        <time>2022-02-08T08:21:18Z</time>
      </trkpt>
      <trkpt lat="44.29476" lon="4.17551">
        <ele>261</ele>
        <time>2022-02-08T08:21:35Z</time>
      </trkpt>
      <trkpt lat="44.29476" lon="4.17693">
        <ele>263</ele>
        <time>2022-02-08T08:21:53Z</time>
      </trkpt>
      <trkpt lat="44.29479" lon="4.17719">
        <ele>263</ele>
        <time>2022-02-08T08:21:56Z</time>
      </trkpt>
      <trkpt lat="44.29489" lon="4.17742">
        <ele>263</ele>
        <time>2022-02-08T08:21:59Z</time>
      </trkpt>
      <trkpt lat="44.295" lon="4.17756">
        <ele>264</ele>
        <time>2022-02-08T08:22:02Z</time>
      </trkpt>
      <trkpt lat="44.29512" lon="4.17776">
        <ele>264</ele>
        <time>2022-02-08T08:22:05Z</time>
      </trkpt>
      <trkpt lat="44.29521" lon="4.17783">
        <ele>264</ele>
        <time>2022-02-08T08:22:07Z</time>
      </trkpt>
      <trkpt lat="44.29524" lon="4.17786">
        <ele>264</ele>
        <time>2022-02-08T08:22:08Z</time>
      </trkpt>
      <trkpt lat="44.29493" lon="4.17851">
        <ele>264</ele>
        <time>2022-02-08T08:22:18Z</time>
      </trkpt>
      <trkpt lat="44.29473" lon="4.17896">
        <ele>264</ele>
        <time>2022-02-08T08:22:25Z</time>
      </trkpt>
      <trkpt lat="44.29463" lon="4.17925">
        <ele>263</ele>
        <time>2022-02-08T08:22:29Z</time>
      </trkpt>
      <trkpt lat="44.29453" lon="4.17982">
        <ele>259</ele>
        <time>2022-02-08T08:22:36Z</time>
      </trkpt>
      <trkpt lat="44.29448" lon="4.18005">
        <ele>257</ele>
        <time>2022-02-08T08:22:39Z</time>
      </trkpt>
      <trkpt lat="44.29436" lon="4.18057">
        <ele>255</ele>
        <time>2022-02-08T08:22:46Z</time>
      </trkpt>
      <trkpt lat="44.29401" lon="4.18149">
        <ele>253</ele>
        <time>2022-02-08T08:23:00Z</time>
      </trkpt>
      <trkpt lat="44.29366" lon="4.18227">
        <ele>253</ele>
        <time>2022-02-08T08:23:11Z</time>
      </trkpt>
      <trkpt lat="44.29349" lon="4.18255">
        <ele>254</ele>
        <time>2022-02-08T08:23:16Z</time>
      </trkpt>
      <trkpt lat="44.29326" lon="4.18276">
        <ele>254</ele>
        <time>2022-02-08T08:23:21Z</time>
      </trkpt>
      <trkpt lat="44.29302" lon="4.18281">
        <ele>253</ele>
        <time>2022-02-08T08:23:25Z</time>
      </trkpt>
      <trkpt lat="44.29273" lon="4.18281">
        <ele>251</ele>
        <time>2022-02-08T08:23:30Z</time>
      </trkpt>
      <trkpt lat="44.29253" lon="4.18272">
        <ele>248</ele>
        <time>2022-02-08T08:23:34Z</time>
      </trkpt>
      <trkpt lat="44.29214" lon="4.18242">
        <ele>244</ele>
        <time>2022-02-08T08:23:42Z</time>
      </trkpt>
      <trkpt lat="44.29192" lon="4.18233">
        <ele>242</ele>
        <time>2022-02-08T08:23:46Z</time>
      </trkpt>
      <trkpt lat="44.29164" lon="4.18231">
        <ele>242</ele>
        <time>2022-02-08T08:23:51Z</time>
      </trkpt>
      <trkpt lat="44.2914" lon="4.18242">
        <ele>239</ele>
        <time>2022-02-08T08:23:55Z</time>
      </trkpt>
      <trkpt lat="44.29119" lon="4.18259">
        <ele>237</ele>
        <time>2022-02-08T08:24:00Z</time>
      </trkpt>
      <trkpt lat="44.29087" lon="4.18304">
        <ele>237</ele>
        <time>2022-02-08T08:24:08Z</time>
      </trkpt>
      <trkpt lat="44.29068" lon="4.18325">
        <ele>238</ele>
        <time>2022-02-08T08:24:12Z</time>
      </trkpt>
      <trkpt lat="44.29047" lon="4.18338">
        <ele>238</ele>
        <time>2022-02-08T08:24:16Z</time>
      </trkpt>
      <trkpt lat="44.29026" lon="4.18341">
        <ele>236</ele>
        <time>2022-02-08T08:24:20Z</time>
      </trkpt>
      <trkpt lat="44.29" lon="4.18338">
        <ele>232</ele>
        <time>2022-02-08T08:24:25Z</time>
      </trkpt>
      <trkpt lat="44.28979" lon="4.18326">
        <ele>232</ele>
        <time>2022-02-08T08:24:29Z</time>
      </trkpt>
      <trkpt lat="44.28967" lon="4.18317">
        <ele>232</ele>
        <time>2022-02-08T08:24:31Z</time>
      </trkpt>
      <trkpt lat="44.2892" lon="4.18257">
        <ele>224</ele>
        <time>2022-02-08T08:24:42Z</time>
      </trkpt>
      <trkpt lat="44.28903" lon="4.18245">
        <ele>222</ele>
        <time>2022-02-08T08:24:46Z</time>
      </trkpt>
      <trkpt lat="44.28883" lon="4.18238">
        <ele>222</ele>
        <time>2022-02-08T08:24:50Z</time>
      </trkpt>
      <trkpt lat="44.28864" lon="4.18237">
        <ele>222</ele>
        <time>2022-02-08T08:24:53Z</time>
      </trkpt>
      <trkpt lat="44.28841" lon="4.18245">
        <ele>225</ele>
        <time>2022-02-08T08:24:57Z</time>
      </trkpt>
      <trkpt lat="44.28752" lon="4.18281">
        <ele>221</ele>
        <time>2022-02-08T08:25:14Z</time>
      </trkpt>
      <trkpt lat="44.28722" lon="4.18304">
        <ele>218</ele>
        <time>2022-02-08T08:25:20Z</time>
      </trkpt>
      <trkpt lat="44.28703" lon="4.18335">
        <ele>217</ele>
        <time>2022-02-08T08:25:25Z</time>
      </trkpt>
      <trkpt lat="44.28697" lon="4.18355">
        <ele>215</ele>
        <time>2022-02-08T08:25:28Z</time>
      </trkpt>
      <trkpt lat="44.28692" lon="4.18382">
        <ele>214</ele>
        <time>2022-02-08T08:25:31Z</time>
      </trkpt>
      <trkpt lat="44.28686" lon="4.18445">
        <ele>213</ele>
        <time>2022-02-08T08:25:39Z</time>
      </trkpt>
      <trkpt lat="44.28679" lon="4.18484">
        <ele>213</ele>
        <time>2022-02-08T08:25:44Z</time>
      </trkpt>
      <trkpt lat="44.28668" lon="4.18525">
        <ele>214</ele>
        <time>2022-02-08T08:25:50Z</time>
      </trkpt>
      <trkpt lat="44.28646" lon="4.18575">
        <ele>214</ele>
        <time>2022-02-08T08:25:57Z</time>
      </trkpt>
      <trkpt lat="44.28605" lon="4.18633">
        <ele>210</ele>
        <time>2022-02-08T08:26:08Z</time>
      </trkpt>
      <trkpt lat="44.28568" lon="4.1868">
        <ele>206</ele>
        <time>2022-02-08T08:26:17Z</time>
      </trkpt>
      <trkpt lat="44.28528" lon="4.18738">
        <ele>205</ele>
        <time>2022-02-08T08:26:27Z</time>
      </trkpt>
      <trkpt lat="44.28514" lon="4.18761">
        <ele>204</ele>
        <time>2022-02-08T08:26:31Z</time>
      </trkpt>
      <trkpt lat="44.28496" lon="4.1881">
        <ele>202</ele>
        <time>2022-02-08T08:26:38Z</time>
      </trkpt>
      <trkpt lat="44.28482" lon="4.18891">
        <ele>199</ele>
        <time>2022-02-08T08:26:49Z</time>
      </trkpt>
      <trkpt lat="44.2847" lon="4.18938">
        <ele>197</ele>
        <time>2022-02-08T08:26:55Z</time>
      </trkpt>
      <trkpt lat="44.28447" lon="4.18999">
        <ele>195</ele>
        <time>2022-02-08T08:27:04Z</time>
      </trkpt>
      <trkpt lat="44.28426" lon="4.19044">
        <ele>192</ele>
        <time>2022-02-08T08:27:10Z</time>
      </trkpt>
      <trkpt lat="44.2841" lon="4.19085">
        <ele>190</ele>
        <time>2022-02-08T08:27:16Z</time>
      </trkpt>
      <trkpt lat="44.2839" lon="4.19138">
        <ele>189</ele>
        <time>2022-02-08T08:27:24Z</time>
      </trkpt>
      <trkpt lat="44.28385" lon="4.1915">
        <ele>189</ele>
        <time>2022-02-08T08:27:26Z</time>
      </trkpt>
      <trkpt lat="44.28378" lon="4.19179">
        <ele>188</ele>
        <time>2022-02-08T08:27:30Z</time>
      </trkpt>
      <trkpt lat="44.28334" lon="4.19359">
        <ele>183</ele>
        <time>2022-02-08T08:27:54Z</time>
      </trkpt>
      <trkpt lat="44.2831" lon="4.19463">
        <ele>184</ele>
        <time>2022-02-08T08:28:08Z</time>
      </trkpt>
      <trkpt lat="44.28284" lon="4.19566">
        <ele>181</ele>
        <time>2022-02-08T08:28:22Z</time>
      </trkpt>
      <trkpt lat="44.28272" lon="4.19608">
        <ele>179</ele>
        <time>2022-02-08T08:28:28Z</time>
      </trkpt>
      <trkpt lat="44.28253" lon="4.19636">
        <ele>178</ele>
        <time>2022-02-08T08:28:32Z</time>
      </trkpt>
      <trkpt lat="44.28225" lon="4.19661">
        <ele>177</ele>
        <time>2022-02-08T08:28:38Z</time>
      </trkpt>
      <trkpt lat="44.28174" lon="4.19699">
        <ele>177</ele>
        <time>2022-02-08T08:28:49Z</time>
      </trkpt>
      <trkpt lat="44.28106" lon="4.19729">
        <ele>177</ele>
        <time>2022-02-08T08:29:01Z</time>
      </trkpt>
      <trkpt lat="44.28029" lon="4.19802">
        <ele>175</ele>
        <time>2022-02-08T08:29:18Z</time>
      </trkpt>
      <trkpt lat="44.27996" lon="4.19827">
        <ele>173</ele>
        <time>2022-02-08T08:29:25Z</time>
      </trkpt>
      <trkpt lat="44.27976" lon="4.19834">
        <ele>171</ele>
        <time>2022-02-08T08:29:28Z</time>
      </trkpt>
      <trkpt lat="44.27917" lon="4.19848">
        <ele>169</ele>
        <time>2022-02-08T08:29:39Z</time>
      </trkpt>
      <trkpt lat="44.27883" lon="4.19853">
        <ele>168</ele>
        <time>2022-02-08T08:29:45Z</time>
      </trkpt>
      <trkpt lat="44.27878" lon="4.19853">
        <ele>168</ele>
        <time>2022-02-08T08:29:46Z</time>
      </trkpt>
      <trkpt lat="44.27815" lon="4.19857">
        <ele>168</ele>
        <time>2022-02-08T08:29:57Z</time>
      </trkpt>
      <trkpt lat="44.27767" lon="4.1986">
        <ele>168</ele>
        <time>2022-02-08T08:30:06Z</time>
      </trkpt>
      <trkpt lat="44.27757" lon="4.19861">
        <ele>169</ele>
        <time>2022-02-08T08:30:07Z</time>
      </trkpt>
      <trkpt lat="44.27754" lon="4.19861">
        <ele>169</ele>
        <time>2022-02-08T08:30:08Z</time>
      </trkpt>
      <trkpt lat="44.27744" lon="4.19861">
        <ele>168</ele>
        <time>2022-02-08T08:30:10Z</time>
      </trkpt>
      <trkpt lat="44.27738" lon="4.19862">
        <ele>168</ele>
        <time>2022-02-08T08:30:11Z</time>
      </trkpt>
      <trkpt lat="44.27695" lon="4.19864">
        <ele>165</ele>
        <time>2022-02-08T08:30:18Z</time>
      </trkpt>
      <trkpt lat="44.27663" lon="4.19857">
        <ele>163</ele>
        <time>2022-02-08T08:30:24Z</time>
      </trkpt>
      <trkpt lat="44.27602" lon="4.19827">
        <ele>160</ele>
        <time>2022-02-08T08:30:36Z</time>
      </trkpt>
      <trkpt lat="44.27579" lon="4.19818">
        <ele>159</ele>
        <time>2022-02-08T08:30:40Z</time>
      </trkpt>
      <trkpt lat="44.27563" lon="4.19819">
        <ele>159</ele>
        <time>2022-02-08T08:30:43Z</time>
      </trkpt>
      <trkpt lat="44.27551" lon="4.19828">
        <ele>157</ele>
        <time>2022-02-08T08:30:45Z</time>
      </trkpt>
      <trkpt lat="44.27538" lon="4.19845">
        <ele>156</ele>
        <time>2022-02-08T08:30:48Z</time>
      </trkpt>
      <trkpt lat="44.27524" lon="4.19893">
        <ele>157</ele>
        <time>2022-02-08T08:30:55Z</time>
      </trkpt>
      <trkpt lat="44.27517" lon="4.19909">
        <ele>157</ele>
        <time>2022-02-08T08:30:57Z</time>
      </trkpt>
      <trkpt lat="44.27507" lon="4.19918">
        <ele>158</ele>
        <time>2022-02-08T08:31:00Z</time>
      </trkpt>
      <trkpt lat="44.27493" lon="4.1992">
        <ele>158</ele>
        <time>2022-02-08T08:31:02Z</time>
      </trkpt>
      <trkpt lat="44.27474" lon="4.19918">
        <ele>158</ele>
        <time>2022-02-08T08:31:05Z</time>
      </trkpt>
      <trkpt lat="44.27444" lon="4.19908">
        <ele>157</ele>
        <time>2022-02-08T08:31:11Z</time>
      </trkpt>
      <trkpt lat="44.27416" lon="4.19893">
        <ele>156</ele>
        <time>2022-02-08T08:31:16Z</time>
      </trkpt>
      <trkpt lat="44.27318" lon="4.19833">
        <ele>153</ele>
        <time>2022-02-08T08:31:35Z</time>
      </trkpt>
      <trkpt lat="44.27284" lon="4.19811">
        <ele>154</ele>
        <time>2022-02-08T08:31:42Z</time>
      </trkpt>
      <trkpt lat="44.27208" lon="4.19727">
        <ele>155</ele>
        <time>2022-02-08T08:31:59Z</time>
      </trkpt>
      <trkpt lat="44.27076" lon="4.1962">
        <ele>152</ele>
        <time>2022-02-08T08:32:26Z</time>
      </trkpt>
      <trkpt lat="44.27058" lon="4.19612">
        <ele>151</ele>
        <time>2022-02-08T08:32:30Z</time>
      </trkpt>
      <trkpt lat="44.27005" lon="4.196">
        <ele>150</ele>
        <time>2022-02-08T08:32:39Z</time>
      </trkpt>
      <trkpt lat="44.26926" lon="4.19581">
        <ele>144</ele>
        <time>2022-02-08T08:32:54Z</time>
      </trkpt>
      <trkpt lat="44.26883" lon="4.1958">
        <ele>143</ele>
        <time>2022-02-08T08:33:01Z</time>
      </trkpt>
      <trkpt lat="44.26787" lon="4.19573">
        <ele>142</ele>
        <time>2022-02-08T08:33:18Z</time>
      </trkpt>
      <trkpt lat="44.26773" lon="4.19576">
        <ele>142</ele>
        <time>2022-02-08T08:33:21Z</time>
      </trkpt>
      <trkpt lat="44.26769" lon="4.1958">
        <ele>142</ele>
        <time>2022-02-08T08:33:22Z</time>
      </trkpt>
      <trkpt lat="44.26762" lon="4.19585">
        <ele>142</ele>
        <time>2022-02-08T08:33:23Z</time>
      </trkpt>
      <trkpt lat="44.26749" lon="4.196">
        <ele>142</ele>
        <time>2022-02-08T08:33:26Z</time>
      </trkpt>
      <trkpt lat="44.26705" lon="4.19678">
        <ele>142</ele>
        <time>2022-02-08T08:33:39Z</time>
      </trkpt>
      <trkpt lat="44.26694" lon="4.19701">
        <ele>142</ele>
        <time>2022-02-08T08:33:42Z</time>
      </trkpt>
      <trkpt lat="44.26673" lon="4.1974">
        <ele>141</ele>
        <time>2022-02-08T08:33:48Z</time>
      </trkpt>
      <trkpt lat="44.26671" lon="4.19744">
        <ele>141</ele>
        <time>2022-02-08T08:33:49Z</time>
      </trkpt>
      <trkpt lat="44.26641" lon="4.19806">
        <ele>141</ele>
        <time>2022-02-08T08:33:59Z</time>
      </trkpt>
      <trkpt lat="44.26625" lon="4.19833">
        <ele>141</ele>
        <time>2022-02-08T08:34:03Z</time>
      </trkpt>
      <trkpt lat="44.2662" lon="4.19843">
        <ele>142</ele>
        <time>2022-02-08T08:34:05Z</time>
      </trkpt>
      <trkpt lat="44.26587" lon="4.19906">
        <ele>143</ele>
        <time>2022-02-08T08:34:15Z</time>
      </trkpt>
      <trkpt lat="44.26581" lon="4.19918">
        <ele>143</ele>
        <time>2022-02-08T08:34:16Z</time>
      </trkpt>
      <trkpt lat="44.26572" lon="4.19935">
        <ele>143</ele>
        <time>2022-02-08T08:34:19Z</time>
      </trkpt>
      <trkpt lat="44.26537" lon="4.19999">
        <ele>144</ele>
        <time>2022-02-08T08:34:29Z</time>
      </trkpt>
      <trkpt lat="44.26523" lon="4.20018">
        <ele>144</ele>
        <time>2022-02-08T08:34:33Z</time>
      </trkpt>
      <trkpt lat="44.26497" lon="4.20039">
        <ele>143</ele>
        <time>2022-02-08T08:34:38Z</time>
      </trkpt>
      <trkpt lat="44.26481" lon="4.20052">
        <ele>143</ele>
        <time>2022-02-08T08:34:42Z</time>
      </trkpt>
      <trkpt lat="44.26454" lon="4.20058">
        <ele>142</ele>
        <time>2022-02-08T08:34:46Z</time>
      </trkpt>
      <trkpt lat="44.26396" lon="4.20043">
        <ele>140</ele>
        <time>2022-02-08T08:34:57Z</time>
      </trkpt>
      <trkpt lat="44.26356" lon="4.20028">
        <ele>139</ele>
        <time>2022-02-08T08:35:04Z</time>
      </trkpt>
      <trkpt lat="44.26351" lon="4.20026">
        <ele>139</ele>
        <time>2022-02-08T08:35:05Z</time>
      </trkpt>
      <trkpt lat="44.26339" lon="4.20022">
        <ele>138</ele>
        <time>2022-02-08T08:35:07Z</time>
      </trkpt>
      <trkpt lat="44.26337" lon="4.20021">
        <ele>138</ele>
        <time>2022-02-08T08:35:08Z</time>
      </trkpt>
      <trkpt lat="44.26238" lon="4.19987">
        <ele>141</ele>
        <time>2022-02-08T08:35:26Z</time>
      </trkpt>
      <trkpt lat="44.26229" lon="4.19983">
        <ele>141</ele>
        <time>2022-02-08T08:35:28Z</time>
      </trkpt>
      <trkpt lat="44.2622" lon="4.1998">
        <ele>142</ele>
        <time>2022-02-08T08:35:29Z</time>
      </trkpt>
      <trkpt lat="44.26181" lon="4.19945">
        <ele>143</ele>
        <time>2022-02-08T08:35:37Z</time>
      </trkpt>
      <trkpt lat="44.26142" lon="4.19907">
        <ele>145</ele>
        <time>2022-02-08T08:35:46Z</time>
      </trkpt>
      <trkpt lat="44.26097" lon="4.19857">
        <ele>148</ele>
        <time>2022-02-08T08:35:56Z</time>
      </trkpt>
      <trkpt lat="44.2609" lon="4.19848">
        <ele>149</ele>
        <time>2022-02-08T08:35:58Z</time>
      </trkpt>
      <trkpt lat="44.26069" lon="4.19825">
        <ele>149</ele>
        <time>2022-02-08T08:36:03Z</time>
      </trkpt>
      <trkpt lat="44.26065" lon="4.1982">
        <ele>149</ele>
        <time>2022-02-08T08:36:04Z</time>
      </trkpt>
      <trkpt lat="44.2605" lon="4.19851">
        <ele>149</ele>
        <time>2022-02-08T08:36:08Z</time>
      </trkpt>
      <trkpt lat="44.26048" lon="4.19855">
        <ele>149</ele>
        <time>2022-02-08T08:36:09Z</time>
      </trkpt>
      <trkpt lat="44.26035" lon="4.19886">
        <ele>149</ele>
        <time>2022-02-08T08:36:14Z</time>
      </trkpt>
      <trkpt lat="44.26022" lon="4.19914">
        <ele>149</ele>
        <time>2022-02-08T08:36:18Z</time>
      </trkpt>
      <trkpt lat="44.26018" lon="4.19923">
        <ele>149</ele>
        <time>2022-02-08T08:36:19Z</time>
      </trkpt>
      <trkpt lat="44.26012" lon="4.19934">
        <ele>149</ele>
        <time>2022-02-08T08:36:21Z</time>
      </trkpt>
      <trkpt lat="44.25958" lon="4.20052">
        <ele>147</ele>
        <time>2022-02-08T08:36:39Z</time>
      </trkpt>
      <trkpt lat="44.25953" lon="4.20063">
        <ele>147</ele>
        <time>2022-02-08T08:36:40Z</time>
      </trkpt>
      <trkpt lat="44.25933" lon="4.20107">
        <ele>146</ele>
        <time>2022-02-08T08:36:47Z</time>
      </trkpt>
      <trkpt lat="44.25928" lon="4.20118">
        <ele>146</ele>
        <time>2022-02-08T08:36:49Z</time>
      </trkpt>
      <trkpt lat="44.25925" lon="4.20126">
        <ele>146</ele>
        <time>2022-02-08T08:36:50Z</time>
      </trkpt>
      <trkpt lat="44.25818" lon="4.2037">
        <ele>156</ele>
        <time>2022-02-08T08:37:26Z</time>
      </trkpt>
      <trkpt lat="44.25789" lon="4.20458">
        <ele>154</ele>
        <time>2022-02-08T08:37:39Z</time>
      </trkpt>
      <trkpt lat="44.25782" lon="4.20486">
        <ele>153</ele>
        <time>2022-02-08T08:37:42Z</time>
      </trkpt>
      <trkpt lat="44.2578" lon="4.20501">
        <ele>152</ele>
        <time>2022-02-08T08:37:44Z</time>
      </trkpt>
      <trkpt lat="44.25778" lon="4.20501">
        <ele>152</ele>
        <time>2022-02-08T08:37:45Z</time>
      </trkpt>
      <trkpt lat="44.25773" lon="4.20505">
        <ele>153</ele>
        <time>2022-02-08T08:37:46Z</time>
      </trkpt>
      <trkpt lat="44.25771" lon="4.20512">
        <ele>154</ele>
        <time>2022-02-08T08:37:47Z</time>
      </trkpt>
      <trkpt lat="44.25771" lon="4.20516">
        <ele>153</ele>
        <time>2022-02-08T08:37:47Z</time>
      </trkpt>
      <trkpt lat="44.25754" lon="4.20525">
        <ele>157</ele>
        <time>2022-02-08T08:37:50Z</time>
      </trkpt>
      <trkpt lat="44.25742" lon="4.20534">
        <ele>157</ele>
        <time>2022-02-08T08:37:53Z</time>
      </trkpt>
      <trkpt lat="44.25717" lon="4.20543">
        <ele>156</ele>
        <time>2022-02-08T08:37:57Z</time>
      </trkpt>
      <trkpt lat="44.25699" lon="4.20543">
        <ele>155</ele>
        <time>2022-02-08T08:38:01Z</time>
      </trkpt>
      <trkpt lat="44.25691" lon="4.20542">
        <ele>155</ele>
        <time>2022-02-08T08:38:02Z</time>
      </trkpt>
      <trkpt lat="44.25676" lon="4.20536">
        <ele>156</ele>
        <time>2022-02-08T08:38:05Z</time>
      </trkpt>
      <trkpt lat="44.25658" lon="4.2052">
        <ele>156</ele>
        <time>2022-02-08T08:38:09Z</time>
      </trkpt>
      <trkpt lat="44.25648" lon="4.20506">
        <ele>156</ele>
        <time>2022-02-08T08:38:11Z</time>
      </trkpt>
      <trkpt lat="44.2564" lon="4.20497">
        <ele>156</ele>
        <time>2022-02-08T08:38:13Z</time>
      </trkpt>
      <trkpt lat="44.25561" lon="4.20384">
        <ele>153</ele>
        <time>2022-02-08T08:38:33Z</time>
      </trkpt>
      <trkpt lat="44.25554" lon="4.20374">
        <ele>153</ele>
        <time>2022-02-08T08:38:35Z</time>
      </trkpt>
      <trkpt lat="44.25475" lon="4.20265">
        <ele>146</ele>
        <time>2022-02-08T08:38:55Z</time>
      </trkpt>
      <trkpt lat="44.25448" lon="4.20233">
        <ele>144</ele>
        <time>2022-02-08T08:39:01Z</time>
      </trkpt>
      <trkpt lat="44.25426" lon="4.20215">
        <ele>142</ele>
        <time>2022-02-08T08:39:06Z</time>
      </trkpt>
      <trkpt lat="44.25411" lon="4.20204">
        <ele>141</ele>
        <time>2022-02-08T08:39:09Z</time>
      </trkpt>
      <trkpt lat="44.254" lon="4.20196">
        <ele>141</ele>
        <time>2022-02-08T08:39:11Z</time>
      </trkpt>
      <trkpt lat="44.25339" lon="4.20155">
        <ele>140</ele>
        <time>2022-02-08T08:39:23Z</time>
      </trkpt>
      <trkpt lat="44.253" lon="4.20133">
        <ele>140</ele>
        <time>2022-02-08T08:39:30Z</time>
      </trkpt>
      <trkpt lat="44.25281" lon="4.20121">
        <ele>140</ele>
        <time>2022-02-08T08:39:34Z</time>
      </trkpt>
      <trkpt lat="44.25244" lon="4.20099">
        <ele>139</ele>
        <time>2022-02-08T08:39:41Z</time>
      </trkpt>
      <trkpt lat="44.25086" lon="4.20003">
        <ele>137</ele>
        <time>2022-02-08T08:40:12Z</time>
      </trkpt>
      <trkpt lat="44.25072" lon="4.19995">
        <ele>137</ele>
        <time>2022-02-08T08:40:15Z</time>
      </trkpt>
      <trkpt lat="44.25059" lon="4.19987">
        <ele>137</ele>
        <time>2022-02-08T08:40:17Z</time>
      </trkpt>
      <trkpt lat="44.25029" lon="4.19969">
        <ele>136</ele>
        <time>2022-02-08T08:40:23Z</time>
      </trkpt>
      <trkpt lat="44.25016" lon="4.19961">
        <ele>136</ele>
        <time>2022-02-08T08:40:25Z</time>
      </trkpt>
      <trkpt lat="44.24939" lon="4.19914">
        <ele>136</ele>
        <time>2022-02-08T08:40:40Z</time>
      </trkpt>
      <trkpt lat="44.24838" lon="4.19853">
        <ele>137</ele>
        <time>2022-02-08T08:41:00Z</time>
      </trkpt>
      <trkpt lat="44.24689" lon="4.19763">
        <ele>136</ele>
        <time>2022-02-08T08:41:29Z</time>
      </trkpt>
      <trkpt lat="44.24636" lon="4.19743">
        <ele>137</ele>
        <time>2022-02-08T08:41:39Z</time>
      </trkpt>
      <trkpt lat="44.24598" lon="4.19735">
        <ele>138</ele>
        <time>2022-02-08T08:41:45Z</time>
      </trkpt>
      <trkpt lat="44.24595" lon="4.19734">
        <ele>138</ele>
        <time>2022-02-08T08:41:46Z</time>
      </trkpt>
      <trkpt lat="44.24433" lon="4.19686">
        <ele>144</ele>
        <time>2022-02-08T08:42:15Z</time>
      </trkpt>
      <trkpt lat="44.24364" lon="4.19665">
        <ele>144</ele>
        <time>2022-02-08T08:42:28Z</time>
      </trkpt>
      <trkpt lat="44.24347" lon="4.19661">
        <ele>144</ele>
        <time>2022-02-08T08:42:31Z</time>
      </trkpt>
      <trkpt lat="44.24327" lon="4.1966">
        <ele>143</ele>
        <time>2022-02-08T08:42:35Z</time>
      </trkpt>
      <trkpt lat="44.24303" lon="4.19665">
        <ele>143</ele>
        <time>2022-02-08T08:42:39Z</time>
      </trkpt>
      <trkpt lat="44.24289" lon="4.19667">
        <ele>143</ele>
        <time>2022-02-08T08:42:41Z</time>
      </trkpt>
      <trkpt lat="44.24113" lon="4.197">
        <ele>156</ele>
        <time>2022-02-08T08:43:13Z</time>
      </trkpt>
      <trkpt lat="44.24097" lon="4.19701">
        <ele>158</ele>
        <time>2022-02-08T08:43:16Z</time>
      </trkpt>
      <trkpt lat="44.24078" lon="4.19702">
        <ele>159</ele>
        <time>2022-02-08T08:43:19Z</time>
      </trkpt>
      <trkpt lat="44.24044" lon="4.19695">
        <ele>159</ele>
        <time>2022-02-08T08:43:25Z</time>
      </trkpt>
      <trkpt lat="44.23997" lon="4.19673">
        <ele>159</ele>
        <time>2022-02-08T08:43:34Z</time>
      </trkpt>
      <trkpt lat="44.23977" lon="4.19668">
        <ele>161</ele>
        <time>2022-02-08T08:43:38Z</time>
      </trkpt>
      <trkpt lat="44.23957" lon="4.19667">
        <ele>162</ele>
        <time>2022-02-08T08:43:41Z</time>
      </trkpt>
      <trkpt lat="44.23937" lon="4.19669">
        <ele>162</ele>
        <time>2022-02-08T08:43:45Z</time>
      </trkpt>
      <trkpt lat="44.23855" lon="4.19678">
        <ele>167</ele>
        <time>2022-02-08T08:44:00Z</time>
      </trkpt>
      <trkpt lat="44.23818" lon="4.19685">
        <ele>168</ele>
        <time>2022-02-08T08:44:06Z</time>
      </trkpt>
      <trkpt lat="44.23814" lon="4.19687">
        <ele>168</ele>
        <time>2022-02-08T08:44:07Z</time>
      </trkpt>
      <trkpt lat="44.23808" lon="4.19691">
        <ele>168</ele>
        <time>2022-02-08T08:44:08Z</time>
      </trkpt>
      <trkpt lat="44.23783" lon="4.19714">
        <ele>167</ele>
        <time>2022-02-08T08:44:14Z</time>
      </trkpt>
      <trkpt lat="44.2375" lon="4.19754">
        <ele>167</ele>
        <time>2022-02-08T08:44:21Z</time>
      </trkpt>
      <trkpt lat="44.2373" lon="4.19796">
        <ele>165</ele>
        <time>2022-02-08T08:44:28Z</time>
      </trkpt>
      <trkpt lat="44.23685" lon="4.19925">
        <ele>159</ele>
        <time>2022-02-08T08:44:46Z</time>
      </trkpt>
      <trkpt lat="44.23632" lon="4.20075">
        <ele>157</ele>
        <time>2022-02-08T08:45:07Z</time>
      </trkpt>
      <trkpt lat="44.23624" lon="4.20099">
        <ele>157</ele>
        <time>2022-02-08T08:45:11Z</time>
      </trkpt>
      <trkpt lat="44.23565" lon="4.20308">
        <ele>152</ele>
        <time>2022-02-08T08:45:39Z</time>
      </trkpt>
      <trkpt lat="44.23508" lon="4.20512">
        <ele>146</ele>
        <time>2022-02-08T08:46:07Z</time>
      </trkpt>
      <trkpt lat="44.23489" lon="4.20573">
        <ele>143</ele>
        <time>2022-02-08T08:46:16Z</time>
      </trkpt>
      <trkpt lat="44.23395" lon="4.20918">
        <ele>130</ele>
        <time>2022-02-08T08:47:03Z</time>
      </trkpt>
      <trkpt lat="44.23391" lon="4.20932">
        <ele>130</ele>
        <time>2022-02-08T08:47:05Z</time>
      </trkpt>
      <trkpt lat="44.23378" lon="4.20975">
        <ele>129</ele>
        <time>2022-02-08T08:47:11Z</time>
      </trkpt>
      <trkpt lat="44.23353" lon="4.21063">
        <ele>128</ele>
        <time>2022-02-08T08:47:23Z</time>
      </trkpt>
      <trkpt lat="44.23331" lon="4.21147">
        <ele>133</ele>
        <time>2022-02-08T08:47:34Z</time>
      </trkpt>
      <trkpt lat="44.23322" lon="4.21183">
        <ele>135</ele>
        <time>2022-02-08T08:47:39Z</time>
      </trkpt>
      <trkpt lat="44.23295" lon="4.21272">
        <ele>136</ele>
        <time>2022-02-08T08:47:51Z</time>
      </trkpt>
      <trkpt lat="44.23222" lon="4.21537">
        <ele>131</ele>
        <time>2022-02-08T08:48:27Z</time>
      </trkpt>
      <trkpt lat="44.23213" lon="4.2157">
        <ele>132</ele>
        <time>2022-02-08T08:48:32Z</time>
      </trkpt>
      <trkpt lat="44.23089" lon="4.22006">
        <ele>137</ele>
        <time>2022-02-08T08:49:32Z</time>
      </trkpt>
      <trkpt lat="44.23065" lon="4.22102">
        <ele>135</ele>
        <time>2022-02-08T08:49:45Z</time>
      </trkpt>
      <trkpt lat="44.2301" lon="4.22291">
        <ele>128</ele>
        <time>2022-02-08T08:50:11Z</time>
      </trkpt>
      <trkpt lat="44.22978" lon="4.22394">
        <ele>124</ele>
        <time>2022-02-08T08:50:25Z</time>
      </trkpt>
      <trkpt lat="44.22965" lon="4.22426">
        <ele>123</ele>
        <time>2022-02-08T08:50:30Z</time>
      </trkpt>
      <trkpt lat="44.22934" lon="4.22481">
        <ele>122</ele>
        <time>2022-02-08T08:50:39Z</time>
      </trkpt>
      <trkpt lat="44.22908" lon="4.2252">
        <ele>122</ele>
        <time>2022-02-08T08:50:45Z</time>
      </trkpt>
      <trkpt lat="44.229" lon="4.22533">
        <ele>123</ele>
        <time>2022-02-08T08:50:48Z</time>
      </trkpt>
      <trkpt lat="44.22503" lon="4.23128">
        <ele>127</ele>
        <time>2022-02-08T08:52:31Z</time>
      </trkpt>
      <trkpt lat="44.22459" lon="4.23193">
        <ele>130</ele>
        <time>2022-02-08T08:52:43Z</time>
      </trkpt>
      <trkpt lat="44.21927" lon="4.23994">
        <ele>153</ele>
        <time>2022-02-08T08:55:02Z</time>
      </trkpt>
      <trkpt lat="44.21845" lon="4.24113">
        <ele>157</ele>
        <time>2022-02-08T08:55:23Z</time>
      </trkpt>
      <trkpt lat="44.217" lon="4.243">
        <ele>150</ele>
        <time>2022-02-08T08:55:58Z</time>
      </trkpt>
      <trkpt lat="44.21601" lon="4.24419">
        <ele>149</ele>
        <time>2022-02-08T08:56:21Z</time>
      </trkpt>
      <trkpt lat="44.21563" lon="4.2445">
        <ele>149</ele>
        <time>2022-02-08T08:56:29Z</time>
      </trkpt>
      <trkpt lat="44.21203" lon="4.24679">
        <ele>132</ele>
        <time>2022-02-08T08:57:40Z</time>
      </trkpt>
      <trkpt lat="44.2107" lon="4.24768">
        <ele>129</ele>
        <time>2022-02-08T08:58:06Z</time>
      </trkpt>
      <trkpt lat="44.20951" lon="4.24839">
        <ele>126</ele>
        <time>2022-02-08T08:58:29Z</time>
      </trkpt>
      <trkpt lat="44.20916" lon="4.24839">
        <ele>125</ele>
        <time>2022-02-08T08:58:35Z</time>
      </trkpt>
      <trkpt lat="44.20873" lon="4.24843">
        <ele>124</ele>
        <time>2022-02-08T08:58:43Z</time>
      </trkpt>
      <trkpt lat="44.20792" lon="4.24839">
        <ele>124</ele>
        <time>2022-02-08T08:58:57Z</time>
      </trkpt>
      <trkpt lat="44.20756" lon="4.24833">
        <ele>124</ele>
        <time>2022-02-08T08:59:04Z</time>
      </trkpt>
      <trkpt lat="44.20701" lon="4.2481">
        <ele>125</ele>
        <time>2022-02-08T08:59:14Z</time>
      </trkpt>
      <trkpt lat="44.20549" lon="4.24734">
        <ele>127</ele>
        <time>2022-02-08T08:59:43Z</time>
      </trkpt>
      <trkpt lat="44.20538" lon="4.24759">
        <ele>126</ele>
        <time>2022-02-08T08:59:46Z</time>
      </trkpt>
      <trkpt lat="44.20479" lon="4.24888">
        <ele>124</ele>
        <time>2022-02-08T09:00:06Z</time>
      </trkpt>
      <trkpt lat="44.20469" lon="4.24906">
        <ele>125</ele>
        <time>2022-02-08T09:00:09Z</time>
      </trkpt>
      <trkpt lat="44.20464" lon="4.24907">
        <ele>125</ele>
        <time>2022-02-08T09:00:10Z</time>
      </trkpt>
      <trkpt lat="44.20451" lon="4.24897">
        <ele>126</ele>
        <time>2022-02-08T09:00:12Z</time>
      </trkpt>
      <trkpt lat="44.20444" lon="4.24883">
        <ele>126</ele>
        <time>2022-02-08T09:00:15Z</time>
      </trkpt>
      <trkpt lat="44.20416" lon="4.24843">
        <ele>125</ele>
        <time>2022-02-08T09:00:22Z</time>
      </trkpt>
      <trkpt lat="44.20329" lon="4.24778">
        <ele>126</ele>
        <time>2022-02-08T09:00:39Z</time>
      </trkpt>
      <trkpt lat="44.20248" lon="4.24712">
        <ele>128</ele>
        <time>2022-02-08T09:00:56Z</time>
      </trkpt>
      <trkpt lat="44.2022" lon="4.24687">
        <ele>128</ele>
        <time>2022-02-08T09:01:02Z</time>
      </trkpt>
      <trkpt lat="44.2019" lon="4.24643">
        <ele>127</ele>
        <time>2022-02-08T09:01:10Z</time>
      </trkpt>
      <trkpt lat="44.20158" lon="4.24586">
        <ele>126</ele>
        <time>2022-02-08T09:01:19Z</time>
      </trkpt>
      <trkpt lat="44.20143" lon="4.24565">
        <ele>126</ele>
        <time>2022-02-08T09:01:23Z</time>
      </trkpt>
      <trkpt lat="44.20115" lon="4.24536">
        <ele>125</ele>
        <time>2022-02-08T09:01:29Z</time>
      </trkpt>
      <trkpt lat="44.20025" lon="4.24471">
        <ele>126</ele>
        <time>2022-02-08T09:01:47Z</time>
      </trkpt>
      <trkpt lat="44.20014" lon="4.24463">
        <ele>126</ele>
        <time>2022-02-08T09:01:49Z</time>
      </trkpt>
      <trkpt lat="44.19979" lon="4.2444">
        <ele>125</ele>
        <time>2022-02-08T09:01:56Z</time>
      </trkpt>
      <trkpt lat="44.19944" lon="4.24424">
        <ele>126</ele>
        <time>2022-02-08T09:02:02Z</time>
      </trkpt>
      <trkpt lat="44.1991" lon="4.24414">
        <ele>126</ele>
        <time>2022-02-08T09:02:09Z</time>
      </trkpt>
      <trkpt lat="44.19785" lon="4.2439">
        <ele>126</ele>
        <time>2022-02-08T09:02:31Z</time>
      </trkpt>
      <trkpt lat="44.19761" lon="4.24383">
        <ele>126</ele>
        <time>2022-02-08T09:02:35Z</time>
      </trkpt>
      <trkpt lat="44.19736" lon="4.24367">
        <ele>126</ele>
        <time>2022-02-08T09:02:40Z</time>
      </trkpt>
      <trkpt lat="44.19701" lon="4.24337">
        <ele>127</ele>
        <time>2022-02-08T09:02:48Z</time>
      </trkpt>
      <trkpt lat="44.19433" lon="4.24135">
        <ele>127</ele>
        <time>2022-02-08T09:03:42Z</time>
      </trkpt>
      <trkpt lat="44.1939" lon="4.24089">
        <ele>127</ele>
        <time>2022-02-08T09:03:52Z</time>
      </trkpt>
      <trkpt lat="44.19093" lon="4.23789">
        <ele>129</ele>
        <time>2022-02-08T09:04:57Z</time>
      </trkpt>
      <trkpt lat="44.19085" lon="4.23779">
        <ele>130</ele>
        <time>2022-02-08T09:04:59Z</time>
      </trkpt>
      <trkpt lat="44.19053" lon="4.23759">
        <ele>130</ele>
        <time>2022-02-08T09:05:05Z</time>
      </trkpt>
      <trkpt lat="44.18961" lon="4.23729">
        <ele>130</ele>
        <time>2022-02-08T09:05:22Z</time>
      </trkpt>
      <trkpt lat="44.18873" lon="4.23677">
        <ele>131</ele>
        <time>2022-02-08T09:05:39Z</time>
      </trkpt>
      <trkpt lat="44.18796" lon="4.23621">
        <ele>131</ele>
        <time>2022-02-08T09:05:54Z</time>
      </trkpt>
      <trkpt lat="44.18632" lon="4.23479">
        <ele>132</ele>
        <time>2022-02-08T09:06:29Z</time>
      </trkpt>
      <trkpt lat="44.18609" lon="4.2347">
        <ele>132</ele>
        <time>2022-02-08T09:06:33Z</time>
      </trkpt>
      <trkpt lat="44.18498" lon="4.23446">
        <ele>136</ele>
        <time>2022-02-08T09:06:53Z</time>
      </trkpt>
      <trkpt lat="44.18441" lon="4.23432">
        <ele>138</ele>
        <time>2022-02-08T09:07:03Z</time>
      </trkpt>
      <trkpt lat="44.18424" lon="4.23421">
        <ele>139</ele>
        <time>2022-02-08T09:07:06Z</time>
      </trkpt>
      <trkpt lat="44.18425" lon="4.23412">
        <ele>139</ele>
        <time>2022-02-08T09:07:08Z</time>
      </trkpt>
      <trkpt lat="44.18423" lon="4.23404">
        <ele>139</ele>
        <time>2022-02-08T09:07:09Z</time>
      </trkpt>
      <trkpt lat="44.1842" lon="4.234">
        <ele>139</ele>
        <time>2022-02-08T09:07:09Z</time>
      </trkpt>
      <trkpt lat="44.18414" lon="4.23397">
        <ele>139</ele>
        <time>2022-02-08T09:07:11Z</time>
      </trkpt>
      <trkpt lat="44.18407" lon="4.234">
        <ele>139</ele>
        <time>2022-02-08T09:07:12Z</time>
      </trkpt>
      <trkpt lat="44.18403" lon="4.23407">
        <ele>139</ele>
        <time>2022-02-08T09:07:13Z</time>
      </trkpt>
      <trkpt lat="44.18402" lon="4.23419">
        <ele>139</ele>
        <time>2022-02-08T09:07:14Z</time>
      </trkpt>
      <trkpt lat="44.18378" lon="4.23432">
        <ele>139</ele>
        <time>2022-02-08T09:07:19Z</time>
      </trkpt>
      <trkpt lat="44.18296" lon="4.23492">
        <ele>138</ele>
        <time>2022-02-08T09:07:36Z</time>
      </trkpt>
      <trkpt lat="44.18166" lon="4.23543">
        <ele>137</ele>
        <time>2022-02-08T09:08:00Z</time>
      </trkpt>
      <trkpt lat="44.1807" lon="4.2357">
        <ele>138</ele>
        <time>2022-02-08T09:08:17Z</time>
      </trkpt>
      <trkpt lat="44.18051" lon="4.23577">
        <ele>138</ele>
        <time>2022-02-08T09:08:20Z</time>
      </trkpt>
      <trkpt lat="44.18008" lon="4.23605">
        <ele>137</ele>
        <time>2022-02-08T09:08:29Z</time>
      </trkpt>
      <trkpt lat="44.17966" lon="4.23633">
        <ele>138</ele>
        <time>2022-02-08T09:08:37Z</time>
      </trkpt>
      <trkpt lat="44.1792" lon="4.23661">
        <ele>139</ele>
        <time>2022-02-08T09:08:46Z</time>
      </trkpt>
      <trkpt lat="44.17908" lon="4.2367">
        <ele>139</ele>
        <time>2022-02-08T09:08:49Z</time>
      </trkpt>
      <trkpt lat="44.17865" lon="4.23698">
        <ele>140</ele>
        <time>2022-02-08T09:08:57Z</time>
      </trkpt>
      <trkpt lat="44.17639" lon="4.23848">
        <ele>143</ele>
        <time>2022-02-08T09:09:42Z</time>
      </trkpt>
      <trkpt lat="44.17587" lon="4.23872">
        <ele>144</ele>
        <time>2022-02-08T09:09:51Z</time>
      </trkpt>
      <trkpt lat="44.17537" lon="4.23868">
        <ele>144</ele>
        <time>2022-02-08T09:10:00Z</time>
      </trkpt>
      <trkpt lat="44.17383" lon="4.2384">
        <ele>145</ele>
        <time>2022-02-08T09:10:28Z</time>
      </trkpt>
      <trkpt lat="44.17344" lon="4.23834">
        <ele>146</ele>
        <time>2022-02-08T09:10:35Z</time>
      </trkpt>
      <trkpt lat="44.17299" lon="4.23833">
        <ele>147</ele>
        <time>2022-02-08T09:10:43Z</time>
      </trkpt>
      <trkpt lat="44.17233" lon="4.23833">
        <ele>149</ele>
        <time>2022-02-08T09:10:55Z</time>
      </trkpt>
      <trkpt lat="44.17199" lon="4.23839">
        <ele>148</ele>
        <time>2022-02-08T09:11:01Z</time>
      </trkpt>
      <trkpt lat="44.17155" lon="4.23852">
        <ele>149</ele>
        <time>2022-02-08T09:11:09Z</time>
      </trkpt>
      <trkpt lat="44.17096" lon="4.2387">
        <ele>153</ele>
        <time>2022-02-08T09:11:19Z</time>
      </trkpt>
      <trkpt lat="44.17063" lon="4.23875">
        <ele>154</ele>
        <time>2022-02-08T09:11:25Z</time>
      </trkpt>
      <trkpt lat="44.17022" lon="4.23873">
        <ele>153</ele>
        <time>2022-02-08T09:11:33Z</time>
      </trkpt>
      <trkpt lat="44.16899" lon="4.23867">
        <ele>156</ele>
        <time>2022-02-08T09:11:55Z</time>
      </trkpt>
      <trkpt lat="44.16868" lon="4.23866">
        <ele>158</ele>
        <time>2022-02-08T09:12:00Z</time>
      </trkpt>
      <trkpt lat="44.16824" lon="4.23866">
        <ele>161</ele>
        <time>2022-02-08T09:12:08Z</time>
      </trkpt>
      <trkpt lat="44.16693" lon="4.23873">
        <ele>169</ele>
        <time>2022-02-08T09:12:31Z</time>
      </trkpt>
      <trkpt lat="44.16673" lon="4.23875">
        <ele>170</ele>
        <time>2022-02-08T09:12:35Z</time>
      </trkpt>
      <trkpt lat="44.16666" lon="4.23876">
        <ele>170</ele>
        <time>2022-02-08T09:12:36Z</time>
      </trkpt>
      <trkpt lat="44.16569" lon="4.23889">
        <ele>169</ele>
        <time>2022-02-08T09:12:53Z</time>
      </trkpt>
      <trkpt lat="44.16483" lon="4.23902">
        <ele>170</ele>
        <time>2022-02-08T09:13:09Z</time>
      </trkpt>
      <trkpt lat="44.16367" lon="4.23942">
        <ele>173</ele>
        <time>2022-02-08T09:13:30Z</time>
      </trkpt>
      <trkpt lat="44.16347" lon="4.23949">
        <ele>174</ele>
        <time>2022-02-08T09:13:34Z</time>
      </trkpt>
      <trkpt lat="44.16352" lon="4.23962">
        <ele>176</ele>
        <time>2022-02-08T09:13:36Z</time>
      </trkpt>
      <trkpt lat="44.16351" lon="4.23991">
        <ele>179</ele>
        <time>2022-02-08T09:13:39Z</time>
      </trkpt>
      <trkpt lat="44.16342" lon="4.24031">
        <ele>182</ele>
        <time>2022-02-08T09:13:45Z</time>
      </trkpt>
      <trkpt lat="44.1633" lon="4.24051">
        <ele>184</ele>
        <time>2022-02-08T09:13:48Z</time>
      </trkpt>
      <trkpt lat="44.16315" lon="4.24107">
        <ele>188</ele>
        <time>2022-02-08T09:13:56Z</time>
      </trkpt>
      <trkpt lat="44.16309" lon="4.24123">
        <ele>189</ele>
        <time>2022-02-08T09:13:58Z</time>
      </trkpt>
      <trkpt lat="44.163" lon="4.2414">
        <ele>191</ele>
        <time>2022-02-08T09:14:01Z</time>
      </trkpt>
      <trkpt lat="44.16291" lon="4.24179">
        <ele>193</ele>
        <time>2022-02-08T09:14:06Z</time>
      </trkpt>
      <trkpt lat="44.16286" lon="4.24182">
        <ele>193</ele>
        <time>2022-02-08T09:14:07Z</time>
      </trkpt>
      <trkpt lat="44.1628" lon="4.24183">
        <ele>193</ele>
        <time>2022-02-08T09:14:08Z</time>
      </trkpt>
      <trkpt lat="44.16273" lon="4.24184">
        <ele>193</ele>
        <time>2022-02-08T09:14:09Z</time>
      </trkpt>
      <trkpt lat="44.16276" lon="4.24191">
        <ele>193</ele>
        <time>2022-02-08T09:14:10Z</time>
      </trkpt>
      <trkpt lat="44.16278" lon="4.242">
        <ele>194</ele>
        <time>2022-02-08T09:14:11Z</time>
      </trkpt>
      <trkpt lat="44.16302" lon="4.24355">
        <ele>205</ele>
        <time>2022-02-08T09:14:32Z</time>
      </trkpt>
      <trkpt lat="44.16307" lon="4.24371">
        <ele>206</ele>
        <time>2022-02-08T09:14:34Z</time>
      </trkpt>
      <trkpt lat="44.16331" lon="4.2441">
        <ele>209</ele>
        <time>2022-02-08T09:14:40Z</time>
      </trkpt>
      <trkpt lat="44.16392" lon="4.24479">
        <ele>216</ele>
        <time>2022-02-08T09:14:54Z</time>
      </trkpt>
      <trkpt lat="44.16407" lon="4.24485">
        <ele>215</ele>
        <time>2022-02-08T09:14:57Z</time>
      </trkpt>
      <trkpt lat="44.1641" lon="4.24484">
        <ele>215</ele>
        <time>2022-02-08T09:14:58Z</time>
      </trkpt>
      <trkpt lat="44.16415" lon="4.24481">
        <ele>215</ele>
        <time>2022-02-08T09:14:59Z</time>
      </trkpt>
      <trkpt lat="44.1642" lon="4.24474">
        <ele>215</ele>
        <time>2022-02-08T09:15:00Z</time>
      </trkpt>
      <trkpt lat="44.16423" lon="4.24465">
        <ele>215</ele>
        <time>2022-02-08T09:15:01Z</time>
      </trkpt>
      <trkpt lat="44.16423" lon="4.24456">
        <ele>215</ele>
        <time>2022-02-08T09:15:02Z</time>
      </trkpt>
      <trkpt lat="44.1642" lon="4.24444">
        <ele>215</ele>
        <time>2022-02-08T09:15:04Z</time>
      </trkpt>
      <trkpt lat="44.16388" lon="4.24387">
        <ele>211</ele>
        <time>2022-02-08T09:15:13Z</time>
      </trkpt>
      <trkpt lat="44.16381" lon="4.24371">
        <ele>210</ele>
        <time>2022-02-08T09:15:16Z</time>
      </trkpt>
      <trkpt lat="44.16379" lon="4.24354">
        <ele>209</ele>
        <time>2022-02-08T09:15:18Z</time>
      </trkpt>
      <trkpt lat="44.16382" lon="4.2434">
        <ele>209</ele>
        <time>2022-02-08T09:15:20Z</time>
      </trkpt>
      <trkpt lat="44.16389" lon="4.24328">
        <ele>209</ele>
        <time>2022-02-08T09:15:22Z</time>
      </trkpt>
      <trkpt lat="44.164" lon="4.24319">
        <ele>209</ele>
        <time>2022-02-08T09:15:24Z</time>
      </trkpt>
      <trkpt lat="44.16411" lon="4.24315">
        <ele>211</ele>
        <time>2022-02-08T09:15:26Z</time>
      </trkpt>
      <trkpt lat="44.16421" lon="4.24317">
        <ele>211</ele>
        <time>2022-02-08T09:15:28Z</time>
      </trkpt>
      <trkpt lat="44.1643" lon="4.24323">
        <ele>212</ele>
        <time>2022-02-08T09:15:29Z</time>
      </trkpt>
      <trkpt lat="44.16439" lon="4.24333">
        <ele>213</ele>
        <time>2022-02-08T09:15:32Z</time>
      </trkpt>
      <trkpt lat="44.16453" lon="4.24353">
        <ele>214</ele>
        <time>2022-02-08T09:15:35Z</time>
      </trkpt>
      <trkpt lat="44.16463" lon="4.24366">
        <ele>215</ele>
        <time>2022-02-08T09:15:38Z</time>
      </trkpt>
      <trkpt lat="44.16612" lon="4.24501">
        <ele>227</ele>
        <time>2022-02-08T09:16:09Z</time>
      </trkpt>
      <trkpt lat="44.1662" lon="4.24513">
        <ele>227</ele>
        <time>2022-02-08T09:16:11Z</time>
      </trkpt>
      <trkpt lat="44.16625" lon="4.24527">
        <ele>228</ele>
        <time>2022-02-08T09:16:13Z</time>
      </trkpt>
      <trkpt lat="44.16628" lon="4.24548">
        <ele>229</ele>
        <time>2022-02-08T09:16:16Z</time>
      </trkpt>
      <trkpt lat="44.16626" lon="4.24567">
        <ele>231</ele>
        <time>2022-02-08T09:16:18Z</time>
      </trkpt>
      <trkpt lat="44.16619" lon="4.24586">
        <ele>233</ele>
        <time>2022-02-08T09:16:21Z</time>
      </trkpt>
      <trkpt lat="44.16582" lon="4.24659">
        <ele>239</ele>
        <time>2022-02-08T09:16:33Z</time>
      </trkpt>
      <trkpt lat="44.16576" lon="4.24675">
        <ele>239</ele>
        <time>2022-02-08T09:16:35Z</time>
      </trkpt>
      <trkpt lat="44.16573" lon="4.24693">
        <ele>240</ele>
        <time>2022-02-08T09:16:37Z</time>
      </trkpt>
      <trkpt lat="44.16571" lon="4.24743">
        <ele>242</ele>
        <time>2022-02-08T09:16:44Z</time>
      </trkpt>
      <trkpt lat="44.1657" lon="4.24883">
        <ele>250</ele>
        <time>2022-02-08T09:17:01Z</time>
      </trkpt>
      <trkpt lat="44.16567" lon="4.24954">
        <ele>254</ele>
        <time>2022-02-08T09:17:11Z</time>
      </trkpt>
      <trkpt lat="44.16566" lon="4.24973">
        <ele>255</ele>
        <time>2022-02-08T09:17:13Z</time>
      </trkpt>
      <trkpt lat="44.16557" lon="4.25016">
        <ele>256</ele>
        <time>2022-02-08T09:17:19Z</time>
      </trkpt>
      <trkpt lat="44.16557" lon="4.25031">
        <ele>256</ele>
        <time>2022-02-08T09:17:21Z</time>
      </trkpt>
      <trkpt lat="44.16559" lon="4.25044">
        <ele>256</ele>
        <time>2022-02-08T09:17:22Z</time>
      </trkpt>
      <trkpt lat="44.16574" lon="4.25079">
        <ele>254</ele>
        <time>2022-02-08T09:17:28Z</time>
      </trkpt>
      <trkpt lat="44.16597" lon="4.25177">
        <ele>246</ele>
        <time>2022-02-08T09:17:41Z</time>
      </trkpt>
      <trkpt lat="44.16603" lon="4.25191">
        <ele>246</ele>
        <time>2022-02-08T09:17:43Z</time>
      </trkpt>
      <trkpt lat="44.1662" lon="4.25219">
        <ele>244</ele>
        <time>2022-02-08T09:17:47Z</time>
      </trkpt>
      <trkpt lat="44.16655" lon="4.25267">
        <ele>243</ele>
        <time>2022-02-08T09:17:56Z</time>
      </trkpt>
      <trkpt lat="44.16715" lon="4.25336">
        <ele>244</ele>
        <time>2022-02-08T09:18:10Z</time>
      </trkpt>
      <trkpt lat="44.16773" lon="4.25392">
        <ele>243</ele>
        <time>2022-02-08T09:18:23Z</time>
      </trkpt>
      <trkpt lat="44.16831" lon="4.2544">
        <ele>242</ele>
        <time>2022-02-08T09:18:35Z</time>
      </trkpt>
      <trkpt lat="44.16853" lon="4.25467">
        <ele>244</ele>
        <time>2022-02-08T09:18:40Z</time>
      </trkpt>
      <trkpt lat="44.16868" lon="4.25494">
        <ele>245</ele>
        <time>2022-02-08T09:18:44Z</time>
      </trkpt>
      <trkpt lat="44.16876" lon="4.25508">
        <ele>246</ele>
        <time>2022-02-08T09:18:46Z</time>
      </trkpt>
      <trkpt lat="44.16884" lon="4.25532">
        <ele>248</ele>
        <time>2022-02-08T09:18:50Z</time>
      </trkpt>
      <trkpt lat="44.16888" lon="4.25556">
        <ele>249</ele>
        <time>2022-02-08T09:18:53Z</time>
      </trkpt>
      <trkpt lat="44.1689" lon="4.25574">
        <ele>250</ele>
        <time>2022-02-08T09:18:55Z</time>
      </trkpt>
      <trkpt lat="44.1689" lon="4.25588">
        <ele>250</ele>
        <time>2022-02-08T09:18:57Z</time>
      </trkpt>
      <trkpt lat="44.16887" lon="4.25602">
        <ele>251</ele>
        <time>2022-02-08T09:18:59Z</time>
      </trkpt>
      <trkpt lat="44.16845" lon="4.25709">
        <ele>260</ele>
        <time>2022-02-08T09:19:14Z</time>
      </trkpt>
      <trkpt lat="44.16839" lon="4.25728">
        <ele>261</ele>
        <time>2022-02-08T09:19:17Z</time>
      </trkpt>
      <trkpt lat="44.16837" lon="4.25742">
        <ele>262</ele>
        <time>2022-02-08T09:19:19Z</time>
      </trkpt>
      <trkpt lat="44.16839" lon="4.25758">
        <ele>262</ele>
        <time>2022-02-08T09:19:21Z</time>
      </trkpt>
      <trkpt lat="44.16845" lon="4.25776">
        <ele>263</ele>
        <time>2022-02-08T09:19:24Z</time>
      </trkpt>
      <trkpt lat="44.16851" lon="4.25785">
        <ele>263</ele>
        <time>2022-02-08T09:19:25Z</time>
      </trkpt>
      <trkpt lat="44.1686" lon="4.25792">
        <ele>264</ele>
        <time>2022-02-08T09:19:27Z</time>
      </trkpt>
      <trkpt lat="44.16897" lon="4.25807">
        <ele>265</ele>
        <time>2022-02-08T09:19:34Z</time>
      </trkpt>
      <trkpt lat="44.16907" lon="4.25815">
        <ele>265</ele>
        <time>2022-02-08T09:19:36Z</time>
      </trkpt>
      <trkpt lat="44.16914" lon="4.25827">
        <ele>266</ele>
        <time>2022-02-08T09:19:38Z</time>
      </trkpt>
      <trkpt lat="44.16932" lon="4.25882">
        <ele>267</ele>
        <time>2022-02-08T09:19:46Z</time>
      </trkpt>
      <trkpt lat="44.16937" lon="4.25899">
        <ele>267</ele>
        <time>2022-02-08T09:19:48Z</time>
      </trkpt>
      <trkpt lat="44.1695" lon="4.25946">
        <ele>267</ele>
        <time>2022-02-08T09:19:54Z</time>
      </trkpt>
      <trkpt lat="44.16951" lon="4.25959">
        <ele>266</ele>
        <time>2022-02-08T09:19:56Z</time>
      </trkpt>
      <trkpt lat="44.1695" lon="4.25971">
        <ele>265</ele>
        <time>2022-02-08T09:19:58Z</time>
      </trkpt>
      <trkpt lat="44.16941" lon="4.26">
        <ele>262</ele>
        <time>2022-02-08T09:20:02Z</time>
      </trkpt>
      <trkpt lat="44.16936" lon="4.26026">
        <ele>262</ele>
        <time>2022-02-08T09:20:05Z</time>
      </trkpt>
      <trkpt lat="44.16936" lon="4.26045">
        <ele>262</ele>
        <time>2022-02-08T09:20:07Z</time>
      </trkpt>
      <trkpt lat="44.16954" lon="4.26155">
        <ele>262</ele>
        <time>2022-02-08T09:20:22Z</time>
      </trkpt>
      <trkpt lat="44.16988" lon="4.26266">
        <ele>259</ele>
        <time>2022-02-08T09:20:37Z</time>
      </trkpt>
      <trkpt lat="44.16996" lon="4.26295">
        <ele>258</ele>
        <time>2022-02-08T09:20:41Z</time>
      </trkpt>
      <trkpt lat="44.17017" lon="4.26402">
        <ele>257</ele>
        <time>2022-02-08T09:20:55Z</time>
      </trkpt>
      <trkpt lat="44.1703" lon="4.26452">
        <ele>255</ele>
        <time>2022-02-08T09:21:02Z</time>
      </trkpt>
      <trkpt lat="44.17043" lon="4.2649">
        <ele>253</ele>
        <time>2022-02-08T09:21:08Z</time>
      </trkpt>
      <trkpt lat="44.17077" lon="4.26571">
        <ele>250</ele>
        <time>2022-02-08T09:21:20Z</time>
      </trkpt>
      <trkpt lat="44.17083" lon="4.26591">
        <ele>249</ele>
        <time>2022-02-08T09:21:22Z</time>
      </trkpt>
      <trkpt lat="44.17086" lon="4.26606">
        <ele>248</ele>
        <time>2022-02-08T09:21:24Z</time>
      </trkpt>
      <trkpt lat="44.17085" lon="4.26617">
        <ele>247</ele>
        <time>2022-02-08T09:21:26Z</time>
      </trkpt>
      <trkpt lat="44.17081" lon="4.2663">
        <ele>247</ele>
        <time>2022-02-08T09:21:27Z</time>
      </trkpt>
      <trkpt lat="44.17072" lon="4.26644">
        <ele>247</ele>
        <time>2022-02-08T09:21:30Z</time>
      </trkpt>
      <trkpt lat="44.16997" lon="4.2673">
        <ele>249</ele>
        <time>2022-02-08T09:21:47Z</time>
      </trkpt>
      <trkpt lat="44.16949" lon="4.26798">
        <ele>247</ele>
        <time>2022-02-08T09:21:59Z</time>
      </trkpt>
      <trkpt lat="44.16942" lon="4.26804">
        <ele>247</ele>
        <time>2022-02-08T09:22:01Z</time>
      </trkpt>
      <trkpt lat="44.16912" lon="4.26813">
        <ele>248</ele>
        <time>2022-02-08T09:22:06Z</time>
      </trkpt>
      <trkpt lat="44.16903" lon="4.26819">
        <ele>249</ele>
        <time>2022-02-08T09:22:08Z</time>
      </trkpt>
      <trkpt lat="44.16898" lon="4.26827">
        <ele>248</ele>
        <time>2022-02-08T09:22:09Z</time>
      </trkpt>
      <trkpt lat="44.16894" lon="4.26835">
        <ele>248</ele>
        <time>2022-02-08T09:22:11Z</time>
      </trkpt>
      <trkpt lat="44.16893" lon="4.26849">
        <ele>248</ele>
        <time>2022-02-08T09:22:12Z</time>
      </trkpt>
      <trkpt lat="44.16894" lon="4.26861">
        <ele>248</ele>
        <time>2022-02-08T09:22:14Z</time>
      </trkpt>
      <trkpt lat="44.1691" lon="4.26897">
        <ele>245</ele>
        <time>2022-02-08T09:22:19Z</time>
      </trkpt>
      <trkpt lat="44.16912" lon="4.26912">
        <ele>245</ele>
        <time>2022-02-08T09:22:21Z</time>
      </trkpt>
      <trkpt lat="44.1691" lon="4.26927">
        <ele>245</ele>
        <time>2022-02-08T09:22:23Z</time>
      </trkpt>
      <trkpt lat="44.16891" lon="4.27001">
        <ele>246</ele>
        <time>2022-02-08T09:22:33Z</time>
      </trkpt>
      <trkpt lat="44.16851" lon="4.27131">
        <ele>244</ele>
        <time>2022-02-08T09:22:51Z</time>
      </trkpt>
      <trkpt lat="44.16832" lon="4.27192">
        <ele>243</ele>
        <time>2022-02-08T09:23:00Z</time>
      </trkpt>
      <trkpt lat="44.16831" lon="4.27217">
        <ele>243</ele>
        <time>2022-02-08T09:23:03Z</time>
      </trkpt>
      <trkpt lat="44.16834" lon="4.27228">
        <ele>243</ele>
        <time>2022-02-08T09:23:05Z</time>
      </trkpt>
      <trkpt lat="44.1684" lon="4.27245">
        <ele>242</ele>
        <time>2022-02-08T09:23:07Z</time>
      </trkpt>
      <trkpt lat="44.16845" lon="4.27255">
        <ele>243</ele>
        <time>2022-02-08T09:23:09Z</time>
      </trkpt>
      <trkpt lat="44.16853" lon="4.27283">
        <ele>243</ele>
        <time>2022-02-08T09:23:12Z</time>
      </trkpt>
      <trkpt lat="44.16853" lon="4.27302">
        <ele>244</ele>
        <time>2022-02-08T09:23:15Z</time>
      </trkpt>
      <trkpt lat="44.16843" lon="4.27381">
        <ele>246</ele>
        <time>2022-02-08T09:23:25Z</time>
      </trkpt>
      <trkpt lat="44.16789" lon="4.27518">
        <ele>248</ele>
        <time>2022-02-08T09:23:45Z</time>
      </trkpt>
      <trkpt lat="44.16778" lon="4.27556">
        <ele>248</ele>
        <time>2022-02-08T09:23:50Z</time>
      </trkpt>
      <trkpt lat="44.16764" lon="4.27635">
        <ele>250</ele>
        <time>2022-02-08T09:24:01Z</time>
      </trkpt>
      <trkpt lat="44.16741" lon="4.27713">
        <ele>252</ele>
        <time>2022-02-08T09:24:11Z</time>
      </trkpt>
      <trkpt lat="44.16739" lon="4.27815">
        <ele>253</ele>
        <time>2022-02-08T09:24:24Z</time>
      </trkpt>
      <trkpt lat="44.16741" lon="4.27872">
        <ele>256</ele>
        <time>2022-02-08T09:24:32Z</time>
      </trkpt>
      <trkpt lat="44.16739" lon="4.27965">
        <ele>259</ele>
        <time>2022-02-08T09:24:44Z</time>
      </trkpt>
      <trkpt lat="44.16732" lon="4.27969">
        <ele>258</ele>
        <time>2022-02-08T09:24:45Z</time>
      </trkpt>
      <trkpt lat="44.1672" lon="4.27976">
        <ele>257</ele>
        <time>2022-02-08T09:24:47Z</time>
      </trkpt>
      <trkpt lat="44.16568" lon="4.28128">
        <ele>259</ele>
        <time>2022-02-08T09:25:20Z</time>
      </trkpt>
      <trkpt lat="44.16529" lon="4.28159">
        <ele>260</ele>
        <time>2022-02-08T09:25:28Z</time>
      </trkpt>
      <trkpt lat="44.16482" lon="4.28193">
        <ele>261</ele>
        <time>2022-02-08T09:25:38Z</time>
      </trkpt>
      <trkpt lat="44.16416" lon="4.2822">
        <ele>264</ele>
        <time>2022-02-08T09:25:50Z</time>
      </trkpt>
      <trkpt lat="44.16396" lon="4.28235">
        <ele>265</ele>
        <time>2022-02-08T09:25:54Z</time>
      </trkpt>
      <trkpt lat="44.16384" lon="4.2825">
        <ele>266</ele>
        <time>2022-02-08T09:25:57Z</time>
      </trkpt>
      <trkpt lat="44.1637" lon="4.28261">
        <ele>267</ele>
        <time>2022-02-08T09:26:00Z</time>
      </trkpt>
      <trkpt lat="44.16363" lon="4.28261">
        <ele>267</ele>
        <time>2022-02-08T09:26:01Z</time>
      </trkpt>
      <trkpt lat="44.16345" lon="4.28253">
        <ele>267</ele>
        <time>2022-02-08T09:26:05Z</time>
      </trkpt>
      <trkpt lat="44.16338" lon="4.2826">
        <ele>267</ele>
        <time>2022-02-08T09:26:06Z</time>
      </trkpt>
      <trkpt lat="44.16324" lon="4.28297">
        <ele>269</ele>
        <time>2022-02-08T09:26:11Z</time>
      </trkpt>
      <trkpt lat="44.16304" lon="4.28339">
        <ele>271</ele>
        <time>2022-02-08T09:26:18Z</time>
      </trkpt>
      <trkpt lat="44.16291" lon="4.28359">
        <ele>272</ele>
        <time>2022-02-08T09:26:21Z</time>
      </trkpt>
      <trkpt lat="44.16262" lon="4.28385">
        <ele>275</ele>
        <time>2022-02-08T09:26:27Z</time>
      </trkpt>
      <trkpt lat="44.16243" lon="4.28409">
        <ele>276</ele>
        <time>2022-02-08T09:26:32Z</time>
      </trkpt>
      <trkpt lat="44.16198" lon="4.28471">
        <ele>281</ele>
        <time>2022-02-08T09:26:43Z</time>
      </trkpt>
      <trkpt lat="44.16171" lon="4.2849">
        <ele>283</ele>
        <time>2022-02-08T09:26:49Z</time>
      </trkpt>
      <trkpt lat="44.16139" lon="4.2852">
        <ele>285</ele>
        <time>2022-02-08T09:26:55Z</time>
      </trkpt>
      <trkpt lat="44.16109" lon="4.28539">
        <ele>286</ele>
        <time>2022-02-08T09:27:01Z</time>
      </trkpt>
      <trkpt lat="44.16098" lon="4.28549">
        <ele>287</ele>
        <time>2022-02-08T09:27:04Z</time>
      </trkpt>
      <trkpt lat="44.16074" lon="4.28586">
        <ele>288</ele>
        <time>2022-02-08T09:27:10Z</time>
      </trkpt>
      <trkpt lat="44.16065" lon="4.2861">
        <ele>288</ele>
        <time>2022-02-08T09:27:13Z</time>
      </trkpt>
      <trkpt lat="44.16049" lon="4.28665">
        <ele>290</ele>
        <time>2022-02-08T09:27:21Z</time>
      </trkpt>
      <trkpt lat="44.16024" lon="4.28711">
        <ele>292</ele>
        <time>2022-02-08T09:27:28Z</time>
      </trkpt>
      <trkpt lat="44.16012" lon="4.28738">
        <ele>294</ele>
        <time>2022-02-08T09:27:32Z</time>
      </trkpt>
      <trkpt lat="44.15989" lon="4.28831">
        <ele>301</ele>
        <time>2022-02-08T09:27:45Z</time>
      </trkpt>
      <trkpt lat="44.15985" lon="4.28853">
        <ele>302</ele>
        <time>2022-02-08T09:27:48Z</time>
      </trkpt>
      <trkpt lat="44.15986" lon="4.28862">
        <ele>303</ele>
        <time>2022-02-08T09:27:49Z</time>
      </trkpt>
      <trkpt lat="44.15989" lon="4.28868">
        <ele>304</ele>
        <time>2022-02-08T09:27:50Z</time>
      </trkpt>
      <trkpt lat="44.15998" lon="4.28877">
        <ele>305</ele>
        <time>2022-02-08T09:27:52Z</time>
      </trkpt>
      <trkpt lat="44.16001" lon="4.28883">
        <ele>305</ele>
        <time>2022-02-08T09:27:53Z</time>
      </trkpt>
      <trkpt lat="44.16001" lon="4.28886">
        <ele>305</ele>
        <time>2022-02-08T09:27:53Z</time>
      </trkpt>
      <trkpt lat="44.15985" lon="4.28933">
        <ele>308</ele>
        <time>2022-02-08T09:28:00Z</time>
      </trkpt>
      <trkpt lat="44.1598" lon="4.28936">
        <ele>308</ele>
        <time>2022-02-08T09:28:01Z</time>
      </trkpt>
      <trkpt lat="44.15967" lon="4.28933">
        <ele>308</ele>
        <time>2022-02-08T09:28:03Z</time>
      </trkpt>
      <trkpt lat="44.15963" lon="4.28936">
        <ele>308</ele>
        <time>2022-02-08T09:28:04Z</time>
      </trkpt>
      <trkpt lat="44.15956" lon="4.28961">
        <ele>308</ele>
        <time>2022-02-08T09:28:08Z</time>
      </trkpt>
      <trkpt lat="44.15937" lon="4.28969">
        <ele>309</ele>
        <time>2022-02-08T09:28:11Z</time>
      </trkpt>
      <trkpt lat="44.15894" lon="4.29003">
        <ele>310</ele>
        <time>2022-02-08T09:28:20Z</time>
      </trkpt>
      <trkpt lat="44.15845" lon="4.29025">
        <ele>308</ele>
        <time>2022-02-08T09:28:29Z</time>
      </trkpt>
      <trkpt lat="44.15832" lon="4.29027">
        <ele>308</ele>
        <time>2022-02-08T09:28:31Z</time>
      </trkpt>
      <trkpt lat="44.15823" lon="4.29025">
        <ele>308</ele>
        <time>2022-02-08T09:28:33Z</time>
      </trkpt>
      <trkpt lat="44.15786" lon="4.29006">
        <ele>310</ele>
        <time>2022-02-08T09:28:40Z</time>
      </trkpt>
      <trkpt lat="44.15762" lon="4.28999">
        <ele>312</ele>
        <time>2022-02-08T09:28:44Z</time>
      </trkpt>
      <trkpt lat="44.15748" lon="4.28998">
        <ele>312</ele>
        <time>2022-02-08T09:28:47Z</time>
      </trkpt>
      <trkpt lat="44.15687" lon="4.29001">
        <ele>313</ele>
        <time>2022-02-08T09:28:58Z</time>
      </trkpt>
      <trkpt lat="44.1564" lon="4.29014">
        <ele>313</ele>
        <time>2022-02-08T09:29:06Z</time>
      </trkpt>
      <trkpt lat="44.15608" lon="4.29027">
        <ele>314</ele>
        <time>2022-02-08T09:29:12Z</time>
      </trkpt>
      <trkpt lat="44.15581" lon="4.29042">
        <ele>315</ele>
        <time>2022-02-08T09:29:17Z</time>
      </trkpt>
      <trkpt lat="44.15561" lon="4.29048">
        <ele>315</ele>
        <time>2022-02-08T09:29:21Z</time>
      </trkpt>
      <trkpt lat="44.15519" lon="4.29054">
        <ele>317</ele>
        <time>2022-02-08T09:29:28Z</time>
      </trkpt>
      <trkpt lat="44.15488" lon="4.29063">
        <ele>319</ele>
        <time>2022-02-08T09:29:34Z</time>
      </trkpt>
      <trkpt lat="44.15453" lon="4.29063">
        <ele>322</ele>
        <time>2022-02-08T09:29:40Z</time>
      </trkpt>
      <trkpt lat="44.15435" lon="4.29055">
        <ele>324</ele>
        <time>2022-02-08T09:29:44Z</time>
      </trkpt>
      <trkpt lat="44.15414" lon="4.29042">
        <ele>325</ele>
        <time>2022-02-08T09:29:48Z</time>
      </trkpt>
      <trkpt lat="44.15398" lon="4.29035">
        <ele>325</ele>
        <time>2022-02-08T09:29:51Z</time>
      </trkpt>
      <trkpt lat="44.15386" lon="4.29034">
        <ele>326</ele>
        <time>2022-02-08T09:29:53Z</time>
      </trkpt>
      <trkpt lat="44.15374" lon="4.29038">
        <ele>326</ele>
        <time>2022-02-08T09:29:55Z</time>
      </trkpt>
      <trkpt lat="44.15358" lon="4.29048">
        <ele>328</ele>
        <time>2022-02-08T09:29:58Z</time>
      </trkpt>
      <trkpt lat="44.15348" lon="4.29052">
        <ele>328</ele>
        <time>2022-02-08T09:30:00Z</time>
      </trkpt>
      <trkpt lat="44.15326" lon="4.29054">
        <ele>330</ele>
        <time>2022-02-08T09:30:04Z</time>
      </trkpt>
      <trkpt lat="44.15316" lon="4.29058">
        <ele>330</ele>
        <time>2022-02-08T09:30:06Z</time>
      </trkpt>
      <trkpt lat="44.15299" lon="4.29072">
        <ele>332</ele>
        <time>2022-02-08T09:30:09Z</time>
      </trkpt>
      <trkpt lat="44.15237" lon="4.2913">
        <ele>339</ele>
        <time>2022-02-08T09:30:23Z</time>
      </trkpt>
      <trkpt lat="44.15173" lon="4.29176">
        <ele>347</ele>
        <time>2022-02-08T09:30:35Z</time>
      </trkpt>
      <trkpt lat="44.15154" lon="4.29182">
        <ele>348</ele>
        <time>2022-02-08T09:30:39Z</time>
      </trkpt>
      <trkpt lat="44.15141" lon="4.29181">
        <ele>350</ele>
        <time>2022-02-08T09:30:41Z</time>
      </trkpt>
      <trkpt lat="44.1509" lon="4.2916">
        <ele>357</ele>
        <time>2022-02-08T09:30:51Z</time>
      </trkpt>
      <trkpt lat="44.15074" lon="4.29151">
        <ele>357</ele>
        <time>2022-02-08T09:30:54Z</time>
      </trkpt>
      <trkpt lat="44.15042" lon="4.29121">
        <ele>360</ele>
        <time>2022-02-08T09:31:01Z</time>
      </trkpt>
      <trkpt lat="44.1503" lon="4.29114">
        <ele>362</ele>
        <time>2022-02-08T09:31:03Z</time>
      </trkpt>
      <trkpt lat="44.14987" lon="4.29103">
        <ele>369</ele>
        <time>2022-02-08T09:31:11Z</time>
      </trkpt>
      <trkpt lat="44.14962" lon="4.29095">
        <ele>372</ele>
        <time>2022-02-08T09:31:15Z</time>
      </trkpt>
      <trkpt lat="44.14954" lon="4.29094">
        <ele>373</ele>
        <time>2022-02-08T09:31:17Z</time>
      </trkpt>
      <trkpt lat="44.14865" lon="4.29105">
        <ele>382</ele>
        <time>2022-02-08T09:31:33Z</time>
      </trkpt>
      <trkpt lat="44.14766" lon="4.2911">
        <ele>391</ele>
        <time>2022-02-08T09:31:50Z</time>
      </trkpt>
      <trkpt lat="44.14726" lon="4.29097">
        <ele>397</ele>
        <time>2022-02-08T09:31:58Z</time>
      </trkpt>
      <trkpt lat="44.14713" lon="4.29096">
        <ele>398</ele>
        <time>2022-02-08T09:32:00Z</time>
      </trkpt>
      <trkpt lat="44.14689" lon="4.29101">
        <ele>400</ele>
        <time>2022-02-08T09:32:04Z</time>
      </trkpt>
      <trkpt lat="44.1467" lon="4.2911">
        <ele>402</ele>
        <time>2022-02-08T09:32:08Z</time>
      </trkpt>
      <trkpt lat="44.14651" lon="4.29115">
        <ele>403</ele>
        <time>2022-02-08T09:32:11Z</time>
      </trkpt>
      <trkpt lat="44.14643" lon="4.29113">
        <ele>403</ele>
        <time>2022-02-08T09:32:13Z</time>
      </trkpt>
      <trkpt lat="44.14594" lon="4.29087">
        <ele>407</ele>
        <time>2022-02-08T09:32:22Z</time>
      </trkpt>
      <trkpt lat="44.14576" lon="4.29083">
        <ele>408</ele>
        <time>2022-02-08T09:32:25Z</time>
      </trkpt>
      <trkpt lat="44.14541" lon="4.29083">
        <ele>410</ele>
        <time>2022-02-08T09:32:31Z</time>
      </trkpt>
      <trkpt lat="44.14512" lon="4.29076">
        <ele>411</ele>
        <time>2022-02-08T09:32:37Z</time>
      </trkpt>
      <trkpt lat="44.14477" lon="4.29083">
        <ele>412</ele>
        <time>2022-02-08T09:32:43Z</time>
      </trkpt>
      <trkpt lat="44.1444" lon="4.29094">
        <ele>413</ele>
        <time>2022-02-08T09:32:50Z</time>
      </trkpt>
      <trkpt lat="44.14365" lon="4.29111">
        <ele>419</ele>
        <time>2022-02-08T09:33:03Z</time>
      </trkpt>
      <trkpt lat="44.14286" lon="4.29136">
        <ele>423</ele>
        <time>2022-02-08T09:33:18Z</time>
      </trkpt>
      <trkpt lat="44.14269" lon="4.29138">
        <ele>424</ele>
        <time>2022-02-08T09:33:21Z</time>
      </trkpt>
      <trkpt lat="44.14224" lon="4.2913">
        <ele>426</ele>
        <time>2022-02-08T09:33:29Z</time>
      </trkpt>
      <trkpt lat="44.1421" lon="4.29126">
        <ele>427</ele>
        <time>2022-02-08T09:33:31Z</time>
      </trkpt>
      <trkpt lat="44.14193" lon="4.29118">
        <ele>428</ele>
        <time>2022-02-08T09:33:34Z</time>
      </trkpt>
      <trkpt lat="44.14159" lon="4.29092">
        <ele>431</ele>
        <time>2022-02-08T09:33:41Z</time>
      </trkpt>
      <trkpt lat="44.1408" lon="4.29071">
        <ele>429</ele>
        <time>2022-02-08T09:33:56Z</time>
      </trkpt>
      <trkpt lat="44.14047" lon="4.29057">
        <ele>428</ele>
        <time>2022-02-08T09:34:02Z</time>
      </trkpt>
      <trkpt lat="44.1403" lon="4.29043">
        <ele>429</ele>
        <time>2022-02-08T09:34:05Z</time>
      </trkpt>
      <trkpt lat="44.14005" lon="4.29017">
        <ele>432</ele>
        <time>2022-02-08T09:34:11Z</time>
      </trkpt>
      <trkpt lat="44.1399" lon="4.29009">
        <ele>432</ele>
        <time>2022-02-08T09:34:14Z</time>
      </trkpt>
      <trkpt lat="44.13964" lon="4.29001">
        <ele>430</ele>
        <time>2022-02-08T09:34:18Z</time>
      </trkpt>
      <trkpt lat="44.13944" lon="4.28991">
        <ele>429</ele>
        <time>2022-02-08T09:34:22Z</time>
      </trkpt>
      <trkpt lat="44.13922" lon="4.28976">
        <ele>430</ele>
        <time>2022-02-08T09:34:27Z</time>
      </trkpt>
      <trkpt lat="44.1388" lon="4.2894">
        <ele>430</ele>
        <time>2022-02-08T09:34:35Z</time>
      </trkpt>
      <trkpt lat="44.13836" lon="4.2891">
        <ele>428</ele>
        <time>2022-02-08T09:34:44Z</time>
      </trkpt>
      <trkpt lat="44.13781" lon="4.28883">
        <ele>427</ele>
        <time>2022-02-08T09:34:54Z</time>
      </trkpt>
      <trkpt lat="44.13756" lon="4.28874">
        <ele>425</ele>
        <time>2022-02-08T09:34:59Z</time>
      </trkpt>
      <trkpt lat="44.13739" lon="4.28872">
        <ele>425</ele>
        <time>2022-02-08T09:35:02Z</time>
      </trkpt>
      <trkpt lat="44.13718" lon="4.28874">
        <ele>424</ele>
        <time>2022-02-08T09:35:06Z</time>
      </trkpt>
      <trkpt lat="44.13675" lon="4.28888">
        <ele>420</ele>
        <time>2022-02-08T09:35:14Z</time>
      </trkpt>
      <trkpt lat="44.13634" lon="4.28904">
        <ele>420</ele>
        <time>2022-02-08T09:35:21Z</time>
      </trkpt>
      <trkpt lat="44.13561" lon="4.28943">
        <ele>418</ele>
        <time>2022-02-08T09:35:35Z</time>
      </trkpt>
      <trkpt lat="44.13536" lon="4.28953">
        <ele>417</ele>
        <time>2022-02-08T09:35:40Z</time>
      </trkpt>
      <trkpt lat="44.13502" lon="4.28954">
        <ele>419</ele>
        <time>2022-02-08T09:35:46Z</time>
      </trkpt>
      <trkpt lat="44.13487" lon="4.28958">
        <ele>419</ele>
        <time>2022-02-08T09:35:49Z</time>
      </trkpt>
      <trkpt lat="44.13472" lon="4.2897">
        <ele>417</ele>
        <time>2022-02-08T09:35:52Z</time>
      </trkpt>
      <trkpt lat="44.13453" lon="4.28989">
        <ele>414</ele>
        <time>2022-02-08T09:35:56Z</time>
      </trkpt>
      <trkpt lat="44.13417" lon="4.29007">
        <ele>413</ele>
        <time>2022-02-08T09:36:03Z</time>
      </trkpt>
      <trkpt lat="44.13388" lon="4.29014">
        <ele>413</ele>
        <time>2022-02-08T09:36:08Z</time>
      </trkpt>
      <trkpt lat="44.13368" lon="4.29009">
        <ele>415</ele>
        <time>2022-02-08T09:36:11Z</time>
      </trkpt>
      <trkpt lat="44.13352" lon="4.28997">
        <ele>417</ele>
        <time>2022-02-08T09:36:15Z</time>
      </trkpt>
      <trkpt lat="44.13338" lon="4.28991">
        <ele>419</ele>
        <time>2022-02-08T09:36:17Z</time>
      </trkpt>
      <trkpt lat="44.13141" lon="4.28947">
        <ele>409</ele>
        <time>2022-02-08T09:36:53Z</time>
      </trkpt>
      <trkpt lat="44.13112" lon="4.2893">
        <ele>406</ele>
        <time>2022-02-08T09:36:58Z</time>
      </trkpt>
      <trkpt lat="44.13077" lon="4.28895">
        <ele>407</ele>
        <time>2022-02-08T09:37:06Z</time>
      </trkpt>
      <trkpt lat="44.13064" lon="4.28884">
        <ele>408</ele>
        <time>2022-02-08T09:37:09Z</time>
      </trkpt>
      <trkpt lat="44.13045" lon="4.28877">
        <ele>407</ele>
        <time>2022-02-08T09:37:12Z</time>
      </trkpt>
      <trkpt lat="44.13027" lon="4.28874">
        <ele>406</ele>
        <time>2022-02-08T09:37:16Z</time>
      </trkpt>
      <trkpt lat="44.13003" lon="4.28876">
        <ele>402</ele>
        <time>2022-02-08T09:37:20Z</time>
      </trkpt>
      <trkpt lat="44.12948" lon="4.28904">
        <ele>392</ele>
        <time>2022-02-08T09:37:30Z</time>
      </trkpt>
      <trkpt lat="44.12928" lon="4.28908">
        <ele>390</ele>
        <time>2022-02-08T09:37:34Z</time>
      </trkpt>
      <trkpt lat="44.12896" lon="4.28906">
        <ele>388</ele>
        <time>2022-02-08T09:37:40Z</time>
      </trkpt>
      <trkpt lat="44.12869" lon="4.28925">
        <ele>381</ele>
        <time>2022-02-08T09:37:45Z</time>
      </trkpt>
      <trkpt lat="44.12841" lon="4.28938">
        <ele>377</ele>
        <time>2022-02-08T09:37:50Z</time>
      </trkpt>
      <trkpt lat="44.12808" lon="4.28958">
        <ele>371</ele>
        <time>2022-02-08T09:37:57Z</time>
      </trkpt>
      <trkpt lat="44.12781" lon="4.2897">
        <ele>366</ele>
        <time>2022-02-08T09:38:02Z</time>
      </trkpt>
      <trkpt lat="44.1273" lon="4.28981">
        <ele>359</ele>
        <time>2022-02-08T09:38:11Z</time>
      </trkpt>
      <trkpt lat="44.12671" lon="4.29002">
        <ele>351</ele>
        <time>2022-02-08T09:38:22Z</time>
      </trkpt>
      <trkpt lat="44.12652" lon="4.29004">
        <ele>348</ele>
        <time>2022-02-08T09:38:25Z</time>
      </trkpt>
      <trkpt lat="44.1263" lon="4.29">
        <ele>346</ele>
        <time>2022-02-08T09:38:29Z</time>
      </trkpt>
      <trkpt lat="44.12603" lon="4.28989">
        <ele>345</ele>
        <time>2022-02-08T09:38:34Z</time>
      </trkpt>
      <trkpt lat="44.12585" lon="4.28984">
        <ele>343</ele>
        <time>2022-02-08T09:38:37Z</time>
      </trkpt>
      <trkpt lat="44.12555" lon="4.28982">
        <ele>342</ele>
        <time>2022-02-08T09:38:43Z</time>
      </trkpt>
      <trkpt lat="44.12539" lon="4.28985">
        <ele>340</ele>
        <time>2022-02-08T09:38:45Z</time>
      </trkpt>
      <trkpt lat="44.12525" lon="4.28994">
        <ele>337</ele>
        <time>2022-02-08T09:38:48Z</time>
      </trkpt>
      <trkpt lat="44.1249" lon="4.29041">
        <ele>325</ele>
        <time>2022-02-08T09:38:57Z</time>
      </trkpt>
      <trkpt lat="44.12468" lon="4.29065">
        <ele>319</ele>
        <time>2022-02-08T09:39:02Z</time>
      </trkpt>
      <trkpt lat="44.12434" lon="4.29093">
        <ele>313</ele>
        <time>2022-02-08T09:39:09Z</time>
      </trkpt>
      <trkpt lat="44.12422" lon="4.291">
        <ele>312</ele>
        <time>2022-02-08T09:39:11Z</time>
      </trkpt>
      <trkpt lat="44.12411" lon="4.29097">
        <ele>312</ele>
        <time>2022-02-08T09:39:13Z</time>
      </trkpt>
      <trkpt lat="44.12398" lon="4.29085">
        <ele>312</ele>
        <time>2022-02-08T09:39:16Z</time>
      </trkpt>
      <trkpt lat="44.12368" lon="4.29043">
        <ele>314</ele>
        <time>2022-02-08T09:39:23Z</time>
      </trkpt>
      <trkpt lat="44.12353" lon="4.29026">
        <ele>314</ele>
        <time>2022-02-08T09:39:27Z</time>
      </trkpt>
      <trkpt lat="44.12342" lon="4.29022">
        <ele>313</ele>
        <time>2022-02-08T09:39:29Z</time>
      </trkpt>
      <trkpt lat="44.12334" lon="4.29021">
        <ele>312</ele>
        <time>2022-02-08T09:39:30Z</time>
      </trkpt>
      <trkpt lat="44.12329" lon="4.29022">
        <ele>311</ele>
        <time>2022-02-08T09:39:31Z</time>
      </trkpt>
      <trkpt lat="44.1232" lon="4.29026">
        <ele>310</ele>
        <time>2022-02-08T09:39:33Z</time>
      </trkpt>
      <trkpt lat="44.12302" lon="4.29041">
        <ele>307</ele>
        <time>2022-02-08T09:39:37Z</time>
      </trkpt>
      <trkpt lat="44.12284" lon="4.29048">
        <ele>304</ele>
        <time>2022-02-08T09:39:40Z</time>
      </trkpt>
      <trkpt lat="44.12247" lon="4.29046">
        <ele>301</ele>
        <time>2022-02-08T09:39:47Z</time>
      </trkpt>
      <trkpt lat="44.12229" lon="4.29041">
        <ele>299</ele>
        <time>2022-02-08T09:39:50Z</time>
      </trkpt>
      <trkpt lat="44.12221" lon="4.29036">
        <ele>298</ele>
        <time>2022-02-08T09:39:51Z</time>
      </trkpt>
      <trkpt lat="44.12195" lon="4.29004">
        <ele>296</ele>
        <time>2022-02-08T09:39:58Z</time>
      </trkpt>
      <trkpt lat="44.1217" lon="4.28954">
        <ele>296</ele>
        <time>2022-02-08T09:40:05Z</time>
      </trkpt>
      <trkpt lat="44.12121" lon="4.28876">
        <ele>298</ele>
        <time>2022-02-08T09:40:19Z</time>
      </trkpt>
      <trkpt lat="44.12113" lon="4.28872">
        <ele>297</ele>
        <time>2022-02-08T09:40:20Z</time>
      </trkpt>
      <trkpt lat="44.12107" lon="4.28873">
        <ele>296</ele>
        <time>2022-02-08T09:40:21Z</time>
      </trkpt>
      <trkpt lat="44.12082" lon="4.28884">
        <ele>292</ele>
        <time>2022-02-08T09:40:26Z</time>
      </trkpt>
      <trkpt lat="44.12073" lon="4.28882">
        <ele>292</ele>
        <time>2022-02-08T09:40:27Z</time>
      </trkpt>
      <trkpt lat="44.12066" lon="4.28875">
        <ele>291</ele>
        <time>2022-02-08T09:40:29Z</time>
      </trkpt>
      <trkpt lat="44.12055" lon="4.28853">
        <ele>292</ele>
        <time>2022-02-08T09:40:32Z</time>
      </trkpt>
      <trkpt lat="44.12048" lon="4.28847">
        <ele>291</ele>
        <time>2022-02-08T09:40:34Z</time>
      </trkpt>
      <trkpt lat="44.12035" lon="4.28848">
        <ele>290</ele>
        <time>2022-02-08T09:40:36Z</time>
      </trkpt>
      <trkpt lat="44.11784" lon="4.28914">
        <ele>270</ele>
        <time>2022-02-08T09:41:22Z</time>
      </trkpt>
      <trkpt lat="44.11787" lon="4.28931">
        <ele>270</ele>
        <time>2022-02-08T09:41:24Z</time>
      </trkpt>
      <trkpt lat="44.11785" lon="4.28953">
        <ele>269</ele>
        <time>2022-02-08T09:41:27Z</time>
      </trkpt>
      <trkpt lat="44.11749" lon="4.29112">
        <ele>264</ele>
        <time>2022-02-08T09:41:48Z</time>
      </trkpt>
      <trkpt lat="44.11746" lon="4.29132">
        <ele>264</ele>
        <time>2022-02-08T09:41:51Z</time>
      </trkpt>
      <trkpt lat="44.11728" lon="4.29251">
        <ele>266</ele>
        <time>2022-02-08T09:42:06Z</time>
      </trkpt>
      <trkpt lat="44.11725" lon="4.29285">
        <ele>267</ele>
        <time>2022-02-08T09:42:11Z</time>
      </trkpt>
      <trkpt lat="44.11725" lon="4.2933">
        <ele>268</ele>
        <time>2022-02-08T09:42:16Z</time>
      </trkpt>
      <trkpt lat="44.11722" lon="4.29351">
        <ele>269</ele>
        <time>2022-02-08T09:42:19Z</time>
      </trkpt>
      <trkpt lat="44.11717" lon="4.29368">
        <ele>269</ele>
        <time>2022-02-08T09:42:21Z</time>
      </trkpt>
      <trkpt lat="44.11692" lon="4.29429">
        <ele>270</ele>
        <time>2022-02-08T09:42:30Z</time>
      </trkpt>
      <trkpt lat="44.11671" lon="4.29471">
        <ele>270</ele>
        <time>2022-02-08T09:42:37Z</time>
      </trkpt>
      <trkpt lat="44.11651" lon="4.295">
        <ele>269</ele>
        <time>2022-02-08T09:42:42Z</time>
      </trkpt>
      <trkpt lat="44.1165" lon="4.29525">
        <ele>269</ele>
        <time>2022-02-08T09:42:45Z</time>
      </trkpt>
      <trkpt lat="44.11647" lon="4.29527">
        <ele>269</ele>
        <time>2022-02-08T09:42:46Z</time>
      </trkpt>
      <trkpt lat="44.11624" lon="4.29551">
        <ele>268</ele>
        <time>2022-02-08T09:42:51Z</time>
      </trkpt>
      <trkpt lat="44.11618" lon="4.29559">
        <ele>268</ele>
        <time>2022-02-08T09:42:52Z</time>
      </trkpt>
      <trkpt lat="44.11604" lon="4.29576">
        <ele>268</ele>
        <time>2022-02-08T09:42:56Z</time>
      </trkpt>
      <trkpt lat="44.11589" lon="4.29587">
        <ele>268</ele>
        <time>2022-02-08T09:42:59Z</time>
      </trkpt>
      <trkpt lat="44.11564" lon="4.29587">
        <ele>269</ele>
        <time>2022-02-08T09:43:03Z</time>
      </trkpt>
      <trkpt lat="44.11392" lon="4.29528">
        <ele>276</ele>
        <time>2022-02-08T09:43:35Z</time>
      </trkpt>
      <trkpt lat="44.11361" lon="4.29524">
        <ele>276</ele>
        <time>2022-02-08T09:43:40Z</time>
      </trkpt>
      <trkpt lat="44.11338" lon="4.29531">
        <ele>277</ele>
        <time>2022-02-08T09:43:44Z</time>
      </trkpt>
      <trkpt lat="44.11326" lon="4.29543">
        <ele>277</ele>
        <time>2022-02-08T09:43:47Z</time>
      </trkpt>
      <trkpt lat="44.1131" lon="4.29567">
        <ele>278</ele>
        <time>2022-02-08T09:43:51Z</time>
      </trkpt>
      <trkpt lat="44.11285" lon="4.29613">
        <ele>279</ele>
        <time>2022-02-08T09:43:59Z</time>
      </trkpt>
      <trkpt lat="44.11268" lon="4.2964">
        <ele>278</ele>
        <time>2022-02-08T09:44:03Z</time>
      </trkpt>
      <trkpt lat="44.1125" lon="4.29662">
        <ele>277</ele>
        <time>2022-02-08T09:44:07Z</time>
      </trkpt>
      <trkpt lat="44.11237" lon="4.29672">
        <ele>277</ele>
        <time>2022-02-08T09:44:10Z</time>
      </trkpt>
      <trkpt lat="44.11207" lon="4.29681">
        <ele>278</ele>
        <time>2022-02-08T09:44:16Z</time>
      </trkpt>
      <trkpt lat="44.11163" lon="4.2969">
        <ele>278</ele>
        <time>2022-02-08T09:44:23Z</time>
      </trkpt>
      <trkpt lat="44.11151" lon="4.29696">
        <ele>278</ele>
        <time>2022-02-08T09:44:26Z</time>
      </trkpt>
      <trkpt lat="44.1114" lon="4.29706">
        <ele>279</ele>
        <time>2022-02-08T09:44:28Z</time>
      </trkpt>
      <trkpt lat="44.11135" lon="4.29713">
        <ele>279</ele>
        <time>2022-02-08T09:44:29Z</time>
      </trkpt>
      <trkpt lat="44.11132" lon="4.29721">
        <ele>280</ele>
        <time>2022-02-08T09:44:30Z</time>
      </trkpt>
      <trkpt lat="44.11127" lon="4.2973">
        <ele>280</ele>
        <time>2022-02-08T09:44:32Z</time>
      </trkpt>
      <trkpt lat="44.11114" lon="4.29769">
        <ele>281</ele>
        <time>2022-02-08T09:44:37Z</time>
      </trkpt>
      <trkpt lat="44.11093" lon="4.29813">
        <ele>281</ele>
        <time>2022-02-08T09:44:44Z</time>
      </trkpt>
      <trkpt lat="44.11086" lon="4.2982">
        <ele>281</ele>
        <time>2022-02-08T09:44:46Z</time>
      </trkpt>
      <trkpt lat="44.11075" lon="4.29829">
        <ele>281</ele>
        <time>2022-02-08T09:44:48Z</time>
      </trkpt>
      <trkpt lat="44.11019" lon="4.29866">
        <ele>285</ele>
        <time>2022-02-08T09:44:59Z</time>
      </trkpt>
      <trkpt lat="44.11001" lon="4.29885">
        <ele>285</ele>
        <time>2022-02-08T09:45:03Z</time>
      </trkpt>
      <trkpt lat="44.10976" lon="4.29934">
        <ele>285</ele>
        <time>2022-02-08T09:45:11Z</time>
      </trkpt>
      <trkpt lat="44.10915" lon="4.30014">
        <ele>285</ele>
        <time>2022-02-08T09:45:26Z</time>
      </trkpt>
      <trkpt lat="44.109" lon="4.3004">
        <ele>287</ele>
        <time>2022-02-08T09:45:30Z</time>
      </trkpt>
      <trkpt lat="44.10894" lon="4.30061">
        <ele>288</ele>
        <time>2022-02-08T09:45:33Z</time>
      </trkpt>
      <trkpt lat="44.10879" lon="4.30147">
        <ele>291</ele>
        <time>2022-02-08T09:45:44Z</time>
      </trkpt>
      <trkpt lat="44.10868" lon="4.302">
        <ele>292</ele>
        <time>2022-02-08T09:45:51Z</time>
      </trkpt>
      <trkpt lat="44.10861" lon="4.30228">
        <ele>292</ele>
        <time>2022-02-08T09:45:55Z</time>
      </trkpt>
      <trkpt lat="44.10857" lon="4.30236">
        <ele>292</ele>
        <time>2022-02-08T09:45:56Z</time>
      </trkpt>
      <trkpt lat="44.10852" lon="4.30255">
        <ele>293</ele>
        <time>2022-02-08T09:45:59Z</time>
      </trkpt>
      <trkpt lat="44.10845" lon="4.30266">
        <ele>294</ele>
        <time>2022-02-08T09:46:01Z</time>
      </trkpt>
      <trkpt lat="44.10825" lon="4.30276">
        <ele>295</ele>
        <time>2022-02-08T09:46:04Z</time>
      </trkpt>
      <trkpt lat="44.10802" lon="4.30274">
        <ele>295</ele>
        <time>2022-02-08T09:46:09Z</time>
      </trkpt>
      <trkpt lat="44.10778" lon="4.30269">
        <ele>295</ele>
        <time>2022-02-08T09:46:13Z</time>
      </trkpt>
      <trkpt lat="44.10755" lon="4.30269">
        <ele>295</ele>
        <time>2022-02-08T09:46:17Z</time>
      </trkpt>
      <trkpt lat="44.10692" lon="4.30281">
        <ele>292</ele>
        <time>2022-02-08T09:46:28Z</time>
      </trkpt>
      <trkpt lat="44.10681" lon="4.30286">
        <ele>292</ele>
        <time>2022-02-08T09:46:30Z</time>
      </trkpt>
      <trkpt lat="44.10667" lon="4.30297">
        <ele>291</ele>
        <time>2022-02-08T09:46:33Z</time>
      </trkpt>
      <trkpt lat="44.1066" lon="4.30305">
        <ele>291</ele>
        <time>2022-02-08T09:46:35Z</time>
      </trkpt>
      <trkpt lat="44.10635" lon="4.30343">
        <ele>289</ele>
        <time>2022-02-08T09:46:41Z</time>
      </trkpt>
      <trkpt lat="44.10565" lon="4.30441">
        <ele>288</ele>
        <time>2022-02-08T09:46:59Z</time>
      </trkpt>
      <trkpt lat="44.10532" lon="4.3049">
        <ele>286</ele>
        <time>2022-02-08T09:47:08Z</time>
      </trkpt>
      <trkpt lat="44.10518" lon="4.30514">
        <ele>284</ele>
        <time>2022-02-08T09:47:12Z</time>
      </trkpt>
      <trkpt lat="44.10507" lon="4.30541">
        <ele>283</ele>
        <time>2022-02-08T09:47:16Z</time>
      </trkpt>
      <trkpt lat="44.10486" lon="4.30629">
        <ele>282</ele>
        <time>2022-02-08T09:47:27Z</time>
      </trkpt>
      <trkpt lat="44.10477" lon="4.30677">
        <ele>281</ele>
        <time>2022-02-08T09:47:34Z</time>
      </trkpt>
      <trkpt lat="44.1047" lon="4.30705">
        <ele>278</ele>
        <time>2022-02-08T09:47:37Z</time>
      </trkpt>
      <trkpt lat="44.10462" lon="4.30733">
        <ele>276</ele>
        <time>2022-02-08T09:47:41Z</time>
      </trkpt>
      <trkpt lat="44.1044" lon="4.30768">
        <ele>274</ele>
        <time>2022-02-08T09:47:47Z</time>
      </trkpt>
      <trkpt lat="44.1041" lon="4.30798">
        <ele>271</ele>
        <time>2022-02-08T09:47:54Z</time>
      </trkpt>
      <trkpt lat="44.10377" lon="4.30827">
        <ele>269</ele>
        <time>2022-02-08T09:48:01Z</time>
      </trkpt>
      <trkpt lat="44.10319" lon="4.30874">
        <ele>267</ele>
        <time>2022-02-08T09:48:13Z</time>
      </trkpt>
      <trkpt lat="44.10289" lon="4.30909">
        <ele>266</ele>
        <time>2022-02-08T09:48:20Z</time>
      </trkpt>
      <trkpt lat="44.10281" lon="4.30921">
        <ele>266</ele>
        <time>2022-02-08T09:48:22Z</time>
      </trkpt>
      <trkpt lat="44.10267" lon="4.3095">
        <ele>266</ele>
        <time>2022-02-08T09:48:26Z</time>
      </trkpt>
      <trkpt lat="44.10256" lon="4.3098">
        <ele>265</ele>
        <time>2022-02-08T09:48:31Z</time>
      </trkpt>
      <trkpt lat="44.10214" lon="4.31149">
        <ele>263</ele>
        <time>2022-02-08T09:48:53Z</time>
      </trkpt>
      <trkpt lat="44.10182" lon="4.3129">
        <ele>260</ele>
        <time>2022-02-08T09:49:12Z</time>
      </trkpt>
      <trkpt lat="44.10177" lon="4.31307">
        <ele>260</ele>
        <time>2022-02-08T09:49:15Z</time>
      </trkpt>
      <trkpt lat="44.10166" lon="4.31339">
        <ele>259</ele>
        <time>2022-02-08T09:49:19Z</time>
      </trkpt>
      <trkpt lat="44.10152" lon="4.31369">
        <ele>260</ele>
        <time>2022-02-08T09:49:24Z</time>
      </trkpt>
      <trkpt lat="44.10117" lon="4.31433">
        <ele>258</ele>
        <time>2022-02-08T09:49:34Z</time>
      </trkpt>
      <trkpt lat="44.10085" lon="4.315">
        <ele>255</ele>
        <time>2022-02-08T09:49:44Z</time>
      </trkpt>
      <trkpt lat="44.10041" lon="4.316">
        <ele>254</ele>
        <time>2022-02-08T09:49:59Z</time>
      </trkpt>
      <trkpt lat="44.10007" lon="4.31675">
        <ele>252</ele>
        <time>2022-02-08T09:50:11Z</time>
      </trkpt>
      <trkpt lat="44.09993" lon="4.317">
        <ele>252</ele>
        <time>2022-02-08T09:50:15Z</time>
      </trkpt>
      <trkpt lat="44.09977" lon="4.31719">
        <ele>252</ele>
        <time>2022-02-08T09:50:18Z</time>
      </trkpt>
      <trkpt lat="44.09959" lon="4.31735">
        <ele>251</ele>
        <time>2022-02-08T09:50:22Z</time>
      </trkpt>
      <trkpt lat="44.0993" lon="4.31755">
        <ele>251</ele>
        <time>2022-02-08T09:50:28Z</time>
      </trkpt>
      <trkpt lat="44.09855" lon="4.31802">
        <ele>254</ele>
        <time>2022-02-08T09:50:43Z</time>
      </trkpt>
      <trkpt lat="44.09811" lon="4.31828">
        <ele>257</ele>
        <time>2022-02-08T09:50:51Z</time>
      </trkpt>
      <trkpt lat="44.09785" lon="4.31842">
        <ele>259</ele>
        <time>2022-02-08T09:50:56Z</time>
      </trkpt>
      <trkpt lat="44.0976" lon="4.31859">
        <ele>261</ele>
        <time>2022-02-08T09:51:01Z</time>
      </trkpt>
      <trkpt lat="44.0973" lon="4.31886">
        <ele>265</ele>
        <time>2022-02-08T09:51:07Z</time>
      </trkpt>
      <trkpt lat="44.09715" lon="4.31896">
        <ele>266</ele>
        <time>2022-02-08T09:51:10Z</time>
      </trkpt>
      <trkpt lat="44.09706" lon="4.31899">
        <ele>267</ele>
        <time>2022-02-08T09:51:12Z</time>
      </trkpt>
      <trkpt lat="44.09637" lon="4.31885">
        <ele>267</ele>
        <time>2022-02-08T09:51:24Z</time>
      </trkpt>
      <trkpt lat="44.09612" lon="4.31882">
        <ele>267</ele>
        <time>2022-02-08T09:51:29Z</time>
      </trkpt>
      <trkpt lat="44.09603" lon="4.31882">
        <ele>267</ele>
        <time>2022-02-08T09:51:30Z</time>
      </trkpt>
      <trkpt lat="44.09584" lon="4.31886">
        <ele>268</ele>
        <time>2022-02-08T09:51:34Z</time>
      </trkpt>
      <trkpt lat="44.09573" lon="4.31893">
        <ele>268</ele>
        <time>2022-02-08T09:51:36Z</time>
      </trkpt>
      <trkpt lat="44.09505" lon="4.31992">
        <ele>268</ele>
        <time>2022-02-08T09:51:54Z</time>
      </trkpt>
      <trkpt lat="44.09493" lon="4.32018">
        <ele>269</ele>
        <time>2022-02-08T09:51:57Z</time>
      </trkpt>
      <trkpt lat="44.09473" lon="4.32074">
        <ele>267</ele>
        <time>2022-02-08T09:52:05Z</time>
      </trkpt>
      <trkpt lat="44.09463" lon="4.32111">
        <ele>264</ele>
        <time>2022-02-08T09:52:11Z</time>
      </trkpt>
      <trkpt lat="44.09458" lon="4.32136">
        <ele>263</ele>
        <time>2022-02-08T09:52:14Z</time>
      </trkpt>
      <trkpt lat="44.09455" lon="4.32172">
        <ele>261</ele>
        <time>2022-02-08T09:52:18Z</time>
      </trkpt>
      <trkpt lat="44.09454" lon="4.32206">
        <ele>262</ele>
        <time>2022-02-08T09:52:23Z</time>
      </trkpt>
      <trkpt lat="44.09449" lon="4.32238">
        <ele>260</ele>
        <time>2022-02-08T09:52:27Z</time>
      </trkpt>
      <trkpt lat="44.09443" lon="4.32257">
        <ele>258</ele>
        <time>2022-02-08T09:52:30Z</time>
      </trkpt>
      <trkpt lat="44.09426" lon="4.32288">
        <ele>252</ele>
        <time>2022-02-08T09:52:35Z</time>
      </trkpt>
      <trkpt lat="44.09413" lon="4.32322">
        <ele>249</ele>
        <time>2022-02-08T09:52:40Z</time>
      </trkpt>
      <trkpt lat="44.09412" lon="4.32353">
        <ele>249</ele>
        <time>2022-02-08T09:52:44Z</time>
      </trkpt>
      <trkpt lat="44.09415" lon="4.32388">
        <ele>249</ele>
        <time>2022-02-08T09:52:48Z</time>
      </trkpt>
      <trkpt lat="44.09416" lon="4.32424">
        <ele>249</ele>
        <time>2022-02-08T09:52:53Z</time>
      </trkpt>
      <trkpt lat="44.09415" lon="4.32487">
        <ele>246</ele>
        <time>2022-02-08T09:53:01Z</time>
      </trkpt>
      <trkpt lat="44.09407" lon="4.32549">
        <ele>243</ele>
        <time>2022-02-08T09:53:09Z</time>
      </trkpt>
      <trkpt lat="44.0939" lon="4.32605">
        <ele>241</ele>
        <time>2022-02-08T09:53:17Z</time>
      </trkpt>
      <trkpt lat="44.09383" lon="4.32618">
        <ele>241</ele>
        <time>2022-02-08T09:53:19Z</time>
      </trkpt>
      <trkpt lat="44.09376" lon="4.32628">
        <ele>240</ele>
        <time>2022-02-08T09:53:20Z</time>
      </trkpt>
      <trkpt lat="44.09348" lon="4.32651">
        <ele>238</ele>
        <time>2022-02-08T09:53:26Z</time>
      </trkpt>
      <trkpt lat="44.09272" lon="4.32704">
        <ele>242</ele>
        <time>2022-02-08T09:53:41Z</time>
      </trkpt>
      <trkpt lat="44.09259" lon="4.32714">
        <ele>242</ele>
        <time>2022-02-08T09:53:44Z</time>
      </trkpt>
      <trkpt lat="44.09248" lon="4.32726">
        <ele>243</ele>
        <time>2022-02-08T09:53:46Z</time>
      </trkpt>
      <trkpt lat="44.09241" lon="4.32744">
        <ele>243</ele>
        <time>2022-02-08T09:53:49Z</time>
      </trkpt>
      <trkpt lat="44.0924" lon="4.32756">
        <ele>243</ele>
        <time>2022-02-08T09:53:51Z</time>
      </trkpt>
      <trkpt lat="44.09242" lon="4.32785">
        <ele>243</ele>
        <time>2022-02-08T09:53:54Z</time>
      </trkpt>
      <trkpt lat="44.09248" lon="4.32835">
        <ele>244</ele>
        <time>2022-02-08T09:54:01Z</time>
      </trkpt>
      <trkpt lat="44.09243" lon="4.32871">
        <ele>243</ele>
        <time>2022-02-08T09:54:05Z</time>
      </trkpt>
      <trkpt lat="44.0923" lon="4.32954">
        <ele>240</ele>
        <time>2022-02-08T09:54:16Z</time>
      </trkpt>
      <trkpt lat="44.09223" lon="4.33007">
        <ele>238</ele>
        <time>2022-02-08T09:54:23Z</time>
      </trkpt>
      <trkpt lat="44.09223" lon="4.33039">
        <ele>237</ele>
        <time>2022-02-08T09:54:27Z</time>
      </trkpt>
      <trkpt lat="44.09225" lon="4.33076">
        <ele>236</ele>
        <time>2022-02-08T09:54:32Z</time>
      </trkpt>
      <trkpt lat="44.09233" lon="4.33129">
        <ele>236</ele>
        <time>2022-02-08T09:54:39Z</time>
      </trkpt>
      <trkpt lat="44.09237" lon="4.33174">
        <ele>234</ele>
        <time>2022-02-08T09:54:45Z</time>
      </trkpt>
      <trkpt lat="44.09236" lon="4.33205">
        <ele>232</ele>
        <time>2022-02-08T09:54:49Z</time>
      </trkpt>
      <trkpt lat="44.09226" lon="4.33242">
        <ele>229</ele>
        <time>2022-02-08T09:54:54Z</time>
      </trkpt>
      <trkpt lat="44.09203" lon="4.33309">
        <ele>225</ele>
        <time>2022-02-08T09:55:03Z</time>
      </trkpt>
      <trkpt lat="44.09177" lon="4.33409">
        <ele>225</ele>
        <time>2022-02-08T09:55:17Z</time>
      </trkpt>
      <trkpt lat="44.09152" lon="4.33481">
        <ele>226</ele>
        <time>2022-02-08T09:55:27Z</time>
      </trkpt>
      <trkpt lat="44.09125" lon="4.33574">
        <ele>226</ele>
        <time>2022-02-08T09:55:40Z</time>
      </trkpt>
      <trkpt lat="44.09098" lon="4.33638">
        <ele>223</ele>
        <time>2022-02-08T09:55:49Z</time>
      </trkpt>
      <trkpt lat="44.09075" lon="4.33681">
        <ele>220</ele>
        <time>2022-02-08T09:55:56Z</time>
      </trkpt>
      <trkpt lat="44.09046" lon="4.33732">
        <ele>220</ele>
        <time>2022-02-08T09:56:05Z</time>
      </trkpt>
      <trkpt lat="44.09012" lon="4.33781">
        <ele>217</ele>
        <time>2022-02-08T09:56:13Z</time>
      </trkpt>
      <trkpt lat="44.09005" lon="4.33799">
        <ele>217</ele>
        <time>2022-02-08T09:56:16Z</time>
      </trkpt>
      <trkpt lat="44.08999" lon="4.33839">
        <ele>217</ele>
        <time>2022-02-08T09:56:21Z</time>
      </trkpt>
      <trkpt lat="44.08998" lon="4.33876">
        <ele>219</ele>
        <time>2022-02-08T09:56:26Z</time>
      </trkpt>
      <trkpt lat="44.09001" lon="4.33905">
        <ele>221</ele>
        <time>2022-02-08T09:56:30Z</time>
      </trkpt>
      <trkpt lat="44.09017" lon="4.33983">
        <ele>224</ele>
        <time>2022-02-08T09:56:40Z</time>
      </trkpt>
      <trkpt lat="44.09028" lon="4.34043">
        <ele>226</ele>
        <time>2022-02-08T09:56:48Z</time>
      </trkpt>
      <trkpt lat="44.09029" lon="4.3408">
        <ele>226</ele>
        <time>2022-02-08T09:56:53Z</time>
      </trkpt>
      <trkpt lat="44.09027" lon="4.34122">
        <ele>226</ele>
        <time>2022-02-08T09:56:58Z</time>
      </trkpt>
      <trkpt lat="44.09024" lon="4.34165">
        <ele>226</ele>
        <time>2022-02-08T09:57:03Z</time>
      </trkpt>
      <trkpt lat="44.09016" lon="4.34218">
        <ele>225</ele>
        <time>2022-02-08T09:57:10Z</time>
      </trkpt>
      <trkpt lat="44.09011" lon="4.34242">
        <ele>224</ele>
        <time>2022-02-08T09:57:14Z</time>
      </trkpt>
      <trkpt lat="44.08983" lon="4.34344">
        <ele>221</ele>
        <time>2022-02-08T09:57:28Z</time>
      </trkpt>
      <trkpt lat="44.08968" lon="4.34412">
        <ele>220</ele>
        <time>2022-02-08T09:57:37Z</time>
      </trkpt>
      <trkpt lat="44.08948" lon="4.34466">
        <ele>220</ele>
        <time>2022-02-08T09:57:44Z</time>
      </trkpt>
      <trkpt lat="44.08923" lon="4.34525">
        <ele>219</ele>
        <time>2022-02-08T09:57:53Z</time>
      </trkpt>
      <trkpt lat="44.08913" lon="4.34553">
        <ele>218</ele>
        <time>2022-02-08T09:57:57Z</time>
      </trkpt>
      <trkpt lat="44.08906" lon="4.34584">
        <ele>218</ele>
        <time>2022-02-08T09:58:01Z</time>
      </trkpt>
      <trkpt lat="44.08906" lon="4.3461">
        <ele>218</ele>
        <time>2022-02-08T09:58:05Z</time>
      </trkpt>
      <trkpt lat="44.08922" lon="4.34728">
        <ele>216</ele>
        <time>2022-02-08T09:58:20Z</time>
      </trkpt>
      <trkpt lat="44.08924" lon="4.34756">
        <ele>215</ele>
        <time>2022-02-08T09:58:24Z</time>
      </trkpt>
      <trkpt lat="44.08926" lon="4.34771">
        <ele>214</ele>
        <time>2022-02-08T09:58:26Z</time>
      </trkpt>
      <trkpt lat="44.08923" lon="4.34797">
        <ele>213</ele>
        <time>2022-02-08T09:58:29Z</time>
      </trkpt>
      <trkpt lat="44.08916" lon="4.34827">
        <ele>210</ele>
        <time>2022-02-08T09:58:33Z</time>
      </trkpt>
      <trkpt lat="44.08901" lon="4.34875">
        <ele>208</ele>
        <time>2022-02-08T09:58:40Z</time>
      </trkpt>
      <trkpt lat="44.08882" lon="4.34967">
        <ele>205</ele>
        <time>2022-02-08T09:58:52Z</time>
      </trkpt>
      <trkpt lat="44.08877" lon="4.3504">
        <ele>205</ele>
        <time>2022-02-08T09:59:01Z</time>
      </trkpt>
      <trkpt lat="44.08872" lon="4.35181">
        <ele>205</ele>
        <time>2022-02-08T09:59:19Z</time>
      </trkpt>
      <trkpt lat="44.08872" lon="4.35227">
        <ele>205</ele>
        <time>2022-02-08T09:59:25Z</time>
      </trkpt>
      <trkpt lat="44.08875" lon="4.35255">
        <ele>204</ele>
        <time>2022-02-08T09:59:29Z</time>
      </trkpt>
      <trkpt lat="44.08877" lon="4.35269">
        <ele>204</ele>
        <time>2022-02-08T09:59:31Z</time>
      </trkpt>
      <trkpt lat="44.0888" lon="4.35291">
        <ele>204</ele>
        <time>2022-02-08T09:59:33Z</time>
      </trkpt>
      <trkpt lat="44.08878" lon="4.35316">
        <ele>203</ele>
        <time>2022-02-08T09:59:37Z</time>
      </trkpt>
      <trkpt lat="44.08871" lon="4.35343">
        <ele>203</ele>
        <time>2022-02-08T09:59:40Z</time>
      </trkpt>
      <trkpt lat="44.08865" lon="4.35353">
        <ele>202</ele>
        <time>2022-02-08T09:59:42Z</time>
      </trkpt>
      <trkpt lat="44.08851" lon="4.35366">
        <ele>202</ele>
        <time>2022-02-08T09:59:45Z</time>
      </trkpt>
      <trkpt lat="44.08846" lon="4.35372">
        <ele>202</ele>
        <time>2022-02-08T09:59:46Z</time>
      </trkpt>
      <trkpt lat="44.08843" lon="4.35384">
        <ele>201</ele>
        <time>2022-02-08T09:59:48Z</time>
      </trkpt>
      <trkpt lat="44.08842" lon="4.354">
        <ele>200</ele>
        <time>2022-02-08T09:59:50Z</time>
      </trkpt>
      <trkpt lat="44.08842" lon="4.3541">
        <ele>199</ele>
        <time>2022-02-08T09:59:51Z</time>
      </trkpt>
      <trkpt lat="44.08843" lon="4.35457">
        <ele>200</ele>
        <time>2022-02-08T09:59:57Z</time>
      </trkpt>
      <trkpt lat="44.08838" lon="4.35498">
        <ele>202</ele>
        <time>2022-02-08T10:00:02Z</time>
      </trkpt>
      <trkpt lat="44.08837" lon="4.35505">
        <ele>202</ele>
        <time>2022-02-08T10:00:03Z</time>
      </trkpt>
      <trkpt lat="44.08826" lon="4.35564">
        <ele>202</ele>
        <time>2022-02-08T10:00:11Z</time>
      </trkpt>
      <trkpt lat="44.08826" lon="4.35573">
        <ele>203</ele>
        <time>2022-02-08T10:00:12Z</time>
      </trkpt>
      <trkpt lat="44.08826" lon="4.35594">
        <ele>202</ele>
        <time>2022-02-08T10:00:15Z</time>
      </trkpt>
      <trkpt lat="44.08834" lon="4.35636">
        <ele>202</ele>
        <time>2022-02-08T10:00:21Z</time>
      </trkpt>
      <trkpt lat="44.08834" lon="4.35656">
        <ele>201</ele>
        <time>2022-02-08T10:00:23Z</time>
      </trkpt>
      <trkpt lat="44.08832" lon="4.35663">
        <ele>201</ele>
        <time>2022-02-08T10:00:24Z</time>
      </trkpt>
      <trkpt lat="44.08829" lon="4.35669">
        <ele>201</ele>
        <time>2022-02-08T10:00:25Z</time>
      </trkpt>
      <trkpt lat="44.0881" lon="4.35693">
        <ele>199</ele>
        <time>2022-02-08T10:00:30Z</time>
      </trkpt>
      <trkpt lat="44.08789" lon="4.35724">
        <ele>197</ele>
        <time>2022-02-08T10:00:35Z</time>
      </trkpt>
      <trkpt lat="44.08784" lon="4.35744">
        <ele>197</ele>
        <time>2022-02-08T10:00:38Z</time>
      </trkpt>
      <trkpt lat="44.08776" lon="4.35796">
        <ele>196</ele>
        <time>2022-02-08T10:00:44Z</time>
      </trkpt>
      <trkpt lat="44.08772" lon="4.35803">
        <ele>195</ele>
        <time>2022-02-08T10:00:46Z</time>
      </trkpt>
      <trkpt lat="44.08764" lon="4.35809">
        <ele>195</ele>
        <time>2022-02-08T10:00:47Z</time>
      </trkpt>
      <trkpt lat="44.08634" lon="4.35856">
        <ele>187</ele>
        <time>2022-02-08T10:01:11Z</time>
      </trkpt>
      <trkpt lat="44.08612" lon="4.35865">
        <ele>186</ele>
        <time>2022-02-08T10:01:15Z</time>
      </trkpt>
      <trkpt lat="44.08604" lon="4.3587">
        <ele>186</ele>
        <time>2022-02-08T10:01:17Z</time>
      </trkpt>
      <trkpt lat="44.08599" lon="4.35881">
        <ele>186</ele>
        <time>2022-02-08T10:01:18Z</time>
      </trkpt>
      <trkpt lat="44.08596" lon="4.35902">
        <ele>185</ele>
        <time>2022-02-08T10:01:21Z</time>
      </trkpt>
      <trkpt lat="44.08597" lon="4.35975">
        <ele>185</ele>
        <time>2022-02-08T10:01:31Z</time>
      </trkpt>
      <trkpt lat="44.08595" lon="4.36005">
        <ele>184</ele>
        <time>2022-02-08T10:01:34Z</time>
      </trkpt>
      <trkpt lat="44.08592" lon="4.36019">
        <ele>184</ele>
        <time>2022-02-08T10:01:36Z</time>
      </trkpt>
      <trkpt lat="44.08588" lon="4.3603">
        <ele>184</ele>
        <time>2022-02-08T10:01:38Z</time>
      </trkpt>
      <trkpt lat="44.08565" lon="4.36055">
        <ele>184</ele>
        <time>2022-02-08T10:01:43Z</time>
      </trkpt>
      <trkpt lat="44.08554" lon="4.36072">
        <ele>184</ele>
        <time>2022-02-08T10:01:46Z</time>
      </trkpt>
      <trkpt lat="44.08546" lon="4.36095">
        <ele>183</ele>
        <time>2022-02-08T10:01:49Z</time>
      </trkpt>
      <trkpt lat="44.08543" lon="4.36101">
        <ele>183</ele>
        <time>2022-02-08T10:01:50Z</time>
      </trkpt>
      <trkpt lat="44.08535" lon="4.3615">
        <ele>183</ele>
        <time>2022-02-08T10:01:57Z</time>
      </trkpt>
      <trkpt lat="44.08525" lon="4.3623">
        <ele>183</ele>
        <time>2022-02-08T10:02:07Z</time>
      </trkpt>
      <trkpt lat="44.08521" lon="4.36244">
        <ele>183</ele>
        <time>2022-02-08T10:02:09Z</time>
      </trkpt>
      <trkpt lat="44.08516" lon="4.3626">
        <ele>183</ele>
        <time>2022-02-08T10:02:11Z</time>
      </trkpt>
      <trkpt lat="44.08502" lon="4.36276">
        <ele>184</ele>
        <time>2022-02-08T10:02:14Z</time>
      </trkpt>
      <trkpt lat="44.08488" lon="4.36299">
        <ele>184</ele>
        <time>2022-02-08T10:02:18Z</time>
      </trkpt>
      <trkpt lat="44.08441" lon="4.36391">
        <ele>182</ele>
        <time>2022-02-08T10:02:33Z</time>
      </trkpt>
      <trkpt lat="44.08428" lon="4.36441">
        <ele>182</ele>
        <time>2022-02-08T10:02:39Z</time>
      </trkpt>
      <trkpt lat="44.08427" lon="4.36451">
        <ele>182</ele>
        <time>2022-02-08T10:02:41Z</time>
      </trkpt>
      <trkpt lat="44.08423" lon="4.3647">
        <ele>182</ele>
        <time>2022-02-08T10:02:43Z</time>
      </trkpt>
      <trkpt lat="44.08384" lon="4.3658">
        <ele>184</ele>
        <time>2022-02-08T10:02:59Z</time>
      </trkpt>
      <trkpt lat="44.08381" lon="4.36631">
        <ele>183</ele>
        <time>2022-02-08T10:03:05Z</time>
      </trkpt>
      <trkpt lat="44.08381" lon="4.36643">
        <ele>182</ele>
        <time>2022-02-08T10:03:07Z</time>
      </trkpt>
      <trkpt lat="44.08383" lon="4.36662">
        <ele>182</ele>
        <time>2022-02-08T10:03:09Z</time>
      </trkpt>
      <trkpt lat="44.0839" lon="4.36712">
        <ele>181</ele>
        <time>2022-02-08T10:03:16Z</time>
      </trkpt>
      <trkpt lat="44.08401" lon="4.36786">
        <ele>178</ele>
        <time>2022-02-08T10:03:26Z</time>
      </trkpt>
      <trkpt lat="44.08412" lon="4.36822">
        <ele>176</ele>
        <time>2022-02-08T10:03:31Z</time>
      </trkpt>
      <trkpt lat="44.08432" lon="4.3687">
        <ele>175</ele>
        <time>2022-02-08T10:03:38Z</time>
      </trkpt>
      <trkpt lat="44.0845" lon="4.36924">
        <ele>175</ele>
        <time>2022-02-08T10:03:45Z</time>
      </trkpt>
      <trkpt lat="44.08454" lon="4.3695">
        <ele>174</ele>
        <time>2022-02-08T10:03:49Z</time>
      </trkpt>
      <trkpt lat="44.08455" lon="4.36988">
        <ele>174</ele>
        <time>2022-02-08T10:03:54Z</time>
      </trkpt>
      <trkpt lat="44.08451" lon="4.37026">
        <ele>174</ele>
        <time>2022-02-08T10:03:58Z</time>
      </trkpt>
      <trkpt lat="44.08433" lon="4.37099">
        <ele>175</ele>
        <time>2022-02-08T10:04:08Z</time>
      </trkpt>
      <trkpt lat="44.08425" lon="4.37121">
        <ele>176</ele>
        <time>2022-02-08T10:04:11Z</time>
      </trkpt>
      <trkpt lat="44.08421" lon="4.37129">
        <ele>176</ele>
        <time>2022-02-08T10:04:13Z</time>
      </trkpt>
      <trkpt lat="44.08414" lon="4.37141">
        <ele>177</ele>
        <time>2022-02-08T10:04:15Z</time>
      </trkpt>
      <trkpt lat="44.08351" lon="4.37209">
        <ele>176</ele>
        <time>2022-02-08T10:04:29Z</time>
      </trkpt>
      <trkpt lat="44.08339" lon="4.37227">
        <ele>176</ele>
        <time>2022-02-08T10:04:32Z</time>
      </trkpt>
      <trkpt lat="44.08336" lon="4.37236">
        <ele>177</ele>
        <time>2022-02-08T10:04:33Z</time>
      </trkpt>
      <trkpt lat="44.08332" lon="4.37271">
        <ele>178</ele>
        <time>2022-02-08T10:04:38Z</time>
      </trkpt>
      <trkpt lat="44.08331" lon="4.37307">
        <ele>180</ele>
        <time>2022-02-08T10:04:42Z</time>
      </trkpt>
      <trkpt lat="44.08333" lon="4.37424">
        <ele>182</ele>
        <time>2022-02-08T10:04:57Z</time>
      </trkpt>
      <trkpt lat="44.08331" lon="4.37448">
        <ele>183</ele>
        <time>2022-02-08T10:05:00Z</time>
      </trkpt>
      <trkpt lat="44.08327" lon="4.37491">
        <ele>183</ele>
        <time>2022-02-08T10:05:06Z</time>
      </trkpt>
      <trkpt lat="44.08326" lon="4.37505">
        <ele>183</ele>
        <time>2022-02-08T10:05:08Z</time>
      </trkpt>
      <trkpt lat="44.08324" lon="4.37543">
        <ele>183</ele>
        <time>2022-02-08T10:05:13Z</time>
      </trkpt>
      <trkpt lat="44.08326" lon="4.3758">
        <ele>184</ele>
        <time>2022-02-08T10:05:17Z</time>
      </trkpt>
      <trkpt lat="44.08332" lon="4.3762">
        <ele>185</ele>
        <time>2022-02-08T10:05:23Z</time>
      </trkpt>
      <trkpt lat="44.08345" lon="4.37701">
        <ele>186</ele>
        <time>2022-02-08T10:05:33Z</time>
      </trkpt>
      <trkpt lat="44.08356" lon="4.37763">
        <ele>187</ele>
        <time>2022-02-08T10:05:41Z</time>
      </trkpt>
      <trkpt lat="44.08365" lon="4.37816">
        <ele>188</ele>
        <time>2022-02-08T10:05:48Z</time>
      </trkpt>
      <trkpt lat="44.08369" lon="4.37848">
        <ele>189</ele>
        <time>2022-02-08T10:05:53Z</time>
      </trkpt>
      <trkpt lat="44.08376" lon="4.37937">
        <ele>191</ele>
        <time>2022-02-08T10:06:04Z</time>
      </trkpt>
      <trkpt lat="44.08372" lon="4.38015">
        <ele>191</ele>
        <time>2022-02-08T10:06:14Z</time>
      </trkpt>
      <trkpt lat="44.08379" lon="4.38066">
        <ele>192</ele>
        <time>2022-02-08T10:06:21Z</time>
      </trkpt>
      <trkpt lat="44.08381" lon="4.38104">
        <ele>193</ele>
        <time>2022-02-08T10:06:25Z</time>
      </trkpt>
      <trkpt lat="44.08377" lon="4.3845">
        <ele>216</ele>
        <time>2022-02-08T10:07:10Z</time>
      </trkpt>
      <trkpt lat="44.0837" lon="4.38476">
        <ele>218</ele>
        <time>2022-02-08T10:07:13Z</time>
      </trkpt>
      <trkpt lat="44.08364" lon="4.38486">
        <ele>218</ele>
        <time>2022-02-08T10:07:15Z</time>
      </trkpt>
      <trkpt lat="44.08305" lon="4.38565">
        <ele>225</ele>
        <time>2022-02-08T10:07:29Z</time>
      </trkpt>
      <trkpt lat="44.0829" lon="4.38579">
        <ele>227</ele>
        <time>2022-02-08T10:07:33Z</time>
      </trkpt>
      <trkpt lat="44.08275" lon="4.38585">
        <ele>227</ele>
        <time>2022-02-08T10:07:35Z</time>
      </trkpt>
      <trkpt lat="44.08213" lon="4.38601">
        <ele>229</ele>
        <time>2022-02-08T10:07:47Z</time>
      </trkpt>
      <trkpt lat="44.08105" lon="4.38621">
        <ele>233</ele>
        <time>2022-02-08T10:08:06Z</time>
      </trkpt>
      <trkpt lat="44.08084" lon="4.38621">
        <ele>233</ele>
        <time>2022-02-08T10:08:10Z</time>
      </trkpt>
      <trkpt lat="44.08068" lon="4.38616">
        <ele>234</ele>
        <time>2022-02-08T10:08:13Z</time>
      </trkpt>
      <trkpt lat="44.08049" lon="4.38604">
        <ele>233</ele>
        <time>2022-02-08T10:08:16Z</time>
      </trkpt>
      <trkpt lat="44.0804" lon="4.38602">
        <ele>234</ele>
        <time>2022-02-08T10:08:18Z</time>
      </trkpt>
      <trkpt lat="44.08029" lon="4.38603">
        <ele>236</ele>
        <time>2022-02-08T10:08:20Z</time>
      </trkpt>
      <trkpt lat="44.08024" lon="4.38611">
        <ele>238</ele>
        <time>2022-02-08T10:08:21Z</time>
      </trkpt>
      <trkpt lat="44.08022" lon="4.38625">
        <ele>241</ele>
        <time>2022-02-08T10:08:23Z</time>
      </trkpt>
      <trkpt lat="44.08029" lon="4.38635">
        <ele>242</ele>
        <time>2022-02-08T10:08:25Z</time>
      </trkpt>
      <trkpt lat="44.08049" lon="4.38644">
        <ele>242</ele>
        <time>2022-02-08T10:08:29Z</time>
      </trkpt>
      <trkpt lat="44.08075" lon="4.38647">
        <ele>241</ele>
        <time>2022-02-08T10:08:33Z</time>
      </trkpt>
      <trkpt lat="44.0818" lon="4.38654">
        <ele>243</ele>
        <time>2022-02-08T10:08:52Z</time>
      </trkpt>
      <trkpt lat="44.08256" lon="4.38664">
        <ele>246</ele>
        <time>2022-02-08T10:09:06Z</time>
      </trkpt>
      <trkpt lat="44.0828" lon="4.38669">
        <ele>247</ele>
        <time>2022-02-08T10:09:10Z</time>
      </trkpt>
      <trkpt lat="44.08321" lon="4.38687">
        <ele>248</ele>
        <time>2022-02-08T10:09:18Z</time>
      </trkpt>
      <trkpt lat="44.08386" lon="4.38721">
        <ele>253</ele>
        <time>2022-02-08T10:09:30Z</time>
      </trkpt>
      <trkpt lat="44.08414" lon="4.38746">
        <ele>255</ele>
        <time>2022-02-08T10:09:36Z</time>
      </trkpt>
      <trkpt lat="44.0843" lon="4.38765">
        <ele>255</ele>
        <time>2022-02-08T10:09:40Z</time>
      </trkpt>
      <trkpt lat="44.08437" lon="4.38775">
        <ele>255</ele>
        <time>2022-02-08T10:09:41Z</time>
      </trkpt>
      <trkpt lat="44.08451" lon="4.38802">
        <ele>254</ele>
        <time>2022-02-08T10:09:46Z</time>
      </trkpt>
      <trkpt lat="44.08466" lon="4.38844">
        <ele>254</ele>
        <time>2022-02-08T10:09:52Z</time>
      </trkpt>
      <trkpt lat="44.08472" lon="4.38876">
        <ele>254</ele>
        <time>2022-02-08T10:09:56Z</time>
      </trkpt>
      <trkpt lat="44.08483" lon="4.3899">
        <ele>255</ele>
        <time>2022-02-08T10:10:11Z</time>
      </trkpt>
      <trkpt lat="44.08493" lon="4.39076">
        <ele>256</ele>
        <time>2022-02-08T10:10:22Z</time>
      </trkpt>
      <trkpt lat="44.08182" lon="4.39168">
        <ele>268</ele>
        <time>2022-02-08T10:11:18Z</time>
      </trkpt>
      <trkpt lat="44.08053" lon="4.39209">
        <ele>266</ele>
        <time>2022-02-08T10:11:42Z</time>
      </trkpt>
      <trkpt lat="44.07873" lon="4.39263">
        <ele>263</ele>
        <time>2022-02-08T10:12:15Z</time>
      </trkpt>
      <trkpt lat="44.0723" lon="4.39469">
        <ele>263</ele>
        <time>2022-02-08T10:14:12Z</time>
      </trkpt>
      <trkpt lat="44.06979" lon="4.39551">
        <ele>259</ele>
        <time>2022-02-08T10:14:58Z</time>
      </trkpt>
      <trkpt lat="44.06954" lon="4.3956">
        <ele>259</ele>
        <time>2022-02-08T10:15:02Z</time>
      </trkpt>
      <trkpt lat="44.06937" lon="4.39568">
        <ele>258</ele>
        <time>2022-02-08T10:15:06Z</time>
      </trkpt>
      <trkpt lat="44.06887" lon="4.39607">
        <ele>256</ele>
        <time>2022-02-08T10:15:16Z</time>
      </trkpt>
      <trkpt lat="44.06805" lon="4.39659">
        <ele>250</ele>
        <time>2022-02-08T10:15:32Z</time>
      </trkpt>
      <trkpt lat="44.06775" lon="4.39674">
        <ele>248</ele>
        <time>2022-02-08T10:15:38Z</time>
      </trkpt>
      <trkpt lat="44.0668" lon="4.39693">
        <ele>242</ele>
        <time>2022-02-08T10:15:55Z</time>
      </trkpt>
      <trkpt lat="44.06662" lon="4.39694">
        <ele>241</ele>
        <time>2022-02-08T10:15:58Z</time>
      </trkpt>
      <trkpt lat="44.06644" lon="4.39686">
        <ele>240</ele>
        <time>2022-02-08T10:16:01Z</time>
      </trkpt>
      <trkpt lat="44.06609" lon="4.39655">
        <ele>239</ele>
        <time>2022-02-08T10:16:09Z</time>
      </trkpt>
      <trkpt lat="44.0659" lon="4.39645">
        <ele>238</ele>
        <time>2022-02-08T10:16:12Z</time>
      </trkpt>
      <trkpt lat="44.06505" lon="4.39617">
        <ele>236</ele>
        <time>2022-02-08T10:16:28Z</time>
      </trkpt>
      <trkpt lat="44.06491" lon="4.39617">
        <ele>235</ele>
        <time>2022-02-08T10:16:30Z</time>
      </trkpt>
      <trkpt lat="44.06465" lon="4.39627">
        <ele>233</ele>
        <time>2022-02-08T10:16:35Z</time>
      </trkpt>
      <trkpt lat="44.06445" lon="4.39641">
        <ele>230</ele>
        <time>2022-02-08T10:16:39Z</time>
      </trkpt>
      <trkpt lat="44.0641" lon="4.39643">
        <ele>228</ele>
        <time>2022-02-08T10:16:45Z</time>
      </trkpt>
      <trkpt lat="44.06373" lon="4.39667">
        <ele>223</ele>
        <time>2022-02-08T10:16:53Z</time>
      </trkpt>
      <trkpt lat="44.06327" lon="4.39674">
        <ele>220</ele>
        <time>2022-02-08T10:17:01Z</time>
      </trkpt>
      <trkpt lat="44.0631" lon="4.39668">
        <ele>218</ele>
        <time>2022-02-08T10:17:04Z</time>
      </trkpt>
      <trkpt lat="44.06277" lon="4.39646">
        <ele>218</ele>
        <time>2022-02-08T10:17:10Z</time>
      </trkpt>
      <trkpt lat="44.06262" lon="4.39644">
        <ele>216</ele>
        <time>2022-02-08T10:17:13Z</time>
      </trkpt>
      <trkpt lat="44.06208" lon="4.39655">
        <ele>210</ele>
        <time>2022-02-08T10:17:23Z</time>
      </trkpt>
      <trkpt lat="44.06196" lon="4.39651">
        <ele>210</ele>
        <time>2022-02-08T10:17:25Z</time>
      </trkpt>
      <trkpt lat="44.06182" lon="4.39639">
        <ele>210</ele>
        <time>2022-02-08T10:17:28Z</time>
      </trkpt>
      <trkpt lat="44.06171" lon="4.39636">
        <ele>209</ele>
        <time>2022-02-08T10:17:30Z</time>
      </trkpt>
      <trkpt lat="44.06109" lon="4.39652">
        <ele>200</ele>
        <time>2022-02-08T10:17:41Z</time>
      </trkpt>
      <trkpt lat="44.06094" lon="4.39646">
        <ele>198</ele>
        <time>2022-02-08T10:17:44Z</time>
      </trkpt>
      <trkpt lat="44.06083" lon="4.39634">
        <ele>198</ele>
        <time>2022-02-08T10:17:46Z</time>
      </trkpt>
      <trkpt lat="44.06054" lon="4.39595">
        <ele>196</ele>
        <time>2022-02-08T10:17:54Z</time>
      </trkpt>
      <trkpt lat="44.06051" lon="4.39579">
        <ele>197</ele>
        <time>2022-02-08T10:17:56Z</time>
      </trkpt>
      <trkpt lat="44.06055" lon="4.39547">
        <ele>199</ele>
        <time>2022-02-08T10:18:00Z</time>
      </trkpt>
      <trkpt lat="44.06052" lon="4.39534">
        <ele>198</ele>
        <time>2022-02-08T10:18:02Z</time>
      </trkpt>
      <trkpt lat="44.06047" lon="4.39529">
        <ele>198</ele>
        <time>2022-02-08T10:18:03Z</time>
      </trkpt>
      <trkpt lat="44.06039" lon="4.39529">
        <ele>196</ele>
        <time>2022-02-08T10:18:04Z</time>
      </trkpt>
      <trkpt lat="44.06033" lon="4.39536">
        <ele>195</ele>
        <time>2022-02-08T10:18:05Z</time>
      </trkpt>
      <trkpt lat="44.06029" lon="4.39554">
        <ele>194</ele>
        <time>2022-02-08T10:18:08Z</time>
      </trkpt>
      <trkpt lat="44.0603" lon="4.39586">
        <ele>193</ele>
        <time>2022-02-08T10:18:12Z</time>
      </trkpt>
      <trkpt lat="44.06055" lon="4.39672">
        <ele>190</ele>
        <time>2022-02-08T10:18:24Z</time>
      </trkpt>
      <trkpt lat="44.06058" lon="4.39687">
        <ele>190</ele>
        <time>2022-02-08T10:18:26Z</time>
      </trkpt>
      <trkpt lat="44.06056" lon="4.39736">
        <ele>188</ele>
        <time>2022-02-08T10:18:32Z</time>
      </trkpt>
      <trkpt lat="44.06052" lon="4.3975">
        <ele>187</ele>
        <time>2022-02-08T10:18:34Z</time>
      </trkpt>
      <trkpt lat="44.06042" lon="4.39762">
        <ele>187</ele>
        <time>2022-02-08T10:18:36Z</time>
      </trkpt>
      <trkpt lat="44.0596" lon="4.39828">
        <ele>180</ele>
        <time>2022-02-08T10:18:53Z</time>
      </trkpt>
      <trkpt lat="44.05948" lon="4.3984">
        <ele>179</ele>
        <time>2022-02-08T10:18:56Z</time>
      </trkpt>
      <trkpt lat="44.05874" lon="4.39925">
        <ele>172</ele>
        <time>2022-02-08T10:19:13Z</time>
      </trkpt>
      <trkpt lat="44.05831" lon="4.39996">
        <ele>168</ele>
        <time>2022-02-08T10:19:25Z</time>
      </trkpt>
      <trkpt lat="44.05816" lon="4.40017">
        <ele>166</ele>
        <time>2022-02-08T10:19:29Z</time>
      </trkpt>
      <trkpt lat="44.05798" lon="4.40031">
        <ele>165</ele>
        <time>2022-02-08T10:19:32Z</time>
      </trkpt>
      <trkpt lat="44.05663" lon="4.40084">
        <ele>156</ele>
        <time>2022-02-08T10:19:57Z</time>
      </trkpt>
      <trkpt lat="44.05588" lon="4.40116">
        <ele>150</ele>
        <time>2022-02-08T10:20:11Z</time>
      </trkpt>
      <trkpt lat="44.04817" lon="4.40419">
        <ele>121</ele>
        <time>2022-02-08T10:22:34Z</time>
      </trkpt>
      <trkpt lat="44.046" lon="4.40506">
        <ele>117</ele>
        <time>2022-02-08T10:23:14Z</time>
      </trkpt>
      <trkpt lat="44.04619" lon="4.40569">
        <ele>117</ele>
        <time>2022-02-08T10:23:23Z</time>
      </trkpt>
      <trkpt lat="44.04661" lon="4.40765">
        <ele>116</ele>
        <time>2022-02-08T10:23:49Z</time>
      </trkpt>
      <trkpt lat="44.0469" lon="4.40979">
        <ele>116</ele>
        <time>2022-02-08T10:24:17Z</time>
      </trkpt>
      <trkpt lat="44.0474" lon="4.41235">
        <ele>116</ele>
        <time>2022-02-08T10:24:51Z</time>
      </trkpt>
      <trkpt lat="44.04753" lon="4.41333">
        <ele>115</ele>
        <time>2022-02-08T10:25:03Z</time>
      </trkpt>
      <trkpt lat="44.04775" lon="4.41468">
        <ele>111</ele>
        <time>2022-02-08T10:25:21Z</time>
      </trkpt>
      <trkpt lat="44.04785" lon="4.4158">
        <ele>111</ele>
        <time>2022-02-08T10:25:35Z</time>
      </trkpt>
      <trkpt lat="44.04792" lon="4.41685">
        <ele>110</ele>
        <time>2022-02-08T10:25:49Z</time>
      </trkpt>
      <trkpt lat="44.04803" lon="4.41733">
        <ele>111</ele>
        <time>2022-02-08T10:25:55Z</time>
      </trkpt>
      <trkpt lat="44.04896" lon="4.42003">
        <ele>109</ele>
        <time>2022-02-08T10:26:34Z</time>
      </trkpt>
      <trkpt lat="44.04906" lon="4.42071">
        <ele>108</ele>
        <time>2022-02-08T10:26:43Z</time>
      </trkpt>
      <trkpt lat="44.04925" lon="4.42291">
        <ele>108</ele>
        <time>2022-02-08T10:27:11Z</time>
      </trkpt>
      <trkpt lat="44.04931" lon="4.42385">
        <ele>108</ele>
        <time>2022-02-08T10:27:23Z</time>
      </trkpt>
      <trkpt lat="44.04934" lon="4.42467">
        <ele>107</ele>
        <time>2022-02-08T10:27:33Z</time>
      </trkpt>
      <trkpt lat="44.0493" lon="4.42509">
        <ele>107</ele>
        <time>2022-02-08T10:27:39Z</time>
      </trkpt>
      <trkpt lat="44.04892" lon="4.42734">
        <ele>107</ele>
        <time>2022-02-08T10:28:08Z</time>
      </trkpt>
      <trkpt lat="44.04884" lon="4.42761">
        <ele>107</ele>
        <time>2022-02-08T10:28:12Z</time>
      </trkpt>
      <trkpt lat="44.04854" lon="4.42842">
        <ele>106</ele>
        <time>2022-02-08T10:28:24Z</time>
      </trkpt>
      <trkpt lat="44.04847" lon="4.42871">
        <ele>106</ele>
        <time>2022-02-08T10:28:28Z</time>
      </trkpt>
      <trkpt lat="44.04852" lon="4.42904">
        <ele>107</ele>
        <time>2022-02-08T10:28:32Z</time>
      </trkpt>
      <trkpt lat="44.04861" lon="4.42932">
        <ele>107</ele>
        <time>2022-02-08T10:28:36Z</time>
      </trkpt>
      <trkpt lat="44.04878" lon="4.42974">
        <ele>107</ele>
        <time>2022-02-08T10:28:42Z</time>
      </trkpt>
      <trkpt lat="44.04899" lon="4.43037">
        <ele>108</ele>
        <time>2022-02-08T10:28:51Z</time>
      </trkpt>
      <trkpt lat="44.04913" lon="4.43093">
        <ele>109</ele>
        <time>2022-02-08T10:28:59Z</time>
      </trkpt>
      <trkpt lat="44.04912" lon="4.43165">
        <ele>106</ele>
        <time>2022-02-08T10:29:08Z</time>
      </trkpt>
      <trkpt lat="44.0487" lon="4.43284">
        <ele>105</ele>
        <time>2022-02-08T10:29:25Z</time>
      </trkpt>
      <trkpt lat="44.0483" lon="4.43446">
        <ele>105</ele>
        <time>2022-02-08T10:29:47Z</time>
      </trkpt>
      <trkpt lat="44.04821" lon="4.43471">
        <ele>104</ele>
        <time>2022-02-08T10:29:50Z</time>
      </trkpt>
      <trkpt lat="44.04765" lon="4.43606">
        <ele>102</ele>
        <time>2022-02-08T10:30:10Z</time>
      </trkpt>
      <trkpt lat="44.04754" lon="4.43639">
        <ele>102</ele>
        <time>2022-02-08T10:30:15Z</time>
      </trkpt>
      <trkpt lat="44.04733" lon="4.43757">
        <ele>106</ele>
        <time>2022-02-08T10:30:30Z</time>
      </trkpt>
      <trkpt lat="44.04699" lon="4.4396">
        <ele>111</ele>
        <time>2022-02-08T10:30:57Z</time>
      </trkpt>
      <trkpt lat="44.04679" lon="4.43995">
        <ele>113</ele>
        <time>2022-02-08T10:31:03Z</time>
      </trkpt>
      <trkpt lat="44.04661" lon="4.44017">
        <ele>115</ele>
        <time>2022-02-08T10:31:07Z</time>
      </trkpt>
      <trkpt lat="44.04644" lon="4.4403">
        <ele>116</ele>
        <time>2022-02-08T10:31:10Z</time>
      </trkpt>
      <trkpt lat="44.0464" lon="4.44037">
        <ele>117</ele>
        <time>2022-02-08T10:31:12Z</time>
      </trkpt>
      <trkpt lat="44.04634" lon="4.44057">
        <ele>118</ele>
        <time>2022-02-08T10:31:14Z</time>
      </trkpt>
      <trkpt lat="44.04569" lon="4.44042">
        <ele>116</ele>
        <time>2022-02-08T10:31:26Z</time>
      </trkpt>
      <trkpt lat="44.04565" lon="4.44054">
        <ele>117</ele>
        <time>2022-02-08T10:31:28Z</time>
      </trkpt>
    </trkseg>
  </trk>
</gpx>